<?xml version='1.0' encoding='UTF-8'?><gpx version="1.1" creator="JPX - https://github.com/jenetics/jpx" xmlns="http://www.topografix.com/GPX/1/1"><trk><trkseg><trkpt lat="45.6011854" lon="9.0488537"><ele>196.49999999999997</ele><time>2026-04-04T12:20:56.499Z</time></trkpt><trkpt lat="45.6010992" lon="9.0488483"><ele>197.0</ele><time>2026-04-04T12:20:58.514Z</time></trkpt><trkpt lat="45.6010315" lon="9.0488173"><ele>197.5</ele><time>2026-04-04T12:21:00.513Z</time></trkpt><trkpt lat="45.6009969" lon="9.0487044"><ele>198.0</ele><time>2026-04-04T12:21:02.514Z</time></trkpt><trkpt lat="45.6010034" lon="9.0485838"><ele>198.49999999999997</ele><time>2026-04-04T12:21:04.514Z</time></trkpt><trkpt lat="45.6010058" lon="9.048463"><ele>199.0</ele><time>2026-04-04T12:21:07.514Z</time></trkpt><trkpt lat="45.6010066" lon="9.0483698"><ele>198.49999999999997</ele><time>2026-04-04T12:21:10.514Z</time></trkpt><trkpt lat="45.6010149" lon="9.0482715"><ele>198.0</ele><time>2026-04-04T12:21:13.513Z</time></trkpt><trkpt lat="45.6010748" lon="9.0482146"><ele>197.5</ele><time>2026-04-04T12:21:15.514Z</time></trkpt><trkpt lat="45.6011695" lon="9.0482185"><ele>197.0</ele><time>2026-04-04T12:21:17.514Z</time></trkpt><trkpt lat="45.601289" lon="9.0482316"><ele>196.49999999999997</ele><time>2026-04-04T12:21:19.514Z</time></trkpt><trkpt lat="45.6013574" lon="9.0482317"><ele>196.0</ele><time>2026-04-04T12:21:20.514Z</time></trkpt><trkpt lat="45.6014594" lon="9.0482264"><ele>195.83333333333331</ele><time>2026-04-04T12:21:22.514Z</time></trkpt><trkpt lat="45.6015459" lon="9.0482176"><ele>195.66666666666666</ele><time>2026-04-04T12:21:24.512Z</time></trkpt><trkpt lat="45.6016206" lon="9.0481614"><ele>195.5</ele><time>2026-04-04T12:21:26.513Z</time></trkpt><trkpt lat="45.6016403" lon="9.0480021"><ele>195.33333333333331</ele><time>2026-04-04T12:21:28.514Z</time></trkpt><trkpt lat="45.6016362" lon="9.047892"><ele>195.16666666666666</ele><time>2026-04-04T12:21:29.513Z</time></trkpt><trkpt lat="45.601631" lon="9.0477675"><ele>195.0</ele><time>2026-04-04T12:21:30.514Z</time></trkpt><trkpt lat="45.6016255" lon="9.0476351"><ele>195.0</ele><time>2026-04-04T12:21:31.514Z</time></trkpt><trkpt lat="45.6016194" lon="9.0474967"><ele>195.0</ele><time>2026-04-04T12:21:32.514Z</time></trkpt><trkpt lat="45.601613" lon="9.0473525"><ele>195.0</ele><time>2026-04-04T12:21:33.514Z</time></trkpt><trkpt lat="45.6016067" lon="9.047201"><ele>195.0</ele><time>2026-04-04T12:21:34.514Z</time></trkpt><trkpt lat="45.6016011" lon="9.0470363"><ele>195.0</ele><time>2026-04-04T12:21:35.513Z</time></trkpt><trkpt lat="45.6015945" lon="9.0468703"><ele>195.25</ele><time>2026-04-04T12:21:36.514Z</time></trkpt><trkpt lat="45.6015873" lon="9.0466991"><ele>195.5</ele><time>2026-04-04T12:21:37.514Z</time></trkpt><trkpt lat="45.6015814" lon="9.0465227"><ele>195.75</ele><time>2026-04-04T12:21:38.513Z</time></trkpt><trkpt lat="45.6015762" lon="9.0463459"><ele>196.0</ele><time>2026-04-04T12:21:39.514Z</time></trkpt><trkpt lat="45.6015694" lon="9.0461675"><ele>196.25</ele><time>2026-04-04T12:21:40.514Z</time></trkpt><trkpt lat="45.6015614" lon="9.0459873"><ele>196.5</ele><time>2026-04-04T12:21:41.514Z</time></trkpt><trkpt lat="45.6015553" lon="9.0458075"><ele>196.75</ele><time>2026-04-04T12:21:42.515Z</time></trkpt><trkpt lat="45.6015515" lon="9.045628"><ele>197.0</ele><time>2026-04-04T12:21:43.514Z</time></trkpt><trkpt lat="45.6015463" lon="9.0454479"><ele>197.0</ele><time>2026-04-04T12:21:44.514Z</time></trkpt><trkpt lat="45.6015396" lon="9.0452671"><ele>197.0</ele><time>2026-04-04T12:21:45.514Z</time></trkpt><trkpt lat="45.6015317" lon="9.0450872"><ele>197.0</ele><time>2026-04-04T12:21:46.514Z</time></trkpt><trkpt lat="45.601522" lon="9.0449075"><ele>197.0</ele><time>2026-04-04T12:21:47.513Z</time></trkpt><trkpt lat="45.6015129" lon="9.0447292"><ele>196.75</ele><time>2026-04-04T12:21:48.513Z</time></trkpt><trkpt lat="45.6015032" lon="9.0445525"><ele>196.5</ele><time>2026-04-04T12:21:49.514Z</time></trkpt><trkpt lat="45.6014924" lon="9.0443762"><ele>196.25</ele><time>2026-04-04T12:21:50.514Z</time></trkpt><trkpt lat="45.6014801" lon="9.044201"><ele>196.0</ele><time>2026-04-04T12:21:51.514Z</time></trkpt><trkpt lat="45.6014693" lon="9.0440322"><ele>196.0</ele><time>2026-04-04T12:21:52.514Z</time></trkpt><trkpt lat="45.601457" lon="9.043883"><ele>196.0</ele><time>2026-04-04T12:21:53.514Z</time></trkpt><trkpt lat="45.6014396" lon="9.0437481"><ele>196.0</ele><time>2026-04-04T12:21:54.514Z</time></trkpt><trkpt lat="45.6014144" lon="9.0436312"><ele>196.0</ele><time>2026-04-04T12:21:55.513Z</time></trkpt><trkpt lat="45.6013852" lon="9.043536"><ele>196.0</ele><time>2026-04-04T12:21:56.514Z</time></trkpt><trkpt lat="45.6013516" lon="9.0433973"><ele>196.20000000000002</ele><time>2026-04-04T12:21:58.514Z</time></trkpt><trkpt lat="45.6014058" lon="9.0432798"><ele>196.4</ele><time>2026-04-04T12:22:00.514Z</time></trkpt><trkpt lat="45.6014665" lon="9.0432312"><ele>196.6</ele><time>2026-04-04T12:22:01.513Z</time></trkpt><trkpt lat="45.6015445" lon="9.0431749"><ele>196.8</ele><time>2026-04-04T12:22:02.513Z</time></trkpt><trkpt lat="45.6016427" lon="9.0431137"><ele>197.0</ele><time>2026-04-04T12:22:03.514Z</time></trkpt><trkpt lat="45.6017531" lon="9.0430356"><ele>197.0</ele><time>2026-04-04T12:22:04.514Z</time></trkpt><trkpt lat="45.601857" lon="9.0429539"><ele>197.0</ele><time>2026-04-04T12:22:05.513Z</time></trkpt><trkpt lat="45.6019693" lon="9.0428662"><ele>197.0</ele><time>2026-04-04T12:22:06.514Z</time></trkpt><trkpt lat="45.6020873" lon="9.042773"><ele>197.0</ele><time>2026-04-04T12:22:07.514Z</time></trkpt><trkpt lat="45.6022058" lon="9.0426918"><ele>197.0</ele><time>2026-04-04T12:22:08.513Z</time></trkpt><trkpt lat="45.6023292" lon="9.0426131"><ele>197.0</ele><time>2026-04-04T12:22:09.513Z</time></trkpt><trkpt lat="45.6024519" lon="9.0425297"><ele>197.0</ele><time>2026-04-04T12:22:10.514Z</time></trkpt><trkpt lat="45.6025745" lon="9.0424418"><ele>197.0</ele><time>2026-04-04T12:22:11.514Z</time></trkpt><trkpt lat="45.6026964" lon="9.0423494"><ele>197.0</ele><time>2026-04-04T12:22:12.514Z</time></trkpt><trkpt lat="45.6028182" lon="9.0422519"><ele>197.0</ele><time>2026-04-04T12:22:13.515Z</time></trkpt><trkpt lat="45.6029416" lon="9.0421558"><ele>197.0</ele><time>2026-04-04T12:22:14.514Z</time></trkpt><trkpt lat="45.6030637" lon="9.0420655"><ele>197.0</ele><time>2026-04-04T12:22:15.513Z</time></trkpt><trkpt lat="45.6031845" lon="9.04198"><ele>197.0</ele><time>2026-04-04T12:22:16.514Z</time></trkpt><trkpt lat="45.603303" lon="9.0418969"><ele>197.0</ele><time>2026-04-04T12:22:17.513Z</time></trkpt><trkpt lat="45.6034186" lon="9.0418114"><ele>197.0</ele><time>2026-04-04T12:22:18.514Z</time></trkpt><trkpt lat="45.6035332" lon="9.0417283"><ele>197.0</ele><time>2026-04-04T12:22:19.514Z</time></trkpt><trkpt lat="45.6036449" lon="9.0416438"><ele>196.5</ele><time>2026-04-04T12:22:20.514Z</time></trkpt><trkpt lat="45.6037525" lon="9.0415559"><ele>196.0</ele><time>2026-04-04T12:22:21.514Z</time></trkpt><trkpt lat="45.6038632" lon="9.0414715"><ele>195.5</ele><time>2026-04-04T12:22:22.514Z</time></trkpt><trkpt lat="45.6039816" lon="9.0413906"><ele>195.0</ele><time>2026-04-04T12:22:23.514Z</time></trkpt><trkpt lat="45.6041004" lon="9.041309"><ele>195.0</ele><time>2026-04-04T12:22:24.514Z</time></trkpt><trkpt lat="45.6042192" lon="9.0412244"><ele>195.0</ele><time>2026-04-04T12:22:25.514Z</time></trkpt><trkpt lat="45.6043388" lon="9.0411378"><ele>195.0</ele><time>2026-04-04T12:22:26.514Z</time></trkpt><trkpt lat="45.604458" lon="9.0410499"><ele>195.0</ele><time>2026-04-04T12:22:27.514Z</time></trkpt><trkpt lat="45.6045828" lon="9.0409601"><ele>195.5</ele><time>2026-04-04T12:22:28.513Z</time></trkpt><trkpt lat="45.6047078" lon="9.0408716"><ele>196.0</ele><time>2026-04-04T12:22:29.514Z</time></trkpt><trkpt lat="45.6048322" lon="9.0407825"><ele>196.5</ele><time>2026-04-04T12:22:30.514Z</time></trkpt><trkpt lat="45.6049568" lon="9.0406927"><ele>197.0</ele><time>2026-04-04T12:22:31.514Z</time></trkpt><trkpt lat="45.6050827" lon="9.0405998"><ele>196.75</ele><time>2026-04-04T12:22:32.514Z</time></trkpt><trkpt lat="45.6052093" lon="9.0405061"><ele>196.5</ele><time>2026-04-04T12:22:33.514Z</time></trkpt><trkpt lat="45.6053369" lon="9.0404123"><ele>196.25</ele><time>2026-04-04T12:22:34.514Z</time></trkpt><trkpt lat="45.6054644" lon="9.0403184"><ele>196.0</ele><time>2026-04-04T12:22:35.513Z</time></trkpt><trkpt lat="45.6055907" lon="9.0402239"><ele>196.0</ele><time>2026-04-04T12:22:36.514Z</time></trkpt><trkpt lat="45.605718" lon="9.0401289"><ele>196.0</ele><time>2026-04-04T12:22:37.514Z</time></trkpt><trkpt lat="45.6058484" lon="9.0400358"><ele>196.0</ele><time>2026-04-04T12:22:38.513Z</time></trkpt><trkpt lat="45.6059867" lon="9.0399357"><ele>196.0</ele><time>2026-04-04T12:22:39.514Z</time></trkpt><trkpt lat="45.6061214" lon="9.0398363"><ele>197.0</ele><time>2026-04-04T12:22:40.514Z</time></trkpt><trkpt lat="45.6062563" lon="9.0397368"><ele>198.0</ele><time>2026-04-04T12:22:41.513Z</time></trkpt><trkpt lat="45.6063926" lon="9.0396347"><ele>199.0</ele><time>2026-04-04T12:22:42.513Z</time></trkpt><trkpt lat="45.6065289" lon="9.0395356"><ele>199.0</ele><time>2026-04-04T12:22:43.514Z</time></trkpt><trkpt lat="45.6066613" lon="9.0394365"><ele>199.0</ele><time>2026-04-04T12:22:44.514Z</time></trkpt><trkpt lat="45.6067978" lon="9.0393377"><ele>199.0</ele><time>2026-04-04T12:22:45.514Z</time></trkpt><trkpt lat="45.6069387" lon="9.0392338"><ele>198.75</ele><time>2026-04-04T12:22:46.514Z</time></trkpt><trkpt lat="45.6070784" lon="9.0391321"><ele>198.5</ele><time>2026-04-04T12:22:47.514Z</time></trkpt><trkpt lat="45.607204" lon="9.0390378"><ele>198.25</ele><time>2026-04-04T12:22:48.513Z</time></trkpt><trkpt lat="45.6073246" lon="9.0389498"><ele>198.0</ele><time>2026-04-04T12:22:49.514Z</time></trkpt><trkpt lat="45.6074449" lon="9.0388614"><ele>198.0</ele><time>2026-04-04T12:22:50.514Z</time></trkpt><trkpt lat="45.6075647" lon="9.0387723"><ele>198.0</ele><time>2026-04-04T12:22:51.514Z</time></trkpt><trkpt lat="45.6076843" lon="9.0386858"><ele>198.0</ele><time>2026-04-04T12:22:52.514Z</time></trkpt><trkpt lat="45.6078006" lon="9.0385991"><ele>198.0</ele><time>2026-04-04T12:22:53.514Z</time></trkpt><trkpt lat="45.6079147" lon="9.0385122"><ele>198.0</ele><time>2026-04-04T12:22:54.514Z</time></trkpt><trkpt lat="45.6080261" lon="9.03843"><ele>198.0</ele><time>2026-04-04T12:22:55.514Z</time></trkpt><trkpt lat="45.608138" lon="9.0383513"><ele>198.0</ele><time>2026-04-04T12:22:56.514Z</time></trkpt><trkpt lat="45.608249" lon="9.0382751"><ele>198.0</ele><time>2026-04-04T12:22:57.514Z</time></trkpt><trkpt lat="45.6083586" lon="9.0381966"><ele>197.75</ele><time>2026-04-04T12:22:58.514Z</time></trkpt><trkpt lat="45.6084643" lon="9.0381165"><ele>197.5</ele><time>2026-04-04T12:22:59.513Z</time></trkpt><trkpt lat="45.608565" lon="9.038039"><ele>197.25</ele><time>2026-04-04T12:23:00.514Z</time></trkpt><trkpt lat="45.6086674" lon="9.0379639"><ele>197.0</ele><time>2026-04-04T12:23:01.514Z</time></trkpt><trkpt lat="45.6087807" lon="9.0378864"><ele>197.75</ele><time>2026-04-04T12:23:02.514Z</time></trkpt><trkpt lat="45.6088969" lon="9.0378031"><ele>198.5</ele><time>2026-04-04T12:23:03.514Z</time></trkpt><trkpt lat="45.6090077" lon="9.0377165"><ele>199.25</ele><time>2026-04-04T12:23:04.514Z</time></trkpt><trkpt lat="45.6091207" lon="9.0376266"><ele>200.0</ele><time>2026-04-04T12:23:05.514Z</time></trkpt><trkpt lat="45.6092334" lon="9.0375363"><ele>200.0</ele><time>2026-04-04T12:23:06.514Z</time></trkpt><trkpt lat="45.6093465" lon="9.0374472"><ele>200.0</ele><time>2026-04-04T12:23:07.514Z</time></trkpt><trkpt lat="45.6094607" lon="9.0373651"><ele>200.0</ele><time>2026-04-04T12:23:08.514Z</time></trkpt><trkpt lat="45.609572" lon="9.03729"><ele>200.0</ele><time>2026-04-04T12:23:09.514Z</time></trkpt><trkpt lat="45.6096783" lon="9.0372155"><ele>199.8</ele><time>2026-04-04T12:23:10.514Z</time></trkpt><trkpt lat="45.6097769" lon="9.0371433"><ele>199.6</ele><time>2026-04-04T12:23:11.514Z</time></trkpt><trkpt lat="45.6098735" lon="9.0370726"><ele>199.39999999999998</ele><time>2026-04-04T12:23:12.514Z</time></trkpt><trkpt lat="45.6099672" lon="9.0370026"><ele>199.2</ele><time>2026-04-04T12:23:13.514Z</time></trkpt><trkpt lat="45.6100627" lon="9.0369308"><ele>199.0</ele><time>2026-04-04T12:23:14.513Z</time></trkpt><trkpt lat="45.61016" lon="9.0368606"><ele>199.0</ele><time>2026-04-04T12:23:15.514Z</time></trkpt><trkpt lat="45.6102563" lon="9.036791"><ele>199.0</ele><time>2026-04-04T12:23:16.514Z</time></trkpt><trkpt lat="45.61035" lon="9.0367215"><ele>199.0</ele><time>2026-04-04T12:23:17.514Z</time></trkpt><trkpt lat="45.610446" lon="9.0366508"><ele>199.0</ele><time>2026-04-04T12:23:18.514Z</time></trkpt><trkpt lat="45.6105407" lon="9.0365803"><ele>199.0</ele><time>2026-04-04T12:23:19.514Z</time></trkpt><trkpt lat="45.6106375" lon="9.0365117"><ele>199.39999999999998</ele><time>2026-04-04T12:23:20.514Z</time></trkpt><trkpt lat="45.6107325" lon="9.0364408"><ele>199.8</ele><time>2026-04-04T12:23:21.514Z</time></trkpt><trkpt lat="45.6108261" lon="9.0363672"><ele>200.2</ele><time>2026-04-04T12:23:22.513Z</time></trkpt><trkpt lat="45.6109204" lon="9.0362951"><ele>200.60000000000002</ele><time>2026-04-04T12:23:23.514Z</time></trkpt><trkpt lat="45.6110159" lon="9.0362268"><ele>201.0</ele><time>2026-04-04T12:23:24.514Z</time></trkpt><trkpt lat="45.6111116" lon="9.0361612"><ele>201.4</ele><time>2026-04-04T12:23:25.514Z</time></trkpt><trkpt lat="45.6112062" lon="9.0360922"><ele>201.8</ele><time>2026-04-04T12:23:26.514Z</time></trkpt><trkpt lat="45.6113004" lon="9.0360225"><ele>202.20000000000002</ele><time>2026-04-04T12:23:27.514Z</time></trkpt><trkpt lat="45.6113945" lon="9.0359532"><ele>202.60000000000002</ele><time>2026-04-04T12:23:28.514Z</time></trkpt><trkpt lat="45.6114883" lon="9.0358856"><ele>203.0</ele><time>2026-04-04T12:23:29.514Z</time></trkpt><trkpt lat="45.6115839" lon="9.0358188"><ele>202.8</ele><time>2026-04-04T12:23:30.514Z</time></trkpt><trkpt lat="45.6116766" lon="9.035752"><ele>202.60000000000002</ele><time>2026-04-04T12:23:31.514Z</time></trkpt><trkpt lat="45.6117621" lon="9.0356883"><ele>202.39999999999998</ele><time>2026-04-04T12:23:32.514Z</time></trkpt><trkpt lat="45.6118496" lon="9.0356206"><ele>202.2</ele><time>2026-04-04T12:23:33.514Z</time></trkpt><trkpt lat="45.6119339" lon="9.0355545"><ele>202.0</ele><time>2026-04-04T12:23:34.513Z</time></trkpt><trkpt lat="45.6120097" lon="9.0354965"><ele>201.8</ele><time>2026-04-04T12:23:35.513Z</time></trkpt><trkpt lat="45.6120723" lon="9.0354485"><ele>201.6</ele><time>2026-04-04T12:23:36.514Z</time></trkpt><trkpt lat="45.6121671" lon="9.035376"><ele>201.4</ele><time>2026-04-04T12:23:38.514Z</time></trkpt><trkpt lat="45.6122271" lon="9.0353127"><ele>201.20000000000002</ele><time>2026-04-04T12:23:40.514Z</time></trkpt><trkpt lat="45.61232" lon="9.0352305"><ele>201.0</ele><time>2026-04-04T12:23:42.513Z</time></trkpt><trkpt lat="45.6124312" lon="9.0351513"><ele>201.0</ele><time>2026-04-04T12:23:44.514Z</time></trkpt><trkpt lat="45.6125211" lon="9.0350776"><ele>201.0</ele><time>2026-04-04T12:23:46.514Z</time></trkpt><trkpt lat="45.6125845" lon="9.0350297"><ele>201.0</ele><time>2026-04-04T12:23:48.513Z</time></trkpt><trkpt lat="45.6126669" lon="9.0349858"><ele>201.0</ele><time>2026-04-04T12:23:51.514Z</time></trkpt><trkpt lat="45.6127542" lon="9.0349701"><ele>201.0</ele><time>2026-04-04T12:23:53.514Z</time></trkpt><trkpt lat="45.6128249" lon="9.0349737"><ele>201.0</ele><time>2026-04-04T12:23:54.514Z</time></trkpt><trkpt lat="45.6129033" lon="9.0349699"><ele>201.16666666666666</ele><time>2026-04-04T12:23:55.514Z</time></trkpt><trkpt lat="45.6129738" lon="9.0349503"><ele>201.33333333333331</ele><time>2026-04-04T12:23:56.514Z</time></trkpt><trkpt lat="45.6130415" lon="9.0349069"><ele>201.5</ele><time>2026-04-04T12:23:57.514Z</time></trkpt><trkpt lat="45.613105" lon="9.0348355"><ele>201.66666666666666</ele><time>2026-04-04T12:23:58.514Z</time></trkpt><trkpt lat="45.6131538" lon="9.0347443"><ele>201.83333333333331</ele><time>2026-04-04T12:23:59.514Z</time></trkpt><trkpt lat="45.613203" lon="9.0346698"><ele>202.0</ele><time>2026-04-04T12:24:00.513Z</time></trkpt><trkpt lat="45.613287" lon="9.0345835"><ele>202.0</ele><time>2026-04-04T12:24:02.514Z</time></trkpt><trkpt lat="45.6133436" lon="9.0345281"><ele>202.0</ele><time>2026-04-04T12:24:03.514Z</time></trkpt><trkpt lat="45.6134119" lon="9.034465"><ele>202.0</ele><time>2026-04-04T12:24:04.514Z</time></trkpt><trkpt lat="45.6134723" lon="9.0344107"><ele>202.0</ele><time>2026-04-04T12:24:05.514Z</time></trkpt><trkpt lat="45.6135291" lon="9.0343671"><ele>202.0</ele><time>2026-04-04T12:24:06.514Z</time></trkpt><trkpt lat="45.6136208" lon="9.0343224"><ele>202.0</ele><time>2026-04-04T12:24:08.514Z</time></trkpt><trkpt lat="45.6136813" lon="9.0342949"><ele>202.0</ele><time>2026-04-04T12:24:11.514Z</time></trkpt><trkpt lat="45.613637" lon="9.0342266"><ele>202.0</ele><time>2026-04-04T12:29:28.513Z</time></trkpt><trkpt lat="45.6135419" lon="9.0342908"><ele>202.0</ele><time>2026-04-04T12:29:30.513Z</time></trkpt><trkpt lat="45.6134301" lon="9.0343745"><ele>202.0</ele><time>2026-04-04T12:29:32.513Z</time></trkpt><trkpt lat="45.6133244" lon="9.0344355"><ele>202.0</ele><time>2026-04-04T12:29:34.513Z</time></trkpt><trkpt lat="45.6132352" lon="9.0344747"><ele>202.0</ele><time>2026-04-04T12:29:36.512Z</time></trkpt><trkpt lat="45.613172" lon="9.0344831"><ele>201.99999999999997</ele><time>2026-04-04T12:29:41.513Z</time></trkpt><trkpt lat="45.613099" lon="9.0344742"><ele>202.0</ele><time>2026-04-04T12:30:00.512Z</time></trkpt><trkpt lat="45.6129926" lon="9.0344257"><ele>202.0</ele><time>2026-04-04T12:30:03.513Z</time></trkpt><trkpt lat="45.6129224" lon="9.0343988"><ele>202.0</ele><time>2026-04-04T12:30:04.513Z</time></trkpt><trkpt lat="45.6128548" lon="9.0344045"><ele>201.99999999999997</ele><time>2026-04-04T12:30:05.513Z</time></trkpt><trkpt lat="45.6127946" lon="9.034438"><ele>202.0</ele><time>2026-04-04T12:30:06.513Z</time></trkpt><trkpt lat="45.6127446" lon="9.0344985"><ele>202.0</ele><time>2026-04-04T12:30:07.513Z</time></trkpt><trkpt lat="45.6127127" lon="9.0345857"><ele>202.0</ele><time>2026-04-04T12:30:08.513Z</time></trkpt><trkpt lat="45.612703" lon="9.0346814"><ele>202.0</ele><time>2026-04-04T12:30:09.513Z</time></trkpt><trkpt lat="45.6127134" lon="9.0347767"><ele>202.0</ele><time>2026-04-04T12:30:10.513Z</time></trkpt><trkpt lat="45.612745" lon="9.0348588"><ele>202.0</ele><time>2026-04-04T12:30:11.513Z</time></trkpt><trkpt lat="45.6127974" lon="9.0349219"><ele>202.0</ele><time>2026-04-04T12:30:12.513Z</time></trkpt><trkpt lat="45.6128619" lon="9.0349503"><ele>202.0</ele><time>2026-04-04T12:30:13.513Z</time></trkpt><trkpt lat="45.612929" lon="9.0349511"><ele>201.99999999999997</ele><time>2026-04-04T12:30:14.512Z</time></trkpt><trkpt lat="45.613036" lon="9.034889"><ele>202.0</ele><time>2026-04-04T12:30:16.513Z</time></trkpt><trkpt lat="45.6130902" lon="9.0348183"><ele>202.0</ele><time>2026-04-04T12:30:18.513Z</time></trkpt><trkpt lat="45.6131387" lon="9.0347575"><ele>202.0</ele><time>2026-04-04T12:30:21.512Z</time></trkpt><trkpt lat="45.6131995" lon="9.0346922"><ele>201.99999999999997</ele><time>2026-04-04T12:30:24.512Z</time></trkpt><trkpt lat="45.6132646" lon="9.0346151"><ele>202.0</ele><time>2026-04-04T12:30:27.512Z</time></trkpt><trkpt lat="45.6133365" lon="9.0345854"><ele>202.0</ele><time>2026-04-04T12:30:30.512Z</time></trkpt><trkpt lat="45.6133965" lon="9.0346227"><ele>202.0</ele><time>2026-04-04T12:30:37.512Z</time></trkpt><trkpt lat="45.6134571" lon="9.0347225"><ele>202.0</ele><time>2026-04-04T12:30:39.511Z</time></trkpt><trkpt lat="45.6135094" lon="9.0347999"><ele>202.0</ele><time>2026-04-04T12:30:41.512Z</time></trkpt><trkpt lat="45.6135548" lon="9.0348828"><ele>202.0</ele><time>2026-04-04T12:30:44.512Z</time></trkpt><trkpt lat="45.613481" lon="9.0348809"><ele>202.0</ele><time>2026-04-04T12:30:58.511Z</time></trkpt><trkpt lat="45.6134194" lon="9.034838"><ele>202.0</ele><time>2026-04-04T12:31:08.512Z</time></trkpt><trkpt lat="45.6134535" lon="9.0349278"><ele>202.0</ele><time>2026-04-04T12:31:12.512Z</time></trkpt><trkpt lat="45.6135285" lon="9.0349379"><ele>202.0</ele><time>2026-04-04T12:31:15.512Z</time></trkpt><trkpt lat="45.6135723" lon="9.0348613"><ele>202.0</ele><time>2026-04-04T12:31:22.512Z</time></trkpt><trkpt lat="45.613515" lon="9.0347713"><ele>202.0</ele><time>2026-04-04T12:31:24.512Z</time></trkpt><trkpt lat="45.613501" lon="9.0346741"><ele>202.0</ele><time>2026-04-04T12:31:26.512Z</time></trkpt><trkpt lat="45.6134705" lon="9.034578"><ele>202.0</ele><time>2026-04-04T12:31:28.512Z</time></trkpt><trkpt lat="45.6135076" lon="9.0346514"><ele>202.0</ele><time>2026-04-04T12:37:02.511Z</time></trkpt><trkpt lat="45.613493" lon="9.034751"><ele>202.0</ele><time>2026-04-04T12:38:55.511Z</time></trkpt><trkpt lat="45.6135406" lon="9.0348286"><ele>202.0</ele><time>2026-04-04T12:38:58.511Z</time></trkpt><trkpt lat="45.6135774" lon="9.0349381"><ele>202.0</ele><time>2026-04-04T12:39:01.511Z</time></trkpt><trkpt lat="45.6135748" lon="9.0350587"><ele>202.0</ele><time>2026-04-04T12:39:04.511Z</time></trkpt><trkpt lat="45.6135706" lon="9.0351502"><ele>202.0</ele><time>2026-04-04T12:39:06.511Z</time></trkpt><trkpt lat="45.6135641" lon="9.0352427"><ele>202.0</ele><time>2026-04-04T12:39:09.511Z</time></trkpt><trkpt lat="45.6136" lon="9.0351487"><ele>202.0</ele><time>2026-04-04T12:39:20.511Z</time></trkpt><trkpt lat="45.613608" lon="9.0350543"><ele>201.99999999999997</ele><time>2026-04-04T12:39:24.511Z</time></trkpt><trkpt lat="45.6136062" lon="9.0349563"><ele>202.0</ele><time>2026-04-04T12:40:08.511Z</time></trkpt><trkpt lat="45.6136198" lon="9.0348312"><ele>202.0</ele><time>2026-04-04T12:40:17.51Z</time></trkpt><trkpt lat="45.6136486" lon="9.0347329"><ele>202.0</ele><time>2026-04-04T12:40:20.51Z</time></trkpt><trkpt lat="45.6135634" lon="9.0347287"><ele>201.99999999999997</ele><time>2026-04-04T12:57:45.507Z</time></trkpt><trkpt lat="45.6134931" lon="9.0346826"><ele>202.0</ele><time>2026-04-04T12:57:47.507Z</time></trkpt><trkpt lat="45.6134359" lon="9.0345575"><ele>201.99999999999997</ele><time>2026-04-04T12:57:49.506Z</time></trkpt><trkpt lat="45.6134569" lon="9.0344292"><ele>202.0</ele><time>2026-04-04T12:57:51.507Z</time></trkpt><trkpt lat="45.6135471" lon="9.0343474"><ele>202.0</ele><time>2026-04-04T12:57:53.506Z</time></trkpt><trkpt lat="45.6135553" lon="9.0342571"><ele>202.0</ele><time>2026-04-04T12:57:56.507Z</time></trkpt><trkpt lat="45.6134833" lon="9.0342898"><ele>201.99999999999997</ele><time>2026-04-04T12:57:58.506Z</time></trkpt><trkpt lat="45.6134273" lon="9.0343358"><ele>202.0</ele><time>2026-04-04T12:57:59.507Z</time></trkpt><trkpt lat="45.6133647" lon="9.0343864"><ele>201.99999999999997</ele><time>2026-04-04T12:58:00.507Z</time></trkpt><trkpt lat="45.6132923" lon="9.0344275"><ele>202.0</ele><time>2026-04-04T12:58:01.507Z</time></trkpt><trkpt lat="45.613228" lon="9.0344457"><ele>202.0</ele><time>2026-04-04T12:58:02.507Z</time></trkpt><trkpt lat="45.6131352" lon="9.034437"><ele>202.0</ele><time>2026-04-04T12:58:04.507Z</time></trkpt><trkpt lat="45.6130714" lon="9.0344154"><ele>201.99999999999997</ele><time>2026-04-04T12:58:05.507Z</time></trkpt><trkpt lat="45.6129972" lon="9.0343898"><ele>202.0</ele><time>2026-04-04T12:58:06.507Z</time></trkpt><trkpt lat="45.6129174" lon="9.0343758"><ele>201.99999999999997</ele><time>2026-04-04T12:58:07.507Z</time></trkpt><trkpt lat="45.6128346" lon="9.0344023"><ele>202.0</ele><time>2026-04-04T12:58:08.507Z</time></trkpt><trkpt lat="45.6127633" lon="9.0344719"><ele>202.0</ele><time>2026-04-04T12:58:09.507Z</time></trkpt><trkpt lat="45.6127168" lon="9.0345737"><ele>202.0</ele><time>2026-04-04T12:58:10.507Z</time></trkpt><trkpt lat="45.6127021" lon="9.0346854"><ele>201.99999999999997</ele><time>2026-04-04T12:58:11.507Z</time></trkpt><trkpt lat="45.6127166" lon="9.0347977"><ele>202.0</ele><time>2026-04-04T12:58:12.506Z</time></trkpt><trkpt lat="45.6127567" lon="9.0349067"><ele>201.83333333333331</ele><time>2026-04-04T12:58:13.507Z</time></trkpt><trkpt lat="45.6128082" lon="9.0349987"><ele>201.66666666666666</ele><time>2026-04-04T12:58:14.507Z</time></trkpt><trkpt lat="45.6128542" lon="9.0350678"><ele>201.5</ele><time>2026-04-04T12:58:15.507Z</time></trkpt><trkpt lat="45.612895" lon="9.0351443"><ele>201.33333333333331</ele><time>2026-04-04T12:58:16.506Z</time></trkpt><trkpt lat="45.6129386" lon="9.0352451"><ele>201.16666666666666</ele><time>2026-04-04T12:58:17.507Z</time></trkpt><trkpt lat="45.6129805" lon="9.0353621"><ele>201.0</ele><time>2026-04-04T12:58:18.507Z</time></trkpt><trkpt lat="45.6130241" lon="9.0354869"><ele>201.5</ele><time>2026-04-04T12:58:19.507Z</time></trkpt><trkpt lat="45.6130639" lon="9.0356386"><ele>202.0</ele><time>2026-04-04T12:58:20.507Z</time></trkpt><trkpt lat="45.6131096" lon="9.0358157"><ele>202.5</ele><time>2026-04-04T12:58:21.507Z</time></trkpt><trkpt lat="45.6131596" lon="9.03602"><ele>203.0</ele><time>2026-04-04T12:58:22.507Z</time></trkpt><trkpt lat="45.6132145" lon="9.0362472"><ele>203.0</ele><time>2026-04-04T12:58:23.507Z</time></trkpt><trkpt lat="45.6132726" lon="9.0364757"><ele>203.0</ele><time>2026-04-04T12:58:24.507Z</time></trkpt><trkpt lat="45.6133363" lon="9.0367273"><ele>203.0</ele><time>2026-04-04T12:58:25.507Z</time></trkpt><trkpt lat="45.6133981" lon="9.0369781"><ele>203.0</ele><time>2026-04-04T12:58:26.507Z</time></trkpt><trkpt lat="45.6134586" lon="9.0372275"><ele>203.0</ele><time>2026-04-04T12:58:27.507Z</time></trkpt><trkpt lat="45.6135211" lon="9.0374807"><ele>203.0</ele><time>2026-04-04T12:58:28.507Z</time></trkpt><trkpt lat="45.6135835" lon="9.0377305"><ele>203.0</ele><time>2026-04-04T12:58:29.506Z</time></trkpt><trkpt lat="45.6136488" lon="9.0379803"><ele>203.0</ele><time>2026-04-04T12:58:30.507Z</time></trkpt><trkpt lat="45.6137108" lon="9.0382224"><ele>203.0</ele><time>2026-04-04T12:58:31.507Z</time></trkpt><trkpt lat="45.6137697" lon="9.0384584"><ele>203.0</ele><time>2026-04-04T12:58:32.507Z</time></trkpt><trkpt lat="45.6138277" lon="9.0386944"><ele>203.0</ele><time>2026-04-04T12:58:33.506Z</time></trkpt><trkpt lat="45.6138867" lon="9.0389311"><ele>203.0</ele><time>2026-04-04T12:58:34.506Z</time></trkpt><trkpt lat="45.6139448" lon="9.039161"><ele>203.0</ele><time>2026-04-04T12:58:35.506Z</time></trkpt><trkpt lat="45.6140006" lon="9.0393779"><ele>203.0</ele><time>2026-04-04T12:58:36.506Z</time></trkpt><trkpt lat="45.6140514" lon="9.0395799"><ele>203.0</ele><time>2026-04-04T12:58:37.506Z</time></trkpt><trkpt lat="45.6141006" lon="9.0397802"><ele>203.0</ele><time>2026-04-04T12:58:38.505Z</time></trkpt><trkpt lat="45.6141497" lon="9.0399739"><ele>203.0</ele><time>2026-04-04T12:58:39.505Z</time></trkpt><trkpt lat="45.6141995" lon="9.0401637"><ele>203.0</ele><time>2026-04-04T12:58:40.505Z</time></trkpt><trkpt lat="45.6142485" lon="9.0403501"><ele>203.0</ele><time>2026-04-04T12:58:41.505Z</time></trkpt><trkpt lat="45.6142928" lon="9.0405245"><ele>203.0</ele><time>2026-04-04T12:58:42.506Z</time></trkpt><trkpt lat="45.6143333" lon="9.040687"><ele>203.0</ele><time>2026-04-04T12:58:43.506Z</time></trkpt><trkpt lat="45.6143714" lon="9.0408355"><ele>203.0</ele><time>2026-04-04T12:58:44.506Z</time></trkpt><trkpt lat="45.6144109" lon="9.0409881"><ele>203.0</ele><time>2026-04-04T12:58:45.506Z</time></trkpt><trkpt lat="45.6144503" lon="9.0411404"><ele>203.0</ele><time>2026-04-04T12:58:46.506Z</time></trkpt><trkpt lat="45.6144878" lon="9.0412918"><ele>203.0</ele><time>2026-04-04T12:58:47.506Z</time></trkpt><trkpt lat="45.614527" lon="9.0414454"><ele>203.0</ele><time>2026-04-04T12:58:48.506Z</time></trkpt><trkpt lat="45.6145675" lon="9.0416013"><ele>203.0</ele><time>2026-04-04T12:58:49.506Z</time></trkpt><trkpt lat="45.61461" lon="9.0417613"><ele>202.75</ele><time>2026-04-04T12:58:50.505Z</time></trkpt><trkpt lat="45.6146579" lon="9.0419356"><ele>202.5</ele><time>2026-04-04T12:58:51.506Z</time></trkpt><trkpt lat="45.6147071" lon="9.0421095"><ele>202.25</ele><time>2026-04-04T12:58:52.506Z</time></trkpt><trkpt lat="45.6147452" lon="9.0422671"><ele>202.0</ele><time>2026-04-04T12:58:53.506Z</time></trkpt><trkpt lat="45.6147823" lon="9.0424188"><ele>202.25</ele><time>2026-04-04T12:58:54.505Z</time></trkpt><trkpt lat="45.61482" lon="9.0425725"><ele>202.5</ele><time>2026-04-04T12:58:55.506Z</time></trkpt><trkpt lat="45.6148589" lon="9.0427275"><ele>202.75</ele><time>2026-04-04T12:58:56.506Z</time></trkpt><trkpt lat="45.6148979" lon="9.042887"><ele>203.0</ele><time>2026-04-04T12:58:57.506Z</time></trkpt><trkpt lat="45.6149391" lon="9.0430516"><ele>203.0</ele><time>2026-04-04T12:58:58.506Z</time></trkpt><trkpt lat="45.6149824" lon="9.0432196"><ele>203.0</ele><time>2026-04-04T12:58:59.505Z</time></trkpt><trkpt lat="45.615028" lon="9.0433938"><ele>203.0</ele><time>2026-04-04T12:59:00.506Z</time></trkpt><trkpt lat="45.6150738" lon="9.043573"><ele>203.0</ele><time>2026-04-04T12:59:01.506Z</time></trkpt><trkpt lat="45.6151213" lon="9.0437626"><ele>203.25</ele><time>2026-04-04T12:59:02.506Z</time></trkpt><trkpt lat="45.6151668" lon="9.0439468"><ele>203.5</ele><time>2026-04-04T12:59:03.506Z</time></trkpt><trkpt lat="45.6152113" lon="9.0441288"><ele>203.75</ele><time>2026-04-04T12:59:04.506Z</time></trkpt><trkpt lat="45.6152591" lon="9.0443176"><ele>204.0</ele><time>2026-04-04T12:59:05.506Z</time></trkpt><trkpt lat="45.615307" lon="9.0445083"><ele>204.75</ele><time>2026-04-04T12:59:06.506Z</time></trkpt><trkpt lat="45.6153509" lon="9.0446997"><ele>205.5</ele><time>2026-04-04T12:59:07.506Z</time></trkpt><trkpt lat="45.6153881" lon="9.0448878"><ele>206.25</ele><time>2026-04-04T12:59:08.506Z</time></trkpt><trkpt lat="45.6154194" lon="9.045071"><ele>207.0</ele><time>2026-04-04T12:59:09.506Z</time></trkpt><trkpt lat="45.6154493" lon="9.0452556"><ele>207.0</ele><time>2026-04-04T12:59:10.506Z</time></trkpt><trkpt lat="45.6154733" lon="9.0454205"><ele>207.0</ele><time>2026-04-04T12:59:11.506Z</time></trkpt><trkpt lat="45.6154926" lon="9.0455683"><ele>207.0</ele><time>2026-04-04T12:59:12.506Z</time></trkpt><trkpt lat="45.615509" lon="9.0457138"><ele>207.0</ele><time>2026-04-04T12:59:13.506Z</time></trkpt><trkpt lat="45.6155228" lon="9.0458258"><ele>207.0</ele><time>2026-04-04T12:59:14.506Z</time></trkpt><trkpt lat="45.6155348" lon="9.0459286"><ele>206.83333333333334</ele><time>2026-04-04T12:59:15.506Z</time></trkpt><trkpt lat="45.6155436" lon="9.0460319"><ele>206.66666666666669</ele><time>2026-04-04T12:59:16.506Z</time></trkpt><trkpt lat="45.6155478" lon="9.0461415"><ele>206.5</ele><time>2026-04-04T12:59:17.506Z</time></trkpt><trkpt lat="45.6155379" lon="9.0462635"><ele>206.33333333333334</ele><time>2026-04-04T12:59:18.506Z</time></trkpt><trkpt lat="45.6155222" lon="9.046399"><ele>206.16666666666669</ele><time>2026-04-04T12:59:19.505Z</time></trkpt><trkpt lat="45.6155145" lon="9.0465328"><ele>206.0</ele><time>2026-04-04T12:59:20.506Z</time></trkpt><trkpt lat="45.6155281" lon="9.0466643"><ele>205.8</ele><time>2026-04-04T12:59:21.506Z</time></trkpt><trkpt lat="45.6155679" lon="9.0467869"><ele>205.60000000000002</ele><time>2026-04-04T12:59:22.506Z</time></trkpt><trkpt lat="45.6156261" lon="9.0468957"><ele>205.4</ele><time>2026-04-04T12:59:23.506Z</time></trkpt><trkpt lat="45.6156965" lon="9.0470009"><ele>205.2</ele><time>2026-04-04T12:59:24.506Z</time></trkpt><trkpt lat="45.6157556" lon="9.0471254"><ele>205.0</ele><time>2026-04-04T12:59:25.506Z</time></trkpt><trkpt lat="45.6158082" lon="9.0472836"><ele>205.33333333333331</ele><time>2026-04-04T12:59:26.506Z</time></trkpt><trkpt lat="45.6158635" lon="9.0474731"><ele>205.66666666666669</ele><time>2026-04-04T12:59:27.506Z</time></trkpt><trkpt lat="45.6159195" lon="9.0476997"><ele>206.0</ele><time>2026-04-04T12:59:28.506Z</time></trkpt><trkpt lat="45.6159687" lon="9.0479604"><ele>206.0</ele><time>2026-04-04T12:59:29.506Z</time></trkpt><trkpt lat="45.6160199" lon="9.0482609"><ele>206.0</ele><time>2026-04-04T12:59:30.506Z</time></trkpt><trkpt lat="45.6160759" lon="9.0485858"><ele>205.5</ele><time>2026-04-04T12:59:31.506Z</time></trkpt><trkpt lat="45.6161337" lon="9.0489182"><ele>205.0</ele><time>2026-04-04T12:59:32.506Z</time></trkpt><trkpt lat="45.6161982" lon="9.0492796"><ele>205.0</ele><time>2026-04-04T12:59:33.505Z</time></trkpt><trkpt lat="45.6162673" lon="9.0496585"><ele>205.0</ele><time>2026-04-04T12:59:34.505Z</time></trkpt><trkpt lat="45.6163411" lon="9.0500533"><ele>206.5</ele><time>2026-04-04T12:59:35.505Z</time></trkpt><trkpt lat="45.6164145" lon="9.0504458"><ele>208.0</ele><time>2026-04-04T12:59:36.506Z</time></trkpt><trkpt lat="45.6164858" lon="9.0508281"><ele>208.0</ele><time>2026-04-04T12:59:37.506Z</time></trkpt><trkpt lat="45.616552" lon="9.0511815"><ele>208.0</ele><time>2026-04-04T12:59:38.505Z</time></trkpt><trkpt lat="45.6166154" lon="9.0515234"><ele>208.0</ele><time>2026-04-04T12:59:39.506Z</time></trkpt><trkpt lat="45.616675" lon="9.0518476"><ele>208.0</ele><time>2026-04-04T12:59:40.506Z</time></trkpt><trkpt lat="45.6167311" lon="9.0521529"><ele>208.0</ele><time>2026-04-04T12:59:41.506Z</time></trkpt><trkpt lat="45.6167852" lon="9.0524444"><ele>208.0</ele><time>2026-04-04T12:59:42.506Z</time></trkpt><trkpt lat="45.6168363" lon="9.0527203"><ele>208.0</ele><time>2026-04-04T12:59:43.506Z</time></trkpt><trkpt lat="45.6168846" lon="9.0529831"><ele>208.33333333333331</ele><time>2026-04-04T12:59:44.506Z</time></trkpt><trkpt lat="45.61693" lon="9.0532365"><ele>208.66666666666669</ele><time>2026-04-04T12:59:45.506Z</time></trkpt><trkpt lat="45.6169732" lon="9.0534803"><ele>209.0</ele><time>2026-04-04T12:59:46.506Z</time></trkpt><trkpt lat="45.617009" lon="9.0537111"><ele>208.5</ele><time>2026-04-04T12:59:47.506Z</time></trkpt><trkpt lat="45.6170286" lon="9.0539249"><ele>208.0</ele><time>2026-04-04T12:59:48.506Z</time></trkpt><trkpt lat="45.6170281" lon="9.0541165"><ele>207.5</ele><time>2026-04-04T12:59:49.506Z</time></trkpt><trkpt lat="45.6170055" lon="9.0542939"><ele>207.0</ele><time>2026-04-04T12:59:50.505Z</time></trkpt><trkpt lat="45.6169677" lon="9.0544678"><ele>206.8</ele><time>2026-04-04T12:59:51.506Z</time></trkpt><trkpt lat="45.6169337" lon="9.0546255"><ele>206.6</ele><time>2026-04-04T12:59:52.506Z</time></trkpt><trkpt lat="45.6169325" lon="9.0547653"><ele>206.4</ele><time>2026-04-04T12:59:53.506Z</time></trkpt><trkpt lat="45.6169639" lon="9.0548923"><ele>206.20000000000002</ele><time>2026-04-04T12:59:54.506Z</time></trkpt><trkpt lat="45.61703" lon="9.0550112"><ele>206.0</ele><time>2026-04-04T12:59:55.506Z</time></trkpt><trkpt lat="45.61711" lon="9.055135"><ele>206.0</ele><time>2026-04-04T12:59:56.506Z</time></trkpt><trkpt lat="45.6171705" lon="9.055286"><ele>206.0</ele><time>2026-04-04T12:59:57.506Z</time></trkpt><trkpt lat="45.6172203" lon="9.0554672"><ele>206.0</ele><time>2026-04-04T12:59:58.505Z</time></trkpt><trkpt lat="45.6172538" lon="9.0556655"><ele>206.0</ele><time>2026-04-04T12:59:59.506Z</time></trkpt><trkpt lat="45.6172828" lon="9.055897"><ele>206.66666666666669</ele><time>2026-04-04T13:00:00.506Z</time></trkpt><trkpt lat="45.6173032" lon="9.0561724"><ele>207.33333333333331</ele><time>2026-04-04T13:00:01.506Z</time></trkpt><trkpt lat="45.6173191" lon="9.0564836"><ele>208.0</ele><time>2026-04-04T13:00:02.506Z</time></trkpt><trkpt lat="45.6173334" lon="9.0568011"><ele>208.0</ele><time>2026-04-04T13:00:03.506Z</time></trkpt><trkpt lat="45.6173411" lon="9.057151"><ele>208.0</ele><time>2026-04-04T13:00:04.506Z</time></trkpt><trkpt lat="45.6173481" lon="9.0574848"><ele>208.0</ele><time>2026-04-04T13:00:05.506Z</time></trkpt><trkpt lat="45.6173525" lon="9.0577906"><ele>208.0</ele><time>2026-04-04T13:00:06.506Z</time></trkpt><trkpt lat="45.6173531" lon="9.0580685"><ele>208.0</ele><time>2026-04-04T13:00:07.506Z</time></trkpt><trkpt lat="45.6173552" lon="9.0583263"><ele>208.0</ele><time>2026-04-04T13:00:08.506Z</time></trkpt><trkpt lat="45.6173615" lon="9.0585838"><ele>208.0</ele><time>2026-04-04T13:00:09.506Z</time></trkpt><trkpt lat="45.6173763" lon="9.0588721"><ele>208.0</ele><time>2026-04-04T13:00:10.506Z</time></trkpt><trkpt lat="45.6173868" lon="9.0591858"><ele>207.0</ele><time>2026-04-04T13:00:11.506Z</time></trkpt><trkpt lat="45.6173899" lon="9.0595144"><ele>206.0</ele><time>2026-04-04T13:00:12.505Z</time></trkpt><trkpt lat="45.6173921" lon="9.0598107"><ele>205.0</ele><time>2026-04-04T13:00:13.506Z</time></trkpt><trkpt lat="45.6173915" lon="9.0600969"><ele>204.66666666666666</ele><time>2026-04-04T13:00:14.506Z</time></trkpt><trkpt lat="45.6173936" lon="9.0603736"><ele>204.33333333333331</ele><time>2026-04-04T13:00:15.506Z</time></trkpt><trkpt lat="45.6173972" lon="9.0606277"><ele>204.0</ele><time>2026-04-04T13:00:16.505Z</time></trkpt><trkpt lat="45.6174025" lon="9.0608611"><ele>204.5</ele><time>2026-04-04T13:00:17.505Z</time></trkpt><trkpt lat="45.6174076" lon="9.0610711"><ele>205.0</ele><time>2026-04-04T13:00:18.506Z</time></trkpt><trkpt lat="45.6174133" lon="9.0612629"><ele>205.5</ele><time>2026-04-04T13:00:19.506Z</time></trkpt><trkpt lat="45.6174199" lon="9.0614413"><ele>206.0</ele><time>2026-04-04T13:00:20.506Z</time></trkpt><trkpt lat="45.6174318" lon="9.0616059"><ele>206.66666666666669</ele><time>2026-04-04T13:00:21.506Z</time></trkpt><trkpt lat="45.6174493" lon="9.0617367"><ele>207.33333333333334</ele><time>2026-04-04T13:00:22.505Z</time></trkpt><trkpt lat="45.6174714" lon="9.0618534"><ele>208.0</ele><time>2026-04-04T13:00:23.506Z</time></trkpt><trkpt lat="45.6174946" lon="9.0619629"><ele>208.66666666666669</ele><time>2026-04-04T13:00:24.506Z</time></trkpt><trkpt lat="45.6175125" lon="9.0620876"><ele>209.33333333333334</ele><time>2026-04-04T13:00:26.506Z</time></trkpt><trkpt lat="45.6175182" lon="9.062192"><ele>210.0</ele><time>2026-04-04T13:00:28.506Z</time></trkpt><trkpt lat="45.6175072" lon="9.0623313"><ele>210.0</ele><time>2026-04-04T13:00:30.506Z</time></trkpt><trkpt lat="45.6174853" lon="9.062424"><ele>210.0</ele><time>2026-04-04T13:00:31.505Z</time></trkpt><trkpt lat="45.6174634" lon="9.0625191"><ele>210.0</ele><time>2026-04-04T13:00:32.505Z</time></trkpt><trkpt lat="45.6174491" lon="9.0626116"><ele>210.0</ele><time>2026-04-04T13:00:33.506Z</time></trkpt><trkpt lat="45.6174736" lon="9.0627723"><ele>210.0</ele><time>2026-04-04T13:00:35.506Z</time></trkpt><trkpt lat="45.6175571" lon="9.0628592"><ele>210.0</ele><time>2026-04-04T13:00:37.505Z</time></trkpt><trkpt lat="45.6176845" lon="9.0628503"><ele>210.0</ele><time>2026-04-04T13:00:39.506Z</time></trkpt><trkpt lat="45.6177519" lon="9.0628057"><ele>210.0</ele><time>2026-04-04T13:00:40.506Z</time></trkpt><trkpt lat="45.6178231" lon="9.062747"><ele>210.0</ele><time>2026-04-04T13:00:41.506Z</time></trkpt><trkpt lat="45.6179032" lon="9.062689"><ele>210.0</ele><time>2026-04-04T13:00:42.506Z</time></trkpt><trkpt lat="45.6179875" lon="9.0626465"><ele>210.0</ele><time>2026-04-04T13:00:43.506Z</time></trkpt><trkpt lat="45.6180693" lon="9.0626241"><ele>210.0</ele><time>2026-04-04T13:00:44.506Z</time></trkpt><trkpt lat="45.618149" lon="9.0626001"><ele>209.8</ele><time>2026-04-04T13:00:45.506Z</time></trkpt><trkpt lat="45.6182261" lon="9.0625554"><ele>209.6</ele><time>2026-04-04T13:00:46.505Z</time></trkpt><trkpt lat="45.6183043" lon="9.0624779"><ele>209.39999999999998</ele><time>2026-04-04T13:00:47.506Z</time></trkpt><trkpt lat="45.618391" lon="9.0623644"><ele>209.2</ele><time>2026-04-04T13:00:48.506Z</time></trkpt><trkpt lat="45.618492" lon="9.0622146"><ele>209.0</ele><time>2026-04-04T13:00:49.506Z</time></trkpt><trkpt lat="45.6185969" lon="9.0620525"><ele>208.66666666666669</ele><time>2026-04-04T13:00:50.506Z</time></trkpt><trkpt lat="45.6187127" lon="9.0618674"><ele>208.33333333333331</ele><time>2026-04-04T13:00:51.505Z</time></trkpt><trkpt lat="45.618824" lon="9.0616866"><ele>208.0</ele><time>2026-04-04T13:00:52.506Z</time></trkpt><trkpt lat="45.618937" lon="9.0614976"><ele>208.0</ele><time>2026-04-04T13:00:53.506Z</time></trkpt><trkpt lat="45.61905" lon="9.0613133"><ele>208.0</ele><time>2026-04-04T13:00:54.506Z</time></trkpt><trkpt lat="45.6191599" lon="9.061151"><ele>208.0</ele><time>2026-04-04T13:00:55.506Z</time></trkpt><trkpt lat="45.6192679" lon="9.0609914"><ele>208.0</ele><time>2026-04-04T13:00:56.506Z</time></trkpt><trkpt lat="45.6193734" lon="9.0608345"><ele>208.0</ele><time>2026-04-04T13:00:57.506Z</time></trkpt><trkpt lat="45.6194732" lon="9.0606843"><ele>208.0</ele><time>2026-04-04T13:00:58.506Z</time></trkpt><trkpt lat="45.6195764" lon="9.0605254"><ele>208.0</ele><time>2026-04-04T13:00:59.506Z</time></trkpt><trkpt lat="45.6196815" lon="9.0603608"><ele>209.0</ele><time>2026-04-04T13:01:00.506Z</time></trkpt><trkpt lat="45.6197965" lon="9.0601764"><ele>210.0</ele><time>2026-04-04T13:01:01.506Z</time></trkpt><trkpt lat="45.6199266" lon="9.059974"><ele>211.0</ele><time>2026-04-04T13:01:02.505Z</time></trkpt><trkpt lat="45.6200674" lon="9.0597778"><ele>211.33333333333331</ele><time>2026-04-04T13:01:03.506Z</time></trkpt><trkpt lat="45.6202091" lon="9.059599"><ele>211.66666666666669</ele><time>2026-04-04T13:01:04.506Z</time></trkpt><trkpt lat="45.6203515" lon="9.0594287"><ele>212.0</ele><time>2026-04-04T13:01:05.506Z</time></trkpt><trkpt lat="45.6204867" lon="9.0592834"><ele>211.0</ele><time>2026-04-04T13:01:06.506Z</time></trkpt><trkpt lat="45.6206182" lon="9.0591579"><ele>210.0</ele><time>2026-04-04T13:01:07.506Z</time></trkpt><trkpt lat="45.620746" lon="9.0590473"><ele>209.0</ele><time>2026-04-04T13:01:08.506Z</time></trkpt><trkpt lat="45.620877" lon="9.058945"><ele>209.0</ele><time>2026-04-04T13:01:09.506Z</time></trkpt><trkpt lat="45.6210094" lon="9.0588548"><ele>209.0</ele><time>2026-04-04T13:01:10.506Z</time></trkpt><trkpt lat="45.6211448" lon="9.058772"><ele>209.0</ele><time>2026-04-04T13:01:11.505Z</time></trkpt><trkpt lat="45.6212836" lon="9.0586978"><ele>209.0</ele><time>2026-04-04T13:01:12.506Z</time></trkpt><trkpt lat="45.6214263" lon="9.0586356"><ele>209.25</ele><time>2026-04-04T13:01:13.506Z</time></trkpt><trkpt lat="45.6215696" lon="9.0585843"><ele>209.5</ele><time>2026-04-04T13:01:14.506Z</time></trkpt><trkpt lat="45.6217091" lon="9.0585453"><ele>209.75</ele><time>2026-04-04T13:01:15.506Z</time></trkpt><trkpt lat="45.6218518" lon="9.0585158"><ele>210.0</ele><time>2026-04-04T13:01:16.506Z</time></trkpt><trkpt lat="45.62199" lon="9.0584967"><ele>210.0</ele><time>2026-04-04T13:01:17.505Z</time></trkpt><trkpt lat="45.6221232" lon="9.0584864"><ele>210.0</ele><time>2026-04-04T13:01:18.506Z</time></trkpt><trkpt lat="45.6222491" lon="9.0584867"><ele>210.0</ele><time>2026-04-04T13:01:19.505Z</time></trkpt><trkpt lat="45.6223658" lon="9.0584963"><ele>210.0</ele><time>2026-04-04T13:01:20.506Z</time></trkpt><trkpt lat="45.6224794" lon="9.0585129"><ele>210.0</ele><time>2026-04-04T13:01:21.505Z</time></trkpt><trkpt lat="45.6225761" lon="9.0585334"><ele>210.0</ele><time>2026-04-04T13:01:22.506Z</time></trkpt><trkpt lat="45.6226523" lon="9.0585648"><ele>210.0</ele><time>2026-04-04T13:01:23.505Z</time></trkpt><trkpt lat="45.6227247" lon="9.0586284"><ele>210.0</ele><time>2026-04-04T13:01:24.506Z</time></trkpt><trkpt lat="45.6227876" lon="9.0587256"><ele>210.0</ele><time>2026-04-04T13:01:25.506Z</time></trkpt><trkpt lat="45.6228511" lon="9.0588195"><ele>210.0</ele><time>2026-04-04T13:01:26.506Z</time></trkpt><trkpt lat="45.6229246" lon="9.0588926"><ele>210.2</ele><time>2026-04-04T13:01:27.506Z</time></trkpt><trkpt lat="45.6230038" lon="9.0589331"><ele>210.4</ele><time>2026-04-04T13:01:28.505Z</time></trkpt><trkpt lat="45.6230888" lon="9.058939"><ele>210.60000000000002</ele><time>2026-04-04T13:01:29.506Z</time></trkpt><trkpt lat="45.6231775" lon="9.0589113"><ele>210.8</ele><time>2026-04-04T13:01:30.506Z</time></trkpt><trkpt lat="45.6232772" lon="9.058854"><ele>211.0</ele><time>2026-04-04T13:01:31.506Z</time></trkpt><trkpt lat="45.6233835" lon="9.0588276"><ele>211.0</ele><time>2026-04-04T13:01:32.506Z</time></trkpt><trkpt lat="45.6234934" lon="9.0588472"><ele>211.0</ele><time>2026-04-04T13:01:33.506Z</time></trkpt><trkpt lat="45.6236136" lon="9.0589041"><ele>211.0</ele><time>2026-04-04T13:01:34.506Z</time></trkpt><trkpt lat="45.6237595" lon="9.0589831"><ele>211.0</ele><time>2026-04-04T13:01:35.506Z</time></trkpt><trkpt lat="45.6239168" lon="9.0590643"><ele>210.66666666666666</ele><time>2026-04-04T13:01:36.506Z</time></trkpt><trkpt lat="45.624094" lon="9.0591566"><ele>210.33333333333331</ele><time>2026-04-04T13:01:37.506Z</time></trkpt><trkpt lat="45.6242941" lon="9.0592567"><ele>210.0</ele><time>2026-04-04T13:01:38.506Z</time></trkpt><trkpt lat="45.6245118" lon="9.0593606"><ele>209.66666666666669</ele><time>2026-04-04T13:01:39.506Z</time></trkpt><trkpt lat="45.624721" lon="9.0594603"><ele>209.33333333333334</ele><time>2026-04-04T13:01:40.506Z</time></trkpt><trkpt lat="45.6249309" lon="9.0595619"><ele>209.0</ele><time>2026-04-04T13:01:41.506Z</time></trkpt><trkpt lat="45.6251332" lon="9.0596599"><ele>210.0</ele><time>2026-04-04T13:01:42.506Z</time></trkpt><trkpt lat="45.6253256" lon="9.059752"><ele>211.0</ele><time>2026-04-04T13:01:43.506Z</time></trkpt><trkpt lat="45.6255177" lon="9.0598399"><ele>212.0</ele><time>2026-04-04T13:01:44.506Z</time></trkpt><trkpt lat="45.6257065" lon="9.0599202"><ele>212.0</ele><time>2026-04-04T13:01:45.506Z</time></trkpt><trkpt lat="45.6258916" lon="9.0599952"><ele>212.0</ele><time>2026-04-04T13:01:46.505Z</time></trkpt><trkpt lat="45.6260759" lon="9.0600603"><ele>212.0</ele><time>2026-04-04T13:01:47.506Z</time></trkpt><trkpt lat="45.6262664" lon="9.0601138"><ele>213.0</ele><time>2026-04-04T13:01:48.506Z</time></trkpt><trkpt lat="45.6264757" lon="9.0601621"><ele>214.0</ele><time>2026-04-04T13:01:49.506Z</time></trkpt><trkpt lat="45.6266883" lon="9.0602058"><ele>215.0</ele><time>2026-04-04T13:01:50.506Z</time></trkpt><trkpt lat="45.6269082" lon="9.0602397"><ele>216.5</ele><time>2026-04-04T13:01:51.506Z</time></trkpt><trkpt lat="45.6271368" lon="9.0602637"><ele>218.0</ele><time>2026-04-04T13:01:52.506Z</time></trkpt><trkpt lat="45.6273764" lon="9.0602816"><ele>218.0</ele><time>2026-04-04T13:01:53.506Z</time></trkpt><trkpt lat="45.6276231" lon="9.060294"><ele>218.0</ele><time>2026-04-04T13:01:54.505Z</time></trkpt><trkpt lat="45.6278556" lon="9.0603016"><ele>218.66666666666669</ele><time>2026-04-04T13:01:55.506Z</time></trkpt><trkpt lat="45.6280737" lon="9.0603091"><ele>219.33333333333331</ele><time>2026-04-04T13:01:56.506Z</time></trkpt><trkpt lat="45.6282778" lon="9.0603191"><ele>220.0</ele><time>2026-04-04T13:01:57.505Z</time></trkpt><trkpt lat="45.6284619" lon="9.0603293"><ele>220.0</ele><time>2026-04-04T13:01:58.506Z</time></trkpt><trkpt lat="45.6286308" lon="9.0603412"><ele>220.0</ele><time>2026-04-04T13:01:59.506Z</time></trkpt><trkpt lat="45.6287714" lon="9.0603602"><ele>220.0</ele><time>2026-04-04T13:02:00.506Z</time></trkpt><trkpt lat="45.6288951" lon="9.0604013"><ele>220.0</ele><time>2026-04-04T13:02:01.506Z</time></trkpt><trkpt lat="45.6290047" lon="9.0604794"><ele>219.4</ele><time>2026-04-04T13:02:02.506Z</time></trkpt><trkpt lat="45.6291078" lon="9.0605671"><ele>218.8</ele><time>2026-04-04T13:02:03.505Z</time></trkpt><trkpt lat="45.6292135" lon="9.0606134"><ele>218.2</ele><time>2026-04-04T13:02:04.506Z</time></trkpt><trkpt lat="45.6293197" lon="9.0606134"><ele>217.6</ele><time>2026-04-04T13:02:05.506Z</time></trkpt><trkpt lat="45.6294232" lon="9.0605691"><ele>217.0</ele><time>2026-04-04T13:02:06.506Z</time></trkpt><trkpt lat="45.6295383" lon="9.0604915"><ele>216.66666666666666</ele><time>2026-04-04T13:02:07.506Z</time></trkpt><trkpt lat="45.6296695" lon="9.0604382"><ele>216.33333333333331</ele><time>2026-04-04T13:02:08.506Z</time></trkpt><trkpt lat="45.6298221" lon="9.0604157"><ele>216.0</ele><time>2026-04-04T13:02:09.505Z</time></trkpt><trkpt lat="45.6299957" lon="9.0604214"><ele>216.0</ele><time>2026-04-04T13:02:10.506Z</time></trkpt><trkpt lat="45.6301947" lon="9.060443"><ele>216.0</ele><time>2026-04-04T13:02:11.506Z</time></trkpt><trkpt lat="45.6304214" lon="9.0604667"><ele>216.0</ele><time>2026-04-04T13:02:12.506Z</time></trkpt><trkpt lat="45.6306625" lon="9.0604872"><ele>216.0</ele><time>2026-04-04T13:02:13.506Z</time></trkpt><trkpt lat="45.6309199" lon="9.0605098"><ele>216.0</ele><time>2026-04-04T13:02:14.507Z</time></trkpt><trkpt lat="45.6311929" lon="9.0605359"><ele>215.5</ele><time>2026-04-04T13:02:15.506Z</time></trkpt><trkpt lat="45.6314791" lon="9.0605569"><ele>215.0</ele><time>2026-04-04T13:02:16.506Z</time></trkpt><trkpt lat="45.6317773" lon="9.0605697"><ele>215.5</ele><time>2026-04-04T13:02:17.506Z</time></trkpt><trkpt lat="45.6320847" lon="9.0605709"><ele>216.0</ele><time>2026-04-04T13:02:18.506Z</time></trkpt><trkpt lat="45.6323941" lon="9.0605555"><ele>216.0</ele><time>2026-04-04T13:02:19.506Z</time></trkpt><trkpt lat="45.6327119" lon="9.0605207"><ele>216.0</ele><time>2026-04-04T13:02:20.506Z</time></trkpt><trkpt lat="45.6330337" lon="9.0604677"><ele>216.5</ele><time>2026-04-04T13:02:21.506Z</time></trkpt><trkpt lat="45.6333586" lon="9.060399"><ele>217.0</ele><time>2026-04-04T13:02:22.506Z</time></trkpt><trkpt lat="45.6336853" lon="9.0603083"><ele>217.0</ele><time>2026-04-04T13:02:23.506Z</time></trkpt><trkpt lat="45.6340115" lon="9.0601982"><ele>217.0</ele><time>2026-04-04T13:02:24.506Z</time></trkpt><trkpt lat="45.6343318" lon="9.060074"><ele>218.0</ele><time>2026-04-04T13:02:25.506Z</time></trkpt><trkpt lat="45.634643" lon="9.0599369"><ele>219.0</ele><time>2026-04-04T13:02:26.506Z</time></trkpt><trkpt lat="45.6349525" lon="9.0597828"><ele>219.0</ele><time>2026-04-04T13:02:27.506Z</time></trkpt><trkpt lat="45.6352588" lon="9.0596132"><ele>219.0</ele><time>2026-04-04T13:02:28.505Z</time></trkpt><trkpt lat="45.6355578" lon="9.059428"><ele>219.0</ele><time>2026-04-04T13:02:29.506Z</time></trkpt><trkpt lat="45.6358528" lon="9.0592266"><ele>219.0</ele><time>2026-04-04T13:02:30.507Z</time></trkpt><trkpt lat="45.6361444" lon="9.0590099"><ele>218.5</ele><time>2026-04-04T13:02:31.506Z</time></trkpt><trkpt lat="45.636432" lon="9.058782"><ele>218.0</ele><time>2026-04-04T13:02:32.506Z</time></trkpt><trkpt lat="45.6367128" lon="9.0585474"><ele>218.0</ele><time>2026-04-04T13:02:33.506Z</time></trkpt><trkpt lat="45.6369894" lon="9.0583112"><ele>218.0</ele><time>2026-04-04T13:02:34.506Z</time></trkpt><trkpt lat="45.6372708" lon="9.0580687"><ele>218.0</ele><time>2026-04-04T13:02:35.506Z</time></trkpt><trkpt lat="45.6375531" lon="9.0578255"><ele>218.0</ele><time>2026-04-04T13:02:36.506Z</time></trkpt><trkpt lat="45.637835" lon="9.0575806"><ele>219.0</ele><time>2026-04-04T13:02:37.506Z</time></trkpt><trkpt lat="45.6381176" lon="9.0573363"><ele>220.0</ele><time>2026-04-04T13:02:38.506Z</time></trkpt><trkpt lat="45.6384004" lon="9.0570938"><ele>220.0</ele><time>2026-04-04T13:02:39.506Z</time></trkpt><trkpt lat="45.6386818" lon="9.0568516"><ele>220.0</ele><time>2026-04-04T13:02:40.506Z</time></trkpt><trkpt lat="45.6389623" lon="9.05661"><ele>220.5</ele><time>2026-04-04T13:02:41.506Z</time></trkpt><trkpt lat="45.6392417" lon="9.0563679"><ele>221.0</ele><time>2026-04-04T13:02:42.506Z</time></trkpt><trkpt lat="45.6395214" lon="9.0561257"><ele>221.5</ele><time>2026-04-04T13:02:43.506Z</time></trkpt><trkpt lat="45.6398011" lon="9.0558835"><ele>222.0</ele><time>2026-04-04T13:02:44.506Z</time></trkpt><trkpt lat="45.640079" lon="9.0556426"><ele>223.0</ele><time>2026-04-04T13:02:45.506Z</time></trkpt><trkpt lat="45.6403576" lon="9.0554017"><ele>224.0</ele><time>2026-04-04T13:02:46.506Z</time></trkpt><trkpt lat="45.6406376" lon="9.0551583"><ele>224.5</ele><time>2026-04-04T13:02:47.506Z</time></trkpt><trkpt lat="45.6409133" lon="9.0549181"><ele>225.0</ele><time>2026-04-04T13:02:48.506Z</time></trkpt><trkpt lat="45.6411765" lon="9.0546887"><ele>225.5</ele><time>2026-04-04T13:02:49.506Z</time></trkpt><trkpt lat="45.6414375" lon="9.0544618"><ele>226.0</ele><time>2026-04-04T13:02:50.506Z</time></trkpt><trkpt lat="45.6416955" lon="9.0542378"><ele>226.0</ele><time>2026-04-04T13:02:51.506Z</time></trkpt><trkpt lat="45.641948" lon="9.0540199"><ele>226.0</ele><time>2026-04-04T13:02:52.506Z</time></trkpt><trkpt lat="45.6421998" lon="9.0538009"><ele>226.0</ele><time>2026-04-04T13:02:53.507Z</time></trkpt><trkpt lat="45.6424505" lon="9.0535824"><ele>226.0</ele><time>2026-04-04T13:02:54.506Z</time></trkpt><trkpt lat="45.6426899" lon="9.0533746"><ele>225.5</ele><time>2026-04-04T13:02:55.505Z</time></trkpt><trkpt lat="45.6429197" lon="9.0531758"><ele>225.0</ele><time>2026-04-04T13:02:56.505Z</time></trkpt><trkpt lat="45.6431455" lon="9.052982"><ele>225.0</ele><time>2026-04-04T13:02:57.506Z</time></trkpt><trkpt lat="45.6433658" lon="9.0527955"><ele>225.0</ele><time>2026-04-04T13:02:58.506Z</time></trkpt><trkpt lat="45.6435878" lon="9.0526145"><ele>225.0</ele><time>2026-04-04T13:02:59.506Z</time></trkpt><trkpt lat="45.6438096" lon="9.0524485"><ele>225.0</ele><time>2026-04-04T13:03:00.506Z</time></trkpt><trkpt lat="45.6440324" lon="9.0522992"><ele>225.0</ele><time>2026-04-04T13:03:01.506Z</time></trkpt><trkpt lat="45.6442556" lon="9.0521682"><ele>225.0</ele><time>2026-04-04T13:03:02.506Z</time></trkpt><trkpt lat="45.6444761" lon="9.0520601"><ele>225.33333333333331</ele><time>2026-04-04T13:03:03.506Z</time></trkpt><trkpt lat="45.6446898" lon="9.051976"><ele>225.66666666666666</ele><time>2026-04-04T13:03:04.506Z</time></trkpt><trkpt lat="45.6448937" lon="9.0519143"><ele>226.0</ele><time>2026-04-04T13:03:05.506Z</time></trkpt><trkpt lat="45.645088" lon="9.0518687"><ele>226.0</ele><time>2026-04-04T13:03:06.506Z</time></trkpt><trkpt lat="45.6452721" lon="9.0518379"><ele>226.0</ele><time>2026-04-04T13:03:07.505Z</time></trkpt><trkpt lat="45.645444" lon="9.0518182"><ele>226.0</ele><time>2026-04-04T13:03:08.506Z</time></trkpt><trkpt lat="45.6456043" lon="9.051811"><ele>226.75</ele><time>2026-04-04T13:03:09.505Z</time></trkpt><trkpt lat="45.6457559" lon="9.0518172"><ele>227.5</ele><time>2026-04-04T13:03:10.506Z</time></trkpt><trkpt lat="45.6459016" lon="9.0518324"><ele>228.25</ele><time>2026-04-04T13:03:11.506Z</time></trkpt><trkpt lat="45.6460406" lon="9.0518512"><ele>229.0</ele><time>2026-04-04T13:03:12.505Z</time></trkpt><trkpt lat="45.6461803" lon="9.0518725"><ele>229.25</ele><time>2026-04-04T13:03:13.506Z</time></trkpt><trkpt lat="45.6463186" lon="9.0518951"><ele>229.5</ele><time>2026-04-04T13:03:14.505Z</time></trkpt><trkpt lat="45.6464498" lon="9.051912"><ele>229.75</ele><time>2026-04-04T13:03:15.506Z</time></trkpt><trkpt lat="45.6465725" lon="9.0519119"><ele>230.0</ele><time>2026-04-04T13:03:16.506Z</time></trkpt><trkpt lat="45.6466725" lon="9.0518828"><ele>230.00000000000003</ele><time>2026-04-04T13:03:17.506Z</time></trkpt><trkpt lat="45.6467595" lon="9.0518302"><ele>230.0</ele><time>2026-04-04T13:03:18.506Z</time></trkpt><trkpt lat="45.6468397" lon="9.0517693"><ele>230.0</ele><time>2026-04-04T13:03:19.506Z</time></trkpt><trkpt lat="45.6469235" lon="9.051729"><ele>230.0</ele><time>2026-04-04T13:03:20.506Z</time></trkpt><trkpt lat="45.6470092" lon="9.0517028"><ele>230.00000000000003</ele><time>2026-04-04T13:03:21.505Z</time></trkpt><trkpt lat="45.647094" lon="9.0516735"><ele>230.0</ele><time>2026-04-04T13:03:22.506Z</time></trkpt><trkpt lat="45.6471797" lon="9.0516409"><ele>229.83333333333334</ele><time>2026-04-04T13:03:23.506Z</time></trkpt><trkpt lat="45.6472579" lon="9.0516131"><ele>229.66666666666669</ele><time>2026-04-04T13:03:24.506Z</time></trkpt><trkpt lat="45.6473417" lon="9.0516192"><ele>229.5</ele><time>2026-04-04T13:03:25.506Z</time></trkpt><trkpt lat="45.6474164" lon="9.0516532"><ele>229.33333333333331</ele><time>2026-04-04T13:03:26.506Z</time></trkpt><trkpt lat="45.6474784" lon="9.0517006"><ele>229.16666666666666</ele><time>2026-04-04T13:03:27.506Z</time></trkpt><trkpt lat="45.647532" lon="9.0517678"><ele>229.0</ele><time>2026-04-04T13:03:28.506Z</time></trkpt><trkpt lat="45.6475737" lon="9.0518561"><ele>229.0</ele><time>2026-04-04T13:03:29.506Z</time></trkpt><trkpt lat="45.6476041" lon="9.0519553"><ele>229.0</ele><time>2026-04-04T13:03:30.505Z</time></trkpt><trkpt lat="45.6476384" lon="9.0520487"><ele>229.0</ele><time>2026-04-04T13:03:31.506Z</time></trkpt><trkpt lat="45.6476873" lon="9.05212"><ele>229.0</ele><time>2026-04-04T13:03:32.506Z</time></trkpt><trkpt lat="45.6477533" lon="9.0521651"><ele>229.0</ele><time>2026-04-04T13:03:33.505Z</time></trkpt><trkpt lat="45.6478284" lon="9.0521751"><ele>229.0</ele><time>2026-04-04T13:03:34.505Z</time></trkpt><trkpt lat="45.6479089" lon="9.052157"><ele>229.0</ele><time>2026-04-04T13:03:35.505Z</time></trkpt><trkpt lat="45.6480049" lon="9.0521464"><ele>229.2</ele><time>2026-04-04T13:03:36.506Z</time></trkpt><trkpt lat="45.6481098" lon="9.0521675"><ele>229.39999999999998</ele><time>2026-04-04T13:03:37.506Z</time></trkpt><trkpt lat="45.6482113" lon="9.052209"><ele>229.6</ele><time>2026-04-04T13:03:38.505Z</time></trkpt><trkpt lat="45.648315" lon="9.0522536"><ele>229.8</ele><time>2026-04-04T13:03:39.506Z</time></trkpt><trkpt lat="45.6484123" lon="9.052295"><ele>230.0</ele><time>2026-04-04T13:03:40.505Z</time></trkpt><trkpt lat="45.6485066" lon="9.0523336"><ele>230.0</ele><time>2026-04-04T13:03:41.504Z</time></trkpt><trkpt lat="45.6486056" lon="9.0523647"><ele>230.0</ele><time>2026-04-04T13:03:42.505Z</time></trkpt><trkpt lat="45.6487126" lon="9.0523865"><ele>230.0</ele><time>2026-04-04T13:03:43.505Z</time></trkpt><trkpt lat="45.6488296" lon="9.052403"><ele>230.0</ele><time>2026-04-04T13:03:44.505Z</time></trkpt><trkpt lat="45.6489546" lon="9.0524131"><ele>229.75</ele><time>2026-04-04T13:03:45.505Z</time></trkpt><trkpt lat="45.6490866" lon="9.0524181"><ele>229.5</ele><time>2026-04-04T13:03:46.505Z</time></trkpt><trkpt lat="45.6492275" lon="9.0524232"><ele>229.25</ele><time>2026-04-04T13:03:47.505Z</time></trkpt><trkpt lat="45.6493793" lon="9.0524303"><ele>229.0</ele><time>2026-04-04T13:03:48.505Z</time></trkpt><trkpt lat="45.6495327" lon="9.052439"><ele>228.66666666666666</ele><time>2026-04-04T13:03:49.505Z</time></trkpt><trkpt lat="45.6496923" lon="9.052447"><ele>228.33333333333331</ele><time>2026-04-04T13:03:50.505Z</time></trkpt><trkpt lat="45.649854" lon="9.0524539"><ele>228.0</ele><time>2026-04-04T13:03:51.505Z</time></trkpt><trkpt lat="45.6500156" lon="9.0524616"><ele>228.66666666666669</ele><time>2026-04-04T13:03:52.505Z</time></trkpt><trkpt lat="45.6501761" lon="9.0524691"><ele>229.33333333333334</ele><time>2026-04-04T13:03:53.505Z</time></trkpt><trkpt lat="45.6503337" lon="9.052476"><ele>230.0</ele><time>2026-04-04T13:03:54.505Z</time></trkpt><trkpt lat="45.6504895" lon="9.0524825"><ele>230.0</ele><time>2026-04-04T13:03:55.505Z</time></trkpt><trkpt lat="45.6506482" lon="9.0524893"><ele>230.0</ele><time>2026-04-04T13:03:56.505Z</time></trkpt><trkpt lat="45.6507997" lon="9.0524961"><ele>230.0</ele><time>2026-04-04T13:03:57.505Z</time></trkpt><trkpt lat="45.6509373" lon="9.0525046"><ele>230.0</ele><time>2026-04-04T13:03:58.505Z</time></trkpt><trkpt lat="45.6510651" lon="9.0525136"><ele>230.8</ele><time>2026-04-04T13:03:59.505Z</time></trkpt><trkpt lat="45.6511823" lon="9.0525201"><ele>231.6</ele><time>2026-04-04T13:04:00.505Z</time></trkpt><trkpt lat="45.6512899" lon="9.052526"><ele>232.39999999999998</ele><time>2026-04-04T13:04:01.505Z</time></trkpt><trkpt lat="45.6513876" lon="9.0525362"><ele>233.2</ele><time>2026-04-04T13:04:02.505Z</time></trkpt><trkpt lat="45.6514758" lon="9.0525637"><ele>234.0</ele><time>2026-04-04T13:04:03.505Z</time></trkpt><trkpt lat="45.6515461" lon="9.0526211"><ele>234.0</ele><time>2026-04-04T13:04:04.505Z</time></trkpt><trkpt lat="45.6516071" lon="9.0527004"><ele>234.0</ele><time>2026-04-04T13:04:05.505Z</time></trkpt><trkpt lat="45.6516677" lon="9.05278"><ele>234.0</ele><time>2026-04-04T13:04:06.505Z</time></trkpt><trkpt lat="45.6517323" lon="9.0528299"><ele>234.0</ele><time>2026-04-04T13:04:07.505Z</time></trkpt><trkpt lat="45.6518024" lon="9.052847"><ele>234.0</ele><time>2026-04-04T13:04:08.505Z</time></trkpt><trkpt lat="45.6518758" lon="9.0528352"><ele>234.0</ele><time>2026-04-04T13:04:09.504Z</time></trkpt><trkpt lat="45.6519475" lon="9.0527951"><ele>233.79999999999998</ele><time>2026-04-04T13:04:10.506Z</time></trkpt><trkpt lat="45.6520188" lon="9.0527359"><ele>233.59999999999997</ele><time>2026-04-04T13:04:11.505Z</time></trkpt><trkpt lat="45.6520967" lon="9.0526859"><ele>233.4</ele><time>2026-04-04T13:04:12.505Z</time></trkpt><trkpt lat="45.652185" lon="9.0526473"><ele>233.2</ele><time>2026-04-04T13:04:13.505Z</time></trkpt><trkpt lat="45.6522856" lon="9.0526069"><ele>233.0</ele><time>2026-04-04T13:04:14.504Z</time></trkpt><trkpt lat="45.6523921" lon="9.0525677"><ele>233.0</ele><time>2026-04-04T13:04:15.504Z</time></trkpt><trkpt lat="45.6525034" lon="9.0525295"><ele>233.0</ele><time>2026-04-04T13:04:16.505Z</time></trkpt><trkpt lat="45.6526173" lon="9.0524912"><ele>233.0</ele><time>2026-04-04T13:04:17.505Z</time></trkpt><trkpt lat="45.6527372" lon="9.0524541"><ele>233.0</ele><time>2026-04-04T13:04:18.504Z</time></trkpt><trkpt lat="45.6528694" lon="9.0524163"><ele>233.25</ele><time>2026-04-04T13:04:19.504Z</time></trkpt><trkpt lat="45.6530071" lon="9.0523818"><ele>233.5</ele><time>2026-04-04T13:04:20.505Z</time></trkpt><trkpt lat="45.6531505" lon="9.0523509"><ele>233.75</ele><time>2026-04-04T13:04:21.505Z</time></trkpt><trkpt lat="45.6532986" lon="9.0523253"><ele>234.0</ele><time>2026-04-04T13:04:22.505Z</time></trkpt><trkpt lat="45.6534464" lon="9.052308"><ele>234.0</ele><time>2026-04-04T13:04:23.505Z</time></trkpt><trkpt lat="45.653596" lon="9.0522972"><ele>234.0</ele><time>2026-04-04T13:04:24.505Z</time></trkpt><trkpt lat="45.6537554" lon="9.0522942"><ele>234.0</ele><time>2026-04-04T13:04:25.504Z</time></trkpt><trkpt lat="45.6539253" lon="9.0522995"><ele>234.66666666666669</ele><time>2026-04-04T13:04:26.505Z</time></trkpt><trkpt lat="45.6540966" lon="9.0523088"><ele>235.33333333333334</ele><time>2026-04-04T13:04:27.505Z</time></trkpt><trkpt lat="45.654276" lon="9.0523222"><ele>236.0</ele><time>2026-04-04T13:04:28.505Z</time></trkpt><trkpt lat="45.6544595" lon="9.052337"><ele>236.33333333333334</ele><time>2026-04-04T13:04:29.505Z</time></trkpt><trkpt lat="45.6546459" lon="9.0523521"><ele>236.66666666666669</ele><time>2026-04-04T13:04:30.505Z</time></trkpt><trkpt lat="45.6548335" lon="9.0523685"><ele>237.0</ele><time>2026-04-04T13:04:31.505Z</time></trkpt><trkpt lat="45.6550227" lon="9.0523855"><ele>237.0</ele><time>2026-04-04T13:04:32.505Z</time></trkpt><trkpt lat="45.6552091" lon="9.0524025"><ele>237.0</ele><time>2026-04-04T13:04:33.505Z</time></trkpt><trkpt lat="45.6553881" lon="9.0524194"><ele>237.0</ele><time>2026-04-04T13:04:34.505Z</time></trkpt><trkpt lat="45.655557" lon="9.0524348"><ele>236.33333333333331</ele><time>2026-04-04T13:04:35.506Z</time></trkpt><trkpt lat="45.6557151" lon="9.0524485"><ele>235.66666666666666</ele><time>2026-04-04T13:04:36.505Z</time></trkpt><trkpt lat="45.6558645" lon="9.0524625"><ele>235.0</ele><time>2026-04-04T13:04:37.505Z</time></trkpt><trkpt lat="45.6560132" lon="9.0524752"><ele>235.0</ele><time>2026-04-04T13:04:38.505Z</time></trkpt><trkpt lat="45.656162" lon="9.0524875"><ele>235.0</ele><time>2026-04-04T13:04:39.504Z</time></trkpt><trkpt lat="45.6563097" lon="9.0525002"><ele>235.0</ele><time>2026-04-04T13:04:40.505Z</time></trkpt><trkpt lat="45.6564537" lon="9.0525152"><ele>235.0</ele><time>2026-04-04T13:04:41.504Z</time></trkpt><trkpt lat="45.6565878" lon="9.0525303"><ele>235.0</ele><time>2026-04-04T13:04:42.505Z</time></trkpt><trkpt lat="45.6567188" lon="9.0525433"><ele>235.0</ele><time>2026-04-04T13:04:43.505Z</time></trkpt><trkpt lat="45.656836" lon="9.0525509"><ele>235.0</ele><time>2026-04-04T13:04:44.505Z</time></trkpt><trkpt lat="45.656932" lon="9.052558"><ele>235.0</ele><time>2026-04-04T13:04:45.505Z</time></trkpt><trkpt lat="45.6570117" lon="9.0525692"><ele>235.0</ele><time>2026-04-04T13:04:46.504Z</time></trkpt><trkpt lat="45.657123" lon="9.0526327"><ele>235.6</ele><time>2026-04-04T13:04:48.505Z</time></trkpt><trkpt lat="45.6572033" lon="9.0527698"><ele>236.2</ele><time>2026-04-04T13:04:50.506Z</time></trkpt><trkpt lat="45.6572425" lon="9.0528469"><ele>236.8</ele><time>2026-04-04T13:04:51.505Z</time></trkpt><trkpt lat="45.6572924" lon="9.0529357"><ele>237.4</ele><time>2026-04-04T13:04:52.505Z</time></trkpt><trkpt lat="45.6573529" lon="9.053039"><ele>238.0</ele><time>2026-04-04T13:04:53.504Z</time></trkpt><trkpt lat="45.6574048" lon="9.0531771"><ele>238.5</ele><time>2026-04-04T13:04:54.505Z</time></trkpt><trkpt lat="45.6574357" lon="9.0533466"><ele>239.0</ele><time>2026-04-04T13:04:55.505Z</time></trkpt><trkpt lat="45.6574489" lon="9.0535491"><ele>239.5</ele><time>2026-04-04T13:04:56.505Z</time></trkpt><trkpt lat="45.6574499" lon="9.0537862"><ele>240.0</ele><time>2026-04-04T13:04:57.505Z</time></trkpt><trkpt lat="45.6574483" lon="9.0540373"><ele>239.66666666666669</ele><time>2026-04-04T13:04:58.505Z</time></trkpt><trkpt lat="45.6574563" lon="9.0543201"><ele>239.33333333333334</ele><time>2026-04-04T13:04:59.505Z</time></trkpt><trkpt lat="45.6574871" lon="9.0546304"><ele>239.0</ele><time>2026-04-04T13:05:00.505Z</time></trkpt><trkpt lat="45.6575381" lon="9.0549468"><ele>238.33333333333334</ele><time>2026-04-04T13:05:01.505Z</time></trkpt><trkpt lat="45.6575996" lon="9.055252"><ele>237.66666666666669</ele><time>2026-04-04T13:05:02.504Z</time></trkpt><trkpt lat="45.6576589" lon="9.0555571"><ele>237.0</ele><time>2026-04-04T13:05:03.505Z</time></trkpt><trkpt lat="45.6577019" lon="9.0558679"><ele>237.0</ele><time>2026-04-04T13:05:04.505Z</time></trkpt><trkpt lat="45.6577244" lon="9.0561903"><ele>237.0</ele><time>2026-04-04T13:05:05.505Z</time></trkpt><trkpt lat="45.6577232" lon="9.0565169"><ele>237.0</ele><time>2026-04-04T13:05:06.505Z</time></trkpt><trkpt lat="45.6576995" lon="9.0568482"><ele>237.0</ele><time>2026-04-04T13:05:07.505Z</time></trkpt><trkpt lat="45.6576568" lon="9.0571889"><ele>237.0</ele><time>2026-04-04T13:05:08.505Z</time></trkpt><trkpt lat="45.6576029" lon="9.0575392"><ele>237.0</ele><time>2026-04-04T13:05:09.505Z</time></trkpt><trkpt lat="45.657556" lon="9.0578957"><ele>237.0</ele><time>2026-04-04T13:05:10.505Z</time></trkpt><trkpt lat="45.6575253" lon="9.0582693"><ele>237.0</ele><time>2026-04-04T13:05:11.505Z</time></trkpt><trkpt lat="45.6575163" lon="9.058647"><ele>237.5</ele><time>2026-04-04T13:05:12.504Z</time></trkpt><trkpt lat="45.6575231" lon="9.0590117"><ele>238.0</ele><time>2026-04-04T13:05:13.505Z</time></trkpt><trkpt lat="45.657536" lon="9.0593682"><ele>237.5</ele><time>2026-04-04T13:05:14.505Z</time></trkpt><trkpt lat="45.6575492" lon="9.0596997"><ele>237.0</ele><time>2026-04-04T13:05:15.505Z</time></trkpt><trkpt lat="45.657562" lon="9.0600121"><ele>237.0</ele><time>2026-04-04T13:05:16.505Z</time></trkpt><trkpt lat="45.6575746" lon="9.0603019"><ele>237.0</ele><time>2026-04-04T13:05:17.505Z</time></trkpt><trkpt lat="45.6575845" lon="9.0605576"><ele>237.0</ele><time>2026-04-04T13:05:18.504Z</time></trkpt><trkpt lat="45.6575907" lon="9.0607722"><ele>237.0</ele><time>2026-04-04T13:05:19.504Z</time></trkpt><trkpt lat="45.6575881" lon="9.0609544"><ele>237.0</ele><time>2026-04-04T13:05:20.505Z</time></trkpt><trkpt lat="45.6575559" lon="9.0611312"><ele>237.0</ele><time>2026-04-04T13:05:21.505Z</time></trkpt><trkpt lat="45.6575089" lon="9.0612945"><ele>237.0</ele><time>2026-04-04T13:05:22.505Z</time></trkpt><trkpt lat="45.6574917" lon="9.061449"><ele>237.0</ele><time>2026-04-04T13:05:23.505Z</time></trkpt><trkpt lat="45.6575104" lon="9.0615996"><ele>237.0</ele><time>2026-04-04T13:05:24.505Z</time></trkpt><trkpt lat="45.6575653" lon="9.0617253"><ele>237.0</ele><time>2026-04-04T13:05:25.505Z</time></trkpt><trkpt lat="45.6576494" lon="9.0618052"><ele>237.0</ele><time>2026-04-04T13:05:26.505Z</time></trkpt><trkpt lat="45.6577521" lon="9.0618276"><ele>237.0</ele><time>2026-04-04T13:05:27.505Z</time></trkpt><trkpt lat="45.6578704" lon="9.0617969"><ele>237.0</ele><time>2026-04-04T13:05:28.505Z</time></trkpt><trkpt lat="45.6580031" lon="9.0617531"><ele>237.0</ele><time>2026-04-04T13:05:29.505Z</time></trkpt><trkpt lat="45.6581341" lon="9.0617596"><ele>237.0</ele><time>2026-04-04T13:05:30.505Z</time></trkpt><trkpt lat="45.6582826" lon="9.0617955"><ele>237.0</ele><time>2026-04-04T13:05:31.505Z</time></trkpt><trkpt lat="45.6584556" lon="9.0618569"><ele>237.33333333333331</ele><time>2026-04-04T13:05:32.504Z</time></trkpt><trkpt lat="45.6586553" lon="9.0619287"><ele>237.66666666666666</ele><time>2026-04-04T13:05:33.505Z</time></trkpt><trkpt lat="45.6588781" lon="9.0620036"><ele>238.0</ele><time>2026-04-04T13:05:34.505Z</time></trkpt><trkpt lat="45.659122" lon="9.0620806"><ele>238.0</ele><time>2026-04-04T13:05:35.505Z</time></trkpt><trkpt lat="45.6593771" lon="9.0621605"><ele>238.0</ele><time>2026-04-04T13:05:36.505Z</time></trkpt><trkpt lat="45.6596472" lon="9.0622424"><ele>237.0</ele><time>2026-04-04T13:05:37.504Z</time></trkpt><trkpt lat="45.6599304" lon="9.0623254"><ele>236.0</ele><time>2026-04-04T13:05:38.505Z</time></trkpt><trkpt lat="45.6602248" lon="9.062407"><ele>237.5</ele><time>2026-04-04T13:05:39.505Z</time></trkpt><trkpt lat="45.6605299" lon="9.0624824"><ele>239.0</ele><time>2026-04-04T13:05:40.505Z</time></trkpt><trkpt lat="45.6608439" lon="9.0625452"><ele>239.0</ele><time>2026-04-04T13:05:41.505Z</time></trkpt><trkpt lat="45.6611648" lon="9.062593"><ele>239.0</ele><time>2026-04-04T13:05:42.505Z</time></trkpt><trkpt lat="45.6614913" lon="9.0626273"><ele>239.0</ele><time>2026-04-04T13:05:43.505Z</time></trkpt><trkpt lat="45.6618183" lon="9.0626453"><ele>239.0</ele><time>2026-04-04T13:05:44.505Z</time></trkpt><trkpt lat="45.6621492" lon="9.0626426"><ele>240.5</ele><time>2026-04-04T13:05:45.505Z</time></trkpt><trkpt lat="45.6624838" lon="9.0626213"><ele>242.0</ele><time>2026-04-04T13:05:46.504Z</time></trkpt><trkpt lat="45.6628211" lon="9.0625858"><ele>242.0</ele><time>2026-04-04T13:05:47.505Z</time></trkpt><trkpt lat="45.6631612" lon="9.0625409"><ele>242.0</ele><time>2026-04-04T13:05:48.505Z</time></trkpt><trkpt lat="45.6635055" lon="9.0624935"><ele>242.0</ele><time>2026-04-04T13:05:49.505Z</time></trkpt><trkpt lat="45.6638508" lon="9.0624413"><ele>242.0</ele><time>2026-04-04T13:05:50.505Z</time></trkpt><trkpt lat="45.6641979" lon="9.0623861"><ele>242.0</ele><time>2026-04-04T13:05:51.505Z</time></trkpt><trkpt lat="45.6645468" lon="9.0623327"><ele>242.0</ele><time>2026-04-04T13:05:52.505Z</time></trkpt><trkpt lat="45.664898" lon="9.0622818"><ele>242.0</ele><time>2026-04-04T13:05:53.505Z</time></trkpt><trkpt lat="45.6652469" lon="9.0622305"><ele>242.0</ele><time>2026-04-04T13:05:54.504Z</time></trkpt><trkpt lat="45.6655737" lon="9.062183"><ele>242.0</ele><time>2026-04-04T13:05:55.505Z</time></trkpt><trkpt lat="45.6659034" lon="9.0621361"><ele>242.0</ele><time>2026-04-04T13:05:56.505Z</time></trkpt><trkpt lat="45.6662324" lon="9.0620893"><ele>244.5</ele><time>2026-04-04T13:05:57.505Z</time></trkpt><trkpt lat="45.6665569" lon="9.0620464"><ele>247.0</ele><time>2026-04-04T13:05:58.505Z</time></trkpt><trkpt lat="45.6668822" lon="9.0620084"><ele>247.5</ele><time>2026-04-04T13:05:59.504Z</time></trkpt><trkpt lat="45.667205" lon="9.0619834"><ele>248.0</ele><time>2026-04-04T13:06:00.505Z</time></trkpt><trkpt lat="45.6675261" lon="9.0619747"><ele>249.0</ele><time>2026-04-04T13:06:01.505Z</time></trkpt><trkpt lat="45.667851" lon="9.0619863"><ele>250.0</ele><time>2026-04-04T13:06:02.505Z</time></trkpt><trkpt lat="45.668172" lon="9.0620138"><ele>250.0</ele><time>2026-04-04T13:06:03.505Z</time></trkpt><trkpt lat="45.6684869" lon="9.0620573"><ele>250.0</ele><time>2026-04-04T13:06:04.505Z</time></trkpt><trkpt lat="45.668797" lon="9.0621196"><ele>250.5</ele><time>2026-04-04T13:06:05.505Z</time></trkpt><trkpt lat="45.6691028" lon="9.0621974"><ele>251.0</ele><time>2026-04-04T13:06:06.505Z</time></trkpt><trkpt lat="45.6693961" lon="9.0622798"><ele>251.5</ele><time>2026-04-04T13:06:07.505Z</time></trkpt><trkpt lat="45.6696726" lon="9.0623679"><ele>252.0</ele><time>2026-04-04T13:06:08.504Z</time></trkpt><trkpt lat="45.6699321" lon="9.0624565"><ele>252.0</ele><time>2026-04-04T13:06:09.504Z</time></trkpt><trkpt lat="45.6701832" lon="9.0625428"><ele>252.0</ele><time>2026-04-04T13:06:10.505Z</time></trkpt><trkpt lat="45.6704282" lon="9.0626272"><ele>252.5</ele><time>2026-04-04T13:06:11.505Z</time></trkpt><trkpt lat="45.6706696" lon="9.0627116"><ele>253.0</ele><time>2026-04-04T13:06:12.505Z</time></trkpt><trkpt lat="45.6708953" lon="9.0627899"><ele>253.0</ele><time>2026-04-04T13:06:13.504Z</time></trkpt><trkpt lat="45.6711126" lon="9.0628651"><ele>253.0</ele><time>2026-04-04T13:06:14.505Z</time></trkpt><trkpt lat="45.6713188" lon="9.0629375"><ele>253.0</ele><time>2026-04-04T13:06:15.505Z</time></trkpt><trkpt lat="45.6715124" lon="9.063004"><ele>253.0</ele><time>2026-04-04T13:06:16.505Z</time></trkpt><trkpt lat="45.671692" lon="9.0630669"><ele>253.0</ele><time>2026-04-04T13:06:17.505Z</time></trkpt><trkpt lat="45.6718616" lon="9.0631254"><ele>253.0</ele><time>2026-04-04T13:06:18.504Z</time></trkpt><trkpt lat="45.6720133" lon="9.0631782"><ele>253.0</ele><time>2026-04-04T13:06:19.505Z</time></trkpt><trkpt lat="45.672149" lon="9.0632251"><ele>253.0</ele><time>2026-04-04T13:06:20.505Z</time></trkpt><trkpt lat="45.6722716" lon="9.0632674"><ele>253.0</ele><time>2026-04-04T13:06:21.504Z</time></trkpt><trkpt lat="45.6723748" lon="9.0633044"><ele>253.0</ele><time>2026-04-04T13:06:22.504Z</time></trkpt><trkpt lat="45.6724668" lon="9.0633416"><ele>252.99999999999997</ele><time>2026-04-04T13:06:23.505Z</time></trkpt><trkpt lat="45.6725342" lon="9.0633742"><ele>253.0</ele><time>2026-04-04T13:06:24.504Z</time></trkpt><trkpt lat="45.6726167" lon="9.0634305"><ele>253.0</ele><time>2026-04-04T13:06:26.505Z</time></trkpt><trkpt lat="45.6726852" lon="9.0635323"><ele>253.0</ele><time>2026-04-04T13:06:28.505Z</time></trkpt><trkpt lat="45.6727291" lon="9.0636142"><ele>252.99999999999997</ele><time>2026-04-04T13:06:29.505Z</time></trkpt><trkpt lat="45.6727928" lon="9.0637034"><ele>253.0</ele><time>2026-04-04T13:06:30.505Z</time></trkpt><trkpt lat="45.6728619" lon="9.0637553"><ele>252.8</ele><time>2026-04-04T13:06:31.505Z</time></trkpt><trkpt lat="45.672948" lon="9.0637848"><ele>252.60000000000002</ele><time>2026-04-04T13:06:32.505Z</time></trkpt><trkpt lat="45.6730433" lon="9.0637762"><ele>252.39999999999998</ele><time>2026-04-04T13:06:33.505Z</time></trkpt><trkpt lat="45.6731445" lon="9.0637275"><ele>252.2</ele><time>2026-04-04T13:06:34.505Z</time></trkpt><trkpt lat="45.6732496" lon="9.0636756"><ele>252.0</ele><time>2026-04-04T13:06:35.505Z</time></trkpt><trkpt lat="45.6733699" lon="9.0636618"><ele>252.0</ele><time>2026-04-04T13:06:36.505Z</time></trkpt><trkpt lat="45.6735107" lon="9.0636772"><ele>252.0</ele><time>2026-04-04T13:06:37.505Z</time></trkpt><trkpt lat="45.673679" lon="9.0637199"><ele>252.0</ele><time>2026-04-04T13:06:38.505Z</time></trkpt><trkpt lat="45.6738652" lon="9.0637789"><ele>253.0</ele><time>2026-04-04T13:06:39.504Z</time></trkpt><trkpt lat="45.6740663" lon="9.0638494"><ele>254.0</ele><time>2026-04-04T13:06:40.505Z</time></trkpt><trkpt lat="45.674291" lon="9.0639355"><ele>255.0</ele><time>2026-04-04T13:06:41.505Z</time></trkpt><trkpt lat="45.6745356" lon="9.0640307"><ele>256.5</ele><time>2026-04-04T13:06:42.504Z</time></trkpt><trkpt lat="45.6747872" lon="9.0641258"><ele>258.0</ele><time>2026-04-04T13:06:43.505Z</time></trkpt><trkpt lat="45.6750573" lon="9.0642236"><ele>258.0</ele><time>2026-04-04T13:06:44.505Z</time></trkpt><trkpt lat="45.6753379" lon="9.0643197"><ele>258.0</ele><time>2026-04-04T13:06:45.505Z</time></trkpt><trkpt lat="45.6756067" lon="9.0644112"><ele>258.0</ele><time>2026-04-04T13:06:46.505Z</time></trkpt><trkpt lat="45.6758603" lon="9.0644992"><ele>258.0</ele><time>2026-04-04T13:06:47.505Z</time></trkpt><trkpt lat="45.6761039" lon="9.0645823"><ele>258.5</ele><time>2026-04-04T13:06:48.505Z</time></trkpt><trkpt lat="45.6763384" lon="9.0646629"><ele>259.0</ele><time>2026-04-04T13:06:49.505Z</time></trkpt><trkpt lat="45.6765563" lon="9.0647397"><ele>259.0</ele><time>2026-04-04T13:06:50.505Z</time></trkpt><trkpt lat="45.676762" lon="9.0648124"><ele>259.0</ele><time>2026-04-04T13:06:51.504Z</time></trkpt><trkpt lat="45.6769567" lon="9.0648803"><ele>259.0</ele><time>2026-04-04T13:06:52.504Z</time></trkpt><trkpt lat="45.6771457" lon="9.0649457"><ele>260.66666666666663</ele><time>2026-04-04T13:06:53.504Z</time></trkpt><trkpt lat="45.6773318" lon="9.0650068"><ele>262.3333333333333</ele><time>2026-04-04T13:06:54.504Z</time></trkpt><trkpt lat="45.6775135" lon="9.0650673"><ele>264.0</ele><time>2026-04-04T13:06:55.505Z</time></trkpt><trkpt lat="45.6776862" lon="9.0651257"><ele>264.3333333333333</ele><time>2026-04-04T13:06:56.504Z</time></trkpt><trkpt lat="45.6778484" lon="9.065182"><ele>264.66666666666663</ele><time>2026-04-04T13:06:57.505Z</time></trkpt><trkpt lat="45.6780032" lon="9.0652361"><ele>265.0</ele><time>2026-04-04T13:06:58.505Z</time></trkpt><trkpt lat="45.6781462" lon="9.0652866"><ele>265.0</ele><time>2026-04-04T13:06:59.505Z</time></trkpt><trkpt lat="45.6782854" lon="9.0653346"><ele>265.0</ele><time>2026-04-04T13:07:00.505Z</time></trkpt><trkpt lat="45.6784137" lon="9.0653784"><ele>265.0</ele><time>2026-04-04T13:07:01.505Z</time></trkpt><trkpt lat="45.678536" lon="9.0654218"><ele>265.0</ele><time>2026-04-04T13:07:02.505Z</time></trkpt><trkpt lat="45.6786467" lon="9.0654601"><ele>265.75</ele><time>2026-04-04T13:07:03.505Z</time></trkpt><trkpt lat="45.6787589" lon="9.0654986"><ele>266.5</ele><time>2026-04-04T13:07:04.505Z</time></trkpt><trkpt lat="45.678867" lon="9.0655498"><ele>267.25</ele><time>2026-04-04T13:07:05.505Z</time></trkpt><trkpt lat="45.6789653" lon="9.0656342"><ele>268.0</ele><time>2026-04-04T13:07:06.504Z</time></trkpt><trkpt lat="45.6790621" lon="9.0657388"><ele>268.0</ele><time>2026-04-04T13:07:07.505Z</time></trkpt><trkpt lat="45.679156" lon="9.0658244"><ele>268.0</ele><time>2026-04-04T13:07:08.505Z</time></trkpt><trkpt lat="45.6792457" lon="9.0658817"><ele>268.0</ele><time>2026-04-04T13:07:09.505Z</time></trkpt><trkpt lat="45.6793348" lon="9.0659087"><ele>268.0</ele><time>2026-04-04T13:07:10.505Z</time></trkpt><trkpt lat="45.6794248" lon="9.0659018"><ele>268.0</ele><time>2026-04-04T13:07:11.505Z</time></trkpt><trkpt lat="45.6795095" lon="9.0658501"><ele>267.6</ele><time>2026-04-04T13:07:12.505Z</time></trkpt><trkpt lat="45.6795887" lon="9.0657691"><ele>267.20000000000005</ele><time>2026-04-04T13:07:13.504Z</time></trkpt><trkpt lat="45.6796562" lon="9.0656659"><ele>266.8</ele><time>2026-04-04T13:07:14.505Z</time></trkpt><trkpt lat="45.6797118" lon="9.0655477"><ele>266.40000000000003</ele><time>2026-04-04T13:07:15.505Z</time></trkpt><trkpt lat="45.6797808" lon="9.0654461"><ele>266.0</ele><time>2026-04-04T13:07:16.505Z</time></trkpt><trkpt lat="45.6798692" lon="9.0653768"><ele>266.0</ele><time>2026-04-04T13:07:17.505Z</time></trkpt><trkpt lat="45.6799814" lon="9.0653305"><ele>266.0</ele><time>2026-04-04T13:07:18.505Z</time></trkpt><trkpt lat="45.6801303" lon="9.0652912"><ele>266.0</ele><time>2026-04-04T13:07:19.504Z</time></trkpt><trkpt lat="45.6803093" lon="9.0652581"><ele>266.0</ele><time>2026-04-04T13:07:20.505Z</time></trkpt><trkpt lat="45.6805035" lon="9.0652325"><ele>267.0</ele><time>2026-04-04T13:07:21.504Z</time></trkpt><trkpt lat="45.6807259" lon="9.0652023"><ele>268.0</ele><time>2026-04-04T13:07:22.505Z</time></trkpt><trkpt lat="45.6809675" lon="9.0651649"><ele>267.5</ele><time>2026-04-04T13:07:23.505Z</time></trkpt><trkpt lat="45.6812275" lon="9.0651239"><ele>267.0</ele><time>2026-04-04T13:07:24.505Z</time></trkpt><trkpt lat="45.6814938" lon="9.065083"><ele>267.0</ele><time>2026-04-04T13:07:25.505Z</time></trkpt><trkpt lat="45.6817758" lon="9.0650417"><ele>267.0</ele><time>2026-04-04T13:07:26.505Z</time></trkpt><trkpt lat="45.6820687" lon="9.0650028"><ele>264.5</ele><time>2026-04-04T13:07:27.505Z</time></trkpt><trkpt lat="45.6823727" lon="9.0649708"><ele>262.0</ele><time>2026-04-04T13:07:28.505Z</time></trkpt><trkpt lat="45.6826845" lon="9.0649519"><ele>263.5</ele><time>2026-04-04T13:07:29.505Z</time></trkpt><trkpt lat="45.6830034" lon="9.0649495"><ele>265.0</ele><time>2026-04-04T13:07:30.505Z</time></trkpt><trkpt lat="45.6833219" lon="9.0649642"><ele>264.0</ele><time>2026-04-04T13:07:31.505Z</time></trkpt><trkpt lat="45.6836416" lon="9.0649947"><ele>263.0</ele><time>2026-04-04T13:07:32.505Z</time></trkpt><trkpt lat="45.6839573" lon="9.0650427"><ele>263.0</ele><time>2026-04-04T13:07:33.505Z</time></trkpt><trkpt lat="45.6842719" lon="9.0651061"><ele>263.0</ele><time>2026-04-04T13:07:34.505Z</time></trkpt><trkpt lat="45.684585" lon="9.0651855"><ele>264.5</ele><time>2026-04-04T13:07:35.505Z</time></trkpt><trkpt lat="45.6848933" lon="9.0652784"><ele>266.0</ele><time>2026-04-04T13:07:36.505Z</time></trkpt><trkpt lat="45.6852043" lon="9.0653827"><ele>267.5</ele><time>2026-04-04T13:07:37.505Z</time></trkpt><trkpt lat="45.6855206" lon="9.0654903"><ele>269.0</ele><time>2026-04-04T13:07:38.505Z</time></trkpt><trkpt lat="45.685841" lon="9.0656023"><ele>267.5</ele><time>2026-04-04T13:07:39.505Z</time></trkpt><trkpt lat="45.6861641" lon="9.0657187"><ele>266.0</ele><time>2026-04-04T13:07:40.504Z</time></trkpt><trkpt lat="45.6864881" lon="9.0658374"><ele>265.0</ele><time>2026-04-04T13:07:41.505Z</time></trkpt><trkpt lat="45.6868121" lon="9.0659561"><ele>264.0</ele><time>2026-04-04T13:07:42.505Z</time></trkpt><trkpt lat="45.687125" lon="9.0660693"><ele>266.5</ele><time>2026-04-04T13:07:43.504Z</time></trkpt><trkpt lat="45.6874306" lon="9.0661778"><ele>269.0</ele><time>2026-04-04T13:07:44.505Z</time></trkpt><trkpt lat="45.6877225" lon="9.0662785"><ele>269.0</ele><time>2026-04-04T13:07:45.505Z</time></trkpt><trkpt lat="45.6880071" lon="9.0663742"><ele>269.0</ele><time>2026-04-04T13:07:46.505Z</time></trkpt><trkpt lat="45.6882888" lon="9.0664617"><ele>269.0</ele><time>2026-04-04T13:07:47.506Z</time></trkpt><trkpt lat="45.6885704" lon="9.0665366"><ele>269.0</ele><time>2026-04-04T13:07:48.505Z</time></trkpt><trkpt lat="45.688857" lon="9.0665992"><ele>269.5</ele><time>2026-04-04T13:07:49.505Z</time></trkpt><trkpt lat="45.6891474" lon="9.0666484"><ele>270.0</ele><time>2026-04-04T13:07:50.505Z</time></trkpt><trkpt lat="45.6894409" lon="9.0666819"><ele>270.0</ele><time>2026-04-04T13:07:51.505Z</time></trkpt><trkpt lat="45.6897404" lon="9.0666983"><ele>270.0</ele><time>2026-04-04T13:07:52.504Z</time></trkpt><trkpt lat="45.690047" lon="9.0667003"><ele>270.0</ele><time>2026-04-04T13:07:53.505Z</time></trkpt><trkpt lat="45.690352" lon="9.0666925"><ele>270.0</ele><time>2026-04-04T13:07:54.505Z</time></trkpt><trkpt lat="45.6906352" lon="9.0666775"><ele>270.0</ele><time>2026-04-04T13:07:55.505Z</time></trkpt><trkpt lat="45.6908989" lon="9.0666631"><ele>270.0</ele><time>2026-04-04T13:07:56.505Z</time></trkpt><trkpt lat="45.6911442" lon="9.0666515"><ele>270.3333333333333</ele><time>2026-04-04T13:07:57.505Z</time></trkpt><trkpt lat="45.6913734" lon="9.0666395"><ele>270.66666666666663</ele><time>2026-04-04T13:07:58.505Z</time></trkpt><trkpt lat="45.6915902" lon="9.0666275"><ele>271.0</ele><time>2026-04-04T13:07:59.505Z</time></trkpt><trkpt lat="45.6917925" lon="9.0666148"><ele>273.0</ele><time>2026-04-04T13:08:00.505Z</time></trkpt><trkpt lat="45.6919806" lon="9.0666022"><ele>275.0</ele><time>2026-04-04T13:08:01.505Z</time></trkpt><trkpt lat="45.6921532" lon="9.0665911"><ele>277.0</ele><time>2026-04-04T13:08:02.505Z</time></trkpt><trkpt lat="45.6923009" lon="9.0665828"><ele>277.0</ele><time>2026-04-04T13:08:03.505Z</time></trkpt><trkpt lat="45.6924256" lon="9.0665826"><ele>277.0</ele><time>2026-04-04T13:08:04.505Z</time></trkpt><trkpt lat="45.6925257" lon="9.0665994"><ele>277.0</ele><time>2026-04-04T13:08:05.505Z</time></trkpt><trkpt lat="45.6926015" lon="9.0666477"><ele>277.0</ele><time>2026-04-04T13:08:06.505Z</time></trkpt><trkpt lat="45.6926739" lon="9.066723"><ele>277.0</ele><time>2026-04-04T13:08:07.505Z</time></trkpt><trkpt lat="45.6927455" lon="9.0668045"><ele>276.4</ele><time>2026-04-04T13:08:08.505Z</time></trkpt><trkpt lat="45.6928249" lon="9.0668664"><ele>275.79999999999995</ele><time>2026-04-04T13:08:09.505Z</time></trkpt><trkpt lat="45.6929111" lon="9.0668946"><ele>275.2</ele><time>2026-04-04T13:08:10.505Z</time></trkpt><trkpt lat="45.6929981" lon="9.0668762"><ele>274.59999999999997</ele><time>2026-04-04T13:08:11.505Z</time></trkpt><trkpt lat="45.6930795" lon="9.0668084"><ele>274.0</ele><time>2026-04-04T13:08:12.505Z</time></trkpt><trkpt lat="45.6931588" lon="9.0667036"><ele>274.0</ele><time>2026-04-04T13:08:13.505Z</time></trkpt><trkpt lat="45.6932452" lon="9.0666071"><ele>274.0</ele><time>2026-04-04T13:08:14.505Z</time></trkpt><trkpt lat="45.6933453" lon="9.0665519"><ele>274.0</ele><time>2026-04-04T13:08:15.504Z</time></trkpt><trkpt lat="45.693464" lon="9.0665298"><ele>274.0</ele><time>2026-04-04T13:08:16.505Z</time></trkpt><trkpt lat="45.6936056" lon="9.066537"><ele>274.0</ele><time>2026-04-04T13:08:17.505Z</time></trkpt><trkpt lat="45.6937685" lon="9.0665621"><ele>274.0</ele><time>2026-04-04T13:08:18.505Z</time></trkpt><trkpt lat="45.6939444" lon="9.066601"><ele>274.0</ele><time>2026-04-04T13:08:19.505Z</time></trkpt><trkpt lat="45.6941359" lon="9.0666618"><ele>274.5</ele><time>2026-04-04T13:08:20.505Z</time></trkpt><trkpt lat="45.6943474" lon="9.0667527"><ele>275.0</ele><time>2026-04-04T13:08:21.505Z</time></trkpt><trkpt lat="45.6945665" lon="9.066865"><ele>276.0</ele><time>2026-04-04T13:08:22.505Z</time></trkpt><trkpt lat="45.6947856" lon="9.0669932"><ele>277.0</ele><time>2026-04-04T13:08:23.505Z</time></trkpt><trkpt lat="45.6950194" lon="9.0671445"><ele>278.5</ele><time>2026-04-04T13:08:24.505Z</time></trkpt><trkpt lat="45.695262" lon="9.0673092"><ele>280.0</ele><time>2026-04-04T13:08:25.504Z</time></trkpt><trkpt lat="45.6955001" lon="9.0674686"><ele>280.0</ele><time>2026-04-04T13:08:26.504Z</time></trkpt><trkpt lat="45.6957399" lon="9.0676196"><ele>280.0</ele><time>2026-04-04T13:08:27.505Z</time></trkpt><trkpt lat="45.6959857" lon="9.0677548"><ele>280.5</ele><time>2026-04-04T13:08:28.505Z</time></trkpt><trkpt lat="45.6962352" lon="9.0678694"><ele>281.0</ele><time>2026-04-04T13:08:29.505Z</time></trkpt><trkpt lat="45.6964929" lon="9.0679587"><ele>281.0</ele><time>2026-04-04T13:08:30.505Z</time></trkpt><trkpt lat="45.6967571" lon="9.0680234"><ele>281.0</ele><time>2026-04-04T13:08:31.505Z</time></trkpt><trkpt lat="45.6970226" lon="9.0680608"><ele>281.0</ele><time>2026-04-04T13:08:32.504Z</time></trkpt><trkpt lat="45.6972957" lon="9.0680806"><ele>281.0</ele><time>2026-04-04T13:08:33.505Z</time></trkpt><trkpt lat="45.6975533" lon="9.0680536"><ele>286.0</ele><time>2026-04-04T13:08:34.505Z</time></trkpt><trkpt lat="45.697814" lon="9.0680111"><ele>291.0</ele><time>2026-04-04T13:08:35.505Z</time></trkpt><trkpt lat="45.6980675" lon="9.0679417"><ele>291.0</ele><time>2026-04-04T13:08:36.505Z</time></trkpt><trkpt lat="45.6983126" lon="9.0678478"><ele>291.0</ele><time>2026-04-04T13:08:37.505Z</time></trkpt><trkpt lat="45.6985498" lon="9.0677334"><ele>290.0</ele><time>2026-04-04T13:08:38.505Z</time></trkpt><trkpt lat="45.6987781" lon="9.0675945"><ele>289.0</ele><time>2026-04-04T13:08:39.505Z</time></trkpt><trkpt lat="45.6989979" lon="9.0674356"><ele>293.0</ele><time>2026-04-04T13:08:40.505Z</time></trkpt><trkpt lat="45.6992076" lon="9.0672601"><ele>297.0</ele><time>2026-04-04T13:08:41.505Z</time></trkpt><trkpt lat="45.6994102" lon="9.0670805"><ele>292.0</ele><time>2026-04-04T13:08:42.505Z</time></trkpt><trkpt lat="45.6996137" lon="9.0669026"><ele>287.0</ele><time>2026-04-04T13:08:43.505Z</time></trkpt><trkpt lat="45.6998129" lon="9.0667127"><ele>290.5</ele><time>2026-04-04T13:08:44.505Z</time></trkpt><trkpt lat="45.6999749" lon="9.0664726"><ele>294.0</ele><time>2026-04-04T13:08:45.505Z</time></trkpt><trkpt lat="45.7001573" lon="9.0662931"><ele>291.5</ele><time>2026-04-04T13:08:46.504Z</time></trkpt><trkpt lat="45.7003415" lon="9.0661006"><ele>289.0</ele><time>2026-04-04T13:08:47.505Z</time></trkpt><trkpt lat="45.7005277" lon="9.065914"><ele>291.5</ele><time>2026-04-04T13:08:48.505Z</time></trkpt><trkpt lat="45.7007161" lon="9.0657342"><ele>294.0</ele><time>2026-04-04T13:08:49.505Z</time></trkpt><trkpt lat="45.7009087" lon="9.0655675"><ele>292.6666666666667</ele><time>2026-04-04T13:08:50.505Z</time></trkpt><trkpt lat="45.7011084" lon="9.065425"><ele>291.33333333333337</ele><time>2026-04-04T13:08:51.504Z</time></trkpt><trkpt lat="45.7013123" lon="9.0652993"><ele>290.0</ele><time>2026-04-04T13:08:52.505Z</time></trkpt><trkpt lat="45.7015177" lon="9.0651876"><ele>290.0</ele><time>2026-04-04T13:08:53.505Z</time></trkpt><trkpt lat="45.701728" lon="9.0650939"><ele>290.0</ele><time>2026-04-04T13:08:54.505Z</time></trkpt><trkpt lat="45.7019376" lon="9.0650202"><ele>290.0</ele><time>2026-04-04T13:08:55.504Z</time></trkpt><trkpt lat="45.7021423" lon="9.0649592"><ele>291.6666666666667</ele><time>2026-04-04T13:08:56.505Z</time></trkpt><trkpt lat="45.7023454" lon="9.0649069"><ele>293.3333333333333</ele><time>2026-04-04T13:08:57.505Z</time></trkpt><trkpt lat="45.7025462" lon="9.0648603"><ele>295.0</ele><time>2026-04-04T13:08:58.505Z</time></trkpt><trkpt lat="45.7027432" lon="9.064814"><ele>294.0</ele><time>2026-04-04T13:08:59.505Z</time></trkpt><trkpt lat="45.7029339" lon="9.0647689"><ele>293.0</ele><time>2026-04-04T13:09:00.505Z</time></trkpt><trkpt lat="45.703124" lon="9.0647252"><ele>292.0</ele><time>2026-04-04T13:09:01.505Z</time></trkpt><trkpt lat="45.7033072" lon="9.0646824"><ele>292.0</ele><time>2026-04-04T13:09:02.505Z</time></trkpt><trkpt lat="45.7034834" lon="9.0646424"><ele>292.0</ele><time>2026-04-04T13:09:03.505Z</time></trkpt><trkpt lat="45.7036562" lon="9.0646018"><ele>292.0</ele><time>2026-04-04T13:09:04.505Z</time></trkpt><trkpt lat="45.7038298" lon="9.0645599"><ele>292.66666666666663</ele><time>2026-04-04T13:09:05.505Z</time></trkpt><trkpt lat="45.7039954" lon="9.0645227"><ele>293.3333333333333</ele><time>2026-04-04T13:09:06.505Z</time></trkpt><trkpt lat="45.7041652" lon="9.0644852"><ele>294.0</ele><time>2026-04-04T13:09:07.504Z</time></trkpt><trkpt lat="45.7043372" lon="9.0644468"><ele>294.0</ele><time>2026-04-04T13:09:08.505Z</time></trkpt><trkpt lat="45.7045123" lon="9.0644064"><ele>294.0</ele><time>2026-04-04T13:09:09.505Z</time></trkpt><trkpt lat="45.704689" lon="9.064366"><ele>294.0</ele><time>2026-04-04T13:09:10.504Z</time></trkpt><trkpt lat="45.7048618" lon="9.0643258"><ele>294.0</ele><time>2026-04-04T13:09:11.505Z</time></trkpt><trkpt lat="45.7050333" lon="9.0642876"><ele>294.0</ele><time>2026-04-04T13:09:12.505Z</time></trkpt><trkpt lat="45.705199" lon="9.064248"><ele>294.0</ele><time>2026-04-04T13:09:13.505Z</time></trkpt><trkpt lat="45.7053686" lon="9.064205"><ele>295.0</ele><time>2026-04-04T13:09:14.504Z</time></trkpt><trkpt lat="45.7055401" lon="9.06416"><ele>296.0</ele><time>2026-04-04T13:09:15.505Z</time></trkpt><trkpt lat="45.7057165" lon="9.0641151"><ele>297.0</ele><time>2026-04-04T13:09:16.504Z</time></trkpt><trkpt lat="45.7058986" lon="9.0640713"><ele>297.6666666666667</ele><time>2026-04-04T13:09:17.505Z</time></trkpt><trkpt lat="45.706081" lon="9.0640327"><ele>298.33333333333337</ele><time>2026-04-04T13:09:18.505Z</time></trkpt><trkpt lat="45.7062611" lon="9.0639964"><ele>299.0</ele><time>2026-04-04T13:09:19.505Z</time></trkpt><trkpt lat="45.706435" lon="9.0639654"><ele>299.0</ele><time>2026-04-04T13:09:20.505Z</time></trkpt><trkpt lat="45.7065921" lon="9.0639361"><ele>299.0</ele><time>2026-04-04T13:09:21.505Z</time></trkpt><trkpt lat="45.7067319" lon="9.0639143"><ele>299.0</ele><time>2026-04-04T13:09:22.505Z</time></trkpt><trkpt lat="45.706857" lon="9.0638956"><ele>299.0</ele><time>2026-04-04T13:09:23.505Z</time></trkpt><trkpt lat="45.7069652" lon="9.0638784"><ele>298.83333333333337</ele><time>2026-04-04T13:09:24.505Z</time></trkpt><trkpt lat="45.7070657" lon="9.0638638"><ele>298.6666666666667</ele><time>2026-04-04T13:09:25.504Z</time></trkpt><trkpt lat="45.7071556" lon="9.0638505"><ele>298.5</ele><time>2026-04-04T13:09:26.505Z</time></trkpt><trkpt lat="45.7072375" lon="9.0638426"><ele>298.3333333333333</ele><time>2026-04-04T13:09:27.504Z</time></trkpt><trkpt lat="45.7073133" lon="9.0638476"><ele>298.16666666666663</ele><time>2026-04-04T13:09:28.505Z</time></trkpt><trkpt lat="45.707389" lon="9.0638969"><ele>298.0</ele><time>2026-04-04T13:09:29.505Z</time></trkpt><trkpt lat="45.7074621" lon="9.0639474"><ele>298.0</ele><time>2026-04-04T13:09:30.505Z</time></trkpt><trkpt lat="45.7075397" lon="9.0639914"><ele>298.0</ele><time>2026-04-04T13:09:31.505Z</time></trkpt><trkpt lat="45.7076174" lon="9.0640113"><ele>298.0</ele><time>2026-04-04T13:09:32.505Z</time></trkpt><trkpt lat="45.7076962" lon="9.0640033"><ele>298.0</ele><time>2026-04-04T13:09:33.505Z</time></trkpt><trkpt lat="45.7077692" lon="9.063963"><ele>298.0</ele><time>2026-04-04T13:09:34.505Z</time></trkpt><trkpt lat="45.7078354" lon="9.0638985"><ele>298.0</ele><time>2026-04-04T13:09:35.505Z</time></trkpt><trkpt lat="45.707905" lon="9.0638177"><ele>298.25</ele><time>2026-04-04T13:09:36.504Z</time></trkpt><trkpt lat="45.7079919" lon="9.0637492"><ele>298.5</ele><time>2026-04-04T13:09:37.505Z</time></trkpt><trkpt lat="45.7080915" lon="9.0637097"><ele>298.75</ele><time>2026-04-04T13:09:38.505Z</time></trkpt><trkpt lat="45.7082069" lon="9.0637018"><ele>299.0</ele><time>2026-04-04T13:09:39.505Z</time></trkpt><trkpt lat="45.7083412" lon="9.0637182"><ele>299.0</ele><time>2026-04-04T13:09:40.505Z</time></trkpt><trkpt lat="45.7084864" lon="9.0637435"><ele>299.0</ele><time>2026-04-04T13:09:41.505Z</time></trkpt><trkpt lat="45.7086434" lon="9.0637792"><ele>299.0</ele><time>2026-04-04T13:09:42.505Z</time></trkpt><trkpt lat="45.7088209" lon="9.0638284"><ele>298.6666666666667</ele><time>2026-04-04T13:09:43.504Z</time></trkpt><trkpt lat="45.7090108" lon="9.0638909"><ele>298.3333333333333</ele><time>2026-04-04T13:09:44.505Z</time></trkpt><trkpt lat="45.709198" lon="9.063955"><ele>298.0</ele><time>2026-04-04T13:09:45.505Z</time></trkpt><trkpt lat="45.7093965" lon="9.064021"><ele>299.66666666666663</ele><time>2026-04-04T13:09:46.505Z</time></trkpt><trkpt lat="45.7096026" lon="9.0640848"><ele>301.3333333333333</ele><time>2026-04-04T13:09:47.504Z</time></trkpt><trkpt lat="45.709807" lon="9.0641454"><ele>303.0</ele><time>2026-04-04T13:09:48.505Z</time></trkpt><trkpt lat="45.7100053" lon="9.0642048"><ele>303.6666666666667</ele><time>2026-04-04T13:09:49.505Z</time></trkpt><trkpt lat="45.7102032" lon="9.0642625"><ele>304.33333333333337</ele><time>2026-04-04T13:09:50.504Z</time></trkpt><trkpt lat="45.7103993" lon="9.0643197"><ele>305.0</ele><time>2026-04-04T13:09:51.505Z</time></trkpt><trkpt lat="45.7105922" lon="9.0643761"><ele>305.33333333333337</ele><time>2026-04-04T13:09:52.505Z</time></trkpt><trkpt lat="45.7107797" lon="9.0644321"><ele>305.6666666666667</ele><time>2026-04-04T13:09:53.505Z</time></trkpt><trkpt lat="45.7109632" lon="9.0644865"><ele>306.0</ele><time>2026-04-04T13:09:54.505Z</time></trkpt><trkpt lat="45.7111443" lon="9.0645386"><ele>306.6666666666667</ele><time>2026-04-04T13:09:55.505Z</time></trkpt><trkpt lat="45.7113219" lon="9.0645904"><ele>307.33333333333337</ele><time>2026-04-04T13:09:56.505Z</time></trkpt><trkpt lat="45.7114851" lon="9.0646381"><ele>308.0</ele><time>2026-04-04T13:09:57.505Z</time></trkpt><trkpt lat="45.7116441" lon="9.0646866"><ele>308.0</ele><time>2026-04-04T13:09:58.505Z</time></trkpt><trkpt lat="45.7117972" lon="9.0647383"><ele>308.0</ele><time>2026-04-04T13:09:59.505Z</time></trkpt><trkpt lat="45.7119564" lon="9.0647979"><ele>308.0</ele><time>2026-04-04T13:10:00.504Z</time></trkpt><trkpt lat="45.7121271" lon="9.0648634"><ele>308.33333333333337</ele><time>2026-04-04T13:10:01.503Z</time></trkpt><trkpt lat="45.7123061" lon="9.0649413"><ele>308.6666666666667</ele><time>2026-04-04T13:10:02.504Z</time></trkpt><trkpt lat="45.7124963" lon="9.0650415"><ele>309.0</ele><time>2026-04-04T13:10:03.503Z</time></trkpt><trkpt lat="45.7126951" lon="9.0651623"><ele>310.0</ele><time>2026-04-04T13:10:04.504Z</time></trkpt><trkpt lat="45.7129041" lon="9.065293"><ele>311.0</ele><time>2026-04-04T13:10:05.504Z</time></trkpt><trkpt lat="45.7131186" lon="9.065421"><ele>311.0</ele><time>2026-04-04T13:10:06.504Z</time></trkpt><trkpt lat="45.7133293" lon="9.0655416"><ele>311.0</ele><time>2026-04-04T13:10:07.504Z</time></trkpt><trkpt lat="45.7135389" lon="9.0656598"><ele>311.6666666666667</ele><time>2026-04-04T13:10:08.504Z</time></trkpt><trkpt lat="45.713744" lon="9.0657744"><ele>312.3333333333333</ele><time>2026-04-04T13:10:09.504Z</time></trkpt><trkpt lat="45.7139419" lon="9.0658837"><ele>313.0</ele><time>2026-04-04T13:10:10.504Z</time></trkpt><trkpt lat="45.7141299" lon="9.0659775"><ele>313.3333333333333</ele><time>2026-04-04T13:10:11.504Z</time></trkpt><trkpt lat="45.7143219" lon="9.0660392"><ele>313.6666666666667</ele><time>2026-04-04T13:10:12.504Z</time></trkpt><trkpt lat="45.7145135" lon="9.0660567"><ele>314.0</ele><time>2026-04-04T13:10:13.504Z</time></trkpt><trkpt lat="45.7147016" lon="9.0660257"><ele>314.33333333333337</ele><time>2026-04-04T13:10:14.504Z</time></trkpt><trkpt lat="45.7148899" lon="9.0659563"><ele>314.6666666666667</ele><time>2026-04-04T13:10:15.504Z</time></trkpt><trkpt lat="45.7150664" lon="9.0659016"><ele>315.0</ele><time>2026-04-04T13:10:16.504Z</time></trkpt><trkpt lat="45.7152377" lon="9.0658736"><ele>315.0</ele><time>2026-04-04T13:10:17.503Z</time></trkpt><trkpt lat="45.7154059" lon="9.0658807"><ele>315.0</ele><time>2026-04-04T13:10:18.504Z</time></trkpt><trkpt lat="45.7155639" lon="9.0659323"><ele>315.0</ele><time>2026-04-04T13:10:19.504Z</time></trkpt><trkpt lat="45.7157224" lon="9.0660191"><ele>315.0</ele><time>2026-04-04T13:10:20.503Z</time></trkpt><trkpt lat="45.7158906" lon="9.0661327"><ele>315.0</ele><time>2026-04-04T13:10:21.504Z</time></trkpt><trkpt lat="45.7160734" lon="9.06626"><ele>315.0</ele><time>2026-04-04T13:10:22.504Z</time></trkpt><trkpt lat="45.7162672" lon="9.0663874"><ele>315.0</ele><time>2026-04-04T13:10:23.504Z</time></trkpt><trkpt lat="45.7164507" lon="9.0665083"><ele>315.0</ele><time>2026-04-04T13:10:24.504Z</time></trkpt><trkpt lat="45.7166283" lon="9.066613"><ele>315.0</ele><time>2026-04-04T13:10:25.504Z</time></trkpt><trkpt lat="45.7168099" lon="9.0666875"><ele>315.6666666666667</ele><time>2026-04-04T13:10:26.503Z</time></trkpt><trkpt lat="45.7169978" lon="9.0667258"><ele>316.33333333333337</ele><time>2026-04-04T13:10:27.503Z</time></trkpt><trkpt lat="45.717189" lon="9.0667272"><ele>317.0</ele><time>2026-04-04T13:10:28.504Z</time></trkpt><trkpt lat="45.7173773" lon="9.0666801"><ele>316.6666666666667</ele><time>2026-04-04T13:10:29.504Z</time></trkpt><trkpt lat="45.7175774" lon="9.0666039"><ele>316.3333333333333</ele><time>2026-04-04T13:10:30.503Z</time></trkpt><trkpt lat="45.7177848" lon="9.066525"><ele>316.0</ele><time>2026-04-04T13:10:31.504Z</time></trkpt><trkpt lat="45.7179807" lon="9.066452"><ele>316.0</ele><time>2026-04-04T13:10:32.503Z</time></trkpt><trkpt lat="45.7181665" lon="9.0663798"><ele>316.0</ele><time>2026-04-04T13:10:33.504Z</time></trkpt><trkpt lat="45.7183473" lon="9.0663087"><ele>316.0</ele><time>2026-04-04T13:10:34.503Z</time></trkpt><trkpt lat="45.7185235" lon="9.0662508"><ele>315.66666666666663</ele><time>2026-04-04T13:10:35.504Z</time></trkpt><trkpt lat="45.7186973" lon="9.0662225"><ele>315.3333333333333</ele><time>2026-04-04T13:10:36.504Z</time></trkpt><trkpt lat="45.7188706" lon="9.0662254"><ele>315.0</ele><time>2026-04-04T13:10:37.504Z</time></trkpt><trkpt lat="45.719046" lon="9.0662543"><ele>315.0</ele><time>2026-04-04T13:10:38.504Z</time></trkpt><trkpt lat="45.7192233" lon="9.0663093"><ele>315.0</ele><time>2026-04-04T13:10:39.504Z</time></trkpt><trkpt lat="45.7193932" lon="9.0663682"><ele>315.0</ele><time>2026-04-04T13:10:40.505Z</time></trkpt><trkpt lat="45.7195561" lon="9.0664231"><ele>315.3333333333333</ele><time>2026-04-04T13:10:41.504Z</time></trkpt><trkpt lat="45.7197171" lon="9.0664763"><ele>315.66666666666663</ele><time>2026-04-04T13:10:42.504Z</time></trkpt><trkpt lat="45.7198739" lon="9.0665294"><ele>316.0</ele><time>2026-04-04T13:10:43.504Z</time></trkpt><trkpt lat="45.7200271" lon="9.0665799"><ele>315.3333333333333</ele><time>2026-04-04T13:10:44.504Z</time></trkpt><trkpt lat="45.7201791" lon="9.0666286"><ele>314.6666666666667</ele><time>2026-04-04T13:10:45.503Z</time></trkpt><trkpt lat="45.7203325" lon="9.0666783"><ele>314.0</ele><time>2026-04-04T13:10:46.504Z</time></trkpt><trkpt lat="45.7204873" lon="9.0667271"><ele>314.0</ele><time>2026-04-04T13:10:47.503Z</time></trkpt><trkpt lat="45.7206448" lon="9.0667787"><ele>314.0</ele><time>2026-04-04T13:10:48.504Z</time></trkpt><trkpt lat="45.7208059" lon="9.0668354"><ele>314.0</ele><time>2026-04-04T13:10:49.504Z</time></trkpt><trkpt lat="45.7209661" lon="9.0668989"><ele>313.0</ele><time>2026-04-04T13:10:50.504Z</time></trkpt><trkpt lat="45.721125" lon="9.0669709"><ele>312.0</ele><time>2026-04-04T13:10:51.504Z</time></trkpt><trkpt lat="45.7212822" lon="9.0670482"><ele>311.0</ele><time>2026-04-04T13:10:52.504Z</time></trkpt><trkpt lat="45.7214304" lon="9.0671265"><ele>311.0</ele><time>2026-04-04T13:10:53.504Z</time></trkpt><trkpt lat="45.7215755" lon="9.067206"><ele>311.0</ele><time>2026-04-04T13:10:54.504Z</time></trkpt><trkpt lat="45.7217253" lon="9.0672833"><ele>311.0</ele><time>2026-04-04T13:10:55.504Z</time></trkpt><trkpt lat="45.7218774" lon="9.0673638"><ele>313.0</ele><time>2026-04-04T13:10:56.504Z</time></trkpt><trkpt lat="45.722026" lon="9.067443"><ele>315.0</ele><time>2026-04-04T13:10:57.504Z</time></trkpt><trkpt lat="45.722168" lon="9.0675184"><ele>317.0</ele><time>2026-04-04T13:10:58.504Z</time></trkpt><trkpt lat="45.7223073" lon="9.0675929"><ele>317.0</ele><time>2026-04-04T13:10:59.503Z</time></trkpt><trkpt lat="45.7224463" lon="9.0676679"><ele>317.0</ele><time>2026-04-04T13:11:00.503Z</time></trkpt><trkpt lat="45.7225854" lon="9.067744"><ele>317.0</ele><time>2026-04-04T13:11:01.504Z</time></trkpt><trkpt lat="45.7227164" lon="9.0678168"><ele>317.0</ele><time>2026-04-04T13:11:02.504Z</time></trkpt><trkpt lat="45.722846" lon="9.0678878"><ele>316.25</ele><time>2026-04-04T13:11:03.504Z</time></trkpt><trkpt lat="45.7229741" lon="9.0679586"><ele>315.5</ele><time>2026-04-04T13:11:04.504Z</time></trkpt><trkpt lat="45.7231006" lon="9.0680279"><ele>314.75</ele><time>2026-04-04T13:11:05.504Z</time></trkpt><trkpt lat="45.7232195" lon="9.0680911"><ele>314.0</ele><time>2026-04-04T13:11:06.503Z</time></trkpt><trkpt lat="45.7233299" lon="9.0681461"><ele>314.0</ele><time>2026-04-04T13:11:07.504Z</time></trkpt><trkpt lat="45.7234357" lon="9.0681989"><ele>314.0</ele><time>2026-04-04T13:11:08.504Z</time></trkpt><trkpt lat="45.723539" lon="9.0682539"><ele>314.0</ele><time>2026-04-04T13:11:09.504Z</time></trkpt><trkpt lat="45.723631" lon="9.0683055"><ele>314.0</ele><time>2026-04-04T13:11:10.504Z</time></trkpt><trkpt lat="45.7237099" lon="9.0683516"><ele>314.0</ele><time>2026-04-04T13:11:11.503Z</time></trkpt><trkpt lat="45.7237862" lon="9.0683956"><ele>313.6666666666667</ele><time>2026-04-04T13:11:12.505Z</time></trkpt><trkpt lat="45.7238598" lon="9.0684358"><ele>313.33333333333337</ele><time>2026-04-04T13:11:13.504Z</time></trkpt><trkpt lat="45.7239282" lon="9.0684708"><ele>313.0</ele><time>2026-04-04T13:11:14.504Z</time></trkpt><trkpt lat="45.7239891" lon="9.0685043"><ele>312.6666666666667</ele><time>2026-04-04T13:11:15.504Z</time></trkpt><trkpt lat="45.7240495" lon="9.0685385"><ele>312.3333333333333</ele><time>2026-04-04T13:11:16.504Z</time></trkpt><trkpt lat="45.7241627" lon="9.0686191"><ele>312.0</ele><time>2026-04-04T13:11:18.504Z</time></trkpt><trkpt lat="45.724247" lon="9.0687311"><ele>312.0</ele><time>2026-04-04T13:11:20.504Z</time></trkpt><trkpt lat="45.7243253" lon="9.0688485"><ele>312.0</ele><time>2026-04-04T13:11:22.504Z</time></trkpt><trkpt lat="45.7244303" lon="9.0688867"><ele>312.0</ele><time>2026-04-04T13:11:24.504Z</time></trkpt><trkpt lat="45.7245296" lon="9.0688083"><ele>312.0</ele><time>2026-04-04T13:11:26.503Z</time></trkpt><trkpt lat="45.7245775" lon="9.0687278"><ele>312.0</ele><time>2026-04-04T13:11:27.504Z</time></trkpt><trkpt lat="45.7246437" lon="9.068647"><ele>312.25</ele><time>2026-04-04T13:11:28.504Z</time></trkpt><trkpt lat="45.7247315" lon="9.0685728"><ele>312.5</ele><time>2026-04-04T13:11:29.504Z</time></trkpt><trkpt lat="45.7248366" lon="9.0684758"><ele>312.75</ele><time>2026-04-04T13:11:30.504Z</time></trkpt><trkpt lat="45.7249521" lon="9.0683524"><ele>313.0</ele><time>2026-04-04T13:11:31.504Z</time></trkpt><trkpt lat="45.7250656" lon="9.068224"><ele>313.0</ele><time>2026-04-04T13:11:32.504Z</time></trkpt><trkpt lat="45.7251861" lon="9.0680848"><ele>313.0</ele><time>2026-04-04T13:11:33.504Z</time></trkpt><trkpt lat="45.725302" lon="9.0679451"><ele>313.0</ele><time>2026-04-04T13:11:34.504Z</time></trkpt><trkpt lat="45.7254119" lon="9.067806"><ele>313.25</ele><time>2026-04-04T13:11:35.504Z</time></trkpt><trkpt lat="45.725514" lon="9.0676718"><ele>313.5</ele><time>2026-04-04T13:11:36.504Z</time></trkpt><trkpt lat="45.7256095" lon="9.0675419"><ele>313.75</ele><time>2026-04-04T13:11:37.504Z</time></trkpt><trkpt lat="45.7256982" lon="9.0674252"><ele>314.0</ele><time>2026-04-04T13:11:38.504Z</time></trkpt><trkpt lat="45.7257854" lon="9.0673253"><ele>314.0</ele><time>2026-04-04T13:11:39.504Z</time></trkpt><trkpt lat="45.7258761" lon="9.0672478"><ele>314.0</ele><time>2026-04-04T13:11:40.504Z</time></trkpt><trkpt lat="45.7259725" lon="9.067176"><ele>314.0</ele><time>2026-04-04T13:11:41.504Z</time></trkpt><trkpt lat="45.7260776" lon="9.0670907"><ele>314.0</ele><time>2026-04-04T13:11:42.504Z</time></trkpt><trkpt lat="45.7261982" lon="9.0670053"><ele>315.33333333333337</ele><time>2026-04-04T13:11:43.504Z</time></trkpt><trkpt lat="45.7263366" lon="9.0669083"><ele>316.6666666666667</ele><time>2026-04-04T13:11:44.504Z</time></trkpt><trkpt lat="45.7264786" lon="9.0667845"><ele>318.0</ele><time>2026-04-04T13:11:45.504Z</time></trkpt><trkpt lat="45.726623" lon="9.0666507"><ele>318.0</ele><time>2026-04-04T13:11:46.504Z</time></trkpt><trkpt lat="45.7267678" lon="9.0665205"><ele>318.0</ele><time>2026-04-04T13:11:47.504Z</time></trkpt><trkpt lat="45.7269106" lon="9.0663915"><ele>318.0</ele><time>2026-04-04T13:11:48.504Z</time></trkpt><trkpt lat="45.7270496" lon="9.0662656"><ele>318.0</ele><time>2026-04-04T13:11:49.503Z</time></trkpt><trkpt lat="45.7271853" lon="9.0661408"><ele>318.0</ele><time>2026-04-04T13:11:50.504Z</time></trkpt><trkpt lat="45.72732" lon="9.0660148"><ele>318.0</ele><time>2026-04-04T13:11:51.504Z</time></trkpt><trkpt lat="45.7274595" lon="9.0658853"><ele>317.3333333333333</ele><time>2026-04-04T13:11:52.504Z</time></trkpt><trkpt lat="45.7276" lon="9.0657562"><ele>316.66666666666663</ele><time>2026-04-04T13:11:53.504Z</time></trkpt><trkpt lat="45.7277435" lon="9.0656257"><ele>316.0</ele><time>2026-04-04T13:11:54.503Z</time></trkpt><trkpt lat="45.7278855" lon="9.0654943"><ele>317.3333333333333</ele><time>2026-04-04T13:11:55.503Z</time></trkpt><trkpt lat="45.7280239" lon="9.0653627"><ele>318.6666666666667</ele><time>2026-04-04T13:11:56.504Z</time></trkpt><trkpt lat="45.728159" lon="9.0652319"><ele>320.0</ele><time>2026-04-04T13:11:57.504Z</time></trkpt><trkpt lat="45.7282951" lon="9.065106"><ele>320.0</ele><time>2026-04-04T13:11:58.503Z</time></trkpt><trkpt lat="45.7284325" lon="9.0649773"><ele>320.0</ele><time>2026-04-04T13:11:59.504Z</time></trkpt><trkpt lat="45.7285702" lon="9.0648498"><ele>320.0</ele><time>2026-04-04T13:12:00.504Z</time></trkpt><trkpt lat="45.7287061" lon="9.0647219"><ele>320.33333333333337</ele><time>2026-04-04T13:12:01.504Z</time></trkpt><trkpt lat="45.7288391" lon="9.0645937"><ele>320.6666666666667</ele><time>2026-04-04T13:12:02.504Z</time></trkpt><trkpt lat="45.7289682" lon="9.0644712"><ele>321.0</ele><time>2026-04-04T13:12:03.504Z</time></trkpt><trkpt lat="45.7290927" lon="9.064353"><ele>321.0</ele><time>2026-04-04T13:12:04.503Z</time></trkpt><trkpt lat="45.7292145" lon="9.0642366"><ele>321.0</ele><time>2026-04-04T13:12:05.504Z</time></trkpt><trkpt lat="45.7293375" lon="9.0641195"><ele>321.0</ele><time>2026-04-04T13:12:06.504Z</time></trkpt><trkpt lat="45.7294541" lon="9.0640079"><ele>321.0</ele><time>2026-04-04T13:12:07.503Z</time></trkpt><trkpt lat="45.7295628" lon="9.0639053"><ele>321.5</ele><time>2026-04-04T13:12:08.504Z</time></trkpt><trkpt lat="45.7296668" lon="9.06381"><ele>322.0</ele><time>2026-04-04T13:12:09.504Z</time></trkpt><trkpt lat="45.7297704" lon="9.063714"><ele>322.5</ele><time>2026-04-04T13:12:10.504Z</time></trkpt><trkpt lat="45.7298713" lon="9.0636186"><ele>323.0</ele><time>2026-04-04T13:12:11.504Z</time></trkpt><trkpt lat="45.7299745" lon="9.0635208"><ele>323.0</ele><time>2026-04-04T13:12:12.504Z</time></trkpt><trkpt lat="45.7300804" lon="9.0634203"><ele>323.0</ele><time>2026-04-04T13:12:13.504Z</time></trkpt><trkpt lat="45.730186" lon="9.0633209"><ele>323.0</ele><time>2026-04-04T13:12:14.503Z</time></trkpt><trkpt lat="45.7302924" lon="9.0632206"><ele>323.0</ele><time>2026-04-04T13:12:15.503Z</time></trkpt><trkpt lat="45.7304006" lon="9.0631168"><ele>323.5</ele><time>2026-04-04T13:12:16.504Z</time></trkpt><trkpt lat="45.7305113" lon="9.0630102"><ele>324.0</ele><time>2026-04-04T13:12:17.504Z</time></trkpt><trkpt lat="45.7306176" lon="9.0629089"><ele>324.5</ele><time>2026-04-04T13:12:18.504Z</time></trkpt><trkpt lat="45.730713" lon="9.0628166"><ele>325.0</ele><time>2026-04-04T13:12:19.504Z</time></trkpt><trkpt lat="45.7308023" lon="9.0627357"><ele>325.0</ele><time>2026-04-04T13:12:20.504Z</time></trkpt><trkpt lat="45.7308875" lon="9.0626777"><ele>325.0</ele><time>2026-04-04T13:12:21.504Z</time></trkpt><trkpt lat="45.7309761" lon="9.0626403"><ele>325.0</ele><time>2026-04-04T13:12:22.504Z</time></trkpt><trkpt lat="45.731068" lon="9.0626285"><ele>325.0</ele><time>2026-04-04T13:12:23.504Z</time></trkpt><trkpt lat="45.73116" lon="9.0626447"><ele>325.0</ele><time>2026-04-04T13:12:24.504Z</time></trkpt><trkpt lat="45.7312527" lon="9.0626861"><ele>324.6</ele><time>2026-04-04T13:12:25.504Z</time></trkpt><trkpt lat="45.7313388" lon="9.0627577"><ele>324.2</ele><time>2026-04-04T13:12:26.503Z</time></trkpt><trkpt lat="45.7314189" lon="9.0628595"><ele>323.79999999999995</ele><time>2026-04-04T13:12:27.504Z</time></trkpt><trkpt lat="45.7314897" lon="9.0629903"><ele>323.4</ele><time>2026-04-04T13:12:28.504Z</time></trkpt><trkpt lat="45.7315536" lon="9.0631412"><ele>323.0</ele><time>2026-04-04T13:12:29.504Z</time></trkpt><trkpt lat="45.7316181" lon="9.0633023"><ele>323.0</ele><time>2026-04-04T13:12:30.504Z</time></trkpt><trkpt lat="45.7316794" lon="9.0634714"><ele>323.0</ele><time>2026-04-04T13:12:31.504Z</time></trkpt><trkpt lat="45.7317383" lon="9.063647"><ele>323.0</ele><time>2026-04-04T13:12:32.504Z</time></trkpt><trkpt lat="45.7317892" lon="9.0638298"><ele>323.0</ele><time>2026-04-04T13:12:33.503Z</time></trkpt><trkpt lat="45.731834" lon="9.0640264"><ele>323.0</ele><time>2026-04-04T13:12:34.504Z</time></trkpt><trkpt lat="45.7318771" lon="9.0642263"><ele>323.0</ele><time>2026-04-04T13:12:35.504Z</time></trkpt><trkpt lat="45.7319213" lon="9.0644206"><ele>323.0</ele><time>2026-04-04T13:12:36.503Z</time></trkpt><trkpt lat="45.7319666" lon="9.0646068"><ele>323.0</ele><time>2026-04-04T13:12:37.504Z</time></trkpt><trkpt lat="45.7320163" lon="9.0647829"><ele>323.75</ele><time>2026-04-04T13:12:38.504Z</time></trkpt><trkpt lat="45.7320814" lon="9.0649416"><ele>324.5</ele><time>2026-04-04T13:12:39.504Z</time></trkpt><trkpt lat="45.7321566" lon="9.065074"><ele>325.25</ele><time>2026-04-04T13:12:40.504Z</time></trkpt><trkpt lat="45.7322425" lon="9.0651862"><ele>326.0</ele><time>2026-04-04T13:12:41.504Z</time></trkpt><trkpt lat="45.7323433" lon="9.0652734"><ele>326.0</ele><time>2026-04-04T13:12:42.503Z</time></trkpt><trkpt lat="45.7324568" lon="9.065339"><ele>326.0</ele><time>2026-04-04T13:12:43.504Z</time></trkpt><trkpt lat="45.7325789" lon="9.0653838"><ele>326.0</ele><time>2026-04-04T13:12:44.504Z</time></trkpt><trkpt lat="45.7327111" lon="9.0654184"><ele>326.0</ele><time>2026-04-04T13:12:45.504Z</time></trkpt><trkpt lat="45.7328499" lon="9.0654508"><ele>326.0</ele><time>2026-04-04T13:12:46.504Z</time></trkpt><trkpt lat="45.7329903" lon="9.0654833"><ele>326.0</ele><time>2026-04-04T13:12:47.504Z</time></trkpt><trkpt lat="45.7331306" lon="9.065529"><ele>326.0</ele><time>2026-04-04T13:12:48.504Z</time></trkpt><trkpt lat="45.7332716" lon="9.06559"><ele>326.0</ele><time>2026-04-04T13:12:49.504Z</time></trkpt><trkpt lat="45.7334141" lon="9.0656546"><ele>326.33333333333337</ele><time>2026-04-04T13:12:50.504Z</time></trkpt><trkpt lat="45.7335606" lon="9.0657233"><ele>326.6666666666667</ele><time>2026-04-04T13:12:51.503Z</time></trkpt><trkpt lat="45.7337103" lon="9.0657981"><ele>327.0</ele><time>2026-04-04T13:12:52.503Z</time></trkpt><trkpt lat="45.7338641" lon="9.0658791"><ele>327.3333333333333</ele><time>2026-04-04T13:12:53.504Z</time></trkpt><trkpt lat="45.7340238" lon="9.0659534"><ele>327.66666666666663</ele><time>2026-04-04T13:12:54.504Z</time></trkpt><trkpt lat="45.7341862" lon="9.0660198"><ele>328.0</ele><time>2026-04-04T13:12:55.504Z</time></trkpt><trkpt lat="45.7343516" lon="9.0660779"><ele>329.3333333333333</ele><time>2026-04-04T13:12:56.504Z</time></trkpt><trkpt lat="45.7345239" lon="9.0661307"><ele>330.6666666666667</ele><time>2026-04-04T13:12:57.504Z</time></trkpt><trkpt lat="45.7347056" lon="9.0661768"><ele>332.0</ele><time>2026-04-04T13:12:58.504Z</time></trkpt><trkpt lat="45.7348862" lon="9.0662152"><ele>332.0</ele><time>2026-04-04T13:12:59.503Z</time></trkpt><trkpt lat="45.7350738" lon="9.0662561"><ele>332.0</ele><time>2026-04-04T13:13:00.504Z</time></trkpt><trkpt lat="45.7352563" lon="9.0663067"><ele>332.0</ele><time>2026-04-04T13:13:01.501Z</time></trkpt><trkpt lat="45.7354382" lon="9.0663677"><ele>332.0</ele><time>2026-04-04T13:13:02.504Z</time></trkpt><trkpt lat="45.7356209" lon="9.0664333"><ele>332.0</ele><time>2026-04-04T13:13:03.504Z</time></trkpt><trkpt lat="45.7358033" lon="9.0665014"><ele>332.0</ele><time>2026-04-04T13:13:04.504Z</time></trkpt><trkpt lat="45.7359832" lon="9.0665715"><ele>331.6666666666667</ele><time>2026-04-04T13:13:05.504Z</time></trkpt><trkpt lat="45.7361613" lon="9.0666405"><ele>331.3333333333333</ele><time>2026-04-04T13:13:06.504Z</time></trkpt><trkpt lat="45.7363408" lon="9.066707"><ele>331.0</ele><time>2026-04-04T13:13:07.503Z</time></trkpt><trkpt lat="45.736524" lon="9.0667724"><ele>331.0</ele><time>2026-04-04T13:13:08.504Z</time></trkpt><trkpt lat="45.7367137" lon="9.0668332"><ele>331.0</ele><time>2026-04-04T13:13:09.504Z</time></trkpt><trkpt lat="45.7369055" lon="9.0668853"><ele>331.0</ele><time>2026-04-04T13:13:10.504Z</time></trkpt><trkpt lat="45.7371009" lon="9.0669286"><ele>331.0</ele><time>2026-04-04T13:13:11.504Z</time></trkpt><trkpt lat="45.7372941" lon="9.0669594"><ele>331.0</ele><time>2026-04-04T13:13:12.503Z</time></trkpt><trkpt lat="45.7374851" lon="9.0669707"><ele>331.0</ele><time>2026-04-04T13:13:13.504Z</time></trkpt><trkpt lat="45.7376745" lon="9.0669635"><ele>331.3333333333333</ele><time>2026-04-04T13:13:14.503Z</time></trkpt><trkpt lat="45.7378599" lon="9.0669362"><ele>331.6666666666667</ele><time>2026-04-04T13:13:15.504Z</time></trkpt><trkpt lat="45.7380425" lon="9.0668849"><ele>332.0</ele><time>2026-04-04T13:13:16.504Z</time></trkpt><trkpt lat="45.7382221" lon="9.066808"><ele>332.0</ele><time>2026-04-04T13:13:17.504Z</time></trkpt><trkpt lat="45.7383992" lon="9.0667092"><ele>332.0</ele><time>2026-04-04T13:13:18.504Z</time></trkpt><trkpt lat="45.7385689" lon="9.0665888"><ele>332.0</ele><time>2026-04-04T13:13:19.504Z</time></trkpt><trkpt lat="45.7387289" lon="9.066443"><ele>332.6666666666667</ele><time>2026-04-04T13:13:20.504Z</time></trkpt><trkpt lat="45.7388755" lon="9.0662842"><ele>333.3333333333333</ele><time>2026-04-04T13:13:21.504Z</time></trkpt><trkpt lat="45.7390115" lon="9.0661187"><ele>334.0</ele><time>2026-04-04T13:13:22.504Z</time></trkpt><trkpt lat="45.7391446" lon="9.0659444"><ele>334.0</ele><time>2026-04-04T13:13:23.504Z</time></trkpt><trkpt lat="45.7392765" lon="9.0657654"><ele>334.0</ele><time>2026-04-04T13:13:24.504Z</time></trkpt><trkpt lat="45.7394109" lon="9.0655869"><ele>334.0</ele><time>2026-04-04T13:13:25.504Z</time></trkpt><trkpt lat="45.7395486" lon="9.0654083"><ele>330.66666666666663</ele><time>2026-04-04T13:13:26.504Z</time></trkpt><trkpt lat="45.7396877" lon="9.0652302"><ele>327.3333333333333</ele><time>2026-04-04T13:13:27.504Z</time></trkpt><trkpt lat="45.7398282" lon="9.0650501"><ele>324.0</ele><time>2026-04-04T13:13:28.504Z</time></trkpt><trkpt lat="45.7399667" lon="9.0648801"><ele>324.0</ele><time>2026-04-04T13:13:29.505Z</time></trkpt><trkpt lat="45.7401071" lon="9.0647337"><ele>324.0</ele><time>2026-04-04T13:13:30.504Z</time></trkpt><trkpt lat="45.7402564" lon="9.0646109"><ele>324.0</ele><time>2026-04-04T13:13:31.503Z</time></trkpt><trkpt lat="45.7404127" lon="9.0645167"><ele>321.6666666666667</ele><time>2026-04-04T13:13:32.504Z</time></trkpt><trkpt lat="45.7405783" lon="9.0644588"><ele>319.33333333333337</ele><time>2026-04-04T13:13:33.504Z</time></trkpt><trkpt lat="45.7407498" lon="9.0644319"><ele>317.0</ele><time>2026-04-04T13:13:34.503Z</time></trkpt><trkpt lat="45.7409245" lon="9.06442"><ele>312.33333333333337</ele><time>2026-04-04T13:13:35.504Z</time></trkpt><trkpt lat="45.7410956" lon="9.0643999"><ele>307.6666666666667</ele><time>2026-04-04T13:13:36.504Z</time></trkpt><trkpt lat="45.7412649" lon="9.0643545"><ele>303.0</ele><time>2026-04-04T13:13:37.503Z</time></trkpt><trkpt lat="45.7414207" lon="9.0642849"><ele>303.0</ele><time>2026-04-04T13:13:38.504Z</time></trkpt><trkpt lat="45.7415643" lon="9.0641891"><ele>303.0</ele><time>2026-04-04T13:13:39.504Z</time></trkpt><trkpt lat="45.7416911" lon="9.0640628"><ele>303.0</ele><time>2026-04-04T13:13:40.503Z</time></trkpt><trkpt lat="45.7417994" lon="9.0639071"><ele>298.0</ele><time>2026-04-04T13:13:41.504Z</time></trkpt><trkpt lat="45.7418859" lon="9.0637266"><ele>293.0</ele><time>2026-04-04T13:13:42.503Z</time></trkpt><trkpt lat="45.7419494" lon="9.0635254"><ele>288.0</ele><time>2026-04-04T13:13:43.504Z</time></trkpt><trkpt lat="45.7419916" lon="9.0633111"><ele>288.5</ele><time>2026-04-04T13:13:44.504Z</time></trkpt><trkpt lat="45.7420121" lon="9.0630971"><ele>289.0</ele><time>2026-04-04T13:13:45.504Z</time></trkpt><trkpt lat="45.7420147" lon="9.0628896"><ele>289.5</ele><time>2026-04-04T13:13:46.504Z</time></trkpt><trkpt lat="45.7420099" lon="9.0627022"><ele>290.0</ele><time>2026-04-04T13:13:47.504Z</time></trkpt><trkpt lat="45.7420161" lon="9.0625275"><ele>292.1666666666667</ele><time>2026-04-04T13:13:48.504Z</time></trkpt><trkpt lat="45.7420463" lon="9.0623762"><ele>294.33333333333337</ele><time>2026-04-04T13:13:49.503Z</time></trkpt><trkpt lat="45.742087" lon="9.062258"><ele>296.5</ele><time>2026-04-04T13:13:50.504Z</time></trkpt><trkpt lat="45.7421327" lon="9.0621672"><ele>298.6666666666667</ele><time>2026-04-04T13:13:51.504Z</time></trkpt><trkpt lat="45.7421848" lon="9.0621009"><ele>300.8333333333333</ele><time>2026-04-04T13:13:52.504Z</time></trkpt><trkpt lat="45.7422432" lon="9.062058"><ele>303.0</ele><time>2026-04-04T13:13:53.504Z</time></trkpt><trkpt lat="45.7423426" lon="9.0620301"><ele>303.0</ele><time>2026-04-04T13:13:55.504Z</time></trkpt><trkpt lat="45.7424104" lon="9.0620534"><ele>303.0</ele><time>2026-04-04T13:14:01.504Z</time></trkpt><trkpt lat="45.7425006" lon="9.0621328"><ele>303.0</ele><time>2026-04-04T13:14:03.504Z</time></trkpt><trkpt lat="45.7425701" lon="9.0621855"><ele>303.0</ele><time>2026-04-04T13:14:04.504Z</time></trkpt><trkpt lat="45.7426413" lon="9.0621977"><ele>303.0</ele><time>2026-04-04T13:14:05.504Z</time></trkpt><trkpt lat="45.7427189" lon="9.0621721"><ele>303.0</ele><time>2026-04-04T13:14:06.503Z</time></trkpt><trkpt lat="45.7427964" lon="9.0621063"><ele>301.5</ele><time>2026-04-04T13:14:07.504Z</time></trkpt><trkpt lat="45.7428907" lon="9.0620087"><ele>300.0</ele><time>2026-04-04T13:14:08.504Z</time></trkpt><trkpt lat="45.7429991" lon="9.061915"><ele>298.5</ele><time>2026-04-04T13:14:09.504Z</time></trkpt><trkpt lat="45.7431251" lon="9.0618229"><ele>297.0</ele><time>2026-04-04T13:14:10.504Z</time></trkpt><trkpt lat="45.743267" lon="9.0617422"><ele>297.0</ele><time>2026-04-04T13:14:11.504Z</time></trkpt><trkpt lat="45.7434232" lon="9.0616748"><ele>297.0</ele><time>2026-04-04T13:14:12.504Z</time></trkpt><trkpt lat="45.743576" lon="9.0616183"><ele>297.0</ele><time>2026-04-04T13:14:13.504Z</time></trkpt><trkpt lat="45.7437313" lon="9.0615646"><ele>300.6666666666667</ele><time>2026-04-04T13:14:14.504Z</time></trkpt><trkpt lat="45.7438847" lon="9.0615082"><ele>304.33333333333337</ele><time>2026-04-04T13:14:15.504Z</time></trkpt><trkpt lat="45.7440353" lon="9.061453"><ele>308.0</ele><time>2026-04-04T13:14:16.504Z</time></trkpt><trkpt lat="45.7441897" lon="9.0613863"><ele>308.0</ele><time>2026-04-04T13:14:17.504Z</time></trkpt><trkpt lat="45.7443405" lon="9.0612938"><ele>308.0</ele><time>2026-04-04T13:14:18.503Z</time></trkpt><trkpt lat="45.7444867" lon="9.0611709"><ele>308.0</ele><time>2026-04-04T13:14:19.504Z</time></trkpt><trkpt lat="45.7446285" lon="9.0610251"><ele>308.33333333333337</ele><time>2026-04-04T13:14:20.504Z</time></trkpt><trkpt lat="45.7447673" lon="9.0608658"><ele>308.6666666666667</ele><time>2026-04-04T13:14:21.504Z</time></trkpt><trkpt lat="45.7449044" lon="9.0607048"><ele>309.0</ele><time>2026-04-04T13:14:22.504Z</time></trkpt><trkpt lat="45.7450372" lon="9.0605488"><ele>309.0</ele><time>2026-04-04T13:14:23.503Z</time></trkpt><trkpt lat="45.7451648" lon="9.0604041"><ele>309.0</ele><time>2026-04-04T13:14:24.504Z</time></trkpt><trkpt lat="45.7452917" lon="9.0602609"><ele>309.0</ele><time>2026-04-04T13:14:25.504Z</time></trkpt><trkpt lat="45.7454208" lon="9.0601143"><ele>308.3333333333333</ele><time>2026-04-04T13:14:26.504Z</time></trkpt><trkpt lat="45.7455496" lon="9.0599649"><ele>307.66666666666663</ele><time>2026-04-04T13:14:27.503Z</time></trkpt><trkpt lat="45.7456748" lon="9.0598141"><ele>307.0</ele><time>2026-04-04T13:14:28.503Z</time></trkpt><trkpt lat="45.7457776" lon="9.0596659"><ele>307.0</ele><time>2026-04-04T13:14:29.504Z</time></trkpt><trkpt lat="45.7458602" lon="9.0595124"><ele>307.0</ele><time>2026-04-04T13:14:30.504Z</time></trkpt><trkpt lat="45.7459283" lon="9.0593541"><ele>307.0</ele><time>2026-04-04T13:14:31.504Z</time></trkpt><trkpt lat="45.7459822" lon="9.0591903"><ele>307.0</ele><time>2026-04-04T13:14:32.504Z</time></trkpt><trkpt lat="45.7460279" lon="9.0590238"><ele>306.25</ele><time>2026-04-04T13:14:33.504Z</time></trkpt><trkpt lat="45.7460775" lon="9.0588556"><ele>305.5</ele><time>2026-04-04T13:14:34.504Z</time></trkpt><trkpt lat="45.7461369" lon="9.0586929"><ele>304.75</ele><time>2026-04-04T13:14:35.504Z</time></trkpt><trkpt lat="45.746205" lon="9.0585329"><ele>304.0</ele><time>2026-04-04T13:14:36.504Z</time></trkpt><trkpt lat="45.7462822" lon="9.0583758"><ele>304.75</ele><time>2026-04-04T13:14:37.504Z</time></trkpt><trkpt lat="45.7463667" lon="9.0582179"><ele>305.5</ele><time>2026-04-04T13:14:38.504Z</time></trkpt><trkpt lat="45.746461" lon="9.0580625"><ele>306.25</ele><time>2026-04-04T13:14:39.504Z</time></trkpt><trkpt lat="45.7465684" lon="9.0579139"><ele>307.0</ele><time>2026-04-04T13:14:40.504Z</time></trkpt><trkpt lat="45.7466871" lon="9.0577763"><ele>307.0</ele><time>2026-04-04T13:14:41.504Z</time></trkpt><trkpt lat="45.7468164" lon="9.0576532"><ele>307.0</ele><time>2026-04-04T13:14:42.504Z</time></trkpt><trkpt lat="45.7469553" lon="9.0575557"><ele>307.0</ele><time>2026-04-04T13:14:43.503Z</time></trkpt><trkpt lat="45.7471016" lon="9.0574832"><ele>309.66666666666663</ele><time>2026-04-04T13:14:44.504Z</time></trkpt><trkpt lat="45.7472565" lon="9.0574312"><ele>312.3333333333333</ele><time>2026-04-04T13:14:45.504Z</time></trkpt><trkpt lat="45.7474129" lon="9.0574074"><ele>315.0</ele><time>2026-04-04T13:14:46.504Z</time></trkpt><trkpt lat="45.7475707" lon="9.057404"><ele>316.5</ele><time>2026-04-04T13:14:47.504Z</time></trkpt><trkpt lat="45.747714" lon="9.0574178"><ele>318.0</ele><time>2026-04-04T13:14:48.504Z</time></trkpt><trkpt lat="45.7478435" lon="9.0574357"><ele>319.5</ele><time>2026-04-04T13:14:49.504Z</time></trkpt><trkpt lat="45.7479697" lon="9.0574519"><ele>321.0</ele><time>2026-04-04T13:14:50.504Z</time></trkpt><trkpt lat="45.7480971" lon="9.0574594"><ele>321.0</ele><time>2026-04-04T13:14:51.504Z</time></trkpt><trkpt lat="45.7482238" lon="9.0574482"><ele>321.0</ele><time>2026-04-04T13:14:52.504Z</time></trkpt><trkpt lat="45.7483497" lon="9.0574168"><ele>321.0</ele><time>2026-04-04T13:14:53.504Z</time></trkpt><trkpt lat="45.7484662" lon="9.0573766"><ele>321.0</ele><time>2026-04-04T13:14:54.504Z</time></trkpt><trkpt lat="45.7485678" lon="9.0573118"><ele>318.75</ele><time>2026-04-04T13:14:55.503Z</time></trkpt><trkpt lat="45.7486568" lon="9.0572171"><ele>316.5</ele><time>2026-04-04T13:14:56.504Z</time></trkpt><trkpt lat="45.7487409" lon="9.0571077"><ele>314.25</ele><time>2026-04-04T13:14:57.504Z</time></trkpt><trkpt lat="45.7488375" lon="9.0570212"><ele>312.0</ele><time>2026-04-04T13:14:58.504Z</time></trkpt><trkpt lat="45.7489456" lon="9.0569601"><ele>312.0</ele><time>2026-04-04T13:14:59.504Z</time></trkpt><trkpt lat="45.749059" lon="9.0569231"><ele>312.0</ele><time>2026-04-04T13:15:00.504Z</time></trkpt><trkpt lat="45.7491761" lon="9.056897"><ele>312.0</ele><time>2026-04-04T13:15:01.503Z</time></trkpt><trkpt lat="45.7492981" lon="9.0568709"><ele>312.0</ele><time>2026-04-04T13:15:02.502Z</time></trkpt><trkpt lat="45.7494221" lon="9.0568391"><ele>310.25</ele><time>2026-04-04T13:15:03.504Z</time></trkpt><trkpt lat="45.7495477" lon="9.056805"><ele>308.5</ele><time>2026-04-04T13:15:04.504Z</time></trkpt><trkpt lat="45.7496754" lon="9.0567737"><ele>306.75</ele><time>2026-04-04T13:15:05.504Z</time></trkpt><trkpt lat="45.749805" lon="9.0567422"><ele>305.0</ele><time>2026-04-04T13:15:06.503Z</time></trkpt><trkpt lat="45.7499365" lon="9.0567091"><ele>305.0</ele><time>2026-04-04T13:15:07.504Z</time></trkpt><trkpt lat="45.7500649" lon="9.0566791"><ele>305.0</ele><time>2026-04-04T13:15:08.504Z</time></trkpt><trkpt lat="45.7501856" lon="9.0566581"><ele>305.0</ele><time>2026-04-04T13:15:09.503Z</time></trkpt><trkpt lat="45.750308" lon="9.0566474"><ele>305.0</ele><time>2026-04-04T13:15:10.504Z</time></trkpt><trkpt lat="45.750425" lon="9.0566503"><ele>304.6</ele><time>2026-04-04T13:15:11.505Z</time></trkpt><trkpt lat="45.750542" lon="9.0566648"><ele>304.2</ele><time>2026-04-04T13:15:12.504Z</time></trkpt><trkpt lat="45.7506518" lon="9.0566792"><ele>303.8</ele><time>2026-04-04T13:15:13.503Z</time></trkpt><trkpt lat="45.750748" lon="9.0566918"><ele>303.4</ele><time>2026-04-04T13:15:14.504Z</time></trkpt><trkpt lat="45.7508518" lon="9.0567005"><ele>303.0</ele><time>2026-04-04T13:15:15.504Z</time></trkpt><trkpt lat="45.7509531" lon="9.0567053"><ele>302.6</ele><time>2026-04-04T13:15:16.503Z</time></trkpt><trkpt lat="45.7510576" lon="9.0567194"><ele>302.20000000000005</ele><time>2026-04-04T13:15:17.504Z</time></trkpt><trkpt lat="45.7511669" lon="9.0567438"><ele>301.8</ele><time>2026-04-04T13:15:18.504Z</time></trkpt><trkpt lat="45.7512772" lon="9.05677"><ele>301.40000000000003</ele><time>2026-04-04T13:15:19.504Z</time></trkpt><trkpt lat="45.7513892" lon="9.0567952"><ele>301.0</ele><time>2026-04-04T13:15:20.504Z</time></trkpt><trkpt lat="45.7515037" lon="9.0568196"><ele>301.0</ele><time>2026-04-04T13:15:21.504Z</time></trkpt><trkpt lat="45.7516173" lon="9.0568417"><ele>301.0</ele><time>2026-04-04T13:15:22.504Z</time></trkpt><trkpt lat="45.751731" lon="9.0568657"><ele>301.0</ele><time>2026-04-04T13:15:23.504Z</time></trkpt><trkpt lat="45.751845" lon="9.0568876"><ele>301.0</ele><time>2026-04-04T13:15:24.504Z</time></trkpt><trkpt lat="45.7519599" lon="9.0569054"><ele>301.25</ele><time>2026-04-04T13:15:25.504Z</time></trkpt><trkpt lat="45.7520761" lon="9.0569167"><ele>301.5</ele><time>2026-04-04T13:15:26.503Z</time></trkpt><trkpt lat="45.7521942" lon="9.0569259"><ele>301.75</ele><time>2026-04-04T13:15:27.504Z</time></trkpt><trkpt lat="45.7523169" lon="9.0569292"><ele>302.0</ele><time>2026-04-04T13:15:28.504Z</time></trkpt><trkpt lat="45.7524429" lon="9.0569249"><ele>302.0</ele><time>2026-04-04T13:15:29.504Z</time></trkpt><trkpt lat="45.7525726" lon="9.0569144"><ele>302.0</ele><time>2026-04-04T13:15:30.504Z</time></trkpt><trkpt lat="45.7527015" lon="9.0568911"><ele>302.0</ele><time>2026-04-04T13:15:31.504Z</time></trkpt><trkpt lat="45.7528281" lon="9.0568614"><ele>302.0</ele><time>2026-04-04T13:15:32.504Z</time></trkpt><trkpt lat="45.7529513" lon="9.0568237"><ele>301.75</ele><time>2026-04-04T13:15:33.504Z</time></trkpt><trkpt lat="45.7530693" lon="9.0567762"><ele>301.5</ele><time>2026-04-04T13:15:34.504Z</time></trkpt><trkpt lat="45.7531819" lon="9.0567185"><ele>301.25</ele><time>2026-04-04T13:15:35.504Z</time></trkpt><trkpt lat="45.7532892" lon="9.0566556"><ele>301.0</ele><time>2026-04-04T13:15:36.504Z</time></trkpt><trkpt lat="45.7533855" lon="9.0565847"><ele>301.0</ele><time>2026-04-04T13:15:37.503Z</time></trkpt><trkpt lat="45.753472" lon="9.0565116"><ele>301.0</ele><time>2026-04-04T13:15:38.504Z</time></trkpt><trkpt lat="45.7535524" lon="9.0564301"><ele>301.0</ele><time>2026-04-04T13:15:39.504Z</time></trkpt><trkpt lat="45.7536287" lon="9.0563366"><ele>301.0</ele><time>2026-04-04T13:15:40.504Z</time></trkpt><trkpt lat="45.7537008" lon="9.0562338"><ele>301.0</ele><time>2026-04-04T13:15:41.503Z</time></trkpt><trkpt lat="45.7537716" lon="9.0561184"><ele>301.0</ele><time>2026-04-04T13:15:42.504Z</time></trkpt><trkpt lat="45.7538397" lon="9.0559887"><ele>301.0</ele><time>2026-04-04T13:15:43.504Z</time></trkpt><trkpt lat="45.7539029" lon="9.0558436"><ele>301.0</ele><time>2026-04-04T13:15:44.504Z</time></trkpt><trkpt lat="45.7539588" lon="9.0556865"><ele>301.0</ele><time>2026-04-04T13:15:45.504Z</time></trkpt><trkpt lat="45.7540072" lon="9.0555133"><ele>301.25</ele><time>2026-04-04T13:15:46.504Z</time></trkpt><trkpt lat="45.7540484" lon="9.0553382"><ele>301.5</ele><time>2026-04-04T13:15:47.504Z</time></trkpt><trkpt lat="45.7540803" lon="9.0551725"><ele>301.75</ele><time>2026-04-04T13:15:48.504Z</time></trkpt><trkpt lat="45.7541058" lon="9.0550097"><ele>302.0</ele><time>2026-04-04T13:15:49.505Z</time></trkpt><trkpt lat="45.7541271" lon="9.0548437"><ele>302.0</ele><time>2026-04-04T13:15:50.504Z</time></trkpt><trkpt lat="45.7541406" lon="9.0546874"><ele>302.0</ele><time>2026-04-04T13:15:51.504Z</time></trkpt><trkpt lat="45.754156" lon="9.0545243"><ele>302.0</ele><time>2026-04-04T13:15:52.503Z</time></trkpt><trkpt lat="45.7541691" lon="9.0543655"><ele>302.0</ele><time>2026-04-04T13:15:53.504Z</time></trkpt><trkpt lat="45.7541786" lon="9.0542131"><ele>302.0</ele><time>2026-04-04T13:15:54.504Z</time></trkpt><trkpt lat="45.7541875" lon="9.0540622"><ele>301.8</ele><time>2026-04-04T13:15:55.504Z</time></trkpt><trkpt lat="45.7541967" lon="9.0539273"><ele>301.6</ele><time>2026-04-04T13:15:56.504Z</time></trkpt><trkpt lat="45.7542047" lon="9.053791"><ele>301.40000000000003</ele><time>2026-04-04T13:15:57.504Z</time></trkpt><trkpt lat="45.7542135" lon="9.0536624"><ele>301.2</ele><time>2026-04-04T13:15:58.504Z</time></trkpt><trkpt lat="45.754229" lon="9.0535371"><ele>301.0</ele><time>2026-04-04T13:15:59.503Z</time></trkpt><trkpt lat="45.7542534" lon="9.0534178"><ele>301.0</ele><time>2026-04-04T13:16:00.504Z</time></trkpt><trkpt lat="45.7542874" lon="9.0533016"><ele>301.0</ele><time>2026-04-04T13:16:01.504Z</time></trkpt><trkpt lat="45.7543338" lon="9.0531881"><ele>301.0</ele><time>2026-04-04T13:16:02.503Z</time></trkpt><trkpt lat="45.7543898" lon="9.0530782"><ele>301.0</ele><time>2026-04-04T13:16:03.504Z</time></trkpt><trkpt lat="45.7544532" lon="9.0529697"><ele>301.0</ele><time>2026-04-04T13:16:04.504Z</time></trkpt><trkpt lat="45.7545246" lon="9.0528658"><ele>300.2</ele><time>2026-04-04T13:16:05.504Z</time></trkpt><trkpt lat="45.7546085" lon="9.0527795"><ele>299.40000000000003</ele><time>2026-04-04T13:16:06.504Z</time></trkpt><trkpt lat="45.7547003" lon="9.0527096"><ele>298.6</ele><time>2026-04-04T13:16:07.503Z</time></trkpt><trkpt lat="45.754798" lon="9.0526524"><ele>297.8</ele><time>2026-04-04T13:16:08.504Z</time></trkpt><trkpt lat="45.7549014" lon="9.0526126"><ele>297.0</ele><time>2026-04-04T13:16:09.504Z</time></trkpt><trkpt lat="45.7550087" lon="9.0525908"><ele>297.0</ele><time>2026-04-04T13:16:10.503Z</time></trkpt><trkpt lat="45.75512" lon="9.0525866"><ele>297.0</ele><time>2026-04-04T13:16:11.504Z</time></trkpt><trkpt lat="45.7552341" lon="9.0525964"><ele>297.0</ele><time>2026-04-04T13:16:12.503Z</time></trkpt><trkpt lat="45.7553484" lon="9.0526172"><ele>297.0</ele><time>2026-04-04T13:16:13.504Z</time></trkpt><trkpt lat="45.7554642" lon="9.0526411"><ele>296.25</ele><time>2026-04-04T13:16:14.504Z</time></trkpt><trkpt lat="45.7555797" lon="9.0526627"><ele>295.5</ele><time>2026-04-04T13:16:15.504Z</time></trkpt><trkpt lat="45.7556973" lon="9.0526837"><ele>294.75</ele><time>2026-04-04T13:16:16.504Z</time></trkpt><trkpt lat="45.7558142" lon="9.0526986"><ele>294.0</ele><time>2026-04-04T13:16:17.503Z</time></trkpt><trkpt lat="45.7559307" lon="9.0526917"><ele>295.2</ele><time>2026-04-04T13:16:18.504Z</time></trkpt><trkpt lat="45.7560419" lon="9.0526557"><ele>296.4</ele><time>2026-04-04T13:16:19.504Z</time></trkpt><trkpt lat="45.7561438" lon="9.0525927"><ele>297.6</ele><time>2026-04-04T13:16:20.504Z</time></trkpt><trkpt lat="45.7562324" lon="9.0525071"><ele>298.8</ele><time>2026-04-04T13:16:21.503Z</time></trkpt><trkpt lat="45.7563026" lon="9.0524127"><ele>300.0</ele><time>2026-04-04T13:16:22.504Z</time></trkpt><trkpt lat="45.7563564" lon="9.0523179"><ele>300.0</ele><time>2026-04-04T13:16:23.504Z</time></trkpt><trkpt lat="45.7563967" lon="9.0522188"><ele>300.0</ele><time>2026-04-04T13:16:24.504Z</time></trkpt><trkpt lat="45.7564248" lon="9.0521269"><ele>300.0</ele><time>2026-04-04T13:16:25.504Z</time></trkpt><trkpt lat="45.7564442" lon="9.0520377"><ele>300.0</ele><time>2026-04-04T13:16:26.503Z</time></trkpt><trkpt lat="45.7564783" lon="9.0518839"><ele>300.0</ele><time>2026-04-04T13:16:28.504Z</time></trkpt><trkpt lat="45.7565431" lon="9.0517566"><ele>300.0</ele><time>2026-04-04T13:16:30.504Z</time></trkpt><trkpt lat="45.7566044" lon="9.0516979"><ele>300.0</ele><time>2026-04-04T13:16:31.504Z</time></trkpt><trkpt lat="45.7566808" lon="9.0516298"><ele>300.0</ele><time>2026-04-04T13:16:32.504Z</time></trkpt><trkpt lat="45.756762" lon="9.0515483"><ele>300.0</ele><time>2026-04-04T13:16:33.503Z</time></trkpt><trkpt lat="45.7568497" lon="9.0514649"><ele>300.0</ele><time>2026-04-04T13:16:34.504Z</time></trkpt><trkpt lat="45.7569455" lon="9.0514039"><ele>300.0</ele><time>2026-04-04T13:16:35.504Z</time></trkpt><trkpt lat="45.7570456" lon="9.0513729"><ele>300.2</ele><time>2026-04-04T13:16:36.503Z</time></trkpt><trkpt lat="45.757149" lon="9.0513663"><ele>300.4</ele><time>2026-04-04T13:16:37.505Z</time></trkpt><trkpt lat="45.7572526" lon="9.0513775"><ele>300.6</ele><time>2026-04-04T13:16:38.504Z</time></trkpt><trkpt lat="45.7573572" lon="9.0513948"><ele>300.8</ele><time>2026-04-04T13:16:39.504Z</time></trkpt><trkpt lat="45.7574614" lon="9.0514223"><ele>301.0</ele><time>2026-04-04T13:16:40.504Z</time></trkpt><trkpt lat="45.7575663" lon="9.051456"><ele>301.0</ele><time>2026-04-04T13:16:41.504Z</time></trkpt><trkpt lat="45.7576715" lon="9.0514923"><ele>301.0</ele><time>2026-04-04T13:16:42.503Z</time></trkpt><trkpt lat="45.7577784" lon="9.0515311"><ele>301.0</ele><time>2026-04-04T13:16:43.504Z</time></trkpt><trkpt lat="45.7578861" lon="9.0515718"><ele>301.0</ele><time>2026-04-04T13:16:44.504Z</time></trkpt><trkpt lat="45.7579897" lon="9.0516113"><ele>301.0</ele><time>2026-04-04T13:16:45.504Z</time></trkpt><trkpt lat="45.7580846" lon="9.0516444"><ele>301.16666666666663</ele><time>2026-04-04T13:16:46.504Z</time></trkpt><trkpt lat="45.7581727" lon="9.0516744"><ele>301.3333333333333</ele><time>2026-04-04T13:16:47.504Z</time></trkpt><trkpt lat="45.7582542" lon="9.0517039"><ele>301.5</ele><time>2026-04-04T13:16:48.504Z</time></trkpt><trkpt lat="45.7583352" lon="9.0517337"><ele>301.6666666666667</ele><time>2026-04-04T13:16:49.503Z</time></trkpt><trkpt lat="45.7584111" lon="9.051762"><ele>301.83333333333337</ele><time>2026-04-04T13:16:50.504Z</time></trkpt><trkpt lat="45.75848" lon="9.0517879"><ele>302.0</ele><time>2026-04-04T13:16:51.503Z</time></trkpt><trkpt lat="45.7585433" lon="9.0518182"><ele>302.14285714285717</ele><time>2026-04-04T13:16:52.504Z</time></trkpt><trkpt lat="45.7585994" lon="9.0518633"><ele>302.2857142857143</ele><time>2026-04-04T13:16:53.503Z</time></trkpt><trkpt lat="45.7586515" lon="9.0519261"><ele>302.42857142857144</ele><time>2026-04-04T13:16:54.504Z</time></trkpt><trkpt lat="45.7586954" lon="9.052004"><ele>302.57142857142856</ele><time>2026-04-04T13:16:55.504Z</time></trkpt><trkpt lat="45.758735" lon="9.0520778"><ele>302.7142857142857</ele><time>2026-04-04T13:16:56.504Z</time></trkpt><trkpt lat="45.7587787" lon="9.0521432"><ele>302.8571428571429</ele><time>2026-04-04T13:16:57.504Z</time></trkpt><trkpt lat="45.7588918" lon="9.0521937"><ele>303.0</ele><time>2026-04-04T13:16:59.503Z</time></trkpt><trkpt lat="45.7590033" lon="9.052119"><ele>303.0</ele><time>2026-04-04T13:17:01.504Z</time></trkpt><trkpt lat="45.7590491" lon="9.0520513"><ele>303.0</ele><time>2026-04-04T13:17:02.504Z</time></trkpt><trkpt lat="45.7591602" lon="9.0519599"><ele>303.0</ele><time>2026-04-04T13:17:04.504Z</time></trkpt><trkpt lat="45.7592345" lon="9.0519413"><ele>303.0</ele><time>2026-04-04T13:17:05.504Z</time></trkpt><trkpt lat="45.7593172" lon="9.0519433"><ele>303.0</ele><time>2026-04-04T13:17:06.504Z</time></trkpt><trkpt lat="45.7594096" lon="9.0519516"><ele>303.0</ele><time>2026-04-04T13:17:07.504Z</time></trkpt><trkpt lat="45.7595002" lon="9.0519552"><ele>303.0</ele><time>2026-04-04T13:17:08.503Z</time></trkpt><trkpt lat="45.759598" lon="9.0519625"><ele>303.0</ele><time>2026-04-04T13:17:09.502Z</time></trkpt><trkpt lat="45.7596998" lon="9.0519739"><ele>303.0</ele><time>2026-04-04T13:17:10.503Z</time></trkpt><trkpt lat="45.7598089" lon="9.0519874"><ele>303.0</ele><time>2026-04-04T13:17:11.502Z</time></trkpt><trkpt lat="45.7599192" lon="9.0520098"><ele>303.0</ele><time>2026-04-04T13:17:12.503Z</time></trkpt><trkpt lat="45.7600286" lon="9.0520522"><ele>303.0</ele><time>2026-04-04T13:17:13.503Z</time></trkpt><trkpt lat="45.760135" lon="9.0521125"><ele>303.0</ele><time>2026-04-04T13:17:14.503Z</time></trkpt><trkpt lat="45.7602364" lon="9.0521849"><ele>303.0</ele><time>2026-04-04T13:17:15.503Z</time></trkpt><trkpt lat="45.7603352" lon="9.0522719"><ele>303.0</ele><time>2026-04-04T13:17:16.503Z</time></trkpt><trkpt lat="45.7604286" lon="9.0523685"><ele>302.5</ele><time>2026-04-04T13:17:17.503Z</time></trkpt><trkpt lat="45.7605171" lon="9.052472"><ele>302.0</ele><time>2026-04-04T13:17:18.502Z</time></trkpt><trkpt lat="45.7606059" lon="9.0525774"><ele>301.5</ele><time>2026-04-04T13:17:19.503Z</time></trkpt><trkpt lat="45.7606931" lon="9.0526893"><ele>301.0</ele><time>2026-04-04T13:17:20.502Z</time></trkpt><trkpt lat="45.7607799" lon="9.0528003"><ele>301.0</ele><time>2026-04-04T13:17:21.503Z</time></trkpt><trkpt lat="45.7608681" lon="9.0529097"><ele>301.0</ele><time>2026-04-04T13:17:22.502Z</time></trkpt><trkpt lat="45.7609503" lon="9.0530171"><ele>301.0</ele><time>2026-04-04T13:17:23.503Z</time></trkpt><trkpt lat="45.7610315" lon="9.0531197"><ele>301.0</ele><time>2026-04-04T13:17:24.503Z</time></trkpt><trkpt lat="45.7611143" lon="9.0532195"><ele>301.0</ele><time>2026-04-04T13:17:25.503Z</time></trkpt><trkpt lat="45.7612024" lon="9.0533268"><ele>301.0</ele><time>2026-04-04T13:17:26.503Z</time></trkpt><trkpt lat="45.7612916" lon="9.0534388"><ele>301.0</ele><time>2026-04-04T13:17:27.503Z</time></trkpt><trkpt lat="45.7613852" lon="9.0535567"><ele>301.0</ele><time>2026-04-04T13:17:28.502Z</time></trkpt><trkpt lat="45.7614846" lon="9.0536814"><ele>301.0</ele><time>2026-04-04T13:17:29.503Z</time></trkpt><trkpt lat="45.7615879" lon="9.0538077"><ele>301.0</ele><time>2026-04-04T13:17:30.503Z</time></trkpt><trkpt lat="45.7616821" lon="9.0539248"><ele>301.0</ele><time>2026-04-04T13:17:31.503Z</time></trkpt><trkpt lat="45.7617725" lon="9.05404"><ele>301.0</ele><time>2026-04-04T13:17:32.503Z</time></trkpt><trkpt lat="45.7618608" lon="9.0541517"><ele>301.0</ele><time>2026-04-04T13:17:33.503Z</time></trkpt><trkpt lat="45.7619479" lon="9.0542609"><ele>301.40000000000003</ele><time>2026-04-04T13:17:34.502Z</time></trkpt><trkpt lat="45.7620359" lon="9.0543693"><ele>301.8</ele><time>2026-04-04T13:17:35.503Z</time></trkpt><trkpt lat="45.7621229" lon="9.0544732"><ele>302.20000000000005</ele><time>2026-04-04T13:17:36.503Z</time></trkpt><trkpt lat="45.7622007" lon="9.0545725"><ele>302.6</ele><time>2026-04-04T13:17:37.503Z</time></trkpt><trkpt lat="45.7622739" lon="9.0546658"><ele>303.0</ele><time>2026-04-04T13:17:38.503Z</time></trkpt><trkpt lat="45.7623378" lon="9.0547468"><ele>303.0</ele><time>2026-04-04T13:17:39.503Z</time></trkpt><trkpt lat="45.7623893" lon="9.0548165"><ele>303.0</ele><time>2026-04-04T13:17:40.503Z</time></trkpt><trkpt lat="45.762425" lon="9.0548932"><ele>303.0</ele><time>2026-04-04T13:17:41.503Z</time></trkpt><trkpt lat="45.7624515" lon="9.055025"><ele>303.0</ele><time>2026-04-04T13:17:43.503Z</time></trkpt><trkpt lat="45.762483" lon="9.055136"><ele>303.0</ele><time>2026-04-04T13:17:46.503Z</time></trkpt><trkpt lat="45.7625395" lon="9.055184"><ele>303.0</ele><time>2026-04-04T13:23:18.503Z</time></trkpt><trkpt lat="45.7626055" lon="9.055201"><ele>303.0</ele><time>2026-04-04T13:23:20.503Z</time></trkpt><trkpt lat="45.7627107" lon="9.0552817"><ele>303.0</ele><time>2026-04-04T13:23:22.503Z</time></trkpt><trkpt lat="45.7627698" lon="9.0553187"><ele>303.0</ele><time>2026-04-04T13:23:23.502Z</time></trkpt><trkpt lat="45.7628432" lon="9.0553744"><ele>303.0</ele><time>2026-04-04T13:23:24.503Z</time></trkpt><trkpt lat="45.7629258" lon="9.0554514"><ele>303.0</ele><time>2026-04-04T13:23:25.503Z</time></trkpt><trkpt lat="45.7630101" lon="9.0555556"><ele>303.0</ele><time>2026-04-04T13:23:26.503Z</time></trkpt><trkpt lat="45.7630906" lon="9.0556657"><ele>303.0</ele><time>2026-04-04T13:23:27.502Z</time></trkpt><trkpt lat="45.763171" lon="9.0557793"><ele>303.0</ele><time>2026-04-04T13:23:28.503Z</time></trkpt><trkpt lat="45.763254" lon="9.055893"><ele>303.0</ele><time>2026-04-04T13:23:29.503Z</time></trkpt><trkpt lat="45.7633398" lon="9.0560047"><ele>303.0</ele><time>2026-04-04T13:23:30.503Z</time></trkpt><trkpt lat="45.7634286" lon="9.0561055"><ele>303.0</ele><time>2026-04-04T13:23:31.502Z</time></trkpt><trkpt lat="45.7635188" lon="9.0562012"><ele>303.0</ele><time>2026-04-04T13:23:32.503Z</time></trkpt><trkpt lat="45.7636087" lon="9.0562985"><ele>303.0</ele><time>2026-04-04T13:23:33.503Z</time></trkpt><trkpt lat="45.7636975" lon="9.0563995"><ele>303.0</ele><time>2026-04-04T13:23:34.503Z</time></trkpt><trkpt lat="45.7637857" lon="9.0565005"><ele>302.75</ele><time>2026-04-04T13:23:35.503Z</time></trkpt><trkpt lat="45.7638728" lon="9.0565896"><ele>302.5</ele><time>2026-04-04T13:23:36.503Z</time></trkpt><trkpt lat="45.7639761" lon="9.0566776"><ele>302.25</ele><time>2026-04-04T13:23:37.503Z</time></trkpt><trkpt lat="45.7640912" lon="9.0567661"><ele>302.0</ele><time>2026-04-04T13:23:38.503Z</time></trkpt><trkpt lat="45.7642178" lon="9.0568674"><ele>302.0</ele><time>2026-04-04T13:23:39.503Z</time></trkpt><trkpt lat="45.7643584" lon="9.0569766"><ele>302.0</ele><time>2026-04-04T13:23:40.503Z</time></trkpt><trkpt lat="45.7644972" lon="9.0570855"><ele>302.0</ele><time>2026-04-04T13:23:41.503Z</time></trkpt><trkpt lat="45.7646453" lon="9.0571973"><ele>301.6666666666667</ele><time>2026-04-04T13:23:42.502Z</time></trkpt><trkpt lat="45.7647989" lon="9.0573055"><ele>301.3333333333333</ele><time>2026-04-04T13:23:43.503Z</time></trkpt><trkpt lat="45.7649548" lon="9.0574158"><ele>301.0</ele><time>2026-04-04T13:23:44.503Z</time></trkpt><trkpt lat="45.7651116" lon="9.0575263"><ele>301.66666666666663</ele><time>2026-04-04T13:23:45.503Z</time></trkpt><trkpt lat="45.7652661" lon="9.057633"><ele>302.3333333333333</ele><time>2026-04-04T13:23:46.503Z</time></trkpt><trkpt lat="45.7654172" lon="9.057741"><ele>303.0</ele><time>2026-04-04T13:23:47.503Z</time></trkpt><trkpt lat="45.7655658" lon="9.057847"><ele>303.0</ele><time>2026-04-04T13:23:48.503Z</time></trkpt><trkpt lat="45.7657115" lon="9.0579471"><ele>303.0</ele><time>2026-04-04T13:23:49.503Z</time></trkpt><trkpt lat="45.7658543" lon="9.0580464"><ele>303.0</ele><time>2026-04-04T13:23:50.503Z</time></trkpt><trkpt lat="45.7659934" lon="9.0581493"><ele>303.3333333333333</ele><time>2026-04-04T13:23:51.503Z</time></trkpt><trkpt lat="45.7661357" lon="9.0582529"><ele>303.66666666666663</ele><time>2026-04-04T13:23:52.503Z</time></trkpt><trkpt lat="45.7662798" lon="9.0583532"><ele>304.0</ele><time>2026-04-04T13:23:53.503Z</time></trkpt><trkpt lat="45.7664222" lon="9.0584539"><ele>304.0</ele><time>2026-04-04T13:23:54.503Z</time></trkpt><trkpt lat="45.7665626" lon="9.0585549"><ele>304.0</ele><time>2026-04-04T13:23:55.503Z</time></trkpt><trkpt lat="45.7667007" lon="9.0586531"><ele>304.0</ele><time>2026-04-04T13:23:56.503Z</time></trkpt><trkpt lat="45.7668356" lon="9.0587539"><ele>304.0</ele><time>2026-04-04T13:23:57.503Z</time></trkpt><trkpt lat="45.7669644" lon="9.0588598"><ele>304.0</ele><time>2026-04-04T13:23:58.503Z</time></trkpt><trkpt lat="45.7670846" lon="9.0589707"><ele>304.0</ele><time>2026-04-04T13:23:59.503Z</time></trkpt><trkpt lat="45.7671989" lon="9.0590874"><ele>304.0</ele><time>2026-04-04T13:24:00.503Z</time></trkpt><trkpt lat="45.7673089" lon="9.0592064"><ele>303.75</ele><time>2026-04-04T13:24:01.503Z</time></trkpt><trkpt lat="45.7674214" lon="9.0593292"><ele>303.5</ele><time>2026-04-04T13:24:02.502Z</time></trkpt><trkpt lat="45.7675342" lon="9.0594526"><ele>303.25</ele><time>2026-04-04T13:24:03.503Z</time></trkpt><trkpt lat="45.7676525" lon="9.0595747"><ele>303.0</ele><time>2026-04-04T13:24:04.501Z</time></trkpt><trkpt lat="45.7677842" lon="9.0596794"><ele>304.0</ele><time>2026-04-04T13:24:05.503Z</time></trkpt><trkpt lat="45.7679267" lon="9.0597646"><ele>305.0</ele><time>2026-04-04T13:24:06.503Z</time></trkpt><trkpt lat="45.7680775" lon="9.0598331"><ele>306.0</ele><time>2026-04-04T13:24:07.503Z</time></trkpt><trkpt lat="45.7682324" lon="9.059895"><ele>305.6666666666667</ele><time>2026-04-04T13:24:08.503Z</time></trkpt><trkpt lat="45.7683906" lon="9.0599545"><ele>305.33333333333337</ele><time>2026-04-04T13:24:09.503Z</time></trkpt><trkpt lat="45.7685453" lon="9.0600161"><ele>305.0</ele><time>2026-04-04T13:24:10.503Z</time></trkpt><trkpt lat="45.7687" lon="9.0600862"><ele>304.6666666666667</ele><time>2026-04-04T13:24:11.503Z</time></trkpt><trkpt lat="45.7688506" lon="9.0601676"><ele>304.3333333333333</ele><time>2026-04-04T13:24:12.503Z</time></trkpt><trkpt lat="45.7689955" lon="9.0602605"><ele>304.0</ele><time>2026-04-04T13:24:13.503Z</time></trkpt><trkpt lat="45.7691352" lon="9.0603557"><ele>304.0</ele><time>2026-04-04T13:24:14.503Z</time></trkpt><trkpt lat="45.7692723" lon="9.0604487"><ele>304.0</ele><time>2026-04-04T13:24:15.503Z</time></trkpt><trkpt lat="45.7694055" lon="9.0605407"><ele>304.0</ele><time>2026-04-04T13:24:16.503Z</time></trkpt><trkpt lat="45.7695364" lon="9.0606318"><ele>304.0</ele><time>2026-04-04T13:24:17.503Z</time></trkpt><trkpt lat="45.7696679" lon="9.0607202"><ele>304.75</ele><time>2026-04-04T13:24:18.503Z</time></trkpt><trkpt lat="45.7697989" lon="9.0608032"><ele>305.5</ele><time>2026-04-04T13:24:19.502Z</time></trkpt><trkpt lat="45.7699265" lon="9.0608811"><ele>306.25</ele><time>2026-04-04T13:24:20.503Z</time></trkpt><trkpt lat="45.7700463" lon="9.0609539"><ele>307.0</ele><time>2026-04-04T13:24:21.503Z</time></trkpt><trkpt lat="45.7701582" lon="9.061025"><ele>306.6</ele><time>2026-04-04T13:24:22.503Z</time></trkpt><trkpt lat="45.7702619" lon="9.061095"><ele>306.2</ele><time>2026-04-04T13:24:23.502Z</time></trkpt><trkpt lat="45.7703434" lon="9.0611519"><ele>305.8</ele><time>2026-04-04T13:24:24.501Z</time></trkpt><trkpt lat="45.7704116" lon="9.0611987"><ele>305.4</ele><time>2026-04-04T13:24:25.501Z</time></trkpt><trkpt lat="45.7704692" lon="9.0612377"><ele>305.0</ele><time>2026-04-04T13:24:26.502Z</time></trkpt><trkpt lat="45.7705741" lon="9.0613124"><ele>305.0</ele><time>2026-04-04T13:24:28.502Z</time></trkpt><trkpt lat="45.7706845" lon="9.0613927"><ele>305.0</ele><time>2026-04-04T13:24:30.502Z</time></trkpt><trkpt lat="45.7707435" lon="9.0614338"><ele>305.0</ele><time>2026-04-04T13:24:31.502Z</time></trkpt><trkpt lat="45.7708051" lon="9.0614719"><ele>305.0</ele><time>2026-04-04T13:24:32.501Z</time></trkpt><trkpt lat="45.7708635" lon="9.0615073"><ele>305.0</ele><time>2026-04-04T13:24:33.502Z</time></trkpt><trkpt lat="45.770966" lon="9.0615838"><ele>305.0</ele><time>2026-04-04T13:24:35.502Z</time></trkpt><trkpt lat="45.7710788" lon="9.0616636"><ele>305.4</ele><time>2026-04-04T13:24:37.502Z</time></trkpt><trkpt lat="45.7711527" lon="9.06172"><ele>305.8</ele><time>2026-04-04T13:24:38.502Z</time></trkpt><trkpt lat="45.7712353" lon="9.0618024"><ele>306.2</ele><time>2026-04-04T13:24:39.502Z</time></trkpt><trkpt lat="45.7713241" lon="9.0619129"><ele>306.6</ele><time>2026-04-04T13:24:40.502Z</time></trkpt><trkpt lat="45.7714053" lon="9.0620329"><ele>307.0</ele><time>2026-04-04T13:24:41.502Z</time></trkpt><trkpt lat="45.7714842" lon="9.062166"><ele>307.0</ele><time>2026-04-04T13:24:42.502Z</time></trkpt><trkpt lat="45.7715644" lon="9.0622978"><ele>307.0</ele><time>2026-04-04T13:24:43.502Z</time></trkpt><trkpt lat="45.7716381" lon="9.0624171"><ele>307.0</ele><time>2026-04-04T13:24:44.502Z</time></trkpt><trkpt lat="45.7717082" lon="9.0625318"><ele>307.0</ele><time>2026-04-04T13:24:45.501Z</time></trkpt><trkpt lat="45.771774" lon="9.0626394"><ele>307.0</ele><time>2026-04-04T13:24:46.502Z</time></trkpt><trkpt lat="45.7718357" lon="9.0627441"><ele>310.8</ele><time>2026-04-04T13:24:47.502Z</time></trkpt><trkpt lat="45.7718942" lon="9.0628458"><ele>314.6</ele><time>2026-04-04T13:24:48.502Z</time></trkpt><trkpt lat="45.7719521" lon="9.0629413"><ele>318.40000000000003</ele><time>2026-04-04T13:24:49.502Z</time></trkpt><trkpt lat="45.7720068" lon="9.0630395"><ele>322.2</ele><time>2026-04-04T13:24:50.502Z</time></trkpt><trkpt lat="45.7720671" lon="9.0631533"><ele>326.0</ele><time>2026-04-04T13:24:51.502Z</time></trkpt><trkpt lat="45.7721356" lon="9.0632636"><ele>325.83333333333337</ele><time>2026-04-04T13:24:52.501Z</time></trkpt><trkpt lat="45.7722041" lon="9.0633809"><ele>325.6666666666667</ele><time>2026-04-04T13:24:53.502Z</time></trkpt><trkpt lat="45.7722661" lon="9.0634874"><ele>325.5</ele><time>2026-04-04T13:24:54.502Z</time></trkpt><trkpt lat="45.7723206" lon="9.0635702"><ele>325.3333333333333</ele><time>2026-04-04T13:24:55.501Z</time></trkpt><trkpt lat="45.7723691" lon="9.0636442"><ele>325.16666666666663</ele><time>2026-04-04T13:24:56.502Z</time></trkpt><trkpt lat="45.7724136" lon="9.0637124"><ele>325.0</ele><time>2026-04-04T13:24:57.502Z</time></trkpt><trkpt lat="45.7724913" lon="9.0638541"><ele>325.0</ele><time>2026-04-04T13:24:59.502Z</time></trkpt><trkpt lat="45.7725246" lon="9.0639348"><ele>325.0</ele><time>2026-04-04T13:25:00.502Z</time></trkpt><trkpt lat="45.7725599" lon="9.0640199"><ele>325.0</ele><time>2026-04-04T13:25:01.502Z</time></trkpt><trkpt lat="45.7726095" lon="9.0640942"><ele>325.0</ele><time>2026-04-04T13:25:02.502Z</time></trkpt><trkpt lat="45.7726777" lon="9.0641553"><ele>325.0</ele><time>2026-04-04T13:25:03.5Z</time></trkpt><trkpt lat="45.7727642" lon="9.0642041"><ele>325.0</ele><time>2026-04-04T13:25:04.502Z</time></trkpt><trkpt lat="45.7728634" lon="9.0642401"><ele>325.0</ele><time>2026-04-04T13:25:05.502Z</time></trkpt><trkpt lat="45.7729613" lon="9.0642785"><ele>325.0</ele><time>2026-04-04T13:25:06.502Z</time></trkpt><trkpt lat="45.7730662" lon="9.0643086"><ele>325.0</ele><time>2026-04-04T13:25:07.501Z</time></trkpt><trkpt lat="45.7731741" lon="9.0643333"><ele>325.0</ele><time>2026-04-04T13:25:08.502Z</time></trkpt><trkpt lat="45.7732837" lon="9.0643567"><ele>325.0</ele><time>2026-04-04T13:25:09.502Z</time></trkpt><trkpt lat="45.7733976" lon="9.0643758"><ele>325.0</ele><time>2026-04-04T13:25:10.502Z</time></trkpt><trkpt lat="45.773519" lon="9.0643921"><ele>325.0</ele><time>2026-04-04T13:25:11.502Z</time></trkpt><trkpt lat="45.7736533" lon="9.0644057"><ele>325.0</ele><time>2026-04-04T13:25:12.502Z</time></trkpt><trkpt lat="45.7737755" lon="9.0644174"><ele>325.0</ele><time>2026-04-04T13:25:13.502Z</time></trkpt><trkpt lat="45.7738943" lon="9.0644275"><ele>326.75</ele><time>2026-04-04T13:25:14.502Z</time></trkpt><trkpt lat="45.7740098" lon="9.0644385"><ele>328.5</ele><time>2026-04-04T13:25:15.502Z</time></trkpt><trkpt lat="45.7741229" lon="9.0644514"><ele>330.25</ele><time>2026-04-04T13:25:16.502Z</time></trkpt><trkpt lat="45.7742375" lon="9.0644657"><ele>332.0</ele><time>2026-04-04T13:25:17.502Z</time></trkpt><trkpt lat="45.7743547" lon="9.0644787"><ele>333.0</ele><time>2026-04-04T13:25:18.502Z</time></trkpt><trkpt lat="45.7744701" lon="9.0644887"><ele>334.0</ele><time>2026-04-04T13:25:19.502Z</time></trkpt><trkpt lat="45.7745866" lon="9.0644993"><ele>335.0</ele><time>2026-04-04T13:25:20.502Z</time></trkpt><trkpt lat="45.7747084" lon="9.0645122"><ele>336.0</ele><time>2026-04-04T13:25:21.501Z</time></trkpt><trkpt lat="45.7748318" lon="9.0645266"><ele>336.0</ele><time>2026-04-04T13:25:22.502Z</time></trkpt><trkpt lat="45.7749563" lon="9.0645425"><ele>336.0</ele><time>2026-04-04T13:25:23.502Z</time></trkpt><trkpt lat="45.7750781" lon="9.0645646"><ele>336.0</ele><time>2026-04-04T13:25:24.502Z</time></trkpt><trkpt lat="45.7751993" lon="9.0645979"><ele>336.0</ele><time>2026-04-04T13:25:25.502Z</time></trkpt><trkpt lat="45.7753189" lon="9.064639"><ele>335.6</ele><time>2026-04-04T13:25:26.502Z</time></trkpt><trkpt lat="45.775426" lon="9.0646787"><ele>335.20000000000005</ele><time>2026-04-04T13:25:27.502Z</time></trkpt><trkpt lat="45.7755158" lon="9.0647157"><ele>334.79999999999995</ele><time>2026-04-04T13:25:28.502Z</time></trkpt><trkpt lat="45.775589" lon="9.0647473"><ele>334.4</ele><time>2026-04-04T13:25:29.502Z</time></trkpt><trkpt lat="45.7756935" lon="9.0647945"><ele>334.0</ele><time>2026-04-04T13:25:31.502Z</time></trkpt><trkpt lat="45.7757633" lon="9.0648279"><ele>334.0</ele><time>2026-04-04T13:25:34.502Z</time></trkpt><trkpt lat="45.77583" lon="9.064865"><ele>334.0</ele><time>2026-04-04T13:25:57.502Z</time></trkpt><trkpt lat="45.775899" lon="9.0648917"><ele>334.0</ele><time>2026-04-04T13:25:58.502Z</time></trkpt><trkpt lat="45.7759642" lon="9.0649229"><ele>334.0</ele><time>2026-04-04T13:25:59.502Z</time></trkpt><trkpt lat="45.7760301" lon="9.0649517"><ele>334.0</ele><time>2026-04-04T13:26:00.501Z</time></trkpt><trkpt lat="45.7760999" lon="9.0649836"><ele>334.0</ele><time>2026-04-04T13:26:01.502Z</time></trkpt><trkpt lat="45.776185" lon="9.0650217"><ele>334.0</ele><time>2026-04-04T13:26:02.502Z</time></trkpt><trkpt lat="45.7762818" lon="9.0650645"><ele>332.5</ele><time>2026-04-04T13:26:03.502Z</time></trkpt><trkpt lat="45.7763878" lon="9.0651179"><ele>331.0</ele><time>2026-04-04T13:26:04.502Z</time></trkpt><trkpt lat="45.7764977" lon="9.0651765"><ele>329.5</ele><time>2026-04-04T13:26:05.501Z</time></trkpt><trkpt lat="45.7766152" lon="9.0652425"><ele>328.0</ele><time>2026-04-04T13:26:06.502Z</time></trkpt><trkpt lat="45.7767386" lon="9.0653213"><ele>327.25</ele><time>2026-04-04T13:26:07.502Z</time></trkpt><trkpt lat="45.7768667" lon="9.0654058"><ele>326.5</ele><time>2026-04-04T13:26:08.502Z</time></trkpt><trkpt lat="45.7769962" lon="9.0654939"><ele>325.75</ele><time>2026-04-04T13:26:09.502Z</time></trkpt><trkpt lat="45.7771226" lon="9.065582"><ele>325.0</ele><time>2026-04-04T13:26:10.502Z</time></trkpt><trkpt lat="45.7772564" lon="9.0656705"><ele>325.0</ele><time>2026-04-04T13:26:11.486Z</time></trkpt><trkpt lat="45.7773759" lon="9.0657563"><ele>325.0</ele><time>2026-04-04T13:26:12.487Z</time></trkpt><trkpt lat="45.777499" lon="9.0658444"><ele>325.0</ele><time>2026-04-04T13:26:13.486Z</time></trkpt><trkpt lat="45.7776229" lon="9.0659328"><ele>325.0</ele><time>2026-04-04T13:26:14.484Z</time></trkpt><trkpt lat="45.7777256" lon="9.0660055"><ele>323.4</ele><time>2026-04-04T13:26:15.486Z</time></trkpt><trkpt lat="45.7778259" lon="9.0660798"><ele>321.8</ele><time>2026-04-04T13:26:16.501Z</time></trkpt><trkpt lat="45.7779164" lon="9.0661525"><ele>320.2</ele><time>2026-04-04T13:26:17.502Z</time></trkpt><trkpt lat="45.7779844" lon="9.066215"><ele>318.6</ele><time>2026-04-04T13:26:18.502Z</time></trkpt><trkpt lat="45.7780488" lon="9.0662833"><ele>317.0</ele><time>2026-04-04T13:26:19.502Z</time></trkpt><trkpt lat="45.7781053" lon="9.0663583"><ele>317.0</ele><time>2026-04-04T13:26:20.502Z</time></trkpt><trkpt lat="45.7781532" lon="9.0664525"><ele>317.0</ele><time>2026-04-04T13:26:21.502Z</time></trkpt><trkpt lat="45.7781955" lon="9.0665591"><ele>317.0</ele><time>2026-04-04T13:26:22.502Z</time></trkpt><trkpt lat="45.7782336" lon="9.0666441"><ele>317.0</ele><time>2026-04-04T13:26:23.502Z</time></trkpt><trkpt lat="45.7782835" lon="9.0667078"><ele>317.0</ele><time>2026-04-04T13:26:24.502Z</time></trkpt><trkpt lat="45.7783452" lon="9.066734"><ele>317.0</ele><time>2026-04-04T13:26:25.501Z</time></trkpt><trkpt lat="45.778411" lon="9.0667154"><ele>317.0</ele><time>2026-04-04T13:26:26.502Z</time></trkpt><trkpt lat="45.7784636" lon="9.066656"><ele>317.0</ele><time>2026-04-04T13:26:27.502Z</time></trkpt><trkpt lat="45.7784922" lon="9.066571"><ele>317.0</ele><time>2026-04-04T13:26:28.502Z</time></trkpt><trkpt lat="45.7784982" lon="9.0664724"><ele>317.0</ele><time>2026-04-04T13:26:29.501Z</time></trkpt><trkpt lat="45.7785036" lon="9.0663607"><ele>317.0</ele><time>2026-04-04T13:26:30.502Z</time></trkpt><trkpt lat="45.7785132" lon="9.0662605"><ele>317.0</ele><time>2026-04-04T13:26:31.502Z</time></trkpt><trkpt lat="45.7785281" lon="9.0661625"><ele>317.0</ele><time>2026-04-04T13:26:32.502Z</time></trkpt><trkpt lat="45.7785538" lon="9.0660536"><ele>317.0</ele><time>2026-04-04T13:26:33.502Z</time></trkpt><trkpt lat="45.7785793" lon="9.0659401"><ele>315.4</ele><time>2026-04-04T13:26:34.502Z</time></trkpt><trkpt lat="45.7786016" lon="9.0658056"><ele>313.79999999999995</ele><time>2026-04-04T13:26:35.502Z</time></trkpt><trkpt lat="45.7786193" lon="9.0656647"><ele>312.2</ele><time>2026-04-04T13:26:36.501Z</time></trkpt><trkpt lat="45.7786359" lon="9.0655175"><ele>310.59999999999997</ele><time>2026-04-04T13:26:37.502Z</time></trkpt><trkpt lat="45.7786581" lon="9.0653503"><ele>309.0</ele><time>2026-04-04T13:26:38.502Z</time></trkpt><trkpt lat="45.7786842" lon="9.0651985"><ele>309.0</ele><time>2026-04-04T13:26:39.502Z</time></trkpt><trkpt lat="45.7787184" lon="9.0650349"><ele>309.0</ele><time>2026-04-04T13:26:40.502Z</time></trkpt><trkpt lat="45.7787626" lon="9.0648669"><ele>309.0</ele><time>2026-04-04T13:26:41.502Z</time></trkpt><trkpt lat="45.7788142" lon="9.0646983"><ele>309.0</ele><time>2026-04-04T13:26:42.502Z</time></trkpt><trkpt lat="45.778879" lon="9.0645208"><ele>309.5</ele><time>2026-04-04T13:26:43.501Z</time></trkpt><trkpt lat="45.7789453" lon="9.064362"><ele>310.0</ele><time>2026-04-04T13:26:44.502Z</time></trkpt><trkpt lat="45.7790236" lon="9.0641911"><ele>310.5</ele><time>2026-04-04T13:26:45.501Z</time></trkpt><trkpt lat="45.779115" lon="9.0640116"><ele>311.0</ele><time>2026-04-04T13:26:46.501Z</time></trkpt><trkpt lat="45.7792011" lon="9.0638556"><ele>311.5</ele><time>2026-04-04T13:26:47.501Z</time></trkpt><trkpt lat="45.7792957" lon="9.0636919"><ele>312.0</ele><time>2026-04-04T13:26:48.502Z</time></trkpt><trkpt lat="45.7793955" lon="9.0635219"><ele>312.5</ele><time>2026-04-04T13:26:49.502Z</time></trkpt><trkpt lat="45.7794832" lon="9.0633711"><ele>313.0</ele><time>2026-04-04T13:26:50.501Z</time></trkpt><trkpt lat="45.7795788" lon="9.0632052"><ele>313.0</ele><time>2026-04-04T13:26:51.502Z</time></trkpt><trkpt lat="45.7796757" lon="9.0630413"><ele>313.0</ele><time>2026-04-04T13:26:52.502Z</time></trkpt><trkpt lat="45.7797769" lon="9.0628749"><ele>313.0</ele><time>2026-04-04T13:26:53.502Z</time></trkpt><trkpt lat="45.7798884" lon="9.0627069"><ele>313.0</ele><time>2026-04-04T13:26:54.502Z</time></trkpt><trkpt lat="45.7799959" lon="9.0625658"><ele>313.0</ele><time>2026-04-04T13:26:55.501Z</time></trkpt><trkpt lat="45.7801157" lon="9.0624194"><ele>313.0</ele><time>2026-04-04T13:26:56.502Z</time></trkpt><trkpt lat="45.7802321" lon="9.0622699"><ele>313.25</ele><time>2026-04-04T13:26:57.502Z</time></trkpt><trkpt lat="45.7803391" lon="9.06211"><ele>313.5</ele><time>2026-04-04T13:26:58.502Z</time></trkpt><trkpt lat="45.7804321" lon="9.0619429"><ele>313.75</ele><time>2026-04-04T13:26:59.502Z</time></trkpt><trkpt lat="45.7805114" lon="9.0617716"><ele>314.0</ele><time>2026-04-04T13:27:00.501Z</time></trkpt><trkpt lat="45.7805773" lon="9.0615981"><ele>314.5</ele><time>2026-04-04T13:27:01.502Z</time></trkpt><trkpt lat="45.7806304" lon="9.0614212"><ele>315.0</ele><time>2026-04-04T13:27:02.502Z</time></trkpt><trkpt lat="45.7806654" lon="9.0612705"><ele>315.5</ele><time>2026-04-04T13:27:03.502Z</time></trkpt><trkpt lat="45.7806938" lon="9.0611171"><ele>316.0</ele><time>2026-04-04T13:27:04.502Z</time></trkpt><trkpt lat="45.7807149" lon="9.0609602"><ele>316.0</ele><time>2026-04-04T13:27:05.502Z</time></trkpt><trkpt lat="45.7807255" lon="9.0608273"><ele>316.0</ele><time>2026-04-04T13:27:06.502Z</time></trkpt><trkpt lat="45.7807326" lon="9.0606885"><ele>316.0</ele><time>2026-04-04T13:27:07.501Z</time></trkpt><trkpt lat="45.7807505" lon="9.0605556"><ele>316.0</ele><time>2026-04-04T13:27:08.502Z</time></trkpt><trkpt lat="45.7807898" lon="9.0604334"><ele>316.0</ele><time>2026-04-04T13:27:09.502Z</time></trkpt><trkpt lat="45.7808545" lon="9.0603106"><ele>315.8</ele><time>2026-04-04T13:27:10.502Z</time></trkpt><trkpt lat="45.7809233" lon="9.0602043"><ele>315.6</ele><time>2026-04-04T13:27:11.501Z</time></trkpt><trkpt lat="45.7810066" lon="9.0601109"><ele>315.4</ele><time>2026-04-04T13:27:12.502Z</time></trkpt><trkpt lat="45.7811033" lon="9.0600462"><ele>315.2</ele><time>2026-04-04T13:27:13.501Z</time></trkpt><trkpt lat="45.7812004" lon="9.0600026"><ele>315.0</ele><time>2026-04-04T13:27:14.501Z</time></trkpt><trkpt lat="45.7812959" lon="9.0599661"><ele>314.6</ele><time>2026-04-04T13:27:15.502Z</time></trkpt><trkpt lat="45.7813932" lon="9.0599272"><ele>314.2</ele><time>2026-04-04T13:27:16.501Z</time></trkpt><trkpt lat="45.781495" lon="9.0598852"><ele>313.8</ele><time>2026-04-04T13:27:17.502Z</time></trkpt><trkpt lat="45.7816072" lon="9.0598397"><ele>313.4</ele><time>2026-04-04T13:27:18.501Z</time></trkpt><trkpt lat="45.7817107" lon="9.059797"><ele>313.0</ele><time>2026-04-04T13:27:19.502Z</time></trkpt><trkpt lat="45.7818237" lon="9.0597492"><ele>312.5</ele><time>2026-04-04T13:27:20.502Z</time></trkpt><trkpt lat="45.7819459" lon="9.0596965"><ele>312.0</ele><time>2026-04-04T13:27:21.502Z</time></trkpt><trkpt lat="45.7820563" lon="9.0596486"><ele>311.5</ele><time>2026-04-04T13:27:22.502Z</time></trkpt><trkpt lat="45.7821747" lon="9.0595976"><ele>311.0</ele><time>2026-04-04T13:27:23.501Z</time></trkpt><trkpt lat="45.7822953" lon="9.0595472"><ele>311.0</ele><time>2026-04-04T13:27:24.502Z</time></trkpt><trkpt lat="45.7824176" lon="9.0594969"><ele>311.0</ele><time>2026-04-04T13:27:25.501Z</time></trkpt><trkpt lat="45.7825471" lon="9.0594424"><ele>311.0</ele><time>2026-04-04T13:27:26.502Z</time></trkpt><trkpt lat="45.7826547" lon="9.0593963"><ele>311.0</ele><time>2026-04-04T13:27:27.502Z</time></trkpt><trkpt lat="45.7827649" lon="9.0593483"><ele>310.8</ele><time>2026-04-04T13:27:28.502Z</time></trkpt><trkpt lat="45.7828713" lon="9.0593018"><ele>310.6</ele><time>2026-04-04T13:27:29.501Z</time></trkpt><trkpt lat="45.7829726" lon="9.0592577"><ele>310.4</ele><time>2026-04-04T13:27:30.502Z</time></trkpt><trkpt lat="45.7830722" lon="9.059217"><ele>310.2</ele><time>2026-04-04T13:27:31.502Z</time></trkpt><trkpt lat="45.7831698" lon="9.0591907"><ele>310.0</ele><time>2026-04-04T13:27:32.502Z</time></trkpt><trkpt lat="45.7832625" lon="9.0591918"><ele>310.0</ele><time>2026-04-04T13:27:33.502Z</time></trkpt><trkpt lat="45.7833511" lon="9.0592247"><ele>310.0</ele><time>2026-04-04T13:27:34.501Z</time></trkpt><trkpt lat="45.783422" lon="9.0592671"><ele>310.0</ele><time>2026-04-04T13:27:35.502Z</time></trkpt><trkpt lat="45.7834954" lon="9.0593243"><ele>310.0</ele><time>2026-04-04T13:27:36.502Z</time></trkpt><trkpt lat="45.7835716" lon="9.0593979"><ele>310.0</ele><time>2026-04-04T13:27:37.502Z</time></trkpt><trkpt lat="45.7836406" lon="9.0594739"><ele>310.0</ele><time>2026-04-04T13:27:38.502Z</time></trkpt><trkpt lat="45.7837159" lon="9.0595727"><ele>310.4</ele><time>2026-04-04T13:27:39.501Z</time></trkpt><trkpt lat="45.783776" lon="9.0596787"><ele>310.8</ele><time>2026-04-04T13:27:40.502Z</time></trkpt><trkpt lat="45.7838284" lon="9.0598094"><ele>311.2</ele><time>2026-04-04T13:27:41.502Z</time></trkpt><trkpt lat="45.783868" lon="9.0599657"><ele>311.6</ele><time>2026-04-04T13:27:42.502Z</time></trkpt><trkpt lat="45.7838871" lon="9.0601158"><ele>312.0</ele><time>2026-04-04T13:27:43.502Z</time></trkpt><trkpt lat="45.7838966" lon="9.0602932"><ele>312.5</ele><time>2026-04-04T13:27:44.502Z</time></trkpt><trkpt lat="45.7839015" lon="9.0604905"><ele>313.0</ele><time>2026-04-04T13:27:45.501Z</time></trkpt><trkpt lat="45.7839036" lon="9.060706"><ele>313.5</ele><time>2026-04-04T13:27:46.502Z</time></trkpt><trkpt lat="45.7839028" lon="9.0609267"><ele>314.0</ele><time>2026-04-04T13:27:47.502Z</time></trkpt><trkpt lat="45.7839015" lon="9.0611518"><ele>314.33333333333337</ele><time>2026-04-04T13:27:48.502Z</time></trkpt><trkpt lat="45.7838997" lon="9.0613799"><ele>314.6666666666667</ele><time>2026-04-04T13:27:49.502Z</time></trkpt><trkpt lat="45.7838997" lon="9.0616226"><ele>315.0</ele><time>2026-04-04T13:27:50.502Z</time></trkpt><trkpt lat="45.7839002" lon="9.0618387"><ele>314.6666666666667</ele><time>2026-04-04T13:27:51.501Z</time></trkpt><trkpt lat="45.7838999" lon="9.0620664"><ele>314.33333333333337</ele><time>2026-04-04T13:27:52.502Z</time></trkpt><trkpt lat="45.7839001" lon="9.0622991"><ele>314.0</ele><time>2026-04-04T13:27:53.502Z</time></trkpt><trkpt lat="45.7839008" lon="9.0624998"><ele>314.0</ele><time>2026-04-04T13:27:54.502Z</time></trkpt><trkpt lat="45.7839018" lon="9.0627068"><ele>314.0</ele><time>2026-04-04T13:27:55.502Z</time></trkpt><trkpt lat="45.7839032" lon="9.0629093"><ele>314.0</ele><time>2026-04-04T13:27:56.502Z</time></trkpt><trkpt lat="45.7839048" lon="9.0631023"><ele>314.0</ele><time>2026-04-04T13:27:57.502Z</time></trkpt><trkpt lat="45.7839079" lon="9.0632988"><ele>312.4</ele><time>2026-04-04T13:27:58.501Z</time></trkpt><trkpt lat="45.7839109" lon="9.0634642"><ele>310.79999999999995</ele><time>2026-04-04T13:27:59.501Z</time></trkpt><trkpt lat="45.7839138" lon="9.0636319"><ele>309.20000000000005</ele><time>2026-04-04T13:28:00.502Z</time></trkpt><trkpt lat="45.7839102" lon="9.0637857"><ele>307.6</ele><time>2026-04-04T13:28:01.502Z</time></trkpt><trkpt lat="45.7839046" lon="9.0639216"><ele>306.0</ele><time>2026-04-04T13:28:02.502Z</time></trkpt><trkpt lat="45.7839111" lon="9.0640325"><ele>306.0</ele><time>2026-04-04T13:28:03.502Z</time></trkpt><trkpt lat="45.7839783" lon="9.064136"><ele>306.0</ele><time>2026-04-04T13:28:05.502Z</time></trkpt><trkpt lat="45.7841014" lon="9.0641135"><ele>306.0</ele><time>2026-04-04T13:28:07.501Z</time></trkpt><trkpt lat="45.784179" lon="9.0641096"><ele>306.0</ele><time>2026-04-04T13:28:08.502Z</time></trkpt><trkpt lat="45.7842719" lon="9.0641394"><ele>306.0</ele><time>2026-04-04T13:28:09.502Z</time></trkpt><trkpt lat="45.7843555" lon="9.0641887"><ele>305.8333333333333</ele><time>2026-04-04T13:28:10.502Z</time></trkpt><trkpt lat="45.7844403" lon="9.064261"><ele>305.6666666666667</ele><time>2026-04-04T13:28:11.502Z</time></trkpt><trkpt lat="45.7845074" lon="9.0643401"><ele>305.5</ele><time>2026-04-04T13:28:12.502Z</time></trkpt><trkpt lat="45.7845692" lon="9.0644293"><ele>305.33333333333337</ele><time>2026-04-04T13:28:13.502Z</time></trkpt><trkpt lat="45.7846462" lon="9.0645094"><ele>305.1666666666667</ele><time>2026-04-04T13:28:14.502Z</time></trkpt><trkpt lat="45.7847121" lon="9.0645403"><ele>305.0</ele><time>2026-04-04T13:28:15.502Z</time></trkpt><trkpt lat="45.7847864" lon="9.0645672"><ele>305.0</ele><time>2026-04-04T13:28:16.502Z</time></trkpt><trkpt lat="45.7848642" lon="9.0645947"><ele>305.0</ele><time>2026-04-04T13:28:17.501Z</time></trkpt><trkpt lat="45.784953" lon="9.0645951"><ele>305.0</ele><time>2026-04-04T13:28:18.501Z</time></trkpt><trkpt lat="45.7850546" lon="9.0645607"><ele>305.0</ele><time>2026-04-04T13:28:19.502Z</time></trkpt><trkpt lat="45.7851703" lon="9.0645033"><ele>305.0</ele><time>2026-04-04T13:28:20.502Z</time></trkpt><trkpt lat="45.7852926" lon="9.0644405"><ele>305.5</ele><time>2026-04-04T13:28:21.502Z</time></trkpt><trkpt lat="45.785428" lon="9.0643718"><ele>306.0</ele><time>2026-04-04T13:28:22.502Z</time></trkpt><trkpt lat="45.7855497" lon="9.064326"><ele>306.5</ele><time>2026-04-04T13:28:23.501Z</time></trkpt><trkpt lat="45.7856884" lon="9.0642982"><ele>307.0</ele><time>2026-04-04T13:28:24.501Z</time></trkpt><trkpt lat="45.7858449" lon="9.0642891"><ele>307.0</ele><time>2026-04-04T13:28:25.502Z</time></trkpt><trkpt lat="45.7859862" lon="9.0642924"><ele>307.0</ele><time>2026-04-04T13:28:26.502Z</time></trkpt><trkpt lat="45.7861341" lon="9.0642941"><ele>307.0</ele><time>2026-04-04T13:28:27.502Z</time></trkpt><trkpt lat="45.7862834" lon="9.0643"><ele>307.0</ele><time>2026-04-04T13:28:28.502Z</time></trkpt><trkpt lat="45.7864333" lon="9.0643093"><ele>308.0</ele><time>2026-04-04T13:28:29.502Z</time></trkpt><trkpt lat="45.7865926" lon="9.0643318"><ele>309.0</ele><time>2026-04-04T13:28:30.502Z</time></trkpt><trkpt lat="45.7867341" lon="9.0643598"><ele>310.0</ele><time>2026-04-04T13:28:31.502Z</time></trkpt><trkpt lat="45.7868867" lon="9.064394"><ele>313.5</ele><time>2026-04-04T13:28:32.502Z</time></trkpt><trkpt lat="45.7870392" lon="9.0644309"><ele>317.0</ele><time>2026-04-04T13:28:33.502Z</time></trkpt><trkpt lat="45.7871882" lon="9.0644769"><ele>320.5</ele><time>2026-04-04T13:28:34.501Z</time></trkpt><trkpt lat="45.7873207" lon="9.0645439"><ele>324.0</ele><time>2026-04-04T13:28:35.502Z</time></trkpt><trkpt lat="45.7874144" lon="9.06462"><ele>324.0</ele><time>2026-04-04T13:28:36.502Z</time></trkpt><trkpt lat="45.7874939" lon="9.0647136"><ele>324.0</ele><time>2026-04-04T13:28:37.502Z</time></trkpt><trkpt lat="45.7875568" lon="9.0648147"><ele>324.0</ele><time>2026-04-04T13:28:38.502Z</time></trkpt><trkpt lat="45.7875983" lon="9.0649025"><ele>324.0</ele><time>2026-04-04T13:28:39.502Z</time></trkpt><trkpt lat="45.7876323" lon="9.0649819"><ele>324.0</ele><time>2026-04-04T13:28:40.502Z</time></trkpt><trkpt lat="45.7876937" lon="9.0650551"><ele>324.0</ele><time>2026-04-04T13:28:42.501Z</time></trkpt><trkpt lat="45.7877462" lon="9.0649955"><ele>324.6</ele><time>2026-04-04T13:28:44.501Z</time></trkpt><trkpt lat="45.7878586" lon="9.06494"><ele>325.2</ele><time>2026-04-04T13:28:46.501Z</time></trkpt><trkpt lat="45.7879374" lon="9.0649452"><ele>325.8</ele><time>2026-04-04T13:28:47.502Z</time></trkpt><trkpt lat="45.7880312" lon="9.0649602"><ele>326.40000000000003</ele><time>2026-04-04T13:28:48.502Z</time></trkpt><trkpt lat="45.7881399" lon="9.0649763"><ele>327.0</ele><time>2026-04-04T13:28:49.501Z</time></trkpt><trkpt lat="45.7882677" lon="9.0649982"><ele>325.8333333333333</ele><time>2026-04-04T13:28:50.502Z</time></trkpt><trkpt lat="45.7883752" lon="9.065015"><ele>324.6666666666667</ele><time>2026-04-04T13:28:51.502Z</time></trkpt><trkpt lat="45.7884668" lon="9.0650293"><ele>323.5</ele><time>2026-04-04T13:28:52.502Z</time></trkpt><trkpt lat="45.7885432" lon="9.0650405"><ele>322.33333333333337</ele><time>2026-04-04T13:28:53.502Z</time></trkpt><trkpt lat="45.7886171" lon="9.0650503"><ele>321.1666666666667</ele><time>2026-04-04T13:28:55.502Z</time></trkpt><trkpt lat="45.7886874" lon="9.0650443"><ele>320.0</ele><time>2026-04-04T13:28:57.501Z</time></trkpt><trkpt lat="45.7887533" lon="9.065009"><ele>319.83333333333337</ele><time>2026-04-04T13:28:58.502Z</time></trkpt><trkpt lat="45.7888245" lon="9.064972"><ele>319.6666666666667</ele><time>2026-04-04T13:28:59.501Z</time></trkpt><trkpt lat="45.7888873" lon="9.064943"><ele>319.5</ele><time>2026-04-04T13:29:00.501Z</time></trkpt><trkpt lat="45.7889473" lon="9.0649138"><ele>319.3333333333333</ele><time>2026-04-04T13:29:01.502Z</time></trkpt><trkpt lat="45.7890548" lon="9.0648593"><ele>319.16666666666663</ele><time>2026-04-04T13:29:03.502Z</time></trkpt><trkpt lat="45.7891354" lon="9.0648041"><ele>319.0</ele><time>2026-04-04T13:29:05.501Z</time></trkpt><trkpt lat="45.7892193" lon="9.0647475"><ele>319.3333333333333</ele><time>2026-04-04T13:29:07.502Z</time></trkpt><trkpt lat="45.7893482" lon="9.0646901"><ele>319.66666666666663</ele><time>2026-04-04T13:29:09.502Z</time></trkpt><trkpt lat="45.7894181" lon="9.0646535"><ele>320.0</ele><time>2026-04-04T13:29:10.502Z</time></trkpt><trkpt lat="45.789491" lon="9.0646258"><ele>320.3333333333333</ele><time>2026-04-04T13:29:11.502Z</time></trkpt><trkpt lat="45.7895667" lon="9.0646125"><ele>320.6666666666667</ele><time>2026-04-04T13:29:12.502Z</time></trkpt><trkpt lat="45.7896422" lon="9.0646074"><ele>321.0</ele><time>2026-04-04T13:29:13.502Z</time></trkpt><trkpt lat="45.7897184" lon="9.0646056"><ele>320.99999999999994</ele><time>2026-04-04T13:29:14.502Z</time></trkpt><trkpt lat="45.7897893" lon="9.0645983"><ele>321.0</ele><time>2026-04-04T13:29:15.502Z</time></trkpt><trkpt lat="45.7898594" lon="9.0645864"><ele>321.0</ele><time>2026-04-04T13:29:16.502Z</time></trkpt><trkpt lat="45.7899306" lon="9.064572"><ele>321.0</ele><time>2026-04-04T13:29:17.501Z</time></trkpt><trkpt lat="45.7899931" lon="9.0645342"><ele>321.0</ele><time>2026-04-04T13:29:18.502Z</time></trkpt><trkpt lat="45.790053" lon="9.0644868"><ele>320.99999999999994</ele><time>2026-04-04T13:29:19.502Z</time></trkpt><trkpt lat="45.790113" lon="9.0644442"><ele>321.0</ele><time>2026-04-04T13:29:20.502Z</time></trkpt><trkpt lat="45.7901911" lon="9.0643951"><ele>321.20000000000005</ele><time>2026-04-04T13:29:22.502Z</time></trkpt><trkpt lat="45.7902457" lon="9.0642814"><ele>321.40000000000003</ele><time>2026-04-04T13:29:29.502Z</time></trkpt><trkpt lat="45.790211" lon="9.064165"><ele>321.6</ele><time>2026-04-04T13:29:31.502Z</time></trkpt><trkpt lat="45.7901613" lon="9.0640382"><ele>321.8</ele><time>2026-04-04T13:29:33.501Z</time></trkpt><trkpt lat="45.7901674" lon="9.063888"><ele>322.0</ele><time>2026-04-04T13:29:35.502Z</time></trkpt><trkpt lat="45.7902005" lon="9.063707"><ele>322.0</ele><time>2026-04-04T13:29:37.502Z</time></trkpt><trkpt lat="45.7902199" lon="9.0635904"><ele>322.0</ele><time>2026-04-04T13:29:38.502Z</time></trkpt><trkpt lat="45.7902315" lon="9.063461"><ele>322.0</ele><time>2026-04-04T13:29:39.502Z</time></trkpt><trkpt lat="45.7902317" lon="9.0633167"><ele>322.0</ele><time>2026-04-04T13:29:40.502Z</time></trkpt><trkpt lat="45.7902304" lon="9.0631618"><ele>322.0</ele><time>2026-04-04T13:29:41.502Z</time></trkpt><trkpt lat="45.790225" lon="9.0629943"><ele>322.0</ele><time>2026-04-04T13:29:42.502Z</time></trkpt><trkpt lat="45.7902127" lon="9.0628214"><ele>322.0</ele><time>2026-04-04T13:29:43.502Z</time></trkpt><trkpt lat="45.790197" lon="9.062637"><ele>322.0</ele><time>2026-04-04T13:29:44.502Z</time></trkpt><trkpt lat="45.7901757" lon="9.0624456"><ele>322.0</ele><time>2026-04-04T13:29:45.502Z</time></trkpt><trkpt lat="45.7901508" lon="9.0622558"><ele>321.75</ele><time>2026-04-04T13:29:46.502Z</time></trkpt><trkpt lat="45.7901212" lon="9.0620626"><ele>321.5</ele><time>2026-04-04T13:29:47.502Z</time></trkpt><trkpt lat="45.7900913" lon="9.0618672"><ele>321.25</ele><time>2026-04-04T13:29:48.502Z</time></trkpt><trkpt lat="45.7900585" lon="9.061678"><ele>321.0</ele><time>2026-04-04T13:29:49.502Z</time></trkpt><trkpt lat="45.7900242" lon="9.0614938"><ele>321.0</ele><time>2026-04-04T13:29:50.501Z</time></trkpt><trkpt lat="45.7899883" lon="9.0613154"><ele>321.0</ele><time>2026-04-04T13:29:51.501Z</time></trkpt><trkpt lat="45.7899565" lon="9.061148"><ele>321.0</ele><time>2026-04-04T13:29:52.501Z</time></trkpt><trkpt lat="45.7899232" lon="9.060982"><ele>321.0</ele><time>2026-04-04T13:29:53.502Z</time></trkpt><trkpt lat="45.7898893" lon="9.0608134"><ele>320.8</ele><time>2026-04-04T13:29:54.502Z</time></trkpt><trkpt lat="45.7898564" lon="9.0606544"><ele>320.6</ele><time>2026-04-04T13:29:55.502Z</time></trkpt><trkpt lat="45.7898251" lon="9.0604985"><ele>320.4</ele><time>2026-04-04T13:29:56.501Z</time></trkpt><trkpt lat="45.7897984" lon="9.0603439"><ele>320.2</ele><time>2026-04-04T13:29:57.502Z</time></trkpt><trkpt lat="45.7897782" lon="9.06019"><ele>320.0</ele><time>2026-04-04T13:29:58.502Z</time></trkpt><trkpt lat="45.7897677" lon="9.0600471"><ele>320.8</ele><time>2026-04-04T13:29:59.502Z</time></trkpt><trkpt lat="45.7897693" lon="9.0599125"><ele>321.6</ele><time>2026-04-04T13:30:00.502Z</time></trkpt><trkpt lat="45.7897825" lon="9.0597869"><ele>322.4</ele><time>2026-04-04T13:30:01.502Z</time></trkpt><trkpt lat="45.7898018" lon="9.0596846"><ele>323.2</ele><time>2026-04-04T13:30:02.502Z</time></trkpt><trkpt lat="45.7898525" lon="9.0595638"><ele>324.0</ele><time>2026-04-04T13:30:04.502Z</time></trkpt><trkpt lat="45.7899561" lon="9.059506"><ele>324.0</ele><time>2026-04-04T13:30:06.501Z</time></trkpt><trkpt lat="45.7900373" lon="9.0594996"><ele>324.0</ele><time>2026-04-04T13:30:07.501Z</time></trkpt><trkpt lat="45.7901274" lon="9.0594918"><ele>324.0</ele><time>2026-04-04T13:30:08.501Z</time></trkpt><trkpt lat="45.7902361" lon="9.059485"><ele>324.0</ele><time>2026-04-04T13:30:09.501Z</time></trkpt><trkpt lat="45.790363" lon="9.0594753"><ele>324.0</ele><time>2026-04-04T13:30:10.501Z</time></trkpt><trkpt lat="45.7904967" lon="9.0594612"><ele>324.6666666666667</ele><time>2026-04-04T13:30:11.501Z</time></trkpt><trkpt lat="45.7906467" lon="9.0594426"><ele>325.33333333333337</ele><time>2026-04-04T13:30:12.501Z</time></trkpt><trkpt lat="45.7908066" lon="9.0594035"><ele>326.0</ele><time>2026-04-04T13:30:13.501Z</time></trkpt><trkpt lat="45.7909743" lon="9.0593442"><ele>326.33333333333337</ele><time>2026-04-04T13:30:14.501Z</time></trkpt><trkpt lat="45.7911359" lon="9.0592682"><ele>326.6666666666667</ele><time>2026-04-04T13:30:15.501Z</time></trkpt><trkpt lat="45.791302" lon="9.0591801"><ele>327.0</ele><time>2026-04-04T13:30:16.501Z</time></trkpt><trkpt lat="45.7914701" lon="9.0590888"><ele>329.6666666666667</ele><time>2026-04-04T13:30:17.5Z</time></trkpt><trkpt lat="45.7916382" lon="9.058996"><ele>332.33333333333337</ele><time>2026-04-04T13:30:18.501Z</time></trkpt><trkpt lat="45.7918019" lon="9.0589048"><ele>335.0</ele><time>2026-04-04T13:30:19.501Z</time></trkpt><trkpt lat="45.7919644" lon="9.0588147"><ele>336.33333333333337</ele><time>2026-04-04T13:30:20.501Z</time></trkpt><trkpt lat="45.7921239" lon="9.0587258"><ele>337.6666666666667</ele><time>2026-04-04T13:30:21.501Z</time></trkpt><trkpt lat="45.792279" lon="9.0586375"><ele>339.0</ele><time>2026-04-04T13:30:22.501Z</time></trkpt><trkpt lat="45.7924298" lon="9.0585537"><ele>339.0</ele><time>2026-04-04T13:30:23.501Z</time></trkpt><trkpt lat="45.7925783" lon="9.0584712"><ele>339.0</ele><time>2026-04-04T13:30:24.501Z</time></trkpt><trkpt lat="45.7927257" lon="9.0583887"><ele>339.0</ele><time>2026-04-04T13:30:25.502Z</time></trkpt><trkpt lat="45.7928716" lon="9.0583158"><ele>343.3333333333333</ele><time>2026-04-04T13:30:26.501Z</time></trkpt><trkpt lat="45.7930214" lon="9.0582621"><ele>347.66666666666663</ele><time>2026-04-04T13:30:27.5Z</time></trkpt><trkpt lat="45.7931744" lon="9.0582262"><ele>352.0</ele><time>2026-04-04T13:30:28.501Z</time></trkpt><trkpt lat="45.7933249" lon="9.05821"><ele>352.0</ele><time>2026-04-04T13:30:29.501Z</time></trkpt><trkpt lat="45.7934731" lon="9.058221"><ele>352.0</ele><time>2026-04-04T13:30:30.501Z</time></trkpt><trkpt lat="45.7936153" lon="9.0582461"><ele>352.0</ele><time>2026-04-04T13:30:31.5Z</time></trkpt><trkpt lat="45.7937568" lon="9.058274"><ele>352.0</ele><time>2026-04-04T13:30:32.501Z</time></trkpt><trkpt lat="45.7939017" lon="9.0583102"><ele>351.75</ele><time>2026-04-04T13:30:33.501Z</time></trkpt><trkpt lat="45.7940445" lon="9.0583456"><ele>351.5</ele><time>2026-04-04T13:30:34.501Z</time></trkpt><trkpt lat="45.7941834" lon="9.0583818"><ele>351.25</ele><time>2026-04-04T13:30:35.501Z</time></trkpt><trkpt lat="45.7943228" lon="9.0584159"><ele>351.0</ele><time>2026-04-04T13:30:36.5Z</time></trkpt><trkpt lat="45.7944614" lon="9.0584475"><ele>351.0</ele><time>2026-04-04T13:30:37.501Z</time></trkpt><trkpt lat="45.7946016" lon="9.0584849"><ele>351.0</ele><time>2026-04-04T13:30:38.501Z</time></trkpt><trkpt lat="45.794734" lon="9.0585146"><ele>351.0</ele><time>2026-04-04T13:30:39.501Z</time></trkpt><trkpt lat="45.7948607" lon="9.0585285"><ele>351.0</ele><time>2026-04-04T13:30:40.501Z</time></trkpt><trkpt lat="45.7949803" lon="9.0585285"><ele>351.0</ele><time>2026-04-04T13:30:41.501Z</time></trkpt><trkpt lat="45.7950975" lon="9.0585189"><ele>351.0</ele><time>2026-04-04T13:30:42.501Z</time></trkpt><trkpt lat="45.7952034" lon="9.0585024"><ele>351.0</ele><time>2026-04-04T13:30:43.501Z</time></trkpt><trkpt lat="45.7953009" lon="9.0584838"><ele>351.0</ele><time>2026-04-04T13:30:44.501Z</time></trkpt><trkpt lat="45.7953913" lon="9.0584666"><ele>351.0</ele><time>2026-04-04T13:30:45.501Z</time></trkpt><trkpt lat="45.7954786" lon="9.05845"><ele>351.1666666666667</ele><time>2026-04-04T13:30:46.5Z</time></trkpt><trkpt lat="45.7955644" lon="9.058433"><ele>351.3333333333333</ele><time>2026-04-04T13:30:47.501Z</time></trkpt><trkpt lat="45.795648" lon="9.0584155"><ele>351.5</ele><time>2026-04-04T13:30:48.5Z</time></trkpt><trkpt lat="45.79573" lon="9.0583994"><ele>351.66666666666663</ele><time>2026-04-04T13:30:49.5Z</time></trkpt><trkpt lat="45.7958118" lon="9.0583846"><ele>351.8333333333333</ele><time>2026-04-04T13:30:50.501Z</time></trkpt><trkpt lat="45.7958945" lon="9.0583715"><ele>352.0</ele><time>2026-04-04T13:30:51.501Z</time></trkpt><trkpt lat="45.7959776" lon="9.0583602"><ele>351.7142857142857</ele><time>2026-04-04T13:30:52.501Z</time></trkpt><trkpt lat="45.796057" lon="9.0583475"><ele>351.42857142857144</ele><time>2026-04-04T13:30:53.501Z</time></trkpt><trkpt lat="45.7961329" lon="9.0583387"><ele>351.1428571428571</ele><time>2026-04-04T13:30:54.501Z</time></trkpt><trkpt lat="45.7962065" lon="9.0583369"><ele>350.8571428571429</ele><time>2026-04-04T13:30:55.501Z</time></trkpt><trkpt lat="45.7962776" lon="9.05834"><ele>350.57142857142856</ele><time>2026-04-04T13:30:56.501Z</time></trkpt><trkpt lat="45.7963444" lon="9.0583464"><ele>350.2857142857143</ele><time>2026-04-04T13:30:57.501Z</time></trkpt><trkpt lat="45.7964132" lon="9.0583566"><ele>350.0</ele><time>2026-04-04T13:30:58.502Z</time></trkpt><trkpt lat="45.7964841" lon="9.0583701"><ele>350.0</ele><time>2026-04-04T13:30:59.501Z</time></trkpt><trkpt lat="45.7965578" lon="9.0583844"><ele>350.0</ele><time>2026-04-04T13:31:00.501Z</time></trkpt><trkpt lat="45.7966355" lon="9.0584062"><ele>350.0</ele><time>2026-04-04T13:31:01.501Z</time></trkpt><trkpt lat="45.7967177" lon="9.0584381"><ele>350.0</ele><time>2026-04-04T13:31:02.502Z</time></trkpt><trkpt lat="45.7967934" lon="9.0584719"><ele>350.0</ele><time>2026-04-04T13:31:03.501Z</time></trkpt><trkpt lat="45.7968588" lon="9.0585023"><ele>350.0</ele><time>2026-04-04T13:31:04.501Z</time></trkpt><trkpt lat="45.7969538" lon="9.0585422"><ele>350.0</ele><time>2026-04-04T13:31:06.5Z</time></trkpt><trkpt lat="45.7970153" lon="9.0585698"><ele>350.0</ele><time>2026-04-04T13:31:08.501Z</time></trkpt><trkpt lat="45.7970987" lon="9.0586054"><ele>350.0</ele><time>2026-04-04T13:31:11.501Z</time></trkpt><trkpt lat="45.7972305" lon="9.0586513"><ele>350.0</ele><time>2026-04-04T13:31:13.501Z</time></trkpt><trkpt lat="45.7973088" lon="9.0586816"><ele>350.0</ele><time>2026-04-04T13:31:14.501Z</time></trkpt><trkpt lat="45.7973991" lon="9.058715"><ele>350.0</ele><time>2026-04-04T13:31:15.501Z</time></trkpt><trkpt lat="45.7975023" lon="9.0587607"><ele>350.0</ele><time>2026-04-04T13:31:16.501Z</time></trkpt><trkpt lat="45.7976206" lon="9.0588117"><ele>350.0</ele><time>2026-04-04T13:31:17.501Z</time></trkpt><trkpt lat="45.797765" lon="9.0588753"><ele>350.0</ele><time>2026-04-04T13:31:18.501Z</time></trkpt><trkpt lat="45.7979177" lon="9.0589349"><ele>350.6666666666667</ele><time>2026-04-04T13:31:19.501Z</time></trkpt><trkpt lat="45.7980697" lon="9.0590035"><ele>351.3333333333333</ele><time>2026-04-04T13:31:20.5Z</time></trkpt><trkpt lat="45.7982329" lon="9.0590652"><ele>352.0</ele><time>2026-04-04T13:31:21.501Z</time></trkpt><trkpt lat="45.7983949" lon="9.0591116"><ele>353.66666666666663</ele><time>2026-04-04T13:31:22.5Z</time></trkpt><trkpt lat="45.7985634" lon="9.0591303"><ele>355.3333333333333</ele><time>2026-04-04T13:31:23.501Z</time></trkpt><trkpt lat="45.7987413" lon="9.0591237"><ele>357.0</ele><time>2026-04-04T13:31:24.501Z</time></trkpt><trkpt lat="45.7989261" lon="9.0591073"><ele>357.0</ele><time>2026-04-04T13:31:25.501Z</time></trkpt><trkpt lat="45.7990954" lon="9.0590915"><ele>357.0</ele><time>2026-04-04T13:31:26.501Z</time></trkpt><trkpt lat="45.7992608" lon="9.059076"><ele>357.0</ele><time>2026-04-04T13:31:27.501Z</time></trkpt><trkpt lat="45.7994221" lon="9.059063"><ele>358.6666666666667</ele><time>2026-04-04T13:31:28.5Z</time></trkpt><trkpt lat="45.7995813" lon="9.0590567"><ele>360.33333333333337</ele><time>2026-04-04T13:31:29.501Z</time></trkpt><trkpt lat="45.7997409" lon="9.0590562"><ele>362.0</ele><time>2026-04-04T13:31:30.501Z</time></trkpt><trkpt lat="45.7998981" lon="9.059066"><ele>362.0</ele><time>2026-04-04T13:31:31.501Z</time></trkpt><trkpt lat="45.8000551" lon="9.0590879"><ele>362.0</ele><time>2026-04-04T13:31:32.501Z</time></trkpt><trkpt lat="45.8002094" lon="9.059112"><ele>362.0</ele><time>2026-04-04T13:31:33.501Z</time></trkpt><trkpt lat="45.8003572" lon="9.0591314"><ele>363.40000000000003</ele><time>2026-04-04T13:31:34.5Z</time></trkpt><trkpt lat="45.8004933" lon="9.0591426"><ele>364.8</ele><time>2026-04-04T13:31:35.501Z</time></trkpt><trkpt lat="45.8006157" lon="9.0591483"><ele>366.2</ele><time>2026-04-04T13:31:36.501Z</time></trkpt><trkpt lat="45.8007092" lon="9.059154"><ele>367.6</ele><time>2026-04-04T13:31:37.501Z</time></trkpt><trkpt lat="45.800793" lon="9.0592001"><ele>369.0</ele><time>2026-04-04T13:31:39.5Z</time></trkpt><trkpt lat="45.8008038" lon="9.0592946"><ele>369.0</ele><time>2026-04-04T13:31:41.501Z</time></trkpt><trkpt lat="45.8007491" lon="9.0594096"><ele>369.0</ele><time>2026-04-04T13:31:43.501Z</time></trkpt><trkpt lat="45.8007092" lon="9.0594816"><ele>369.0</ele><time>2026-04-04T13:31:44.5Z</time></trkpt><trkpt lat="45.8006683" lon="9.0595613"><ele>369.0</ele><time>2026-04-04T13:31:45.501Z</time></trkpt><trkpt lat="45.8006315" lon="9.0596545"><ele>369.0</ele><time>2026-04-04T13:31:46.501Z</time></trkpt><trkpt lat="45.8005918" lon="9.059758"><ele>369.0</ele><time>2026-04-04T13:31:47.501Z</time></trkpt><trkpt lat="45.8005599" lon="9.0598691"><ele>370.3333333333333</ele><time>2026-04-04T13:31:48.501Z</time></trkpt><trkpt lat="45.800538" lon="9.0599728"><ele>371.6666666666667</ele><time>2026-04-04T13:31:49.501Z</time></trkpt><trkpt lat="45.8005267" lon="9.0600796"><ele>373.0</ele><time>2026-04-04T13:31:50.5Z</time></trkpt><trkpt lat="45.8005254" lon="9.0601946"><ele>374.33333333333337</ele><time>2026-04-04T13:31:51.5Z</time></trkpt><trkpt lat="45.8005406" lon="9.0603246"><ele>375.6666666666667</ele><time>2026-04-04T13:31:52.501Z</time></trkpt><trkpt lat="45.8005666" lon="9.0604702"><ele>377.0</ele><time>2026-04-04T13:31:53.501Z</time></trkpt><trkpt lat="45.8005896" lon="9.0605973"><ele>377.0</ele><time>2026-04-04T13:31:54.501Z</time></trkpt><trkpt lat="45.8006073" lon="9.0607016"><ele>377.0</ele><time>2026-04-04T13:31:55.501Z</time></trkpt><trkpt lat="45.8006608" lon="9.0608421"><ele>377.0</ele><time>2026-04-04T13:31:57.501Z</time></trkpt><trkpt lat="45.800746" lon="9.0608804"><ele>377.0</ele><time>2026-04-04T13:31:59.501Z</time></trkpt><trkpt lat="45.8008545" lon="9.0608266"><ele>377.0</ele><time>2026-04-04T13:32:01.501Z</time></trkpt><trkpt lat="45.8009332" lon="9.0607737"><ele>377.6666666666667</ele><time>2026-04-04T13:32:02.501Z</time></trkpt><trkpt lat="45.8010119" lon="9.0607225"><ele>378.33333333333337</ele><time>2026-04-04T13:32:03.501Z</time></trkpt><trkpt lat="45.8010943" lon="9.0606728"><ele>379.0</ele><time>2026-04-04T13:32:04.501Z</time></trkpt><trkpt lat="45.8011717" lon="9.0606253"><ele>379.6666666666667</ele><time>2026-04-04T13:32:05.501Z</time></trkpt><trkpt lat="45.8012489" lon="9.0605878"><ele>380.3333333333333</ele><time>2026-04-04T13:32:06.501Z</time></trkpt><trkpt lat="45.8013321" lon="9.0605757"><ele>381.0</ele><time>2026-04-04T13:32:07.5Z</time></trkpt><trkpt lat="45.8014225" lon="9.0605678"><ele>381.0</ele><time>2026-04-04T13:32:08.501Z</time></trkpt><trkpt lat="45.801518" lon="9.0605579"><ele>381.0</ele><time>2026-04-04T13:32:09.501Z</time></trkpt><trkpt lat="45.801611" lon="9.0605421"><ele>381.0</ele><time>2026-04-04T13:32:10.5Z</time></trkpt><trkpt lat="45.8016921" lon="9.06051"><ele>381.0</ele><time>2026-04-04T13:32:11.501Z</time></trkpt><trkpt lat="45.801768" lon="9.0604505"><ele>381.0</ele><time>2026-04-04T13:32:12.5Z</time></trkpt><trkpt lat="45.8018452" lon="9.0603644"><ele>381.5</ele><time>2026-04-04T13:32:13.501Z</time></trkpt><trkpt lat="45.8019159" lon="9.0602769"><ele>382.0</ele><time>2026-04-04T13:32:14.502Z</time></trkpt><trkpt lat="45.8019864" lon="9.0602155"><ele>382.5</ele><time>2026-04-04T13:32:15.501Z</time></trkpt><trkpt lat="45.8020496" lon="9.0601799"><ele>383.0</ele><time>2026-04-04T13:32:16.501Z</time></trkpt><trkpt lat="45.802122" lon="9.0601653"><ele>383.5</ele><time>2026-04-04T13:32:17.5Z</time></trkpt><trkpt lat="45.8022094" lon="9.0601649"><ele>384.0</ele><time>2026-04-04T13:32:18.501Z</time></trkpt><trkpt lat="45.8022944" lon="9.0601729"><ele>383.99999999999994</ele><time>2026-04-04T13:32:19.501Z</time></trkpt><trkpt lat="45.8023679" lon="9.0601787"><ele>384.0</ele><time>2026-04-04T13:32:20.501Z</time></trkpt><trkpt lat="45.8024359" lon="9.0601838"><ele>384.0</ele><time>2026-04-04T13:32:21.501Z</time></trkpt><trkpt lat="45.8025068" lon="9.0601809"><ele>384.0</ele><time>2026-04-04T13:32:22.501Z</time></trkpt><trkpt lat="45.8025724" lon="9.0601509"><ele>384.0</ele><time>2026-04-04T13:32:23.501Z</time></trkpt><trkpt lat="45.802632" lon="9.0601018"><ele>383.99999999999994</ele><time>2026-04-04T13:32:24.501Z</time></trkpt><trkpt lat="45.8027045" lon="9.0600068"><ele>384.0</ele><time>2026-04-04T13:32:26.501Z</time></trkpt><trkpt lat="45.8027755" lon="9.0599885"><ele>388.0</ele><time>2026-04-04T13:32:29.5Z</time></trkpt><trkpt lat="45.802839" lon="9.0601004"><ele>392.0</ele><time>2026-04-04T13:32:49.501Z</time></trkpt><trkpt lat="45.8029017" lon="9.0602577"><ele>396.0</ele><time>2026-04-04T13:32:51.501Z</time></trkpt><trkpt lat="45.8029457" lon="9.060325"><ele>400.0</ele><time>2026-04-04T13:32:52.501Z</time></trkpt><trkpt lat="45.8029921" lon="9.0603957"><ele>404.0</ele><time>2026-04-04T13:32:53.501Z</time></trkpt><trkpt lat="45.8030361" lon="9.0604705"><ele>408.0</ele><time>2026-04-04T13:32:54.501Z</time></trkpt><trkpt lat="45.8030903" lon="9.0606197"><ele>408.0</ele><time>2026-04-04T13:32:56.501Z</time></trkpt><trkpt lat="45.8031227" lon="9.0607482"><ele>408.0</ele><time>2026-04-04T13:32:58.501Z</time></trkpt><trkpt lat="45.8031354" lon="9.0608489"><ele>408.0</ele><time>2026-04-04T13:33:16.501Z</time></trkpt><trkpt lat="45.8030957" lon="9.060937"><ele>408.0</ele><time>2026-04-04T13:43:21.499Z</time></trkpt><trkpt lat="45.8030145" lon="9.061068"><ele>408.0</ele><time>2026-04-04T13:43:23.499Z</time></trkpt><trkpt lat="45.8029705" lon="9.0611347"><ele>408.0</ele><time>2026-04-04T13:43:24.499Z</time></trkpt><trkpt lat="45.8029131" lon="9.0612518"><ele>409.2</ele><time>2026-04-04T13:43:26.499Z</time></trkpt><trkpt lat="45.8029007" lon="9.0613719"><ele>410.4</ele><time>2026-04-04T13:43:28.498Z</time></trkpt><trkpt lat="45.8029178" lon="9.0614731"><ele>411.59999999999997</ele><time>2026-04-04T13:43:30.499Z</time></trkpt><trkpt lat="45.8029473" lon="9.0616036"><ele>412.79999999999995</ele><time>2026-04-04T13:43:32.499Z</time></trkpt><trkpt lat="45.8030063" lon="9.0617326"><ele>414.0</ele><time>2026-04-04T13:43:34.499Z</time></trkpt><trkpt lat="45.8030698" lon="9.0618604"><ele>414.5</ele><time>2026-04-04T13:43:36.499Z</time></trkpt><trkpt lat="45.8031199" lon="9.061983"><ele>415.0</ele><time>2026-04-04T13:43:38.499Z</time></trkpt><trkpt lat="45.8031601" lon="9.0621073"><ele>415.5</ele><time>2026-04-04T13:43:40.499Z</time></trkpt><trkpt lat="45.8032076" lon="9.06217"><ele>416.0</ele><time>2026-04-04T13:43:43.499Z</time></trkpt><trkpt lat="45.8032795" lon="9.0622471"><ele>416.5</ele><time>2026-04-04T13:43:48.499Z</time></trkpt><trkpt lat="45.8033118" lon="9.0623469"><ele>417.0</ele><time>2026-04-04T13:43:50.499Z</time></trkpt><trkpt lat="45.8033277" lon="9.0624469"><ele>417.42857142857144</ele><time>2026-04-04T13:43:52.498Z</time></trkpt><trkpt lat="45.8033542" lon="9.0625376"><ele>417.85714285714283</ele><time>2026-04-04T13:44:00.499Z</time></trkpt><trkpt lat="45.8033699" lon="9.0626264"><ele>418.2857142857143</ele><time>2026-04-04T13:44:05.499Z</time></trkpt><trkpt lat="45.8034103" lon="9.0627262"><ele>418.7142857142857</ele><time>2026-04-04T13:44:11.499Z</time></trkpt><trkpt lat="45.8034001" lon="9.0628188"><ele>419.1428571428571</ele><time>2026-04-04T13:44:16.499Z</time></trkpt><trkpt lat="45.8034137" lon="9.0627142"><ele>419.57142857142856</ele><time>2026-04-04T13:44:58.499Z</time></trkpt><trkpt lat="45.8034386" lon="9.0626267"><ele>420.0</ele><time>2026-04-04T13:45:01.499Z</time></trkpt><trkpt lat="45.8035062" lon="9.0626041"><ele>420.0</ele><time>2026-04-04T13:45:03.498Z</time></trkpt><trkpt lat="45.8034348" lon="9.0626408"><ele>420.0</ele><time>2026-04-04T13:47:01.498Z</time></trkpt><trkpt lat="45.8033778" lon="9.0626823"><ele>420.0</ele><time>2026-04-04T13:47:04.498Z</time></trkpt><trkpt lat="45.8033248" lon="9.0626083"><ele>420.0</ele><time>2026-04-04T13:47:08.498Z</time></trkpt><trkpt lat="45.8033245" lon="9.0625025"><ele>420.0</ele><time>2026-04-04T13:47:17.498Z</time></trkpt><trkpt lat="45.8032992" lon="9.0623646"><ele>420.0</ele><time>2026-04-04T13:47:20.498Z</time></trkpt><trkpt lat="45.8032623" lon="9.0622647"><ele>419.57142857142856</ele><time>2026-04-04T13:47:22.498Z</time></trkpt><trkpt lat="45.8032213" lon="9.0621876"><ele>419.1428571428571</ele><time>2026-04-04T13:47:27.498Z</time></trkpt><trkpt lat="45.8031698" lon="9.0621335"><ele>418.7142857142857</ele><time>2026-04-04T13:47:30.498Z</time></trkpt><trkpt lat="45.8031377" lon="9.0620452"><ele>418.2857142857143</ele><time>2026-04-04T13:47:33.498Z</time></trkpt><trkpt lat="45.8031125" lon="9.0619467"><ele>417.85714285714283</ele><time>2026-04-04T13:47:35.498Z</time></trkpt><trkpt lat="45.803076" lon="9.0618495"><ele>417.42857142857144</ele><time>2026-04-04T13:47:37.498Z</time></trkpt><trkpt lat="45.8030362" lon="9.0617599"><ele>417.0</ele><time>2026-04-04T13:47:39.498Z</time></trkpt><trkpt lat="45.8029853" lon="9.0616836"><ele>416.5</ele><time>2026-04-04T13:47:41.498Z</time></trkpt><trkpt lat="45.8029415" lon="9.0615821"><ele>416.0</ele><time>2026-04-04T13:47:44.498Z</time></trkpt><trkpt lat="45.8029124" lon="9.0614917"><ele>415.5</ele><time>2026-04-04T13:47:46.498Z</time></trkpt><trkpt lat="45.8028978" lon="9.0613945"><ele>415.0</ele><time>2026-04-04T13:47:48.498Z</time></trkpt><trkpt lat="45.802923" lon="9.0612729"><ele>414.5</ele><time>2026-04-04T13:47:50.498Z</time></trkpt><trkpt lat="45.8029699" lon="9.0611512"><ele>414.0</ele><time>2026-04-04T13:47:52.498Z</time></trkpt><trkpt lat="45.8030404" lon="9.0610261"><ele>414.0</ele><time>2026-04-04T13:47:54.498Z</time></trkpt><trkpt lat="45.8030976" lon="9.060935"><ele>414.0</ele><time>2026-04-04T13:47:56.498Z</time></trkpt><trkpt lat="45.8031305" lon="9.0608547"><ele>414.0</ele><time>2026-04-04T13:47:58.498Z</time></trkpt><trkpt lat="45.8031234" lon="9.0607625"><ele>414.0</ele><time>2026-04-04T13:48:00.498Z</time></trkpt><trkpt lat="45.8030879" lon="9.0606622"><ele>414.0</ele><time>2026-04-04T13:48:02.498Z</time></trkpt><trkpt lat="45.803044" lon="9.0605512"><ele>414.0</ele><time>2026-04-04T13:48:04.498Z</time></trkpt><trkpt lat="45.8029868" lon="9.0604487"><ele>413.0</ele><time>2026-04-04T13:48:06.498Z</time></trkpt><trkpt lat="45.8029327" lon="9.0603667"><ele>412.0</ele><time>2026-04-04T13:48:08.498Z</time></trkpt><trkpt lat="45.8028779" lon="9.0602745"><ele>411.0</ele><time>2026-04-04T13:48:10.498Z</time></trkpt><trkpt lat="45.8028291" lon="9.060177"><ele>410.0</ele><time>2026-04-04T13:48:12.498Z</time></trkpt><trkpt lat="45.8028028" lon="9.0600836"><ele>409.0</ele><time>2026-04-04T13:48:14.498Z</time></trkpt><trkpt lat="45.8027824" lon="9.0599817"><ele>408.0</ele><time>2026-04-04T13:48:17.498Z</time></trkpt><trkpt lat="45.8028041" lon="9.0598304"><ele>406.5</ele><time>2026-04-04T13:48:25.497Z</time></trkpt><trkpt lat="45.8028373" lon="9.0597431"><ele>405.0</ele><time>2026-04-04T13:48:26.497Z</time></trkpt><trkpt lat="45.802882" lon="9.059636"><ele>403.5</ele><time>2026-04-04T13:48:27.498Z</time></trkpt><trkpt lat="45.8029172" lon="9.0595254"><ele>402.0</ele><time>2026-04-04T13:48:28.498Z</time></trkpt><trkpt lat="45.8029494" lon="9.0593925"><ele>400.5</ele><time>2026-04-04T13:48:29.498Z</time></trkpt><trkpt lat="45.8029803" lon="9.0592454"><ele>399.0</ele><time>2026-04-04T13:48:30.498Z</time></trkpt><trkpt lat="45.8030119" lon="9.0590952"><ele>397.4</ele><time>2026-04-04T13:48:31.498Z</time></trkpt><trkpt lat="45.8030461" lon="9.0589422"><ele>395.79999999999995</ele><time>2026-04-04T13:48:32.498Z</time></trkpt><trkpt lat="45.8030773" lon="9.058783"><ele>394.20000000000005</ele><time>2026-04-04T13:48:33.498Z</time></trkpt><trkpt lat="45.803101" lon="9.0586234"><ele>392.6</ele><time>2026-04-04T13:48:34.498Z</time></trkpt><trkpt lat="45.8031132" lon="9.0584706"><ele>391.0</ele><time>2026-04-04T13:48:35.498Z</time></trkpt><trkpt lat="45.8031235" lon="9.0583354"><ele>389.99999999999994</ele><time>2026-04-04T13:48:36.498Z</time></trkpt><trkpt lat="45.8031312" lon="9.0582127"><ele>389.0</ele><time>2026-04-04T13:48:37.498Z</time></trkpt><trkpt lat="45.8031405" lon="9.058102"><ele>388.0</ele><time>2026-04-04T13:48:38.497Z</time></trkpt><trkpt lat="45.8031558" lon="9.058"><ele>387.0</ele><time>2026-04-04T13:48:39.498Z</time></trkpt><trkpt lat="45.8031779" lon="9.0579057"><ele>386.0</ele><time>2026-04-04T13:48:40.498Z</time></trkpt><trkpt lat="45.8032052" lon="9.0578218"><ele>384.99999999999994</ele><time>2026-04-04T13:48:41.496Z</time></trkpt><trkpt lat="45.8032424" lon="9.0577387"><ele>384.0</ele><time>2026-04-04T13:48:42.497Z</time></trkpt><trkpt lat="45.8032821" lon="9.0576562"><ele>384.0</ele><time>2026-04-04T13:48:43.498Z</time></trkpt><trkpt lat="45.8033257" lon="9.0575774"><ele>384.0</ele><time>2026-04-04T13:48:44.498Z</time></trkpt><trkpt lat="45.8033696" lon="9.0575026"><ele>384.0</ele><time>2026-04-04T13:48:45.497Z</time></trkpt><trkpt lat="45.8034131" lon="9.0574295"><ele>384.0</ele><time>2026-04-04T13:48:46.498Z</time></trkpt><trkpt lat="45.8034614" lon="9.0573599"><ele>384.0</ele><time>2026-04-04T13:48:47.498Z</time></trkpt><trkpt lat="45.8035535" lon="9.0572628"><ele>384.0</ele><time>2026-04-04T13:48:49.498Z</time></trkpt><trkpt lat="45.8036086" lon="9.0572117"><ele>384.3333333333333</ele><time>2026-04-04T13:48:50.498Z</time></trkpt><trkpt lat="45.8036692" lon="9.057144"><ele>384.66666666666663</ele><time>2026-04-04T13:48:51.498Z</time></trkpt><trkpt lat="45.8037304" lon="9.0570686"><ele>385.0</ele><time>2026-04-04T13:48:52.498Z</time></trkpt><trkpt lat="45.8037856" lon="9.0569919"><ele>385.3333333333333</ele><time>2026-04-04T13:48:53.498Z</time></trkpt><trkpt lat="45.80384" lon="9.056911"><ele>385.66666666666663</ele><time>2026-04-04T13:48:54.498Z</time></trkpt><trkpt lat="45.803891" lon="9.0568251"><ele>386.0</ele><time>2026-04-04T13:48:55.497Z</time></trkpt><trkpt lat="45.803941" lon="9.0567364"><ele>385.99999999999994</ele><time>2026-04-04T13:48:56.498Z</time></trkpt><trkpt lat="45.8039916" lon="9.0566432"><ele>386.0</ele><time>2026-04-04T13:48:57.498Z</time></trkpt><trkpt lat="45.804047" lon="9.0565541"><ele>386.0</ele><time>2026-04-04T13:48:58.498Z</time></trkpt><trkpt lat="45.8041079" lon="9.0564711"><ele>386.0</ele><time>2026-04-04T13:48:59.497Z</time></trkpt><trkpt lat="45.8041692" lon="9.0563859"><ele>385.99999999999994</ele><time>2026-04-04T13:49:00.497Z</time></trkpt><trkpt lat="45.8042286" lon="9.056296"><ele>386.0</ele><time>2026-04-04T13:49:01.498Z</time></trkpt><trkpt lat="45.8042885" lon="9.056207"><ele>385.3333333333333</ele><time>2026-04-04T13:49:02.498Z</time></trkpt><trkpt lat="45.8043491" lon="9.0561179"><ele>384.66666666666663</ele><time>2026-04-04T13:49:03.498Z</time></trkpt><trkpt lat="45.8044088" lon="9.0560268"><ele>384.0</ele><time>2026-04-04T13:49:04.498Z</time></trkpt><trkpt lat="45.8044634" lon="9.0559377"><ele>383.3333333333333</ele><time>2026-04-04T13:49:05.498Z</time></trkpt><trkpt lat="45.8045168" lon="9.0558495"><ele>382.66666666666663</ele><time>2026-04-04T13:49:06.498Z</time></trkpt><trkpt lat="45.8045681" lon="9.0557687"><ele>382.0</ele><time>2026-04-04T13:49:07.498Z</time></trkpt><trkpt lat="45.8046205" lon="9.0556949"><ele>382.0</ele><time>2026-04-04T13:49:08.498Z</time></trkpt><trkpt lat="45.8046697" lon="9.055624"><ele>382.0</ele><time>2026-04-04T13:49:09.497Z</time></trkpt><trkpt lat="45.8047173" lon="9.0555562"><ele>382.0</ele><time>2026-04-04T13:49:10.498Z</time></trkpt><trkpt lat="45.8047636" lon="9.0554902"><ele>382.0</ele><time>2026-04-04T13:49:11.497Z</time></trkpt><trkpt lat="45.8048106" lon="9.0554276"><ele>382.0</ele><time>2026-04-04T13:49:12.498Z</time></trkpt><trkpt lat="45.8048617" lon="9.0553675"><ele>382.0</ele><time>2026-04-04T13:49:13.498Z</time></trkpt><trkpt lat="45.8049196" lon="9.0553059"><ele>382.0</ele><time>2026-04-04T13:49:14.497Z</time></trkpt><trkpt lat="45.8049812" lon="9.0552452"><ele>382.0</ele><time>2026-04-04T13:49:15.498Z</time></trkpt><trkpt lat="45.805049" lon="9.0551857"><ele>382.0</ele><time>2026-04-04T13:49:16.498Z</time></trkpt><trkpt lat="45.8051159" lon="9.0551235"><ele>382.0</ele><time>2026-04-04T13:49:17.498Z</time></trkpt><trkpt lat="45.8051858" lon="9.0550588"><ele>382.0</ele><time>2026-04-04T13:49:18.498Z</time></trkpt><trkpt lat="45.8052549" lon="9.0549946"><ele>382.0</ele><time>2026-04-04T13:49:19.498Z</time></trkpt><trkpt lat="45.8053224" lon="9.0549337"><ele>382.0</ele><time>2026-04-04T13:49:20.498Z</time></trkpt><trkpt lat="45.8053901" lon="9.0548742"><ele>382.16666666666663</ele><time>2026-04-04T13:49:21.498Z</time></trkpt><trkpt lat="45.8054565" lon="9.0548295"><ele>382.3333333333333</ele><time>2026-04-04T13:49:22.497Z</time></trkpt><trkpt lat="45.8055247" lon="9.0548015"><ele>382.5</ele><time>2026-04-04T13:49:23.498Z</time></trkpt><trkpt lat="45.8055948" lon="9.0547905"><ele>382.6666666666667</ele><time>2026-04-04T13:49:24.498Z</time></trkpt><trkpt lat="45.8056638" lon="9.0547952"><ele>382.83333333333337</ele><time>2026-04-04T13:49:25.498Z</time></trkpt><trkpt lat="45.8057879" lon="9.0548175"><ele>383.0</ele><time>2026-04-04T13:49:27.498Z</time></trkpt><trkpt lat="45.8058541" lon="9.0548185"><ele>383.0</ele><time>2026-04-04T13:49:28.497Z</time></trkpt><trkpt lat="45.805924" lon="9.0548131"><ele>383.0</ele><time>2026-04-04T13:49:29.497Z</time></trkpt><trkpt lat="45.8059921" lon="9.0547992"><ele>383.0</ele><time>2026-04-04T13:49:30.497Z</time></trkpt><trkpt lat="45.8060597" lon="9.0547756"><ele>383.0</ele><time>2026-04-04T13:49:31.497Z</time></trkpt><trkpt lat="45.8061237" lon="9.0547412"><ele>383.0</ele><time>2026-04-04T13:49:32.497Z</time></trkpt><trkpt lat="45.8061856" lon="9.0546938"><ele>383.0</ele><time>2026-04-04T13:49:33.497Z</time></trkpt><trkpt lat="45.8062406" lon="9.0546311"><ele>383.0</ele><time>2026-04-04T13:49:34.497Z</time></trkpt><trkpt lat="45.8062845" lon="9.0545493"><ele>383.5</ele><time>2026-04-04T13:49:35.497Z</time></trkpt><trkpt lat="45.8063137" lon="9.0544534"><ele>384.0</ele><time>2026-04-04T13:49:36.497Z</time></trkpt><trkpt lat="45.8063418" lon="9.0543549"><ele>384.5</ele><time>2026-04-04T13:49:37.497Z</time></trkpt><trkpt lat="45.8063712" lon="9.0542586"><ele>385.0</ele><time>2026-04-04T13:49:38.497Z</time></trkpt><trkpt lat="45.8063964" lon="9.0541729"><ele>385.49999999999994</ele><time>2026-04-04T13:49:39.497Z</time></trkpt><trkpt lat="45.8064399" lon="9.0540256"><ele>386.0</ele><time>2026-04-04T13:49:41.496Z</time></trkpt><trkpt lat="45.8064837" lon="9.0538931"><ele>386.0</ele><time>2026-04-04T13:49:43.497Z</time></trkpt><trkpt lat="45.8065098" lon="9.0537698"><ele>386.0</ele><time>2026-04-04T13:49:45.497Z</time></trkpt><trkpt lat="45.806522" lon="9.0536617"><ele>386.0</ele><time>2026-04-04T13:49:47.497Z</time></trkpt><trkpt lat="45.806576" lon="9.0534986"><ele>386.0</ele><time>2026-04-04T13:49:49.497Z</time></trkpt><trkpt lat="45.8066102" lon="9.0533997"><ele>386.0</ele><time>2026-04-04T13:49:50.497Z</time></trkpt><trkpt lat="45.8066485" lon="9.0532875"><ele>385.6</ele><time>2026-04-04T13:49:51.497Z</time></trkpt><trkpt lat="45.8066921" lon="9.0531699"><ele>385.20000000000005</ele><time>2026-04-04T13:49:52.497Z</time></trkpt><trkpt lat="45.806736" lon="9.0530428"><ele>384.79999999999995</ele><time>2026-04-04T13:49:53.497Z</time></trkpt><trkpt lat="45.8067778" lon="9.0529204"><ele>384.4</ele><time>2026-04-04T13:49:54.498Z</time></trkpt><trkpt lat="45.8068234" lon="9.0527873"><ele>384.0</ele><time>2026-04-04T13:49:55.497Z</time></trkpt><trkpt lat="45.8068715" lon="9.0526502"><ele>385.6</ele><time>2026-04-04T13:49:56.497Z</time></trkpt><trkpt lat="45.8069203" lon="9.0525084"><ele>387.2</ele><time>2026-04-04T13:49:57.497Z</time></trkpt><trkpt lat="45.8069678" lon="9.052368"><ele>388.8</ele><time>2026-04-04T13:49:58.498Z</time></trkpt><trkpt lat="45.8070156" lon="9.0522278"><ele>390.40000000000003</ele><time>2026-04-04T13:49:59.497Z</time></trkpt><trkpt lat="45.8070636" lon="9.0520863"><ele>392.0</ele><time>2026-04-04T13:50:00.497Z</time></trkpt><trkpt lat="45.8071117" lon="9.0519462"><ele>392.0</ele><time>2026-04-04T13:50:01.497Z</time></trkpt><trkpt lat="45.80716" lon="9.0518065"><ele>392.0</ele><time>2026-04-04T13:50:02.497Z</time></trkpt><trkpt lat="45.8072069" lon="9.0516681"><ele>392.0</ele><time>2026-04-04T13:50:03.497Z</time></trkpt><trkpt lat="45.8072494" lon="9.0515424"><ele>392.0</ele><time>2026-04-04T13:50:04.497Z</time></trkpt><trkpt lat="45.8072892" lon="9.0514259"><ele>392.0</ele><time>2026-04-04T13:50:05.498Z</time></trkpt><trkpt lat="45.8073264" lon="9.0513169"><ele>391.40000000000003</ele><time>2026-04-04T13:50:06.496Z</time></trkpt><trkpt lat="45.8073636" lon="9.0512156"><ele>390.8</ele><time>2026-04-04T13:50:07.496Z</time></trkpt><trkpt lat="45.8073968" lon="9.0511243"><ele>390.2</ele><time>2026-04-04T13:50:08.496Z</time></trkpt><trkpt lat="45.8074291" lon="9.0510425"><ele>389.6</ele><time>2026-04-04T13:50:09.497Z</time></trkpt><trkpt lat="45.8075179" lon="9.0509235"><ele>389.0</ele><time>2026-04-04T13:50:11.497Z</time></trkpt><trkpt lat="45.8076325" lon="9.0509334"><ele>390.66666666666663</ele><time>2026-04-04T13:50:13.497Z</time></trkpt><trkpt lat="45.8076838" lon="9.0509864"><ele>392.3333333333333</ele><time>2026-04-04T13:50:14.497Z</time></trkpt><trkpt lat="45.8077356" lon="9.0510586"><ele>394.0</ele><time>2026-04-04T13:50:15.497Z</time></trkpt><trkpt lat="45.8077935" lon="9.0511434"><ele>395.66666666666663</ele><time>2026-04-04T13:50:16.497Z</time></trkpt><trkpt lat="45.8078565" lon="9.0512367"><ele>397.3333333333333</ele><time>2026-04-04T13:50:17.497Z</time></trkpt><trkpt lat="45.8079214" lon="9.0513344"><ele>399.0</ele><time>2026-04-04T13:50:18.498Z</time></trkpt><trkpt lat="45.8079863" lon="9.0514378"><ele>399.0</ele><time>2026-04-04T13:50:19.497Z</time></trkpt><trkpt lat="45.8080523" lon="9.0515434"><ele>399.0</ele><time>2026-04-04T13:50:20.497Z</time></trkpt><trkpt lat="45.8081206" lon="9.0516503"><ele>399.0</ele><time>2026-04-04T13:50:21.497Z</time></trkpt><trkpt lat="45.8081908" lon="9.0517584"><ele>399.0</ele><time>2026-04-04T13:50:22.497Z</time></trkpt><trkpt lat="45.8082637" lon="9.0518576"><ele>399.0</ele><time>2026-04-04T13:50:23.497Z</time></trkpt><trkpt lat="45.8083461" lon="9.0519368"><ele>399.1666666666667</ele><time>2026-04-04T13:50:24.498Z</time></trkpt><trkpt lat="45.8084345" lon="9.0519886"><ele>399.33333333333337</ele><time>2026-04-04T13:50:25.497Z</time></trkpt><trkpt lat="45.8085235" lon="9.0520149"><ele>399.5</ele><time>2026-04-04T13:50:26.498Z</time></trkpt><trkpt lat="45.8086135" lon="9.052022"><ele>399.6666666666667</ele><time>2026-04-04T13:50:27.497Z</time></trkpt><trkpt lat="45.8086929" lon="9.0520343"><ele>399.83333333333337</ele><time>2026-04-04T13:50:28.497Z</time></trkpt><trkpt lat="45.8087605" lon="9.0520598"><ele>400.0</ele><time>2026-04-04T13:50:29.497Z</time></trkpt><trkpt lat="45.8088221" lon="9.052092"><ele>400.0</ele><time>2026-04-04T13:50:30.497Z</time></trkpt><trkpt lat="45.8089239" lon="9.0521744"><ele>400.0</ele><time>2026-04-04T13:50:32.498Z</time></trkpt><trkpt lat="45.8090101" lon="9.0522693"><ele>400.0</ele><time>2026-04-04T13:50:34.498Z</time></trkpt><trkpt lat="45.8091018" lon="9.0523525"><ele>400.0</ele><time>2026-04-04T13:50:36.497Z</time></trkpt><trkpt lat="45.8092171" lon="9.0524129"><ele>400.00000000000006</ele><time>2026-04-04T13:50:38.497Z</time></trkpt><trkpt lat="45.8092682" lon="9.0524817"><ele>400.0</ele><time>2026-04-04T13:50:39.497Z</time></trkpt><trkpt lat="45.8093146" lon="9.0525713"><ele>400.0</ele><time>2026-04-04T13:50:40.498Z</time></trkpt><trkpt lat="45.8093541" lon="9.0526764"><ele>400.0</ele><time>2026-04-04T13:50:41.496Z</time></trkpt><trkpt lat="45.8093846" lon="9.0527974"><ele>400.00000000000006</ele><time>2026-04-04T13:50:42.498Z</time></trkpt><trkpt lat="45.8094189" lon="9.052931"><ele>400.0</ele><time>2026-04-04T13:50:43.496Z</time></trkpt><trkpt lat="45.8094518" lon="9.0530625"><ele>401.2</ele><time>2026-04-04T13:50:44.497Z</time></trkpt><trkpt lat="45.8094846" lon="9.0531956"><ele>402.4</ele><time>2026-04-04T13:50:45.497Z</time></trkpt><trkpt lat="45.8095191" lon="9.0533308"><ele>403.6</ele><time>2026-04-04T13:50:46.497Z</time></trkpt><trkpt lat="45.8095533" lon="9.0534668"><ele>404.8</ele><time>2026-04-04T13:50:47.496Z</time></trkpt><trkpt lat="45.8095879" lon="9.0536023"><ele>406.0</ele><time>2026-04-04T13:50:48.496Z</time></trkpt><trkpt lat="45.8096234" lon="9.0537366"><ele>406.4</ele><time>2026-04-04T13:50:49.496Z</time></trkpt><trkpt lat="45.8096576" lon="9.0538688"><ele>406.8</ele><time>2026-04-04T13:50:50.497Z</time></trkpt><trkpt lat="45.8096887" lon="9.0539903"><ele>407.2</ele><time>2026-04-04T13:50:51.497Z</time></trkpt><trkpt lat="45.8097201" lon="9.0541115"><ele>407.59999999999997</ele><time>2026-04-04T13:50:52.497Z</time></trkpt><trkpt lat="45.8097508" lon="9.0542284"><ele>408.0</ele><time>2026-04-04T13:50:53.497Z</time></trkpt><trkpt lat="45.8097799" lon="9.0543417"><ele>408.3333333333333</ele><time>2026-04-04T13:50:54.497Z</time></trkpt><trkpt lat="45.8098128" lon="9.0544639"><ele>408.66666666666663</ele><time>2026-04-04T13:50:55.497Z</time></trkpt><trkpt lat="45.8098531" lon="9.0546117"><ele>409.0</ele><time>2026-04-04T13:50:56.497Z</time></trkpt><trkpt lat="45.8098854" lon="9.0547337"><ele>409.3333333333333</ele><time>2026-04-04T13:50:57.497Z</time></trkpt><trkpt lat="45.8099083" lon="9.0548395"><ele>409.66666666666663</ele><time>2026-04-04T13:50:58.497Z</time></trkpt><trkpt lat="45.8099191" lon="9.0549431"><ele>410.0</ele><time>2026-04-04T13:50:59.497Z</time></trkpt><trkpt lat="45.8099169" lon="9.0550389"><ele>408.6</ele><time>2026-04-04T13:51:00.497Z</time></trkpt><trkpt lat="45.8098887" lon="9.0552043"><ele>407.2</ele><time>2026-04-04T13:51:02.497Z</time></trkpt><trkpt lat="45.8098674" lon="9.055348"><ele>405.79999999999995</ele><time>2026-04-04T13:51:04.496Z</time></trkpt><trkpt lat="45.8098524" lon="9.0554586"><ele>404.4</ele><time>2026-04-04T13:51:06.497Z</time></trkpt><trkpt lat="45.8098684" lon="9.0555523"><ele>403.0</ele><time>2026-04-04T13:51:27.497Z</time></trkpt><trkpt lat="45.8099171" lon="9.0556675"><ele>403.0</ele><time>2026-04-04T13:51:29.497Z</time></trkpt><trkpt lat="45.809969" lon="9.0557664"><ele>403.0</ele><time>2026-04-04T13:51:30.497Z</time></trkpt><trkpt lat="45.8100232" lon="9.0558846"><ele>403.0</ele><time>2026-04-04T13:51:31.497Z</time></trkpt><trkpt lat="45.8100416" lon="9.0560159"><ele>403.0</ele><time>2026-04-04T13:51:32.497Z</time></trkpt><trkpt lat="45.8100312" lon="9.0561507"><ele>403.0</ele><time>2026-04-04T13:51:33.496Z</time></trkpt><trkpt lat="45.8099934" lon="9.0562853"><ele>401.59999999999997</ele><time>2026-04-04T13:51:34.497Z</time></trkpt><trkpt lat="45.8099424" lon="9.0564235"><ele>400.2</ele><time>2026-04-04T13:51:35.496Z</time></trkpt><trkpt lat="45.8099158" lon="9.0565603"><ele>398.8</ele><time>2026-04-04T13:51:36.497Z</time></trkpt><trkpt lat="45.8099124" lon="9.0567014"><ele>397.4</ele><time>2026-04-04T13:51:37.497Z</time></trkpt><trkpt lat="45.8099314" lon="9.0568264"><ele>396.0</ele><time>2026-04-04T13:51:38.497Z</time></trkpt><trkpt lat="45.8099671" lon="9.0569319"><ele>395.0</ele><time>2026-04-04T13:51:39.497Z</time></trkpt><trkpt lat="45.8099961" lon="9.0570298"><ele>394.0</ele><time>2026-04-04T13:51:40.497Z</time></trkpt><trkpt lat="45.810033" lon="9.0571797"><ele>393.0</ele><time>2026-04-04T13:51:41.497Z</time></trkpt><trkpt lat="45.8100837" lon="9.0572596"><ele>392.0</ele><time>2026-04-04T13:51:42.497Z</time></trkpt><trkpt lat="45.810284" lon="9.0572456"><ele>393.8</ele><time>2026-04-04T13:51:43.497Z</time></trkpt><trkpt lat="45.8104007" lon="9.0572967"><ele>395.6</ele><time>2026-04-04T13:51:44.497Z</time></trkpt><trkpt lat="45.8104924" lon="9.0573715"><ele>397.40000000000003</ele><time>2026-04-04T13:51:45.497Z</time></trkpt><trkpt lat="45.8105521" lon="9.057492"><ele>399.20000000000005</ele><time>2026-04-04T13:51:46.497Z</time></trkpt><trkpt lat="45.8105877" lon="9.0576419"><ele>401.0</ele><time>2026-04-04T13:51:47.497Z</time></trkpt><trkpt lat="45.8106071" lon="9.0578113"><ele>401.0</ele><time>2026-04-04T13:51:48.497Z</time></trkpt><trkpt lat="45.8106249" lon="9.0579941"><ele>401.0</ele><time>2026-04-04T13:51:49.496Z</time></trkpt><trkpt lat="45.8106456" lon="9.0581786"><ele>401.0</ele><time>2026-04-04T13:51:50.496Z</time></trkpt><trkpt lat="45.8106702" lon="9.0583596"><ele>401.0</ele><time>2026-04-04T13:51:51.497Z</time></trkpt><trkpt lat="45.810705" lon="9.0585169"><ele>399.4</ele><time>2026-04-04T13:51:52.497Z</time></trkpt><trkpt lat="45.8107597" lon="9.0586528"><ele>397.8</ele><time>2026-04-04T13:51:53.497Z</time></trkpt><trkpt lat="45.8108114" lon="9.0587588"><ele>396.2</ele><time>2026-04-04T13:51:54.497Z</time></trkpt><trkpt lat="45.810856" lon="9.0588784"><ele>394.59999999999997</ele><time>2026-04-04T13:51:55.497Z</time></trkpt><trkpt lat="45.8109015" lon="9.0589936"><ele>393.0</ele><time>2026-04-04T13:51:56.497Z</time></trkpt><trkpt lat="45.8109436" lon="9.0591145"><ele>395.66666666666663</ele><time>2026-04-04T13:51:57.497Z</time></trkpt><trkpt lat="45.8110128" lon="9.0592391"><ele>398.3333333333333</ele><time>2026-04-04T13:51:58.496Z</time></trkpt><trkpt lat="45.8110817" lon="9.0592665"><ele>401.0</ele><time>2026-04-04T13:51:59.497Z</time></trkpt><trkpt lat="45.8114078" lon="9.0589457"><ele>401.0</ele><time>2026-04-04T13:52:00.497Z</time></trkpt><trkpt lat="45.8116119" lon="9.0587872"><ele>401.0</ele><time>2026-04-04T13:52:01.497Z</time></trkpt><trkpt lat="45.8117739" lon="9.0587587"><ele>401.0</ele><time>2026-04-04T13:52:02.497Z</time></trkpt><trkpt lat="45.8119047" lon="9.0587472"><ele>400.8</ele><time>2026-04-04T13:52:03.497Z</time></trkpt><trkpt lat="45.8120255" lon="9.0587711"><ele>400.6</ele><time>2026-04-04T13:52:04.496Z</time></trkpt><trkpt lat="45.812124" lon="9.0588364"><ele>400.4</ele><time>2026-04-04T13:52:05.497Z</time></trkpt><trkpt lat="45.8121946" lon="9.0589402"><ele>400.2</ele><time>2026-04-04T13:52:06.496Z</time></trkpt><trkpt lat="45.8122413" lon="9.059068"><ele>400.0</ele><time>2026-04-04T13:52:07.497Z</time></trkpt><trkpt lat="45.8122688" lon="9.059199"><ele>396.8</ele><time>2026-04-04T13:52:08.497Z</time></trkpt><trkpt lat="45.8122951" lon="9.0593172"><ele>393.6</ele><time>2026-04-04T13:52:09.497Z</time></trkpt><trkpt lat="45.8123448" lon="9.0594248"><ele>390.4</ele><time>2026-04-04T13:52:10.497Z</time></trkpt><trkpt lat="45.8124182" lon="9.0595131"><ele>387.2</ele><time>2026-04-04T13:52:11.497Z</time></trkpt><trkpt lat="45.8125077" lon="9.0595726"><ele>384.0</ele><time>2026-04-04T13:52:12.496Z</time></trkpt><trkpt lat="45.8126085" lon="9.059604"><ele>385.25</ele><time>2026-04-04T13:52:13.497Z</time></trkpt><trkpt lat="45.8127217" lon="9.0596114"><ele>386.5</ele><time>2026-04-04T13:52:14.497Z</time></trkpt><trkpt lat="45.8128495" lon="9.0596013"><ele>387.75</ele><time>2026-04-04T13:52:15.497Z</time></trkpt><trkpt lat="45.8129716" lon="9.0595895"><ele>389.0</ele><time>2026-04-04T13:52:16.497Z</time></trkpt><trkpt lat="45.8130892" lon="9.0595786"><ele>389.0</ele><time>2026-04-04T13:52:17.497Z</time></trkpt><trkpt lat="45.8132018" lon="9.0595666"><ele>389.0</ele><time>2026-04-04T13:52:18.497Z</time></trkpt><trkpt lat="45.8133111" lon="9.059568"><ele>389.0</ele><time>2026-04-04T13:52:19.497Z</time></trkpt><trkpt lat="45.8134133" lon="9.0596042"><ele>389.0</ele><time>2026-04-04T13:52:20.497Z</time></trkpt><trkpt lat="45.8135036" lon="9.0596757"><ele>389.0</ele><time>2026-04-04T13:52:21.497Z</time></trkpt><trkpt lat="45.8135837" lon="9.0597471"><ele>385.75</ele><time>2026-04-04T13:52:22.497Z</time></trkpt><trkpt lat="45.8136467" lon="9.0598853"><ele>382.5</ele><time>2026-04-04T13:52:23.497Z</time></trkpt><trkpt lat="45.8137267" lon="9.06003"><ele>379.25</ele><time>2026-04-04T13:52:24.497Z</time></trkpt><trkpt lat="45.8137928" lon="9.0601769"><ele>376.0</ele><time>2026-04-04T13:52:25.497Z</time></trkpt><trkpt lat="45.8138692" lon="9.0603112"><ele>373.20000000000005</ele><time>2026-04-04T13:52:26.496Z</time></trkpt><trkpt lat="45.8139502" lon="9.0604297"><ele>370.40000000000003</ele><time>2026-04-04T13:52:27.497Z</time></trkpt><trkpt lat="45.8140329" lon="9.0605192"><ele>367.6</ele><time>2026-04-04T13:52:28.497Z</time></trkpt><trkpt lat="45.8141244" lon="9.0605821"><ele>364.8</ele><time>2026-04-04T13:52:29.497Z</time></trkpt><trkpt lat="45.8142262" lon="9.060603"><ele>362.0</ele><time>2026-04-04T13:52:30.496Z</time></trkpt><trkpt lat="45.8143264" lon="9.06058"><ele>356.6</ele><time>2026-04-04T13:52:31.497Z</time></trkpt><trkpt lat="45.814418" lon="9.0605179"><ele>351.20000000000005</ele><time>2026-04-04T13:52:32.497Z</time></trkpt><trkpt lat="45.8144972" lon="9.0604157"><ele>345.8</ele><time>2026-04-04T13:52:33.497Z</time></trkpt><trkpt lat="45.8145581" lon="9.0602847"><ele>340.4</ele><time>2026-04-04T13:52:34.497Z</time></trkpt><trkpt lat="45.8146068" lon="9.060128"><ele>335.0</ele><time>2026-04-04T13:52:35.497Z</time></trkpt><trkpt lat="45.8146478" lon="9.0599515"><ele>339.0</ele><time>2026-04-04T13:52:36.497Z</time></trkpt><trkpt lat="45.8146966" lon="9.0597714"><ele>343.0</ele><time>2026-04-04T13:52:37.497Z</time></trkpt><trkpt lat="45.8147448" lon="9.0595975"><ele>347.0</ele><time>2026-04-04T13:52:38.497Z</time></trkpt><trkpt lat="45.8147988" lon="9.059442"><ele>351.0</ele><time>2026-04-04T13:52:39.497Z</time></trkpt><trkpt lat="45.8148629" lon="9.0593014"><ele>351.0</ele><time>2026-04-04T13:52:40.496Z</time></trkpt><trkpt lat="45.8149349" lon="9.0591827"><ele>351.0</ele><time>2026-04-04T13:52:41.497Z</time></trkpt><trkpt lat="45.8150202" lon="9.059094"><ele>351.0</ele><time>2026-04-04T13:52:42.497Z</time></trkpt><trkpt lat="45.8151148" lon="9.0590262"><ele>351.0</ele><time>2026-04-04T13:52:43.497Z</time></trkpt><trkpt lat="45.81522" lon="9.0589888"><ele>351.0</ele><time>2026-04-04T13:52:44.497Z</time></trkpt><trkpt lat="45.8153387" lon="9.0589734"><ele>352.75</ele><time>2026-04-04T13:52:45.497Z</time></trkpt><trkpt lat="45.8154655" lon="9.0589679"><ele>354.5</ele><time>2026-04-04T13:52:46.497Z</time></trkpt><trkpt lat="45.8155999" lon="9.05897"><ele>356.25</ele><time>2026-04-04T13:52:47.497Z</time></trkpt><trkpt lat="45.8157346" lon="9.0589699"><ele>358.0</ele><time>2026-04-04T13:52:48.497Z</time></trkpt><trkpt lat="45.8158636" lon="9.0589523"><ele>355.75</ele><time>2026-04-04T13:52:49.497Z</time></trkpt><trkpt lat="45.8159869" lon="9.0589075"><ele>353.5</ele><time>2026-04-04T13:52:50.496Z</time></trkpt><trkpt lat="45.8161011" lon="9.0588456"><ele>351.25</ele><time>2026-04-04T13:52:51.497Z</time></trkpt><trkpt lat="45.8162108" lon="9.0587859"><ele>349.0</ele><time>2026-04-04T13:52:52.497Z</time></trkpt><trkpt lat="45.8163154" lon="9.0587369"><ele>349.0</ele><time>2026-04-04T13:52:53.497Z</time></trkpt><trkpt lat="45.8164194" lon="9.0587032"><ele>349.0</ele><time>2026-04-04T13:52:54.497Z</time></trkpt><trkpt lat="45.816523" lon="9.0586986"><ele>349.0</ele><time>2026-04-04T13:52:55.497Z</time></trkpt><trkpt lat="45.8166335" lon="9.0587164"><ele>349.0</ele><time>2026-04-04T13:52:56.497Z</time></trkpt><trkpt lat="45.8167508" lon="9.0587526"><ele>349.0</ele><time>2026-04-04T13:52:57.496Z</time></trkpt><trkpt lat="45.8168751" lon="9.0587988"><ele>348.5</ele><time>2026-04-04T13:52:58.497Z</time></trkpt><trkpt lat="45.8169964" lon="9.0588299"><ele>348.0</ele><time>2026-04-04T13:52:59.497Z</time></trkpt><trkpt lat="45.8171118" lon="9.0588397"><ele>347.5</ele><time>2026-04-04T13:53:00.497Z</time></trkpt><trkpt lat="45.8172221" lon="9.0588198"><ele>347.0</ele><time>2026-04-04T13:53:01.497Z</time></trkpt><trkpt lat="45.8173245" lon="9.0587693"><ele>347.0</ele><time>2026-04-04T13:53:02.497Z</time></trkpt><trkpt lat="45.8174061" lon="9.0586878"><ele>347.0</ele><time>2026-04-04T13:53:03.497Z</time></trkpt><trkpt lat="45.8174887" lon="9.0585984"><ele>347.0</ele><time>2026-04-04T13:53:04.497Z</time></trkpt><trkpt lat="45.8175705" lon="9.0585239"><ele>347.0</ele><time>2026-04-04T13:53:05.497Z</time></trkpt><trkpt lat="45.8176537" lon="9.0584638"><ele>347.0</ele><time>2026-04-04T13:53:06.497Z</time></trkpt><trkpt lat="45.8177561" lon="9.0584316"><ele>350.75</ele><time>2026-04-04T13:53:07.496Z</time></trkpt><trkpt lat="45.8178656" lon="9.0583876"><ele>354.5</ele><time>2026-04-04T13:53:08.496Z</time></trkpt><trkpt lat="45.8179765" lon="9.0583298"><ele>358.25</ele><time>2026-04-04T13:53:09.497Z</time></trkpt><trkpt lat="45.8180865" lon="9.0582589"><ele>362.0</ele><time>2026-04-04T13:53:10.496Z</time></trkpt><trkpt lat="45.8181927" lon="9.0581859"><ele>362.0</ele><time>2026-04-04T13:53:11.497Z</time></trkpt><trkpt lat="45.8182963" lon="9.0581156"><ele>362.0</ele><time>2026-04-04T13:53:12.497Z</time></trkpt><trkpt lat="45.8183968" lon="9.0580405"><ele>362.0</ele><time>2026-04-04T13:53:13.497Z</time></trkpt><trkpt lat="45.8185006" lon="9.0579665"><ele>362.0</ele><time>2026-04-04T13:53:14.497Z</time></trkpt><trkpt lat="45.818603" lon="9.0578916"><ele>352.5</ele><time>2026-04-04T13:53:15.496Z</time></trkpt><trkpt lat="45.8187035" lon="9.0578123"><ele>343.0</ele><time>2026-04-04T13:53:16.497Z</time></trkpt><trkpt lat="45.818806" lon="9.0577357"><ele>333.5</ele><time>2026-04-04T13:53:17.497Z</time></trkpt><trkpt lat="45.8189149" lon="9.0576543"><ele>324.0</ele><time>2026-04-04T13:53:18.496Z</time></trkpt><trkpt lat="45.8190234" lon="9.0575722"><ele>324.0</ele><time>2026-04-04T13:53:19.497Z</time></trkpt><trkpt lat="45.8191283" lon="9.0574965"><ele>324.0</ele><time>2026-04-04T13:53:20.497Z</time></trkpt><trkpt lat="45.8192317" lon="9.0574063"><ele>324.0</ele><time>2026-04-04T13:53:21.497Z</time></trkpt><trkpt lat="45.8193289" lon="9.0572959"><ele>324.0</ele><time>2026-04-04T13:53:22.497Z</time></trkpt><trkpt lat="45.8194135" lon="9.0571795"><ele>320.25</ele><time>2026-04-04T13:53:23.497Z</time></trkpt><trkpt lat="45.8195005" lon="9.0570618"><ele>316.5</ele><time>2026-04-04T13:53:24.497Z</time></trkpt><trkpt lat="45.819588" lon="9.0569439"><ele>312.75</ele><time>2026-04-04T13:53:25.497Z</time></trkpt><trkpt lat="45.8196753" lon="9.0568231"><ele>309.0</ele><time>2026-04-04T13:53:26.497Z</time></trkpt><trkpt lat="45.8197596" lon="9.0567055"><ele>314.25</ele><time>2026-04-04T13:53:27.497Z</time></trkpt><trkpt lat="45.8198448" lon="9.0565887"><ele>319.5</ele><time>2026-04-04T13:53:28.496Z</time></trkpt><trkpt lat="45.8199317" lon="9.0564656"><ele>324.75</ele><time>2026-04-04T13:53:29.497Z</time></trkpt><trkpt lat="45.8200181" lon="9.0563436"><ele>330.0</ele><time>2026-04-04T13:53:30.497Z</time></trkpt><trkpt lat="45.8201055" lon="9.0562198"><ele>325.75</ele><time>2026-04-04T13:53:31.497Z</time></trkpt><trkpt lat="45.8201961" lon="9.0560951"><ele>321.5</ele><time>2026-04-04T13:53:32.496Z</time></trkpt><trkpt lat="45.8202832" lon="9.0559672"><ele>317.25</ele><time>2026-04-04T13:53:33.496Z</time></trkpt><trkpt lat="45.8203606" lon="9.055828"><ele>313.0</ele><time>2026-04-04T13:53:34.497Z</time></trkpt><trkpt lat="45.8204225" lon="9.0556803"><ele>313.0</ele><time>2026-04-04T13:53:35.497Z</time></trkpt><trkpt lat="45.8204775" lon="9.0555297"><ele>313.0</ele><time>2026-04-04T13:53:36.496Z</time></trkpt><trkpt lat="45.8205269" lon="9.0553833"><ele>313.0</ele><time>2026-04-04T13:53:37.497Z</time></trkpt><trkpt lat="45.8205735" lon="9.0552391"><ele>313.0</ele><time>2026-04-04T13:53:38.496Z</time></trkpt><trkpt lat="45.8206337" lon="9.0551097"><ele>313.0</ele><time>2026-04-04T13:53:39.497Z</time></trkpt><trkpt lat="45.8207106" lon="9.0550014"><ele>313.0</ele><time>2026-04-04T13:53:40.497Z</time></trkpt><trkpt lat="45.8207979" lon="9.0549184"><ele>313.0</ele><time>2026-04-04T13:53:41.497Z</time></trkpt><trkpt lat="45.8208961" lon="9.0548579"><ele>313.0</ele><time>2026-04-04T13:53:42.497Z</time></trkpt><trkpt lat="45.8210008" lon="9.0548158"><ele>313.0</ele><time>2026-04-04T13:53:43.497Z</time></trkpt><trkpt lat="45.8210959" lon="9.0547821"><ele>313.16666666666663</ele><time>2026-04-04T13:53:44.497Z</time></trkpt><trkpt lat="45.8211852" lon="9.0547506"><ele>313.3333333333333</ele><time>2026-04-04T13:53:45.496Z</time></trkpt><trkpt lat="45.8212669" lon="9.0547225"><ele>313.5</ele><time>2026-04-04T13:53:46.497Z</time></trkpt><trkpt lat="45.8213429" lon="9.0546996"><ele>313.6666666666667</ele><time>2026-04-04T13:53:47.497Z</time></trkpt><trkpt lat="45.8214079" lon="9.0546789"><ele>313.83333333333337</ele><time>2026-04-04T13:53:48.497Z</time></trkpt><trkpt lat="45.8214927" lon="9.0546589"><ele>314.0</ele><time>2026-04-04T13:53:50.497Z</time></trkpt><trkpt lat="45.8215636" lon="9.054682"><ele>314.0</ele><time>2026-04-04T13:53:54.497Z</time></trkpt><trkpt lat="45.8216539" lon="9.0547656"><ele>314.0</ele><time>2026-04-04T13:53:58.497Z</time></trkpt><trkpt lat="45.82174" lon="9.0548649"><ele>314.0</ele><time>2026-04-04T13:54:00.497Z</time></trkpt><trkpt lat="45.8218437" lon="9.0548743"><ele>314.0</ele><time>2026-04-04T13:54:02.497Z</time></trkpt><trkpt lat="45.8219629" lon="9.0548018"><ele>312.0</ele><time>2026-04-04T13:54:04.497Z</time></trkpt><trkpt lat="45.8220333" lon="9.0547501"><ele>310.0</ele><time>2026-04-04T13:54:05.497Z</time></trkpt><trkpt lat="45.8221034" lon="9.0547101"><ele>308.0</ele><time>2026-04-04T13:54:06.497Z</time></trkpt><trkpt lat="45.8221674" lon="9.054682"><ele>306.0</ele><time>2026-04-04T13:54:07.497Z</time></trkpt><trkpt lat="45.8222806" lon="9.0546346"><ele>304.0</ele><time>2026-04-04T13:54:09.497Z</time></trkpt><trkpt lat="45.8223931" lon="9.0545959"><ele>304.0</ele><time>2026-04-04T13:54:11.496Z</time></trkpt><trkpt lat="45.8225103" lon="9.054561"><ele>304.0</ele><time>2026-04-04T13:54:13.496Z</time></trkpt><trkpt lat="45.8226285" lon="9.0545323"><ele>304.0</ele><time>2026-04-04T13:54:15.497Z</time></trkpt><trkpt lat="45.8227399" lon="9.0545094"><ele>304.0</ele><time>2026-04-04T13:54:17.497Z</time></trkpt><trkpt lat="45.822821" lon="9.0545105"><ele>304.0</ele><time>2026-04-04T13:54:19.497Z</time></trkpt><trkpt lat="45.8229099" lon="9.0545512"><ele>304.3333333333333</ele><time>2026-04-04T13:54:22.497Z</time></trkpt><trkpt lat="45.8229795" lon="9.0546009"><ele>304.66666666666663</ele><time>2026-04-04T13:54:25.496Z</time></trkpt><trkpt lat="45.823055" lon="9.0546974"><ele>305.0</ele><time>2026-04-04T13:54:28.495Z</time></trkpt><trkpt lat="45.8230633" lon="9.054818"><ele>305.3333333333333</ele><time>2026-04-04T13:54:30.496Z</time></trkpt><trkpt lat="45.8229996" lon="9.0549347"><ele>305.6666666666667</ele><time>2026-04-04T13:54:32.496Z</time></trkpt><trkpt lat="45.8229547" lon="9.0549997"><ele>306.0</ele><time>2026-04-04T13:54:33.497Z</time></trkpt><trkpt lat="45.8229047" lon="9.05507"><ele>306.3333333333333</ele><time>2026-04-04T13:54:34.497Z</time></trkpt><trkpt lat="45.8228491" lon="9.0551498"><ele>306.6666666666667</ele><time>2026-04-04T13:54:35.496Z</time></trkpt><trkpt lat="45.8227902" lon="9.0552343"><ele>307.0</ele><time>2026-04-04T13:54:36.495Z</time></trkpt><trkpt lat="45.8227325" lon="9.0553141"><ele>307.33333333333337</ele><time>2026-04-04T13:54:37.495Z</time></trkpt><trkpt lat="45.8226765" lon="9.0553891"><ele>307.6666666666667</ele><time>2026-04-04T13:54:38.495Z</time></trkpt><trkpt lat="45.8226202" lon="9.0554634"><ele>308.0</ele><time>2026-04-04T13:54:39.496Z</time></trkpt><trkpt lat="45.8225686" lon="9.0555307"><ele>307.1666666666667</ele><time>2026-04-04T13:54:40.496Z</time></trkpt><trkpt lat="45.82252" lon="9.0555945"><ele>306.33333333333337</ele><time>2026-04-04T13:54:41.495Z</time></trkpt><trkpt lat="45.8224365" lon="9.0556983"><ele>305.5</ele><time>2026-04-04T13:54:43.496Z</time></trkpt><trkpt lat="45.8223725" lon="9.0557496"><ele>304.6666666666667</ele><time>2026-04-04T13:55:41.496Z</time></trkpt><trkpt lat="45.8223042" lon="9.0558377"><ele>303.8333333333333</ele><time>2026-04-04T13:55:44.496Z</time></trkpt><trkpt lat="45.8222748" lon="9.0559176"><ele>303.0</ele><time>2026-04-04T13:55:45.496Z</time></trkpt><trkpt lat="45.8222103" lon="9.0560291"><ele>303.0</ele><time>2026-04-04T13:55:47.496Z</time></trkpt><trkpt lat="45.8221538" lon="9.0560993"><ele>303.0</ele><time>2026-04-04T13:55:50.496Z</time></trkpt><trkpt lat="45.8220982" lon="9.0561778"><ele>303.0</ele><time>2026-04-04T13:55:54.495Z</time></trkpt><trkpt lat="45.8220379" lon="9.0562648"><ele>303.0</ele><time>2026-04-04T13:55:56.495Z</time></trkpt><trkpt lat="45.8219645" lon="9.0563687"><ele>303.0</ele><time>2026-04-04T13:55:58.496Z</time></trkpt><trkpt lat="45.8218723" lon="9.0564903"><ele>303.0</ele><time>2026-04-04T13:56:00.496Z</time></trkpt><trkpt lat="45.821824" lon="9.0565556"><ele>303.0</ele><time>2026-04-04T13:56:01.495Z</time></trkpt><trkpt lat="45.821773" lon="9.0566222"><ele>303.0</ele><time>2026-04-04T13:56:02.496Z</time></trkpt><trkpt lat="45.8217218" lon="9.0566851"><ele>303.0</ele><time>2026-04-04T13:56:03.496Z</time></trkpt><trkpt lat="45.8216661" lon="9.0567621"><ele>303.0</ele><time>2026-04-04T13:56:04.496Z</time></trkpt><trkpt lat="45.8216044" lon="9.0568529"><ele>303.0</ele><time>2026-04-04T13:56:05.495Z</time></trkpt><trkpt lat="45.8215389" lon="9.0569409"><ele>302.0</ele><time>2026-04-04T13:56:06.496Z</time></trkpt><trkpt lat="45.821468" lon="9.0570395"><ele>301.0</ele><time>2026-04-04T13:56:07.496Z</time></trkpt><trkpt lat="45.8213919" lon="9.0571453"><ele>300.0</ele><time>2026-04-04T13:56:08.496Z</time></trkpt><trkpt lat="45.8213128" lon="9.05725"><ele>299.0</ele><time>2026-04-04T13:56:09.495Z</time></trkpt><trkpt lat="45.8212294" lon="9.0573564"><ele>298.0</ele><time>2026-04-04T13:56:10.496Z</time></trkpt><trkpt lat="45.8211444" lon="9.0574642"><ele>298.0</ele><time>2026-04-04T13:56:11.496Z</time></trkpt><trkpt lat="45.8210648" lon="9.0575773"><ele>298.0</ele><time>2026-04-04T13:56:12.496Z</time></trkpt><trkpt lat="45.820999" lon="9.057697"><ele>298.0</ele><time>2026-04-04T13:56:13.496Z</time></trkpt><trkpt lat="45.8209495" lon="9.0578216"><ele>298.0</ele><time>2026-04-04T13:56:14.496Z</time></trkpt><trkpt lat="45.8209245" lon="9.0579503"><ele>298.0</ele><time>2026-04-04T13:56:15.496Z</time></trkpt><trkpt lat="45.8209216" lon="9.0580802"><ele>298.0</ele><time>2026-04-04T13:56:16.496Z</time></trkpt><trkpt lat="45.8209387" lon="9.0582097"><ele>298.0</ele><time>2026-04-04T13:56:17.496Z</time></trkpt><trkpt lat="45.8209798" lon="9.0583372"><ele>298.0</ele><time>2026-04-04T13:56:18.496Z</time></trkpt><trkpt lat="45.8210433" lon="9.0584624"><ele>298.0</ele><time>2026-04-04T13:56:19.495Z</time></trkpt><trkpt lat="45.8211219" lon="9.0585902"><ele>298.0</ele><time>2026-04-04T13:56:20.495Z</time></trkpt><trkpt lat="45.8212074" lon="9.0587223"><ele>298.0</ele><time>2026-04-04T13:56:21.496Z</time></trkpt><trkpt lat="45.8212957" lon="9.0588544"><ele>298.0</ele><time>2026-04-04T13:56:22.496Z</time></trkpt><trkpt lat="45.8213796" lon="9.0589814"><ele>298.0</ele><time>2026-04-04T13:56:23.496Z</time></trkpt><trkpt lat="45.8214614" lon="9.0591097"><ele>298.0</ele><time>2026-04-04T13:56:24.496Z</time></trkpt><trkpt lat="45.8215438" lon="9.0592348"><ele>295.5</ele><time>2026-04-04T13:56:25.496Z</time></trkpt><trkpt lat="45.8216279" lon="9.0593575"><ele>293.0</ele><time>2026-04-04T13:56:26.496Z</time></trkpt><trkpt lat="45.8217114" lon="9.0594833"><ele>290.5</ele><time>2026-04-04T13:56:27.496Z</time></trkpt><trkpt lat="45.8217919" lon="9.0596027"><ele>288.0</ele><time>2026-04-04T13:56:28.496Z</time></trkpt><trkpt lat="45.8218634" lon="9.0597172"><ele>289.4</ele><time>2026-04-04T13:56:29.496Z</time></trkpt><trkpt lat="45.8219301" lon="9.0598353"><ele>290.8</ele><time>2026-04-04T13:56:30.496Z</time></trkpt><trkpt lat="45.8219867" lon="9.0599589"><ele>292.2</ele><time>2026-04-04T13:56:31.496Z</time></trkpt><trkpt lat="45.8220372" lon="9.0601029"><ele>293.6</ele><time>2026-04-04T13:56:32.496Z</time></trkpt><trkpt lat="45.8220816" lon="9.0602644"><ele>295.0</ele><time>2026-04-04T13:56:33.496Z</time></trkpt><trkpt lat="45.8221195" lon="9.0604313"><ele>295.0</ele><time>2026-04-04T13:56:34.496Z</time></trkpt><trkpt lat="45.8221499" lon="9.0605899"><ele>295.0</ele><time>2026-04-04T13:56:35.495Z</time></trkpt><trkpt lat="45.822176" lon="9.0607439"><ele>295.0</ele><time>2026-04-04T13:56:36.496Z</time></trkpt><trkpt lat="45.8222007" lon="9.0608953"><ele>295.0</ele><time>2026-04-04T13:56:37.496Z</time></trkpt><trkpt lat="45.8222251" lon="9.0610421"><ele>295.0</ele><time>2026-04-04T13:56:38.496Z</time></trkpt><trkpt lat="45.822249" lon="9.0611879"><ele>293.5</ele><time>2026-04-04T13:56:39.496Z</time></trkpt><trkpt lat="45.8222727" lon="9.0613318"><ele>292.0</ele><time>2026-04-04T13:56:40.495Z</time></trkpt><trkpt lat="45.8222947" lon="9.0614742"><ele>290.5</ele><time>2026-04-04T13:56:41.496Z</time></trkpt><trkpt lat="45.8223019" lon="9.0616002"><ele>289.0</ele><time>2026-04-04T13:56:42.496Z</time></trkpt><trkpt lat="45.8222851" lon="9.061709"><ele>287.5</ele><time>2026-04-04T13:56:43.496Z</time></trkpt><trkpt lat="45.8222419" lon="9.0617955"><ele>286.0</ele><time>2026-04-04T13:56:44.496Z</time></trkpt><trkpt lat="45.822179" lon="9.0618446"><ele>285.99999999999994</ele><time>2026-04-04T13:56:45.496Z</time></trkpt><trkpt lat="45.8221071" lon="9.0618544"><ele>286.0</ele><time>2026-04-04T13:56:46.496Z</time></trkpt><trkpt lat="45.8220383" lon="9.0618276"><ele>286.0</ele><time>2026-04-04T13:56:47.496Z</time></trkpt><trkpt lat="45.8219802" lon="9.0617687"><ele>286.0</ele><time>2026-04-04T13:56:48.496Z</time></trkpt><trkpt lat="45.8219453" lon="9.0616765"><ele>286.0</ele><time>2026-04-04T13:56:49.496Z</time></trkpt><trkpt lat="45.8219283" lon="9.0615682"><ele>285.99999999999994</ele><time>2026-04-04T13:56:50.496Z</time></trkpt><trkpt lat="45.8219151" lon="9.0614518"><ele>286.0</ele><time>2026-04-04T13:56:51.496Z</time></trkpt><trkpt lat="45.8219014" lon="9.0613214"><ele>286.0</ele><time>2026-04-04T13:56:52.496Z</time></trkpt><trkpt lat="45.8218743" lon="9.061194"><ele>286.0</ele><time>2026-04-04T13:56:53.496Z</time></trkpt><trkpt lat="45.8218306" lon="9.0610714"><ele>286.0</ele><time>2026-04-04T13:56:54.496Z</time></trkpt><trkpt lat="45.8217756" lon="9.0609616"><ele>286.0</ele><time>2026-04-04T13:56:55.495Z</time></trkpt><trkpt lat="45.8217188" lon="9.0608588"><ele>286.0</ele><time>2026-04-04T13:56:56.496Z</time></trkpt><trkpt lat="45.8216603" lon="9.0607563"><ele>282.8</ele><time>2026-04-04T13:56:57.496Z</time></trkpt><trkpt lat="45.8216014" lon="9.0606502"><ele>279.6</ele><time>2026-04-04T13:56:58.496Z</time></trkpt><trkpt lat="45.8215387" lon="9.0605411"><ele>276.4</ele><time>2026-04-04T13:56:59.496Z</time></trkpt><trkpt lat="45.8214725" lon="9.0604286"><ele>273.2</ele><time>2026-04-04T13:57:00.496Z</time></trkpt><trkpt lat="45.8214079" lon="9.0603255"><ele>270.0</ele><time>2026-04-04T13:57:01.496Z</time></trkpt><trkpt lat="45.8213426" lon="9.0602395"><ele>270.0</ele><time>2026-04-04T13:57:02.495Z</time></trkpt><trkpt lat="45.8212653" lon="9.060186"><ele>270.0</ele><time>2026-04-04T13:57:03.496Z</time></trkpt><trkpt lat="45.8211802" lon="9.0601686"><ele>270.0</ele><time>2026-04-04T13:57:04.495Z</time></trkpt><trkpt lat="45.8210956" lon="9.0601883"><ele>270.0</ele><time>2026-04-04T13:57:05.496Z</time></trkpt><trkpt lat="45.8210182" lon="9.0602465"><ele>270.0</ele><time>2026-04-04T13:57:06.496Z</time></trkpt><trkpt lat="45.8209515" lon="9.0603346"><ele>270.0</ele><time>2026-04-04T13:57:07.496Z</time></trkpt><trkpt lat="45.8208879" lon="9.0604438"><ele>268.2</ele><time>2026-04-04T13:57:08.496Z</time></trkpt><trkpt lat="45.8208198" lon="9.0605503"><ele>266.4</ele><time>2026-04-04T13:57:09.496Z</time></trkpt><trkpt lat="45.8207394" lon="9.0606339"><ele>264.6</ele><time>2026-04-04T13:57:10.496Z</time></trkpt><trkpt lat="45.8206465" lon="9.0606872"><ele>262.8</ele><time>2026-04-04T13:57:11.495Z</time></trkpt><trkpt lat="45.8205466" lon="9.0607162"><ele>261.0</ele><time>2026-04-04T13:57:12.496Z</time></trkpt><trkpt lat="45.8204406" lon="9.0607342"><ele>261.0</ele><time>2026-04-04T13:57:13.496Z</time></trkpt><trkpt lat="45.8203341" lon="9.0607446"><ele>261.0</ele><time>2026-04-04T13:57:14.496Z</time></trkpt><trkpt lat="45.8202283" lon="9.0607529"><ele>261.0</ele><time>2026-04-04T13:57:15.496Z</time></trkpt><trkpt lat="45.8201202" lon="9.0607632"><ele>261.0</ele><time>2026-04-04T13:57:16.496Z</time></trkpt><trkpt lat="45.8200142" lon="9.0607708"><ele>261.0</ele><time>2026-04-04T13:57:17.496Z</time></trkpt><trkpt lat="45.8199084" lon="9.0607785"><ele>257.6666666666667</ele><time>2026-04-04T13:57:18.496Z</time></trkpt><trkpt lat="45.819814" lon="9.0607886"><ele>254.33333333333331</ele><time>2026-04-04T13:57:19.496Z</time></trkpt><trkpt lat="45.819731" lon="9.0608069"><ele>251.0</ele><time>2026-04-04T13:57:20.495Z</time></trkpt><trkpt lat="45.819655" lon="9.0608366"><ele>247.66666666666666</ele><time>2026-04-04T13:57:21.496Z</time></trkpt><trkpt lat="45.8195913" lon="9.0608937"><ele>244.33333333333331</ele><time>2026-04-04T13:57:22.496Z</time></trkpt><trkpt lat="45.8195406" lon="9.0609783"><ele>241.0</ele><time>2026-04-04T13:57:23.496Z</time></trkpt><trkpt lat="45.819498" lon="9.0610771"><ele>241.0</ele><time>2026-04-04T13:57:24.496Z</time></trkpt><trkpt lat="45.8194563" lon="9.061189"><ele>241.00000000000003</ele><time>2026-04-04T13:57:25.496Z</time></trkpt><trkpt lat="45.8194158" lon="9.0613063"><ele>241.00000000000003</ele><time>2026-04-04T13:57:26.496Z</time></trkpt><trkpt lat="45.8193742" lon="9.0614275"><ele>241.0</ele><time>2026-04-04T13:57:27.495Z</time></trkpt><trkpt lat="45.819333" lon="9.0615435"><ele>241.0</ele><time>2026-04-04T13:57:28.496Z</time></trkpt><trkpt lat="45.8192924" lon="9.0616557"><ele>238.83333333333331</ele><time>2026-04-04T13:57:29.495Z</time></trkpt><trkpt lat="45.8192549" lon="9.0617642"><ele>236.66666666666666</ele><time>2026-04-04T13:57:30.496Z</time></trkpt><trkpt lat="45.8192156" lon="9.0618724"><ele>234.5</ele><time>2026-04-04T13:57:31.496Z</time></trkpt><trkpt lat="45.8191777" lon="9.0619797"><ele>232.33333333333331</ele><time>2026-04-04T13:57:32.496Z</time></trkpt><trkpt lat="45.8191412" lon="9.0620861"><ele>230.16666666666666</ele><time>2026-04-04T13:57:33.496Z</time></trkpt><trkpt lat="45.8191032" lon="9.0621922"><ele>228.0</ele><time>2026-04-04T13:57:34.496Z</time></trkpt><trkpt lat="45.8190644" lon="9.0623032"><ele>228.0</ele><time>2026-04-04T13:57:35.496Z</time></trkpt><trkpt lat="45.8190264" lon="9.0624083"><ele>228.0</ele><time>2026-04-04T13:57:36.496Z</time></trkpt><trkpt lat="45.8189904" lon="9.0625078"><ele>228.0</ele><time>2026-04-04T13:57:37.496Z</time></trkpt><trkpt lat="45.8189585" lon="9.0625929"><ele>228.0</ele><time>2026-04-04T13:57:38.496Z</time></trkpt><trkpt lat="45.8189069" lon="9.0627283"><ele>228.0</ele><time>2026-04-04T13:57:40.495Z</time></trkpt><trkpt lat="45.8188771" lon="9.062815"><ele>228.0</ele><time>2026-04-04T13:57:43.496Z</time></trkpt><trkpt lat="45.8188581" lon="9.062918"><ele>227.16666666666666</ele><time>2026-04-04T13:57:46.496Z</time></trkpt><trkpt lat="45.8188384" lon="9.0630099"><ele>226.33333333333331</ele><time>2026-04-04T13:57:51.496Z</time></trkpt><trkpt lat="45.8188235" lon="9.0630995"><ele>225.5</ele><time>2026-04-04T13:57:53.496Z</time></trkpt><trkpt lat="45.8188359" lon="9.06321"><ele>224.66666666666666</ele><time>2026-04-04T13:57:55.496Z</time></trkpt><trkpt lat="45.8189215" lon="9.0632824"><ele>223.83333333333331</ele><time>2026-04-04T13:57:57.495Z</time></trkpt><trkpt lat="45.8190428" lon="9.0632803"><ele>223.0</ele><time>2026-04-04T13:57:59.496Z</time></trkpt><trkpt lat="45.8191181" lon="9.0632839"><ele>222.66666666666666</ele><time>2026-04-04T13:58:00.496Z</time></trkpt><trkpt lat="45.8191954" lon="9.0632909"><ele>222.33333333333331</ele><time>2026-04-04T13:58:01.496Z</time></trkpt><trkpt lat="45.8192756" lon="9.0633056"><ele>222.0</ele><time>2026-04-04T13:58:02.496Z</time></trkpt><trkpt lat="45.8193521" lon="9.0633289"><ele>221.66666666666669</ele><time>2026-04-04T13:58:03.496Z</time></trkpt><trkpt lat="45.8194289" lon="9.0633632"><ele>221.33333333333334</ele><time>2026-04-04T13:58:04.496Z</time></trkpt><trkpt lat="45.8194975" lon="9.0634092"><ele>221.0</ele><time>2026-04-04T13:58:05.495Z</time></trkpt><trkpt lat="45.8195625" lon="9.0634586"><ele>220.85714285714286</ele><time>2026-04-04T13:58:06.496Z</time></trkpt><trkpt lat="45.8196233" lon="9.0635134"><ele>220.71428571428572</ele><time>2026-04-04T13:58:07.496Z</time></trkpt><trkpt lat="45.8196785" lon="9.0635746"><ele>220.57142857142856</ele><time>2026-04-04T13:58:08.496Z</time></trkpt><trkpt lat="45.8197317" lon="9.063641"><ele>220.42857142857144</ele><time>2026-04-04T13:58:09.496Z</time></trkpt><trkpt lat="45.8197795" lon="9.0637151"><ele>220.28571428571428</ele><time>2026-04-04T13:58:10.496Z</time></trkpt><trkpt lat="45.8198228" lon="9.0638003"><ele>220.14285714285714</ele><time>2026-04-04T13:58:11.496Z</time></trkpt><trkpt lat="45.8198639" lon="9.0638944"><ele>220.0</ele><time>2026-04-04T13:58:12.496Z</time></trkpt><trkpt lat="45.8198982" lon="9.0639875"><ele>219.99999999999997</ele><time>2026-04-04T13:58:13.496Z</time></trkpt><trkpt lat="45.8199291" lon="9.0640861"><ele>220.0</ele><time>2026-04-04T13:58:14.496Z</time></trkpt><trkpt lat="45.8199637" lon="9.064186"><ele>220.0</ele><time>2026-04-04T13:58:15.496Z</time></trkpt><trkpt lat="45.8199973" lon="9.0642907"><ele>220.0</ele><time>2026-04-04T13:58:16.496Z</time></trkpt><trkpt lat="45.8200343" lon="9.064403"><ele>219.99999999999997</ele><time>2026-04-04T13:58:17.496Z</time></trkpt><trkpt lat="45.820076" lon="9.0645261"><ele>220.0</ele><time>2026-04-04T13:58:18.497Z</time></trkpt><trkpt lat="45.8201236" lon="9.0646596"><ele>221.6</ele><time>2026-04-04T13:58:19.496Z</time></trkpt><trkpt lat="45.8201718" lon="9.0647966"><ele>223.2</ele><time>2026-04-04T13:58:20.496Z</time></trkpt><trkpt lat="45.8202157" lon="9.0649254"><ele>224.8</ele><time>2026-04-04T13:58:21.495Z</time></trkpt><trkpt lat="45.820257" lon="9.065048"><ele>226.4</ele><time>2026-04-04T13:58:22.496Z</time></trkpt><trkpt lat="45.8202986" lon="9.0651748"><ele>228.0</ele><time>2026-04-04T13:58:23.496Z</time></trkpt><trkpt lat="45.8203439" lon="9.0653113"><ele>228.0</ele><time>2026-04-04T13:58:24.496Z</time></trkpt><trkpt lat="45.8203928" lon="9.0654548"><ele>228.0</ele><time>2026-04-04T13:58:25.496Z</time></trkpt><trkpt lat="45.8204458" lon="9.0656026"><ele>228.0</ele><time>2026-04-04T13:58:26.496Z</time></trkpt><trkpt lat="45.820498" lon="9.0657565"><ele>228.0</ele><time>2026-04-04T13:58:27.496Z</time></trkpt><trkpt lat="45.8205469" lon="9.0659043"><ele>226.4</ele><time>2026-04-04T13:58:28.496Z</time></trkpt><trkpt lat="45.8205949" lon="9.0660471"><ele>224.8</ele><time>2026-04-04T13:58:29.495Z</time></trkpt><trkpt lat="45.820646" lon="9.0661902"><ele>223.2</ele><time>2026-04-04T13:58:30.496Z</time></trkpt><trkpt lat="45.8207031" lon="9.0663273"><ele>221.6</ele><time>2026-04-04T13:58:31.496Z</time></trkpt><trkpt lat="45.8207697" lon="9.0664445"><ele>220.0</ele><time>2026-04-04T13:58:32.496Z</time></trkpt><trkpt lat="45.8208401" lon="9.0665519"><ele>219.8</ele><time>2026-04-04T13:58:33.495Z</time></trkpt><trkpt lat="45.8209249" lon="9.0666478"><ele>219.6</ele><time>2026-04-04T13:58:34.496Z</time></trkpt><trkpt lat="45.8210198" lon="9.0667294"><ele>219.39999999999998</ele><time>2026-04-04T13:58:35.496Z</time></trkpt><trkpt lat="45.8211126" lon="9.0667939"><ele>219.2</ele><time>2026-04-04T13:58:36.496Z</time></trkpt><trkpt lat="45.8211977" lon="9.0668473"><ele>219.0</ele><time>2026-04-04T13:58:37.496Z</time></trkpt><trkpt lat="45.8212838" lon="9.066896"><ele>219.0</ele><time>2026-04-04T13:58:38.496Z</time></trkpt><trkpt lat="45.8213714" lon="9.0669428"><ele>218.99999999999997</ele><time>2026-04-04T13:58:39.496Z</time></trkpt><trkpt lat="45.8214621" lon="9.0669933"><ele>218.99999999999997</ele><time>2026-04-04T13:58:40.496Z</time></trkpt><trkpt lat="45.8215518" lon="9.0670422"><ele>219.0</ele><time>2026-04-04T13:58:41.495Z</time></trkpt><trkpt lat="45.8216372" lon="9.0670898"><ele>219.0</ele><time>2026-04-04T13:58:42.496Z</time></trkpt><trkpt lat="45.8217265" lon="9.0671417"><ele>225.0</ele><time>2026-04-04T13:58:43.496Z</time></trkpt><trkpt lat="45.8218234" lon="9.0671977"><ele>231.0</ele><time>2026-04-04T13:58:44.496Z</time></trkpt><trkpt lat="45.8219274" lon="9.0672616"><ele>237.0</ele><time>2026-04-04T13:58:45.496Z</time></trkpt><trkpt lat="45.8220338" lon="9.0673311"><ele>243.0</ele><time>2026-04-04T13:58:46.496Z</time></trkpt><trkpt lat="45.822142" lon="9.0674076"><ele>235.75</ele><time>2026-04-04T13:58:47.496Z</time></trkpt><trkpt lat="45.82225" lon="9.0674877"><ele>228.5</ele><time>2026-04-04T13:58:48.496Z</time></trkpt><trkpt lat="45.8223565" lon="9.0675726"><ele>221.25</ele><time>2026-04-04T13:58:49.496Z</time></trkpt><trkpt lat="45.8224681" lon="9.0676515"><ele>214.0</ele><time>2026-04-04T13:58:50.496Z</time></trkpt><trkpt lat="45.8225858" lon="9.067711"><ele>216.25</ele><time>2026-04-04T13:58:51.496Z</time></trkpt><trkpt lat="45.8227073" lon="9.0677523"><ele>218.5</ele><time>2026-04-04T13:58:52.496Z</time></trkpt><trkpt lat="45.8228276" lon="9.0677753"><ele>220.75</ele><time>2026-04-04T13:58:53.496Z</time></trkpt><trkpt lat="45.8229391" lon="9.06779"><ele>223.0</ele><time>2026-04-04T13:58:54.496Z</time></trkpt><trkpt lat="45.823047" lon="9.0678021"><ele>223.0</ele><time>2026-04-04T13:58:55.496Z</time></trkpt><trkpt lat="45.8231559" lon="9.0678139"><ele>223.0</ele><time>2026-04-04T13:58:56.496Z</time></trkpt><trkpt lat="45.8232692" lon="9.0678233"><ele>223.0</ele><time>2026-04-04T13:58:57.496Z</time></trkpt><trkpt lat="45.8233811" lon="9.067834"><ele>223.0</ele><time>2026-04-04T13:58:58.495Z</time></trkpt><trkpt lat="45.8234908" lon="9.0678526"><ele>223.0</ele><time>2026-04-04T13:58:59.495Z</time></trkpt><trkpt lat="45.8235982" lon="9.0678787"><ele>226.8</ele><time>2026-04-04T13:59:00.496Z</time></trkpt><trkpt lat="45.8237024" lon="9.0679124"><ele>230.60000000000002</ele><time>2026-04-04T13:59:01.496Z</time></trkpt><trkpt lat="45.8238055" lon="9.0679535"><ele>234.39999999999998</ele><time>2026-04-04T13:59:02.495Z</time></trkpt><trkpt lat="45.8239111" lon="9.0680046"><ele>238.2</ele><time>2026-04-04T13:59:03.496Z</time></trkpt><trkpt lat="45.8240135" lon="9.0680566"><ele>242.0</ele><time>2026-04-04T13:59:04.496Z</time></trkpt><trkpt lat="45.8241156" lon="9.0681069"><ele>242.0</ele><time>2026-04-04T13:59:05.495Z</time></trkpt><trkpt lat="45.8242161" lon="9.068158"><ele>242.0</ele><time>2026-04-04T13:59:06.496Z</time></trkpt><trkpt lat="45.8243147" lon="9.0682086"><ele>242.0</ele><time>2026-04-04T13:59:07.496Z</time></trkpt><trkpt lat="45.8244132" lon="9.0682582"><ele>242.0</ele><time>2026-04-04T13:59:08.496Z</time></trkpt><trkpt lat="45.8245108" lon="9.0683074"><ele>242.0</ele><time>2026-04-04T13:59:09.496Z</time></trkpt><trkpt lat="45.8246102" lon="9.0683505"><ele>236.0</ele><time>2026-04-04T13:59:10.496Z</time></trkpt><trkpt lat="45.8247145" lon="9.0683848"><ele>230.0</ele><time>2026-04-04T13:59:11.496Z</time></trkpt><trkpt lat="45.8248207" lon="9.0684097"><ele>224.0</ele><time>2026-04-04T13:59:12.495Z</time></trkpt><trkpt lat="45.8249274" lon="9.068421"><ele>218.0</ele><time>2026-04-04T13:59:13.496Z</time></trkpt><trkpt lat="45.8250347" lon="9.0684267"><ele>212.0</ele><time>2026-04-04T13:59:14.496Z</time></trkpt><trkpt lat="45.8251428" lon="9.068429"><ele>213.2</ele><time>2026-04-04T13:59:15.496Z</time></trkpt><trkpt lat="45.8252485" lon="9.0684304"><ele>214.39999999999998</ele><time>2026-04-04T13:59:16.496Z</time></trkpt><trkpt lat="45.8253449" lon="9.0684328"><ele>215.60000000000002</ele><time>2026-04-04T13:59:17.496Z</time></trkpt><trkpt lat="45.8254433" lon="9.0684343"><ele>216.8</ele><time>2026-04-04T13:59:18.496Z</time></trkpt><trkpt lat="45.8255468" lon="9.0684389"><ele>218.0</ele><time>2026-04-04T13:59:19.497Z</time></trkpt><trkpt lat="45.825659" lon="9.0684516"><ele>218.0</ele><time>2026-04-04T13:59:20.496Z</time></trkpt><trkpt lat="45.8257752" lon="9.0684738"><ele>218.0</ele><time>2026-04-04T13:59:21.495Z</time></trkpt><trkpt lat="45.8258868" lon="9.0685111"><ele>218.0</ele><time>2026-04-04T13:59:22.496Z</time></trkpt><trkpt lat="45.8259917" lon="9.0685608"><ele>218.0</ele><time>2026-04-04T13:59:23.496Z</time></trkpt><trkpt lat="45.8260922" lon="9.0686175"><ele>223.60000000000002</ele><time>2026-04-04T13:59:24.496Z</time></trkpt><trkpt lat="45.8261871" lon="9.0686848"><ele>229.20000000000002</ele><time>2026-04-04T13:59:25.496Z</time></trkpt><trkpt lat="45.826277" lon="9.0687612"><ele>234.8</ele><time>2026-04-04T13:59:26.496Z</time></trkpt><trkpt lat="45.8263625" lon="9.0688393"><ele>240.4</ele><time>2026-04-04T13:59:27.496Z</time></trkpt><trkpt lat="45.8264471" lon="9.0689112"><ele>246.0</ele><time>2026-04-04T13:59:28.495Z</time></trkpt><trkpt lat="45.8265317" lon="9.0689848"><ele>246.0</ele><time>2026-04-04T13:59:29.496Z</time></trkpt><trkpt lat="45.8266184" lon="9.0690621"><ele>246.00000000000003</ele><time>2026-04-04T13:59:30.496Z</time></trkpt><trkpt lat="45.8267121" lon="9.0691426"><ele>246.00000000000003</ele><time>2026-04-04T13:59:31.496Z</time></trkpt><trkpt lat="45.8268103" lon="9.0692252"><ele>246.0</ele><time>2026-04-04T13:59:32.496Z</time></trkpt><trkpt lat="45.8269106" lon="9.0693061"><ele>246.0</ele><time>2026-04-04T13:59:33.496Z</time></trkpt><trkpt lat="45.8270129" lon="9.0693849"><ele>245.0</ele><time>2026-04-04T13:59:34.496Z</time></trkpt><trkpt lat="45.8271097" lon="9.0694674"><ele>244.00000000000003</ele><time>2026-04-04T13:59:35.496Z</time></trkpt><trkpt lat="45.827204" lon="9.0695489"><ele>243.00000000000003</ele><time>2026-04-04T13:59:36.496Z</time></trkpt><trkpt lat="45.8272927" lon="9.0696268"><ele>242.0</ele><time>2026-04-04T13:59:37.496Z</time></trkpt><trkpt lat="45.8273761" lon="9.069696"><ele>241.0</ele><time>2026-04-04T13:59:38.496Z</time></trkpt><trkpt lat="45.8274497" lon="9.0697556"><ele>240.99999999999997</ele><time>2026-04-04T13:59:39.496Z</time></trkpt><trkpt lat="45.8275187" lon="9.0698104"><ele>241.0</ele><time>2026-04-04T13:59:40.495Z</time></trkpt><trkpt lat="45.8275874" lon="9.0698616"><ele>241.0</ele><time>2026-04-04T13:59:41.496Z</time></trkpt><trkpt lat="45.8276561" lon="9.069902"><ele>241.0</ele><time>2026-04-04T13:59:42.496Z</time></trkpt><trkpt lat="45.8277537" lon="9.069956"><ele>240.99999999999997</ele><time>2026-04-04T13:59:44.496Z</time></trkpt><trkpt lat="45.8278315" lon="9.0699895"><ele>241.0</ele><time>2026-04-04T13:59:46.496Z</time></trkpt><trkpt lat="45.8279206" lon="9.0700032"><ele>238.16666666666666</ele><time>2026-04-04T13:59:48.496Z</time></trkpt><trkpt lat="45.8280465" lon="9.0700082"><ele>235.33333333333331</ele><time>2026-04-04T13:59:50.496Z</time></trkpt><trkpt lat="45.8281125" lon="9.0700141"><ele>232.5</ele><time>2026-04-04T13:59:51.494Z</time></trkpt><trkpt lat="45.8281786" lon="9.0700194"><ele>229.66666666666669</ele><time>2026-04-04T13:59:52.495Z</time></trkpt><trkpt lat="45.8282474" lon="9.0700254"><ele>226.83333333333334</ele><time>2026-04-04T13:59:53.495Z</time></trkpt><trkpt lat="45.8283207" lon="9.070033"><ele>224.0</ele><time>2026-04-04T13:59:54.495Z</time></trkpt><trkpt lat="45.8283999" lon="9.0700356"><ele>227.66666666666669</ele><time>2026-04-04T13:59:55.494Z</time></trkpt><trkpt lat="45.8284826" lon="9.0700494"><ele>231.33333333333334</ele><time>2026-04-04T13:59:57.495Z</time></trkpt><trkpt lat="45.8285447" lon="9.0700849"><ele>235.0</ele><time>2026-04-04T14:00:01.495Z</time></trkpt><trkpt lat="45.8286278" lon="9.0701382"><ele>238.66666666666669</ele><time>2026-04-04T14:00:04.495Z</time></trkpt><trkpt lat="45.8286999" lon="9.0702009"><ele>242.33333333333334</ele><time>2026-04-04T14:00:06.494Z</time></trkpt><trkpt lat="45.8287853" lon="9.0702708"><ele>246.0</ele><time>2026-04-04T14:00:08.495Z</time></trkpt><trkpt lat="45.8288638" lon="9.0703761"><ele>246.00000000000003</ele><time>2026-04-04T14:00:10.495Z</time></trkpt><trkpt lat="45.8289089" lon="9.0704409"><ele>246.0</ele><time>2026-04-04T14:00:11.495Z</time></trkpt><trkpt lat="45.8289536" lon="9.0705059"><ele>246.00000000000003</ele><time>2026-04-04T14:00:12.495Z</time></trkpt><trkpt lat="45.8290006" lon="9.0705688"><ele>246.00000000000003</ele><time>2026-04-04T14:00:13.495Z</time></trkpt><trkpt lat="45.8290506" lon="9.0706312"><ele>246.0</ele><time>2026-04-04T14:00:14.495Z</time></trkpt><trkpt lat="45.8291012" lon="9.0706975"><ele>246.00000000000003</ele><time>2026-04-04T14:00:15.495Z</time></trkpt><trkpt lat="45.8291544" lon="9.0707716"><ele>246.00000000000003</ele><time>2026-04-04T14:00:16.495Z</time></trkpt><trkpt lat="45.8292189" lon="9.0708576"><ele>244.20000000000002</ele><time>2026-04-04T14:00:17.495Z</time></trkpt><trkpt lat="45.8292919" lon="9.0709472"><ele>242.40000000000003</ele><time>2026-04-04T14:00:18.495Z</time></trkpt><trkpt lat="45.8293633" lon="9.0710338"><ele>240.6</ele><time>2026-04-04T14:00:19.495Z</time></trkpt><trkpt lat="45.8294357" lon="9.0711187"><ele>238.8</ele><time>2026-04-04T14:00:20.495Z</time></trkpt><trkpt lat="45.8295034" lon="9.0711925"><ele>237.0</ele><time>2026-04-04T14:00:21.495Z</time></trkpt><trkpt lat="45.8295747" lon="9.07126"><ele>237.0</ele><time>2026-04-04T14:00:22.495Z</time></trkpt><trkpt lat="45.829643" lon="9.0713167"><ele>237.0</ele><time>2026-04-04T14:00:23.495Z</time></trkpt><trkpt lat="45.8297069" lon="9.0713668"><ele>237.0</ele><time>2026-04-04T14:00:24.495Z</time></trkpt><trkpt lat="45.8297636" lon="9.071407"><ele>237.0</ele><time>2026-04-04T14:00:25.495Z</time></trkpt><trkpt lat="45.8298661" lon="9.071479"><ele>237.0</ele><time>2026-04-04T14:00:27.495Z</time></trkpt><trkpt lat="45.829965" lon="9.0715552"><ele>237.0</ele><time>2026-04-04T14:00:29.494Z</time></trkpt><trkpt lat="45.8300439" lon="9.0716114"><ele>233.83333333333334</ele><time>2026-04-04T14:00:31.494Z</time></trkpt><trkpt lat="45.8301142" lon="9.0716621"><ele>230.66666666666669</ele><time>2026-04-04T14:00:33.495Z</time></trkpt><trkpt lat="45.8301857" lon="9.0717175"><ele>227.5</ele><time>2026-04-04T14:00:35.494Z</time></trkpt><trkpt lat="45.830261" lon="9.0717734"><ele>224.33333333333334</ele><time>2026-04-04T14:00:37.495Z</time></trkpt><trkpt lat="45.8303351" lon="9.0718252"><ele>221.16666666666669</ele><time>2026-04-04T14:00:39.495Z</time></trkpt><trkpt lat="45.830408" lon="9.071873"><ele>218.0</ele><time>2026-04-04T14:00:41.495Z</time></trkpt><trkpt lat="45.8304867" lon="9.0719174"><ele>216.8</ele><time>2026-04-04T14:00:43.494Z</time></trkpt><trkpt lat="45.8305811" lon="9.0719546"><ele>215.60000000000002</ele><time>2026-04-04T14:00:45.495Z</time></trkpt><trkpt lat="45.8307012" lon="9.0719811"><ele>214.39999999999998</ele><time>2026-04-04T14:00:47.495Z</time></trkpt><trkpt lat="45.8308157" lon="9.072008"><ele>213.2</ele><time>2026-04-04T14:00:49.495Z</time></trkpt><trkpt lat="45.8308789" lon="9.0720197"><ele>212.0</ele><time>2026-04-04T14:00:50.495Z</time></trkpt><trkpt lat="45.8309475" lon="9.072025"><ele>210.33333333333334</ele><time>2026-04-04T14:00:51.494Z</time></trkpt><trkpt lat="45.831014" lon="9.0720237"><ele>208.66666666666669</ele><time>2026-04-04T14:00:52.495Z</time></trkpt><trkpt lat="45.8310783" lon="9.0720193"><ele>207.0</ele><time>2026-04-04T14:00:53.495Z</time></trkpt><trkpt lat="45.8311734" lon="9.0720068"><ele>205.33333333333331</ele><time>2026-04-04T14:00:55.494Z</time></trkpt><trkpt lat="45.8312696" lon="9.0719818"><ele>203.66666666666666</ele><time>2026-04-04T14:00:57.495Z</time></trkpt><trkpt lat="45.8313635" lon="9.0719637"><ele>202.0</ele><time>2026-04-04T14:00:59.494Z</time></trkpt><trkpt lat="45.8314753" lon="9.0719363"><ele>202.0</ele><time>2026-04-04T14:01:01.495Z</time></trkpt><trkpt lat="45.8315868" lon="9.071918"><ele>202.0</ele><time>2026-04-04T14:01:03.495Z</time></trkpt><trkpt lat="45.8316751" lon="9.0719044"><ele>202.0</ele><time>2026-04-04T14:01:05.495Z</time></trkpt><trkpt lat="45.8317517" lon="9.0718924"><ele>202.0</ele><time>2026-04-04T14:01:07.495Z</time></trkpt><trkpt lat="45.8318326" lon="9.0718857"><ele>202.0</ele><time>2026-04-04T14:01:10.495Z</time></trkpt><trkpt lat="45.8319305" lon="9.0718728"><ele>202.6</ele><time>2026-04-04T14:01:13.494Z</time></trkpt><trkpt lat="45.8320215" lon="9.0718629"><ele>203.2</ele><time>2026-04-04T14:01:15.495Z</time></trkpt><trkpt lat="45.8321213" lon="9.0718445"><ele>203.8</ele><time>2026-04-04T14:01:17.495Z</time></trkpt><trkpt lat="45.8322391" lon="9.0718597"><ele>204.4</ele><time>2026-04-04T14:01:19.495Z</time></trkpt><trkpt lat="45.8323491" lon="9.0718868"><ele>205.0</ele><time>2026-04-04T14:01:21.495Z</time></trkpt><trkpt lat="45.8324636" lon="9.0719278"><ele>205.0</ele><time>2026-04-04T14:01:23.495Z</time></trkpt><trkpt lat="45.8325799" lon="9.0719809"><ele>205.0</ele><time>2026-04-04T14:01:25.495Z</time></trkpt><trkpt lat="45.8326941" lon="9.0720275"><ele>205.0</ele><time>2026-04-04T14:01:27.495Z</time></trkpt><trkpt lat="45.8328051" lon="9.0720677"><ele>205.0</ele><time>2026-04-04T14:01:29.494Z</time></trkpt><trkpt lat="45.8329254" lon="9.0721078"><ele>205.0</ele><time>2026-04-04T14:01:31.495Z</time></trkpt><trkpt lat="45.8330383" lon="9.0721524"><ele>205.0</ele><time>2026-04-04T14:01:33.495Z</time></trkpt><trkpt lat="45.8331541" lon="9.0722011"><ele>205.0</ele><time>2026-04-04T14:01:35.495Z</time></trkpt><trkpt lat="45.8332224" lon="9.0722233"><ele>205.0</ele><time>2026-04-04T14:01:36.495Z</time></trkpt><trkpt lat="45.8333002" lon="9.0722495"><ele>205.0</ele><time>2026-04-04T14:01:37.495Z</time></trkpt><trkpt lat="45.8333857" lon="9.072277"><ele>205.0</ele><time>2026-04-04T14:01:38.495Z</time></trkpt><trkpt lat="45.8334775" lon="9.0723093"><ele>205.0</ele><time>2026-04-04T14:01:39.495Z</time></trkpt><trkpt lat="45.8335714" lon="9.0723425"><ele>205.0</ele><time>2026-04-04T14:01:40.495Z</time></trkpt><trkpt lat="45.8336639" lon="9.072376"><ele>205.0</ele><time>2026-04-04T14:01:41.495Z</time></trkpt><trkpt lat="45.8337596" lon="9.072409"><ele>205.0</ele><time>2026-04-04T14:01:42.495Z</time></trkpt><trkpt lat="45.8338493" lon="9.0724425"><ele>204.99999999999997</ele><time>2026-04-04T14:01:43.494Z</time></trkpt><trkpt lat="45.8339366" lon="9.0724757"><ele>205.0</ele><time>2026-04-04T14:01:44.495Z</time></trkpt><trkpt lat="45.8340194" lon="9.0725025"><ele>205.0</ele><time>2026-04-04T14:01:45.494Z</time></trkpt><trkpt lat="45.834093" lon="9.0725246"><ele>205.0</ele><time>2026-04-04T14:01:46.496Z</time></trkpt><trkpt lat="45.8341563" lon="9.0725412"><ele>204.99999999999997</ele><time>2026-04-04T14:01:47.494Z</time></trkpt><trkpt lat="45.8342658" lon="9.072563"><ele>205.0</ele><time>2026-04-04T14:01:49.494Z</time></trkpt><trkpt lat="45.8343868" lon="9.0725838"><ele>204.66666666666666</ele><time>2026-04-04T14:01:51.494Z</time></trkpt><trkpt lat="45.8345065" lon="9.072608"><ele>204.33333333333331</ele><time>2026-04-04T14:01:53.495Z</time></trkpt><trkpt lat="45.8345726" lon="9.0726264"><ele>204.0</ele><time>2026-04-04T14:01:54.494Z</time></trkpt><trkpt lat="45.8346416" lon="9.0726356"><ele>203.66666666666669</ele><time>2026-04-04T14:01:55.494Z</time></trkpt><trkpt lat="45.8347066" lon="9.0726129"><ele>203.33333333333334</ele><time>2026-04-04T14:01:56.495Z</time></trkpt><trkpt lat="45.8347585" lon="9.0725515"><ele>203.0</ele><time>2026-04-04T14:01:57.495Z</time></trkpt><trkpt lat="45.8348028" lon="9.0724711"><ele>203.0</ele><time>2026-04-04T14:01:58.495Z</time></trkpt><trkpt lat="45.8348469" lon="9.0723761"><ele>203.0</ele><time>2026-04-04T14:01:59.495Z</time></trkpt><trkpt lat="45.8348964" lon="9.0722729"><ele>203.0</ele><time>2026-04-04T14:02:00.495Z</time></trkpt><trkpt lat="45.8349469" lon="9.0721637"><ele>203.0</ele><time>2026-04-04T14:02:01.495Z</time></trkpt><trkpt lat="45.8349994" lon="9.0720515"><ele>203.0</ele><time>2026-04-04T14:02:02.495Z</time></trkpt><trkpt lat="45.8350562" lon="9.0719234"><ele>203.0</ele><time>2026-04-04T14:02:03.494Z</time></trkpt><trkpt lat="45.8351139" lon="9.0717852"><ele>203.0</ele><time>2026-04-04T14:02:04.495Z</time></trkpt><trkpt lat="45.8351732" lon="9.0716357"><ele>203.0</ele><time>2026-04-04T14:02:05.495Z</time></trkpt><trkpt lat="45.8352297" lon="9.0714736"><ele>203.0</ele><time>2026-04-04T14:02:06.495Z</time></trkpt><trkpt lat="45.8352833" lon="9.07131"><ele>203.5</ele><time>2026-04-04T14:02:07.495Z</time></trkpt><trkpt lat="45.8353356" lon="9.0711354"><ele>204.0</ele><time>2026-04-04T14:02:08.495Z</time></trkpt><trkpt lat="45.835386" lon="9.0709559"><ele>204.5</ele><time>2026-04-04T14:02:09.495Z</time></trkpt><trkpt lat="45.8354371" lon="9.0707764"><ele>205.0</ele><time>2026-04-04T14:02:10.494Z</time></trkpt><trkpt lat="45.835486" lon="9.0705992"><ele>205.4</ele><time>2026-04-04T14:02:11.495Z</time></trkpt><trkpt lat="45.835531" lon="9.07044"><ele>205.8</ele><time>2026-04-04T14:02:12.495Z</time></trkpt><trkpt lat="45.8355729" lon="9.0702914"><ele>206.2</ele><time>2026-04-04T14:02:13.495Z</time></trkpt><trkpt lat="45.8356126" lon="9.0701504"><ele>206.6</ele><time>2026-04-04T14:02:14.495Z</time></trkpt><trkpt lat="45.8356494" lon="9.0700179"><ele>207.0</ele><time>2026-04-04T14:02:15.495Z</time></trkpt><trkpt lat="45.8356864" lon="9.0698856"><ele>207.2</ele><time>2026-04-04T14:02:16.494Z</time></trkpt><trkpt lat="45.8357231" lon="9.0697523"><ele>207.39999999999998</ele><time>2026-04-04T14:02:17.494Z</time></trkpt><trkpt lat="45.8357606" lon="9.0696129"><ele>207.60000000000002</ele><time>2026-04-04T14:02:18.495Z</time></trkpt><trkpt lat="45.835799" lon="9.0694704"><ele>207.8</ele><time>2026-04-04T14:02:19.495Z</time></trkpt><trkpt lat="45.8358387" lon="9.0693222"><ele>208.0</ele><time>2026-04-04T14:02:20.495Z</time></trkpt><trkpt lat="45.8358779" lon="9.0691728"><ele>207.60000000000002</ele><time>2026-04-04T14:02:21.495Z</time></trkpt><trkpt lat="45.8359165" lon="9.0690229"><ele>207.20000000000002</ele><time>2026-04-04T14:02:22.494Z</time></trkpt><trkpt lat="45.8359561" lon="9.0688798"><ele>206.8</ele><time>2026-04-04T14:02:23.495Z</time></trkpt><trkpt lat="45.8360012" lon="9.068744"><ele>206.4</ele><time>2026-04-04T14:02:24.495Z</time></trkpt><trkpt lat="45.8360509" lon="9.0686221"><ele>206.0</ele><time>2026-04-04T14:02:25.495Z</time></trkpt><trkpt lat="45.8361012" lon="9.0685125"><ele>206.00000000000003</ele><time>2026-04-04T14:02:26.495Z</time></trkpt><trkpt lat="45.8361504" lon="9.0684097"><ele>206.0</ele><time>2026-04-04T14:02:27.494Z</time></trkpt><trkpt lat="45.8361981" lon="9.0683121"><ele>206.0</ele><time>2026-04-04T14:02:28.495Z</time></trkpt><trkpt lat="45.8362469" lon="9.0682224"><ele>206.0</ele><time>2026-04-04T14:02:29.494Z</time></trkpt><trkpt lat="45.8362975" lon="9.068142"><ele>206.00000000000003</ele><time>2026-04-04T14:02:30.495Z</time></trkpt><trkpt lat="45.8363521" lon="9.0680733"><ele>206.0</ele><time>2026-04-04T14:02:31.495Z</time></trkpt><trkpt lat="45.8364099" lon="9.0680068"><ele>206.00000000000003</ele><time>2026-04-04T14:02:32.494Z</time></trkpt><trkpt lat="45.8364692" lon="9.0679415"><ele>206.0</ele><time>2026-04-04T14:02:33.495Z</time></trkpt><trkpt lat="45.8365239" lon="9.067879"><ele>206.0</ele><time>2026-04-04T14:02:34.495Z</time></trkpt><trkpt lat="45.8366071" lon="9.0677754"><ele>206.0</ele><time>2026-04-04T14:02:36.495Z</time></trkpt><trkpt lat="45.836665" lon="9.0677114"><ele>206.00000000000003</ele><time>2026-04-04T14:02:38.495Z</time></trkpt><trkpt lat="45.8367268" lon="9.0676801"><ele>206.0</ele><time>2026-04-04T14:02:58.495Z</time></trkpt><trkpt lat="45.8368147" lon="9.0676719"><ele>206.20000000000002</ele><time>2026-04-04T14:03:00.495Z</time></trkpt><trkpt lat="45.8368784" lon="9.0676725"><ele>206.4</ele><time>2026-04-04T14:03:01.495Z</time></trkpt><trkpt lat="45.8369955" lon="9.0676821"><ele>206.6</ele><time>2026-04-04T14:03:03.495Z</time></trkpt><trkpt lat="45.8371309" lon="9.0676925"><ele>206.8</ele><time>2026-04-04T14:03:05.495Z</time></trkpt><trkpt lat="45.8372121" lon="9.0677007"><ele>207.0</ele><time>2026-04-04T14:03:06.495Z</time></trkpt><trkpt lat="45.8372947" lon="9.0677062"><ele>207.0</ele><time>2026-04-04T14:03:07.495Z</time></trkpt><trkpt lat="45.8373862" lon="9.0677134"><ele>207.0</ele><time>2026-04-04T14:03:08.495Z</time></trkpt><trkpt lat="45.8374781" lon="9.0677178"><ele>207.0</ele><time>2026-04-04T14:03:09.495Z</time></trkpt><trkpt lat="45.8375657" lon="9.0677234"><ele>207.0</ele><time>2026-04-04T14:03:10.494Z</time></trkpt><trkpt lat="45.8376555" lon="9.0677308"><ele>207.0</ele><time>2026-04-04T14:03:11.495Z</time></trkpt><trkpt lat="45.8377437" lon="9.0677334"><ele>207.0</ele><time>2026-04-04T14:03:12.493Z</time></trkpt><trkpt lat="45.8378256" lon="9.0677285"><ele>207.2</ele><time>2026-04-04T14:03:13.494Z</time></trkpt><trkpt lat="45.8379024" lon="9.0677164"><ele>207.39999999999998</ele><time>2026-04-04T14:03:14.495Z</time></trkpt><trkpt lat="45.8379698" lon="9.0676986"><ele>207.60000000000002</ele><time>2026-04-04T14:03:15.495Z</time></trkpt><trkpt lat="45.8380832" lon="9.0677141"><ele>207.8</ele><time>2026-04-04T14:03:17.495Z</time></trkpt><trkpt lat="45.8381562" lon="9.0678217"><ele>208.0</ele><time>2026-04-04T14:03:19.495Z</time></trkpt><trkpt lat="45.8381591" lon="9.0679787"><ele>207.99999999999997</ele><time>2026-04-04T14:03:21.495Z</time></trkpt><trkpt lat="45.8381501" lon="9.0680695"><ele>208.0</ele><time>2026-04-04T14:03:22.495Z</time></trkpt><trkpt lat="45.8381405" lon="9.0681677"><ele>208.0</ele><time>2026-04-04T14:03:23.495Z</time></trkpt><trkpt lat="45.8381319" lon="9.0682734"><ele>208.0</ele><time>2026-04-04T14:03:24.495Z</time></trkpt><trkpt lat="45.8381241" lon="9.0683852"><ele>207.99999999999997</ele><time>2026-04-04T14:03:25.495Z</time></trkpt><trkpt lat="45.8381137" lon="9.068505"><ele>208.0</ele><time>2026-04-04T14:03:26.495Z</time></trkpt><trkpt lat="45.8380951" lon="9.068624"><ele>207.8</ele><time>2026-04-04T14:03:27.495Z</time></trkpt><trkpt lat="45.83807" lon="9.0687439"><ele>207.60000000000002</ele><time>2026-04-04T14:03:28.495Z</time></trkpt><trkpt lat="45.8380398" lon="9.0688652"><ele>207.39999999999998</ele><time>2026-04-04T14:03:29.495Z</time></trkpt><trkpt lat="45.8380092" lon="9.0689918"><ele>207.2</ele><time>2026-04-04T14:03:30.495Z</time></trkpt><trkpt lat="45.8379839" lon="9.0691267"><ele>207.0</ele><time>2026-04-04T14:03:31.495Z</time></trkpt><trkpt lat="45.8379526" lon="9.0692621"><ele>207.0</ele><time>2026-04-04T14:03:32.495Z</time></trkpt><trkpt lat="45.8379244" lon="9.0693965"><ele>207.0</ele><time>2026-04-04T14:03:33.494Z</time></trkpt><trkpt lat="45.837904" lon="9.0695366"><ele>207.0</ele><time>2026-04-04T14:03:34.495Z</time></trkpt><trkpt lat="45.8378974" lon="9.0696785"><ele>207.0</ele><time>2026-04-04T14:03:35.495Z</time></trkpt><trkpt lat="45.8379041" lon="9.0698212"><ele>207.0</ele><time>2026-04-04T14:03:36.495Z</time></trkpt><trkpt lat="45.8379182" lon="9.0699611"><ele>207.0</ele><time>2026-04-04T14:03:37.495Z</time></trkpt><trkpt lat="45.8379383" lon="9.0701"><ele>207.0</ele><time>2026-04-04T14:03:38.494Z</time></trkpt><trkpt lat="45.8379591" lon="9.0702383"><ele>207.0</ele><time>2026-04-04T14:03:39.495Z</time></trkpt><trkpt lat="45.8379733" lon="9.0703736"><ele>207.0</ele><time>2026-04-04T14:03:40.495Z</time></trkpt><trkpt lat="45.8379863" lon="9.0705048"><ele>207.0</ele><time>2026-04-04T14:03:41.495Z</time></trkpt><trkpt lat="45.8379987" lon="9.0706263"><ele>207.0</ele><time>2026-04-04T14:03:42.495Z</time></trkpt><trkpt lat="45.8380084" lon="9.0707251"><ele>207.0</ele><time>2026-04-04T14:03:43.495Z</time></trkpt><trkpt lat="45.8380223" lon="9.0708552"><ele>207.0</ele><time>2026-04-04T14:03:45.495Z</time></trkpt><trkpt lat="45.838038" lon="9.070985"><ele>207.0</ele><time>2026-04-04T14:03:48.495Z</time></trkpt><trkpt lat="45.8379918" lon="9.0710772"><ele>207.0</ele><time>2026-04-04T14:03:51.495Z</time></trkpt><trkpt lat="45.8379178" lon="9.0710666"><ele>207.0</ele><time>2026-04-04T14:03:53.495Z</time></trkpt><trkpt lat="45.8378209" lon="9.071025"><ele>207.0</ele><time>2026-04-04T14:03:55.495Z</time></trkpt><trkpt lat="45.8377001" lon="9.0709624"><ele>207.0</ele><time>2026-04-04T14:03:57.494Z</time></trkpt><trkpt lat="45.8376318" lon="9.070944"><ele>207.0</ele><time>2026-04-04T14:03:58.495Z</time></trkpt><trkpt lat="45.8375714" lon="9.0709101"><ele>207.0</ele><time>2026-04-04T14:03:59.494Z</time></trkpt><trkpt lat="45.8375104" lon="9.0708795"><ele>207.0</ele><time>2026-04-04T14:04:00.495Z</time></trkpt><trkpt lat="45.8374484" lon="9.0708509"><ele>207.0</ele><time>2026-04-04T14:04:01.494Z</time></trkpt><trkpt lat="45.8373886" lon="9.0708189"><ele>207.0</ele><time>2026-04-04T14:04:02.494Z</time></trkpt><trkpt lat="45.8373287" lon="9.0707889"><ele>207.0</ele><time>2026-04-04T14:04:03.495Z</time></trkpt><trkpt lat="45.8372183" lon="9.0707338"><ele>207.0</ele><time>2026-04-04T14:04:05.495Z</time></trkpt><trkpt lat="45.8371149" lon="9.070688"><ele>207.0</ele><time>2026-04-04T14:04:07.495Z</time></trkpt><trkpt lat="45.8370284" lon="9.0706512"><ele>207.0</ele><time>2026-04-04T14:04:09.495Z</time></trkpt><trkpt lat="45.8369658" lon="9.0706202"><ele>207.0</ele><time>2026-04-04T14:04:11.495Z</time></trkpt><trkpt lat="45.8369397" lon="9.0705258"><ele>206.66666666666666</ele><time>2026-04-04T14:04:15.495Z</time></trkpt><trkpt lat="45.8369701" lon="9.0704018"><ele>206.33333333333331</ele><time>2026-04-04T14:04:17.495Z</time></trkpt><trkpt lat="45.8370111" lon="9.0702411"><ele>206.0</ele><time>2026-04-04T14:04:19.494Z</time></trkpt><trkpt lat="45.8370339" lon="9.0701552"><ele>205.66666666666666</ele><time>2026-04-04T14:04:20.494Z</time></trkpt><trkpt lat="45.8370573" lon="9.0700647"><ele>205.33333333333331</ele><time>2026-04-04T14:04:21.494Z</time></trkpt><trkpt lat="45.8370772" lon="9.0699728"><ele>205.0</ele><time>2026-04-04T14:04:22.495Z</time></trkpt><trkpt lat="45.8370979" lon="9.0698831"><ele>204.85714285714286</ele><time>2026-04-04T14:04:23.494Z</time></trkpt><trkpt lat="45.8371173" lon="9.0697924"><ele>204.7142857142857</ele><time>2026-04-04T14:04:24.495Z</time></trkpt><trkpt lat="45.8371377" lon="9.0697022"><ele>204.57142857142856</ele><time>2026-04-04T14:04:25.495Z</time></trkpt><trkpt lat="45.8371586" lon="9.0696103"><ele>204.42857142857144</ele><time>2026-04-04T14:04:26.495Z</time></trkpt><trkpt lat="45.8371813" lon="9.0695174"><ele>204.28571428571428</ele><time>2026-04-04T14:04:27.495Z</time></trkpt><trkpt lat="45.8372025" lon="9.0694232"><ele>204.14285714285714</ele><time>2026-04-04T14:04:28.494Z</time></trkpt><trkpt lat="45.8372254" lon="9.0693286"><ele>204.0</ele><time>2026-04-04T14:04:29.495Z</time></trkpt><trkpt lat="45.8372451" lon="9.0692382"><ele>204.2</ele><time>2026-04-04T14:04:30.495Z</time></trkpt><trkpt lat="45.837272" lon="9.0691052"><ele>204.39999999999998</ele><time>2026-04-04T14:04:32.494Z</time></trkpt><trkpt lat="45.8372996" lon="9.0690071"><ele>204.6</ele><time>2026-04-04T14:04:34.495Z</time></trkpt><trkpt lat="45.8373253" lon="9.0688786"><ele>204.8</ele><time>2026-04-04T14:04:36.494Z</time></trkpt><trkpt lat="45.8373622" lon="9.0687192"><ele>205.0</ele><time>2026-04-04T14:04:38.495Z</time></trkpt><trkpt lat="45.837393" lon="9.0685904"><ele>204.99999999999997</ele><time>2026-04-04T14:04:40.494Z</time></trkpt><trkpt lat="45.8374125" lon="9.0685039"><ele>205.0</ele><time>2026-04-04T14:04:42.495Z</time></trkpt><trkpt lat="45.8373346" lon="9.0684712"><ele>205.0</ele><time>2026-04-04T14:05:16.494Z</time></trkpt><trkpt lat="45.8372514" lon="9.0684617"><ele>205.0</ele><time>2026-04-04T14:05:18.494Z</time></trkpt><trkpt lat="45.8371709" lon="9.0684566"><ele>204.99999999999997</ele><time>2026-04-04T14:05:20.494Z</time></trkpt><trkpt lat="45.8370872" lon="9.0684476"><ele>205.0</ele><time>2026-04-04T14:05:22.493Z</time></trkpt><trkpt lat="45.8370183" lon="9.0684424"><ele>204.99999999999997</ele><time>2026-04-04T14:05:24.494Z</time></trkpt><trkpt lat="45.8369907" lon="9.0683493"><ele>205.0</ele><time>2026-04-04T14:05:27.494Z</time></trkpt><trkpt lat="45.8370526" lon="9.0682555"><ele>205.0</ele><time>2026-04-04T14:05:30.494Z</time></trkpt><trkpt lat="45.8371548" lon="9.0682729"><ele>205.0</ele><time>2026-04-04T14:05:32.494Z</time></trkpt><trkpt lat="45.8372429" lon="9.0682717"><ele>204.99999999999997</ele><time>2026-04-04T14:05:34.494Z</time></trkpt><trkpt lat="45.837306" lon="9.0682664"><ele>205.0</ele><time>2026-04-04T14:05:36.494Z</time></trkpt><trkpt lat="45.8373516" lon="9.0681933"><ele>205.33333333333331</ele><time>2026-04-04T14:09:45.488Z</time></trkpt><trkpt lat="45.8373608" lon="9.0680729"><ele>205.66666666666666</ele><time>2026-04-04T14:09:47.496Z</time></trkpt><trkpt lat="45.837386" lon="9.0679415"><ele>206.0</ele><time>2026-04-04T14:09:49.491Z</time></trkpt><trkpt lat="45.837406" lon="9.0678164"><ele>206.33333333333331</ele><time>2026-04-04T14:09:51.489Z</time></trkpt><trkpt lat="45.8374294" lon="9.0677267"><ele>206.66666666666666</ele><time>2026-04-04T14:09:54.488Z</time></trkpt><trkpt lat="45.837518" lon="9.0677204"><ele>207.0</ele><time>2026-04-04T14:11:21.49Z</time></trkpt><trkpt lat="45.8375882" lon="9.0677233"><ele>207.16666666666666</ele><time>2026-04-04T14:11:22.488Z</time></trkpt><trkpt lat="45.837667" lon="9.0677238"><ele>207.33333333333331</ele><time>2026-04-04T14:11:23.487Z</time></trkpt><trkpt lat="45.8377542" lon="9.0677237"><ele>207.5</ele><time>2026-04-04T14:11:24.497Z</time></trkpt><trkpt lat="45.8378408" lon="9.0677106"><ele>207.66666666666666</ele><time>2026-04-04T14:11:25.498Z</time></trkpt><trkpt lat="45.8379138" lon="9.0676947"><ele>207.83333333333331</ele><time>2026-04-04T14:11:26.492Z</time></trkpt><trkpt lat="45.8379898" lon="9.0676828"><ele>208.0</ele><time>2026-04-04T14:11:27.499Z</time></trkpt><trkpt lat="45.838074" lon="9.0676811"><ele>208.0</ele><time>2026-04-04T14:11:28.488Z</time></trkpt><trkpt lat="45.8381359" lon="9.0676644"><ele>208.0</ele><time>2026-04-04T14:11:29.492Z</time></trkpt><trkpt lat="45.8381975" lon="9.0675471"><ele>208.0</ele><time>2026-04-04T14:11:31.489Z</time></trkpt><trkpt lat="45.8382104" lon="9.067381"><ele>208.0</ele><time>2026-04-04T14:11:33.494Z</time></trkpt><trkpt lat="45.838114" lon="9.0673165"><ele>208.0</ele><time>2026-04-04T14:11:35.492Z</time></trkpt><trkpt lat="45.8380477" lon="9.0673043"><ele>208.16666666666666</ele><time>2026-04-04T14:11:36.491Z</time></trkpt><trkpt lat="45.8379663" lon="9.0672906"><ele>208.33333333333331</ele><time>2026-04-04T14:11:37.492Z</time></trkpt><trkpt lat="45.837878" lon="9.0672869"><ele>208.5</ele><time>2026-04-04T14:11:38.486Z</time></trkpt><trkpt lat="45.8377919" lon="9.0673103"><ele>208.66666666666669</ele><time>2026-04-04T14:11:39.493Z</time></trkpt><trkpt lat="45.8377202" lon="9.0673405"><ele>208.83333333333334</ele><time>2026-04-04T14:11:40.495Z</time></trkpt><trkpt lat="45.8376478" lon="9.0674036"><ele>209.0</ele><time>2026-04-04T14:11:41.487Z</time></trkpt><trkpt lat="45.8375758" lon="9.0674567"><ele>208.66666666666669</ele><time>2026-04-04T14:11:42.499Z</time></trkpt><trkpt lat="45.8375068" lon="9.0675"><ele>208.33333333333334</ele><time>2026-04-04T14:11:43.491Z</time></trkpt><trkpt lat="45.8374388" lon="9.0675356"><ele>208.0</ele><time>2026-04-04T14:11:44.495Z</time></trkpt><trkpt lat="45.8373742" lon="9.0675626"><ele>207.66666666666669</ele><time>2026-04-04T14:11:45.488Z</time></trkpt><trkpt lat="45.8373109" lon="9.067584"><ele>207.33333333333334</ele><time>2026-04-04T14:11:46.495Z</time></trkpt><trkpt lat="45.8371839" lon="9.0676202"><ele>207.0</ele><time>2026-04-04T14:11:48.486Z</time></trkpt><trkpt lat="45.8371175" lon="9.0676294"><ele>207.0</ele><time>2026-04-04T14:11:49.499Z</time></trkpt><trkpt lat="45.8370029" lon="9.0676291"><ele>207.0</ele><time>2026-04-04T14:11:51.491Z</time></trkpt><trkpt lat="45.8369054" lon="9.0676255"><ele>207.0</ele><time>2026-04-04T14:11:53.487Z</time></trkpt><trkpt lat="45.8368191" lon="9.0676232"><ele>207.0</ele><time>2026-04-04T14:11:55.499Z</time></trkpt><trkpt lat="45.83675" lon="9.0676162"><ele>207.0</ele><time>2026-04-04T14:11:57.498Z</time></trkpt><trkpt lat="45.8366695" lon="9.0675615"><ele>207.0</ele><time>2026-04-04T14:11:59.497Z</time></trkpt><trkpt lat="45.8366124" lon="9.0674394"><ele>207.0</ele><time>2026-04-04T14:12:01.494Z</time></trkpt><trkpt lat="45.836585" lon="9.0673449"><ele>207.0</ele><time>2026-04-04T14:12:04.5Z</time></trkpt><trkpt lat="45.8365624" lon="9.0672361"><ele>207.0</ele><time>2026-04-04T14:12:06.495Z</time></trkpt><trkpt lat="45.8365328" lon="9.0671396"><ele>207.0</ele><time>2026-04-04T14:12:07.488Z</time></trkpt><trkpt lat="45.8364901" lon="9.0670615"><ele>207.0</ele><time>2026-04-04T14:12:08.497Z</time></trkpt><trkpt lat="45.8364385" lon="9.0670072"><ele>207.0</ele><time>2026-04-04T14:12:09.489Z</time></trkpt><trkpt lat="45.8363207" lon="9.06699"><ele>207.0</ele><time>2026-04-04T14:12:11.489Z</time></trkpt><trkpt lat="45.8362189" lon="9.0670862"><ele>207.0</ele><time>2026-04-04T14:12:13.498Z</time></trkpt><trkpt lat="45.8361878" lon="9.0671688"><ele>207.0</ele><time>2026-04-04T14:12:14.492Z</time></trkpt><trkpt lat="45.836172" lon="9.067267"><ele>207.0</ele><time>2026-04-04T14:12:15.5Z</time></trkpt><trkpt lat="45.8361656" lon="9.0673873"><ele>206.8</ele><time>2026-04-04T14:12:16.496Z</time></trkpt><trkpt lat="45.8361579" lon="9.0675138"><ele>206.6</ele><time>2026-04-04T14:12:17.497Z</time></trkpt><trkpt lat="45.8361366" lon="9.0676439"><ele>206.4</ele><time>2026-04-04T14:12:18.5Z</time></trkpt><trkpt lat="45.8360953" lon="9.0677712"><ele>206.20000000000002</ele><time>2026-04-04T14:12:19.496Z</time></trkpt><trkpt lat="45.8360471" lon="9.0678966"><ele>206.0</ele><time>2026-04-04T14:12:20.494Z</time></trkpt><trkpt lat="45.8359626" lon="9.0681593"><ele>206.00000000000003</ele><time>2026-04-04T14:12:22.495Z</time></trkpt><trkpt lat="45.835936" lon="9.0682797"><ele>206.0</ele><time>2026-04-04T14:12:23.497Z</time></trkpt><trkpt lat="45.835918" lon="9.0683946"><ele>206.0</ele><time>2026-04-04T14:12:24.497Z</time></trkpt><trkpt lat="45.8359044" lon="9.0685039"><ele>206.0</ele><time>2026-04-04T14:12:25.496Z</time></trkpt><trkpt lat="45.8358912" lon="9.0686137"><ele>206.00000000000003</ele><time>2026-04-04T14:12:26.497Z</time></trkpt><trkpt lat="45.8358793" lon="9.0687185"><ele>206.0</ele><time>2026-04-04T14:12:27.497Z</time></trkpt><trkpt lat="45.83587" lon="9.0688084"><ele>206.0</ele><time>2026-04-04T14:12:28.497Z</time></trkpt><trkpt lat="45.8358621" lon="9.0689008"><ele>206.0</ele><time>2026-04-04T14:12:29.497Z</time></trkpt><trkpt lat="45.8358427" lon="9.0690658"><ele>206.0</ele><time>2026-04-04T14:12:31.497Z</time></trkpt><trkpt lat="45.8358073" lon="9.0692457"><ele>206.0</ele><time>2026-04-04T14:12:33.497Z</time></trkpt><trkpt lat="45.8357823" lon="9.0693447"><ele>206.0</ele><time>2026-04-04T14:12:34.496Z</time></trkpt><trkpt lat="45.8357586" lon="9.0694485"><ele>206.16666666666669</ele><time>2026-04-04T14:12:35.497Z</time></trkpt><trkpt lat="45.8357306" lon="9.0695505"><ele>206.33333333333334</ele><time>2026-04-04T14:12:36.497Z</time></trkpt><trkpt lat="45.835701" lon="9.0696547"><ele>206.5</ele><time>2026-04-04T14:12:37.497Z</time></trkpt><trkpt lat="45.8356691" lon="9.0697641"><ele>206.66666666666669</ele><time>2026-04-04T14:12:38.497Z</time></trkpt><trkpt lat="45.8356352" lon="9.0698795"><ele>206.83333333333334</ele><time>2026-04-04T14:12:39.497Z</time></trkpt><trkpt lat="45.8355995" lon="9.0699993"><ele>207.0</ele><time>2026-04-04T14:12:40.497Z</time></trkpt><trkpt lat="45.8355615" lon="9.0701258"><ele>207.0</ele><time>2026-04-04T14:12:41.496Z</time></trkpt><trkpt lat="45.8355242" lon="9.0702628"><ele>207.0</ele><time>2026-04-04T14:12:42.496Z</time></trkpt><trkpt lat="45.8354882" lon="9.0703922"><ele>207.0</ele><time>2026-04-04T14:12:43.497Z</time></trkpt><trkpt lat="45.8354508" lon="9.0705258"><ele>207.0</ele><time>2026-04-04T14:12:44.496Z</time></trkpt><trkpt lat="45.8354127" lon="9.0706629"><ele>207.0</ele><time>2026-04-04T14:12:45.497Z</time></trkpt><trkpt lat="45.835374" lon="9.0708036"><ele>206.6</ele><time>2026-04-04T14:12:46.497Z</time></trkpt><trkpt lat="45.8353337" lon="9.0709512"><ele>206.2</ele><time>2026-04-04T14:12:47.497Z</time></trkpt><trkpt lat="45.8352914" lon="9.0710986"><ele>205.8</ele><time>2026-04-04T14:12:48.496Z</time></trkpt><trkpt lat="45.83525" lon="9.0712453"><ele>205.4</ele><time>2026-04-04T14:12:49.497Z</time></trkpt><trkpt lat="45.8352073" lon="9.0713863"><ele>205.0</ele><time>2026-04-04T14:12:50.497Z</time></trkpt><trkpt lat="45.8351655" lon="9.0715129"><ele>204.6</ele><time>2026-04-04T14:12:51.497Z</time></trkpt><trkpt lat="45.8351192" lon="9.0716444"><ele>204.2</ele><time>2026-04-04T14:12:52.497Z</time></trkpt><trkpt lat="45.8350627" lon="9.0717777"><ele>203.8</ele><time>2026-04-04T14:12:53.496Z</time></trkpt><trkpt lat="45.8350064" lon="9.0718944"><ele>203.4</ele><time>2026-04-04T14:12:54.497Z</time></trkpt><trkpt lat="45.8349538" lon="9.0719949"><ele>203.0</ele><time>2026-04-04T14:12:55.497Z</time></trkpt><trkpt lat="45.8348982" lon="9.0720889"><ele>203.00000000000003</ele><time>2026-04-04T14:12:56.497Z</time></trkpt><trkpt lat="45.8348428" lon="9.0721693"><ele>203.0</ele><time>2026-04-04T14:12:57.497Z</time></trkpt><trkpt lat="45.8347868" lon="9.0722404"><ele>203.0</ele><time>2026-04-04T14:12:58.497Z</time></trkpt><trkpt lat="45.8347232" lon="9.0723111"><ele>203.0</ele><time>2026-04-04T14:12:59.497Z</time></trkpt><trkpt lat="45.8346651" lon="9.072372"><ele>203.00000000000003</ele><time>2026-04-04T14:13:00.497Z</time></trkpt><trkpt lat="45.834617" lon="9.0724358"><ele>203.0</ele><time>2026-04-04T14:13:01.497Z</time></trkpt><trkpt lat="45.834602" lon="9.0726097"><ele>203.00000000000003</ele><time>2026-04-04T14:13:03.497Z</time></trkpt><trkpt lat="45.8346863" lon="9.0727233"><ele>203.0</ele><time>2026-04-04T14:13:05.497Z</time></trkpt><trkpt lat="45.8347444" lon="9.0727625"><ele>203.0</ele><time>2026-04-04T14:13:06.497Z</time></trkpt><trkpt lat="45.8348088" lon="9.0728048"><ele>203.0</ele><time>2026-04-04T14:13:07.496Z</time></trkpt><trkpt lat="45.8348863" lon="9.0728451"><ele>203.00000000000003</ele><time>2026-04-04T14:13:08.497Z</time></trkpt><trkpt lat="45.8349716" lon="9.072882"><ele>203.0</ele><time>2026-04-04T14:13:09.497Z</time></trkpt><trkpt lat="45.8350564" lon="9.0729157"><ele>203.00000000000003</ele><time>2026-04-04T14:13:10.497Z</time></trkpt><trkpt lat="45.8351371" lon="9.072945"><ele>203.0</ele><time>2026-04-04T14:13:11.497Z</time></trkpt><trkpt lat="45.8352129" lon="9.0729704"><ele>203.0</ele><time>2026-04-04T14:13:12.497Z</time></trkpt><trkpt lat="45.8352938" lon="9.0729893"><ele>203.0</ele><time>2026-04-04T14:13:13.497Z</time></trkpt><trkpt lat="45.835382" lon="9.0730129"><ele>203.00000000000003</ele><time>2026-04-04T14:13:14.497Z</time></trkpt><trkpt lat="45.8354644" lon="9.0730446"><ele>203.0</ele><time>2026-04-04T14:13:15.497Z</time></trkpt><trkpt lat="45.8355407" lon="9.0730778"><ele>202.85714285714286</ele><time>2026-04-04T14:13:16.497Z</time></trkpt><trkpt lat="45.835617" lon="9.0731095"><ele>202.71428571428572</ele><time>2026-04-04T14:13:17.497Z</time></trkpt><trkpt lat="45.8356941" lon="9.0731415"><ele>202.57142857142856</ele><time>2026-04-04T14:13:18.497Z</time></trkpt><trkpt lat="45.8357652" lon="9.073171"><ele>202.42857142857144</ele><time>2026-04-04T14:13:19.497Z</time></trkpt><trkpt lat="45.8358315" lon="9.0731962"><ele>202.28571428571428</ele><time>2026-04-04T14:13:20.497Z</time></trkpt><trkpt lat="45.8358959" lon="9.0732208"><ele>202.14285714285714</ele><time>2026-04-04T14:13:21.497Z</time></trkpt><trkpt lat="45.8359645" lon="9.0732452"><ele>202.0</ele><time>2026-04-04T14:13:22.497Z</time></trkpt><trkpt lat="45.8360295" lon="9.0732709"><ele>203.0</ele><time>2026-04-04T14:13:23.497Z</time></trkpt><trkpt lat="45.8360913" lon="9.0732966"><ele>204.0</ele><time>2026-04-04T14:13:24.497Z</time></trkpt><trkpt lat="45.8361536" lon="9.0733216"><ele>205.0</ele><time>2026-04-04T14:13:25.497Z</time></trkpt><trkpt lat="45.8362173" lon="9.0733469"><ele>206.0</ele><time>2026-04-04T14:13:26.497Z</time></trkpt><trkpt lat="45.8362832" lon="9.0733723"><ele>207.0</ele><time>2026-04-04T14:13:27.497Z</time></trkpt><trkpt lat="45.8363526" lon="9.0733978"><ele>208.0</ele><time>2026-04-04T14:13:28.497Z</time></trkpt><trkpt lat="45.8364212" lon="9.0734244"><ele>209.0</ele><time>2026-04-04T14:13:29.497Z</time></trkpt><trkpt lat="45.8364871" lon="9.0734484"><ele>209.00000000000003</ele><time>2026-04-04T14:13:30.497Z</time></trkpt><trkpt lat="45.8366048" lon="9.0734952"><ele>209.0</ele><time>2026-04-04T14:13:32.497Z</time></trkpt><trkpt lat="45.8367233" lon="9.0735416"><ele>209.0</ele><time>2026-04-04T14:13:34.497Z</time></trkpt><trkpt lat="45.8367852" lon="9.0735632"><ele>209.0</ele><time>2026-04-04T14:13:35.497Z</time></trkpt><trkpt lat="45.8368492" lon="9.0735895"><ele>209.00000000000003</ele><time>2026-04-04T14:13:36.496Z</time></trkpt><trkpt lat="45.8369168" lon="9.0736132"><ele>209.0</ele><time>2026-04-04T14:13:37.497Z</time></trkpt><trkpt lat="45.8369856" lon="9.0736386"><ele>208.83333333333334</ele><time>2026-04-04T14:13:38.497Z</time></trkpt><trkpt lat="45.8371031" lon="9.073685"><ele>208.66666666666669</ele><time>2026-04-04T14:13:40.497Z</time></trkpt><trkpt lat="45.8371689" lon="9.073707"><ele>208.5</ele><time>2026-04-04T14:13:41.497Z</time></trkpt><trkpt lat="45.8372368" lon="9.0737365"><ele>208.33333333333331</ele><time>2026-04-04T14:13:42.497Z</time></trkpt><trkpt lat="45.8373007" lon="9.0737632"><ele>208.16666666666666</ele><time>2026-04-04T14:13:43.497Z</time></trkpt><trkpt lat="45.8373701" lon="9.0737901"><ele>208.0</ele><time>2026-04-04T14:13:44.496Z</time></trkpt><trkpt lat="45.8374426" lon="9.0738198"><ele>207.99999999999997</ele><time>2026-04-04T14:13:45.497Z</time></trkpt><trkpt lat="45.8375168" lon="9.0738456"><ele>208.0</ele><time>2026-04-04T14:13:46.497Z</time></trkpt><trkpt lat="45.837589" lon="9.0738735"><ele>208.0</ele><time>2026-04-04T14:13:47.497Z</time></trkpt><trkpt lat="45.8376615" lon="9.0738998"><ele>208.0</ele><time>2026-04-04T14:13:48.496Z</time></trkpt><trkpt lat="45.8377342" lon="9.0739295"><ele>207.99999999999997</ele><time>2026-04-04T14:13:49.497Z</time></trkpt><trkpt lat="45.8378076" lon="9.0739559"><ele>208.0</ele><time>2026-04-04T14:13:50.497Z</time></trkpt><trkpt lat="45.8378823" lon="9.0739856"><ele>207.7142857142857</ele><time>2026-04-04T14:13:51.497Z</time></trkpt><trkpt lat="45.8379569" lon="9.0740119"><ele>207.42857142857144</ele><time>2026-04-04T14:13:52.497Z</time></trkpt><trkpt lat="45.8380297" lon="9.0740357"><ele>207.14285714285714</ele><time>2026-04-04T14:13:53.497Z</time></trkpt><trkpt lat="45.8380978" lon="9.074064"><ele>206.85714285714283</ele><time>2026-04-04T14:13:54.497Z</time></trkpt><trkpt lat="45.8381593" lon="9.0740875"><ele>206.57142857142856</ele><time>2026-04-04T14:13:55.497Z</time></trkpt><trkpt lat="45.8382216" lon="9.0741087"><ele>206.28571428571428</ele><time>2026-04-04T14:13:56.497Z</time></trkpt><trkpt lat="45.8382879" lon="9.0741345"><ele>206.0</ele><time>2026-04-04T14:13:57.497Z</time></trkpt><trkpt lat="45.8383578" lon="9.0741614"><ele>206.00000000000003</ele><time>2026-04-04T14:13:58.497Z</time></trkpt><trkpt lat="45.8384304" lon="9.0741903"><ele>206.0</ele><time>2026-04-04T14:13:59.497Z</time></trkpt><trkpt lat="45.8385057" lon="9.0742197"><ele>206.0</ele><time>2026-04-04T14:14:00.497Z</time></trkpt><trkpt lat="45.8385829" lon="9.0742477"><ele>206.0</ele><time>2026-04-04T14:14:01.497Z</time></trkpt><trkpt lat="45.8386611" lon="9.0742773"><ele>206.00000000000003</ele><time>2026-04-04T14:14:02.497Z</time></trkpt><trkpt lat="45.838739" lon="9.0743069"><ele>206.0</ele><time>2026-04-04T14:14:03.497Z</time></trkpt><trkpt lat="45.8388077" lon="9.0743329"><ele>206.28571428571428</ele><time>2026-04-04T14:14:04.497Z</time></trkpt><trkpt lat="45.8388736" lon="9.0743607"><ele>206.57142857142856</ele><time>2026-04-04T14:14:05.497Z</time></trkpt><trkpt lat="45.8389382" lon="9.074389"><ele>206.85714285714283</ele><time>2026-04-04T14:14:06.497Z</time></trkpt><trkpt lat="45.8390013" lon="9.0744199"><ele>207.14285714285714</ele><time>2026-04-04T14:14:07.497Z</time></trkpt><trkpt lat="45.8390655" lon="9.0744499"><ele>207.42857142857144</ele><time>2026-04-04T14:14:08.497Z</time></trkpt><trkpt lat="45.8391274" lon="9.0744904"><ele>207.7142857142857</ele><time>2026-04-04T14:14:09.497Z</time></trkpt><trkpt lat="45.839191" lon="9.0745283"><ele>208.0</ele><time>2026-04-04T14:14:10.497Z</time></trkpt><trkpt lat="45.8392569" lon="9.0745455"><ele>208.16666666666666</ele><time>2026-04-04T14:14:11.497Z</time></trkpt><trkpt lat="45.8393212" lon="9.0745487"><ele>208.33333333333331</ele><time>2026-04-04T14:14:12.496Z</time></trkpt><trkpt lat="45.8393896" lon="9.0745475"><ele>208.5</ele><time>2026-04-04T14:14:13.496Z</time></trkpt><trkpt lat="45.8394577" lon="9.0745626"><ele>208.66666666666669</ele><time>2026-04-04T14:14:14.496Z</time></trkpt><trkpt lat="45.8395215" lon="9.0745805"><ele>208.83333333333334</ele><time>2026-04-04T14:14:15.496Z</time></trkpt><trkpt lat="45.8396409" lon="9.0746288"><ele>209.0</ele><time>2026-04-04T14:14:17.497Z</time></trkpt><trkpt lat="45.8397371" lon="9.0746657"><ele>209.00000000000003</ele><time>2026-04-04T14:14:19.497Z</time></trkpt><trkpt lat="45.8398135" lon="9.0746972"><ele>209.0</ele><time>2026-04-04T14:14:21.497Z</time></trkpt><trkpt lat="45.8398937" lon="9.0747499"><ele>209.0</ele><time>2026-04-04T14:14:24.497Z</time></trkpt><trkpt lat="45.8399583" lon="9.0747927"><ele>209.0</ele><time>2026-04-04T14:14:26.497Z</time></trkpt><trkpt lat="45.8400151" lon="9.0748405"><ele>209.00000000000003</ele><time>2026-04-04T14:14:29.497Z</time></trkpt><trkpt lat="45.8400762" lon="9.0749137"><ele>209.0</ele><time>2026-04-04T14:14:33.497Z</time></trkpt><trkpt lat="45.8401268" lon="9.0749816"><ele>209.71428571428572</ele><time>2026-04-04T14:14:37.497Z</time></trkpt><trkpt lat="45.8401799" lon="9.0750374"><ele>210.42857142857142</ele><time>2026-04-04T14:14:45.496Z</time></trkpt><trkpt lat="45.8402379" lon="9.0750801"><ele>211.14285714285717</ele><time>2026-04-04T14:14:47.496Z</time></trkpt><trkpt lat="45.8402958" lon="9.0751541"><ele>211.85714285714286</ele><time>2026-04-04T14:14:50.497Z</time></trkpt><trkpt lat="45.8403436" lon="9.0752208"><ele>212.57142857142858</ele><time>2026-04-04T14:14:52.497Z</time></trkpt><trkpt lat="45.8403875" lon="9.0752953"><ele>213.2857142857143</ele><time>2026-04-04T14:14:54.497Z</time></trkpt><trkpt lat="45.8404854" lon="9.0752495"><ele>214.0</ele><time>2026-04-04T14:14:56.497Z</time></trkpt><trkpt lat="45.8405427" lon="9.0751916"><ele>214.0</ele><time>2026-04-04T14:14:57.497Z</time></trkpt><trkpt lat="45.8406507" lon="9.0750746"><ele>213.99999999999997</ele><time>2026-04-04T14:14:59.496Z</time></trkpt><trkpt lat="45.8407184" lon="9.0749962"><ele>213.99999999999997</ele><time>2026-04-04T14:15:00.497Z</time></trkpt><trkpt lat="45.8407981" lon="9.0749177"><ele>214.0</ele><time>2026-04-04T14:15:01.497Z</time></trkpt><trkpt lat="45.8408791" lon="9.0748448"><ele>214.0</ele><time>2026-04-04T14:15:02.497Z</time></trkpt><trkpt lat="45.840958" lon="9.0747741"><ele>214.66666666666666</ele><time>2026-04-04T14:15:03.497Z</time></trkpt><trkpt lat="45.8410362" lon="9.0747084"><ele>215.33333333333331</ele><time>2026-04-04T14:15:04.497Z</time></trkpt><trkpt lat="45.8411113" lon="9.0746482"><ele>216.0</ele><time>2026-04-04T14:15:05.497Z</time></trkpt><trkpt lat="45.8411761" lon="9.0746035"><ele>216.66666666666669</ele><time>2026-04-04T14:15:06.497Z</time></trkpt><trkpt lat="45.8412475" lon="9.0745854"><ele>217.33333333333334</ele><time>2026-04-04T14:15:07.496Z</time></trkpt><trkpt lat="45.8413236" lon="9.0745626"><ele>218.0</ele><time>2026-04-04T14:15:08.497Z</time></trkpt><trkpt lat="45.841402" lon="9.0745231"><ele>218.0</ele><time>2026-04-04T14:15:09.497Z</time></trkpt><trkpt lat="45.8414792" lon="9.0744756"><ele>218.0</ele><time>2026-04-04T14:15:10.497Z</time></trkpt><trkpt lat="45.8415395" lon="9.0744305"><ele>218.0</ele><time>2026-04-04T14:15:11.497Z</time></trkpt><trkpt lat="45.8416032" lon="9.074315"><ele>218.0</ele><time>2026-04-04T14:15:13.496Z</time></trkpt><trkpt lat="45.8415952" lon="9.0741848"><ele>218.0</ele><time>2026-04-04T14:15:15.496Z</time></trkpt><trkpt lat="45.8415626" lon="9.0740024"><ele>219.66666666666669</ele><time>2026-04-04T14:15:17.496Z</time></trkpt><trkpt lat="45.8415531" lon="9.0739014"><ele>221.33333333333334</ele><time>2026-04-04T14:15:18.497Z</time></trkpt><trkpt lat="45.8415319" lon="9.0738139"><ele>223.0</ele><time>2026-04-04T14:15:19.497Z</time></trkpt><trkpt lat="45.841495" lon="9.0737241"><ele>224.66666666666669</ele><time>2026-04-04T14:15:20.497Z</time></trkpt><trkpt lat="45.8414374" lon="9.0736417"><ele>226.33333333333334</ele><time>2026-04-04T14:15:21.496Z</time></trkpt><trkpt lat="45.8413656" lon="9.0735543"><ele>228.0</ele><time>2026-04-04T14:15:22.497Z</time></trkpt><trkpt lat="45.8412829" lon="9.0734621"><ele>228.0</ele><time>2026-04-04T14:15:23.497Z</time></trkpt><trkpt lat="45.8411964" lon="9.0733629"><ele>228.0</ele><time>2026-04-04T14:15:24.496Z</time></trkpt><trkpt lat="45.8411164" lon="9.0732571"><ele>228.0</ele><time>2026-04-04T14:15:25.497Z</time></trkpt><trkpt lat="45.8410468" lon="9.0731207"><ele>228.0</ele><time>2026-04-04T14:15:26.497Z</time></trkpt><trkpt lat="45.8409832" lon="9.0729764"><ele>230.0</ele><time>2026-04-04T14:15:27.497Z</time></trkpt><trkpt lat="45.8409168" lon="9.0728238"><ele>232.0</ele><time>2026-04-04T14:15:28.497Z</time></trkpt><trkpt lat="45.8408526" lon="9.0726744"><ele>234.0</ele><time>2026-04-04T14:15:29.497Z</time></trkpt><trkpt lat="45.8407987" lon="9.0725436"><ele>236.0</ele><time>2026-04-04T14:15:30.497Z</time></trkpt><trkpt lat="45.8407609" lon="9.072409"><ele>237.4</ele><time>2026-04-04T14:15:31.497Z</time></trkpt><trkpt lat="45.8407451" lon="9.0722659"><ele>238.8</ele><time>2026-04-04T14:15:32.497Z</time></trkpt><trkpt lat="45.8407393" lon="9.0721131"><ele>240.20000000000002</ele><time>2026-04-04T14:15:33.497Z</time></trkpt><trkpt lat="45.8407125" lon="9.0719547"><ele>241.60000000000002</ele><time>2026-04-04T14:15:34.496Z</time></trkpt><trkpt lat="45.8406694" lon="9.0717955"><ele>243.0</ele><time>2026-04-04T14:15:35.497Z</time></trkpt><trkpt lat="45.8406199" lon="9.0716319"><ele>249.5</ele><time>2026-04-04T14:15:36.497Z</time></trkpt><trkpt lat="45.8405623" lon="9.0714704"><ele>256.0</ele><time>2026-04-04T14:15:37.497Z</time></trkpt><trkpt lat="45.8405066" lon="9.0713266"><ele>262.5</ele><time>2026-04-04T14:15:38.497Z</time></trkpt><trkpt lat="45.840431" lon="9.071217"><ele>269.0</ele><time>2026-04-04T14:15:39.497Z</time></trkpt><trkpt lat="45.8403442" lon="9.0711336"><ele>269.0</ele><time>2026-04-04T14:15:40.497Z</time></trkpt><trkpt lat="45.8402462" lon="9.0710697"><ele>269.0</ele><time>2026-04-04T14:15:41.497Z</time></trkpt><trkpt lat="45.8401393" lon="9.0710127"><ele>269.0</ele><time>2026-04-04T14:15:42.497Z</time></trkpt><trkpt lat="45.8400353" lon="9.0709526"><ele>269.0</ele><time>2026-04-04T14:15:43.497Z</time></trkpt><trkpt lat="45.8399382" lon="9.0708889"><ele>269.0</ele><time>2026-04-04T14:15:44.497Z</time></trkpt><trkpt lat="45.8398597" lon="9.0708189"><ele>270.4</ele><time>2026-04-04T14:15:45.497Z</time></trkpt><trkpt lat="45.8397899" lon="9.070734"><ele>271.79999999999995</ele><time>2026-04-04T14:15:46.497Z</time></trkpt><trkpt lat="45.8397246" lon="9.0706375"><ele>273.20000000000005</ele><time>2026-04-04T14:15:47.497Z</time></trkpt><trkpt lat="45.8396564" lon="9.0705385"><ele>274.6</ele><time>2026-04-04T14:15:48.496Z</time></trkpt><trkpt lat="45.8395864" lon="9.0704368"><ele>276.0</ele><time>2026-04-04T14:15:49.497Z</time></trkpt><trkpt lat="45.8395222" lon="9.0703302"><ele>276.0</ele><time>2026-04-04T14:15:50.497Z</time></trkpt><trkpt lat="45.8394719" lon="9.0702107"><ele>276.0</ele><time>2026-04-04T14:15:51.497Z</time></trkpt><trkpt lat="45.839427" lon="9.0700836"><ele>276.0</ele><time>2026-04-04T14:15:52.497Z</time></trkpt><trkpt lat="45.8393874" lon="9.0699522"><ele>276.0</ele><time>2026-04-04T14:15:53.497Z</time></trkpt><trkpt lat="45.8393589" lon="9.0698134"><ele>276.0</ele><time>2026-04-04T14:15:54.496Z</time></trkpt><trkpt lat="45.8393345" lon="9.0696764"><ele>277.40000000000003</ele><time>2026-04-04T14:15:55.497Z</time></trkpt><trkpt lat="45.8393131" lon="9.0695411"><ele>278.8</ele><time>2026-04-04T14:15:56.497Z</time></trkpt><trkpt lat="45.839295" lon="9.0694055"><ele>280.20000000000005</ele><time>2026-04-04T14:15:57.497Z</time></trkpt><trkpt lat="45.8392918" lon="9.0692722"><ele>281.6</ele><time>2026-04-04T14:15:58.497Z</time></trkpt><trkpt lat="45.8392983" lon="9.0691291"><ele>283.0</ele><time>2026-04-04T14:15:59.496Z</time></trkpt><trkpt lat="45.8393023" lon="9.0689896"><ele>283.2</ele><time>2026-04-04T14:16:00.497Z</time></trkpt><trkpt lat="45.8393051" lon="9.0688499"><ele>283.4</ele><time>2026-04-04T14:16:01.497Z</time></trkpt><trkpt lat="45.8393119" lon="9.0687111"><ele>283.59999999999997</ele><time>2026-04-04T14:16:02.497Z</time></trkpt><trkpt lat="45.8393216" lon="9.0685731"><ele>283.8</ele><time>2026-04-04T14:16:03.497Z</time></trkpt><trkpt lat="45.8393311" lon="9.0684416"><ele>284.0</ele><time>2026-04-04T14:16:04.497Z</time></trkpt><trkpt lat="45.8393492" lon="9.0683188"><ele>284.1666666666667</ele><time>2026-04-04T14:16:05.497Z</time></trkpt><trkpt lat="45.8393765" lon="9.0682113"><ele>284.33333333333337</ele><time>2026-04-04T14:16:06.497Z</time></trkpt><trkpt lat="45.839411" lon="9.0681142"><ele>284.5</ele><time>2026-04-04T14:16:07.497Z</time></trkpt><trkpt lat="45.8394508" lon="9.0680183"><ele>284.6666666666667</ele><time>2026-04-04T14:16:08.496Z</time></trkpt><trkpt lat="45.8394817" lon="9.0679141"><ele>284.8333333333333</ele><time>2026-04-04T14:16:09.496Z</time></trkpt><trkpt lat="45.8395071" lon="9.0678073"><ele>285.0</ele><time>2026-04-04T14:16:10.496Z</time></trkpt><trkpt lat="45.8395251" lon="9.0677003"><ele>285.0</ele><time>2026-04-04T14:16:11.497Z</time></trkpt><trkpt lat="45.8395374" lon="9.0675924"><ele>285.0</ele><time>2026-04-04T14:16:12.497Z</time></trkpt><trkpt lat="45.8395409" lon="9.0674831"><ele>285.0</ele><time>2026-04-04T14:16:13.497Z</time></trkpt><trkpt lat="45.8395383" lon="9.0673695"><ele>285.0</ele><time>2026-04-04T14:16:14.497Z</time></trkpt><trkpt lat="45.8395314" lon="9.0672563"><ele>285.0</ele><time>2026-04-04T14:16:15.496Z</time></trkpt><trkpt lat="45.8395222" lon="9.0671422"><ele>285.0</ele><time>2026-04-04T14:16:16.497Z</time></trkpt><trkpt lat="45.8395132" lon="9.0670249"><ele>284.8333333333333</ele><time>2026-04-04T14:16:17.497Z</time></trkpt><trkpt lat="45.8395082" lon="9.0669066"><ele>284.6666666666667</ele><time>2026-04-04T14:16:18.497Z</time></trkpt><trkpt lat="45.8395032" lon="9.0667925"><ele>284.5</ele><time>2026-04-04T14:16:19.497Z</time></trkpt><trkpt lat="45.839498" lon="9.0666954"><ele>284.33333333333337</ele><time>2026-04-04T14:16:20.497Z</time></trkpt><trkpt lat="45.8394905" lon="9.0665406"><ele>284.1666666666667</ele><time>2026-04-04T14:16:22.497Z</time></trkpt><trkpt lat="45.8394863" lon="9.0664359"><ele>284.0</ele><time>2026-04-04T14:16:24.497Z</time></trkpt><trkpt lat="45.8395397" lon="9.0663764"><ele>284.0</ele><time>2026-04-04T14:16:27.497Z</time></trkpt><trkpt lat="45.8395717" lon="9.0664814"><ele>284.0</ele><time>2026-04-04T14:16:30.497Z</time></trkpt><trkpt lat="45.8395558" lon="9.0666347"><ele>284.0</ele><time>2026-04-04T14:16:32.497Z</time></trkpt><trkpt lat="45.8395545" lon="9.0667976"><ele>284.0</ele><time>2026-04-04T14:16:34.497Z</time></trkpt><trkpt lat="45.8395663" lon="9.0668877"><ele>284.0</ele><time>2026-04-04T14:16:35.497Z</time></trkpt><trkpt lat="45.8395856" lon="9.0669797"><ele>284.0</ele><time>2026-04-04T14:16:36.496Z</time></trkpt><trkpt lat="45.8396146" lon="9.067072"><ele>284.0</ele><time>2026-04-04T14:16:37.497Z</time></trkpt><trkpt lat="45.8396499" lon="9.0671633"><ele>284.0</ele><time>2026-04-04T14:16:38.497Z</time></trkpt><trkpt lat="45.8396878" lon="9.0672545"><ele>284.0</ele><time>2026-04-04T14:16:39.496Z</time></trkpt><trkpt lat="45.8397249" lon="9.067349"><ele>284.0</ele><time>2026-04-04T14:16:40.497Z</time></trkpt><trkpt lat="45.8397554" lon="9.0674424"><ele>284.0</ele><time>2026-04-04T14:16:41.497Z</time></trkpt><trkpt lat="45.8397711" lon="9.0675333"><ele>284.0</ele><time>2026-04-04T14:16:42.497Z</time></trkpt><trkpt lat="45.8397591" lon="9.0677203"><ele>284.0</ele><time>2026-04-04T14:16:44.497Z</time></trkpt><trkpt lat="45.8397426" lon="9.0678273"><ele>284.0</ele><time>2026-04-04T14:16:45.497Z</time></trkpt><trkpt lat="45.8397279" lon="9.0679388"><ele>284.0</ele><time>2026-04-04T14:16:46.497Z</time></trkpt><trkpt lat="45.8397142" lon="9.0680494"><ele>284.0</ele><time>2026-04-04T14:16:47.497Z</time></trkpt><trkpt lat="45.8396992" lon="9.0681611"><ele>284.0</ele><time>2026-04-04T14:16:48.497Z</time></trkpt><trkpt lat="45.8396859" lon="9.0682686"><ele>284.0</ele><time>2026-04-04T14:16:49.497Z</time></trkpt><trkpt lat="45.8396841" lon="9.0683824"><ele>284.0</ele><time>2026-04-04T14:16:50.497Z</time></trkpt><trkpt lat="45.8396913" lon="9.0684995"><ele>284.0</ele><time>2026-04-04T14:16:51.497Z</time></trkpt><trkpt lat="45.8397093" lon="9.0686195"><ele>284.0</ele><time>2026-04-04T14:16:52.497Z</time></trkpt><trkpt lat="45.839733" lon="9.0687437"><ele>284.0</ele><time>2026-04-04T14:16:53.497Z</time></trkpt><trkpt lat="45.8397553" lon="9.0688707"><ele>284.0</ele><time>2026-04-04T14:16:54.497Z</time></trkpt><trkpt lat="45.8397768" lon="9.068994"><ele>284.0</ele><time>2026-04-04T14:16:55.497Z</time></trkpt><trkpt lat="45.8398016" lon="9.0691144"><ele>283.83333333333337</ele><time>2026-04-04T14:16:56.496Z</time></trkpt><trkpt lat="45.8398274" lon="9.0692312"><ele>283.6666666666667</ele><time>2026-04-04T14:16:57.497Z</time></trkpt><trkpt lat="45.8398548" lon="9.0693489"><ele>283.5</ele><time>2026-04-04T14:16:58.497Z</time></trkpt><trkpt lat="45.8398867" lon="9.069466"><ele>283.3333333333333</ele><time>2026-04-04T14:16:59.497Z</time></trkpt><trkpt lat="45.8399185" lon="9.0695824"><ele>283.16666666666663</ele><time>2026-04-04T14:17:00.497Z</time></trkpt><trkpt lat="45.839956" lon="9.0696963"><ele>283.0</ele><time>2026-04-04T14:17:01.496Z</time></trkpt><trkpt lat="45.8400086" lon="9.0697948"><ele>283.0</ele><time>2026-04-04T14:17:02.497Z</time></trkpt><trkpt lat="45.8400682" lon="9.0698708"><ele>283.0</ele><time>2026-04-04T14:17:03.496Z</time></trkpt><trkpt lat="45.8401314" lon="9.0699168"><ele>283.0</ele><time>2026-04-04T14:17:04.497Z</time></trkpt><trkpt lat="45.8401966" lon="9.0699477"><ele>283.0</ele><time>2026-04-04T14:17:05.496Z</time></trkpt><trkpt lat="45.8402613" lon="9.0699592"><ele>283.0</ele><time>2026-04-04T14:17:06.497Z</time></trkpt><trkpt lat="45.840327" lon="9.0699462"><ele>283.0</ele><time>2026-04-04T14:17:07.496Z</time></trkpt><trkpt lat="45.8403949" lon="9.0699178"><ele>283.0</ele><time>2026-04-04T14:17:08.496Z</time></trkpt><trkpt lat="45.8404604" lon="9.0698734"><ele>285.0</ele><time>2026-04-04T14:17:09.497Z</time></trkpt><trkpt lat="45.840517" lon="9.0698102"><ele>287.0</ele><time>2026-04-04T14:17:10.497Z</time></trkpt><trkpt lat="45.8405766" lon="9.0697375"><ele>289.0</ele><time>2026-04-04T14:17:11.497Z</time></trkpt><trkpt lat="45.8406329" lon="9.0696654"><ele>291.0</ele><time>2026-04-04T14:17:12.497Z</time></trkpt><trkpt lat="45.8406927" lon="9.0695903"><ele>293.0</ele><time>2026-04-04T14:17:13.497Z</time></trkpt><trkpt lat="45.8407497" lon="9.0695152"><ele>295.0</ele><time>2026-04-04T14:17:14.497Z</time></trkpt><trkpt lat="45.8408012" lon="9.069437"><ele>295.0</ele><time>2026-04-04T14:17:15.497Z</time></trkpt><trkpt lat="45.840856" lon="9.0693582"><ele>295.0</ele><time>2026-04-04T14:17:16.497Z</time></trkpt><trkpt lat="45.8409042" lon="9.0692885"><ele>295.0</ele><time>2026-04-04T14:17:17.497Z</time></trkpt><trkpt lat="45.8409882" lon="9.0691677"><ele>295.0</ele><time>2026-04-04T14:17:19.497Z</time></trkpt><trkpt lat="45.8410676" lon="9.0690584"><ele>295.0</ele><time>2026-04-04T14:17:21.497Z</time></trkpt><trkpt lat="45.8411408" lon="9.0689895"><ele>295.5</ele><time>2026-04-04T14:17:23.497Z</time></trkpt><trkpt lat="45.841219" lon="9.0689423"><ele>296.0</ele><time>2026-04-04T14:17:25.497Z</time></trkpt><trkpt lat="45.8413027" lon="9.0689298"><ele>296.5</ele><time>2026-04-04T14:17:27.497Z</time></trkpt><trkpt lat="45.8413832" lon="9.0689778"><ele>297.0</ele><time>2026-04-04T14:17:29.497Z</time></trkpt><trkpt lat="45.841478" lon="9.0690641"><ele>297.5</ele><time>2026-04-04T14:17:31.497Z</time></trkpt><trkpt lat="45.841533" lon="9.0691148"><ele>298.0</ele><time>2026-04-04T14:17:32.496Z</time></trkpt><trkpt lat="45.8416353" lon="9.0691971"><ele>298.0</ele><time>2026-04-04T14:17:34.497Z</time></trkpt><trkpt lat="45.8417487" lon="9.0691877"><ele>298.0</ele><time>2026-04-04T14:17:36.497Z</time></trkpt><trkpt lat="45.8418119" lon="9.0691795"><ele>298.0</ele><time>2026-04-04T14:17:37.497Z</time></trkpt><trkpt lat="45.8418799" lon="9.0691688"><ele>298.0</ele><time>2026-04-04T14:17:38.497Z</time></trkpt><trkpt lat="45.8419471" lon="9.0691539"><ele>298.0</ele><time>2026-04-04T14:17:39.496Z</time></trkpt><trkpt lat="45.8420133" lon="9.0691359"><ele>298.0</ele><time>2026-04-04T14:17:40.497Z</time></trkpt><trkpt lat="45.8420944" lon="9.0690714"><ele>300.66666666666663</ele><time>2026-04-04T14:17:42.497Z</time></trkpt><trkpt lat="45.8421072" lon="9.0689787"><ele>303.3333333333333</ele><time>2026-04-04T14:17:44.497Z</time></trkpt><trkpt lat="45.8420589" lon="9.0688511"><ele>306.0</ele><time>2026-04-04T14:17:46.497Z</time></trkpt><trkpt lat="45.8419961" lon="9.068723"><ele>308.6666666666667</ele><time>2026-04-04T14:17:48.497Z</time></trkpt><trkpt lat="45.8419709" lon="9.0686164"><ele>311.33333333333337</ele><time>2026-04-04T14:17:50.497Z</time></trkpt><trkpt lat="45.8420031" lon="9.0685056"><ele>314.0</ele><time>2026-04-04T14:17:52.497Z</time></trkpt><trkpt lat="45.8420738" lon="9.0683555"><ele>315.2857142857143</ele><time>2026-04-04T14:17:54.497Z</time></trkpt><trkpt lat="45.8421173" lon="9.0682672"><ele>316.57142857142856</ele><time>2026-04-04T14:17:55.497Z</time></trkpt><trkpt lat="45.8421546" lon="9.0681903"><ele>317.8571428571429</ele><time>2026-04-04T14:17:56.497Z</time></trkpt><trkpt lat="45.8421912" lon="9.0680963"><ele>319.1428571428571</ele><time>2026-04-04T14:17:57.497Z</time></trkpt><trkpt lat="45.8422148" lon="9.0679992"><ele>320.42857142857144</ele><time>2026-04-04T14:17:58.497Z</time></trkpt><trkpt lat="45.8422194" lon="9.0678952"><ele>321.7142857142857</ele><time>2026-04-04T14:17:59.497Z</time></trkpt><trkpt lat="45.8422078" lon="9.0677902"><ele>323.0</ele><time>2026-04-04T14:18:00.496Z</time></trkpt><trkpt lat="45.8421876" lon="9.0676919"><ele>323.0</ele><time>2026-04-04T14:18:01.497Z</time></trkpt><trkpt lat="45.8421465" lon="9.0675165"><ele>323.0</ele><time>2026-04-04T14:18:03.497Z</time></trkpt><trkpt lat="45.8421748" lon="9.0673523"><ele>323.0</ele><time>2026-04-04T14:18:05.497Z</time></trkpt><trkpt lat="45.8422664" lon="9.0672382"><ele>323.0</ele><time>2026-04-04T14:18:07.497Z</time></trkpt><trkpt lat="45.8423667" lon="9.0671841"><ele>324.4</ele><time>2026-04-04T14:18:09.497Z</time></trkpt><trkpt lat="45.8423842" lon="9.0670196"><ele>325.79999999999995</ele><time>2026-04-04T14:18:12.497Z</time></trkpt><trkpt lat="45.8423834" lon="9.066879"><ele>327.2</ele><time>2026-04-04T14:18:14.496Z</time></trkpt><trkpt lat="45.8423603" lon="9.0667168"><ele>328.6</ele><time>2026-04-04T14:18:16.497Z</time></trkpt><trkpt lat="45.8423265" lon="9.066611"><ele>330.0</ele><time>2026-04-04T14:18:17.497Z</time></trkpt><trkpt lat="45.8422988" lon="9.0665135"><ele>331.2</ele><time>2026-04-04T14:18:18.497Z</time></trkpt><trkpt lat="45.8422723" lon="9.0664026"><ele>332.4</ele><time>2026-04-04T14:18:19.497Z</time></trkpt><trkpt lat="45.8422574" lon="9.0662833"><ele>333.6</ele><time>2026-04-04T14:18:20.497Z</time></trkpt><trkpt lat="45.8422447" lon="9.0661526"><ele>334.8</ele><time>2026-04-04T14:18:21.496Z</time></trkpt><trkpt lat="45.8422344" lon="9.0660123"><ele>336.0</ele><time>2026-04-04T14:18:22.496Z</time></trkpt><trkpt lat="45.8422236" lon="9.0658619"><ele>335.6666666666667</ele><time>2026-04-04T14:18:23.497Z</time></trkpt><trkpt lat="45.8422152" lon="9.0657112"><ele>335.3333333333333</ele><time>2026-04-04T14:18:24.496Z</time></trkpt><trkpt lat="45.8422061" lon="9.065565"><ele>335.0</ele><time>2026-04-04T14:18:25.497Z</time></trkpt><trkpt lat="45.8422056" lon="9.0654346"><ele>334.66666666666663</ele><time>2026-04-04T14:18:26.497Z</time></trkpt><trkpt lat="45.8422241" lon="9.0653377"><ele>334.3333333333333</ele><time>2026-04-04T14:18:27.497Z</time></trkpt><trkpt lat="45.8422569" lon="9.0652536"><ele>334.0</ele><time>2026-04-04T14:18:28.497Z</time></trkpt><trkpt lat="45.842363" lon="9.0651479"><ele>334.0</ele><time>2026-04-04T14:18:30.497Z</time></trkpt><trkpt lat="45.8424275" lon="9.0650984"><ele>334.0</ele><time>2026-04-04T14:18:31.497Z</time></trkpt><trkpt lat="45.8424914" lon="9.0650509"><ele>334.0</ele><time>2026-04-04T14:18:32.497Z</time></trkpt><trkpt lat="45.8425514" lon="9.0650083"><ele>334.0</ele><time>2026-04-04T14:18:33.497Z</time></trkpt><trkpt lat="45.842633" lon="9.0649563"><ele>334.0</ele><time>2026-04-04T14:18:35.496Z</time></trkpt><trkpt lat="45.8427302" lon="9.0649492"><ele>334.0</ele><time>2026-04-04T14:18:37.497Z</time></trkpt><trkpt lat="45.8427932" lon="9.0649684"><ele>336.8333333333333</ele><time>2026-04-04T14:18:38.496Z</time></trkpt><trkpt lat="45.8428703" lon="9.0649902"><ele>339.66666666666663</ele><time>2026-04-04T14:18:39.497Z</time></trkpt><trkpt lat="45.8429559" lon="9.0650187"><ele>342.5</ele><time>2026-04-04T14:18:40.497Z</time></trkpt><trkpt lat="45.8430376" lon="9.0650433"><ele>345.3333333333333</ele><time>2026-04-04T14:18:41.496Z</time></trkpt><trkpt lat="45.8431177" lon="9.0650668"><ele>348.1666666666667</ele><time>2026-04-04T14:18:42.496Z</time></trkpt><trkpt lat="45.8431951" lon="9.0650906"><ele>351.0</ele><time>2026-04-04T14:18:43.497Z</time></trkpt><trkpt lat="45.8432872" lon="9.0651194"><ele>351.0</ele><time>2026-04-04T14:18:44.497Z</time></trkpt><trkpt lat="45.8433886" lon="9.0651472"><ele>351.0</ele><time>2026-04-04T14:18:45.497Z</time></trkpt><trkpt lat="45.8434862" lon="9.0651645"><ele>351.0</ele><time>2026-04-04T14:18:46.497Z</time></trkpt><trkpt lat="45.8435799" lon="9.0651667"><ele>351.0</ele><time>2026-04-04T14:18:47.496Z</time></trkpt><trkpt lat="45.8436709" lon="9.0651746"><ele>351.0</ele><time>2026-04-04T14:18:48.496Z</time></trkpt><trkpt lat="45.8437547" lon="9.065191"><ele>354.1666666666667</ele><time>2026-04-04T14:18:49.497Z</time></trkpt><trkpt lat="45.8438371" lon="9.0652152"><ele>357.3333333333333</ele><time>2026-04-04T14:18:50.497Z</time></trkpt><trkpt lat="45.8439169" lon="9.0652488"><ele>360.5</ele><time>2026-04-04T14:18:51.497Z</time></trkpt><trkpt lat="45.8439951" lon="9.0652905"><ele>363.66666666666663</ele><time>2026-04-04T14:18:52.497Z</time></trkpt><trkpt lat="45.8440669" lon="9.0653368"><ele>366.8333333333333</ele><time>2026-04-04T14:18:53.497Z</time></trkpt><trkpt lat="45.8441372" lon="9.0653931"><ele>370.0</ele><time>2026-04-04T14:18:54.497Z</time></trkpt><trkpt lat="45.8442005" lon="9.0654696"><ele>370.0</ele><time>2026-04-04T14:18:55.497Z</time></trkpt><trkpt lat="45.8442468" lon="9.0655597"><ele>370.0</ele><time>2026-04-04T14:18:56.497Z</time></trkpt><trkpt lat="45.8442757" lon="9.0656623"><ele>370.0</ele><time>2026-04-04T14:18:57.497Z</time></trkpt><trkpt lat="45.8442927" lon="9.0657819"><ele>370.0</ele><time>2026-04-04T14:18:58.497Z</time></trkpt><trkpt lat="45.8443083" lon="9.0658999"><ele>370.0</ele><time>2026-04-04T14:18:59.497Z</time></trkpt><trkpt lat="45.8443191" lon="9.0660165"><ele>370.0</ele><time>2026-04-04T14:19:00.497Z</time></trkpt><trkpt lat="45.8443329" lon="9.0661369"><ele>374.2</ele><time>2026-04-04T14:19:01.496Z</time></trkpt><trkpt lat="45.8443629" lon="9.0662503"><ele>378.4</ele><time>2026-04-04T14:19:02.497Z</time></trkpt><trkpt lat="45.8444049" lon="9.0663414"><ele>382.6</ele><time>2026-04-04T14:19:03.496Z</time></trkpt><trkpt lat="45.8444583" lon="9.0663951"><ele>386.8</ele><time>2026-04-04T14:19:04.497Z</time></trkpt><trkpt lat="45.8445698" lon="9.0664196"><ele>391.0</ele><time>2026-04-04T14:19:06.497Z</time></trkpt><trkpt lat="45.8446754" lon="9.0663564"><ele>391.00000000000006</ele><time>2026-04-04T14:19:08.497Z</time></trkpt><trkpt lat="45.8447474" lon="9.0663144"><ele>391.0</ele><time>2026-04-04T14:19:10.497Z</time></trkpt><trkpt lat="45.8448365" lon="9.0662938"><ele>391.0</ele><time>2026-04-04T14:19:47.497Z</time></trkpt><trkpt lat="45.8447558" lon="9.0662802"><ele>391.0</ele><time>2026-04-04T14:19:53.497Z</time></trkpt><trkpt lat="45.8446902" lon="9.0663285"><ele>391.00000000000006</ele><time>2026-04-04T14:19:55.497Z</time></trkpt><trkpt lat="45.8446276" lon="9.0663698"><ele>391.0</ele><time>2026-04-04T14:19:57.497Z</time></trkpt><trkpt lat="45.8445425" lon="9.0664083"><ele>391.00000000000006</ele><time>2026-04-04T14:19:59.497Z</time></trkpt><trkpt lat="45.8444483" lon="9.0663788"><ele>391.0</ele><time>2026-04-04T14:20:01.497Z</time></trkpt><trkpt lat="45.8443718" lon="9.0662411"><ele>391.0</ele><time>2026-04-04T14:20:03.497Z</time></trkpt><trkpt lat="45.8443486" lon="9.0661485"><ele>391.0</ele><time>2026-04-04T14:20:04.497Z</time></trkpt><trkpt lat="45.8443325" lon="9.0660402"><ele>391.00000000000006</ele><time>2026-04-04T14:20:05.497Z</time></trkpt><trkpt lat="45.8443243" lon="9.0659216"><ele>391.0</ele><time>2026-04-04T14:20:06.496Z</time></trkpt><trkpt lat="45.8443144" lon="9.0658095"><ele>391.50000000000006</ele><time>2026-04-04T14:20:07.497Z</time></trkpt><trkpt lat="45.8443038" lon="9.0656967"><ele>392.0</ele><time>2026-04-04T14:20:08.496Z</time></trkpt><trkpt lat="45.8442859" lon="9.0655919"><ele>392.5</ele><time>2026-04-04T14:20:09.496Z</time></trkpt><trkpt lat="45.8442494" lon="9.0655007"><ele>393.0</ele><time>2026-04-04T14:20:10.497Z</time></trkpt><trkpt lat="45.8442017" lon="9.0654221"><ele>393.50000000000006</ele><time>2026-04-04T14:20:11.497Z</time></trkpt><trkpt lat="45.8441415" lon="9.0653614"><ele>394.0</ele><time>2026-04-04T14:20:12.497Z</time></trkpt><trkpt lat="45.8440698" lon="9.065313"><ele>390.00000000000006</ele><time>2026-04-04T14:20:13.497Z</time></trkpt><trkpt lat="45.8439919" lon="9.0652621"><ele>386.0</ele><time>2026-04-04T14:20:14.497Z</time></trkpt><trkpt lat="45.8439173" lon="9.0652198"><ele>382.0</ele><time>2026-04-04T14:20:15.497Z</time></trkpt><trkpt lat="45.8438374" lon="9.0651869"><ele>378.0</ele><time>2026-04-04T14:20:16.497Z</time></trkpt><trkpt lat="45.8437492" lon="9.0651692"><ele>374.0</ele><time>2026-04-04T14:20:17.497Z</time></trkpt><trkpt lat="45.8436592" lon="9.0651607"><ele>370.0</ele><time>2026-04-04T14:20:18.496Z</time></trkpt><trkpt lat="45.8435774" lon="9.0651534"><ele>370.0</ele><time>2026-04-04T14:20:19.497Z</time></trkpt><trkpt lat="45.8434962" lon="9.0651429"><ele>370.0</ele><time>2026-04-04T14:20:20.497Z</time></trkpt><trkpt lat="45.8434115" lon="9.0651257"><ele>370.0</ele><time>2026-04-04T14:20:21.496Z</time></trkpt><trkpt lat="45.8433264" lon="9.0651028"><ele>370.0</ele><time>2026-04-04T14:20:22.496Z</time></trkpt><trkpt lat="45.843241" lon="9.0650776"><ele>370.0</ele><time>2026-04-04T14:20:23.497Z</time></trkpt><trkpt lat="45.8431537" lon="9.065057"><ele>370.0</ele><time>2026-04-04T14:20:24.496Z</time></trkpt><trkpt lat="45.8430715" lon="9.0650311"><ele>366.8333333333333</ele><time>2026-04-04T14:20:25.497Z</time></trkpt><trkpt lat="45.8429925" lon="9.0650104"><ele>363.66666666666663</ele><time>2026-04-04T14:20:26.497Z</time></trkpt><trkpt lat="45.8429112" lon="9.0649925"><ele>360.5</ele><time>2026-04-04T14:20:27.497Z</time></trkpt><trkpt lat="45.8428346" lon="9.0649707"><ele>357.3333333333333</ele><time>2026-04-04T14:20:28.496Z</time></trkpt><trkpt lat="45.8427679" lon="9.0649524"><ele>354.1666666666667</ele><time>2026-04-04T14:20:29.497Z</time></trkpt><trkpt lat="45.8426437" lon="9.0649519"><ele>351.0</ele><time>2026-04-04T14:20:31.497Z</time></trkpt><trkpt lat="45.8425685" lon="9.0649824"><ele>348.1666666666667</ele><time>2026-04-04T14:20:32.497Z</time></trkpt><trkpt lat="45.8424934" lon="9.0650344"><ele>345.3333333333333</ele><time>2026-04-04T14:20:33.497Z</time></trkpt><trkpt lat="45.8424222" lon="9.0650899"><ele>342.5</ele><time>2026-04-04T14:20:34.497Z</time></trkpt><trkpt lat="45.8423502" lon="9.06514"><ele>339.66666666666663</ele><time>2026-04-04T14:20:35.497Z</time></trkpt><trkpt lat="45.8422855" lon="9.0651954"><ele>336.8333333333333</ele><time>2026-04-04T14:20:36.497Z</time></trkpt><trkpt lat="45.8422388" lon="9.0652609"><ele>334.0</ele><time>2026-04-04T14:20:37.497Z</time></trkpt><trkpt lat="45.8422027" lon="9.0654304"><ele>334.0</ele><time>2026-04-04T14:20:39.497Z</time></trkpt><trkpt lat="45.8422069" lon="9.0655338"><ele>334.0</ele><time>2026-04-04T14:20:40.497Z</time></trkpt><trkpt lat="45.8422176" lon="9.0656575"><ele>334.0</ele><time>2026-04-04T14:20:41.497Z</time></trkpt><trkpt lat="45.8422279" lon="9.0657919"><ele>334.0</ele><time>2026-04-04T14:20:42.497Z</time></trkpt><trkpt lat="45.8422368" lon="9.0659263"><ele>334.0</ele><time>2026-04-04T14:20:43.497Z</time></trkpt><trkpt lat="45.8422441" lon="9.066056"><ele>334.0</ele><time>2026-04-04T14:20:44.497Z</time></trkpt><trkpt lat="45.8422491" lon="9.0661739"><ele>334.3333333333333</ele><time>2026-04-04T14:20:45.497Z</time></trkpt><trkpt lat="45.8422608" lon="9.0662948"><ele>334.66666666666663</ele><time>2026-04-04T14:20:46.497Z</time></trkpt><trkpt lat="45.8422807" lon="9.0664112"><ele>335.0</ele><time>2026-04-04T14:20:47.497Z</time></trkpt><trkpt lat="45.842307" lon="9.0665198"><ele>335.3333333333333</ele><time>2026-04-04T14:20:48.497Z</time></trkpt><trkpt lat="45.8423329" lon="9.066617"><ele>335.6666666666667</ele><time>2026-04-04T14:20:49.497Z</time></trkpt><trkpt lat="45.842374" lon="9.0667753"><ele>336.0</ele><time>2026-04-04T14:20:51.496Z</time></trkpt><trkpt lat="45.8423719" lon="9.0669152"><ele>334.8</ele><time>2026-04-04T14:20:53.496Z</time></trkpt><trkpt lat="45.8423864" lon="9.0670527"><ele>333.6</ele><time>2026-04-04T14:20:55.497Z</time></trkpt><trkpt lat="45.8423704" lon="9.0671511"><ele>332.4</ele><time>2026-04-04T14:20:57.497Z</time></trkpt><trkpt lat="45.8422904" lon="9.067204"><ele>331.2</ele><time>2026-04-04T14:20:59.497Z</time></trkpt><trkpt lat="45.8421905" lon="9.0672879"><ele>330.0</ele><time>2026-04-04T14:21:01.497Z</time></trkpt><trkpt lat="45.8421332" lon="9.0674176"><ele>328.6</ele><time>2026-04-04T14:21:03.497Z</time></trkpt><trkpt lat="45.8421505" lon="9.0675794"><ele>327.2</ele><time>2026-04-04T14:21:05.497Z</time></trkpt><trkpt lat="45.8421783" lon="9.0676763"><ele>325.79999999999995</ele><time>2026-04-04T14:21:06.497Z</time></trkpt><trkpt lat="45.8422022" lon="9.0677875"><ele>324.4</ele><time>2026-04-04T14:21:07.497Z</time></trkpt><trkpt lat="45.8422122" lon="9.0678864"><ele>323.0</ele><time>2026-04-04T14:21:08.497Z</time></trkpt><trkpt lat="45.84219" lon="9.0680491"><ele>323.0</ele><time>2026-04-04T14:21:10.497Z</time></trkpt><trkpt lat="45.84213" lon="9.068209"><ele>323.0</ele><time>2026-04-04T14:21:12.497Z</time></trkpt><trkpt lat="45.8420866" lon="9.0683012"><ele>323.0</ele><time>2026-04-04T14:21:13.497Z</time></trkpt><trkpt lat="45.8420497" lon="9.0683777"><ele>323.0</ele><time>2026-04-04T14:21:14.497Z</time></trkpt><trkpt lat="45.84199" lon="9.0684972"><ele>323.0</ele><time>2026-04-04T14:21:16.497Z</time></trkpt><trkpt lat="45.8419557" lon="9.0685852"><ele>323.0</ele><time>2026-04-04T14:21:19.497Z</time></trkpt><trkpt lat="45.8419667" lon="9.0687157"><ele>321.2</ele><time>2026-04-04T14:21:21.497Z</time></trkpt><trkpt lat="45.842005" lon="9.0688024"><ele>319.4</ele><time>2026-04-04T14:21:22.497Z</time></trkpt><trkpt lat="45.8420679" lon="9.0689313"><ele>317.59999999999997</ele><time>2026-04-04T14:21:24.497Z</time></trkpt><trkpt lat="45.8421006" lon="9.0690236"><ele>315.79999999999995</ele><time>2026-04-04T14:21:27.497Z</time></trkpt><trkpt lat="45.8421604" lon="9.0690921"><ele>314.0</ele><time>2026-04-04T14:21:29.497Z</time></trkpt><trkpt lat="45.8422884" lon="9.0691507"><ele>313.4</ele><time>2026-04-04T14:21:31.497Z</time></trkpt><trkpt lat="45.8423655" lon="9.0691974"><ele>312.79999999999995</ele><time>2026-04-04T14:21:32.497Z</time></trkpt><trkpt lat="45.8424552" lon="9.0692501"><ele>312.20000000000005</ele><time>2026-04-04T14:21:33.497Z</time></trkpt><trkpt lat="45.8425512" lon="9.0693128"><ele>311.6</ele><time>2026-04-04T14:21:34.497Z</time></trkpt><trkpt lat="45.8426468" lon="9.0693935"><ele>311.0</ele><time>2026-04-04T14:21:35.497Z</time></trkpt><trkpt lat="45.8427462" lon="9.0694888"><ele>311.0</ele><time>2026-04-04T14:21:36.497Z</time></trkpt><trkpt lat="45.8428502" lon="9.0695861"><ele>311.0</ele><time>2026-04-04T14:21:37.497Z</time></trkpt><trkpt lat="45.8429582" lon="9.0696849"><ele>311.0</ele><time>2026-04-04T14:21:38.497Z</time></trkpt><trkpt lat="45.8430646" lon="9.069783"><ele>311.0</ele><time>2026-04-04T14:21:39.497Z</time></trkpt><trkpt lat="45.8431653" lon="9.0698844"><ele>310.8</ele><time>2026-04-04T14:21:40.497Z</time></trkpt><trkpt lat="45.8432601" lon="9.0699867"><ele>310.6</ele><time>2026-04-04T14:21:41.497Z</time></trkpt><trkpt lat="45.8433472" lon="9.0700875"><ele>310.4</ele><time>2026-04-04T14:21:42.497Z</time></trkpt><trkpt lat="45.843428" lon="9.0701791"><ele>310.2</ele><time>2026-04-04T14:21:43.497Z</time></trkpt><trkpt lat="45.8435011" lon="9.0702622"><ele>310.0</ele><time>2026-04-04T14:21:44.497Z</time></trkpt><trkpt lat="45.8435692" lon="9.0703435"><ele>310.0</ele><time>2026-04-04T14:21:45.496Z</time></trkpt><trkpt lat="45.8436351" lon="9.0704239"><ele>310.0</ele><time>2026-04-04T14:21:46.497Z</time></trkpt><trkpt lat="45.8436958" lon="9.0704929"><ele>310.0</ele><time>2026-04-04T14:21:47.497Z</time></trkpt><trkpt lat="45.8437559" lon="9.0705587"><ele>310.0</ele><time>2026-04-04T14:21:48.497Z</time></trkpt><trkpt lat="45.8438466" lon="9.0706489"><ele>310.0</ele><time>2026-04-04T14:21:50.497Z</time></trkpt><trkpt lat="45.8438975" lon="9.0707355"><ele>310.0</ele><time>2026-04-04T14:21:53.497Z</time></trkpt><trkpt lat="45.843955" lon="9.0708051"><ele>310.0</ele><time>2026-04-04T14:21:55.497Z</time></trkpt><trkpt lat="45.8440464" lon="9.0708113"><ele>310.0</ele><time>2026-04-04T14:21:57.497Z</time></trkpt><trkpt lat="45.8441715" lon="9.0707252"><ele>310.0</ele><time>2026-04-04T14:21:59.497Z</time></trkpt><trkpt lat="45.8442474" lon="9.0706617"><ele>310.0</ele><time>2026-04-04T14:22:00.497Z</time></trkpt><trkpt lat="45.8443324" lon="9.0705937"><ele>310.0</ele><time>2026-04-04T14:22:01.497Z</time></trkpt><trkpt lat="45.8444243" lon="9.0705336"><ele>308.6</ele><time>2026-04-04T14:22:02.497Z</time></trkpt><trkpt lat="45.8445194" lon="9.0704883"><ele>307.2</ele><time>2026-04-04T14:22:03.497Z</time></trkpt><trkpt lat="45.8446117" lon="9.0704562"><ele>305.8</ele><time>2026-04-04T14:22:04.497Z</time></trkpt><trkpt lat="45.8447032" lon="9.0704342"><ele>304.4</ele><time>2026-04-04T14:22:05.497Z</time></trkpt><trkpt lat="45.8447913" lon="9.0704201"><ele>303.0</ele><time>2026-04-04T14:22:06.497Z</time></trkpt><trkpt lat="45.8448714" lon="9.0704162"><ele>303.0</ele><time>2026-04-04T14:22:07.497Z</time></trkpt><trkpt lat="45.8449471" lon="9.0704212"><ele>303.0</ele><time>2026-04-04T14:22:08.497Z</time></trkpt><trkpt lat="45.8450198" lon="9.0704469"><ele>303.0</ele><time>2026-04-04T14:22:09.496Z</time></trkpt><trkpt lat="45.8450808" lon="9.0705035"><ele>303.0</ele><time>2026-04-04T14:22:10.497Z</time></trkpt><trkpt lat="45.845136" lon="9.0705808"><ele>303.0</ele><time>2026-04-04T14:22:11.497Z</time></trkpt><trkpt lat="45.8451865" lon="9.0706739"><ele>303.0</ele><time>2026-04-04T14:22:12.497Z</time></trkpt><trkpt lat="45.8452291" lon="9.0707825"><ele>303.2</ele><time>2026-04-04T14:22:13.497Z</time></trkpt><trkpt lat="45.8452687" lon="9.0708969"><ele>303.4</ele><time>2026-04-04T14:22:14.497Z</time></trkpt><trkpt lat="45.8453119" lon="9.0710158"><ele>303.59999999999997</ele><time>2026-04-04T14:22:15.496Z</time></trkpt><trkpt lat="45.8453622" lon="9.0711339"><ele>303.8</ele><time>2026-04-04T14:22:16.497Z</time></trkpt><trkpt lat="45.8454161" lon="9.0712447"><ele>304.0</ele><time>2026-04-04T14:22:17.497Z</time></trkpt><trkpt lat="45.8454716" lon="9.0713489"><ele>304.0</ele><time>2026-04-04T14:22:18.497Z</time></trkpt><trkpt lat="45.8455268" lon="9.0714393"><ele>304.0</ele><time>2026-04-04T14:22:19.497Z</time></trkpt><trkpt lat="45.8455829" lon="9.0715239"><ele>304.0</ele><time>2026-04-04T14:22:20.497Z</time></trkpt><trkpt lat="45.8456272" lon="9.0716158"><ele>304.0</ele><time>2026-04-04T14:22:21.497Z</time></trkpt><trkpt lat="45.8456589" lon="9.0717234"><ele>304.0</ele><time>2026-04-04T14:22:22.497Z</time></trkpt><trkpt lat="45.8456813" lon="9.0718399"><ele>304.0</ele><time>2026-04-04T14:22:23.497Z</time></trkpt><trkpt lat="45.8456829" lon="9.0719562"><ele>303.2</ele><time>2026-04-04T14:22:24.497Z</time></trkpt><trkpt lat="45.8456705" lon="9.0720775"><ele>302.4</ele><time>2026-04-04T14:22:25.497Z</time></trkpt><trkpt lat="45.8456577" lon="9.0722121"><ele>301.6</ele><time>2026-04-04T14:22:26.497Z</time></trkpt><trkpt lat="45.8456426" lon="9.0723546"><ele>300.8</ele><time>2026-04-04T14:22:27.497Z</time></trkpt><trkpt lat="45.8456273" lon="9.072501"><ele>300.0</ele><time>2026-04-04T14:22:28.497Z</time></trkpt><trkpt lat="45.8456155" lon="9.0726521"><ele>300.0</ele><time>2026-04-04T14:22:29.497Z</time></trkpt><trkpt lat="45.8456139" lon="9.0727995"><ele>300.0</ele><time>2026-04-04T14:22:30.497Z</time></trkpt><trkpt lat="45.845619" lon="9.072937"><ele>300.0</ele><time>2026-04-04T14:22:31.497Z</time></trkpt><trkpt lat="45.8456417" lon="9.0730618"><ele>300.0</ele><time>2026-04-04T14:22:32.497Z</time></trkpt><trkpt lat="45.8456841" lon="9.073164"><ele>300.0</ele><time>2026-04-04T14:22:33.497Z</time></trkpt><trkpt lat="45.8457456" lon="9.0732381"><ele>299.3333333333333</ele><time>2026-04-04T14:22:34.497Z</time></trkpt><trkpt lat="45.8458213" lon="9.0732871"><ele>298.6666666666667</ele><time>2026-04-04T14:22:35.497Z</time></trkpt><trkpt lat="45.8459023" lon="9.0733098"><ele>298.0</ele><time>2026-04-04T14:22:36.497Z</time></trkpt><trkpt lat="45.845984" lon="9.0733145"><ele>297.33333333333337</ele><time>2026-04-04T14:22:37.497Z</time></trkpt><trkpt lat="45.8460643" lon="9.0733187"><ele>296.6666666666667</ele><time>2026-04-04T14:22:38.497Z</time></trkpt><trkpt lat="45.8461482" lon="9.0733407"><ele>296.0</ele><time>2026-04-04T14:22:39.497Z</time></trkpt><trkpt lat="45.846231" lon="9.0733726"><ele>298.6666666666667</ele><time>2026-04-04T14:22:40.497Z</time></trkpt><trkpt lat="45.8463146" lon="9.0734027"><ele>301.33333333333337</ele><time>2026-04-04T14:22:41.497Z</time></trkpt><trkpt lat="45.8463957" lon="9.073432"><ele>304.0</ele><time>2026-04-04T14:22:42.497Z</time></trkpt><trkpt lat="45.8464759" lon="9.0734613"><ele>306.6666666666667</ele><time>2026-04-04T14:22:43.496Z</time></trkpt><trkpt lat="45.8465555" lon="9.0735059"><ele>309.3333333333333</ele><time>2026-04-04T14:22:44.497Z</time></trkpt><trkpt lat="45.8466288" lon="9.0735663"><ele>312.0</ele><time>2026-04-04T14:22:45.497Z</time></trkpt><trkpt lat="45.8466975" lon="9.0736327"><ele>312.0</ele><time>2026-04-04T14:22:46.496Z</time></trkpt><trkpt lat="45.8467592" lon="9.0737016"><ele>312.0</ele><time>2026-04-04T14:22:47.497Z</time></trkpt><trkpt lat="45.8468182" lon="9.0737659"><ele>312.0</ele><time>2026-04-04T14:22:48.496Z</time></trkpt><trkpt lat="45.8468785" lon="9.073838"><ele>312.0</ele><time>2026-04-04T14:22:49.497Z</time></trkpt><trkpt lat="45.8469337" lon="9.0739086"><ele>312.0</ele><time>2026-04-04T14:22:50.497Z</time></trkpt><trkpt lat="45.8469925" lon="9.073977"><ele>312.0</ele><time>2026-04-04T14:22:51.497Z</time></trkpt><trkpt lat="45.8470491" lon="9.0740464"><ele>312.3333333333333</ele><time>2026-04-04T14:22:52.497Z</time></trkpt><trkpt lat="45.8471287" lon="9.0741883"><ele>312.6666666666667</ele><time>2026-04-04T14:22:54.497Z</time></trkpt><trkpt lat="45.8471631" lon="9.0742816"><ele>313.0</ele><time>2026-04-04T14:22:55.497Z</time></trkpt><trkpt lat="45.8471865" lon="9.0743926"><ele>313.33333333333337</ele><time>2026-04-04T14:22:56.497Z</time></trkpt><trkpt lat="45.8472146" lon="9.0745015"><ele>313.6666666666667</ele><time>2026-04-04T14:22:57.497Z</time></trkpt><trkpt lat="45.8472449" lon="9.0746037"><ele>314.0</ele><time>2026-04-04T14:22:58.497Z</time></trkpt><trkpt lat="45.8472962" lon="9.0746962"><ele>314.0</ele><time>2026-04-04T14:22:59.497Z</time></trkpt><trkpt lat="45.8473508" lon="9.0747658"><ele>314.0</ele><time>2026-04-04T14:23:00.497Z</time></trkpt><trkpt lat="45.8474102" lon="9.0748217"><ele>314.0</ele><time>2026-04-04T14:23:01.497Z</time></trkpt><trkpt lat="45.8475033" lon="9.0749164"><ele>314.0</ele><time>2026-04-04T14:23:03.497Z</time></trkpt><trkpt lat="45.8475522" lon="9.0749859"><ele>314.0</ele><time>2026-04-04T14:23:04.497Z</time></trkpt><trkpt lat="45.8476039" lon="9.0750745"><ele>314.0</ele><time>2026-04-04T14:23:05.497Z</time></trkpt><trkpt lat="45.8476629" lon="9.0751805"><ele>315.0</ele><time>2026-04-04T14:23:06.497Z</time></trkpt><trkpt lat="45.8477233" lon="9.0752961"><ele>316.0</ele><time>2026-04-04T14:23:07.497Z</time></trkpt><trkpt lat="45.8477709" lon="9.075419"><ele>317.0</ele><time>2026-04-04T14:23:08.496Z</time></trkpt><trkpt lat="45.8477937" lon="9.0755406"><ele>318.0</ele><time>2026-04-04T14:23:09.497Z</time></trkpt><trkpt lat="45.8477974" lon="9.0756757"><ele>319.0</ele><time>2026-04-04T14:23:10.496Z</time></trkpt><trkpt lat="45.8477886" lon="9.0758296"><ele>320.75</ele><time>2026-04-04T14:23:11.497Z</time></trkpt><trkpt lat="45.8477791" lon="9.0759918"><ele>322.5</ele><time>2026-04-04T14:23:12.497Z</time></trkpt><trkpt lat="45.8477632" lon="9.0761451"><ele>324.25</ele><time>2026-04-04T14:23:13.496Z</time></trkpt><trkpt lat="45.8477497" lon="9.0763073"><ele>326.0</ele><time>2026-04-04T14:23:14.497Z</time></trkpt><trkpt lat="45.8477412" lon="9.0764734"><ele>327.0</ele><time>2026-04-04T14:23:15.497Z</time></trkpt><trkpt lat="45.8477339" lon="9.0766314"><ele>328.0</ele><time>2026-04-04T14:23:16.497Z</time></trkpt><trkpt lat="45.8477304" lon="9.0767904"><ele>329.0</ele><time>2026-04-04T14:23:17.497Z</time></trkpt><trkpt lat="45.8477239" lon="9.0769616"><ele>330.0</ele><time>2026-04-04T14:23:18.497Z</time></trkpt><trkpt lat="45.8477084" lon="9.0771396"><ele>330.0</ele><time>2026-04-04T14:23:19.496Z</time></trkpt><trkpt lat="45.8476904" lon="9.0773208"><ele>330.0</ele><time>2026-04-04T14:23:20.497Z</time></trkpt><trkpt lat="45.8476713" lon="9.0775055"><ele>330.0</ele><time>2026-04-04T14:23:21.497Z</time></trkpt><trkpt lat="45.8476552" lon="9.0776867"><ele>330.0</ele><time>2026-04-04T14:23:22.497Z</time></trkpt><trkpt lat="45.8476432" lon="9.0778671"><ele>331.0</ele><time>2026-04-04T14:23:23.497Z</time></trkpt><trkpt lat="45.8476328" lon="9.0780406"><ele>332.0</ele><time>2026-04-04T14:23:24.497Z</time></trkpt><trkpt lat="45.8476183" lon="9.0782011"><ele>333.0</ele><time>2026-04-04T14:23:25.497Z</time></trkpt><trkpt lat="45.8475957" lon="9.0783577"><ele>334.0</ele><time>2026-04-04T14:23:26.496Z</time></trkpt><trkpt lat="45.8475634" lon="9.0785125"><ele>326.75</ele><time>2026-04-04T14:23:27.496Z</time></trkpt><trkpt lat="45.847524" lon="9.0786622"><ele>319.5</ele><time>2026-04-04T14:23:28.497Z</time></trkpt><trkpt lat="45.8474894" lon="9.0788141"><ele>312.25</ele><time>2026-04-04T14:23:29.497Z</time></trkpt><trkpt lat="45.8474661" lon="9.0789713"><ele>305.0</ele><time>2026-04-04T14:23:30.497Z</time></trkpt><trkpt lat="45.8474549" lon="9.0791436"><ele>305.0</ele><time>2026-04-04T14:23:31.497Z</time></trkpt><trkpt lat="45.8474485" lon="9.0793263"><ele>305.0</ele><time>2026-04-04T14:23:32.497Z</time></trkpt><trkpt lat="45.847444" lon="9.0795236"><ele>305.0</ele><time>2026-04-04T14:23:33.497Z</time></trkpt><trkpt lat="45.8474453" lon="9.0797374"><ele>305.0</ele><time>2026-04-04T14:23:34.497Z</time></trkpt><trkpt lat="45.8474513" lon="9.0799397"><ele>305.4</ele><time>2026-04-04T14:23:35.497Z</time></trkpt><trkpt lat="45.8474555" lon="9.0801214"><ele>305.8</ele><time>2026-04-04T14:23:36.496Z</time></trkpt><trkpt lat="45.8474563" lon="9.0802823"><ele>306.2</ele><time>2026-04-04T14:23:37.497Z</time></trkpt><trkpt lat="45.847454" lon="9.0804392"><ele>306.6</ele><time>2026-04-04T14:23:38.497Z</time></trkpt><trkpt lat="45.8474468" lon="9.0805799"><ele>307.0</ele><time>2026-04-04T14:23:39.497Z</time></trkpt><trkpt lat="45.8474397" lon="9.0807034"><ele>307.0</ele><time>2026-04-04T14:23:40.497Z</time></trkpt><trkpt lat="45.8474357" lon="9.080812"><ele>307.0</ele><time>2026-04-04T14:23:41.497Z</time></trkpt><trkpt lat="45.847447" lon="9.0809597"><ele>307.0</ele><time>2026-04-04T14:23:43.497Z</time></trkpt><trkpt lat="45.8475092" lon="9.0810184"><ele>307.0</ele><time>2026-04-04T14:23:46.496Z</time></trkpt><trkpt lat="45.8475243" lon="9.0809014"><ele>307.0</ele><time>2026-04-04T14:23:48.497Z</time></trkpt><trkpt lat="45.8475069" lon="9.0807977"><ele>307.0</ele><time>2026-04-04T14:23:49.496Z</time></trkpt><trkpt lat="45.8475137" lon="9.0806925"><ele>307.0</ele><time>2026-04-04T14:23:50.497Z</time></trkpt><trkpt lat="45.8475267" lon="9.0805924"><ele>307.0</ele><time>2026-04-04T14:23:51.497Z</time></trkpt><trkpt lat="45.8475504" lon="9.0804664"><ele>307.0</ele><time>2026-04-04T14:23:52.496Z</time></trkpt><trkpt lat="45.8475867" lon="9.0803204"><ele>307.0</ele><time>2026-04-04T14:23:53.497Z</time></trkpt><trkpt lat="45.8476186" lon="9.0801672"><ele>307.0</ele><time>2026-04-04T14:23:54.496Z</time></trkpt><trkpt lat="45.8476403" lon="9.0800186"><ele>315.2</ele><time>2026-04-04T14:23:55.496Z</time></trkpt><trkpt lat="45.8476532" lon="9.0798825"><ele>323.4</ele><time>2026-04-04T14:23:56.497Z</time></trkpt><trkpt lat="45.8476677" lon="9.0797584"><ele>331.59999999999997</ele><time>2026-04-04T14:23:57.497Z</time></trkpt><trkpt lat="45.8476992" lon="9.0796319"><ele>339.79999999999995</ele><time>2026-04-04T14:23:58.497Z</time></trkpt><trkpt lat="45.8477427" lon="9.0794955"><ele>348.0</ele><time>2026-04-04T14:23:59.497Z</time></trkpt><trkpt lat="45.8477932" lon="9.0793532"><ele>348.0</ele><time>2026-04-04T14:24:00.497Z</time></trkpt><trkpt lat="45.8478425" lon="9.0792091"><ele>348.0</ele><time>2026-04-04T14:24:01.496Z</time></trkpt><trkpt lat="45.8478845" lon="9.0790669"><ele>348.0</ele><time>2026-04-04T14:24:02.496Z</time></trkpt><trkpt lat="45.8479176" lon="9.0789386"><ele>348.0</ele><time>2026-04-04T14:24:03.497Z</time></trkpt><trkpt lat="45.8479468" lon="9.0788146"><ele>348.0</ele><time>2026-04-04T14:24:04.497Z</time></trkpt><trkpt lat="45.8479887" lon="9.0787133"><ele>346.0</ele><time>2026-04-04T14:24:05.497Z</time></trkpt><trkpt lat="45.8480422" lon="9.0786236"><ele>344.0</ele><time>2026-04-04T14:24:06.497Z</time></trkpt><trkpt lat="45.8480919" lon="9.0785428"><ele>342.0</ele><time>2026-04-04T14:24:07.497Z</time></trkpt><trkpt lat="45.8481776" lon="9.0784823"><ele>340.0</ele><time>2026-04-04T14:24:09.497Z</time></trkpt><trkpt lat="45.8481528" lon="9.0785987"><ele>338.0</ele><time>2026-04-04T14:24:12.497Z</time></trkpt><trkpt lat="45.8480451" lon="9.0787103"><ele>338.0</ele><time>2026-04-04T14:24:14.497Z</time></trkpt><trkpt lat="45.8480166" lon="9.0788079"><ele>338.0</ele><time>2026-04-04T14:24:15.496Z</time></trkpt><trkpt lat="45.8480077" lon="9.078931"><ele>338.0</ele><time>2026-04-04T14:24:16.496Z</time></trkpt><trkpt lat="45.848006" lon="9.0790789"><ele>338.0</ele><time>2026-04-04T14:24:17.497Z</time></trkpt><trkpt lat="45.8480068" lon="9.0792567"><ele>338.0</ele><time>2026-04-04T14:24:18.497Z</time></trkpt><trkpt lat="45.8480112" lon="9.079425"><ele>340.5</ele><time>2026-04-04T14:24:19.497Z</time></trkpt><trkpt lat="45.8480136" lon="9.0795979"><ele>343.0</ele><time>2026-04-04T14:24:20.497Z</time></trkpt><trkpt lat="45.8480071" lon="9.0797734"><ele>345.5</ele><time>2026-04-04T14:24:21.496Z</time></trkpt><trkpt lat="45.8479898" lon="9.079957"><ele>348.0</ele><time>2026-04-04T14:24:22.497Z</time></trkpt><trkpt lat="45.847975" lon="9.0801252"><ele>349.4</ele><time>2026-04-04T14:24:23.497Z</time></trkpt><trkpt lat="45.8479621" lon="9.0802842"><ele>350.79999999999995</ele><time>2026-04-04T14:24:24.497Z</time></trkpt><trkpt lat="45.8479484" lon="9.0804321"><ele>352.2</ele><time>2026-04-04T14:24:25.497Z</time></trkpt><trkpt lat="45.8479336" lon="9.0805721"><ele>353.6</ele><time>2026-04-04T14:24:26.497Z</time></trkpt><trkpt lat="45.8479183" lon="9.0807043"><ele>355.0</ele><time>2026-04-04T14:24:27.496Z</time></trkpt><trkpt lat="45.8479051" lon="9.0808153"><ele>355.0</ele><time>2026-04-04T14:24:28.497Z</time></trkpt><trkpt lat="45.8478989" lon="9.0809091"><ele>355.0</ele><time>2026-04-04T14:24:29.497Z</time></trkpt><trkpt lat="45.8479469" lon="9.0810062"><ele>355.0</ele><time>2026-04-04T14:24:31.497Z</time></trkpt><trkpt lat="45.8479936" lon="9.0809281"><ele>355.0</ele><time>2026-04-04T14:24:33.497Z</time></trkpt><trkpt lat="45.8480087" lon="9.0807393"><ele>355.0</ele><time>2026-04-04T14:24:35.497Z</time></trkpt><trkpt lat="45.8480471" lon="9.0806284"><ele>355.0</ele><time>2026-04-04T14:24:36.496Z</time></trkpt><trkpt lat="45.8480921" lon="9.0805119"><ele>355.0</ele><time>2026-04-04T14:24:37.496Z</time></trkpt><trkpt lat="45.8481396" lon="9.0803742"><ele>355.0</ele><time>2026-04-04T14:24:38.497Z</time></trkpt><trkpt lat="45.848194" lon="9.0802255"><ele>355.0</ele><time>2026-04-04T14:24:39.497Z</time></trkpt><trkpt lat="45.8482489" lon="9.0800787"><ele>355.0</ele><time>2026-04-04T14:24:40.497Z</time></trkpt><trkpt lat="45.8482918" lon="9.0799157"><ele>353.25</ele><time>2026-04-04T14:24:41.497Z</time></trkpt><trkpt lat="45.8483167" lon="9.0797346"><ele>351.5</ele><time>2026-04-04T14:24:42.497Z</time></trkpt><trkpt lat="45.8483321" lon="9.0795549"><ele>349.75</ele><time>2026-04-04T14:24:43.497Z</time></trkpt><trkpt lat="45.8483508" lon="9.079394"><ele>348.0</ele><time>2026-04-04T14:24:44.497Z</time></trkpt><trkpt lat="45.8483834" lon="9.0792626"><ele>348.0</ele><time>2026-04-04T14:24:45.497Z</time></trkpt><trkpt lat="45.8484322" lon="9.0791405"><ele>348.0</ele><time>2026-04-04T14:24:46.497Z</time></trkpt><trkpt lat="45.8484866" lon="9.0790064"><ele>348.0</ele><time>2026-04-04T14:24:47.497Z</time></trkpt><trkpt lat="45.8485419" lon="9.0788638"><ele>348.0</ele><time>2026-04-04T14:24:48.497Z</time></trkpt><trkpt lat="45.8485977" lon="9.0787235"><ele>348.0</ele><time>2026-04-04T14:24:49.497Z</time></trkpt><trkpt lat="45.8486494" lon="9.0785951"><ele>352.3333333333333</ele><time>2026-04-04T14:24:50.497Z</time></trkpt><trkpt lat="45.8486963" lon="9.07848"><ele>356.6666666666667</ele><time>2026-04-04T14:24:51.497Z</time></trkpt><trkpt lat="45.8487329" lon="9.0783844"><ele>361.0</ele><time>2026-04-04T14:24:52.497Z</time></trkpt><trkpt lat="45.8488063" lon="9.0783157"><ele>365.33333333333337</ele><time>2026-04-04T14:24:54.497Z</time></trkpt><trkpt lat="45.8487987" lon="9.0784542"><ele>369.6666666666667</ele><time>2026-04-04T14:24:57.497Z</time></trkpt><trkpt lat="45.8487393" lon="9.0785359"><ele>374.0</ele><time>2026-04-04T14:24:58.497Z</time></trkpt><trkpt lat="45.8486958" lon="9.0786384"><ele>374.0</ele><time>2026-04-04T14:24:59.497Z</time></trkpt><trkpt lat="45.8486636" lon="9.0787467"><ele>374.0</ele><time>2026-04-04T14:25:00.497Z</time></trkpt><trkpt lat="45.8486352" lon="9.0788493"><ele>374.0</ele><time>2026-04-04T14:25:01.497Z</time></trkpt><trkpt lat="45.8486081" lon="9.0789678"><ele>374.0</ele><time>2026-04-04T14:25:02.496Z</time></trkpt><trkpt lat="45.8485878" lon="9.0790994"><ele>374.0</ele><time>2026-04-04T14:25:03.497Z</time></trkpt><trkpt lat="45.8485693" lon="9.0792397"><ele>374.0</ele><time>2026-04-04T14:25:04.497Z</time></trkpt><trkpt lat="45.8485599" lon="9.0793882"><ele>377.2</ele><time>2026-04-04T14:25:05.496Z</time></trkpt><trkpt lat="45.8485605" lon="9.0795367"><ele>380.4</ele><time>2026-04-04T14:25:06.497Z</time></trkpt><trkpt lat="45.8485677" lon="9.0796783"><ele>383.6</ele><time>2026-04-04T14:25:07.496Z</time></trkpt><trkpt lat="45.8485795" lon="9.0798267"><ele>386.8</ele><time>2026-04-04T14:25:08.497Z</time></trkpt><trkpt lat="45.8486016" lon="9.0799737"><ele>390.0</ele><time>2026-04-04T14:25:09.497Z</time></trkpt><trkpt lat="45.848628" lon="9.0801209"><ele>391.6</ele><time>2026-04-04T14:25:10.497Z</time></trkpt><trkpt lat="45.8486379" lon="9.0802605"><ele>393.2</ele><time>2026-04-04T14:25:11.497Z</time></trkpt><trkpt lat="45.8486282" lon="9.08039"><ele>394.79999999999995</ele><time>2026-04-04T14:25:12.497Z</time></trkpt><trkpt lat="45.8486018" lon="9.0805213"><ele>396.4</ele><time>2026-04-04T14:25:13.497Z</time></trkpt><trkpt lat="45.8485814" lon="9.080668"><ele>398.0</ele><time>2026-04-04T14:25:14.497Z</time></trkpt><trkpt lat="45.848571" lon="9.0808437"><ele>400.0</ele><time>2026-04-04T14:25:15.497Z</time></trkpt><trkpt lat="45.8485646" lon="9.0810271"><ele>402.0</ele><time>2026-04-04T14:25:16.496Z</time></trkpt><trkpt lat="45.8485595" lon="9.0812026"><ele>404.0</ele><time>2026-04-04T14:25:17.497Z</time></trkpt><trkpt lat="45.8485544" lon="9.0813813"><ele>406.0</ele><time>2026-04-04T14:25:18.497Z</time></trkpt><trkpt lat="45.8485474" lon="9.0815584"><ele>408.0</ele><time>2026-04-04T14:25:19.497Z</time></trkpt><trkpt lat="45.8485376" lon="9.0817388"><ele>410.0</ele><time>2026-04-04T14:25:20.496Z</time></trkpt><trkpt lat="45.8485226" lon="9.0819137"><ele>412.0</ele><time>2026-04-04T14:25:21.497Z</time></trkpt><trkpt lat="45.8484945" lon="9.0820835"><ele>414.0</ele><time>2026-04-04T14:25:22.497Z</time></trkpt><trkpt lat="45.8484625" lon="9.0822476"><ele>405.4</ele><time>2026-04-04T14:25:23.497Z</time></trkpt><trkpt lat="45.8484432" lon="9.0824108"><ele>396.79999999999995</ele><time>2026-04-04T14:25:24.497Z</time></trkpt><trkpt lat="45.8484262" lon="9.082564"><ele>388.20000000000005</ele><time>2026-04-04T14:25:25.497Z</time></trkpt><trkpt lat="45.8484083" lon="9.0826954"><ele>379.6</ele><time>2026-04-04T14:25:26.496Z</time></trkpt><trkpt lat="45.84838" lon="9.0828047"><ele>371.0</ele><time>2026-04-04T14:25:27.497Z</time></trkpt><trkpt lat="45.8483986" lon="9.082944"><ele>379.6</ele><time>2026-04-04T14:25:29.497Z</time></trkpt><trkpt lat="45.8484737" lon="9.082918"><ele>388.20000000000005</ele><time>2026-04-04T14:25:31.497Z</time></trkpt><trkpt lat="45.8485115" lon="9.0827261"><ele>396.79999999999995</ele><time>2026-04-04T14:25:33.497Z</time></trkpt><trkpt lat="45.8485454" lon="9.0826071"><ele>405.4</ele><time>2026-04-04T14:25:34.497Z</time></trkpt><trkpt lat="45.848587" lon="9.0824795"><ele>414.0</ele><time>2026-04-04T14:25:35.497Z</time></trkpt><trkpt lat="45.8486398" lon="9.0823427"><ele>414.0</ele><time>2026-04-04T14:25:36.496Z</time></trkpt><trkpt lat="45.8487" lon="9.0822079"><ele>414.0</ele><time>2026-04-04T14:25:37.497Z</time></trkpt><trkpt lat="45.8487627" lon="9.0820844"><ele>414.0</ele><time>2026-04-04T14:25:38.497Z</time></trkpt><trkpt lat="45.8488136" lon="9.0819776"><ele>414.0</ele><time>2026-04-04T14:25:39.497Z</time></trkpt><trkpt lat="45.8488413" lon="9.0818553"><ele>414.0</ele><time>2026-04-04T14:25:40.497Z</time></trkpt><trkpt lat="45.8488607" lon="9.0817009"><ele>412.0</ele><time>2026-04-04T14:25:41.497Z</time></trkpt><trkpt lat="45.8488756" lon="9.081526"><ele>410.0</ele><time>2026-04-04T14:25:42.497Z</time></trkpt><trkpt lat="45.8488892" lon="9.0813544"><ele>408.0</ele><time>2026-04-04T14:25:43.496Z</time></trkpt><trkpt lat="45.8489069" lon="9.081197"><ele>406.0</ele><time>2026-04-04T14:25:44.497Z</time></trkpt><trkpt lat="45.8489411" lon="9.0810492"><ele>406.0</ele><time>2026-04-04T14:25:45.497Z</time></trkpt><trkpt lat="45.8489887" lon="9.0808937"><ele>406.0</ele><time>2026-04-04T14:25:46.497Z</time></trkpt><trkpt lat="45.8490334" lon="9.0807153"><ele>406.0</ele><time>2026-04-04T14:25:47.497Z</time></trkpt><trkpt lat="45.8490755" lon="9.080529"><ele>406.0</ele><time>2026-04-04T14:25:48.497Z</time></trkpt><trkpt lat="45.8491335" lon="9.0803507"><ele>404.0</ele><time>2026-04-04T14:25:49.497Z</time></trkpt><trkpt lat="45.8491994" lon="9.0801654"><ele>402.0</ele><time>2026-04-04T14:25:50.496Z</time></trkpt><trkpt lat="45.8492623" lon="9.0799781"><ele>400.0</ele><time>2026-04-04T14:25:51.497Z</time></trkpt><trkpt lat="45.8493145" lon="9.0798011"><ele>398.0</ele><time>2026-04-04T14:25:52.497Z</time></trkpt><trkpt lat="45.8493538" lon="9.079645"><ele>400.99999999999994</ele><time>2026-04-04T14:25:53.497Z</time></trkpt><trkpt lat="45.849377" lon="9.0795084"><ele>404.0</ele><time>2026-04-04T14:25:54.497Z</time></trkpt><trkpt lat="45.8493814" lon="9.0793854"><ele>407.0</ele><time>2026-04-04T14:25:55.496Z</time></trkpt><trkpt lat="45.8494385" lon="9.0792551"><ele>410.0</ele><time>2026-04-04T14:25:57.497Z</time></trkpt><trkpt lat="45.8494911" lon="9.0793339"><ele>412.99999999999994</ele><time>2026-04-04T14:25:59.497Z</time></trkpt><trkpt lat="45.8495076" lon="9.0794347"><ele>416.0</ele><time>2026-04-04T14:26:00.497Z</time></trkpt><trkpt lat="45.8495313" lon="9.0795597"><ele>416.0</ele><time>2026-04-04T14:26:01.497Z</time></trkpt><trkpt lat="45.849548" lon="9.0797039"><ele>416.0</ele><time>2026-04-04T14:26:02.497Z</time></trkpt><trkpt lat="45.8495524" lon="9.0798702"><ele>416.0</ele><time>2026-04-04T14:26:03.497Z</time></trkpt><trkpt lat="45.8495377" lon="9.0800309"><ele>416.0</ele><time>2026-04-04T14:26:04.496Z</time></trkpt><trkpt lat="45.8494999" lon="9.0801782"><ele>416.0</ele><time>2026-04-04T14:26:05.497Z</time></trkpt><trkpt lat="45.8494462" lon="9.080318"><ele>414.0</ele><time>2026-04-04T14:26:06.497Z</time></trkpt><trkpt lat="45.849385" lon="9.0804591"><ele>412.0</ele><time>2026-04-04T14:26:07.497Z</time></trkpt><trkpt lat="45.8493304" lon="9.0805872"><ele>410.0</ele><time>2026-04-04T14:26:08.496Z</time></trkpt><trkpt lat="45.8492965" lon="9.0807129"><ele>408.0</ele><time>2026-04-04T14:26:09.496Z</time></trkpt><trkpt lat="45.8492812" lon="9.0808638"><ele>406.0</ele><time>2026-04-04T14:26:10.497Z</time></trkpt><trkpt lat="45.8492634" lon="9.0810202"><ele>406.00000000000006</ele><time>2026-04-04T14:26:11.497Z</time></trkpt><trkpt lat="45.8492476" lon="9.0811313"><ele>406.0</ele><time>2026-04-04T14:26:12.497Z</time></trkpt><trkpt lat="45.84923" lon="9.0812503"><ele>406.0</ele><time>2026-04-04T14:26:14.497Z</time></trkpt><trkpt lat="45.8492278" lon="9.0814055"><ele>406.0</ele><time>2026-04-04T14:26:18.497Z</time></trkpt><trkpt lat="45.8492201" lon="9.0815047"><ele>406.00000000000006</ele><time>2026-04-04T14:26:19.497Z</time></trkpt><trkpt lat="45.8492143" lon="9.0816125"><ele>406.0</ele><time>2026-04-04T14:26:20.497Z</time></trkpt><trkpt lat="45.8492097" lon="9.0817381"><ele>408.0</ele><time>2026-04-04T14:26:21.497Z</time></trkpt><trkpt lat="45.8492059" lon="9.0818845"><ele>410.0</ele><time>2026-04-04T14:26:22.497Z</time></trkpt><trkpt lat="45.8492034" lon="9.08205"><ele>412.0</ele><time>2026-04-04T14:26:23.497Z</time></trkpt><trkpt lat="45.8491946" lon="9.0822198"><ele>414.0</ele><time>2026-04-04T14:26:24.497Z</time></trkpt><trkpt lat="45.8491869" lon="9.0823939"><ele>415.0</ele><time>2026-04-04T14:26:25.497Z</time></trkpt><trkpt lat="45.8491748" lon="9.0825783"><ele>416.0</ele><time>2026-04-04T14:26:26.496Z</time></trkpt><trkpt lat="45.8491587" lon="9.0827609"><ele>417.0</ele><time>2026-04-04T14:26:27.496Z</time></trkpt><trkpt lat="45.8491411" lon="9.0829332"><ele>418.0</ele><time>2026-04-04T14:26:28.497Z</time></trkpt><trkpt lat="45.8491384" lon="9.083103"><ele>419.0</ele><time>2026-04-04T14:26:29.497Z</time></trkpt><trkpt lat="45.8491528" lon="9.0832728"><ele>420.0</ele><time>2026-04-04T14:26:30.497Z</time></trkpt><trkpt lat="45.8491862" lon="9.0834379"><ele>421.0</ele><time>2026-04-04T14:26:31.496Z</time></trkpt><trkpt lat="45.8492326" lon="9.0835907"><ele>422.0</ele><time>2026-04-04T14:26:32.496Z</time></trkpt><trkpt lat="45.8492879" lon="9.0837356"><ele>424.75</ele><time>2026-04-04T14:26:33.497Z</time></trkpt><trkpt lat="45.8493592" lon="9.0838728"><ele>427.5</ele><time>2026-04-04T14:26:34.497Z</time></trkpt><trkpt lat="45.8494412" lon="9.0840027"><ele>430.25</ele><time>2026-04-04T14:26:35.497Z</time></trkpt><trkpt lat="45.8495254" lon="9.0841226"><ele>433.0</ele><time>2026-04-04T14:26:36.497Z</time></trkpt><trkpt lat="45.8496132" lon="9.084222"><ele>433.0</ele><time>2026-04-04T14:26:37.497Z</time></trkpt><trkpt lat="45.8497071" lon="9.0842976"><ele>432.99999999999994</ele><time>2026-04-04T14:26:38.497Z</time></trkpt><trkpt lat="45.8498046" lon="9.0843459"><ele>432.99999999999994</ele><time>2026-04-04T14:26:39.496Z</time></trkpt><trkpt lat="45.8499076" lon="9.0843677"><ele>433.0</ele><time>2026-04-04T14:26:40.497Z</time></trkpt><trkpt lat="45.8500042" lon="9.0843715"><ele>433.0</ele><time>2026-04-04T14:26:41.497Z</time></trkpt><trkpt lat="45.8500823" lon="9.0843456"><ele>433.83333333333337</ele><time>2026-04-04T14:26:42.497Z</time></trkpt><trkpt lat="45.8501494" lon="9.0842912"><ele>434.6666666666667</ele><time>2026-04-04T14:26:43.497Z</time></trkpt><trkpt lat="45.8501991" lon="9.0842123"><ele>435.5</ele><time>2026-04-04T14:26:44.497Z</time></trkpt><trkpt lat="45.8502456" lon="9.0841089"><ele>436.33333333333337</ele><time>2026-04-04T14:26:45.497Z</time></trkpt><trkpt lat="45.8502946" lon="9.0839904"><ele>437.1666666666667</ele><time>2026-04-04T14:26:46.497Z</time></trkpt><trkpt lat="45.8503439" lon="9.0838696"><ele>438.0</ele><time>2026-04-04T14:26:47.496Z</time></trkpt><trkpt lat="45.8503978" lon="9.0837426"><ele>439.2</ele><time>2026-04-04T14:26:48.497Z</time></trkpt><trkpt lat="45.8504556" lon="9.0836168"><ele>440.4</ele><time>2026-04-04T14:26:49.497Z</time></trkpt><trkpt lat="45.8505152" lon="9.0834918"><ele>441.59999999999997</ele><time>2026-04-04T14:26:50.497Z</time></trkpt><trkpt lat="45.8505705" lon="9.0833807"><ele>442.79999999999995</ele><time>2026-04-04T14:26:51.497Z</time></trkpt><trkpt lat="45.8506253" lon="9.0833025"><ele>444.0</ele><time>2026-04-04T14:26:52.497Z</time></trkpt><trkpt lat="45.8506964" lon="9.0832598"><ele>444.0</ele><time>2026-04-04T14:26:53.497Z</time></trkpt><trkpt lat="45.8507729" lon="9.0832544"><ele>444.0</ele><time>2026-04-04T14:26:54.497Z</time></trkpt><trkpt lat="45.8508497" lon="9.0832706"><ele>444.0</ele><time>2026-04-04T14:26:55.497Z</time></trkpt><trkpt lat="45.8509294" lon="9.0833055"><ele>444.0</ele><time>2026-04-04T14:26:56.497Z</time></trkpt><trkpt lat="45.8510082" lon="9.0833736"><ele>444.0</ele><time>2026-04-04T14:26:57.497Z</time></trkpt><trkpt lat="45.8510907" lon="9.0834594"><ele>444.0</ele><time>2026-04-04T14:26:58.497Z</time></trkpt><trkpt lat="45.8511796" lon="9.0835561"><ele>446.0</ele><time>2026-04-04T14:26:59.497Z</time></trkpt><trkpt lat="45.8512667" lon="9.0836487"><ele>448.0</ele><time>2026-04-04T14:27:00.497Z</time></trkpt><trkpt lat="45.851355" lon="9.0837539"><ele>450.0</ele><time>2026-04-04T14:27:01.497Z</time></trkpt><trkpt lat="45.8514409" lon="9.0838582"><ele>452.0</ele><time>2026-04-04T14:27:02.496Z</time></trkpt><trkpt lat="45.8515235" lon="9.0839579"><ele>454.0</ele><time>2026-04-04T14:27:03.497Z</time></trkpt><trkpt lat="45.8516126" lon="9.0840457"><ele>453.0</ele><time>2026-04-04T14:27:04.497Z</time></trkpt><trkpt lat="45.8517155" lon="9.0841218"><ele>452.0</ele><time>2026-04-04T14:27:05.497Z</time></trkpt><trkpt lat="45.8518258" lon="9.0841887"><ele>451.0</ele><time>2026-04-04T14:27:06.497Z</time></trkpt><trkpt lat="45.8519399" lon="9.0842528"><ele>450.0</ele><time>2026-04-04T14:27:07.497Z</time></trkpt><trkpt lat="45.852053" lon="9.0843161"><ele>453.2</ele><time>2026-04-04T14:27:08.496Z</time></trkpt><trkpt lat="45.8521623" lon="9.0843819"><ele>456.4</ele><time>2026-04-04T14:27:09.496Z</time></trkpt><trkpt lat="45.8522641" lon="9.084456"><ele>459.6</ele><time>2026-04-04T14:27:10.496Z</time></trkpt><trkpt lat="45.8523555" lon="9.0845396"><ele>462.8</ele><time>2026-04-04T14:27:11.497Z</time></trkpt><trkpt lat="45.8524286" lon="9.0846265"><ele>466.0</ele><time>2026-04-04T14:27:12.497Z</time></trkpt><trkpt lat="45.8524862" lon="9.0846899"><ele>466.0</ele><time>2026-04-04T14:27:13.497Z</time></trkpt><trkpt lat="45.8525924" lon="9.0847179"><ele>466.0</ele><time>2026-04-04T14:27:15.497Z</time></trkpt><trkpt lat="45.8526225" lon="9.0845991"><ele>466.0</ele><time>2026-04-04T14:27:17.497Z</time></trkpt><trkpt lat="45.8525366" lon="9.0844278"><ele>466.0</ele><time>2026-04-04T14:27:19.497Z</time></trkpt><trkpt lat="45.8524761" lon="9.0843317"><ele>466.0</ele><time>2026-04-04T14:27:20.496Z</time></trkpt><trkpt lat="45.8524116" lon="9.084224"><ele>466.0</ele><time>2026-04-04T14:27:21.497Z</time></trkpt><trkpt lat="45.852348" lon="9.0841165"><ele>466.0</ele><time>2026-04-04T14:27:22.497Z</time></trkpt><trkpt lat="45.8522967" lon="9.0839982"><ele>466.0</ele><time>2026-04-04T14:27:23.496Z</time></trkpt><trkpt lat="45.8522576" lon="9.0838799"><ele>466.0</ele><time>2026-04-04T14:27:24.497Z</time></trkpt><trkpt lat="45.8522308" lon="9.0837575"><ele>466.0</ele><time>2026-04-04T14:27:25.497Z</time></trkpt><trkpt lat="45.8522223" lon="9.0836234"><ele>467.5</ele><time>2026-04-04T14:27:26.497Z</time></trkpt><trkpt lat="45.8522282" lon="9.0834726"><ele>469.0</ele><time>2026-04-04T14:27:27.497Z</time></trkpt><trkpt lat="45.8522395" lon="9.0833027"><ele>470.5</ele><time>2026-04-04T14:27:28.497Z</time></trkpt><trkpt lat="45.8522459" lon="9.0831362"><ele>472.0</ele><time>2026-04-04T14:27:29.497Z</time></trkpt><trkpt lat="45.8522451" lon="9.08296"><ele>473.0</ele><time>2026-04-04T14:27:30.497Z</time></trkpt><trkpt lat="45.8522407" lon="9.0827876"><ele>474.00000000000006</ele><time>2026-04-04T14:27:31.497Z</time></trkpt><trkpt lat="45.8522347" lon="9.0826173"><ele>475.00000000000006</ele><time>2026-04-04T14:27:32.497Z</time></trkpt><trkpt lat="45.8522287" lon="9.0824558"><ele>476.0</ele><time>2026-04-04T14:27:33.496Z</time></trkpt><trkpt lat="45.85222" lon="9.0823174"><ele>477.0</ele><time>2026-04-04T14:27:34.496Z</time></trkpt><trkpt lat="45.8522066" lon="9.0822003"><ele>479.40000000000003</ele><time>2026-04-04T14:27:35.497Z</time></trkpt><trkpt lat="45.8522429" lon="9.0820509"><ele>481.80000000000007</ele><time>2026-04-04T14:27:37.497Z</time></trkpt><trkpt lat="45.8523309" lon="9.0820357"><ele>484.2</ele><time>2026-04-04T14:27:39.497Z</time></trkpt><trkpt lat="45.8524256" lon="9.0821605"><ele>486.6</ele><time>2026-04-04T14:27:41.497Z</time></trkpt><trkpt lat="45.8524891" lon="9.0822571"><ele>489.0</ele><time>2026-04-04T14:27:42.497Z</time></trkpt><trkpt lat="45.852554" lon="9.0823527"><ele>494.2</ele><time>2026-04-04T14:27:43.497Z</time></trkpt><trkpt lat="45.8526283" lon="9.0824624"><ele>499.4</ele><time>2026-04-04T14:27:44.497Z</time></trkpt><trkpt lat="45.8526975" lon="9.0825601"><ele>504.6</ele><time>2026-04-04T14:27:45.497Z</time></trkpt><trkpt lat="45.8527755" lon="9.0826805"><ele>509.8</ele><time>2026-04-04T14:27:46.497Z</time></trkpt><trkpt lat="45.8528548" lon="9.0828063"><ele>515.0</ele><time>2026-04-04T14:27:47.497Z</time></trkpt><trkpt lat="45.8529346" lon="9.0829311"><ele>515.0</ele><time>2026-04-04T14:27:48.496Z</time></trkpt><trkpt lat="45.8530142" lon="9.0830565"><ele>515.0</ele><time>2026-04-04T14:27:49.497Z</time></trkpt><trkpt lat="45.8530887" lon="9.0831889"><ele>515.0</ele><time>2026-04-04T14:27:50.497Z</time></trkpt><trkpt lat="45.8531558" lon="9.0833307"><ele>515.0</ele><time>2026-04-04T14:27:51.497Z</time></trkpt><trkpt lat="45.8532134" lon="9.0834795"><ele>511.25</ele><time>2026-04-04T14:27:52.496Z</time></trkpt><trkpt lat="45.8532699" lon="9.0836299"><ele>507.5</ele><time>2026-04-04T14:27:53.496Z</time></trkpt><trkpt lat="45.8533283" lon="9.0837788"><ele>503.75</ele><time>2026-04-04T14:27:54.497Z</time></trkpt><trkpt lat="45.8533885" lon="9.0839287"><ele>500.0</ele><time>2026-04-04T14:27:55.497Z</time></trkpt><trkpt lat="45.8534502" lon="9.0840714"><ele>505.8</ele><time>2026-04-04T14:27:56.497Z</time></trkpt><trkpt lat="45.8535057" lon="9.0841938"><ele>511.6</ele><time>2026-04-04T14:27:57.497Z</time></trkpt><trkpt lat="45.8535532" lon="9.0842902"><ele>517.4</ele><time>2026-04-04T14:27:58.497Z</time></trkpt><trkpt lat="45.8536356" lon="9.0843824"><ele>523.2</ele><time>2026-04-04T14:28:00.497Z</time></trkpt><trkpt lat="45.8536751" lon="9.0843052"><ele>529.0</ele><time>2026-04-04T14:28:02.497Z</time></trkpt><trkpt lat="45.8536289" lon="9.0841267"><ele>531.4</ele><time>2026-04-04T14:28:04.497Z</time></trkpt><trkpt lat="45.8535943" lon="9.0840025"><ele>533.8</ele><time>2026-04-04T14:28:05.497Z</time></trkpt><trkpt lat="45.853568" lon="9.0838718"><ele>536.2</ele><time>2026-04-04T14:28:06.497Z</time></trkpt><trkpt lat="45.8535444" lon="9.0837101"><ele>538.6</ele><time>2026-04-04T14:28:07.496Z</time></trkpt><trkpt lat="45.8535247" lon="9.0835464"><ele>541.0</ele><time>2026-04-04T14:28:08.497Z</time></trkpt><trkpt lat="45.8535059" lon="9.0833672"><ele>547.0</ele><time>2026-04-04T14:28:09.497Z</time></trkpt><trkpt lat="45.8534822" lon="9.0831822"><ele>553.0</ele><time>2026-04-04T14:28:10.497Z</time></trkpt><trkpt lat="45.8534489" lon="9.0829899"><ele>559.0</ele><time>2026-04-04T14:28:11.497Z</time></trkpt><trkpt lat="45.8534149" lon="9.0828134"><ele>565.0</ele><time>2026-04-04T14:28:12.496Z</time></trkpt><trkpt lat="45.853376" lon="9.0826612"><ele>565.0</ele><time>2026-04-04T14:28:13.497Z</time></trkpt><trkpt lat="45.8533393" lon="9.082529"><ele>565.0</ele><time>2026-04-04T14:28:14.497Z</time></trkpt><trkpt lat="45.8533182" lon="9.0824239"><ele>565.0</ele><time>2026-04-04T14:28:15.497Z</time></trkpt><trkpt lat="45.8533563" lon="9.0823197"><ele>565.0</ele><time>2026-04-04T14:28:17.497Z</time></trkpt><trkpt lat="45.8534326" lon="9.0823587"><ele>565.0</ele><time>2026-04-04T14:28:19.497Z</time></trkpt><trkpt lat="45.8534611" lon="9.0824401"><ele>565.0</ele><time>2026-04-04T14:28:20.497Z</time></trkpt><trkpt lat="45.8534881" lon="9.0825663"><ele>565.0</ele><time>2026-04-04T14:28:21.497Z</time></trkpt><trkpt lat="45.853525" lon="9.0826932"><ele>565.0</ele><time>2026-04-04T14:28:22.497Z</time></trkpt><trkpt lat="45.8535681" lon="9.0828409"><ele>565.0</ele><time>2026-04-04T14:28:23.496Z</time></trkpt><trkpt lat="45.8536149" lon="9.0830031"><ele>565.0</ele><time>2026-04-04T14:28:24.497Z</time></trkpt><trkpt lat="45.8536622" lon="9.0831664"><ele>559.0</ele><time>2026-04-04T14:28:25.496Z</time></trkpt><trkpt lat="45.8537216" lon="9.0833295"><ele>553.0</ele><time>2026-04-04T14:28:26.496Z</time></trkpt><trkpt lat="45.8537869" lon="9.0834959"><ele>547.0</ele><time>2026-04-04T14:28:27.496Z</time></trkpt><trkpt lat="45.8538572" lon="9.0836517"><ele>541.0</ele><time>2026-04-04T14:28:28.497Z</time></trkpt><trkpt lat="45.8539348" lon="9.0837962"><ele>541.0</ele><time>2026-04-04T14:28:29.497Z</time></trkpt><trkpt lat="45.8540106" lon="9.0839313"><ele>541.0</ele><time>2026-04-04T14:28:30.497Z</time></trkpt><trkpt lat="45.8540759" lon="9.0840537"><ele>541.0</ele><time>2026-04-04T14:28:31.497Z</time></trkpt><trkpt lat="45.8541358" lon="9.0841642"><ele>541.0</ele><time>2026-04-04T14:28:32.497Z</time></trkpt><trkpt lat="45.8541845" lon="9.0842518"><ele>541.0</ele><time>2026-04-04T14:28:33.497Z</time></trkpt><trkpt lat="45.8542393" lon="9.0842988"><ele>541.0</ele><time>2026-04-04T14:28:34.496Z</time></trkpt><trkpt lat="45.8543196" lon="9.0842291"><ele>541.0</ele><time>2026-04-04T14:28:36.497Z</time></trkpt><trkpt lat="45.8542778" lon="9.0840598"><ele>541.0</ele><time>2026-04-04T14:28:38.497Z</time></trkpt><trkpt lat="45.8542263" lon="9.0839505"><ele>541.0</ele><time>2026-04-04T14:28:39.497Z</time></trkpt><trkpt lat="45.8541736" lon="9.0838401"><ele>541.0</ele><time>2026-04-04T14:28:40.497Z</time></trkpt><trkpt lat="45.8541081" lon="9.0837179"><ele>541.0</ele><time>2026-04-04T14:28:41.497Z</time></trkpt><trkpt lat="45.8540446" lon="9.0836137"><ele>541.0</ele><time>2026-04-04T14:28:42.496Z</time></trkpt><trkpt lat="45.8539958" lon="9.0835328"><ele>541.0</ele><time>2026-04-04T14:28:43.497Z</time></trkpt><trkpt lat="45.8539978" lon="9.0834136"><ele>541.0</ele><time>2026-04-04T14:28:45.497Z</time></trkpt><trkpt lat="45.8540672" lon="9.0834403"><ele>541.0</ele><time>2026-04-04T14:28:47.497Z</time></trkpt><trkpt lat="45.8541748" lon="9.0835925"><ele>541.0</ele><time>2026-04-04T14:28:49.496Z</time></trkpt><trkpt lat="45.8542344" lon="9.0836644"><ele>541.0</ele><time>2026-04-04T14:28:50.497Z</time></trkpt><trkpt lat="45.8543066" lon="9.0837532"><ele>541.0</ele><time>2026-04-04T14:28:51.497Z</time></trkpt><trkpt lat="45.8543799" lon="9.0838528"><ele>541.0</ele><time>2026-04-04T14:28:52.497Z</time></trkpt><trkpt lat="45.8544378" lon="9.0839393"><ele>541.0</ele><time>2026-04-04T14:28:53.497Z</time></trkpt><trkpt lat="45.8545039" lon="9.0840348"><ele>547.0</ele><time>2026-04-04T14:28:54.497Z</time></trkpt><trkpt lat="45.8545581" lon="9.0841614"><ele>553.0</ele><time>2026-04-04T14:28:55.496Z</time></trkpt><trkpt lat="45.8546066" lon="9.0842954"><ele>559.0</ele><time>2026-04-04T14:28:56.497Z</time></trkpt><trkpt lat="45.8546453" lon="9.084449"><ele>565.0</ele><time>2026-04-04T14:28:57.497Z</time></trkpt><trkpt lat="45.8546763" lon="9.0846093"><ele>571.0</ele><time>2026-04-04T14:28:58.497Z</time></trkpt><trkpt lat="45.8547057" lon="9.084776"><ele>567.0</ele><time>2026-04-04T14:28:59.497Z</time></trkpt><trkpt lat="45.8547422" lon="9.0849428"><ele>563.0</ele><time>2026-04-04T14:29:00.497Z</time></trkpt><trkpt lat="45.854782" lon="9.085118"><ele>559.0</ele><time>2026-04-04T14:29:01.496Z</time></trkpt><trkpt lat="45.8548216" lon="9.0852824"><ele>555.0</ele><time>2026-04-04T14:29:02.497Z</time></trkpt><trkpt lat="45.8548547" lon="9.0854272"><ele>555.0</ele><time>2026-04-04T14:29:03.497Z</time></trkpt><trkpt lat="45.8548884" lon="9.0855668"><ele>555.0</ele><time>2026-04-04T14:29:04.497Z</time></trkpt><trkpt lat="45.8549221" lon="9.0856853"><ele>555.0</ele><time>2026-04-04T14:29:05.497Z</time></trkpt><trkpt lat="45.8549679" lon="9.085787"><ele>555.0</ele><time>2026-04-04T14:29:06.497Z</time></trkpt><trkpt lat="45.8550325" lon="9.0858797"><ele>555.0</ele><time>2026-04-04T14:29:07.497Z</time></trkpt><trkpt lat="45.8551172" lon="9.085952"><ele>558.5</ele><time>2026-04-04T14:29:08.497Z</time></trkpt><trkpt lat="45.8552235" lon="9.0860134"><ele>562.0</ele><time>2026-04-04T14:29:09.496Z</time></trkpt><trkpt lat="45.8553459" lon="9.0860836"><ele>565.5</ele><time>2026-04-04T14:29:10.496Z</time></trkpt><trkpt lat="45.8554614" lon="9.0861595"><ele>569.0</ele><time>2026-04-04T14:29:11.497Z</time></trkpt><trkpt lat="45.8555843" lon="9.0862481"><ele>569.0</ele><time>2026-04-04T14:29:12.497Z</time></trkpt><trkpt lat="45.8557092" lon="9.0863339"><ele>569.0</ele><time>2026-04-04T14:29:13.497Z</time></trkpt><trkpt lat="45.8558161" lon="9.0864044"><ele>569.0</ele><time>2026-04-04T14:29:14.497Z</time></trkpt><trkpt lat="45.8559093" lon="9.0864697"><ele>569.0</ele><time>2026-04-04T14:29:15.497Z</time></trkpt><trkpt lat="45.855991" lon="9.086528"><ele>572.0</ele><time>2026-04-04T14:29:16.497Z</time></trkpt><trkpt lat="45.8560753" lon="9.0865677"><ele>575.0</ele><time>2026-04-04T14:29:17.497Z</time></trkpt><trkpt lat="45.8561598" lon="9.0865723"><ele>578.0</ele><time>2026-04-04T14:29:18.497Z</time></trkpt><trkpt lat="45.8562424" lon="9.0865344"><ele>581.0</ele><time>2026-04-04T14:29:19.496Z</time></trkpt><trkpt lat="45.856328" lon="9.0864699"><ele>584.0</ele><time>2026-04-04T14:29:20.497Z</time></trkpt><trkpt lat="45.8564186" lon="9.0863881"><ele>584.0</ele><time>2026-04-04T14:29:21.497Z</time></trkpt><trkpt lat="45.8565071" lon="9.0863066"><ele>584.0</ele><time>2026-04-04T14:29:22.497Z</time></trkpt><trkpt lat="45.8565999" lon="9.086251"><ele>584.0</ele><time>2026-04-04T14:29:23.497Z</time></trkpt><trkpt lat="45.8566994" lon="9.086223"><ele>584.0</ele><time>2026-04-04T14:29:24.497Z</time></trkpt><trkpt lat="45.8567998" lon="9.086211"><ele>584.0</ele><time>2026-04-04T14:29:25.497Z</time></trkpt><trkpt lat="45.8569011" lon="9.0862356"><ele>589.4</ele><time>2026-04-04T14:29:26.497Z</time></trkpt><trkpt lat="45.856996" lon="9.0862784"><ele>594.8</ele><time>2026-04-04T14:29:27.497Z</time></trkpt><trkpt lat="45.8570894" lon="9.0863288"><ele>600.2</ele><time>2026-04-04T14:29:28.497Z</time></trkpt><trkpt lat="45.857172" lon="9.0863899"><ele>605.6</ele><time>2026-04-04T14:29:29.497Z</time></trkpt><trkpt lat="45.8572435" lon="9.0864686"><ele>611.0</ele><time>2026-04-04T14:29:30.497Z</time></trkpt><trkpt lat="45.8573005" lon="9.0865717"><ele>610.8</ele><time>2026-04-04T14:29:31.496Z</time></trkpt><trkpt lat="45.8573451" lon="9.086692"><ele>610.6</ele><time>2026-04-04T14:29:32.497Z</time></trkpt><trkpt lat="45.8574068" lon="9.0867999"><ele>610.4</ele><time>2026-04-04T14:29:33.497Z</time></trkpt><trkpt lat="45.857484" lon="9.0868968"><ele>610.2</ele><time>2026-04-04T14:29:34.497Z</time></trkpt><trkpt lat="45.857569" lon="9.0869808"><ele>610.0</ele><time>2026-04-04T14:29:35.497Z</time></trkpt><trkpt lat="45.8576613" lon="9.0870534"><ele>610.0</ele><time>2026-04-04T14:29:36.497Z</time></trkpt><trkpt lat="45.8577666" lon="9.0871053"><ele>610.0</ele><time>2026-04-04T14:29:37.497Z</time></trkpt><trkpt lat="45.8578876" lon="9.0871476"><ele>610.0</ele><time>2026-04-04T14:29:38.497Z</time></trkpt><trkpt lat="45.8580052" lon="9.0871887"><ele>610.0</ele><time>2026-04-04T14:29:39.497Z</time></trkpt><trkpt lat="45.8581208" lon="9.0872299"><ele>610.0</ele><time>2026-04-04T14:29:40.497Z</time></trkpt><trkpt lat="45.8582205" lon="9.0872712"><ele>610.0</ele><time>2026-04-04T14:29:41.497Z</time></trkpt><trkpt lat="45.8583163" lon="9.0873235"><ele>610.0</ele><time>2026-04-04T14:29:42.497Z</time></trkpt><trkpt lat="45.8584157" lon="9.0873863"><ele>610.0</ele><time>2026-04-04T14:29:43.497Z</time></trkpt><trkpt lat="45.8585228" lon="9.0874632"><ele>610.0</ele><time>2026-04-04T14:29:44.497Z</time></trkpt><trkpt lat="45.8586295" lon="9.0875438"><ele>609.0</ele><time>2026-04-04T14:29:45.497Z</time></trkpt><trkpt lat="45.8587276" lon="9.087625"><ele>608.0</ele><time>2026-04-04T14:29:46.496Z</time></trkpt><trkpt lat="45.8588175" lon="9.087718"><ele>607.0</ele><time>2026-04-04T14:29:47.497Z</time></trkpt><trkpt lat="45.8588981" lon="9.0878301"><ele>606.0</ele><time>2026-04-04T14:29:48.496Z</time></trkpt><trkpt lat="45.8589605" lon="9.0879482"><ele>605.0</ele><time>2026-04-04T14:29:49.497Z</time></trkpt><trkpt lat="45.8590148" lon="9.0880568"><ele>605.0</ele><time>2026-04-04T14:29:50.496Z</time></trkpt><trkpt lat="45.8590918" lon="9.0881368"><ele>605.0</ele><time>2026-04-04T14:29:51.497Z</time></trkpt><trkpt lat="45.8591863" lon="9.0882056"><ele>605.0</ele><time>2026-04-04T14:29:52.497Z</time></trkpt><trkpt lat="45.8592996" lon="9.088264"><ele>605.0</ele><time>2026-04-04T14:29:53.496Z</time></trkpt><trkpt lat="45.8594241" lon="9.0883267"><ele>606.25</ele><time>2026-04-04T14:29:54.496Z</time></trkpt><trkpt lat="45.8595408" lon="9.0883993"><ele>607.5</ele><time>2026-04-04T14:29:55.497Z</time></trkpt><trkpt lat="45.8596478" lon="9.0884764"><ele>608.75</ele><time>2026-04-04T14:29:56.497Z</time></trkpt><trkpt lat="45.8597599" lon="9.0885614"><ele>610.0</ele><time>2026-04-04T14:29:57.497Z</time></trkpt><trkpt lat="45.8598659" lon="9.0886505"><ele>610.0</ele><time>2026-04-04T14:29:58.497Z</time></trkpt><trkpt lat="45.8599639" lon="9.0887485"><ele>610.0</ele><time>2026-04-04T14:29:59.497Z</time></trkpt><trkpt lat="45.860046" lon="9.0888583"><ele>610.0</ele><time>2026-04-04T14:30:00.497Z</time></trkpt><trkpt lat="45.8601176" lon="9.0889806"><ele>610.0</ele><time>2026-04-04T14:30:01.496Z</time></trkpt><trkpt lat="45.8601852" lon="9.0891145"><ele>614.75</ele><time>2026-04-04T14:30:02.497Z</time></trkpt><trkpt lat="45.8602588" lon="9.0892381"><ele>619.5</ele><time>2026-04-04T14:30:03.497Z</time></trkpt><trkpt lat="45.860341" lon="9.0893476"><ele>624.25</ele><time>2026-04-04T14:30:04.496Z</time></trkpt><trkpt lat="45.860434" lon="9.0894429"><ele>629.0</ele><time>2026-04-04T14:30:05.497Z</time></trkpt><trkpt lat="45.86054" lon="9.0895256"><ele>629.0</ele><time>2026-04-04T14:30:06.497Z</time></trkpt><trkpt lat="45.8606512" lon="9.0896049"><ele>629.0</ele><time>2026-04-04T14:30:07.497Z</time></trkpt><trkpt lat="45.8607619" lon="9.0896911"><ele>629.0</ele><time>2026-04-04T14:30:08.496Z</time></trkpt><trkpt lat="45.8608698" lon="9.0897812"><ele>629.0</ele><time>2026-04-04T14:30:09.497Z</time></trkpt><trkpt lat="45.8609805" lon="9.0898634"><ele>627.75</ele><time>2026-04-04T14:30:10.496Z</time></trkpt><trkpt lat="45.8610944" lon="9.0899348"><ele>626.5</ele><time>2026-04-04T14:30:11.497Z</time></trkpt><trkpt lat="45.8612084" lon="9.089995"><ele>625.25</ele><time>2026-04-04T14:30:12.497Z</time></trkpt><trkpt lat="45.8613227" lon="9.0900449"><ele>624.0</ele><time>2026-04-04T14:30:13.496Z</time></trkpt><trkpt lat="45.8614302" lon="9.0900853"><ele>624.0</ele><time>2026-04-04T14:30:14.497Z</time></trkpt><trkpt lat="45.8615374" lon="9.0901095"><ele>624.0</ele><time>2026-04-04T14:30:15.497Z</time></trkpt><trkpt lat="45.8616514" lon="9.0900984"><ele>624.0</ele><time>2026-04-04T14:30:16.497Z</time></trkpt><trkpt lat="45.8617706" lon="9.0900867"><ele>624.0</ele><time>2026-04-04T14:30:17.497Z</time></trkpt><trkpt lat="45.8618906" lon="9.0900943"><ele>623.75</ele><time>2026-04-04T14:30:18.497Z</time></trkpt><trkpt lat="45.8620116" lon="9.0901176"><ele>623.5</ele><time>2026-04-04T14:30:19.497Z</time></trkpt><trkpt lat="45.862131" lon="9.0901359"><ele>623.25</ele><time>2026-04-04T14:30:20.497Z</time></trkpt><trkpt lat="45.8622517" lon="9.0901387"><ele>623.0</ele><time>2026-04-04T14:30:21.496Z</time></trkpt><trkpt lat="45.8623585" lon="9.0901416"><ele>623.0</ele><time>2026-04-04T14:30:22.497Z</time></trkpt><trkpt lat="45.8624488" lon="9.0901452"><ele>623.0</ele><time>2026-04-04T14:30:23.497Z</time></trkpt><trkpt lat="45.862525" lon="9.0901403"><ele>623.0</ele><time>2026-04-04T14:30:24.496Z</time></trkpt><trkpt lat="45.8625899" lon="9.0901243"><ele>623.0</ele><time>2026-04-04T14:30:25.497Z</time></trkpt><trkpt lat="45.8626416" lon="9.0900181"><ele>623.0</ele><time>2026-04-04T14:30:27.497Z</time></trkpt><trkpt lat="45.8625855" lon="9.0899468"><ele>623.0</ele><time>2026-04-04T14:30:29.497Z</time></trkpt><trkpt lat="45.8625226" lon="9.089956"><ele>623.0</ele><time>2026-04-04T14:30:30.497Z</time></trkpt><trkpt lat="45.8624417" lon="9.0899649"><ele>623.0</ele><time>2026-04-04T14:30:31.497Z</time></trkpt><trkpt lat="45.8623516" lon="9.0899638"><ele>623.0</ele><time>2026-04-04T14:30:32.497Z</time></trkpt><trkpt lat="45.8622631" lon="9.0899587"><ele>623.0</ele><time>2026-04-04T14:30:33.497Z</time></trkpt><trkpt lat="45.86217" lon="9.0899384"><ele>623.0</ele><time>2026-04-04T14:30:34.496Z</time></trkpt><trkpt lat="45.8620928" lon="9.0898959"><ele>623.0</ele><time>2026-04-04T14:30:35.496Z</time></trkpt><trkpt lat="45.8620141" lon="9.0898352"><ele>625.4</ele><time>2026-04-04T14:30:36.497Z</time></trkpt><trkpt lat="45.8619286" lon="9.0897702"><ele>627.8</ele><time>2026-04-04T14:30:37.497Z</time></trkpt><trkpt lat="45.8618387" lon="9.0897133"><ele>630.2</ele><time>2026-04-04T14:30:38.497Z</time></trkpt><trkpt lat="45.8617465" lon="9.0896803"><ele>632.6</ele><time>2026-04-04T14:30:39.496Z</time></trkpt><trkpt lat="45.8616536" lon="9.0896582"><ele>635.0</ele><time>2026-04-04T14:30:40.497Z</time></trkpt><trkpt lat="45.8615675" lon="9.0896272"><ele>639.2</ele><time>2026-04-04T14:30:41.496Z</time></trkpt><trkpt lat="45.8614914" lon="9.0895706"><ele>643.4</ele><time>2026-04-04T14:30:42.497Z</time></trkpt><trkpt lat="45.8614082" lon="9.0894904"><ele>647.5999999999999</ele><time>2026-04-04T14:30:43.497Z</time></trkpt><trkpt lat="45.861327" lon="9.0893933"><ele>651.8</ele><time>2026-04-04T14:30:44.497Z</time></trkpt><trkpt lat="45.8612507" lon="9.0892922"><ele>656.0</ele><time>2026-04-04T14:30:45.497Z</time></trkpt><trkpt lat="45.8611907" lon="9.0892028"><ele>656.0</ele><time>2026-04-04T14:30:46.497Z</time></trkpt><trkpt lat="45.8611383" lon="9.0890931"><ele>656.0</ele><time>2026-04-04T14:30:47.497Z</time></trkpt><trkpt lat="45.8610819" lon="9.0889622"><ele>656.0</ele><time>2026-04-04T14:30:48.497Z</time></trkpt><trkpt lat="45.8610236" lon="9.0888241"><ele>656.0</ele><time>2026-04-04T14:30:49.497Z</time></trkpt><trkpt lat="45.8609711" lon="9.088695"><ele>656.0</ele><time>2026-04-04T14:30:50.497Z</time></trkpt><trkpt lat="45.860931" lon="9.0885763"><ele>655.8</ele><time>2026-04-04T14:30:51.497Z</time></trkpt><trkpt lat="45.8609019" lon="9.0884476"><ele>655.5999999999999</ele><time>2026-04-04T14:30:52.496Z</time></trkpt><trkpt lat="45.8608771" lon="9.0883023"><ele>655.4</ele><time>2026-04-04T14:30:53.496Z</time></trkpt><trkpt lat="45.860855" lon="9.088141"><ele>655.2</ele><time>2026-04-04T14:30:54.497Z</time></trkpt><trkpt lat="45.8608256" lon="9.0879793"><ele>655.0</ele><time>2026-04-04T14:30:55.497Z</time></trkpt><trkpt lat="45.860774" lon="9.0878102"><ele>655.0</ele><time>2026-04-04T14:30:56.496Z</time></trkpt><trkpt lat="45.8607247" lon="9.0876395"><ele>655.0</ele><time>2026-04-04T14:30:57.496Z</time></trkpt><trkpt lat="45.8606634" lon="9.0874818"><ele>655.0</ele><time>2026-04-04T14:30:58.497Z</time></trkpt><trkpt lat="45.8605886" lon="9.0873351"><ele>655.0</ele><time>2026-04-04T14:30:59.497Z</time></trkpt><trkpt lat="45.8605043" lon="9.0871923"><ele>661.5</ele><time>2026-04-04T14:31:00.497Z</time></trkpt><trkpt lat="45.8604234" lon="9.0870505"><ele>668.0</ele><time>2026-04-04T14:31:01.497Z</time></trkpt><trkpt lat="45.8603488" lon="9.0868891"><ele>674.5</ele><time>2026-04-04T14:31:02.497Z</time></trkpt><trkpt lat="45.8602651" lon="9.0867259"><ele>681.0</ele><time>2026-04-04T14:31:03.497Z</time></trkpt><trkpt lat="45.8601769" lon="9.086566"><ele>681.75</ele><time>2026-04-04T14:31:04.497Z</time></trkpt><trkpt lat="45.86009" lon="9.0864145"><ele>682.5</ele><time>2026-04-04T14:31:05.497Z</time></trkpt><trkpt lat="45.8600059" lon="9.086282"><ele>683.25</ele><time>2026-04-04T14:31:06.497Z</time></trkpt><trkpt lat="45.8599117" lon="9.0861678"><ele>684.0</ele><time>2026-04-04T14:31:07.497Z</time></trkpt><trkpt lat="45.8598109" lon="9.0860676"><ele>684.0</ele><time>2026-04-04T14:31:08.497Z</time></trkpt><trkpt lat="45.8597187" lon="9.0859783"><ele>684.0</ele><time>2026-04-04T14:31:09.497Z</time></trkpt><trkpt lat="45.8596314" lon="9.0859048"><ele>684.0</ele><time>2026-04-04T14:31:10.497Z</time></trkpt><trkpt lat="45.8595529" lon="9.0858293"><ele>684.0</ele><time>2026-04-04T14:31:11.497Z</time></trkpt><trkpt lat="45.8594923" lon="9.0857464"><ele>684.0</ele><time>2026-04-04T14:31:12.497Z</time></trkpt><trkpt lat="45.8594486" lon="9.0856642"><ele>684.0</ele><time>2026-04-04T14:31:13.497Z</time></trkpt><trkpt lat="45.8594537" lon="9.0855519"><ele>684.0</ele><time>2026-04-04T14:31:15.496Z</time></trkpt><trkpt lat="45.8595267" lon="9.0855798"><ele>684.0</ele><time>2026-04-04T14:31:17.497Z</time></trkpt><trkpt lat="45.8596396" lon="9.0857076"><ele>684.0</ele><time>2026-04-04T14:31:19.497Z</time></trkpt><trkpt lat="45.8597149" lon="9.0857617"><ele>684.0</ele><time>2026-04-04T14:31:20.497Z</time></trkpt><trkpt lat="45.8598063" lon="9.0857981"><ele>684.0</ele><time>2026-04-04T14:31:21.497Z</time></trkpt><trkpt lat="45.8598984" lon="9.0858222"><ele>684.0</ele><time>2026-04-04T14:31:22.497Z</time></trkpt><trkpt lat="45.8599907" lon="9.0858445"><ele>684.0</ele><time>2026-04-04T14:31:23.497Z</time></trkpt><trkpt lat="45.8600725" lon="9.0859208"><ele>684.0</ele><time>2026-04-04T14:31:24.496Z</time></trkpt><trkpt lat="45.8601634" lon="9.0860088"><ele>684.0</ele><time>2026-04-04T14:31:25.496Z</time></trkpt><trkpt lat="45.8602613" lon="9.0861081"><ele>689.6</ele><time>2026-04-04T14:31:26.497Z</time></trkpt><trkpt lat="45.8603503" lon="9.0861983"><ele>695.2</ele><time>2026-04-04T14:31:27.496Z</time></trkpt><trkpt lat="45.8604286" lon="9.0862948"><ele>700.8000000000001</ele><time>2026-04-04T14:31:28.497Z</time></trkpt><trkpt lat="45.860505" lon="9.0863766"><ele>706.4000000000001</ele><time>2026-04-04T14:31:29.497Z</time></trkpt><trkpt lat="45.8605937" lon="9.0864321"><ele>712.0</ele><time>2026-04-04T14:31:30.497Z</time></trkpt><trkpt lat="45.860702" lon="9.0864711"><ele>712.0</ele><time>2026-04-04T14:31:31.497Z</time></trkpt><trkpt lat="45.8608184" lon="9.086513"><ele>712.0</ele><time>2026-04-04T14:31:32.496Z</time></trkpt><trkpt lat="45.8609317" lon="9.0865669"><ele>712.0</ele><time>2026-04-04T14:31:33.496Z</time></trkpt><trkpt lat="45.8610576" lon="9.0866345"><ele>712.0</ele><time>2026-04-04T14:31:34.497Z</time></trkpt><trkpt lat="45.861178" lon="9.0867015"><ele>709.25</ele><time>2026-04-04T14:31:35.497Z</time></trkpt><trkpt lat="45.8612955" lon="9.0867818"><ele>706.5</ele><time>2026-04-04T14:31:36.497Z</time></trkpt><trkpt lat="45.8614136" lon="9.0868602"><ele>703.75</ele><time>2026-04-04T14:31:37.497Z</time></trkpt><trkpt lat="45.8615278" lon="9.0869347"><ele>701.0</ele><time>2026-04-04T14:31:38.497Z</time></trkpt><trkpt lat="45.8616313" lon="9.0869975"><ele>701.0</ele><time>2026-04-04T14:31:39.497Z</time></trkpt><trkpt lat="45.8617174" lon="9.0870457"><ele>701.0</ele><time>2026-04-04T14:31:40.497Z</time></trkpt><trkpt lat="45.861787" lon="9.0870731"><ele>701.0</ele><time>2026-04-04T14:31:41.497Z</time></trkpt><trkpt lat="45.8618565" lon="9.0870012"><ele>701.0</ele><time>2026-04-04T14:31:43.497Z</time></trkpt><trkpt lat="45.8523309" lon="9.0820357"><ele>663.8</ele><time>2026-04-04T14:27:39.497Z</time></trkpt><trkpt lat="45.8524256" lon="9.0821605"><ele>626.5999999999999</ele><time>2026-04-04T14:27:41.497Z</time></trkpt><trkpt lat="45.8524891" lon="9.0822571"><ele>589.4</ele><time>2026-04-04T14:27:42.497Z</time></trkpt><trkpt lat="45.852554" lon="9.0823527"><ele>552.2</ele><time>2026-04-04T14:27:43.497Z</time></trkpt><trkpt lat="45.8526283" lon="9.0824624"><ele>515.0</ele><time>2026-04-04T14:27:44.497Z</time></trkpt><trkpt lat="45.8526975" lon="9.0825601"><ele>515.0</ele><time>2026-04-04T14:27:45.497Z</time></trkpt><trkpt lat="45.8527755" lon="9.0826805"><ele>515.0</ele><time>2026-04-04T14:27:46.497Z</time></trkpt><trkpt lat="45.8528548" lon="9.0828063"><ele>515.0</ele><time>2026-04-04T14:27:47.497Z</time></trkpt><trkpt lat="45.8529346" lon="9.0829311"><ele>515.0</ele><time>2026-04-04T14:27:48.496Z</time></trkpt><trkpt lat="45.8530142" lon="9.0830565"><ele>515.0</ele><time>2026-04-04T14:27:49.497Z</time></trkpt><trkpt lat="45.8530887" lon="9.0831889"><ele>515.0</ele><time>2026-04-04T14:27:50.497Z</time></trkpt><trkpt lat="45.8531558" lon="9.0833307"><ele>515.0</ele><time>2026-04-04T14:27:51.497Z</time></trkpt><trkpt lat="45.8532134" lon="9.0834795"><ele>515.0</ele><time>2026-04-04T14:27:52.496Z</time></trkpt><trkpt lat="45.8532699" lon="9.0836299"><ele>518.5</ele><time>2026-04-04T14:27:53.496Z</time></trkpt><trkpt lat="45.8533283" lon="9.0837788"><ele>522.0</ele><time>2026-04-04T14:27:54.497Z</time></trkpt><trkpt lat="45.8533885" lon="9.0839287"><ele>525.5</ele><time>2026-04-04T14:27:55.497Z</time></trkpt><trkpt lat="45.8534502" lon="9.0840714"><ele>529.0</ele><time>2026-04-04T14:27:56.497Z</time></trkpt><trkpt lat="45.8535057" lon="9.0841938"><ele>529.0</ele><time>2026-04-04T14:27:57.497Z</time></trkpt><trkpt lat="45.8535532" lon="9.0842902"><ele>529.0</ele><time>2026-04-04T14:27:58.497Z</time></trkpt><trkpt lat="45.8536356" lon="9.0843824"><ele>529.0</ele><time>2026-04-04T14:28:00.497Z</time></trkpt><trkpt lat="45.8536751" lon="9.0843052"><ele>529.0</ele><time>2026-04-04T14:28:02.497Z</time></trkpt><trkpt lat="45.8536289" lon="9.0841267"><ele>529.0</ele><time>2026-04-04T14:28:04.497Z</time></trkpt><trkpt lat="45.8535943" lon="9.0840025"><ele>532.0</ele><time>2026-04-04T14:28:05.497Z</time></trkpt><trkpt lat="45.853568" lon="9.0838718"><ele>535.0</ele><time>2026-04-04T14:28:06.497Z</time></trkpt><trkpt lat="45.8535444" lon="9.0837101"><ele>538.0</ele><time>2026-04-04T14:28:07.496Z</time></trkpt><trkpt lat="45.8535247" lon="9.0835464"><ele>541.0</ele><time>2026-04-04T14:28:08.497Z</time></trkpt><trkpt lat="45.8535059" lon="9.0833672"><ele>547.0</ele><time>2026-04-04T14:28:09.497Z</time></trkpt><trkpt lat="45.8534822" lon="9.0831822"><ele>553.0</ele><time>2026-04-04T14:28:10.497Z</time></trkpt><trkpt lat="45.8534489" lon="9.0829899"><ele>559.0</ele><time>2026-04-04T14:28:11.497Z</time></trkpt><trkpt lat="45.8534149" lon="9.0828134"><ele>565.0</ele><time>2026-04-04T14:28:12.496Z</time></trkpt><trkpt lat="45.853376" lon="9.0826612"><ele>565.0</ele><time>2026-04-04T14:28:13.497Z</time></trkpt><trkpt lat="45.8533393" lon="9.082529"><ele>565.0</ele><time>2026-04-04T14:28:14.497Z</time></trkpt><trkpt lat="45.8533182" lon="9.0824239"><ele>565.0</ele><time>2026-04-04T14:28:15.497Z</time></trkpt><trkpt lat="45.8533563" lon="9.0823197"><ele>565.0</ele><time>2026-04-04T14:28:17.497Z</time></trkpt><trkpt lat="45.8534326" lon="9.0823587"><ele>565.0</ele><time>2026-04-04T14:28:19.497Z</time></trkpt><trkpt lat="45.8534611" lon="9.0824401"><ele>565.0</ele><time>2026-04-04T14:28:20.497Z</time></trkpt><trkpt lat="45.8534881" lon="9.0825663"><ele>565.0</ele><time>2026-04-04T14:28:21.497Z</time></trkpt><trkpt lat="45.853525" lon="9.0826932"><ele>565.0</ele><time>2026-04-04T14:28:22.497Z</time></trkpt><trkpt lat="45.8535681" lon="9.0828409"><ele>565.0</ele><time>2026-04-04T14:28:23.496Z</time></trkpt><trkpt lat="45.8536149" lon="9.0830031"><ele>565.0</ele><time>2026-04-04T14:28:24.497Z</time></trkpt><trkpt lat="45.8536622" lon="9.0831664"><ele>559.0</ele><time>2026-04-04T14:28:25.496Z</time></trkpt><trkpt lat="45.8537216" lon="9.0833295"><ele>553.0</ele><time>2026-04-04T14:28:26.496Z</time></trkpt><trkpt lat="45.8537869" lon="9.0834959"><ele>547.0</ele><time>2026-04-04T14:28:27.496Z</time></trkpt><trkpt lat="45.8538572" lon="9.0836517"><ele>541.0</ele><time>2026-04-04T14:28:28.497Z</time></trkpt><trkpt lat="45.8539348" lon="9.0837962"><ele>541.0</ele><time>2026-04-04T14:28:29.497Z</time></trkpt><trkpt lat="45.8540106" lon="9.0839313"><ele>541.0</ele><time>2026-04-04T14:28:30.497Z</time></trkpt><trkpt lat="45.8540759" lon="9.0840537"><ele>541.0</ele><time>2026-04-04T14:28:31.497Z</time></trkpt><trkpt lat="45.8541358" lon="9.0841642"><ele>541.0</ele><time>2026-04-04T14:28:32.497Z</time></trkpt><trkpt lat="45.8541845" lon="9.0842518"><ele>541.0</ele><time>2026-04-04T14:28:33.497Z</time></trkpt><trkpt lat="45.8542393" lon="9.0842988"><ele>541.0</ele><time>2026-04-04T14:28:34.496Z</time></trkpt><trkpt lat="45.8543196" lon="9.0842291"><ele>541.0</ele><time>2026-04-04T14:28:36.497Z</time></trkpt><trkpt lat="45.8542778" lon="9.0840598"><ele>541.0</ele><time>2026-04-04T14:28:38.497Z</time></trkpt><trkpt lat="45.8542263" lon="9.0839505"><ele>541.0</ele><time>2026-04-04T14:28:39.497Z</time></trkpt><trkpt lat="45.8541736" lon="9.0838401"><ele>541.0</ele><time>2026-04-04T14:28:40.497Z</time></trkpt><trkpt lat="45.8541081" lon="9.0837179"><ele>541.0</ele><time>2026-04-04T14:28:41.497Z</time></trkpt><trkpt lat="45.8540446" lon="9.0836137"><ele>541.0</ele><time>2026-04-04T14:28:42.496Z</time></trkpt><trkpt lat="45.8539958" lon="9.0835328"><ele>541.0</ele><time>2026-04-04T14:28:43.497Z</time></trkpt><trkpt lat="45.8539978" lon="9.0834136"><ele>541.0</ele><time>2026-04-04T14:28:45.497Z</time></trkpt><trkpt lat="45.8540672" lon="9.0834403"><ele>541.0</ele><time>2026-04-04T14:28:47.497Z</time></trkpt><trkpt lat="45.8541748" lon="9.0835925"><ele>541.0</ele><time>2026-04-04T14:28:49.496Z</time></trkpt><trkpt lat="45.8542344" lon="9.0836644"><ele>541.0</ele><time>2026-04-04T14:28:50.497Z</time></trkpt><trkpt lat="45.8543066" lon="9.0837532"><ele>541.0</ele><time>2026-04-04T14:28:51.497Z</time></trkpt><trkpt lat="45.8543799" lon="9.0838528"><ele>541.0</ele><time>2026-04-04T14:28:52.497Z</time></trkpt><trkpt lat="45.8544378" lon="9.0839393"><ele>541.0</ele><time>2026-04-04T14:28:53.497Z</time></trkpt><trkpt lat="45.8545039" lon="9.0840348"><ele>547.0</ele><time>2026-04-04T14:28:54.497Z</time></trkpt><trkpt lat="45.8545581" lon="9.0841614"><ele>553.0</ele><time>2026-04-04T14:28:55.496Z</time></trkpt><trkpt lat="45.8546066" lon="9.0842954"><ele>559.0</ele><time>2026-04-04T14:28:56.497Z</time></trkpt><trkpt lat="45.8546453" lon="9.084449"><ele>565.0</ele><time>2026-04-04T14:28:57.497Z</time></trkpt><trkpt lat="45.8546763" lon="9.0846093"><ele>571.0</ele><time>2026-04-04T14:28:58.497Z</time></trkpt><trkpt lat="45.8547057" lon="9.084776"><ele>567.0</ele><time>2026-04-04T14:28:59.497Z</time></trkpt><trkpt lat="45.8547422" lon="9.0849428"><ele>563.0</ele><time>2026-04-04T14:29:00.497Z</time></trkpt><trkpt lat="45.854782" lon="9.085118"><ele>559.0</ele><time>2026-04-04T14:29:01.496Z</time></trkpt><trkpt lat="45.8548216" lon="9.0852824"><ele>555.0</ele><time>2026-04-04T14:29:02.497Z</time></trkpt><trkpt lat="45.8548547" lon="9.0854272"><ele>555.0</ele><time>2026-04-04T14:29:03.497Z</time></trkpt><trkpt lat="45.8548884" lon="9.0855668"><ele>555.0</ele><time>2026-04-04T14:29:04.497Z</time></trkpt><trkpt lat="45.8549221" lon="9.0856853"><ele>555.0</ele><time>2026-04-04T14:29:05.497Z</time></trkpt><trkpt lat="45.8549679" lon="9.085787"><ele>555.0</ele><time>2026-04-04T14:29:06.497Z</time></trkpt><trkpt lat="45.8550325" lon="9.0858797"><ele>555.0</ele><time>2026-04-04T14:29:07.497Z</time></trkpt><trkpt lat="45.8551172" lon="9.085952"><ele>558.5</ele><time>2026-04-04T14:29:08.497Z</time></trkpt><trkpt lat="45.8552235" lon="9.0860134"><ele>562.0</ele><time>2026-04-04T14:29:09.496Z</time></trkpt><trkpt lat="45.8553459" lon="9.0860836"><ele>565.5</ele><time>2026-04-04T14:29:10.496Z</time></trkpt><trkpt lat="45.8554614" lon="9.0861595"><ele>569.0</ele><time>2026-04-04T14:29:11.497Z</time></trkpt><trkpt lat="45.8555843" lon="9.0862481"><ele>569.0</ele><time>2026-04-04T14:29:12.497Z</time></trkpt><trkpt lat="45.8557092" lon="9.0863339"><ele>569.0</ele><time>2026-04-04T14:29:13.497Z</time></trkpt><trkpt lat="45.8558161" lon="9.0864044"><ele>569.0</ele><time>2026-04-04T14:29:14.497Z</time></trkpt><trkpt lat="45.8559093" lon="9.0864697"><ele>569.0</ele><time>2026-04-04T14:29:15.497Z</time></trkpt><trkpt lat="45.855991" lon="9.086528"><ele>572.0</ele><time>2026-04-04T14:29:16.497Z</time></trkpt><trkpt lat="45.8560753" lon="9.0865677"><ele>575.0</ele><time>2026-04-04T14:29:17.497Z</time></trkpt><trkpt lat="45.8561598" lon="9.0865723"><ele>578.0</ele><time>2026-04-04T14:29:18.497Z</time></trkpt><trkpt lat="45.8562424" lon="9.0865344"><ele>581.0</ele><time>2026-04-04T14:29:19.496Z</time></trkpt><trkpt lat="45.856328" lon="9.0864699"><ele>584.0</ele><time>2026-04-04T14:29:20.497Z</time></trkpt><trkpt lat="45.8564186" lon="9.0863881"><ele>584.0</ele><time>2026-04-04T14:29:21.497Z</time></trkpt><trkpt lat="45.8565071" lon="9.0863066"><ele>584.0</ele><time>2026-04-04T14:29:22.497Z</time></trkpt><trkpt lat="45.8565999" lon="9.086251"><ele>584.0</ele><time>2026-04-04T14:29:23.497Z</time></trkpt><trkpt lat="45.8566994" lon="9.086223"><ele>584.0</ele><time>2026-04-04T14:29:24.497Z</time></trkpt><trkpt lat="45.8567998" lon="9.086211"><ele>584.0</ele><time>2026-04-04T14:29:25.497Z</time></trkpt><trkpt lat="45.8569011" lon="9.0862356"><ele>589.4</ele><time>2026-04-04T14:29:26.497Z</time></trkpt><trkpt lat="45.856996" lon="9.0862784"><ele>594.8</ele><time>2026-04-04T14:29:27.497Z</time></trkpt><trkpt lat="45.8570894" lon="9.0863288"><ele>600.2</ele><time>2026-04-04T14:29:28.497Z</time></trkpt><trkpt lat="45.857172" lon="9.0863899"><ele>605.6</ele><time>2026-04-04T14:29:29.497Z</time></trkpt><trkpt lat="45.8572435" lon="9.0864686"><ele>611.0</ele><time>2026-04-04T14:29:30.497Z</time></trkpt><trkpt lat="45.8573005" lon="9.0865717"><ele>610.8</ele><time>2026-04-04T14:29:31.496Z</time></trkpt><trkpt lat="45.8573451" lon="9.086692"><ele>610.6</ele><time>2026-04-04T14:29:32.497Z</time></trkpt><trkpt lat="45.8574068" lon="9.0867999"><ele>610.4</ele><time>2026-04-04T14:29:33.497Z</time></trkpt><trkpt lat="45.857484" lon="9.0868968"><ele>610.2</ele><time>2026-04-04T14:29:34.497Z</time></trkpt><trkpt lat="45.857569" lon="9.0869808"><ele>610.0</ele><time>2026-04-04T14:29:35.497Z</time></trkpt><trkpt lat="45.8576613" lon="9.0870534"><ele>610.0</ele><time>2026-04-04T14:29:36.497Z</time></trkpt><trkpt lat="45.8577666" lon="9.0871053"><ele>610.0</ele><time>2026-04-04T14:29:37.497Z</time></trkpt><trkpt lat="45.8578876" lon="9.0871476"><ele>610.0</ele><time>2026-04-04T14:29:38.497Z</time></trkpt><trkpt lat="45.8580052" lon="9.0871887"><ele>610.0</ele><time>2026-04-04T14:29:39.497Z</time></trkpt><trkpt lat="45.8581208" lon="9.0872299"><ele>610.0</ele><time>2026-04-04T14:29:40.497Z</time></trkpt><trkpt lat="45.8582205" lon="9.0872712"><ele>610.0</ele><time>2026-04-04T14:29:41.497Z</time></trkpt><trkpt lat="45.8583163" lon="9.0873235"><ele>610.0</ele><time>2026-04-04T14:29:42.497Z</time></trkpt><trkpt lat="45.8584157" lon="9.0873863"><ele>610.0</ele><time>2026-04-04T14:29:43.497Z</time></trkpt><trkpt lat="45.8585228" lon="9.0874632"><ele>610.0</ele><time>2026-04-04T14:29:44.497Z</time></trkpt><trkpt lat="45.8586295" lon="9.0875438"><ele>609.0</ele><time>2026-04-04T14:29:45.497Z</time></trkpt><trkpt lat="45.8587276" lon="9.087625"><ele>608.0</ele><time>2026-04-04T14:29:46.496Z</time></trkpt><trkpt lat="45.8588175" lon="9.087718"><ele>607.0</ele><time>2026-04-04T14:29:47.497Z</time></trkpt><trkpt lat="45.8588981" lon="9.0878301"><ele>606.0</ele><time>2026-04-04T14:29:48.496Z</time></trkpt><trkpt lat="45.8589605" lon="9.0879482"><ele>605.0</ele><time>2026-04-04T14:29:49.497Z</time></trkpt><trkpt lat="45.8590148" lon="9.0880568"><ele>605.0</ele><time>2026-04-04T14:29:50.496Z</time></trkpt><trkpt lat="45.8590918" lon="9.0881368"><ele>605.0</ele><time>2026-04-04T14:29:51.497Z</time></trkpt><trkpt lat="45.8591863" lon="9.0882056"><ele>605.0</ele><time>2026-04-04T14:29:52.497Z</time></trkpt><trkpt lat="45.8592996" lon="9.088264"><ele>605.0</ele><time>2026-04-04T14:29:53.496Z</time></trkpt><trkpt lat="45.8594241" lon="9.0883267"><ele>606.25</ele><time>2026-04-04T14:29:54.496Z</time></trkpt><trkpt lat="45.8595408" lon="9.0883993"><ele>607.5</ele><time>2026-04-04T14:29:55.497Z</time></trkpt><trkpt lat="45.8596478" lon="9.0884764"><ele>608.75</ele><time>2026-04-04T14:29:56.497Z</time></trkpt><trkpt lat="45.8597599" lon="9.0885614"><ele>610.0</ele><time>2026-04-04T14:29:57.497Z</time></trkpt><trkpt lat="45.8598659" lon="9.0886505"><ele>610.0</ele><time>2026-04-04T14:29:58.497Z</time></trkpt><trkpt lat="45.8599639" lon="9.0887485"><ele>610.0</ele><time>2026-04-04T14:29:59.497Z</time></trkpt><trkpt lat="45.860046" lon="9.0888583"><ele>610.0</ele><time>2026-04-04T14:30:00.497Z</time></trkpt><trkpt lat="45.8601176" lon="9.0889806"><ele>610.0</ele><time>2026-04-04T14:30:01.496Z</time></trkpt><trkpt lat="45.8601852" lon="9.0891145"><ele>614.75</ele><time>2026-04-04T14:30:02.497Z</time></trkpt><trkpt lat="45.8602588" lon="9.0892381"><ele>619.5</ele><time>2026-04-04T14:30:03.497Z</time></trkpt><trkpt lat="45.860341" lon="9.0893476"><ele>624.25</ele><time>2026-04-04T14:30:04.496Z</time></trkpt><trkpt lat="45.860434" lon="9.0894429"><ele>629.0</ele><time>2026-04-04T14:30:05.497Z</time></trkpt><trkpt lat="45.86054" lon="9.0895256"><ele>629.0</ele><time>2026-04-04T14:30:06.497Z</time></trkpt><trkpt lat="45.8606512" lon="9.0896049"><ele>629.0</ele><time>2026-04-04T14:30:07.497Z</time></trkpt><trkpt lat="45.8607619" lon="9.0896911"><ele>629.0</ele><time>2026-04-04T14:30:08.496Z</time></trkpt><trkpt lat="45.8608698" lon="9.0897812"><ele>629.0</ele><time>2026-04-04T14:30:09.497Z</time></trkpt><trkpt lat="45.8609805" lon="9.0898634"><ele>627.75</ele><time>2026-04-04T14:30:10.496Z</time></trkpt><trkpt lat="45.8610944" lon="9.0899348"><ele>626.5</ele><time>2026-04-04T14:30:11.497Z</time></trkpt><trkpt lat="45.8612084" lon="9.089995"><ele>625.25</ele><time>2026-04-04T14:30:12.497Z</time></trkpt><trkpt lat="45.8613227" lon="9.0900449"><ele>624.0</ele><time>2026-04-04T14:30:13.496Z</time></trkpt><trkpt lat="45.8614302" lon="9.0900853"><ele>624.0</ele><time>2026-04-04T14:30:14.497Z</time></trkpt><trkpt lat="45.8615374" lon="9.0901095"><ele>624.0</ele><time>2026-04-04T14:30:15.497Z</time></trkpt><trkpt lat="45.8616514" lon="9.0900984"><ele>624.0</ele><time>2026-04-04T14:30:16.497Z</time></trkpt><trkpt lat="45.8617706" lon="9.0900867"><ele>624.0</ele><time>2026-04-04T14:30:17.497Z</time></trkpt><trkpt lat="45.8618906" lon="9.0900943"><ele>623.75</ele><time>2026-04-04T14:30:18.497Z</time></trkpt><trkpt lat="45.8620116" lon="9.0901176"><ele>623.5</ele><time>2026-04-04T14:30:19.497Z</time></trkpt><trkpt lat="45.862131" lon="9.0901359"><ele>623.25</ele><time>2026-04-04T14:30:20.497Z</time></trkpt><trkpt lat="45.8622517" lon="9.0901387"><ele>623.0</ele><time>2026-04-04T14:30:21.496Z</time></trkpt><trkpt lat="45.8623585" lon="9.0901416"><ele>623.0</ele><time>2026-04-04T14:30:22.497Z</time></trkpt><trkpt lat="45.8624488" lon="9.0901452"><ele>623.0</ele><time>2026-04-04T14:30:23.497Z</time></trkpt><trkpt lat="45.862525" lon="9.0901403"><ele>623.0</ele><time>2026-04-04T14:30:24.496Z</time></trkpt><trkpt lat="45.8625899" lon="9.0901243"><ele>623.0</ele><time>2026-04-04T14:30:25.497Z</time></trkpt><trkpt lat="45.8626416" lon="9.0900181"><ele>623.0</ele><time>2026-04-04T14:30:27.497Z</time></trkpt><trkpt lat="45.8625855" lon="9.0899468"><ele>623.0</ele><time>2026-04-04T14:30:29.497Z</time></trkpt><trkpt lat="45.8625226" lon="9.089956"><ele>623.0</ele><time>2026-04-04T14:30:30.497Z</time></trkpt><trkpt lat="45.8624417" lon="9.0899649"><ele>623.0</ele><time>2026-04-04T14:30:31.497Z</time></trkpt><trkpt lat="45.8623516" lon="9.0899638"><ele>623.0</ele><time>2026-04-04T14:30:32.497Z</time></trkpt><trkpt lat="45.8622631" lon="9.0899587"><ele>623.0</ele><time>2026-04-04T14:30:33.497Z</time></trkpt><trkpt lat="45.86217" lon="9.0899384"><ele>623.0</ele><time>2026-04-04T14:30:34.496Z</time></trkpt><trkpt lat="45.8620928" lon="9.0898959"><ele>623.0</ele><time>2026-04-04T14:30:35.496Z</time></trkpt><trkpt lat="45.8620141" lon="9.0898352"><ele>625.4</ele><time>2026-04-04T14:30:36.497Z</time></trkpt><trkpt lat="45.8619286" lon="9.0897702"><ele>627.8</ele><time>2026-04-04T14:30:37.497Z</time></trkpt><trkpt lat="45.8618387" lon="9.0897133"><ele>630.2</ele><time>2026-04-04T14:30:38.497Z</time></trkpt><trkpt lat="45.8617465" lon="9.0896803"><ele>632.6</ele><time>2026-04-04T14:30:39.496Z</time></trkpt><trkpt lat="45.8616536" lon="9.0896582"><ele>635.0</ele><time>2026-04-04T14:30:40.497Z</time></trkpt><trkpt lat="45.8615675" lon="9.0896272"><ele>639.2</ele><time>2026-04-04T14:30:41.496Z</time></trkpt><trkpt lat="45.8614914" lon="9.0895706"><ele>643.4</ele><time>2026-04-04T14:30:42.497Z</time></trkpt><trkpt lat="45.8614082" lon="9.0894904"><ele>647.5999999999999</ele><time>2026-04-04T14:30:43.497Z</time></trkpt><trkpt lat="45.861327" lon="9.0893933"><ele>651.8</ele><time>2026-04-04T14:30:44.497Z</time></trkpt><trkpt lat="45.8612507" lon="9.0892922"><ele>656.0</ele><time>2026-04-04T14:30:45.497Z</time></trkpt><trkpt lat="45.8611907" lon="9.0892028"><ele>656.0</ele><time>2026-04-04T14:30:46.497Z</time></trkpt><trkpt lat="45.8611383" lon="9.0890931"><ele>656.0</ele><time>2026-04-04T14:30:47.497Z</time></trkpt><trkpt lat="45.8610819" lon="9.0889622"><ele>656.0</ele><time>2026-04-04T14:30:48.497Z</time></trkpt><trkpt lat="45.8610236" lon="9.0888241"><ele>656.0</ele><time>2026-04-04T14:30:49.497Z</time></trkpt><trkpt lat="45.8609711" lon="9.088695"><ele>656.0</ele><time>2026-04-04T14:30:50.497Z</time></trkpt><trkpt lat="45.860931" lon="9.0885763"><ele>655.8</ele><time>2026-04-04T14:30:51.497Z</time></trkpt><trkpt lat="45.8609019" lon="9.0884476"><ele>655.5999999999999</ele><time>2026-04-04T14:30:52.496Z</time></trkpt><trkpt lat="45.8608771" lon="9.0883023"><ele>655.4</ele><time>2026-04-04T14:30:53.496Z</time></trkpt><trkpt lat="45.860855" lon="9.088141"><ele>655.2</ele><time>2026-04-04T14:30:54.497Z</time></trkpt><trkpt lat="45.8608256" lon="9.0879793"><ele>655.0</ele><time>2026-04-04T14:30:55.497Z</time></trkpt><trkpt lat="45.860774" lon="9.0878102"><ele>655.0</ele><time>2026-04-04T14:30:56.496Z</time></trkpt><trkpt lat="45.8607247" lon="9.0876395"><ele>655.0</ele><time>2026-04-04T14:30:57.496Z</time></trkpt><trkpt lat="45.8606634" lon="9.0874818"><ele>655.0</ele><time>2026-04-04T14:30:58.497Z</time></trkpt><trkpt lat="45.8605886" lon="9.0873351"><ele>655.0</ele><time>2026-04-04T14:30:59.497Z</time></trkpt><trkpt lat="45.8605043" lon="9.0871923"><ele>661.5</ele><time>2026-04-04T14:31:00.497Z</time></trkpt><trkpt lat="45.8604234" lon="9.0870505"><ele>668.0</ele><time>2026-04-04T14:31:01.497Z</time></trkpt><trkpt lat="45.8603488" lon="9.0868891"><ele>674.5</ele><time>2026-04-04T14:31:02.497Z</time></trkpt><trkpt lat="45.8602651" lon="9.0867259"><ele>681.0</ele><time>2026-04-04T14:31:03.497Z</time></trkpt><trkpt lat="45.8601769" lon="9.086566"><ele>681.75</ele><time>2026-04-04T14:31:04.497Z</time></trkpt><trkpt lat="45.86009" lon="9.0864145"><ele>682.5</ele><time>2026-04-04T14:31:05.497Z</time></trkpt><trkpt lat="45.8600059" lon="9.086282"><ele>683.25</ele><time>2026-04-04T14:31:06.497Z</time></trkpt><trkpt lat="45.8599117" lon="9.0861678"><ele>684.0</ele><time>2026-04-04T14:31:07.497Z</time></trkpt><trkpt lat="45.8598109" lon="9.0860676"><ele>684.0</ele><time>2026-04-04T14:31:08.497Z</time></trkpt><trkpt lat="45.8597187" lon="9.0859783"><ele>684.0</ele><time>2026-04-04T14:31:09.497Z</time></trkpt><trkpt lat="45.8596314" lon="9.0859048"><ele>684.0</ele><time>2026-04-04T14:31:10.497Z</time></trkpt><trkpt lat="45.8595529" lon="9.0858293"><ele>684.0</ele><time>2026-04-04T14:31:11.497Z</time></trkpt><trkpt lat="45.8594923" lon="9.0857464"><ele>684.0</ele><time>2026-04-04T14:31:12.497Z</time></trkpt><trkpt lat="45.8594486" lon="9.0856642"><ele>684.0</ele><time>2026-04-04T14:31:13.497Z</time></trkpt><trkpt lat="45.8594537" lon="9.0855519"><ele>684.0</ele><time>2026-04-04T14:31:15.496Z</time></trkpt><trkpt lat="45.8595267" lon="9.0855798"><ele>684.0</ele><time>2026-04-04T14:31:17.497Z</time></trkpt><trkpt lat="45.8596396" lon="9.0857076"><ele>684.0</ele><time>2026-04-04T14:31:19.497Z</time></trkpt><trkpt lat="45.8597149" lon="9.0857617"><ele>684.0</ele><time>2026-04-04T14:31:20.497Z</time></trkpt><trkpt lat="45.8598063" lon="9.0857981"><ele>684.0</ele><time>2026-04-04T14:31:21.497Z</time></trkpt><trkpt lat="45.8598984" lon="9.0858222"><ele>684.0</ele><time>2026-04-04T14:31:22.497Z</time></trkpt><trkpt lat="45.8599907" lon="9.0858445"><ele>684.0</ele><time>2026-04-04T14:31:23.497Z</time></trkpt><trkpt lat="45.8600725" lon="9.0859208"><ele>684.0</ele><time>2026-04-04T14:31:24.496Z</time></trkpt><trkpt lat="45.8601634" lon="9.0860088"><ele>684.0</ele><time>2026-04-04T14:31:25.496Z</time></trkpt><trkpt lat="45.8602613" lon="9.0861081"><ele>689.6</ele><time>2026-04-04T14:31:26.497Z</time></trkpt><trkpt lat="45.8603503" lon="9.0861983"><ele>695.2</ele><time>2026-04-04T14:31:27.496Z</time></trkpt><trkpt lat="45.8604286" lon="9.0862948"><ele>700.8000000000001</ele><time>2026-04-04T14:31:28.497Z</time></trkpt><trkpt lat="45.860505" lon="9.0863766"><ele>706.4000000000001</ele><time>2026-04-04T14:31:29.497Z</time></trkpt><trkpt lat="45.8605937" lon="9.0864321"><ele>712.0</ele><time>2026-04-04T14:31:30.497Z</time></trkpt><trkpt lat="45.860702" lon="9.0864711"><ele>712.0</ele><time>2026-04-04T14:31:31.497Z</time></trkpt><trkpt lat="45.8608184" lon="9.086513"><ele>712.0</ele><time>2026-04-04T14:31:32.496Z</time></trkpt><trkpt lat="45.8609317" lon="9.0865669"><ele>712.0</ele><time>2026-04-04T14:31:33.496Z</time></trkpt><trkpt lat="45.8610576" lon="9.0866345"><ele>712.0</ele><time>2026-04-04T14:31:34.497Z</time></trkpt><trkpt lat="45.861178" lon="9.0867015"><ele>709.25</ele><time>2026-04-04T14:31:35.497Z</time></trkpt><trkpt lat="45.8612955" lon="9.0867818"><ele>706.5</ele><time>2026-04-04T14:31:36.497Z</time></trkpt><trkpt lat="45.8614136" lon="9.0868602"><ele>703.75</ele><time>2026-04-04T14:31:37.497Z</time></trkpt><trkpt lat="45.8615278" lon="9.0869347"><ele>701.0</ele><time>2026-04-04T14:31:38.497Z</time></trkpt><trkpt lat="45.8616313" lon="9.0869975"><ele>701.0</ele><time>2026-04-04T14:31:39.497Z</time></trkpt><trkpt lat="45.8617174" lon="9.0870457"><ele>701.0</ele><time>2026-04-04T14:31:40.497Z</time></trkpt><trkpt lat="45.861787" lon="9.0870731"><ele>701.0</ele><time>2026-04-04T14:31:41.497Z</time></trkpt><trkpt lat="45.8618565" lon="9.0870012"><ele>701.0</ele><time>2026-04-04T14:31:43.497Z</time></trkpt><trkpt lat="45.8617941" lon="9.0869007"><ele>701.0</ele><time>2026-04-04T14:31:45.496Z</time></trkpt><trkpt lat="45.861721" lon="9.0868526"><ele>701.0</ele><time>2026-04-04T14:31:46.497Z</time></trkpt><trkpt lat="45.8616313" lon="9.0867739"><ele>701.0</ele><time>2026-04-04T14:31:47.497Z</time></trkpt><trkpt lat="45.8615485" lon="9.086693"><ele>701.0</ele><time>2026-04-04T14:31:48.496Z</time></trkpt><trkpt lat="45.8614543" lon="9.0865861"><ele>701.0</ele><time>2026-04-04T14:31:49.497Z</time></trkpt><trkpt lat="45.8613529" lon="9.0864656"><ele>701.0</ele><time>2026-04-04T14:31:50.497Z</time></trkpt><trkpt lat="45.8612509" lon="9.0863531"><ele>703.75</ele><time>2026-04-04T14:31:51.496Z</time></trkpt><trkpt lat="45.8611375" lon="9.0862475"><ele>706.5</ele><time>2026-04-04T14:31:52.497Z</time></trkpt><trkpt lat="45.8610281" lon="9.0861649"><ele>709.25</ele><time>2026-04-04T14:31:53.497Z</time></trkpt><trkpt lat="45.8609238" lon="9.0860758"><ele>712.0</ele><time>2026-04-04T14:31:54.497Z</time></trkpt><trkpt lat="45.860825" lon="9.0859671"><ele>712.0</ele><time>2026-04-04T14:31:55.497Z</time></trkpt><trkpt lat="45.8607281" lon="9.0858375"><ele>712.0</ele><time>2026-04-04T14:31:56.497Z</time></trkpt><trkpt lat="45.8606327" lon="9.0857046"><ele>712.0</ele><time>2026-04-04T14:31:57.497Z</time></trkpt><trkpt lat="45.8605472" lon="9.0855767"><ele>712.0</ele><time>2026-04-04T14:31:58.496Z</time></trkpt><trkpt lat="45.8604673" lon="9.0854689"><ele>718.8</ele><time>2026-04-04T14:31:59.497Z</time></trkpt><trkpt lat="45.8603935" lon="9.0853653"><ele>725.6</ele><time>2026-04-04T14:32:00.497Z</time></trkpt><trkpt lat="45.8603307" lon="9.0852512"><ele>732.4</ele><time>2026-04-04T14:32:01.496Z</time></trkpt><trkpt lat="45.8602808" lon="9.0851245"><ele>739.1999999999999</ele><time>2026-04-04T14:32:02.497Z</time></trkpt><trkpt lat="45.860232" lon="9.0849843"><ele>746.0</ele><time>2026-04-04T14:32:03.497Z</time></trkpt><trkpt lat="45.8601794" lon="9.0848345"><ele>742.4</ele><time>2026-04-04T14:32:04.497Z</time></trkpt><trkpt lat="45.8601312" lon="9.0846857"><ele>738.8</ele><time>2026-04-04T14:32:05.496Z</time></trkpt><trkpt lat="45.8600821" lon="9.0845401"><ele>735.1999999999999</ele><time>2026-04-04T14:32:06.497Z</time></trkpt><trkpt lat="45.8600404" lon="9.084394"><ele>731.5999999999999</ele><time>2026-04-04T14:32:07.497Z</time></trkpt><trkpt lat="45.8599931" lon="9.084265"><ele>728.0</ele><time>2026-04-04T14:32:08.497Z</time></trkpt><trkpt lat="45.8599353" lon="9.0841438"><ele>732.5999999999999</ele><time>2026-04-04T14:32:09.497Z</time></trkpt><trkpt lat="45.8598665" lon="9.0840285"><ele>737.1999999999999</ele><time>2026-04-04T14:32:10.497Z</time></trkpt><trkpt lat="45.8598132" lon="9.083914"><ele>741.8</ele><time>2026-04-04T14:32:11.497Z</time></trkpt><trkpt lat="45.8597786" lon="9.0837833"><ele>746.4</ele><time>2026-04-04T14:32:12.497Z</time></trkpt><trkpt lat="45.8597518" lon="9.0836424"><ele>751.0</ele><time>2026-04-04T14:32:13.497Z</time></trkpt><trkpt lat="45.8597223" lon="9.0835081"><ele>751.0</ele><time>2026-04-04T14:32:14.497Z</time></trkpt><trkpt lat="45.859679" lon="9.0833942"><ele>751.0</ele><time>2026-04-04T14:32:15.497Z</time></trkpt><trkpt lat="45.8596161" lon="9.0832963"><ele>751.0</ele><time>2026-04-04T14:32:16.497Z</time></trkpt><trkpt lat="45.8595304" lon="9.0832229"><ele>751.0</ele><time>2026-04-04T14:32:17.497Z</time></trkpt><trkpt lat="45.8594373" lon="9.0831543"><ele>751.0</ele><time>2026-04-04T14:32:18.497Z</time></trkpt><trkpt lat="45.8593336" lon="9.0831095"><ele>751.5999999999999</ele><time>2026-04-04T14:32:19.496Z</time></trkpt><trkpt lat="45.8592506" lon="9.0830559"><ele>752.2</ele><time>2026-04-04T14:32:20.496Z</time></trkpt><trkpt lat="45.8591883" lon="9.0829927"><ele>752.8</ele><time>2026-04-04T14:32:21.497Z</time></trkpt><trkpt lat="45.8591323" lon="9.0829027"><ele>753.4000000000001</ele><time>2026-04-04T14:32:22.497Z</time></trkpt><trkpt lat="45.859081" lon="9.0827802"><ele>754.0</ele><time>2026-04-04T14:32:23.497Z</time></trkpt><trkpt lat="45.8590125" lon="9.0826487"><ele>754.0</ele><time>2026-04-04T14:32:24.497Z</time></trkpt><trkpt lat="45.858937" lon="9.0825273"><ele>754.0</ele><time>2026-04-04T14:32:25.496Z</time></trkpt><trkpt lat="45.8588543" lon="9.0824052"><ele>754.0</ele><time>2026-04-04T14:32:26.497Z</time></trkpt><trkpt lat="45.8587788" lon="9.0822932"><ele>754.0</ele><time>2026-04-04T14:32:27.497Z</time></trkpt><trkpt lat="45.8587082" lon="9.0821958"><ele>754.0</ele><time>2026-04-04T14:32:28.497Z</time></trkpt><trkpt lat="45.8586484" lon="9.0821235"><ele>757.0</ele><time>2026-04-04T14:32:29.497Z</time></trkpt><trkpt lat="45.8585829" lon="9.0820787"><ele>760.0</ele><time>2026-04-04T14:32:30.497Z</time></trkpt><trkpt lat="45.858507" lon="9.0820566"><ele>763.0</ele><time>2026-04-04T14:32:31.497Z</time></trkpt><trkpt lat="45.8584251" lon="9.0820772"><ele>766.0</ele><time>2026-04-04T14:32:32.497Z</time></trkpt><trkpt lat="45.8583346" lon="9.0821367"><ele>768.9999999999999</ele><time>2026-04-04T14:32:33.497Z</time></trkpt><trkpt lat="45.8582374" lon="9.0821601"><ele>772.0</ele><time>2026-04-04T14:32:34.497Z</time></trkpt><trkpt lat="45.8581337" lon="9.0821712"><ele>772.0</ele><time>2026-04-04T14:32:35.497Z</time></trkpt><trkpt lat="45.8580368" lon="9.0821744"><ele>772.0</ele><time>2026-04-04T14:32:36.496Z</time></trkpt><trkpt lat="45.8579435" lon="9.0821692"><ele>772.0</ele><time>2026-04-04T14:32:37.497Z</time></trkpt><trkpt lat="45.8578553" lon="9.0821436"><ele>772.0</ele><time>2026-04-04T14:32:38.497Z</time></trkpt><trkpt lat="45.8577675" lon="9.0821095"><ele>772.0</ele><time>2026-04-04T14:32:39.497Z</time></trkpt><trkpt lat="45.8576832" lon="9.0820648"><ele>769.0</ele><time>2026-04-04T14:32:40.497Z</time></trkpt><trkpt lat="45.8575956" lon="9.0820041"><ele>766.0</ele><time>2026-04-04T14:32:41.497Z</time></trkpt><trkpt lat="45.8575075" lon="9.0819445"><ele>763.0</ele><time>2026-04-04T14:32:42.496Z</time></trkpt><trkpt lat="45.857423" lon="9.0818886"><ele>760.0</ele><time>2026-04-04T14:32:43.497Z</time></trkpt><trkpt lat="45.8573441" lon="9.0818307"><ele>757.0</ele><time>2026-04-04T14:32:44.497Z</time></trkpt><trkpt lat="45.857274" lon="9.0817619"><ele>757.0</ele><time>2026-04-04T14:32:45.497Z</time></trkpt><trkpt lat="45.8572085" lon="9.0816664"><ele>757.0</ele><time>2026-04-04T14:32:46.497Z</time></trkpt><trkpt lat="45.8571366" lon="9.0815497"><ele>757.0</ele><time>2026-04-04T14:32:47.497Z</time></trkpt><trkpt lat="45.8570527" lon="9.0814183"><ele>757.0</ele><time>2026-04-04T14:32:48.497Z</time></trkpt><trkpt lat="45.8569711" lon="9.0812885"><ele>757.0</ele><time>2026-04-04T14:32:49.497Z</time></trkpt><trkpt lat="45.8568828" lon="9.0811501"><ele>755.75</ele><time>2026-04-04T14:32:50.497Z</time></trkpt><trkpt lat="45.8567867" lon="9.0810086"><ele>754.5</ele><time>2026-04-04T14:32:51.497Z</time></trkpt><trkpt lat="45.8566936" lon="9.0808789"><ele>753.25</ele><time>2026-04-04T14:32:52.497Z</time></trkpt><trkpt lat="45.8566154" lon="9.0807604"><ele>752.0</ele><time>2026-04-04T14:32:53.497Z</time></trkpt><trkpt lat="45.8565556" lon="9.0806316"><ele>758.25</ele><time>2026-04-04T14:32:54.497Z</time></trkpt><trkpt lat="45.8565082" lon="9.0804792"><ele>764.5</ele><time>2026-04-04T14:32:55.497Z</time></trkpt><trkpt lat="45.8564696" lon="9.0803015"><ele>770.75</ele><time>2026-04-04T14:32:56.497Z</time></trkpt><trkpt lat="45.8564353" lon="9.0801239"><ele>777.0</ele><time>2026-04-04T14:32:57.497Z</time></trkpt><trkpt lat="45.8563985" lon="9.0799375"><ele>783.75</ele><time>2026-04-04T14:32:58.497Z</time></trkpt><trkpt lat="45.856358" lon="9.0797421"><ele>790.5</ele><time>2026-04-04T14:32:59.497Z</time></trkpt><trkpt lat="45.8563104" lon="9.0795458"><ele>797.25</ele><time>2026-04-04T14:33:00.497Z</time></trkpt><trkpt lat="45.8562538" lon="9.0793446"><ele>804.0</ele><time>2026-04-04T14:33:01.496Z</time></trkpt><trkpt lat="45.8561901" lon="9.0791366"><ele>813.3333333333333</ele><time>2026-04-04T14:33:02.497Z</time></trkpt><trkpt lat="45.8561274" lon="9.0789273"><ele>822.6666666666666</ele><time>2026-04-04T14:33:03.497Z</time></trkpt><trkpt lat="45.8560685" lon="9.078725"><ele>832.0</ele><time>2026-04-04T14:33:04.497Z</time></trkpt><trkpt lat="45.8560079" lon="9.0785302"><ele>820.0</ele><time>2026-04-04T14:33:05.497Z</time></trkpt><trkpt lat="45.8559497" lon="9.0783387"><ele>808.0</ele><time>2026-04-04T14:33:06.497Z</time></trkpt><trkpt lat="45.8558974" lon="9.0781574"><ele>796.0</ele><time>2026-04-04T14:33:07.497Z</time></trkpt><trkpt lat="45.8558441" lon="9.0779733"><ele>784.0</ele><time>2026-04-04T14:33:08.497Z</time></trkpt><trkpt lat="45.8557949" lon="9.0777945"><ele>784.0</ele><time>2026-04-04T14:33:09.497Z</time></trkpt><trkpt lat="45.8557446" lon="9.0776215"><ele>784.0</ele><time>2026-04-04T14:33:10.497Z</time></trkpt><trkpt lat="45.8557" lon="9.0774588"><ele>784.0</ele><time>2026-04-04T14:33:11.497Z</time></trkpt><trkpt lat="45.8556638" lon="9.0773093"><ele>784.0</ele><time>2026-04-04T14:33:12.497Z</time></trkpt><trkpt lat="45.8556328" lon="9.0771619"><ele>786.6</ele><time>2026-04-04T14:33:13.497Z</time></trkpt><trkpt lat="45.855606" lon="9.077017"><ele>789.2</ele><time>2026-04-04T14:33:14.497Z</time></trkpt><trkpt lat="45.8555871" lon="9.0768686"><ele>791.8000000000001</ele><time>2026-04-04T14:33:15.497Z</time></trkpt><trkpt lat="45.8555756" lon="9.0767061"><ele>794.4000000000001</ele><time>2026-04-04T14:33:16.497Z</time></trkpt><trkpt lat="45.855569" lon="9.0765296"><ele>797.0</ele><time>2026-04-04T14:33:17.497Z</time></trkpt><trkpt lat="45.8555624" lon="9.0763532"><ele>797.8</ele><time>2026-04-04T14:33:18.496Z</time></trkpt><trkpt lat="45.8555595" lon="9.0761782"><ele>798.6</ele><time>2026-04-04T14:33:19.497Z</time></trkpt><trkpt lat="45.8555562" lon="9.0760129"><ele>799.4</ele><time>2026-04-04T14:33:20.497Z</time></trkpt><trkpt lat="45.8555601" lon="9.0758676"><ele>800.1999999999999</ele><time>2026-04-04T14:33:21.497Z</time></trkpt><trkpt lat="45.8555561" lon="9.0757431"><ele>801.0</ele><time>2026-04-04T14:33:22.497Z</time></trkpt><trkpt lat="45.8555466" lon="9.0756294"><ele>801.0</ele><time>2026-04-04T14:33:23.497Z</time></trkpt><trkpt lat="45.8555291" lon="9.075529"><ele>801.0</ele><time>2026-04-04T14:33:24.497Z</time></trkpt><trkpt lat="45.8555394" lon="9.0754072"><ele>801.0</ele><time>2026-04-04T14:33:26.497Z</time></trkpt><trkpt lat="45.8556017" lon="9.0754783"><ele>801.0</ele><time>2026-04-04T14:33:29.497Z</time></trkpt><trkpt lat="45.8556169" lon="9.0756808"><ele>801.0</ele><time>2026-04-04T14:33:31.497Z</time></trkpt><trkpt lat="45.8556261" lon="9.0758067"><ele>801.0</ele><time>2026-04-04T14:33:32.497Z</time></trkpt><trkpt lat="45.855637" lon="9.0759598"><ele>801.0</ele><time>2026-04-04T14:33:33.497Z</time></trkpt><trkpt lat="45.8556541" lon="9.0761271"><ele>801.0</ele><time>2026-04-04T14:33:34.497Z</time></trkpt><trkpt lat="45.8556767" lon="9.0762979"><ele>801.0</ele><time>2026-04-04T14:33:35.497Z</time></trkpt><trkpt lat="45.8556964" lon="9.0764666"><ele>800.1999999999999</ele><time>2026-04-04T14:33:36.497Z</time></trkpt><trkpt lat="45.8557168" lon="9.0766305"><ele>799.4</ele><time>2026-04-04T14:33:37.496Z</time></trkpt><trkpt lat="45.8557459" lon="9.0767809"><ele>798.6</ele><time>2026-04-04T14:33:38.497Z</time></trkpt><trkpt lat="45.8557834" lon="9.0769258"><ele>797.8</ele><time>2026-04-04T14:33:39.497Z</time></trkpt><trkpt lat="45.855835" lon="9.0770632"><ele>797.0</ele><time>2026-04-04T14:33:40.497Z</time></trkpt><trkpt lat="45.85589" lon="9.0771978"><ele>797.0000000000001</ele><time>2026-04-04T14:33:41.496Z</time></trkpt><trkpt lat="45.8559259" lon="9.0772978"><ele>797.0</ele><time>2026-04-04T14:33:42.497Z</time></trkpt><trkpt lat="45.8560006" lon="9.0773653"><ele>797.0</ele><time>2026-04-04T14:33:44.497Z</time></trkpt><trkpt lat="45.8560052" lon="9.0772344"><ele>797.0</ele><time>2026-04-04T14:33:47.496Z</time></trkpt><trkpt lat="45.855953" lon="9.0771456"><ele>797.0000000000001</ele><time>2026-04-04T14:33:48.497Z</time></trkpt><trkpt lat="45.8559168" lon="9.0770346"><ele>797.0</ele><time>2026-04-04T14:33:49.497Z</time></trkpt><trkpt lat="45.8558849" lon="9.0769221"><ele>797.0</ele><time>2026-04-04T14:33:50.497Z</time></trkpt><trkpt lat="45.855859" lon="9.0768005"><ele>797.0</ele><time>2026-04-04T14:33:51.496Z</time></trkpt><trkpt lat="45.8558432" lon="9.0766687"><ele>797.0</ele><time>2026-04-04T14:33:52.497Z</time></trkpt><trkpt lat="45.855837" lon="9.0765192"><ele>797.0</ele><time>2026-04-04T14:33:53.497Z</time></trkpt><trkpt lat="45.8558368" lon="9.0763571"><ele>797.0</ele><time>2026-04-04T14:33:54.497Z</time></trkpt><trkpt lat="45.8558395" lon="9.0762037"><ele>797.8</ele><time>2026-04-04T14:33:55.496Z</time></trkpt><trkpt lat="45.8558493" lon="9.0760488"><ele>798.6</ele><time>2026-04-04T14:33:56.497Z</time></trkpt><trkpt lat="45.8558688" lon="9.0758842"><ele>799.4</ele><time>2026-04-04T14:33:57.497Z</time></trkpt><trkpt lat="45.8558933" lon="9.0757282"><ele>800.1999999999999</ele><time>2026-04-04T14:33:58.497Z</time></trkpt><trkpt lat="45.8559161" lon="9.0755726"><ele>801.0</ele><time>2026-04-04T14:33:59.496Z</time></trkpt><trkpt lat="45.8559368" lon="9.0754407"><ele>802.3333333333334</ele><time>2026-04-04T14:34:00.497Z</time></trkpt><trkpt lat="45.8559526" lon="9.0753275"><ele>803.6666666666667</ele><time>2026-04-04T14:34:01.497Z</time></trkpt><trkpt lat="45.8560054" lon="9.0752179"><ele>805.0</ele><time>2026-04-04T14:34:03.497Z</time></trkpt><trkpt lat="45.8560436" lon="9.0753547"><ele>806.3333333333334</ele><time>2026-04-04T14:34:06.497Z</time></trkpt><trkpt lat="45.8560194" lon="9.0754623"><ele>807.6666666666667</ele><time>2026-04-04T14:34:07.496Z</time></trkpt><trkpt lat="45.8559991" lon="9.0755922"><ele>809.0</ele><time>2026-04-04T14:34:08.497Z</time></trkpt><trkpt lat="45.8559874" lon="9.075717"><ele>814.0</ele><time>2026-04-04T14:34:09.497Z</time></trkpt><trkpt lat="45.8559749" lon="9.0758658"><ele>819.0</ele><time>2026-04-04T14:34:10.497Z</time></trkpt><trkpt lat="45.8559642" lon="9.076019"><ele>824.0</ele><time>2026-04-04T14:34:11.497Z</time></trkpt><trkpt lat="45.8559601" lon="9.0761502"><ele>829.0</ele><time>2026-04-04T14:34:12.497Z</time></trkpt><trkpt lat="45.8559579" lon="9.0762535"><ele>834.0</ele><time>2026-04-04T14:34:13.497Z</time></trkpt><trkpt lat="45.8560094" lon="9.0763673"><ele>834.0</ele><time>2026-04-04T14:34:15.497Z</time></trkpt><trkpt lat="45.856055" lon="9.0763024"><ele>834.0</ele><time>2026-04-04T14:34:17.497Z</time></trkpt><trkpt lat="45.856056" lon="9.0762097"><ele>834.0</ele><time>2026-04-04T14:34:18.497Z</time></trkpt><trkpt lat="45.8560479" lon="9.0760774"><ele>834.0</ele><time>2026-04-04T14:34:19.497Z</time></trkpt><trkpt lat="45.8560593" lon="9.0759719"><ele>834.0</ele><time>2026-04-04T14:34:20.497Z</time></trkpt><trkpt lat="45.8560828" lon="9.0758451"><ele>834.0</ele><time>2026-04-04T14:34:21.497Z</time></trkpt><trkpt lat="45.856115" lon="9.0757229"><ele>829.8333333333334</ele><time>2026-04-04T14:34:22.497Z</time></trkpt><trkpt lat="45.8561486" lon="9.0756218"><ele>825.6666666666667</ele><time>2026-04-04T14:34:23.497Z</time></trkpt><trkpt lat="45.8561954" lon="9.0755405"><ele>821.5</ele><time>2026-04-04T14:34:24.496Z</time></trkpt><trkpt lat="45.8562577" lon="9.0754857"><ele>817.3333333333334</ele><time>2026-04-04T14:34:25.497Z</time></trkpt><trkpt lat="45.856334" lon="9.0754548"><ele>813.1666666666667</ele><time>2026-04-04T14:34:26.497Z</time></trkpt><trkpt lat="45.856426" lon="9.0754287"><ele>809.0</ele><time>2026-04-04T14:34:27.497Z</time></trkpt><trkpt lat="45.8565183" lon="9.0754013"><ele>809.0000000000001</ele><time>2026-04-04T14:34:28.497Z</time></trkpt><trkpt lat="45.8566061" lon="9.0753559"><ele>809.0</ele><time>2026-04-04T14:34:29.497Z</time></trkpt><trkpt lat="45.8566845" lon="9.0752821"><ele>809.0</ele><time>2026-04-04T14:34:30.496Z</time></trkpt><trkpt lat="45.8567655" lon="9.07521"><ele>809.0</ele><time>2026-04-04T14:34:31.497Z</time></trkpt><trkpt lat="45.8568252" lon="9.0751554"><ele>809.0000000000001</ele><time>2026-04-04T14:34:32.497Z</time></trkpt><trkpt lat="45.8569167" lon="9.0751635"><ele>809.0</ele><time>2026-04-04T14:34:34.497Z</time></trkpt><trkpt lat="45.8569052" lon="9.0752782"><ele>809.0</ele><time>2026-04-04T14:34:36.497Z</time></trkpt><trkpt lat="45.8568572" lon="9.0753379"><ele>809.0</ele><time>2026-04-04T14:34:37.497Z</time></trkpt><trkpt lat="45.8567919" lon="9.0754048"><ele>809.0</ele><time>2026-04-04T14:34:38.496Z</time></trkpt><trkpt lat="45.8567318" lon="9.0754766"><ele>809.0</ele><time>2026-04-04T14:34:39.497Z</time></trkpt><trkpt lat="45.8566864" lon="9.0755442"><ele>809.0</ele><time>2026-04-04T14:34:40.496Z</time></trkpt><trkpt lat="45.8566642" lon="9.0756577"><ele>809.0</ele><time>2026-04-04T14:34:42.496Z</time></trkpt><trkpt lat="45.8567326" lon="9.075687"><ele>809.0</ele><time>2026-04-04T14:34:43.497Z</time></trkpt><trkpt lat="45.8568397" lon="9.075602"><ele>813.2</ele><time>2026-04-04T14:34:45.497Z</time></trkpt><trkpt lat="45.8569106" lon="9.0755375"><ele>817.4000000000001</ele><time>2026-04-04T14:34:46.497Z</time></trkpt><trkpt lat="45.8569889" lon="9.0754628"><ele>821.6</ele><time>2026-04-04T14:34:47.497Z</time></trkpt><trkpt lat="45.8570729" lon="9.0753717"><ele>825.8</ele><time>2026-04-04T14:34:48.497Z</time></trkpt><trkpt lat="45.8571468" lon="9.0752824"><ele>830.0</ele><time>2026-04-04T14:34:49.497Z</time></trkpt><trkpt lat="45.8572161" lon="9.0752157"><ele>830.0</ele><time>2026-04-04T14:34:50.497Z</time></trkpt><trkpt lat="45.8573022" lon="9.0751679"><ele>830.0</ele><time>2026-04-04T14:34:51.497Z</time></trkpt><trkpt lat="45.8574008" lon="9.0751269"><ele>830.0</ele><time>2026-04-04T14:34:52.497Z</time></trkpt><trkpt lat="45.85751" lon="9.0750911"><ele>830.0</ele><time>2026-04-04T14:34:53.497Z</time></trkpt><trkpt lat="45.8576159" lon="9.0750603"><ele>830.0</ele><time>2026-04-04T14:34:54.496Z</time></trkpt><trkpt lat="45.8577258" lon="9.075034"><ele>836.1666666666667</ele><time>2026-04-04T14:34:55.497Z</time></trkpt><trkpt lat="45.8578166" lon="9.075012"><ele>842.3333333333334</ele><time>2026-04-04T14:34:56.497Z</time></trkpt><trkpt lat="45.8578898" lon="9.0749738"><ele>848.5</ele><time>2026-04-04T14:34:57.497Z</time></trkpt><trkpt lat="45.8579444" lon="9.0749063"><ele>854.6666666666667</ele><time>2026-04-04T14:34:58.497Z</time></trkpt><trkpt lat="45.8579847" lon="9.0748123"><ele>860.8333333333334</ele><time>2026-04-04T14:34:59.496Z</time></trkpt><trkpt lat="45.8580143" lon="9.0747015"><ele>867.0</ele><time>2026-04-04T14:35:00.497Z</time></trkpt><trkpt lat="45.8580382" lon="9.0745854"><ele>867.0</ele><time>2026-04-04T14:35:01.497Z</time></trkpt><trkpt lat="45.8580566" lon="9.0744673"><ele>867.0</ele><time>2026-04-04T14:35:02.496Z</time></trkpt><trkpt lat="45.8580802" lon="9.0743485"><ele>867.0</ele><time>2026-04-04T14:35:03.496Z</time></trkpt><trkpt lat="45.858094" lon="9.0742221"><ele>867.0</ele><time>2026-04-04T14:35:04.497Z</time></trkpt><trkpt lat="45.8580946" lon="9.0740869"><ele>867.0</ele><time>2026-04-04T14:35:05.497Z</time></trkpt><trkpt lat="45.8580902" lon="9.0739459"><ele>865.6</ele><time>2026-04-04T14:35:06.497Z</time></trkpt><trkpt lat="45.8580825" lon="9.073802"><ele>864.2</ele><time>2026-04-04T14:35:07.497Z</time></trkpt><trkpt lat="45.8580774" lon="9.0736554"><ele>862.8</ele><time>2026-04-04T14:35:08.497Z</time></trkpt><trkpt lat="45.8580712" lon="9.0735082"><ele>861.4</ele><time>2026-04-04T14:35:09.497Z</time></trkpt><trkpt lat="45.8580668" lon="9.0733651"><ele>860.0</ele><time>2026-04-04T14:35:10.497Z</time></trkpt><trkpt lat="45.858061" lon="9.0732291"><ele>855.0</ele><time>2026-04-04T14:35:11.497Z</time></trkpt><trkpt lat="45.858054" lon="9.0731063"><ele>850.0</ele><time>2026-04-04T14:35:12.497Z</time></trkpt><trkpt lat="45.8580493" lon="9.073003"><ele>845.0</ele><time>2026-04-04T14:35:13.497Z</time></trkpt><trkpt lat="45.8580842" lon="9.0728491"><ele>840.0</ele><time>2026-04-04T14:35:15.497Z</time></trkpt><trkpt lat="45.8581417" lon="9.0727838"><ele>835.0</ele><time>2026-04-04T14:35:17.497Z</time></trkpt><trkpt lat="45.8582441" lon="9.0727395"><ele>834.9999999999999</ele><time>2026-04-04T14:35:19.497Z</time></trkpt><trkpt lat="45.8583173" lon="9.0727452"><ele>835.0</ele><time>2026-04-04T14:35:20.497Z</time></trkpt><trkpt lat="45.8584028" lon="9.072762"><ele>835.0</ele><time>2026-04-04T14:35:21.497Z</time></trkpt><trkpt lat="45.8584861" lon="9.0727825"><ele>835.0</ele><time>2026-04-04T14:35:22.497Z</time></trkpt><trkpt lat="45.8585827" lon="9.0728134"><ele>834.9999999999999</ele><time>2026-04-04T14:35:23.497Z</time></trkpt><trkpt lat="45.8586859" lon="9.0728434"><ele>835.0</ele><time>2026-04-04T14:35:24.497Z</time></trkpt><trkpt lat="45.8587894" lon="9.0728717"><ele>835.2</ele><time>2026-04-04T14:35:25.496Z</time></trkpt><trkpt lat="45.858889" lon="9.0729023"><ele>835.4</ele><time>2026-04-04T14:35:26.497Z</time></trkpt><trkpt lat="45.8589842" lon="9.0729339"><ele>835.5999999999999</ele><time>2026-04-04T14:35:27.497Z</time></trkpt><trkpt lat="45.8590778" lon="9.0729599"><ele>835.8</ele><time>2026-04-04T14:35:28.497Z</time></trkpt><trkpt lat="45.8591691" lon="9.0729861"><ele>836.0</ele><time>2026-04-04T14:35:29.496Z</time></trkpt><trkpt lat="45.8592564" lon="9.0730106"><ele>836.1666666666667</ele><time>2026-04-04T14:35:30.497Z</time></trkpt><trkpt lat="45.8593403" lon="9.0730376"><ele>836.3333333333334</ele><time>2026-04-04T14:35:31.497Z</time></trkpt><trkpt lat="45.8594205" lon="9.0730671"><ele>836.5</ele><time>2026-04-04T14:35:32.497Z</time></trkpt><trkpt lat="45.859499" lon="9.0730931"><ele>836.6666666666667</ele><time>2026-04-04T14:35:33.497Z</time></trkpt><trkpt lat="45.8595759" lon="9.0731121"><ele>836.8333333333334</ele><time>2026-04-04T14:35:34.497Z</time></trkpt><trkpt lat="45.8596528" lon="9.0731227"><ele>837.0</ele><time>2026-04-04T14:35:35.497Z</time></trkpt><trkpt lat="45.8597304" lon="9.0731315"><ele>837.0</ele><time>2026-04-04T14:35:36.496Z</time></trkpt><trkpt lat="45.8598055" lon="9.073135"><ele>837.0</ele><time>2026-04-04T14:35:37.496Z</time></trkpt><trkpt lat="45.8598731" lon="9.0731344"><ele>837.0</ele><time>2026-04-04T14:35:38.497Z</time></trkpt><trkpt lat="45.8599621" lon="9.073162"><ele>837.0</ele><time>2026-04-04T14:35:40.496Z</time></trkpt><trkpt lat="45.8599132" lon="9.073246"><ele>837.0</ele><time>2026-04-04T14:35:43.497Z</time></trkpt><trkpt lat="45.8597741" lon="9.0732299"><ele>837.0</ele><time>2026-04-04T14:35:45.497Z</time></trkpt><trkpt lat="45.8596919" lon="9.0732345"><ele>837.0</ele><time>2026-04-04T14:35:46.497Z</time></trkpt><trkpt lat="45.8595988" lon="9.0732425"><ele>837.0</ele><time>2026-04-04T14:35:47.497Z</time></trkpt><trkpt lat="45.8594931" lon="9.0732551"><ele>837.0</ele><time>2026-04-04T14:35:48.497Z</time></trkpt><trkpt lat="45.8593846" lon="9.0732702"><ele>837.0</ele><time>2026-04-04T14:35:49.497Z</time></trkpt><trkpt lat="45.8592858" lon="9.0732869"><ele>843.6666666666666</ele><time>2026-04-04T14:35:50.497Z</time></trkpt><trkpt lat="45.8591966" lon="9.0733"><ele>850.3333333333333</ele><time>2026-04-04T14:35:51.497Z</time></trkpt><trkpt lat="45.8591053" lon="9.0733158"><ele>857.0</ele><time>2026-04-04T14:35:52.496Z</time></trkpt><trkpt lat="45.8590169" lon="9.0733341"><ele>863.6666666666666</ele><time>2026-04-04T14:35:53.497Z</time></trkpt><trkpt lat="45.8589319" lon="9.0733545"><ele>870.3333333333333</ele><time>2026-04-04T14:35:54.497Z</time></trkpt><trkpt lat="45.85885" lon="9.0733832"><ele>877.0</ele><time>2026-04-04T14:35:55.497Z</time></trkpt><trkpt lat="45.8587753" lon="9.0734197"><ele>876.9999999999999</ele><time>2026-04-04T14:35:56.497Z</time></trkpt><trkpt lat="45.85872" lon="9.073469"><ele>877.0</ele><time>2026-04-04T14:35:57.496Z</time></trkpt><trkpt lat="45.8586883" lon="9.0735778"><ele>877.0</ele><time>2026-04-04T14:35:59.497Z</time></trkpt><trkpt lat="45.8587565" lon="9.0736123"><ele>877.0</ele><time>2026-04-04T14:36:01.496Z</time></trkpt><trkpt lat="45.8588715" lon="9.073535"><ele>876.9999999999999</ele><time>2026-04-04T14:36:03.496Z</time></trkpt><trkpt lat="45.8589552" lon="9.0735083"><ele>877.0</ele><time>2026-04-04T14:36:04.497Z</time></trkpt><trkpt lat="45.8590403" lon="9.0734969"><ele>877.0</ele><time>2026-04-04T14:36:05.497Z</time></trkpt><trkpt lat="45.8591415" lon="9.0735012"><ele>877.0</ele><time>2026-04-04T14:36:06.497Z</time></trkpt><trkpt lat="45.8592566" lon="9.0735136"><ele>877.0</ele><time>2026-04-04T14:36:07.497Z</time></trkpt><trkpt lat="45.859368" lon="9.0735311"><ele>877.0</ele><time>2026-04-04T14:36:08.497Z</time></trkpt><trkpt lat="45.8594797" lon="9.0735493"><ele>877.0</ele><time>2026-04-04T14:36:09.497Z</time></trkpt><trkpt lat="45.8595946" lon="9.0735672"><ele>877.5</ele><time>2026-04-04T14:36:10.497Z</time></trkpt><trkpt lat="45.8597111" lon="9.0735895"><ele>878.0</ele><time>2026-04-04T14:36:11.496Z</time></trkpt><trkpt lat="45.8598282" lon="9.0736132"><ele>878.5</ele><time>2026-04-04T14:36:12.497Z</time></trkpt><trkpt lat="45.8599471" lon="9.0736311"><ele>879.0</ele><time>2026-04-04T14:36:13.496Z</time></trkpt><trkpt lat="45.8600651" lon="9.0736525"><ele>879.25</ele><time>2026-04-04T14:36:14.497Z</time></trkpt><trkpt lat="45.8601858" lon="9.0736742"><ele>879.5</ele><time>2026-04-04T14:36:15.497Z</time></trkpt><trkpt lat="45.860311" lon="9.0736961"><ele>879.75</ele><time>2026-04-04T14:36:16.497Z</time></trkpt><trkpt lat="45.8604404" lon="9.0737148"><ele>880.0</ele><time>2026-04-04T14:36:17.497Z</time></trkpt><trkpt lat="45.8605735" lon="9.0737306"><ele>880.0</ele><time>2026-04-04T14:36:18.497Z</time></trkpt><trkpt lat="45.8607042" lon="9.0737409"><ele>880.0</ele><time>2026-04-04T14:36:19.497Z</time></trkpt><trkpt lat="45.8608331" lon="9.0737463"><ele>880.0</ele><time>2026-04-04T14:36:20.497Z</time></trkpt><trkpt lat="45.8609526" lon="9.073746"><ele>880.0</ele><time>2026-04-04T14:36:21.497Z</time></trkpt><trkpt lat="45.86107" lon="9.0737436"><ele>880.5</ele><time>2026-04-04T14:36:22.497Z</time></trkpt><trkpt lat="45.8611852" lon="9.0737482"><ele>881.0</ele><time>2026-04-04T14:36:23.497Z</time></trkpt><trkpt lat="45.8613" lon="9.0737648"><ele>881.5</ele><time>2026-04-04T14:36:24.496Z</time></trkpt><trkpt lat="45.8614134" lon="9.0737841"><ele>882.0</ele><time>2026-04-04T14:36:25.496Z</time></trkpt><trkpt lat="45.8615225" lon="9.0738085"><ele>882.0</ele><time>2026-04-04T14:36:26.497Z</time></trkpt><trkpt lat="45.8616149" lon="9.0738305"><ele>882.0</ele><time>2026-04-04T14:36:27.497Z</time></trkpt><trkpt lat="45.8616958" lon="9.0738473"><ele>882.0</ele><time>2026-04-04T14:36:28.497Z</time></trkpt><trkpt lat="45.8617592" lon="9.0738589"><ele>882.0</ele><time>2026-04-04T14:36:29.496Z</time></trkpt><trkpt lat="45.8618133" lon="9.0739431"><ele>882.0</ele><time>2026-04-04T14:36:31.497Z</time></trkpt><trkpt lat="45.8617013" lon="9.0739695"><ele>882.0</ele><time>2026-04-04T14:36:34.497Z</time></trkpt><trkpt lat="45.8616195" lon="9.0739582"><ele>882.0</ele><time>2026-04-04T14:36:35.497Z</time></trkpt><trkpt lat="45.8615439" lon="9.0739573"><ele>882.0</ele><time>2026-04-04T14:36:36.496Z</time></trkpt><trkpt lat="45.8614566" lon="9.0739568"><ele>882.0</ele><time>2026-04-04T14:36:37.497Z</time></trkpt><trkpt lat="45.8613686" lon="9.0739598"><ele>882.0</ele><time>2026-04-04T14:36:38.497Z</time></trkpt><trkpt lat="45.8612705" lon="9.0739724"><ele>882.0</ele><time>2026-04-04T14:36:39.497Z</time></trkpt><trkpt lat="45.8611692" lon="9.0739994"><ele>882.0</ele><time>2026-04-04T14:36:40.497Z</time></trkpt><trkpt lat="45.8610623" lon="9.0740347"><ele>882.0</ele><time>2026-04-04T14:36:41.497Z</time></trkpt><trkpt lat="45.8609514" lon="9.0740713"><ele>882.0</ele><time>2026-04-04T14:36:42.497Z</time></trkpt><trkpt lat="45.8608371" lon="9.0741105"><ele>882.0</ele><time>2026-04-04T14:36:43.497Z</time></trkpt><trkpt lat="45.8607202" lon="9.0741448"><ele>891.0</ele><time>2026-04-04T14:36:44.496Z</time></trkpt><trkpt lat="45.8606049" lon="9.0741728"><ele>900.0</ele><time>2026-04-04T14:36:45.497Z</time></trkpt><trkpt lat="45.8604844" lon="9.074197"><ele>909.0</ele><time>2026-04-04T14:36:46.496Z</time></trkpt><trkpt lat="45.860361" lon="9.0742119"><ele>918.0</ele><time>2026-04-04T14:36:47.497Z</time></trkpt><trkpt lat="45.8602396" lon="9.0742318"><ele>918.0</ele><time>2026-04-04T14:36:48.496Z</time></trkpt><trkpt lat="45.8601204" lon="9.074252"><ele>918.0</ele><time>2026-04-04T14:36:49.497Z</time></trkpt><trkpt lat="45.8600052" lon="9.0742784"><ele>918.0</ele><time>2026-04-04T14:36:50.496Z</time></trkpt><trkpt lat="45.8598927" lon="9.0743058"><ele>918.0</ele><time>2026-04-04T14:36:51.497Z</time></trkpt><trkpt lat="45.8597836" lon="9.0743497"><ele>918.5999999999999</ele><time>2026-04-04T14:36:52.497Z</time></trkpt><trkpt lat="45.8596762" lon="9.0743863"><ele>919.1999999999999</ele><time>2026-04-04T14:36:53.497Z</time></trkpt><trkpt lat="45.859587" lon="9.0744299"><ele>919.8</ele><time>2026-04-04T14:36:54.497Z</time></trkpt><trkpt lat="45.8595028" lon="9.0744741"><ele>920.4</ele><time>2026-04-04T14:36:55.497Z</time></trkpt><trkpt lat="45.8594368" lon="9.0745336"><ele>921.0</ele><time>2026-04-04T14:36:56.496Z</time></trkpt><trkpt lat="45.8593753" lon="9.0746057"><ele>921.0</ele><time>2026-04-04T14:36:57.496Z</time></trkpt><trkpt lat="45.8593303" lon="9.0746813"><ele>921.0</ele><time>2026-04-04T14:36:58.497Z</time></trkpt><trkpt lat="45.8592935" lon="9.0748038"><ele>921.0</ele><time>2026-04-04T14:37:00.497Z</time></trkpt><trkpt lat="45.8593529" lon="9.0748464"><ele>921.0</ele><time>2026-04-04T14:37:02.497Z</time></trkpt><trkpt lat="45.8594224" lon="9.074736"><ele>921.0</ele><time>2026-04-04T14:37:04.497Z</time></trkpt><trkpt lat="45.8594704" lon="9.0746629"><ele>921.0</ele><time>2026-04-04T14:37:05.497Z</time></trkpt><trkpt lat="45.8595291" lon="9.0746206"><ele>921.0</ele><time>2026-04-04T14:37:06.497Z</time></trkpt><trkpt lat="45.8596043" lon="9.0745912"><ele>920.9999999999999</ele><time>2026-04-04T14:37:07.497Z</time></trkpt><trkpt lat="45.8596921" lon="9.0745791"><ele>920.9999999999999</ele><time>2026-04-04T14:37:08.497Z</time></trkpt><trkpt lat="45.8597838" lon="9.0745792"><ele>921.0</ele><time>2026-04-04T14:37:09.497Z</time></trkpt><trkpt lat="45.8598796" lon="9.0745921"><ele>921.0</ele><time>2026-04-04T14:37:10.497Z</time></trkpt><trkpt lat="45.8599815" lon="9.0746095"><ele>921.0</ele><time>2026-04-04T14:37:11.497Z</time></trkpt><trkpt lat="45.8600922" lon="9.0746251"><ele>920.9999999999999</ele><time>2026-04-04T14:37:12.497Z</time></trkpt><trkpt lat="45.8602017" lon="9.0746405"><ele>920.9999999999999</ele><time>2026-04-04T14:37:13.497Z</time></trkpt><trkpt lat="45.8603124" lon="9.0746632"><ele>921.0</ele><time>2026-04-04T14:37:14.497Z</time></trkpt><trkpt lat="45.8604268" lon="9.0746825"><ele>921.0</ele><time>2026-04-04T14:37:15.497Z</time></trkpt><trkpt lat="45.8605451" lon="9.0747093"><ele>920.25</ele><time>2026-04-04T14:37:16.496Z</time></trkpt><trkpt lat="45.8606676" lon="9.0747315"><ele>919.5</ele><time>2026-04-04T14:37:17.496Z</time></trkpt><trkpt lat="45.8607873" lon="9.0747488"><ele>918.75</ele><time>2026-04-04T14:37:18.496Z</time></trkpt><trkpt lat="45.8609078" lon="9.0747693"><ele>918.0</ele><time>2026-04-04T14:37:19.497Z</time></trkpt><trkpt lat="45.8610308" lon="9.0747926"><ele>917.5999999999999</ele><time>2026-04-04T14:37:20.496Z</time></trkpt><trkpt lat="45.8611524" lon="9.0748174"><ele>917.1999999999999</ele><time>2026-04-04T14:37:21.496Z</time></trkpt><trkpt lat="45.8612673" lon="9.0748317"><ele>916.8</ele><time>2026-04-04T14:37:22.496Z</time></trkpt><trkpt lat="45.8613739" lon="9.0748487"><ele>916.4</ele><time>2026-04-04T14:37:23.497Z</time></trkpt><trkpt lat="45.861464" lon="9.0748629"><ele>916.0</ele><time>2026-04-04T14:37:24.497Z</time></trkpt><trkpt lat="45.8615328" lon="9.074871"><ele>923.1999999999999</ele><time>2026-04-04T14:37:25.497Z</time></trkpt><trkpt lat="45.861605" lon="9.0749443"><ele>930.3999999999999</ele><time>2026-04-04T14:37:27.497Z</time></trkpt><trkpt lat="45.8615161" lon="9.0750026"><ele>937.6</ele><time>2026-04-04T14:37:30.496Z</time></trkpt><trkpt lat="45.8613857" lon="9.0749896"><ele>944.8</ele><time>2026-04-04T14:37:32.497Z</time></trkpt><trkpt lat="45.8613042" lon="9.07501"><ele>952.0</ele><time>2026-04-04T14:37:33.497Z</time></trkpt><trkpt lat="45.8612215" lon="9.0750427"><ele>952.0</ele><time>2026-04-04T14:37:34.497Z</time></trkpt><trkpt lat="45.8611353" lon="9.0750889"><ele>952.0</ele><time>2026-04-04T14:37:35.497Z</time></trkpt><trkpt lat="45.8610532" lon="9.0751474"><ele>952.0</ele><time>2026-04-04T14:37:36.497Z</time></trkpt><trkpt lat="45.8609709" lon="9.0752005"><ele>952.0</ele><time>2026-04-04T14:37:37.497Z</time></trkpt><trkpt lat="45.8608783" lon="9.0752245"><ele>952.0</ele><time>2026-04-04T14:37:38.496Z</time></trkpt><trkpt lat="45.8607781" lon="9.0752317"><ele>952.0</ele><time>2026-04-04T14:37:39.496Z</time></trkpt><trkpt lat="45.860681" lon="9.0752409"><ele>952.0</ele><time>2026-04-04T14:37:40.497Z</time></trkpt><trkpt lat="45.8605769" lon="9.0752505"><ele>952.0</ele><time>2026-04-04T14:37:41.497Z</time></trkpt><trkpt lat="45.8604757" lon="9.0752616"><ele>952.0</ele><time>2026-04-04T14:37:42.497Z</time></trkpt><trkpt lat="45.8603737" lon="9.0752747"><ele>952.0</ele><time>2026-04-04T14:37:43.497Z</time></trkpt><trkpt lat="45.8602806" lon="9.0752862"><ele>951.9999999999999</ele><time>2026-04-04T14:37:44.497Z</time></trkpt><trkpt lat="45.8602013" lon="9.0753144"><ele>952.0</ele><time>2026-04-04T14:37:45.497Z</time></trkpt><trkpt lat="45.8601239" lon="9.0753526"><ele>952.0</ele><time>2026-04-04T14:37:46.497Z</time></trkpt><trkpt lat="45.8600537" lon="9.0754011"><ele>952.0</ele><time>2026-04-04T14:37:47.497Z</time></trkpt><trkpt lat="45.859991" lon="9.0754721"><ele>951.9999999999999</ele><time>2026-04-04T14:37:48.497Z</time></trkpt><trkpt lat="45.8599314" lon="9.0755624"><ele>952.0</ele><time>2026-04-04T14:37:49.497Z</time></trkpt><trkpt lat="45.859879" lon="9.0756686"><ele>956.75</ele><time>2026-04-04T14:37:50.497Z</time></trkpt><trkpt lat="45.8598305" lon="9.0757986"><ele>961.5</ele><time>2026-04-04T14:37:51.497Z</time></trkpt><trkpt lat="45.859783" lon="9.0759441"><ele>966.25</ele><time>2026-04-04T14:37:52.497Z</time></trkpt><trkpt lat="45.8597333" lon="9.0760977"><ele>971.0</ele><time>2026-04-04T14:37:53.497Z</time></trkpt><trkpt lat="45.8596828" lon="9.0762619"><ele>971.0</ele><time>2026-04-04T14:37:54.497Z</time></trkpt><trkpt lat="45.8596316" lon="9.0764236"><ele>971.0</ele><time>2026-04-04T14:37:55.497Z</time></trkpt><trkpt lat="45.8595744" lon="9.0765954"><ele>971.0</ele><time>2026-04-04T14:37:56.497Z</time></trkpt><trkpt lat="45.8595154" lon="9.0767665"><ele>971.0</ele><time>2026-04-04T14:37:57.497Z</time></trkpt><trkpt lat="45.8594621" lon="9.0769179"><ele>974.0000000000001</ele><time>2026-04-04T14:37:58.496Z</time></trkpt><trkpt lat="45.859414" lon="9.0770484"><ele>977.0</ele><time>2026-04-04T14:37:59.497Z</time></trkpt><trkpt lat="45.8593717" lon="9.0771646"><ele>980.0</ele><time>2026-04-04T14:38:00.497Z</time></trkpt><trkpt lat="45.8593473" lon="9.0772818"><ele>983.0</ele><time>2026-04-04T14:38:01.497Z</time></trkpt><trkpt lat="45.8593389" lon="9.0774006"><ele>986.0000000000001</ele><time>2026-04-04T14:38:02.497Z</time></trkpt><trkpt lat="45.8593426" lon="9.0775137"><ele>989.0</ele><time>2026-04-04T14:38:03.497Z</time></trkpt><trkpt lat="45.8593592" lon="9.0776259"><ele>989.0000000000001</ele><time>2026-04-04T14:38:04.496Z</time></trkpt><trkpt lat="45.8593822" lon="9.0777158"><ele>989.0</ele><time>2026-04-04T14:38:05.497Z</time></trkpt><trkpt lat="45.8594611" lon="9.0778223"><ele>989.0</ele><time>2026-04-04T14:38:07.497Z</time></trkpt><trkpt lat="45.8595156" lon="9.0777493"><ele>989.0</ele><time>2026-04-04T14:38:09.497Z</time></trkpt><trkpt lat="45.8594742" lon="9.0775994"><ele>989.0000000000001</ele><time>2026-04-04T14:38:11.497Z</time></trkpt><trkpt lat="45.8594584" lon="9.0775"><ele>989.0</ele><time>2026-04-04T14:38:12.497Z</time></trkpt><trkpt lat="45.859467" lon="9.0773989"><ele>989.0000000000001</ele><time>2026-04-04T14:38:13.496Z</time></trkpt><trkpt lat="45.8594897" lon="9.077308"><ele>989.0</ele><time>2026-04-04T14:38:14.497Z</time></trkpt><trkpt lat="45.8595324" lon="9.0772248"><ele>989.0</ele><time>2026-04-04T14:38:15.497Z</time></trkpt><trkpt lat="45.8595937" lon="9.0771448"><ele>989.0</ele><time>2026-04-04T14:38:16.497Z</time></trkpt><trkpt lat="45.8596639" lon="9.0770569"><ele>989.0000000000001</ele><time>2026-04-04T14:38:17.497Z</time></trkpt><trkpt lat="45.8597476" lon="9.0769571"><ele>989.0</ele><time>2026-04-04T14:38:18.497Z</time></trkpt><trkpt lat="45.8598339" lon="9.0768537"><ele>989.0</ele><time>2026-04-04T14:38:19.497Z</time></trkpt><trkpt lat="45.8599154" lon="9.0767534"><ele>989.0000000000001</ele><time>2026-04-04T14:38:20.497Z</time></trkpt><trkpt lat="45.8599935" lon="9.0766664"><ele>989.0000000000001</ele><time>2026-04-04T14:38:21.497Z</time></trkpt><trkpt lat="45.8600717" lon="9.0765966"><ele>989.0</ele><time>2026-04-04T14:38:22.497Z</time></trkpt><trkpt lat="45.8601469" lon="9.0765381"><ele>989.0</ele><time>2026-04-04T14:38:23.497Z</time></trkpt><trkpt lat="45.860229" lon="9.0765039"><ele>987.1666666666667</ele><time>2026-04-04T14:38:24.497Z</time></trkpt><trkpt lat="45.8603044" lon="9.0764721"><ele>985.3333333333334</ele><time>2026-04-04T14:38:25.497Z</time></trkpt><trkpt lat="45.8603856" lon="9.0764938"><ele>983.5</ele><time>2026-04-04T14:38:26.497Z</time></trkpt><trkpt lat="45.8604744" lon="9.0765106"><ele>981.6666666666667</ele><time>2026-04-04T14:38:27.497Z</time></trkpt><trkpt lat="45.8605621" lon="9.0765377"><ele>979.8333333333334</ele><time>2026-04-04T14:38:28.497Z</time></trkpt><trkpt lat="45.8606586" lon="9.0765663"><ele>978.0</ele><time>2026-04-04T14:38:29.497Z</time></trkpt><trkpt lat="45.8607613" lon="9.0765884"><ele>978.0</ele><time>2026-04-04T14:38:30.497Z</time></trkpt><trkpt lat="45.8608674" lon="9.0766016"><ele>978.0</ele><time>2026-04-04T14:38:31.496Z</time></trkpt><trkpt lat="45.8609711" lon="9.076606"><ele>978.0</ele><time>2026-04-04T14:38:32.497Z</time></trkpt><trkpt lat="45.8610818" lon="9.0766075"><ele>978.0</ele><time>2026-04-04T14:38:33.497Z</time></trkpt><trkpt lat="45.8611972" lon="9.0766047"><ele>978.0</ele><time>2026-04-04T14:38:34.497Z</time></trkpt><trkpt lat="45.8613162" lon="9.0766069"><ele>979.25</ele><time>2026-04-04T14:38:35.496Z</time></trkpt><trkpt lat="45.8614372" lon="9.0766046"><ele>980.5</ele><time>2026-04-04T14:38:36.497Z</time></trkpt><trkpt lat="45.8615607" lon="9.0766016"><ele>981.75</ele><time>2026-04-04T14:38:37.497Z</time></trkpt><trkpt lat="45.8616857" lon="9.0765956"><ele>983.0</ele><time>2026-04-04T14:38:38.496Z</time></trkpt><trkpt lat="45.8618133" lon="9.0765928"><ele>983.5</ele><time>2026-04-04T14:38:39.497Z</time></trkpt><trkpt lat="45.8619378" lon="9.0765919"><ele>984.0</ele><time>2026-04-04T14:38:40.497Z</time></trkpt><trkpt lat="45.8620584" lon="9.0765939"><ele>984.5</ele><time>2026-04-04T14:38:41.497Z</time></trkpt><trkpt lat="45.8621755" lon="9.0765992"><ele>985.0</ele><time>2026-04-04T14:38:42.497Z</time></trkpt><trkpt lat="45.8622901" lon="9.0766121"><ele>990.6</ele><time>2026-04-04T14:38:43.497Z</time></trkpt><trkpt lat="45.8624019" lon="9.0766274"><ele>996.2</ele><time>2026-04-04T14:38:44.496Z</time></trkpt><trkpt lat="45.8625127" lon="9.0766497"><ele>1001.8</ele><time>2026-04-04T14:38:45.497Z</time></trkpt><trkpt lat="45.8626223" lon="9.0766847"><ele>1007.4</ele><time>2026-04-04T14:38:46.496Z</time></trkpt><trkpt lat="45.8627289" lon="9.076733"><ele>1013.0</ele><time>2026-04-04T14:38:47.497Z</time></trkpt><trkpt lat="45.8628357" lon="9.0767896"><ele>1013.5</ele><time>2026-04-04T14:38:48.497Z</time></trkpt><trkpt lat="45.8629451" lon="9.076859"><ele>1014.0</ele><time>2026-04-04T14:38:49.497Z</time></trkpt><trkpt lat="45.863058" lon="9.0769192"><ele>1014.5</ele><time>2026-04-04T14:38:50.497Z</time></trkpt><trkpt lat="45.8631807" lon="9.076958"><ele>1015.0</ele><time>2026-04-04T14:38:51.497Z</time></trkpt><trkpt lat="45.8633078" lon="9.0770036"><ele>1015.0</ele><time>2026-04-04T14:38:52.497Z</time></trkpt><trkpt lat="45.8634362" lon="9.0770312"><ele>1015.0</ele><time>2026-04-04T14:38:53.496Z</time></trkpt><trkpt lat="45.8635652" lon="9.0770524"><ele>1015.0</ele><time>2026-04-04T14:38:54.497Z</time></trkpt><trkpt lat="45.8636955" lon="9.0770741"><ele>1015.0</ele><time>2026-04-04T14:38:55.497Z</time></trkpt><trkpt lat="45.863827" lon="9.0770926"><ele>1015.5</ele><time>2026-04-04T14:38:56.497Z</time></trkpt><trkpt lat="45.863957" lon="9.0771021"><ele>1016.0</ele><time>2026-04-04T14:38:57.497Z</time></trkpt><trkpt lat="45.8640887" lon="9.0771019"><ele>1016.5</ele><time>2026-04-04T14:38:58.496Z</time></trkpt><trkpt lat="45.8642232" lon="9.0770936"><ele>1017.0</ele><time>2026-04-04T14:38:59.497Z</time></trkpt><trkpt lat="45.8643598" lon="9.0770813"><ele>1017.75</ele><time>2026-04-04T14:39:00.496Z</time></trkpt><trkpt lat="45.8644875" lon="9.0770601"><ele>1018.5</ele><time>2026-04-04T14:39:01.497Z</time></trkpt><trkpt lat="45.8646094" lon="9.0770325"><ele>1019.25</ele><time>2026-04-04T14:39:02.497Z</time></trkpt><trkpt lat="45.8647228" lon="9.0770076"><ele>1020.0</ele><time>2026-04-04T14:39:03.497Z</time></trkpt><trkpt lat="45.8648288" lon="9.0769879"><ele>1020.0</ele><time>2026-04-04T14:39:04.497Z</time></trkpt><trkpt lat="45.8649285" lon="9.0769721"><ele>1020.0</ele><time>2026-04-04T14:39:05.497Z</time></trkpt><trkpt lat="45.8650289" lon="9.0769702"><ele>1020.0</ele><time>2026-04-04T14:39:06.497Z</time></trkpt><trkpt lat="45.8651376" lon="9.0769748"><ele>1020.0</ele><time>2026-04-04T14:39:07.497Z</time></trkpt><trkpt lat="45.8652453" lon="9.0769853"><ele>1020.0</ele><time>2026-04-04T14:39:08.497Z</time></trkpt><trkpt lat="45.8653572" lon="9.0769963"><ele>1020.75</ele><time>2026-04-04T14:39:09.497Z</time></trkpt><trkpt lat="45.8654688" lon="9.0770053"><ele>1021.5</ele><time>2026-04-04T14:39:10.497Z</time></trkpt><trkpt lat="45.8655835" lon="9.0770105"><ele>1022.25</ele><time>2026-04-04T14:39:11.497Z</time></trkpt><trkpt lat="45.865702" lon="9.0770098"><ele>1023.0</ele><time>2026-04-04T14:39:12.496Z</time></trkpt><trkpt lat="45.8658259" lon="9.0770053"><ele>1025.0</ele><time>2026-04-04T14:39:13.497Z</time></trkpt><trkpt lat="45.8659615" lon="9.0769918"><ele>1027.0</ele><time>2026-04-04T14:39:14.497Z</time></trkpt><trkpt lat="45.8660931" lon="9.0769747"><ele>1029.0</ele><time>2026-04-04T14:39:15.497Z</time></trkpt><trkpt lat="45.8662159" lon="9.0769591"><ele>1031.0</ele><time>2026-04-04T14:39:16.496Z</time></trkpt><trkpt lat="45.8663274" lon="9.076951"><ele>1031.0</ele><time>2026-04-04T14:39:17.497Z</time></trkpt><trkpt lat="45.8664235" lon="9.0769453"><ele>1031.0</ele><time>2026-04-04T14:39:18.497Z</time></trkpt><trkpt lat="45.8665053" lon="9.076945"><ele>1031.0</ele><time>2026-04-04T14:39:19.497Z</time></trkpt><trkpt lat="45.8665739" lon="9.0769467"><ele>1031.0</ele><time>2026-04-04T14:39:20.497Z</time></trkpt><trkpt lat="45.8667058" lon="9.0769678"><ele>1031.0</ele><time>2026-04-04T14:39:22.497Z</time></trkpt><trkpt lat="45.8667793" lon="9.0769889"><ele>1030.3999999999999</ele><time>2026-04-04T14:39:23.497Z</time></trkpt><trkpt lat="45.8668614" lon="9.0770145"><ele>1029.8</ele><time>2026-04-04T14:39:24.497Z</time></trkpt><trkpt lat="45.8669557" lon="9.0770452"><ele>1029.1999999999998</ele><time>2026-04-04T14:39:25.497Z</time></trkpt><trkpt lat="45.8670563" lon="9.0770857"><ele>1028.6</ele><time>2026-04-04T14:39:26.496Z</time></trkpt><trkpt lat="45.8671601" lon="9.077127"><ele>1028.0</ele><time>2026-04-04T14:39:27.497Z</time></trkpt><trkpt lat="45.867264" lon="9.0771754"><ele>1028.0</ele><time>2026-04-04T14:39:28.497Z</time></trkpt><trkpt lat="45.8673676" lon="9.0772192"><ele>1028.0</ele><time>2026-04-04T14:39:29.497Z</time></trkpt><trkpt lat="45.8674686" lon="9.0772543"><ele>1028.0</ele><time>2026-04-04T14:39:30.496Z</time></trkpt><trkpt lat="45.867572" lon="9.0772846"><ele>1028.0</ele><time>2026-04-04T14:39:31.496Z</time></trkpt><trkpt lat="45.8676759" lon="9.0773145"><ele>1028.0</ele><time>2026-04-04T14:39:32.496Z</time></trkpt><trkpt lat="45.8677838" lon="9.0773368"><ele>1028.6</ele><time>2026-04-04T14:39:33.497Z</time></trkpt><trkpt lat="45.8678933" lon="9.0773637"><ele>1029.1999999999998</ele><time>2026-04-04T14:39:34.497Z</time></trkpt><trkpt lat="45.8680038" lon="9.0773824"><ele>1029.8</ele><time>2026-04-04T14:39:35.497Z</time></trkpt><trkpt lat="45.8681116" lon="9.0773992"><ele>1030.3999999999999</ele><time>2026-04-04T14:39:36.496Z</time></trkpt><trkpt lat="45.868217" lon="9.0774066"><ele>1031.0</ele><time>2026-04-04T14:39:37.496Z</time></trkpt><trkpt lat="45.868323" lon="9.0774173"><ele>1031.0</ele><time>2026-04-04T14:39:38.497Z</time></trkpt><trkpt lat="45.8684151" lon="9.0774202"><ele>1031.0</ele><time>2026-04-04T14:39:39.497Z</time></trkpt><trkpt lat="45.8684974" lon="9.077403"><ele>1031.0</ele><time>2026-04-04T14:39:40.496Z</time></trkpt><trkpt lat="45.8685788" lon="9.0773752"><ele>1031.0</ele><time>2026-04-04T14:39:41.496Z</time></trkpt><trkpt lat="45.8686562" lon="9.0773287"><ele>1031.0</ele><time>2026-04-04T14:39:42.497Z</time></trkpt><trkpt lat="45.8687351" lon="9.0772702"><ele>1031.0</ele><time>2026-04-04T14:39:43.497Z</time></trkpt><trkpt lat="45.8688142" lon="9.0771978"><ele>1035.1666666666667</ele><time>2026-04-04T14:39:44.497Z</time></trkpt><trkpt lat="45.8688916" lon="9.0771185"><ele>1039.3333333333335</ele><time>2026-04-04T14:39:45.497Z</time></trkpt><trkpt lat="45.8689507" lon="9.0770206"><ele>1043.5</ele><time>2026-04-04T14:39:46.497Z</time></trkpt><trkpt lat="45.869019" lon="9.0769263"><ele>1047.6666666666667</ele><time>2026-04-04T14:39:47.497Z</time></trkpt><trkpt lat="45.8690832" lon="9.0768556"><ele>1051.8333333333333</ele><time>2026-04-04T14:39:48.497Z</time></trkpt><trkpt lat="45.8691473" lon="9.0768068"><ele>1056.0</ele><time>2026-04-04T14:39:49.496Z</time></trkpt><trkpt lat="45.8692156" lon="9.0767839"><ele>1058.5</ele><time>2026-04-04T14:39:50.497Z</time></trkpt><trkpt lat="45.8692926" lon="9.0767824"><ele>1061.0</ele><time>2026-04-04T14:39:51.497Z</time></trkpt><trkpt lat="45.8693753" lon="9.076792"><ele>1063.5</ele><time>2026-04-04T14:39:52.497Z</time></trkpt><trkpt lat="45.8694603" lon="9.0768105"><ele>1066.0</ele><time>2026-04-04T14:39:53.496Z</time></trkpt><trkpt lat="45.869548" lon="9.0768254"><ele>1068.5</ele><time>2026-04-04T14:39:54.497Z</time></trkpt><trkpt lat="45.8696365" lon="9.0768355"><ele>1071.0</ele><time>2026-04-04T14:39:55.497Z</time></trkpt><trkpt lat="45.8697269" lon="9.0768395"><ele>1071.0</ele><time>2026-04-04T14:39:56.496Z</time></trkpt><trkpt lat="45.8698237" lon="9.0768467"><ele>1071.0</ele><time>2026-04-04T14:39:57.497Z</time></trkpt><trkpt lat="45.8699227" lon="9.0768495"><ele>1071.0</ele><time>2026-04-04T14:39:58.496Z</time></trkpt><trkpt lat="45.8700278" lon="9.0768434"><ele>1071.0</ele><time>2026-04-04T14:39:59.497Z</time></trkpt><trkpt lat="45.8701301" lon="9.0768363"><ele>1071.0</ele><time>2026-04-04T14:40:00.497Z</time></trkpt><trkpt lat="45.8702278" lon="9.076811"><ele>1069.2</ele><time>2026-04-04T14:40:01.497Z</time></trkpt><trkpt lat="45.870324" lon="9.0767802"><ele>1067.3999999999999</ele><time>2026-04-04T14:40:02.497Z</time></trkpt><trkpt lat="45.8704272" lon="9.0767176"><ele>1065.6</ele><time>2026-04-04T14:40:03.497Z</time></trkpt><trkpt lat="45.8705186" lon="9.0766454"><ele>1063.8</ele><time>2026-04-04T14:40:04.497Z</time></trkpt><trkpt lat="45.8706134" lon="9.0765747"><ele>1062.0</ele><time>2026-04-04T14:40:05.497Z</time></trkpt><trkpt lat="45.8707153" lon="9.0765063"><ele>1062.0</ele><time>2026-04-04T14:40:06.497Z</time></trkpt><trkpt lat="45.8708136" lon="9.0764405"><ele>1062.0</ele><time>2026-04-04T14:40:07.497Z</time></trkpt><trkpt lat="45.8709118" lon="9.0763727"><ele>1062.0</ele><time>2026-04-04T14:40:08.497Z</time></trkpt><trkpt lat="45.8710084" lon="9.0763062"><ele>1062.0</ele><time>2026-04-04T14:40:09.497Z</time></trkpt><trkpt lat="45.8711046" lon="9.0762447"><ele>1062.0</ele><time>2026-04-04T14:40:10.497Z</time></trkpt><trkpt lat="45.871197" lon="9.0761895"><ele>1068.1666666666667</ele><time>2026-04-04T14:40:11.497Z</time></trkpt><trkpt lat="45.8712837" lon="9.0761479"><ele>1074.3333333333333</ele><time>2026-04-04T14:40:12.497Z</time></trkpt><trkpt lat="45.8713577" lon="9.0760966"><ele>1080.5</ele><time>2026-04-04T14:40:13.497Z</time></trkpt><trkpt lat="45.8714142" lon="9.076038"><ele>1086.6666666666665</ele><time>2026-04-04T14:40:14.497Z</time></trkpt><trkpt lat="45.8714623" lon="9.0759536"><ele>1092.8333333333333</ele><time>2026-04-04T14:40:15.497Z</time></trkpt><trkpt lat="45.8714831" lon="9.0758564"><ele>1099.0</ele><time>2026-04-04T14:40:16.497Z</time></trkpt><trkpt lat="45.8715156" lon="9.0757708"><ele>1096.3333333333333</ele><time>2026-04-04T14:40:17.497Z</time></trkpt><trkpt lat="45.871546" lon="9.0756718"><ele>1093.6666666666665</ele><time>2026-04-04T14:40:18.497Z</time></trkpt><trkpt lat="45.8715761" lon="9.0755668"><ele>1091.0</ele><time>2026-04-04T14:40:19.497Z</time></trkpt><trkpt lat="45.871614" lon="9.0754673"><ele>1088.3333333333333</ele><time>2026-04-04T14:40:20.497Z</time></trkpt><trkpt lat="45.8716622" lon="9.0753759"><ele>1085.6666666666667</ele><time>2026-04-04T14:40:21.497Z</time></trkpt><trkpt lat="45.8717179" lon="9.0752842"><ele>1083.0</ele><time>2026-04-04T14:40:22.497Z</time></trkpt><trkpt lat="45.8717778" lon="9.0751954"><ele>1090.8</ele><time>2026-04-04T14:40:23.497Z</time></trkpt><trkpt lat="45.8718461" lon="9.075112"><ele>1098.6</ele><time>2026-04-04T14:40:24.497Z</time></trkpt><trkpt lat="45.8719169" lon="9.075028"><ele>1106.4</ele><time>2026-04-04T14:40:25.497Z</time></trkpt><trkpt lat="45.8719916" lon="9.074947"><ele>1114.2</ele><time>2026-04-04T14:40:26.497Z</time></trkpt><trkpt lat="45.8720639" lon="9.0748649"><ele>1122.0</ele><time>2026-04-04T14:40:27.495Z</time></trkpt><trkpt lat="45.8721365" lon="9.0747811"><ele>1122.0</ele><time>2026-04-04T14:40:28.497Z</time></trkpt><trkpt lat="45.8721946" lon="9.0747065"><ele>1122.0</ele><time>2026-04-04T14:40:29.497Z</time></trkpt><trkpt lat="45.87224" lon="9.0746282"><ele>1122.0</ele><time>2026-04-04T14:40:30.497Z</time></trkpt><trkpt lat="45.8722669" lon="9.0745317"><ele>1122.0</ele><time>2026-04-04T14:40:31.496Z</time></trkpt><trkpt lat="45.8722802" lon="9.0744261"><ele>1122.0</ele><time>2026-04-04T14:40:32.497Z</time></trkpt><trkpt lat="45.872279" lon="9.0742985"><ele>1122.0</ele><time>2026-04-04T14:40:33.497Z</time></trkpt><trkpt lat="45.872286" lon="9.0741662"><ele>1124.0</ele><time>2026-04-04T14:40:34.496Z</time></trkpt><trkpt lat="45.8722962" lon="9.074035"><ele>1126.0</ele><time>2026-04-04T14:40:35.496Z</time></trkpt><trkpt lat="45.8723156" lon="9.073897"><ele>1128.0</ele><time>2026-04-04T14:40:36.497Z</time></trkpt><trkpt lat="45.8723394" lon="9.0737704"><ele>1130.0</ele><time>2026-04-04T14:40:37.496Z</time></trkpt><trkpt lat="45.8723623" lon="9.0736433"><ele>1132.0</ele><time>2026-04-04T14:40:38.497Z</time></trkpt><trkpt lat="45.8724025" lon="9.0735162"><ele>1132.0</ele><time>2026-04-04T14:40:39.497Z</time></trkpt><trkpt lat="45.872439" lon="9.073395"><ele>1132.0</ele><time>2026-04-04T14:40:40.496Z</time></trkpt><trkpt lat="45.8724866" lon="9.0732866"><ele>1132.0</ele><time>2026-04-04T14:40:41.497Z</time></trkpt><trkpt lat="45.872525" lon="9.0731697"><ele>1132.0</ele><time>2026-04-04T14:40:42.497Z</time></trkpt><trkpt lat="45.8725564" lon="9.0730672"><ele>1132.0</ele><time>2026-04-04T14:40:43.497Z</time></trkpt><trkpt lat="45.8725706" lon="9.072954"><ele>1132.0</ele><time>2026-04-04T14:40:44.497Z</time></trkpt><trkpt lat="45.8725841" lon="9.0728492"><ele>1134.3333333333333</ele><time>2026-04-04T14:40:45.497Z</time></trkpt><trkpt lat="45.8725782" lon="9.0727452"><ele>1136.6666666666665</ele><time>2026-04-04T14:40:46.497Z</time></trkpt><trkpt lat="45.8725034" lon="9.0726708"><ele>1139.0</ele><time>2026-04-04T14:40:47.497Z</time></trkpt><trkpt lat="45.8724454" lon="9.0726127"><ele>1141.3333333333333</ele><time>2026-04-04T14:40:48.497Z</time></trkpt><trkpt lat="45.8723779" lon="9.0725526"><ele>1143.6666666666667</ele><time>2026-04-04T14:40:49.497Z</time></trkpt><trkpt lat="45.8723088" lon="9.0724841"><ele>1146.0</ele><time>2026-04-04T14:40:50.497Z</time></trkpt><trkpt lat="45.8722396" lon="9.0724028"><ele>1149.1666666666667</ele><time>2026-04-04T14:40:51.497Z</time></trkpt><trkpt lat="45.8721702" lon="9.07232"><ele>1152.3333333333333</ele><time>2026-04-04T14:40:52.496Z</time></trkpt><trkpt lat="45.8720939" lon="9.0722487"><ele>1155.5</ele><time>2026-04-04T14:40:53.497Z</time></trkpt><trkpt lat="45.872026" lon="9.0721682"><ele>1158.6666666666665</ele><time>2026-04-04T14:40:54.496Z</time></trkpt><trkpt lat="45.8719629" lon="9.0720861"><ele>1161.8333333333333</ele><time>2026-04-04T14:40:55.497Z</time></trkpt><trkpt lat="45.871913" lon="9.0719994"><ele>1165.0</ele><time>2026-04-04T14:40:56.497Z</time></trkpt><trkpt lat="45.871876" lon="9.0719059"><ele>1165.0</ele><time>2026-04-04T14:40:57.497Z</time></trkpt><trkpt lat="45.8718474" lon="9.0718011"><ele>1165.0</ele><time>2026-04-04T14:40:58.496Z</time></trkpt><trkpt lat="45.8718201" lon="9.0716941"><ele>1165.0</ele><time>2026-04-04T14:40:59.497Z</time></trkpt><trkpt lat="45.8718307" lon="9.0715841"><ele>1165.0</ele><time>2026-04-04T14:41:00.497Z</time></trkpt><trkpt lat="45.8718268" lon="9.0714475"><ele>1165.0</ele><time>2026-04-04T14:41:01.497Z</time></trkpt><trkpt lat="45.8718418" lon="9.0713079"><ele>1165.0</ele><time>2026-04-04T14:41:02.497Z</time></trkpt><trkpt lat="45.8718598" lon="9.0711673"><ele>1168.2</ele><time>2026-04-04T14:41:03.497Z</time></trkpt><trkpt lat="45.8718659" lon="9.0710244"><ele>1171.4</ele><time>2026-04-04T14:41:04.497Z</time></trkpt><trkpt lat="45.8718663" lon="9.0708827"><ele>1174.6</ele><time>2026-04-04T14:41:05.497Z</time></trkpt><trkpt lat="45.8718638" lon="9.070737"><ele>1177.8</ele><time>2026-04-04T14:41:06.496Z</time></trkpt><trkpt lat="45.8718705" lon="9.0705913"><ele>1181.0</ele><time>2026-04-04T14:41:07.497Z</time></trkpt><trkpt lat="45.8718725" lon="9.0704609"><ele>1184.8333333333335</ele><time>2026-04-04T14:41:08.497Z</time></trkpt><trkpt lat="45.8718717" lon="9.0703405"><ele>1188.6666666666667</ele><time>2026-04-04T14:41:09.497Z</time></trkpt><trkpt lat="45.8718384" lon="9.0702545"><ele>1192.5</ele><time>2026-04-04T14:41:10.497Z</time></trkpt><trkpt lat="45.8717762" lon="9.0701992"><ele>1196.3333333333333</ele><time>2026-04-04T14:41:11.496Z</time></trkpt><trkpt lat="45.8717146" lon="9.0701413"><ele>1200.1666666666665</ele><time>2026-04-04T14:41:12.497Z</time></trkpt><trkpt lat="45.8716555" lon="9.070074"><ele>1204.0</ele><time>2026-04-04T14:41:13.497Z</time></trkpt><trkpt lat="45.8715932" lon="9.0700139"><ele>1198.3333333333333</ele><time>2026-04-04T14:41:14.497Z</time></trkpt><trkpt lat="45.8715343" lon="9.0699547"><ele>1192.6666666666665</ele><time>2026-04-04T14:41:15.497Z</time></trkpt><trkpt lat="45.8714921" lon="9.0698775"><ele>1187.0</ele><time>2026-04-04T14:41:16.497Z</time></trkpt><trkpt lat="45.8714652" lon="9.0697944"><ele>1181.3333333333333</ele><time>2026-04-04T14:41:17.497Z</time></trkpt><trkpt lat="45.8714486" lon="9.0696924"><ele>1175.6666666666667</ele><time>2026-04-04T14:41:18.497Z</time></trkpt><trkpt lat="45.8714435" lon="9.0695698"><ele>1170.0</ele><time>2026-04-04T14:41:19.497Z</time></trkpt><trkpt lat="45.8714346" lon="9.0694402"><ele>1170.0</ele><time>2026-04-04T14:41:20.497Z</time></trkpt><trkpt lat="45.8714288" lon="9.0693106"><ele>1170.0</ele><time>2026-04-04T14:41:21.497Z</time></trkpt><trkpt lat="45.8714331" lon="9.0691796"><ele>1170.0</ele><time>2026-04-04T14:41:22.497Z</time></trkpt><trkpt lat="45.871442" lon="9.0690524"><ele>1170.0</ele><time>2026-04-04T14:41:23.497Z</time></trkpt><trkpt lat="45.8714636" lon="9.0689431"><ele>1170.0</ele><time>2026-04-04T14:41:24.497Z</time></trkpt><trkpt lat="45.8714777" lon="9.0688292"><ele>1170.0</ele><time>2026-04-04T14:41:25.497Z</time></trkpt><trkpt lat="45.8714404" lon="9.0687387"><ele>1172.3333333333333</ele><time>2026-04-04T14:41:26.497Z</time></trkpt><trkpt lat="45.8713743" lon="9.068657"><ele>1174.6666666666667</ele><time>2026-04-04T14:41:27.497Z</time></trkpt><trkpt lat="45.8713194" lon="9.0685768"><ele>1177.0</ele><time>2026-04-04T14:41:28.497Z</time></trkpt><trkpt lat="45.8712442" lon="9.0685234"><ele>1179.3333333333335</ele><time>2026-04-04T14:41:29.497Z</time></trkpt><trkpt lat="45.8711595" lon="9.0684879"><ele>1181.6666666666667</ele><time>2026-04-04T14:41:30.497Z</time></trkpt><trkpt lat="45.8710578" lon="9.0684701"><ele>1184.0</ele><time>2026-04-04T14:41:31.497Z</time></trkpt><trkpt lat="45.8709564" lon="9.0684515"><ele>1177.0</ele><time>2026-04-04T14:41:32.497Z</time></trkpt><trkpt lat="45.8708462" lon="9.0684346"><ele>1170.0</ele><time>2026-04-04T14:41:33.497Z</time></trkpt><trkpt lat="45.8707295" lon="9.0684338"><ele>1163.0</ele><time>2026-04-04T14:41:34.496Z</time></trkpt><trkpt lat="45.8706176" lon="9.0684325"><ele>1156.0</ele><time>2026-04-04T14:41:35.497Z</time></trkpt><trkpt lat="45.8705046" lon="9.0684489"><ele>1156.0</ele><time>2026-04-04T14:41:36.497Z</time></trkpt><trkpt lat="45.8703886" lon="9.0684701"><ele>1156.0</ele><time>2026-04-04T14:41:37.496Z</time></trkpt><trkpt lat="45.8702727" lon="9.068486"><ele>1156.0</ele><time>2026-04-04T14:41:38.497Z</time></trkpt><trkpt lat="45.8701598" lon="9.0685005"><ele>1156.0</ele><time>2026-04-04T14:41:39.496Z</time></trkpt><trkpt lat="45.8700532" lon="9.0685087"><ele>1156.5</ele><time>2026-04-04T14:41:40.497Z</time></trkpt><trkpt lat="45.8699679" lon="9.0685027"><ele>1157.0</ele><time>2026-04-04T14:41:41.497Z</time></trkpt><trkpt lat="45.8698734" lon="9.0685035"><ele>1157.5</ele><time>2026-04-04T14:41:42.497Z</time></trkpt><trkpt lat="45.8697982" lon="9.0684936"><ele>1158.0</ele><time>2026-04-04T14:41:43.497Z</time></trkpt><trkpt lat="45.8697314" lon="9.0684926"><ele>1158.5</ele><time>2026-04-04T14:41:44.497Z</time></trkpt><trkpt lat="45.8696724" lon="9.068416"><ele>1159.0</ele><time>2026-04-04T14:41:46.497Z</time></trkpt><trkpt lat="45.8697631" lon="9.0683718"><ele>1159.0</ele><time>2026-04-04T14:41:49.496Z</time></trkpt><trkpt lat="45.8698275" lon="9.0683881"><ele>1159.0</ele><time>2026-04-04T14:41:50.497Z</time></trkpt><trkpt lat="45.8698952" lon="9.0683927"><ele>1159.0</ele><time>2026-04-04T14:41:51.497Z</time></trkpt><trkpt lat="45.8699614" lon="9.0683938"><ele>1159.0</ele><time>2026-04-04T14:41:52.497Z</time></trkpt><trkpt lat="45.8700455" lon="9.0683594"><ele>1159.0</ele><time>2026-04-04T14:41:53.497Z</time></trkpt><trkpt lat="45.8701334" lon="9.0683377"><ele>1159.0</ele><time>2026-04-04T14:41:54.496Z</time></trkpt><trkpt lat="45.8702428" lon="9.0682862"><ele>1167.4</ele><time>2026-04-04T14:41:55.497Z</time></trkpt><trkpt lat="45.8703518" lon="9.0682352"><ele>1175.8000000000002</ele><time>2026-04-04T14:41:56.497Z</time></trkpt><trkpt lat="45.8704552" lon="9.0681867"><ele>1184.1999999999998</ele><time>2026-04-04T14:41:57.497Z</time></trkpt><trkpt lat="45.8705529" lon="9.0681373"><ele>1192.6</ele><time>2026-04-04T14:41:58.496Z</time></trkpt><trkpt lat="45.8706549" lon="9.0681001"><ele>1201.0</ele><time>2026-04-04T14:41:59.497Z</time></trkpt><trkpt lat="45.8707575" lon="9.0680596"><ele>1201.0</ele><time>2026-04-04T14:42:00.497Z</time></trkpt><trkpt lat="45.8708671" lon="9.0680285"><ele>1201.0</ele><time>2026-04-04T14:42:01.497Z</time></trkpt><trkpt lat="45.8709737" lon="9.0679922"><ele>1201.0</ele><time>2026-04-04T14:42:02.496Z</time></trkpt><trkpt lat="45.8710866" lon="9.0679748"><ele>1201.0</ele><time>2026-04-04T14:42:03.497Z</time></trkpt><trkpt lat="45.8711957" lon="9.0679721"><ele>1201.0</ele><time>2026-04-04T14:42:04.497Z</time></trkpt><trkpt lat="45.8713079" lon="9.0679785"><ele>1204.6</ele><time>2026-04-04T14:42:05.497Z</time></trkpt><trkpt lat="45.8714148" lon="9.0679914"><ele>1208.1999999999998</ele><time>2026-04-04T14:42:06.497Z</time></trkpt><trkpt lat="45.8715206" lon="9.0680139"><ele>1211.8000000000002</ele><time>2026-04-04T14:42:07.497Z</time></trkpt><trkpt lat="45.8716075" lon="9.068076"><ele>1215.4</ele><time>2026-04-04T14:42:08.497Z</time></trkpt><trkpt lat="45.871694" lon="9.0681331"><ele>1219.0</ele><time>2026-04-04T14:42:09.497Z</time></trkpt><trkpt lat="45.8717516" lon="9.0682318"><ele>1221.3333333333333</ele><time>2026-04-04T14:42:10.497Z</time></trkpt><trkpt lat="45.8718283" lon="9.0683087"><ele>1223.6666666666665</ele><time>2026-04-04T14:42:11.497Z</time></trkpt><trkpt lat="45.8718995" lon="9.0683829"><ele>1226.0</ele><time>2026-04-04T14:42:12.497Z</time></trkpt><trkpt lat="45.8719593" lon="9.0684585"><ele>1228.3333333333333</ele><time>2026-04-04T14:42:13.497Z</time></trkpt><trkpt lat="45.8720065" lon="9.0685434"><ele>1230.6666666666667</ele><time>2026-04-04T14:42:14.497Z</time></trkpt><trkpt lat="45.872026" lon="9.0686465"><ele>1233.0</ele><time>2026-04-04T14:42:15.497Z</time></trkpt><trkpt lat="45.8720347" lon="9.0687574"><ele>1233.0</ele><time>2026-04-04T14:42:16.497Z</time></trkpt><trkpt lat="45.8720385" lon="9.0688776"><ele>1233.0</ele><time>2026-04-04T14:42:17.497Z</time></trkpt><trkpt lat="45.8720382" lon="9.0690025"><ele>1233.0</ele><time>2026-04-04T14:42:18.497Z</time></trkpt><trkpt lat="45.8720401" lon="9.0691221"><ele>1233.0</ele><time>2026-04-04T14:42:19.497Z</time></trkpt><trkpt lat="45.872049" lon="9.0692238"><ele>1233.0</ele><time>2026-04-04T14:42:20.497Z</time></trkpt><trkpt lat="45.8720729" lon="9.0693107"><ele>1233.0</ele><time>2026-04-04T14:42:21.497Z</time></trkpt><trkpt lat="45.8721205" lon="9.0693877"><ele>1231.3333333333333</ele><time>2026-04-04T14:42:22.497Z</time></trkpt><trkpt lat="45.8721781" lon="9.0694531"><ele>1229.6666666666667</ele><time>2026-04-04T14:42:23.497Z</time></trkpt><trkpt lat="45.872248" lon="9.0695111"><ele>1228.0</ele><time>2026-04-04T14:42:24.497Z</time></trkpt><trkpt lat="45.8723261" lon="9.0695766"><ele>1226.3333333333335</ele><time>2026-04-04T14:42:25.497Z</time></trkpt><trkpt lat="45.8724056" lon="9.0696391"><ele>1224.6666666666667</ele><time>2026-04-04T14:42:26.497Z</time></trkpt><trkpt lat="45.8724767" lon="9.0697069"><ele>1223.0</ele><time>2026-04-04T14:42:27.497Z</time></trkpt><trkpt lat="45.8725367" lon="9.069785"><ele>1223.0</ele><time>2026-04-04T14:42:28.497Z</time></trkpt><trkpt lat="45.8725743" lon="9.0698902"><ele>1223.0</ele><time>2026-04-04T14:42:29.497Z</time></trkpt><trkpt lat="45.8726046" lon="9.0700052"><ele>1223.0</ele><time>2026-04-04T14:42:30.497Z</time></trkpt><trkpt lat="45.8726319" lon="9.070128"><ele>1223.0</ele><time>2026-04-04T14:42:31.496Z</time></trkpt><trkpt lat="45.872655" lon="9.0702542"><ele>1223.0</ele><time>2026-04-04T14:42:32.497Z</time></trkpt><trkpt lat="45.8726771" lon="9.0703819"><ele>1223.0</ele><time>2026-04-04T14:42:33.496Z</time></trkpt><trkpt lat="45.8727034" lon="9.0705008"><ele>1224.1666666666667</ele><time>2026-04-04T14:42:34.497Z</time></trkpt><trkpt lat="45.8727385" lon="9.0706132"><ele>1225.3333333333335</ele><time>2026-04-04T14:42:35.497Z</time></trkpt><trkpt lat="45.8727805" lon="9.0707246"><ele>1226.5</ele><time>2026-04-04T14:42:36.497Z</time></trkpt><trkpt lat="45.872827" lon="9.0708295"><ele>1227.6666666666667</ele><time>2026-04-04T14:42:37.497Z</time></trkpt><trkpt lat="45.8728882" lon="9.0709208"><ele>1228.8333333333333</ele><time>2026-04-04T14:42:38.496Z</time></trkpt><trkpt lat="45.872961" lon="9.0709991"><ele>1230.0</ele><time>2026-04-04T14:42:39.497Z</time></trkpt><trkpt lat="45.8730433" lon="9.0710681"><ele>1230.0</ele><time>2026-04-04T14:42:40.496Z</time></trkpt><trkpt lat="45.87313" lon="9.0711305"><ele>1230.0</ele><time>2026-04-04T14:42:41.497Z</time></trkpt><trkpt lat="45.8732167" lon="9.0711907"><ele>1230.0</ele><time>2026-04-04T14:42:42.497Z</time></trkpt><trkpt lat="45.8733048" lon="9.0712531"><ele>1230.0</ele><time>2026-04-04T14:42:43.497Z</time></trkpt><trkpt lat="45.8733911" lon="9.0713169"><ele>1230.0</ele><time>2026-04-04T14:42:44.497Z</time></trkpt><trkpt lat="45.8734783" lon="9.0713851"><ele>1231.4</ele><time>2026-04-04T14:42:45.497Z</time></trkpt><trkpt lat="45.8735579" lon="9.0714683"><ele>1232.8</ele><time>2026-04-04T14:42:46.497Z</time></trkpt><trkpt lat="45.873637" lon="9.0715532"><ele>1234.2</ele><time>2026-04-04T14:42:47.497Z</time></trkpt><trkpt lat="45.8737073" lon="9.0716449"><ele>1235.6</ele><time>2026-04-04T14:42:48.497Z</time></trkpt><trkpt lat="45.8737779" lon="9.0717345"><ele>1237.0</ele><time>2026-04-04T14:42:49.497Z</time></trkpt><trkpt lat="45.873835" lon="9.0718315"><ele>1237.0</ele><time>2026-04-04T14:42:50.497Z</time></trkpt><trkpt lat="45.8738614" lon="9.0719565"><ele>1237.0</ele><time>2026-04-04T14:42:51.496Z</time></trkpt><trkpt lat="45.87389" lon="9.0720779"><ele>1237.0</ele><time>2026-04-04T14:42:52.497Z</time></trkpt><trkpt lat="45.8739238" lon="9.0722007"><ele>1237.0</ele><time>2026-04-04T14:42:53.497Z</time></trkpt><trkpt lat="45.8739499" lon="9.0723447"><ele>1237.0</ele><time>2026-04-04T14:42:54.496Z</time></trkpt><trkpt lat="45.8739612" lon="9.0724836"><ele>1235.6666666666665</ele><time>2026-04-04T14:42:55.496Z</time></trkpt><trkpt lat="45.8739814" lon="9.0726071"><ele>1234.3333333333333</ele><time>2026-04-04T14:42:56.496Z</time></trkpt><trkpt lat="45.8739972" lon="9.0727255"><ele>1233.0</ele><time>2026-04-04T14:42:57.497Z</time></trkpt><trkpt lat="45.87401" lon="9.072841"><ele>1231.6666666666667</ele><time>2026-04-04T14:42:58.497Z</time></trkpt><trkpt lat="45.8740176" lon="9.0729355"><ele>1230.3333333333335</ele><time>2026-04-04T14:42:59.497Z</time></trkpt><trkpt lat="45.8740234" lon="9.0730274"><ele>1229.0</ele><time>2026-04-04T14:43:00.497Z</time></trkpt><trkpt lat="45.8740442" lon="9.0731982"><ele>1228.3333333333335</ele><time>2026-04-04T14:43:02.497Z</time></trkpt><trkpt lat="45.8740525" lon="9.0733033"><ele>1227.6666666666667</ele><time>2026-04-04T14:43:03.497Z</time></trkpt><trkpt lat="45.8740548" lon="9.073407"><ele>1227.0</ele><time>2026-04-04T14:43:04.497Z</time></trkpt><trkpt lat="45.8740587" lon="9.0735174"><ele>1226.3333333333333</ele><time>2026-04-04T14:43:05.497Z</time></trkpt><trkpt lat="45.8740605" lon="9.0736231"><ele>1225.6666666666665</ele><time>2026-04-04T14:43:06.496Z</time></trkpt><trkpt lat="45.8740575" lon="9.0737214"><ele>1225.0</ele><time>2026-04-04T14:43:07.497Z</time></trkpt><trkpt lat="45.8740379" lon="9.0738784"><ele>1225.0</ele><time>2026-04-04T14:43:09.497Z</time></trkpt><trkpt lat="45.8740271" lon="9.0739923"><ele>1225.0</ele><time>2026-04-04T14:43:11.496Z</time></trkpt><trkpt lat="45.8740635" lon="9.0740901"><ele>1225.0</ele><time>2026-04-04T14:43:14.497Z</time></trkpt><trkpt lat="45.8741372" lon="9.074074"><ele>1225.0</ele><time>2026-04-04T14:44:19.496Z</time></trkpt><trkpt lat="45.8740571" lon="9.0740402"><ele>1225.0</ele><time>2026-04-04T14:44:24.497Z</time></trkpt><trkpt lat="45.8740205" lon="9.0739656"><ele>1225.0</ele><time>2026-04-04T14:44:26.497Z</time></trkpt><trkpt lat="45.8740406" lon="9.0738701"><ele>1225.0</ele><time>2026-04-04T14:44:27.497Z</time></trkpt><trkpt lat="45.8740483" lon="9.0737763"><ele>1225.0</ele><time>2026-04-04T14:44:28.497Z</time></trkpt><trkpt lat="45.8740555" lon="9.0736769"><ele>1225.0</ele><time>2026-04-04T14:44:29.497Z</time></trkpt><trkpt lat="45.87406" lon="9.0735767"><ele>1225.0</ele><time>2026-04-04T14:44:30.497Z</time></trkpt><trkpt lat="45.8740579" lon="9.0734835"><ele>1225.0</ele><time>2026-04-04T14:44:31.496Z</time></trkpt><trkpt lat="45.8740491" lon="9.0733086"><ele>1225.0</ele><time>2026-04-04T14:44:33.497Z</time></trkpt><trkpt lat="45.8740302" lon="9.0731557"><ele>1225.0</ele><time>2026-04-04T14:44:35.497Z</time></trkpt><trkpt lat="45.8740136" lon="9.0730372"><ele>1225.0</ele><time>2026-04-04T14:44:37.497Z</time></trkpt><trkpt lat="45.8739981" lon="9.0729409"><ele>1225.0</ele><time>2026-04-04T14:44:39.497Z</time></trkpt><trkpt lat="45.8739885" lon="9.0728451"><ele>1225.0</ele><time>2026-04-04T14:44:42.497Z</time></trkpt><trkpt lat="45.8739472" lon="9.0729478"><ele>1225.0</ele><time>2026-04-04T14:44:57.497Z</time></trkpt><trkpt lat="45.8739459" lon="9.0730614"><ele>1225.0</ele><time>2026-04-04T14:44:59.497Z</time></trkpt><trkpt lat="45.8739343" lon="9.0732024"><ele>1225.0</ele><time>2026-04-04T14:45:01.497Z</time></trkpt><trkpt lat="45.8739166" lon="9.0733688"><ele>1225.0</ele><time>2026-04-04T14:45:03.496Z</time></trkpt><trkpt lat="45.8738987" lon="9.0734591"><ele>1225.0</ele><time>2026-04-04T14:45:04.497Z</time></trkpt><trkpt lat="45.8738761" lon="9.0735488"><ele>1225.0</ele><time>2026-04-04T14:45:05.496Z</time></trkpt><trkpt lat="45.8738359" lon="9.0737101"><ele>1225.0</ele><time>2026-04-04T14:45:07.496Z</time></trkpt><trkpt lat="45.8737959" lon="9.0738526"><ele>1225.0</ele><time>2026-04-04T14:45:09.497Z</time></trkpt><trkpt lat="45.8737667" lon="9.0739944"><ele>1222.5</ele><time>2026-04-04T14:45:11.497Z</time></trkpt><trkpt lat="45.873752" lon="9.0741343"><ele>1220.0</ele><time>2026-04-04T14:45:13.497Z</time></trkpt><trkpt lat="45.8737452" lon="9.0742445"><ele>1217.5</ele><time>2026-04-04T14:45:15.497Z</time></trkpt><trkpt lat="45.8737272" lon="9.0743785"><ele>1215.0</ele><time>2026-04-04T14:45:18.497Z</time></trkpt><trkpt lat="45.873706" lon="9.0745238"><ele>1212.5</ele><time>2026-04-04T14:45:20.497Z</time></trkpt><trkpt lat="45.8737016" lon="9.0746172"><ele>1210.0</ele><time>2026-04-04T14:45:21.497Z</time></trkpt><trkpt lat="45.8737013" lon="9.0747181"><ele>1210.0</ele><time>2026-04-04T14:45:22.497Z</time></trkpt><trkpt lat="45.8736918" lon="9.0748148"><ele>1210.0</ele><time>2026-04-04T14:45:23.497Z</time></trkpt><trkpt lat="45.8736761" lon="9.074912"><ele>1210.0</ele><time>2026-04-04T14:45:24.497Z</time></trkpt><trkpt lat="45.8736533" lon="9.0750117"><ele>1210.0</ele><time>2026-04-04T14:45:25.497Z</time></trkpt><trkpt lat="45.8736246" lon="9.0751059"><ele>1210.0</ele><time>2026-04-04T14:45:26.497Z</time></trkpt><trkpt lat="45.873592" lon="9.0751907"><ele>1210.0</ele><time>2026-04-04T14:45:27.497Z</time></trkpt><trkpt lat="45.8735594" lon="9.0752715"><ele>1210.0</ele><time>2026-04-04T14:45:28.497Z</time></trkpt><trkpt lat="45.8735247" lon="9.0753558"><ele>1206.0</ele><time>2026-04-04T14:45:29.496Z</time></trkpt><trkpt lat="45.8734891" lon="9.0754439"><ele>1202.0</ele><time>2026-04-04T14:45:30.497Z</time></trkpt><trkpt lat="45.8734523" lon="9.075531"><ele>1198.0</ele><time>2026-04-04T14:45:31.497Z</time></trkpt><trkpt lat="45.8734153" lon="9.0756224"><ele>1194.0</ele><time>2026-04-04T14:45:32.497Z</time></trkpt><trkpt lat="45.873383" lon="9.0757018"><ele>1190.0</ele><time>2026-04-04T14:45:33.496Z</time></trkpt><trkpt lat="45.8733265" lon="9.0758319"><ele>1186.0</ele><time>2026-04-04T14:45:35.496Z</time></trkpt><trkpt lat="45.8732889" lon="9.0759536"><ele>1185.5714285714284</ele><time>2026-04-04T14:45:37.497Z</time></trkpt><trkpt lat="45.8732853" lon="9.076053"><ele>1185.142857142857</ele><time>2026-04-04T14:45:39.497Z</time></trkpt><trkpt lat="45.8733113" lon="9.0761409"><ele>1184.7142857142858</ele><time>2026-04-04T14:45:43.497Z</time></trkpt><trkpt lat="45.8733019" lon="9.0762321"><ele>1184.2857142857142</ele><time>2026-04-04T14:45:51.497Z</time></trkpt><trkpt lat="45.8732938" lon="9.0763385"><ele>1183.857142857143</ele><time>2026-04-04T14:45:53.497Z</time></trkpt><trkpt lat="45.8733016" lon="9.0764466"><ele>1183.4285714285713</ele><time>2026-04-04T14:45:55.497Z</time></trkpt><trkpt lat="45.8733059" lon="9.0765704"><ele>1183.0</ele><time>2026-04-04T14:45:57.497Z</time></trkpt><trkpt lat="45.8733021" lon="9.0767166"><ele>1182.6</ele><time>2026-04-04T14:45:59.497Z</time></trkpt><trkpt lat="45.8732919" lon="9.0768757"><ele>1182.1999999999998</ele><time>2026-04-04T14:46:01.497Z</time></trkpt><trkpt lat="45.873292" lon="9.0770408"><ele>1181.8</ele><time>2026-04-04T14:46:03.497Z</time></trkpt><trkpt lat="45.8732836" lon="9.0772036"><ele>1181.3999999999999</ele><time>2026-04-04T14:46:05.496Z</time></trkpt><trkpt lat="45.8732756" lon="9.0773358"><ele>1181.0</ele><time>2026-04-04T14:46:07.497Z</time></trkpt><trkpt lat="45.8732752" lon="9.0774636"><ele>1180.8</ele><time>2026-04-04T14:46:09.496Z</time></trkpt><trkpt lat="45.8732947" lon="9.077609"><ele>1180.6</ele><time>2026-04-04T14:46:11.497Z</time></trkpt><trkpt lat="45.8733115" lon="9.077748"><ele>1180.4</ele><time>2026-04-04T14:46:13.497Z</time></trkpt><trkpt lat="45.8733424" lon="9.0778674"><ele>1180.2</ele><time>2026-04-04T14:46:15.497Z</time></trkpt><trkpt lat="45.8733644" lon="9.0779891"><ele>1180.0</ele><time>2026-04-04T14:46:17.497Z</time></trkpt><trkpt lat="45.8733828" lon="9.0781267"><ele>1180.5</ele><time>2026-04-04T14:46:19.496Z</time></trkpt><trkpt lat="45.8734221" lon="9.0782729"><ele>1181.0</ele><time>2026-04-04T14:46:21.497Z</time></trkpt><trkpt lat="45.8734597" lon="9.0784347"><ele>1181.5</ele><time>2026-04-04T14:46:23.496Z</time></trkpt><trkpt lat="45.8734884" lon="9.0785236"><ele>1182.0</ele><time>2026-04-04T14:46:24.497Z</time></trkpt><trkpt lat="45.8735102" lon="9.0786136"><ele>1182.5</ele><time>2026-04-04T14:46:25.497Z</time></trkpt><trkpt lat="45.8735374" lon="9.0787033"><ele>1183.0</ele><time>2026-04-04T14:46:26.496Z</time></trkpt><trkpt lat="45.8735503" lon="9.0787941"><ele>1175.6</ele><time>2026-04-04T14:46:27.497Z</time></trkpt><trkpt lat="45.8735841" lon="9.0789551"><ele>1168.1999999999998</ele><time>2026-04-04T14:46:29.497Z</time></trkpt><trkpt lat="45.873615" lon="9.0791008"><ele>1160.8</ele><time>2026-04-04T14:46:31.497Z</time></trkpt><trkpt lat="45.8736614" lon="9.0792391"><ele>1153.3999999999999</ele><time>2026-04-04T14:46:33.497Z</time></trkpt><trkpt lat="45.8737083" lon="9.0793759"><ele>1146.0</ele><time>2026-04-04T14:46:35.497Z</time></trkpt><trkpt lat="45.8737579" lon="9.0795186"><ele>1146.0</ele><time>2026-04-04T14:46:37.497Z</time></trkpt><trkpt lat="45.8738116" lon="9.0796565"><ele>1146.0</ele><time>2026-04-04T14:46:39.497Z</time></trkpt><trkpt lat="45.8738598" lon="9.0797953"><ele>1146.0</ele><time>2026-04-04T14:46:41.496Z</time></trkpt><trkpt lat="45.8739196" lon="9.0799398"><ele>1146.0</ele><time>2026-04-04T14:46:43.496Z</time></trkpt><trkpt lat="45.8739519" lon="9.0800186"><ele>1146.0</ele><time>2026-04-04T14:46:44.497Z</time></trkpt><trkpt lat="45.8739933" lon="9.0801502"><ele>1147.857142857143</ele><time>2026-04-04T14:46:46.497Z</time></trkpt><trkpt lat="45.8740241" lon="9.0802411"><ele>1149.7142857142858</ele><time>2026-04-04T14:46:48.497Z</time></trkpt><trkpt lat="45.8740402" lon="9.0803366"><ele>1151.5714285714287</ele><time>2026-04-04T14:46:51.497Z</time></trkpt><trkpt lat="45.8740532" lon="9.0804347"><ele>1153.4285714285716</ele><time>2026-04-04T14:46:55.497Z</time></trkpt><trkpt lat="45.8740519" lon="9.0805362"><ele>1155.2857142857142</ele><time>2026-04-04T14:47:12.497Z</time></trkpt><trkpt lat="45.8740855" lon="9.0806205"><ele>1157.1428571428573</ele><time>2026-04-04T14:47:15.497Z</time></trkpt><trkpt lat="45.8740769" lon="9.0807538"><ele>1159.0</ele><time>2026-04-04T14:47:18.497Z</time></trkpt><trkpt lat="45.8740458" lon="9.0808429"><ele>1159.0000000000002</ele><time>2026-04-04T14:47:20.497Z</time></trkpt><trkpt lat="45.8740093" lon="9.080925"><ele>1159.0</ele><time>2026-04-04T14:47:22.497Z</time></trkpt><trkpt lat="45.8739766" lon="9.0810169"><ele>1159.0</ele><time>2026-04-04T14:47:24.497Z</time></trkpt><trkpt lat="45.8739349" lon="9.0811081"><ele>1159.0</ele><time>2026-04-04T14:47:26.497Z</time></trkpt><trkpt lat="45.8738888" lon="9.081179"><ele>1159.0</ele><time>2026-04-04T14:47:28.497Z</time></trkpt><trkpt lat="45.8738414" lon="9.0812434"><ele>1159.0000000000002</ele><time>2026-04-04T14:47:31.497Z</time></trkpt><trkpt lat="45.8738081" lon="9.0813273"><ele>1159.0</ele><time>2026-04-04T14:47:35.496Z</time></trkpt><trkpt lat="45.8737961" lon="9.0814267"><ele>1159.0000000000002</ele><time>2026-04-04T14:47:39.496Z</time></trkpt><trkpt lat="45.8737515" lon="9.0814942"><ele>1159.0</ele><time>2026-04-04T14:47:44.497Z</time></trkpt><trkpt lat="45.8737512" lon="9.0815927"><ele>1159.0</ele><time>2026-04-04T14:47:52.497Z</time></trkpt><trkpt lat="45.8737462" lon="9.0816962"><ele>1159.0</ele><time>2026-04-04T14:48:00.497Z</time></trkpt><trkpt lat="45.8737203" lon="9.0818117"><ele>1159.0</ele><time>2026-04-04T14:48:03.497Z</time></trkpt><trkpt lat="45.8736845" lon="9.0819007"><ele>1159.0000000000002</ele><time>2026-04-04T14:48:06.497Z</time></trkpt><trkpt lat="45.8736867" lon="9.0820099"><ele>1159.0</ele><time>2026-04-04T14:48:22.497Z</time></trkpt><trkpt lat="45.8736838" lon="9.0821235"><ele>1156.4285714285716</ele><time>2026-04-04T14:48:27.497Z</time></trkpt><trkpt lat="45.873679" lon="9.082231"><ele>1153.857142857143</ele><time>2026-04-04T14:48:33.497Z</time></trkpt><trkpt lat="45.8736842" lon="9.0823331"><ele>1151.2857142857142</ele><time>2026-04-04T14:48:36.497Z</time></trkpt><trkpt lat="45.8736536" lon="9.0824273"><ele>1148.7142857142858</ele><time>2026-04-04T14:48:39.497Z</time></trkpt><trkpt lat="45.8736233" lon="9.0825097"><ele>1146.142857142857</ele><time>2026-04-04T14:48:45.497Z</time></trkpt><trkpt lat="45.873624" lon="9.082601"><ele>1143.5714285714287</ele><time>2026-04-04T14:48:51.497Z</time></trkpt><trkpt lat="45.8736279" lon="9.0826936"><ele>1141.0</ele><time>2026-04-04T14:49:13.497Z</time></trkpt><trkpt lat="45.873631" lon="9.0827849"><ele>1137.8333333333333</ele><time>2026-04-04T14:49:23.497Z</time></trkpt><trkpt lat="45.873592" lon="9.0829294"><ele>1134.6666666666665</ele><time>2026-04-04T14:50:17.497Z</time></trkpt><trkpt lat="45.8735653" lon="9.0830383"><ele>1131.5</ele><time>2026-04-04T14:54:10.497Z</time></trkpt><trkpt lat="45.8735786" lon="9.0831274"><ele>1128.3333333333333</ele><time>2026-04-04T14:55:06.496Z</time></trkpt><trkpt lat="45.8735682" lon="9.0832227"><ele>1125.1666666666667</ele><time>2026-04-04T14:55:11.497Z</time></trkpt><trkpt lat="45.8735141" lon="9.0832911"><ele>1122.0</ele><time>2026-04-04T14:55:14.497Z</time></trkpt><trkpt lat="45.8734999" lon="9.0833793"><ele>1120.142857142857</ele><time>2026-04-04T14:58:18.497Z</time></trkpt><trkpt lat="45.8735663" lon="9.0833792"><ele>1118.2857142857142</ele><time>2026-04-04T15:07:26.496Z</time></trkpt><trkpt lat="45.8736284" lon="9.0834386"><ele>1116.4285714285713</ele><time>2026-04-04T15:07:31.497Z</time></trkpt><trkpt lat="45.8736574" lon="9.0835477"><ele>1114.5714285714284</ele><time>2026-04-04T15:07:37.497Z</time></trkpt><trkpt lat="45.8736672" lon="9.0836432"><ele>1112.7142857142858</ele><time>2026-04-04T15:07:41.497Z</time></trkpt><trkpt lat="45.8736839" lon="9.083747"><ele>1110.8571428571427</ele><time>2026-04-04T15:07:47.497Z</time></trkpt><trkpt lat="45.8736774" lon="9.0838438"><ele>1109.0</ele><time>2026-04-04T15:07:50.497Z</time></trkpt><trkpt lat="45.8737096" lon="9.0839472"><ele>1109.0</ele><time>2026-04-04T15:07:54.497Z</time></trkpt><trkpt lat="45.8737618" lon="9.0840269"><ele>1109.0</ele><time>2026-04-04T15:07:57.497Z</time></trkpt><trkpt lat="45.8737993" lon="9.0841179"><ele>1109.0</ele><time>2026-04-04T15:07:59.497Z</time></trkpt><trkpt lat="45.8738304" lon="9.0842074"><ele>1109.0</ele><time>2026-04-04T15:08:01.497Z</time></trkpt><trkpt lat="45.8738829" lon="9.0843141"><ele>1109.0</ele><time>2026-04-04T15:08:04.497Z</time></trkpt><trkpt lat="45.8739186" lon="9.0844227"><ele>1109.0</ele><time>2026-04-04T15:08:07.497Z</time></trkpt><trkpt lat="45.873963" lon="9.0844903"><ele>1108.8</ele><time>2026-04-04T15:08:10.497Z</time></trkpt><trkpt lat="45.8740117" lon="9.0845746"><ele>1108.6000000000001</ele><time>2026-04-04T15:08:20.497Z</time></trkpt><trkpt lat="45.8740773" lon="9.0847295"><ele>1108.4</ele><time>2026-04-04T15:08:22.497Z</time></trkpt><trkpt lat="45.8741405" lon="9.0848779"><ele>1108.2</ele><time>2026-04-04T15:08:24.497Z</time></trkpt><trkpt lat="45.8741709" lon="9.0849596"><ele>1108.0</ele><time>2026-04-04T15:08:25.496Z</time></trkpt><trkpt lat="45.8742067" lon="9.0850538"><ele>1108.0</ele><time>2026-04-04T15:08:26.497Z</time></trkpt><trkpt lat="45.8742427" lon="9.0851495"><ele>1108.0</ele><time>2026-04-04T15:08:27.497Z</time></trkpt><trkpt lat="45.8742854" lon="9.0852596"><ele>1108.0</ele><time>2026-04-04T15:08:28.497Z</time></trkpt><trkpt lat="45.8743121" lon="9.0853509"><ele>1108.0</ele><time>2026-04-04T15:08:29.497Z</time></trkpt><trkpt lat="45.87434" lon="9.0854441"><ele>1108.0</ele><time>2026-04-04T15:08:30.497Z</time></trkpt><trkpt lat="45.8743703" lon="9.0855474"><ele>1108.0</ele><time>2026-04-04T15:08:31.497Z</time></trkpt><trkpt lat="45.8744075" lon="9.0856431"><ele>1106.0</ele><time>2026-04-04T15:08:32.496Z</time></trkpt><trkpt lat="45.8744423" lon="9.0857419"><ele>1104.0</ele><time>2026-04-04T15:08:33.497Z</time></trkpt><trkpt lat="45.8744702" lon="9.0858361"><ele>1102.0</ele><time>2026-04-04T15:08:34.497Z</time></trkpt><trkpt lat="45.874502" lon="9.0859362"><ele>1100.0</ele><time>2026-04-04T15:08:35.496Z</time></trkpt><trkpt lat="45.8745341" lon="9.0860325"><ele>1098.0</ele><time>2026-04-04T15:08:36.496Z</time></trkpt><trkpt lat="45.8745677" lon="9.086118"><ele>1096.0</ele><time>2026-04-04T15:08:37.497Z</time></trkpt><trkpt lat="45.8745946" lon="9.086211"><ele>1094.0</ele><time>2026-04-04T15:08:38.497Z</time></trkpt><trkpt lat="45.8746262" lon="9.0863007"><ele>1094.0</ele><time>2026-04-04T15:08:39.497Z</time></trkpt><trkpt lat="45.8746562" lon="9.0863903"><ele>1094.0</ele><time>2026-04-04T15:08:40.497Z</time></trkpt><trkpt lat="45.8746892" lon="9.0864781"><ele>1094.0</ele><time>2026-04-04T15:08:41.497Z</time></trkpt><trkpt lat="45.8747398" lon="9.0866094"><ele>1094.0</ele><time>2026-04-04T15:08:43.496Z</time></trkpt><trkpt lat="45.8747999" lon="9.0867155"><ele>1094.0</ele><time>2026-04-04T15:08:45.497Z</time></trkpt><trkpt lat="45.8748595" lon="9.0867958"><ele>1094.0</ele><time>2026-04-04T15:08:47.497Z</time></trkpt><trkpt lat="45.8748721" lon="9.0868962"><ele>1096.8333333333335</ele><time>2026-04-04T15:08:50.497Z</time></trkpt><trkpt lat="45.8748297" lon="9.0869735"><ele>1099.6666666666667</ele><time>2026-04-04T15:08:54.497Z</time></trkpt><trkpt lat="45.874884" lon="9.0870305"><ele>1102.5</ele><time>2026-04-04T15:10:36.497Z</time></trkpt><trkpt lat="45.8749461" lon="9.087111"><ele>1105.3333333333333</ele><time>2026-04-04T15:10:45.971Z</time></trkpt><trkpt lat="45.8748803" lon="9.0870351"><ele>1108.1666666666665</ele><time>2026-04-04T15:13:24.51Z</time></trkpt><trkpt lat="45.8748286" lon="9.0869807"><ele>1111.0</ele><time>2026-04-04T15:17:20.432Z</time></trkpt><trkpt lat="45.8749454" lon="9.0869461"><ele>1111.0</ele><time>2026-04-04T15:21:47.497Z</time></trkpt><trkpt lat="45.8750292" lon="9.0869759"><ele>1111.0</ele><time>2026-04-04T15:21:49.492Z</time></trkpt><trkpt lat="45.8750864" lon="9.0869267"><ele>1111.0</ele><time>2026-04-04T15:21:50.497Z</time></trkpt><trkpt lat="45.8751427" lon="9.0868741"><ele>1111.0</ele><time>2026-04-04T15:21:51.495Z</time></trkpt><trkpt lat="45.8752477" lon="9.0868439"><ele>1111.0</ele><time>2026-04-04T15:21:53.496Z</time></trkpt><trkpt lat="45.8753635" lon="9.0868313"><ele>1111.0</ele><time>2026-04-04T15:21:55.492Z</time></trkpt><trkpt lat="45.8754806" lon="9.0868114"><ele>1109.3999999999999</ele><time>2026-04-04T15:21:57.497Z</time></trkpt><trkpt lat="45.8756091" lon="9.086792"><ele>1107.8</ele><time>2026-04-04T15:21:59.497Z</time></trkpt><trkpt lat="45.8756739" lon="9.0867841"><ele>1106.1999999999998</ele><time>2026-04-04T15:22:00.497Z</time></trkpt><trkpt lat="45.8757922" lon="9.0867724"><ele>1104.6</ele><time>2026-04-04T15:22:02.497Z</time></trkpt><trkpt lat="45.8759163" lon="9.0867519"><ele>1103.0</ele><time>2026-04-04T15:22:04.497Z</time></trkpt><trkpt lat="45.8759826" lon="9.0867345"><ele>1103.0</ele><time>2026-04-04T15:22:05.496Z</time></trkpt><trkpt lat="45.8761027" lon="9.0867082"><ele>1103.0</ele><time>2026-04-04T15:22:07.495Z</time></trkpt><trkpt lat="45.8761669" lon="9.0867024"><ele>1103.0</ele><time>2026-04-04T15:22:08.495Z</time></trkpt><trkpt lat="45.8762364" lon="9.0866795"><ele>1103.0</ele><time>2026-04-04T15:22:09.494Z</time></trkpt><trkpt lat="45.876307" lon="9.0866518"><ele>1103.0</ele><time>2026-04-04T15:22:10.496Z</time></trkpt><trkpt lat="45.8764228" lon="9.0866097"><ele>1099.2</ele><time>2026-04-04T15:22:12.493Z</time></trkpt><trkpt lat="45.8765314" lon="9.0865502"><ele>1095.4</ele><time>2026-04-04T15:22:14.494Z</time></trkpt><trkpt lat="45.8766435" lon="9.086471"><ele>1091.6000000000001</ele><time>2026-04-04T15:22:16.497Z</time></trkpt><trkpt lat="45.8766998" lon="9.0864145"><ele>1087.8</ele><time>2026-04-04T15:22:17.496Z</time></trkpt><trkpt lat="45.8767918" lon="9.0863112"><ele>1084.0</ele><time>2026-04-04T15:22:19.496Z</time></trkpt><trkpt lat="45.8768953" lon="9.086211"><ele>1084.0</ele><time>2026-04-04T15:22:21.492Z</time></trkpt><trkpt lat="45.8770016" lon="9.0861414"><ele>1084.0</ele><time>2026-04-04T15:22:23.495Z</time></trkpt><trkpt lat="45.8771113" lon="9.0860767"><ele>1084.0</ele><time>2026-04-04T15:22:25.497Z</time></trkpt><trkpt lat="45.8772184" lon="9.0860397"><ele>1084.0</ele><time>2026-04-04T15:22:27.495Z</time></trkpt><trkpt lat="45.8773349" lon="9.0860084"><ele>1084.0</ele><time>2026-04-04T15:22:29.496Z</time></trkpt><trkpt lat="45.8774593" lon="9.0859896"><ele>1084.0</ele><time>2026-04-04T15:22:31.497Z</time></trkpt><trkpt lat="45.8775882" lon="9.0859865"><ele>1084.0</ele><time>2026-04-04T15:22:33.496Z</time></trkpt><trkpt lat="45.8777189" lon="9.0859638"><ele>1084.0</ele><time>2026-04-04T15:22:35.497Z</time></trkpt><trkpt lat="45.8777904" lon="9.0859688"><ele>1084.5</ele><time>2026-04-04T15:22:36.497Z</time></trkpt><trkpt lat="45.8778697" lon="9.0859676"><ele>1085.0</ele><time>2026-04-04T15:22:37.497Z</time></trkpt><trkpt lat="45.877943" lon="9.0859727"><ele>1085.5</ele><time>2026-04-04T15:22:38.497Z</time></trkpt><trkpt lat="45.8780168" lon="9.0859676"><ele>1086.0</ele><time>2026-04-04T15:22:39.497Z</time></trkpt><trkpt lat="45.8780849" lon="9.0859605"><ele>1086.5</ele><time>2026-04-04T15:22:40.496Z</time></trkpt><trkpt lat="45.8781518" lon="9.085969"><ele>1087.0</ele><time>2026-04-04T15:22:41.497Z</time></trkpt><trkpt lat="45.8782778" lon="9.0859713"><ele>1087.0</ele><time>2026-04-04T15:22:43.495Z</time></trkpt><trkpt lat="45.878342" lon="9.0859635"><ele>1087.0</ele><time>2026-04-04T15:22:44.496Z</time></trkpt><trkpt lat="45.8784653" lon="9.0859501"><ele>1087.0</ele><time>2026-04-04T15:22:46.497Z</time></trkpt><trkpt lat="45.8785321" lon="9.0859432"><ele>1087.0</ele><time>2026-04-04T15:22:47.497Z</time></trkpt><trkpt lat="45.8786066" lon="9.0859446"><ele>1087.0</ele><time>2026-04-04T15:22:48.497Z</time></trkpt><trkpt lat="45.878682" lon="9.085955"><ele>1087.0</ele><time>2026-04-04T15:22:49.496Z</time></trkpt><trkpt lat="45.8787542" lon="9.085953"><ele>1086.7142857142858</ele><time>2026-04-04T15:22:50.496Z</time></trkpt><trkpt lat="45.8788317" lon="9.0859515"><ele>1086.4285714285713</ele><time>2026-04-04T15:22:51.497Z</time></trkpt><trkpt lat="45.8789038" lon="9.0859373"><ele>1086.142857142857</ele><time>2026-04-04T15:22:52.495Z</time></trkpt><trkpt lat="45.8789758" lon="9.0859244"><ele>1085.857142857143</ele><time>2026-04-04T15:22:53.494Z</time></trkpt><trkpt lat="45.8790475" lon="9.0859179"><ele>1085.5714285714284</ele><time>2026-04-04T15:22:54.496Z</time></trkpt><trkpt lat="45.8791174" lon="9.0858922"><ele>1085.2857142857142</ele><time>2026-04-04T15:22:55.494Z</time></trkpt><trkpt lat="45.8791891" lon="9.0858729"><ele>1085.0</ele><time>2026-04-04T15:22:56.497Z</time></trkpt><trkpt lat="45.8792608" lon="9.0858546"><ele>1082.6666666666667</ele><time>2026-04-04T15:22:57.496Z</time></trkpt><trkpt lat="45.8793234" lon="9.0858185"><ele>1080.3333333333335</ele><time>2026-04-04T15:22:58.497Z</time></trkpt><trkpt lat="45.8793832" lon="9.0857813"><ele>1078.0</ele><time>2026-04-04T15:22:59.497Z</time></trkpt><trkpt lat="45.8794632" lon="9.0857063"><ele>1075.6666666666667</ele><time>2026-04-04T15:23:01.497Z</time></trkpt><trkpt lat="45.8795328" lon="9.085656"><ele>1073.3333333333333</ele><time>2026-04-04T15:23:03.497Z</time></trkpt><trkpt lat="45.8796159" lon="9.0856882"><ele>1071.0</ele><time>2026-04-04T15:23:06.497Z</time></trkpt><trkpt lat="45.8796406" lon="9.0857945"><ele>1071.0</ele><time>2026-04-04T15:23:09.497Z</time></trkpt><trkpt lat="45.8796223" lon="9.085918"><ele>1071.0</ele><time>2026-04-04T15:23:11.495Z</time></trkpt><trkpt lat="45.8796131" lon="9.0860562"><ele>1071.0</ele><time>2026-04-04T15:23:13.497Z</time></trkpt><trkpt lat="45.8795991" lon="9.0861887"><ele>1071.0</ele><time>2026-04-04T15:23:15.497Z</time></trkpt><trkpt lat="45.8795666" lon="9.0863404"><ele>1071.0</ele><time>2026-04-04T15:23:17.495Z</time></trkpt><trkpt lat="45.8795446" lon="9.0864875"><ele>1067.75</ele><time>2026-04-04T15:23:19.497Z</time></trkpt><trkpt lat="45.879518" lon="9.0866349"><ele>1064.5</ele><time>2026-04-04T15:23:21.497Z</time></trkpt><trkpt lat="45.8794941" lon="9.0867929"><ele>1061.25</ele><time>2026-04-04T15:23:23.497Z</time></trkpt><trkpt lat="45.8794744" lon="9.086956"><ele>1058.0</ele><time>2026-04-04T15:23:25.497Z</time></trkpt><trkpt lat="45.8794373" lon="9.0871163"><ele>1058.0</ele><time>2026-04-04T15:23:27.491Z</time></trkpt><trkpt lat="45.8794052" lon="9.0872756"><ele>1058.0</ele><time>2026-04-04T15:23:29.496Z</time></trkpt><trkpt lat="45.8793951" lon="9.0874278"><ele>1058.0</ele><time>2026-04-04T15:23:31.497Z</time></trkpt><trkpt lat="45.8793676" lon="9.0875994"><ele>1058.0</ele><time>2026-04-04T15:23:33.497Z</time></trkpt><trkpt lat="45.8793606" lon="9.087703"><ele>1058.0</ele><time>2026-04-04T15:23:34.497Z</time></trkpt><trkpt lat="45.8793599" lon="9.0878095"><ele>1057.142857142857</ele><time>2026-04-04T15:23:35.496Z</time></trkpt><trkpt lat="45.8793654" lon="9.0879031"><ele>1056.2857142857142</ele><time>2026-04-04T15:23:36.497Z</time></trkpt><trkpt lat="45.8793755" lon="9.0880055"><ele>1055.4285714285713</ele><time>2026-04-04T15:23:37.496Z</time></trkpt><trkpt lat="45.879394" lon="9.0881132"><ele>1054.5714285714284</ele><time>2026-04-04T15:23:38.495Z</time></trkpt><trkpt lat="45.8794186" lon="9.0882221"><ele>1053.7142857142856</ele><time>2026-04-04T15:23:39.497Z</time></trkpt><trkpt lat="45.8794518" lon="9.0883213"><ele>1052.857142857143</ele><time>2026-04-04T15:23:40.497Z</time></trkpt><trkpt lat="45.879477" lon="9.088416"><ele>1052.0</ele><time>2026-04-04T15:23:41.497Z</time></trkpt><trkpt lat="45.8795087" lon="9.0885136"><ele>1052.0</ele><time>2026-04-04T15:23:42.495Z</time></trkpt><trkpt lat="45.8795374" lon="9.0886123"><ele>1052.0</ele><time>2026-04-04T15:23:43.495Z</time></trkpt><trkpt lat="45.8795721" lon="9.08872"><ele>1052.0</ele><time>2026-04-04T15:23:44.495Z</time></trkpt><trkpt lat="45.8796118" lon="9.088819"><ele>1052.0</ele><time>2026-04-04T15:23:45.495Z</time></trkpt><trkpt lat="45.8796439" lon="9.0889076"><ele>1052.0</ele><time>2026-04-04T15:23:46.497Z</time></trkpt><trkpt lat="45.8796821" lon="9.0889942"><ele>1052.0</ele><time>2026-04-04T15:23:47.496Z</time></trkpt><trkpt lat="45.8797236" lon="9.0890684"><ele>1052.0</ele><time>2026-04-04T15:23:48.497Z</time></trkpt><trkpt lat="45.8798159" lon="9.0891766"><ele>1055.6666666666667</ele><time>2026-04-04T15:23:50.497Z</time></trkpt><trkpt lat="45.8799255" lon="9.0892476"><ele>1059.3333333333335</ele><time>2026-04-04T15:23:52.497Z</time></trkpt><trkpt lat="45.8799895" lon="9.089259"><ele>1063.0</ele><time>2026-04-04T15:23:53.497Z</time></trkpt><trkpt lat="45.8800638" lon="9.0892631"><ele>1066.6666666666667</ele><time>2026-04-04T15:23:54.497Z</time></trkpt><trkpt lat="45.8801434" lon="9.0892549"><ele>1070.3333333333333</ele><time>2026-04-04T15:23:55.497Z</time></trkpt><trkpt lat="45.8802221" lon="9.0892287"><ele>1074.0</ele><time>2026-04-04T15:23:56.495Z</time></trkpt><trkpt lat="45.8802954" lon="9.0892194"><ele>1074.0</ele><time>2026-04-04T15:23:57.497Z</time></trkpt><trkpt lat="45.8803586" lon="9.0892052"><ele>1074.0</ele><time>2026-04-04T15:23:58.497Z</time></trkpt><trkpt lat="45.8804683" lon="9.0891693"><ele>1074.0</ele><time>2026-04-04T15:24:00.496Z</time></trkpt><trkpt lat="45.8805942" lon="9.0891643"><ele>1074.0</ele><time>2026-04-04T15:24:02.497Z</time></trkpt><trkpt lat="45.8807052" lon="9.089203"><ele>1074.0</ele><time>2026-04-04T15:24:04.497Z</time></trkpt><trkpt lat="45.8808103" lon="9.0892769"><ele>1074.0</ele><time>2026-04-04T15:24:06.495Z</time></trkpt><trkpt lat="45.8808732" lon="9.0893428"><ele>1074.0</ele><time>2026-04-04T15:24:07.497Z</time></trkpt><trkpt lat="45.8809363" lon="9.0894083"><ele>1074.0</ele><time>2026-04-04T15:24:08.494Z</time></trkpt><trkpt lat="45.8809867" lon="9.0894657"><ele>1074.0</ele><time>2026-04-04T15:24:09.495Z</time></trkpt><trkpt lat="45.881059" lon="9.0895159"><ele>1074.0</ele><time>2026-04-04T15:24:10.497Z</time></trkpt><trkpt lat="45.8811403" lon="9.0895329"><ele>1074.0</ele><time>2026-04-04T15:24:11.496Z</time></trkpt><trkpt lat="45.8812145" lon="9.0895495"><ele>1070.5</ele><time>2026-04-04T15:24:12.494Z</time></trkpt><trkpt lat="45.8812837" lon="9.0895567"><ele>1067.0</ele><time>2026-04-04T15:24:13.497Z</time></trkpt><trkpt lat="45.881366" lon="9.0895827"><ele>1063.5</ele><time>2026-04-04T15:24:14.493Z</time></trkpt><trkpt lat="45.881438" lon="9.0895945"><ele>1060.0</ele><time>2026-04-04T15:24:15.495Z</time></trkpt><trkpt lat="45.8815423" lon="9.0895858"><ele>1056.5</ele><time>2026-04-04T15:24:17.497Z</time></trkpt><trkpt lat="45.8816227" lon="9.0896054"><ele>1053.0</ele><time>2026-04-04T15:24:19.497Z</time></trkpt><trkpt lat="45.88169" lon="9.0896443"><ele>1053.0</ele><time>2026-04-04T15:24:21.496Z</time></trkpt><trkpt lat="45.8817431" lon="9.0897267"><ele>1053.0</ele><time>2026-04-04T15:24:23.497Z</time></trkpt><trkpt lat="45.881797" lon="9.0898518"><ele>1053.0</ele><time>2026-04-04T15:24:25.497Z</time></trkpt><trkpt lat="45.8818623" lon="9.0899993"><ele>1053.0</ele><time>2026-04-04T15:24:27.497Z</time></trkpt><trkpt lat="45.8819036" lon="9.0900847"><ele>1053.0</ele><time>2026-04-04T15:24:28.496Z</time></trkpt><trkpt lat="45.8819377" lon="9.0901738"><ele>1053.0</ele><time>2026-04-04T15:24:29.495Z</time></trkpt><trkpt lat="45.8819739" lon="9.0902699"><ele>1053.8571428571427</ele><time>2026-04-04T15:24:30.494Z</time></trkpt><trkpt lat="45.882003" lon="9.0903635"><ele>1054.7142857142858</ele><time>2026-04-04T15:24:31.496Z</time></trkpt><trkpt lat="45.8820324" lon="9.0904522"><ele>1055.5714285714284</ele><time>2026-04-04T15:24:32.496Z</time></trkpt><trkpt lat="45.8820686" lon="9.0905276"><ele>1056.4285714285713</ele><time>2026-04-04T15:24:33.496Z</time></trkpt><trkpt lat="45.8821041" lon="9.0906033"><ele>1057.2857142857142</ele><time>2026-04-04T15:24:34.496Z</time></trkpt><trkpt lat="45.8821409" lon="9.0906789"><ele>1058.142857142857</ele><time>2026-04-04T15:24:35.497Z</time></trkpt><trkpt lat="45.8821762" lon="9.0907594"><ele>1059.0</ele><time>2026-04-04T15:24:36.497Z</time></trkpt><trkpt lat="45.8822444" lon="9.0909072"><ele>1059.0</ele><time>2026-04-04T15:24:38.495Z</time></trkpt><trkpt lat="45.8822814" lon="9.0909902"><ele>1059.0</ele><time>2026-04-04T15:24:39.495Z</time></trkpt><trkpt lat="45.8823156" lon="9.0910786"><ele>1059.0</ele><time>2026-04-04T15:24:40.495Z</time></trkpt><trkpt lat="45.882352" lon="9.0911679"><ele>1059.0</ele><time>2026-04-04T15:24:41.497Z</time></trkpt><trkpt lat="45.8823873" lon="9.0912547"><ele>1059.0</ele><time>2026-04-04T15:24:42.497Z</time></trkpt><trkpt lat="45.8824247" lon="9.0913376"><ele>1059.0</ele><time>2026-04-04T15:24:43.497Z</time></trkpt><trkpt lat="45.8824585" lon="9.0914232"><ele>1059.0</ele><time>2026-04-04T15:24:44.497Z</time></trkpt><trkpt lat="45.8825049" lon="9.0915079"><ele>1061.5</ele><time>2026-04-04T15:24:45.497Z</time></trkpt><trkpt lat="45.8825297" lon="9.0915922"><ele>1064.0</ele><time>2026-04-04T15:24:46.497Z</time></trkpt><trkpt lat="45.8825868" lon="9.0917406"><ele>1066.5</ele><time>2026-04-04T15:24:48.496Z</time></trkpt><trkpt lat="45.8826176" lon="9.0918366"><ele>1069.0</ele><time>2026-04-04T15:24:49.497Z</time></trkpt><trkpt lat="45.8826566" lon="9.0919463"><ele>1071.5</ele><time>2026-04-04T15:24:50.497Z</time></trkpt><trkpt lat="45.8826911" lon="9.0920538"><ele>1074.0</ele><time>2026-04-04T15:24:51.497Z</time></trkpt><trkpt lat="45.8827301" lon="9.0921582"><ele>1070.0</ele><time>2026-04-04T15:24:52.495Z</time></trkpt><trkpt lat="45.8827726" lon="9.0922696"><ele>1066.0</ele><time>2026-04-04T15:24:53.496Z</time></trkpt><trkpt lat="45.8828153" lon="9.0923856"><ele>1062.0</ele><time>2026-04-04T15:24:54.496Z</time></trkpt><trkpt lat="45.882865" lon="9.0925096"><ele>1058.0</ele><time>2026-04-04T15:24:55.497Z</time></trkpt><trkpt lat="45.882904" lon="9.0926116"><ele>1054.0</ele><time>2026-04-04T15:24:56.497Z</time></trkpt><trkpt lat="45.882944" lon="9.092711"><ele>1050.0</ele><time>2026-04-04T15:24:57.497Z</time></trkpt><trkpt lat="45.8829835" lon="9.0928024"><ele>1050.0</ele><time>2026-04-04T15:24:58.495Z</time></trkpt><trkpt lat="45.8830274" lon="9.0928946"><ele>1050.0</ele><time>2026-04-04T15:24:59.497Z</time></trkpt><trkpt lat="45.8830635" lon="9.0929828"><ele>1050.0</ele><time>2026-04-04T15:25:00.496Z</time></trkpt><trkpt lat="45.8830971" lon="9.0930621"><ele>1050.0</ele><time>2026-04-04T15:25:01.494Z</time></trkpt><trkpt lat="45.8831301" lon="9.0931466"><ele>1050.0</ele><time>2026-04-04T15:25:02.493Z</time></trkpt><trkpt lat="45.8831733" lon="9.093309"><ele>1050.0</ele><time>2026-04-04T15:25:04.497Z</time></trkpt><trkpt lat="45.883205" lon="9.0934612"><ele>1051.6666666666667</ele><time>2026-04-04T15:25:06.495Z</time></trkpt><trkpt lat="45.8832117" lon="9.0936006"><ele>1053.3333333333333</ele><time>2026-04-04T15:25:08.497Z</time></trkpt><trkpt lat="45.8832157" lon="9.0937326"><ele>1055.0</ele><time>2026-04-04T15:25:10.497Z</time></trkpt><trkpt lat="45.8832118" lon="9.0938284"><ele>1056.6666666666665</ele><time>2026-04-04T15:25:12.497Z</time></trkpt><trkpt lat="45.8831641" lon="9.0939136"><ele>1058.3333333333333</ele><time>2026-04-04T15:25:14.495Z</time></trkpt><trkpt lat="45.8830794" lon="9.0940003"><ele>1060.0</ele><time>2026-04-04T15:25:16.497Z</time></trkpt><trkpt lat="45.8829929" lon="9.0940808"><ele>1057.6</ele><time>2026-04-04T15:25:18.495Z</time></trkpt><trkpt lat="45.8828921" lon="9.0941824"><ele>1055.2</ele><time>2026-04-04T15:25:20.497Z</time></trkpt><trkpt lat="45.8827884" lon="9.0942809"><ele>1052.8</ele><time>2026-04-04T15:25:22.496Z</time></trkpt><trkpt lat="45.8827353" lon="9.0943319"><ele>1050.4</ele><time>2026-04-04T15:25:23.497Z</time></trkpt><trkpt lat="45.8826342" lon="9.0944403"><ele>1048.0</ele><time>2026-04-04T15:25:25.497Z</time></trkpt><trkpt lat="45.8825393" lon="9.0945471"><ele>1048.5</ele><time>2026-04-04T15:25:27.494Z</time></trkpt><trkpt lat="45.8824792" lon="9.0946055"><ele>1049.0</ele><time>2026-04-04T15:25:28.497Z</time></trkpt><trkpt lat="45.8824207" lon="9.0946651"><ele>1049.5</ele><time>2026-04-04T15:25:29.497Z</time></trkpt><trkpt lat="45.8823643" lon="9.094729"><ele>1050.0</ele><time>2026-04-04T15:25:30.496Z</time></trkpt><trkpt lat="45.8822782" lon="9.094852"><ele>1050.5</ele><time>2026-04-04T15:25:32.497Z</time></trkpt><trkpt lat="45.8822333" lon="9.0949198"><ele>1051.0</ele><time>2026-04-04T15:25:33.497Z</time></trkpt><trkpt lat="45.8821874" lon="9.0949849"><ele>1051.0</ele><time>2026-04-04T15:25:34.496Z</time></trkpt><trkpt lat="45.8820901" lon="9.0950943"><ele>1051.0</ele><time>2026-04-04T15:25:36.494Z</time></trkpt><trkpt lat="45.8819869" lon="9.0951821"><ele>1051.0</ele><time>2026-04-04T15:25:38.496Z</time></trkpt><trkpt lat="45.8818972" lon="9.0952536"><ele>1051.0</ele><time>2026-04-04T15:25:40.496Z</time></trkpt><trkpt lat="45.8818612" lon="9.0953379"><ele>1051.0</ele><time>2026-04-04T15:25:42.495Z</time></trkpt><trkpt lat="45.8819051" lon="9.0954432"><ele>1051.0</ele><time>2026-04-04T15:25:45.497Z</time></trkpt><trkpt lat="45.8819732" lon="9.0955067"><ele>1051.0</ele><time>2026-04-04T15:25:46.497Z</time></trkpt><trkpt lat="45.8820319" lon="9.0955736"><ele>1051.0</ele><time>2026-04-04T15:25:47.497Z</time></trkpt><trkpt lat="45.8820874" lon="9.0956469"><ele>1051.0</ele><time>2026-04-04T15:25:48.497Z</time></trkpt><trkpt lat="45.8821554" lon="9.0957188"><ele>1051.0</ele><time>2026-04-04T15:25:49.497Z</time></trkpt><trkpt lat="45.8822133" lon="9.0957775"><ele>1051.0</ele><time>2026-04-04T15:25:50.495Z</time></trkpt><trkpt lat="45.8822794" lon="9.0958296"><ele>1050.1666666666665</ele><time>2026-04-04T15:25:51.497Z</time></trkpt><trkpt lat="45.8823522" lon="9.0958767"><ele>1049.3333333333333</ele><time>2026-04-04T15:25:52.497Z</time></trkpt><trkpt lat="45.8824217" lon="9.0959106"><ele>1048.5</ele><time>2026-04-04T15:25:53.497Z</time></trkpt><trkpt lat="45.8824884" lon="9.0959381"><ele>1047.6666666666667</ele><time>2026-04-04T15:25:54.496Z</time></trkpt><trkpt lat="45.882561" lon="9.0959702"><ele>1046.8333333333335</ele><time>2026-04-04T15:25:55.497Z</time></trkpt><trkpt lat="45.8826842" lon="9.09603"><ele>1046.0</ele><time>2026-04-04T15:25:57.496Z</time></trkpt><trkpt lat="45.8827672" lon="9.0960845"><ele>1042.0</ele><time>2026-04-04T15:25:58.495Z</time></trkpt><trkpt lat="45.8828287" lon="9.0961055"><ele>1038.0</ele><time>2026-04-04T15:25:59.497Z</time></trkpt><trkpt lat="45.882922" lon="9.0961495"><ele>1034.0</ele><time>2026-04-04T15:26:00.497Z</time></trkpt><trkpt lat="45.8830099" lon="9.0962065"><ele>1030.0</ele><time>2026-04-04T15:26:01.497Z</time></trkpt><trkpt lat="45.8831044" lon="9.0962697"><ele>1026.0</ele><time>2026-04-04T15:26:02.495Z</time></trkpt><trkpt lat="45.8831943" lon="9.0963291"><ele>1026.0</ele><time>2026-04-04T15:26:03.495Z</time></trkpt><trkpt lat="45.8832885" lon="9.0963962"><ele>1026.0</ele><time>2026-04-04T15:26:04.497Z</time></trkpt><trkpt lat="45.8833875" lon="9.0964601"><ele>1026.0</ele><time>2026-04-04T15:26:05.494Z</time></trkpt><trkpt lat="45.8834814" lon="9.0965234"><ele>1026.0</ele><time>2026-04-04T15:26:06.497Z</time></trkpt><trkpt lat="45.8835679" lon="9.0965667"><ele>1026.0</ele><time>2026-04-04T15:26:07.496Z</time></trkpt><trkpt lat="45.8836631" lon="9.0966071"><ele>1027.8333333333333</ele><time>2026-04-04T15:26:08.497Z</time></trkpt><trkpt lat="45.8837499" lon="9.0966568"><ele>1029.6666666666667</ele><time>2026-04-04T15:26:09.496Z</time></trkpt><trkpt lat="45.8838382" lon="9.0966905"><ele>1031.5</ele><time>2026-04-04T15:26:10.497Z</time></trkpt><trkpt lat="45.883928" lon="9.0967296"><ele>1033.3333333333335</ele><time>2026-04-04T15:26:11.497Z</time></trkpt><trkpt lat="45.8840014" lon="9.0967666"><ele>1035.1666666666667</ele><time>2026-04-04T15:26:12.497Z</time></trkpt><trkpt lat="45.8840727" lon="9.0968013"><ele>1037.0</ele><time>2026-04-04T15:26:13.497Z</time></trkpt><trkpt lat="45.8841537" lon="9.0968501"><ele>1037.0</ele><time>2026-04-04T15:26:14.495Z</time></trkpt><trkpt lat="45.884217" lon="9.096895"><ele>1037.0</ele><time>2026-04-04T15:26:15.497Z</time></trkpt><trkpt lat="45.8842759" lon="9.0969361"><ele>1037.0</ele><time>2026-04-04T15:26:16.497Z</time></trkpt><trkpt lat="45.8843667" lon="9.0969975"><ele>1037.0</ele><time>2026-04-04T15:26:18.495Z</time></trkpt><trkpt lat="45.8844568" lon="9.09712"><ele>1037.0</ele><time>2026-04-04T15:26:20.496Z</time></trkpt><trkpt lat="45.8845117" lon="9.0972077"><ele>1037.0</ele><time>2026-04-04T15:26:21.495Z</time></trkpt><trkpt lat="45.884586" lon="9.0973156"><ele>1036.3333333333335</ele><time>2026-04-04T15:26:22.497Z</time></trkpt><trkpt lat="45.8846516" lon="9.0974081"><ele>1035.6666666666667</ele><time>2026-04-04T15:26:23.493Z</time></trkpt><trkpt lat="45.8847254" lon="9.0974752"><ele>1035.0</ele><time>2026-04-04T15:26:24.494Z</time></trkpt><trkpt lat="45.8847905" lon="9.0975382"><ele>1034.3333333333333</ele><time>2026-04-04T15:26:25.494Z</time></trkpt><trkpt lat="45.8848478" lon="9.0976118"><ele>1033.6666666666665</ele><time>2026-04-04T15:26:26.497Z</time></trkpt><trkpt lat="45.8849073" lon="9.0976847"><ele>1033.0</ele><time>2026-04-04T15:26:27.494Z</time></trkpt><trkpt lat="45.8849591" lon="9.0977457"><ele>1033.0</ele><time>2026-04-04T15:26:28.493Z</time></trkpt><trkpt lat="45.885015" lon="9.0977937"><ele>1033.0</ele><time>2026-04-04T15:26:29.497Z</time></trkpt><trkpt lat="45.8850774" lon="9.0978268"><ele>1033.0</ele><time>2026-04-04T15:26:30.497Z</time></trkpt><trkpt lat="45.885138" lon="9.0978577"><ele>1033.0</ele><time>2026-04-04T15:26:31.494Z</time></trkpt><trkpt lat="45.8851984" lon="9.0978905"><ele>1033.0</ele><time>2026-04-04T15:26:32.497Z</time></trkpt><trkpt lat="45.8853139" lon="9.0979204"><ele>1033.0</ele><time>2026-04-04T15:26:34.497Z</time></trkpt><trkpt lat="45.8854245" lon="9.0979371"><ele>1030.2</ele><time>2026-04-04T15:26:36.497Z</time></trkpt><trkpt lat="45.8855326" lon="9.0980172"><ele>1027.4</ele><time>2026-04-04T15:26:38.496Z</time></trkpt><trkpt lat="45.8856226" lon="9.0981425"><ele>1024.6000000000001</ele><time>2026-04-04T15:26:40.494Z</time></trkpt><trkpt lat="45.8857107" lon="9.0982381"><ele>1021.8000000000001</ele><time>2026-04-04T15:26:42.497Z</time></trkpt><trkpt lat="45.8857975" lon="9.0982494"><ele>1019.0</ele><time>2026-04-04T15:26:44.497Z</time></trkpt><trkpt lat="45.8858746" lon="9.0981795"><ele>1019.0000000000001</ele><time>2026-04-04T15:26:46.492Z</time></trkpt><trkpt lat="45.8858815" lon="9.0980619"><ele>1019.0</ele><time>2026-04-04T15:26:48.497Z</time></trkpt><trkpt lat="45.8859384" lon="9.0979944"><ele>1019.0</ele><time>2026-04-04T15:26:49.497Z</time></trkpt><trkpt lat="45.8859932" lon="9.0979437"><ele>1019.0</ele><time>2026-04-04T15:26:50.497Z</time></trkpt><trkpt lat="45.8860588" lon="9.097866"><ele>1019.0000000000001</ele><time>2026-04-04T15:26:51.497Z</time></trkpt><trkpt lat="45.8861238" lon="9.0977946"><ele>1019.0</ele><time>2026-04-04T15:26:52.492Z</time></trkpt><trkpt lat="45.8861811" lon="9.0977267"><ele>1021.0000000000001</ele><time>2026-04-04T15:26:53.49Z</time></trkpt><trkpt lat="45.8862391" lon="9.0976555"><ele>1023.0</ele><time>2026-04-04T15:26:54.493Z</time></trkpt><trkpt lat="45.8862991" lon="9.0975972"><ele>1025.0</ele><time>2026-04-04T15:26:55.497Z</time></trkpt><trkpt lat="45.8863689" lon="9.0975357"><ele>1027.0</ele><time>2026-04-04T15:26:56.494Z</time></trkpt><trkpt lat="45.8864359" lon="9.097476"><ele>1029.0</ele><time>2026-04-04T15:26:57.497Z</time></trkpt><trkpt lat="45.8864993" lon="9.0974186"><ele>1031.0</ele><time>2026-04-04T15:26:58.492Z</time></trkpt><trkpt lat="45.8865606" lon="9.0973663"><ele>1029.6666666666667</ele><time>2026-04-04T15:26:59.492Z</time></trkpt><trkpt lat="45.8866645" lon="9.097333"><ele>1028.3333333333335</ele><time>2026-04-04T15:27:01.494Z</time></trkpt><trkpt lat="45.8867922" lon="9.097313"><ele>1027.0</ele><time>2026-04-04T15:27:03.496Z</time></trkpt><trkpt lat="45.8868587" lon="9.0973279"><ele>1025.6666666666667</ele><time>2026-04-04T15:27:04.496Z</time></trkpt><trkpt lat="45.8869248" lon="9.0973443"><ele>1024.3333333333333</ele><time>2026-04-04T15:27:05.494Z</time></trkpt><trkpt lat="45.8869898" lon="9.0973748"><ele>1023.0</ele><time>2026-04-04T15:27:06.496Z</time></trkpt><trkpt lat="45.8870673" lon="9.0974203"><ele>1023.0</ele><time>2026-04-04T15:27:07.497Z</time></trkpt><trkpt lat="45.8871404" lon="9.097461"><ele>1023.0</ele><time>2026-04-04T15:27:08.494Z</time></trkpt><trkpt lat="45.8872165" lon="9.0975124"><ele>1023.0</ele><time>2026-04-04T15:27:09.497Z</time></trkpt><trkpt lat="45.8872854" lon="9.0975605"><ele>1023.0</ele><time>2026-04-04T15:27:10.492Z</time></trkpt><trkpt lat="45.8873709" lon="9.0976429"><ele>1023.0</ele><time>2026-04-04T15:27:11.497Z</time></trkpt><trkpt lat="45.8874635" lon="9.0977139"><ele>1023.0</ele><time>2026-04-04T15:27:12.497Z</time></trkpt><trkpt lat="45.8875516" lon="9.0977776"><ele>1020.4</ele><time>2026-04-04T15:27:13.497Z</time></trkpt><trkpt lat="45.8876326" lon="9.097822"><ele>1017.8</ele><time>2026-04-04T15:27:14.494Z</time></trkpt><trkpt lat="45.8877171" lon="9.0978907"><ele>1015.2</ele><time>2026-04-04T15:27:15.496Z</time></trkpt><trkpt lat="45.8878074" lon="9.0979759"><ele>1012.6</ele><time>2026-04-04T15:27:16.497Z</time></trkpt><trkpt lat="45.8878982" lon="9.0980511"><ele>1010.0</ele><time>2026-04-04T15:27:17.497Z</time></trkpt><trkpt lat="45.8879806" lon="9.0981194"><ele>1010.0</ele><time>2026-04-04T15:27:18.497Z</time></trkpt><trkpt lat="45.8880643" lon="9.0981793"><ele>1010.0</ele><time>2026-04-04T15:27:19.495Z</time></trkpt><trkpt lat="45.888149" lon="9.0982195"><ele>1010.0</ele><time>2026-04-04T15:27:20.495Z</time></trkpt><trkpt lat="45.8882319" lon="9.0982652"><ele>1010.0</ele><time>2026-04-04T15:27:21.492Z</time></trkpt><trkpt lat="45.8883207" lon="9.0983082"><ele>1010.0</ele><time>2026-04-04T15:27:22.495Z</time></trkpt><trkpt lat="45.8884044" lon="9.0983576"><ele>1011.4</ele><time>2026-04-04T15:27:23.497Z</time></trkpt><trkpt lat="45.8884776" lon="9.0983901"><ele>1012.8</ele><time>2026-04-04T15:27:24.495Z</time></trkpt><trkpt lat="45.8885466" lon="9.0984214"><ele>1014.2</ele><time>2026-04-04T15:27:25.491Z</time></trkpt><trkpt lat="45.8886453" lon="9.0984436"><ele>1015.6</ele><time>2026-04-04T15:27:27.494Z</time></trkpt><trkpt lat="45.8887282" lon="9.0985238"><ele>1017.0</ele><time>2026-04-04T15:27:29.497Z</time></trkpt><trkpt lat="45.8888029" lon="9.098658"><ele>1017.0</ele><time>2026-04-04T15:27:31.497Z</time></trkpt><trkpt lat="45.8888457" lon="9.0987381"><ele>1017.0</ele><time>2026-04-04T15:27:32.497Z</time></trkpt><trkpt lat="45.8889003" lon="9.0988258"><ele>1017.0</ele><time>2026-04-04T15:27:33.492Z</time></trkpt><trkpt lat="45.8889499" lon="9.0989042"><ele>1017.0</ele><time>2026-04-04T15:27:34.495Z</time></trkpt><trkpt lat="45.8890005" lon="9.0989808"><ele>1017.0</ele><time>2026-04-04T15:27:35.492Z</time></trkpt><trkpt lat="45.8890531" lon="9.0990593"><ele>1017.0</ele><time>2026-04-04T15:27:36.494Z</time></trkpt><trkpt lat="45.8891057" lon="9.0991413"><ele>1014.6666666666666</ele><time>2026-04-04T15:27:37.497Z</time></trkpt><trkpt lat="45.8891595" lon="9.0992244"><ele>1012.3333333333333</ele><time>2026-04-04T15:27:38.497Z</time></trkpt><trkpt lat="45.8891998" lon="9.0993116"><ele>1010.0</ele><time>2026-04-04T15:27:39.497Z</time></trkpt><trkpt lat="45.8892449" lon="9.0994042"><ele>1007.6666666666666</ele><time>2026-04-04T15:27:40.492Z</time></trkpt><trkpt lat="45.8892913" lon="9.0994981"><ele>1005.3333333333333</ele><time>2026-04-04T15:27:41.497Z</time></trkpt><trkpt lat="45.8893367" lon="9.0995953"><ele>1003.0</ele><time>2026-04-04T15:27:42.496Z</time></trkpt><trkpt lat="45.8893809" lon="9.0996985"><ele>1002.9999999999999</ele><time>2026-04-04T15:27:43.495Z</time></trkpt><trkpt lat="45.8894263" lon="9.0998047"><ele>1003.0</ele><time>2026-04-04T15:27:44.492Z</time></trkpt><trkpt lat="45.8894656" lon="9.0998919"><ele>1003.0</ele><time>2026-04-04T15:27:45.495Z</time></trkpt><trkpt lat="45.8895123" lon="9.100003"><ele>1003.0</ele><time>2026-04-04T15:27:46.493Z</time></trkpt><trkpt lat="45.8895499" lon="9.1000954"><ele>1002.9999999999999</ele><time>2026-04-04T15:27:47.495Z</time></trkpt><trkpt lat="45.889597" lon="9.1001781"><ele>1003.0</ele><time>2026-04-04T15:27:48.497Z</time></trkpt><trkpt lat="45.889649" lon="9.1002381"><ele>1004.4999999999999</ele><time>2026-04-04T15:27:49.492Z</time></trkpt><trkpt lat="45.889705" lon="9.1002844"><ele>1006.0</ele><time>2026-04-04T15:27:50.497Z</time></trkpt><trkpt lat="45.8897514" lon="9.1003525"><ele>1007.5</ele><time>2026-04-04T15:27:51.497Z</time></trkpt><trkpt lat="45.8897895" lon="9.1004294"><ele>1009.0</ele><time>2026-04-04T15:27:52.496Z</time></trkpt><trkpt lat="45.8898297" lon="9.1005022"><ele>1010.4999999999999</ele><time>2026-04-04T15:27:53.493Z</time></trkpt><trkpt lat="45.8899218" lon="9.1006049"><ele>1012.0</ele><time>2026-04-04T15:27:55.497Z</time></trkpt><trkpt lat="45.8899823" lon="9.1006685"><ele>1013.8</ele><time>2026-04-04T15:27:56.497Z</time></trkpt><trkpt lat="45.8900476" lon="9.1007598"><ele>1015.6</ele><time>2026-04-04T15:27:57.492Z</time></trkpt><trkpt lat="45.8901243" lon="9.1008637"><ele>1017.3999999999999</ele><time>2026-04-04T15:27:58.497Z</time></trkpt><trkpt lat="45.8901949" lon="9.1009675"><ele>1019.1999999999999</ele><time>2026-04-04T15:27:59.497Z</time></trkpt><trkpt lat="45.8902636" lon="9.1010697"><ele>1021.0</ele><time>2026-04-04T15:28:00.497Z</time></trkpt><trkpt lat="45.8903318" lon="9.1011661"><ele>1021.0</ele><time>2026-04-04T15:28:01.494Z</time></trkpt><trkpt lat="45.8904113" lon="9.1012621"><ele>1020.9999999999999</ele><time>2026-04-04T15:28:02.495Z</time></trkpt><trkpt lat="45.8904819" lon="9.1013509"><ele>1020.9999999999999</ele><time>2026-04-04T15:28:03.497Z</time></trkpt><trkpt lat="45.8905495" lon="9.1014328"><ele>1021.0</ele><time>2026-04-04T15:28:04.497Z</time></trkpt><trkpt lat="45.8906189" lon="9.1015238"><ele>1021.0</ele><time>2026-04-04T15:28:05.497Z</time></trkpt><trkpt lat="45.8906891" lon="9.101613"><ele>1023.1999999999999</ele><time>2026-04-04T15:28:06.497Z</time></trkpt><trkpt lat="45.8907545" lon="9.101691"><ele>1025.3999999999999</ele><time>2026-04-04T15:28:07.497Z</time></trkpt><trkpt lat="45.8908086" lon="9.1017667"><ele>1027.6</ele><time>2026-04-04T15:28:08.496Z</time></trkpt><trkpt lat="45.8908491" lon="9.1018509"><ele>1029.8</ele><time>2026-04-04T15:28:09.494Z</time></trkpt><trkpt lat="45.8909234" lon="9.1020006"><ele>1032.0</ele><time>2026-04-04T15:28:11.496Z</time></trkpt><trkpt lat="45.891001" lon="9.1021228"><ele>1038.4</ele><time>2026-04-04T15:28:13.495Z</time></trkpt><trkpt lat="45.891078" lon="9.1022138"><ele>1044.8000000000002</ele><time>2026-04-04T15:28:15.496Z</time></trkpt><trkpt lat="45.8911763" lon="9.1022347"><ele>1051.2</ele><time>2026-04-04T15:28:17.496Z</time></trkpt><trkpt lat="45.8911935" lon="9.1021308"><ele>1057.6000000000001</ele><time>2026-04-04T15:28:19.497Z</time></trkpt><trkpt lat="45.8911877" lon="9.1020232"><ele>1064.0</ele><time>2026-04-04T15:28:21.496Z</time></trkpt><trkpt lat="45.8911852" lon="9.1018727"><ele>1064.0</ele><time>2026-04-04T15:28:23.494Z</time></trkpt><trkpt lat="45.8912149" lon="9.1016945"><ele>1064.0</ele><time>2026-04-04T15:28:25.496Z</time></trkpt><trkpt lat="45.8912282" lon="9.1015866"><ele>1064.0</ele><time>2026-04-04T15:28:26.493Z</time></trkpt><trkpt lat="45.8912485" lon="9.1014882"><ele>1064.0</ele><time>2026-04-04T15:28:27.497Z</time></trkpt><trkpt lat="45.8912743" lon="9.1014055"><ele>1064.0</ele><time>2026-04-04T15:28:28.493Z</time></trkpt><trkpt lat="45.8913116" lon="9.101232"><ele>1064.0</ele><time>2026-04-04T15:28:30.497Z</time></trkpt><trkpt lat="45.8913191" lon="9.101141"><ele>1064.0</ele><time>2026-04-04T15:28:31.494Z</time></trkpt><trkpt lat="45.8913261" lon="9.1010333"><ele>1064.0</ele><time>2026-04-04T15:28:32.497Z</time></trkpt><trkpt lat="45.891316" lon="9.1008547"><ele>1064.0</ele><time>2026-04-04T15:28:34.496Z</time></trkpt><trkpt lat="45.8913221" lon="9.1007531"><ele>1064.0</ele><time>2026-04-04T15:28:35.496Z</time></trkpt><trkpt lat="45.8913263" lon="9.1006578"><ele>1064.0</ele><time>2026-04-04T15:28:36.494Z</time></trkpt><trkpt lat="45.8913134" lon="9.1005639"><ele>1064.0</ele><time>2026-04-04T15:28:37.497Z</time></trkpt><trkpt lat="45.8913081" lon="9.100439"><ele>1064.0</ele><time>2026-04-04T15:28:38.497Z</time></trkpt><trkpt lat="45.891296" lon="9.1003251"><ele>1064.0</ele><time>2026-04-04T15:28:39.497Z</time></trkpt><trkpt lat="45.8912875" lon="9.1002089"><ele>1064.0</ele><time>2026-04-04T15:28:40.495Z</time></trkpt><trkpt lat="45.8912848" lon="9.1000808"><ele>1064.0</ele><time>2026-04-04T15:28:41.497Z</time></trkpt><trkpt lat="45.8912889" lon="9.0999661"><ele>1064.0</ele><time>2026-04-04T15:28:42.497Z</time></trkpt><trkpt lat="45.8912948" lon="9.0998571"><ele>1063.0</ele><time>2026-04-04T15:28:43.497Z</time></trkpt><trkpt lat="45.8913049" lon="9.0997597"><ele>1062.0</ele><time>2026-04-04T15:28:44.497Z</time></trkpt><trkpt lat="45.8913197" lon="9.099651"><ele>1061.0</ele><time>2026-04-04T15:28:45.497Z</time></trkpt><trkpt lat="45.8913333" lon="9.0995589"><ele>1060.0</ele><time>2026-04-04T15:28:46.495Z</time></trkpt><trkpt lat="45.8913609" lon="9.099401"><ele>1059.0</ele><time>2026-04-04T15:28:48.496Z</time></trkpt><trkpt lat="45.8913905" lon="9.0993191"><ele>1058.0</ele><time>2026-04-04T15:28:49.497Z</time></trkpt><trkpt lat="45.8914161" lon="9.0992302"><ele>1058.0</ele><time>2026-04-04T15:28:50.497Z</time></trkpt><trkpt lat="45.8914909" lon="9.0990986"><ele>1058.0</ele><time>2026-04-04T15:28:52.495Z</time></trkpt><trkpt lat="45.891548" lon="9.0989559"><ele>1058.0</ele><time>2026-04-04T15:28:54.493Z</time></trkpt><trkpt lat="45.8915394" lon="9.098797"><ele>1058.0</ele><time>2026-04-04T15:28:56.496Z</time></trkpt><trkpt lat="45.8915129" lon="9.0987063"><ele>1058.0</ele><time>2026-04-04T15:28:57.497Z</time></trkpt><trkpt lat="45.8914767" lon="9.098596"><ele>1057.5</ele><time>2026-04-04T15:28:58.496Z</time></trkpt><trkpt lat="45.8914422" lon="9.098475"><ele>1057.0</ele><time>2026-04-04T15:28:59.496Z</time></trkpt><trkpt lat="45.8914091" lon="9.0983531"><ele>1056.5</ele><time>2026-04-04T15:29:00.494Z</time></trkpt><trkpt lat="45.8913845" lon="9.0982444"><ele>1056.0</ele><time>2026-04-04T15:29:01.494Z</time></trkpt><trkpt lat="45.891367" lon="9.0981412"><ele>1055.5</ele><time>2026-04-04T15:29:02.496Z</time></trkpt><trkpt lat="45.8913592" lon="9.0980382"><ele>1055.0</ele><time>2026-04-04T15:29:03.494Z</time></trkpt><trkpt lat="45.8913531" lon="9.0979327"><ele>1054.6666666666667</ele><time>2026-04-04T15:29:04.497Z</time></trkpt><trkpt lat="45.891356" lon="9.0978356"><ele>1054.3333333333335</ele><time>2026-04-04T15:29:05.496Z</time></trkpt><trkpt lat="45.8913703" lon="9.0977373"><ele>1054.0</ele><time>2026-04-04T15:29:06.497Z</time></trkpt><trkpt lat="45.8913981" lon="9.0975782"><ele>1053.6666666666667</ele><time>2026-04-04T15:29:08.493Z</time></trkpt><trkpt lat="45.8914197" lon="9.09741"><ele>1053.3333333333333</ele><time>2026-04-04T15:29:10.497Z</time></trkpt><trkpt lat="45.8914401" lon="9.0973085"><ele>1053.0</ele><time>2026-04-04T15:29:11.497Z</time></trkpt><trkpt lat="45.8914324" lon="9.0971838"><ele>1052.3333333333333</ele><time>2026-04-04T15:29:12.496Z</time></trkpt><trkpt lat="45.8914302" lon="9.0970606"><ele>1051.6666666666667</ele><time>2026-04-04T15:29:13.497Z</time></trkpt><trkpt lat="45.891422" lon="9.0969403"><ele>1051.0</ele><time>2026-04-04T15:29:14.497Z</time></trkpt><trkpt lat="45.8914193" lon="9.0968267"><ele>1050.3333333333335</ele><time>2026-04-04T15:29:15.494Z</time></trkpt><trkpt lat="45.8914243" lon="9.0967107"><ele>1049.6666666666667</ele><time>2026-04-04T15:29:16.495Z</time></trkpt><trkpt lat="45.8914296" lon="9.0965969"><ele>1049.0</ele><time>2026-04-04T15:29:17.494Z</time></trkpt><trkpt lat="45.8914427" lon="9.0964875"><ele>1047.6000000000001</ele><time>2026-04-04T15:29:18.496Z</time></trkpt><trkpt lat="45.8914391" lon="9.096363"><ele>1046.2</ele><time>2026-04-04T15:29:19.497Z</time></trkpt><trkpt lat="45.8914377" lon="9.0962323"><ele>1044.8000000000002</ele><time>2026-04-04T15:29:20.494Z</time></trkpt><trkpt lat="45.8914291" lon="9.0960999"><ele>1043.4</ele><time>2026-04-04T15:29:21.497Z</time></trkpt><trkpt lat="45.8914133" lon="9.0959797"><ele>1042.0</ele><time>2026-04-04T15:29:22.497Z</time></trkpt><trkpt lat="45.8914019" lon="9.0958381"><ele>1040.1666666666665</ele><time>2026-04-04T15:29:23.497Z</time></trkpt><trkpt lat="45.8913963" lon="9.0957134"><ele>1038.3333333333333</ele><time>2026-04-04T15:29:24.494Z</time></trkpt><trkpt lat="45.8913818" lon="9.0955871"><ele>1036.5</ele><time>2026-04-04T15:29:25.495Z</time></trkpt><trkpt lat="45.8913734" lon="9.095471"><ele>1034.6666666666667</ele><time>2026-04-04T15:29:26.495Z</time></trkpt><trkpt lat="45.8913626" lon="9.0953686"><ele>1032.8333333333335</ele><time>2026-04-04T15:29:27.497Z</time></trkpt><trkpt lat="45.8913394" lon="9.0952124"><ele>1031.0</ele><time>2026-04-04T15:29:29.497Z</time></trkpt><trkpt lat="45.8913361" lon="9.0951098"><ele>1031.0</ele><time>2026-04-04T15:29:32.49Z</time></trkpt><trkpt lat="45.8913169" lon="9.0950003"><ele>1031.0</ele><time>2026-04-04T15:29:37.497Z</time></trkpt><trkpt lat="45.8912859" lon="9.0949051"><ele>1031.0</ele><time>2026-04-04T15:29:51.497Z</time></trkpt><trkpt lat="45.8912982" lon="9.0950006"><ele>1031.0</ele><time>2026-04-04T15:30:17.497Z</time></trkpt><trkpt lat="45.8913275" lon="9.0951413"><ele>1031.0</ele><time>2026-04-04T15:31:14.497Z</time></trkpt><trkpt lat="45.8913508" lon="9.0952904"><ele>1031.0</ele><time>2026-04-04T15:31:16.497Z</time></trkpt><trkpt lat="45.8913678" lon="9.095389"><ele>1031.0</ele><time>2026-04-04T15:31:17.495Z</time></trkpt><trkpt lat="45.8913802" lon="9.0954943"><ele>1031.0</ele><time>2026-04-04T15:31:18.491Z</time></trkpt><trkpt lat="45.8913873" lon="9.0956089"><ele>1031.0</ele><time>2026-04-04T15:31:19.497Z</time></trkpt><trkpt lat="45.8913976" lon="9.095719"><ele>1031.0</ele><time>2026-04-04T15:31:20.495Z</time></trkpt><trkpt lat="45.8914038" lon="9.0958246"><ele>1031.0</ele><time>2026-04-04T15:31:21.497Z</time></trkpt><trkpt lat="45.891417" lon="9.0959313"><ele>1031.0</ele><time>2026-04-04T15:31:22.496Z</time></trkpt><trkpt lat="45.8914254" lon="9.0960395"><ele>1032.5714285714284</ele><time>2026-04-04T15:31:23.497Z</time></trkpt><trkpt lat="45.8914303" lon="9.0961407"><ele>1034.142857142857</ele><time>2026-04-04T15:31:24.496Z</time></trkpt><trkpt lat="45.891434" lon="9.0962564"><ele>1035.7142857142858</ele><time>2026-04-04T15:31:25.497Z</time></trkpt><trkpt lat="45.8914363" lon="9.096363"><ele>1037.2857142857142</ele><time>2026-04-04T15:31:26.494Z</time></trkpt><trkpt lat="45.8914257" lon="9.0964523"><ele>1038.857142857143</ele><time>2026-04-04T15:31:27.496Z</time></trkpt><trkpt lat="45.8914236" lon="9.0965477"><ele>1040.4285714285713</ele><time>2026-04-04T15:31:28.497Z</time></trkpt><trkpt lat="45.8914266" lon="9.0966398"><ele>1042.0</ele><time>2026-04-04T15:31:29.497Z</time></trkpt><trkpt lat="45.8914152" lon="9.096733"><ele>1043.0</ele><time>2026-04-04T15:31:30.497Z</time></trkpt><trkpt lat="45.8914037" lon="9.0968281"><ele>1044.0</ele><time>2026-04-04T15:31:31.497Z</time></trkpt><trkpt lat="45.8913958" lon="9.0969241"><ele>1045.0</ele><time>2026-04-04T15:31:32.497Z</time></trkpt><trkpt lat="45.8914118" lon="9.0970447"><ele>1046.0</ele><time>2026-04-04T15:31:33.497Z</time></trkpt><trkpt lat="45.8914169" lon="9.0971438"><ele>1047.0</ele><time>2026-04-04T15:31:34.495Z</time></trkpt><trkpt lat="45.8914256" lon="9.0972397"><ele>1048.0</ele><time>2026-04-04T15:31:35.497Z</time></trkpt><trkpt lat="45.8914294" lon="9.0973325"><ele>1049.0</ele><time>2026-04-04T15:31:36.497Z</time></trkpt><trkpt lat="45.8914235" lon="9.0975148"><ele>1049.8</ele><time>2026-04-04T15:31:38.494Z</time></trkpt><trkpt lat="45.8913746" lon="9.0976597"><ele>1050.6000000000001</ele><time>2026-04-04T15:31:40.497Z</time></trkpt><trkpt lat="45.8913549" lon="9.0978289"><ele>1051.4</ele><time>2026-04-04T15:31:42.497Z</time></trkpt><trkpt lat="45.8913469" lon="9.0979345"><ele>1052.2</ele><time>2026-04-04T15:31:43.492Z</time></trkpt><trkpt lat="45.8913613" lon="9.0980404"><ele>1053.0</ele><time>2026-04-04T15:31:44.496Z</time></trkpt><trkpt lat="45.8913715" lon="9.098148"><ele>1053.3333333333333</ele><time>2026-04-04T15:31:45.492Z</time></trkpt><trkpt lat="45.8913813" lon="9.0982553"><ele>1053.6666666666667</ele><time>2026-04-04T15:31:46.493Z</time></trkpt><trkpt lat="45.8914104" lon="9.0983608"><ele>1054.0</ele><time>2026-04-04T15:31:47.492Z</time></trkpt><trkpt lat="45.8914395" lon="9.0984672"><ele>1054.3333333333335</ele><time>2026-04-04T15:31:48.497Z</time></trkpt><trkpt lat="45.8914736" lon="9.0985747"><ele>1054.6666666666667</ele><time>2026-04-04T15:31:49.491Z</time></trkpt><trkpt lat="45.8915023" lon="9.0986764"><ele>1055.0</ele><time>2026-04-04T15:31:50.492Z</time></trkpt><trkpt lat="45.8915365" lon="9.0987566"><ele>1055.0</ele><time>2026-04-04T15:31:51.494Z</time></trkpt><trkpt lat="45.8915635" lon="9.0989179"><ele>1055.0</ele><time>2026-04-04T15:31:53.496Z</time></trkpt><trkpt lat="45.8915281" lon="9.0990453"><ele>1055.0</ele><time>2026-04-04T15:31:55.494Z</time></trkpt><trkpt lat="45.8914481" lon="9.0991809"><ele>1055.0</ele><time>2026-04-04T15:31:57.491Z</time></trkpt><trkpt lat="45.8914179" lon="9.099262"><ele>1055.0</ele><time>2026-04-04T15:31:58.495Z</time></trkpt><trkpt lat="45.8913861" lon="9.0993491"><ele>1055.6</ele><time>2026-04-04T15:31:59.49Z</time></trkpt><trkpt lat="45.8913448" lon="9.0995156"><ele>1056.2</ele><time>2026-04-04T15:32:01.491Z</time></trkpt><trkpt lat="45.8913216" lon="9.0996835"><ele>1056.8</ele><time>2026-04-04T15:32:03.494Z</time></trkpt><trkpt lat="45.8913083" lon="9.099777"><ele>1057.4</ele><time>2026-04-04T15:32:04.491Z</time></trkpt><trkpt lat="45.8913001" lon="9.0998706"><ele>1058.0</ele><time>2026-04-04T15:32:05.491Z</time></trkpt><trkpt lat="45.8912907" lon="9.0999844"><ele>1059.0</ele><time>2026-04-04T15:32:06.497Z</time></trkpt><trkpt lat="45.8912866" lon="9.1001037"><ele>1060.0</ele><time>2026-04-04T15:32:07.497Z</time></trkpt><trkpt lat="45.8912892" lon="9.1002102"><ele>1061.0</ele><time>2026-04-04T15:32:08.497Z</time></trkpt><trkpt lat="45.8912914" lon="9.1003231"><ele>1062.0</ele><time>2026-04-04T15:32:09.493Z</time></trkpt><trkpt lat="45.8912985" lon="9.1004328"><ele>1063.0</ele><time>2026-04-04T15:32:10.494Z</time></trkpt><trkpt lat="45.8913076" lon="9.1005314"><ele>1064.0</ele><time>2026-04-04T15:32:11.497Z</time></trkpt><trkpt lat="45.8913212" lon="9.1006865"><ele>1064.8</ele><time>2026-04-04T15:32:13.489Z</time></trkpt><trkpt lat="45.8913133" lon="9.1008152"><ele>1065.6000000000001</ele><time>2026-04-04T15:32:15.496Z</time></trkpt><trkpt lat="45.8913044" lon="9.1009722"><ele>1066.4</ele><time>2026-04-04T15:32:17.494Z</time></trkpt><trkpt lat="45.8913102" lon="9.1011356"><ele>1067.2</ele><time>2026-04-04T15:32:19.497Z</time></trkpt><trkpt lat="45.8913173" lon="9.101275"><ele>1068.0</ele><time>2026-04-04T15:32:21.489Z</time></trkpt><trkpt lat="45.8912762" lon="9.1014035"><ele>1068.0</ele><time>2026-04-04T15:32:23.497Z</time></trkpt><trkpt lat="45.89124" lon="9.1015498"><ele>1068.0</ele><time>2026-04-04T15:32:25.495Z</time></trkpt><trkpt lat="45.8912138" lon="9.1017122"><ele>1068.0</ele><time>2026-04-04T15:32:27.497Z</time></trkpt><trkpt lat="45.8911944" lon="9.1018762"><ele>1068.0</ele><time>2026-04-04T15:32:29.497Z</time></trkpt><trkpt lat="45.8911992" lon="9.1020197"><ele>1068.0</ele><time>2026-04-04T15:32:31.497Z</time></trkpt><trkpt lat="45.8912144" lon="9.1021159"><ele>1067.2</ele><time>2026-04-04T15:32:33.497Z</time></trkpt><trkpt lat="45.8911871" lon="9.102214"><ele>1066.4</ele><time>2026-04-04T15:32:36.496Z</time></trkpt><trkpt lat="45.8910903" lon="9.1022169"><ele>1065.6000000000001</ele><time>2026-04-04T15:32:39.49Z</time></trkpt><trkpt lat="45.8909983" lon="9.1021648"><ele>1064.8</ele><time>2026-04-04T15:32:41.497Z</time></trkpt><trkpt lat="45.8909392" lon="9.1020471"><ele>1064.0</ele><time>2026-04-04T15:32:43.497Z</time></trkpt><trkpt lat="45.8908647" lon="9.1019061"><ele>1057.6000000000001</ele><time>2026-04-04T15:32:45.491Z</time></trkpt><trkpt lat="45.8907998" lon="9.1017795"><ele>1051.2</ele><time>2026-04-04T15:32:47.496Z</time></trkpt><trkpt lat="45.890712" lon="9.1016525"><ele>1044.8000000000002</ele><time>2026-04-04T15:32:49.491Z</time></trkpt><trkpt lat="45.8906563" lon="9.1015812"><ele>1038.4</ele><time>2026-04-04T15:32:50.495Z</time></trkpt><trkpt lat="45.8906021" lon="9.1015064"><ele>1032.0</ele><time>2026-04-04T15:32:51.496Z</time></trkpt><trkpt lat="45.8905393" lon="9.1014297"><ele>1030.1666666666667</ele><time>2026-04-04T15:32:52.493Z</time></trkpt><trkpt lat="45.8904792" lon="9.1013546"><ele>1028.3333333333333</ele><time>2026-04-04T15:32:53.493Z</time></trkpt><trkpt lat="45.8904198" lon="9.1012763"><ele>1026.5</ele><time>2026-04-04T15:32:54.495Z</time></trkpt><trkpt lat="45.8903613" lon="9.1011995"><ele>1024.6666666666665</ele><time>2026-04-04T15:32:55.496Z</time></trkpt><trkpt lat="45.8903027" lon="9.1011219"><ele>1022.8333333333333</ele><time>2026-04-04T15:32:56.495Z</time></trkpt><trkpt lat="45.8902468" lon="9.1010421"><ele>1021.0</ele><time>2026-04-04T15:32:57.497Z</time></trkpt><trkpt lat="45.8901827" lon="9.1009485"><ele>1021.0</ele><time>2026-04-04T15:32:58.494Z</time></trkpt><trkpt lat="45.8901138" lon="9.1008487"><ele>1020.9999999999999</ele><time>2026-04-04T15:32:59.496Z</time></trkpt><trkpt lat="45.8900493" lon="9.1007521"><ele>1020.9999999999999</ele><time>2026-04-04T15:33:00.497Z</time></trkpt><trkpt lat="45.8899841" lon="9.1006707"><ele>1021.0</ele><time>2026-04-04T15:33:01.494Z</time></trkpt><trkpt lat="45.8899243" lon="9.1006055"><ele>1021.0</ele><time>2026-04-04T15:33:02.496Z</time></trkpt><trkpt lat="45.8898224" lon="9.1004887"><ele>1019.1999999999999</ele><time>2026-04-04T15:33:04.494Z</time></trkpt><trkpt lat="45.8897452" lon="9.1003506"><ele>1017.3999999999999</ele><time>2026-04-04T15:33:06.494Z</time></trkpt><trkpt lat="45.8896924" lon="9.1002913"><ele>1015.6</ele><time>2026-04-04T15:33:07.494Z</time></trkpt><trkpt lat="45.889641" lon="9.1002272"><ele>1013.8</ele><time>2026-04-04T15:33:08.496Z</time></trkpt><trkpt lat="45.8895913" lon="9.1001681"><ele>1012.0</ele><time>2026-04-04T15:33:09.491Z</time></trkpt><trkpt lat="45.8895214" lon="9.1000046"><ele>1010.4999999999999</ele><time>2026-04-04T15:33:11.497Z</time></trkpt><trkpt lat="45.8894782" lon="9.0999143"><ele>1009.0</ele><time>2026-04-04T15:33:12.497Z</time></trkpt><trkpt lat="45.889429" lon="9.0998223"><ele>1007.5</ele><time>2026-04-04T15:33:13.497Z</time></trkpt><trkpt lat="45.8893823" lon="9.0997198"><ele>1006.0</ele><time>2026-04-04T15:33:14.492Z</time></trkpt><trkpt lat="45.8893437" lon="9.0996176"><ele>1004.4999999999999</ele><time>2026-04-04T15:33:15.497Z</time></trkpt><trkpt lat="45.8893032" lon="9.0995175"><ele>1003.0</ele><time>2026-04-04T15:33:16.497Z</time></trkpt><trkpt lat="45.889254" lon="9.0994232"><ele>1005.3333333333333</ele><time>2026-04-04T15:33:17.496Z</time></trkpt><trkpt lat="45.8892066" lon="9.0993357"><ele>1007.6666666666666</ele><time>2026-04-04T15:33:18.495Z</time></trkpt><trkpt lat="45.8891594" lon="9.0992475"><ele>1010.0</ele><time>2026-04-04T15:33:19.494Z</time></trkpt><trkpt lat="45.8891116" lon="9.0991664"><ele>1012.3333333333333</ele><time>2026-04-04T15:33:20.496Z</time></trkpt><trkpt lat="45.8890608" lon="9.0990816"><ele>1014.6666666666666</ele><time>2026-04-04T15:33:21.494Z</time></trkpt><trkpt lat="45.889011" lon="9.0989968"><ele>1017.0</ele><time>2026-04-04T15:33:22.497Z</time></trkpt><trkpt lat="45.8889532" lon="9.0989116"><ele>1017.0</ele><time>2026-04-04T15:33:23.495Z</time></trkpt><trkpt lat="45.8889035" lon="9.0988395"><ele>1017.0</ele><time>2026-04-04T15:33:24.496Z</time></trkpt><trkpt lat="45.8888601" lon="9.0987678"><ele>1017.0</ele><time>2026-04-04T15:33:25.495Z</time></trkpt><trkpt lat="45.8888177" lon="9.0986962"><ele>1017.0</ele><time>2026-04-04T15:33:26.494Z</time></trkpt><trkpt lat="45.8887466" lon="9.0985636"><ele>1017.0</ele><time>2026-04-04T15:33:28.494Z</time></trkpt><trkpt lat="45.8886703" lon="9.0984745"><ele>1017.0</ele><time>2026-04-04T15:33:30.494Z</time></trkpt><trkpt lat="45.8885646" lon="9.0984286"><ele>1017.0</ele><time>2026-04-04T15:33:32.492Z</time></trkpt><trkpt lat="45.8885005" lon="9.0984067"><ele>1017.0</ele><time>2026-04-04T15:33:33.497Z</time></trkpt><trkpt lat="45.8884289" lon="9.0983718"><ele>1017.0</ele><time>2026-04-04T15:33:34.495Z</time></trkpt><trkpt lat="45.8883454" lon="9.0983231"><ele>1017.0</ele><time>2026-04-04T15:33:35.495Z</time></trkpt><trkpt lat="45.8882537" lon="9.0982739"><ele>1017.0</ele><time>2026-04-04T15:33:36.494Z</time></trkpt><trkpt lat="45.8881662" lon="9.0982245"><ele>1017.0</ele><time>2026-04-04T15:33:37.497Z</time></trkpt><trkpt lat="45.8880834" lon="9.0981665"><ele>1015.6</ele><time>2026-04-04T15:33:38.496Z</time></trkpt><trkpt lat="45.8879956" lon="9.0981107"><ele>1014.2</ele><time>2026-04-04T15:33:39.497Z</time></trkpt><trkpt lat="45.887916" lon="9.0980462"><ele>1012.8</ele><time>2026-04-04T15:33:40.497Z</time></trkpt><trkpt lat="45.8878345" lon="9.0979786"><ele>1011.4</ele><time>2026-04-04T15:33:41.497Z</time></trkpt><trkpt lat="45.8877496" lon="9.0979085"><ele>1010.0</ele><time>2026-04-04T15:33:42.496Z</time></trkpt><trkpt lat="45.8876695" lon="9.0978417"><ele>1012.6</ele><time>2026-04-04T15:33:43.496Z</time></trkpt><trkpt lat="45.8875906" lon="9.0977763"><ele>1015.2</ele><time>2026-04-04T15:33:44.493Z</time></trkpt><trkpt lat="45.8874963" lon="9.0977058"><ele>1017.8</ele><time>2026-04-04T15:33:45.497Z</time></trkpt><trkpt lat="45.8874094" lon="9.0976454"><ele>1020.4</ele><time>2026-04-04T15:33:46.497Z</time></trkpt><trkpt lat="45.8873263" lon="9.0975791"><ele>1023.0</ele><time>2026-04-04T15:33:47.497Z</time></trkpt><trkpt lat="45.8872499" lon="9.0975199"><ele>1023.0</ele><time>2026-04-04T15:33:48.492Z</time></trkpt><trkpt lat="45.8871838" lon="9.0974705"><ele>1023.0</ele><time>2026-04-04T15:33:49.492Z</time></trkpt><trkpt lat="45.8871168" lon="9.0974276"><ele>1023.0</ele><time>2026-04-04T15:33:50.493Z</time></trkpt><trkpt lat="45.8870365" lon="9.097396"><ele>1023.0</ele><time>2026-04-04T15:33:51.497Z</time></trkpt><trkpt lat="45.8869746" lon="9.0973464"><ele>1023.0</ele><time>2026-04-04T15:33:52.494Z</time></trkpt><trkpt lat="45.8869069" lon="9.0973155"><ele>1023.0</ele><time>2026-04-04T15:33:53.497Z</time></trkpt><trkpt lat="45.8868385" lon="9.0972987"><ele>1023.0</ele><time>2026-04-04T15:33:54.495Z</time></trkpt><trkpt lat="45.8867733" lon="9.0972987"><ele>1024.3333333333333</ele><time>2026-04-04T15:33:55.497Z</time></trkpt><trkpt lat="45.8867108" lon="9.097313"><ele>1025.6666666666667</ele><time>2026-04-04T15:33:56.494Z</time></trkpt><trkpt lat="45.8866476" lon="9.0973396"><ele>1027.0</ele><time>2026-04-04T15:33:57.497Z</time></trkpt><trkpt lat="45.8865832" lon="9.0973655"><ele>1028.3333333333335</ele><time>2026-04-04T15:33:58.495Z</time></trkpt><trkpt lat="45.8864767" lon="9.0974539"><ele>1029.6666666666667</ele><time>2026-04-04T15:34:00.497Z</time></trkpt><trkpt lat="45.8864153" lon="9.097504"><ele>1031.0</ele><time>2026-04-04T15:34:01.496Z</time></trkpt><trkpt lat="45.8863612" lon="9.0975612"><ele>1031.0</ele><time>2026-04-04T15:34:02.493Z</time></trkpt><trkpt lat="45.8863042" lon="9.0976203"><ele>1031.0</ele><time>2026-04-04T15:34:03.497Z</time></trkpt><trkpt lat="45.8862484" lon="9.0976855"><ele>1031.0</ele><time>2026-04-04T15:34:04.494Z</time></trkpt><trkpt lat="45.8861736" lon="9.0977623"><ele>1031.0</ele><time>2026-04-04T15:34:05.496Z</time></trkpt><trkpt lat="45.8861108" lon="9.0978369"><ele>1031.0</ele><time>2026-04-04T15:34:06.494Z</time></trkpt><trkpt lat="45.8860541" lon="9.0979024"><ele>1031.0</ele><time>2026-04-04T15:34:07.497Z</time></trkpt><trkpt lat="45.8859982" lon="9.0979692"><ele>1028.6</ele><time>2026-04-04T15:34:08.495Z</time></trkpt><trkpt lat="45.885923" lon="9.0980617"><ele>1026.1999999999998</ele><time>2026-04-04T15:34:10.494Z</time></trkpt><trkpt lat="45.8858769" lon="9.0981978"><ele>1023.8000000000001</ele><time>2026-04-04T15:34:12.495Z</time></trkpt><trkpt lat="45.8858059" lon="9.0982783"><ele>1021.4000000000001</ele><time>2026-04-04T15:34:14.493Z</time></trkpt><trkpt lat="45.8857132" lon="9.0982455"><ele>1019.0</ele><time>2026-04-04T15:34:16.495Z</time></trkpt><trkpt lat="45.8856254" lon="9.0981643"><ele>1019.0000000000001</ele><time>2026-04-04T15:34:18.496Z</time></trkpt><trkpt lat="45.8855365" lon="9.0980615"><ele>1019.0</ele><time>2026-04-04T15:34:20.495Z</time></trkpt><trkpt lat="45.8854777" lon="9.0980102"><ele>1019.0</ele><time>2026-04-04T15:34:21.497Z</time></trkpt><trkpt lat="45.8854194" lon="9.0979756"><ele>1019.0</ele><time>2026-04-04T15:34:22.494Z</time></trkpt><trkpt lat="45.8853538" lon="9.0979659"><ele>1019.0000000000001</ele><time>2026-04-04T15:34:23.497Z</time></trkpt><trkpt lat="45.8852405" lon="9.0979217"><ele>1019.0</ele><time>2026-04-04T15:34:25.495Z</time></trkpt><trkpt lat="45.8851235" lon="9.0978556"><ele>1021.3333333333334</ele><time>2026-04-04T15:34:27.497Z</time></trkpt><trkpt lat="45.8850565" lon="9.0978166"><ele>1023.6666666666667</ele><time>2026-04-04T15:34:28.497Z</time></trkpt><trkpt lat="45.8849993" lon="9.0977787"><ele>1026.0</ele><time>2026-04-04T15:34:29.496Z</time></trkpt><trkpt lat="45.8848926" lon="9.0976765"><ele>1028.3333333333333</ele><time>2026-04-04T15:34:31.497Z</time></trkpt><trkpt lat="45.8848354" lon="9.0976031"><ele>1030.6666666666665</ele><time>2026-04-04T15:34:32.492Z</time></trkpt><trkpt lat="45.8847675" lon="9.0975317"><ele>1033.0</ele><time>2026-04-04T15:34:33.497Z</time></trkpt><trkpt lat="45.8847003" lon="9.0974546"><ele>1029.6666666666665</ele><time>2026-04-04T15:34:34.494Z</time></trkpt><trkpt lat="45.8846323" lon="9.0973703"><ele>1026.3333333333333</ele><time>2026-04-04T15:34:35.497Z</time></trkpt><trkpt lat="45.8845641" lon="9.0972799"><ele>1023.0</ele><time>2026-04-04T15:34:36.493Z</time></trkpt><trkpt lat="45.8845008" lon="9.0971884"><ele>1019.6666666666667</ele><time>2026-04-04T15:34:37.496Z</time></trkpt><trkpt lat="45.8844462" lon="9.0971039"><ele>1016.3333333333334</ele><time>2026-04-04T15:34:38.495Z</time></trkpt><trkpt lat="45.8843922" lon="9.097035"><ele>1013.0</ele><time>2026-04-04T15:34:39.497Z</time></trkpt><trkpt lat="45.8843396" lon="9.0969844"><ele>1013.0000000000001</ele><time>2026-04-04T15:34:40.494Z</time></trkpt><trkpt lat="45.8842718" lon="9.096937"><ele>1013.0</ele><time>2026-04-04T15:34:41.493Z</time></trkpt><trkpt lat="45.8841958" lon="9.0968852"><ele>1013.0</ele><time>2026-04-04T15:34:42.497Z</time></trkpt><trkpt lat="45.884112" lon="9.0968316"><ele>1013.0</ele><time>2026-04-04T15:34:43.494Z</time></trkpt><trkpt lat="45.8840283" lon="9.0967859"><ele>1013.0000000000001</ele><time>2026-04-04T15:34:44.493Z</time></trkpt><trkpt lat="45.88395" lon="9.0967485"><ele>1013.0</ele><time>2026-04-04T15:34:45.496Z</time></trkpt><trkpt lat="45.8838777" lon="9.0967222"><ele>1010.5999999999999</ele><time>2026-04-04T15:34:46.497Z</time></trkpt><trkpt lat="45.8837593" lon="9.0966706"><ele>1008.1999999999999</ele><time>2026-04-04T15:34:48.496Z</time></trkpt><trkpt lat="45.8836822" lon="9.0966386"><ele>1005.8</ele><time>2026-04-04T15:34:49.495Z</time></trkpt><trkpt lat="45.8836054" lon="9.0965994"><ele>1003.4</ele><time>2026-04-04T15:34:50.497Z</time></trkpt><trkpt lat="45.8835258" lon="9.0965567"><ele>1001.0</ele><time>2026-04-04T15:34:51.496Z</time></trkpt><trkpt lat="45.8834418" lon="9.0965004"><ele>1006.0</ele><time>2026-04-04T15:34:52.497Z</time></trkpt><trkpt lat="45.8833564" lon="9.0964475"><ele>1010.9999999999999</ele><time>2026-04-04T15:34:53.493Z</time></trkpt><trkpt lat="45.8832654" lon="9.0963906"><ele>1015.9999999999999</ele><time>2026-04-04T15:34:54.494Z</time></trkpt><trkpt lat="45.8831766" lon="9.0963326"><ele>1021.0</ele><time>2026-04-04T15:34:55.496Z</time></trkpt><trkpt lat="45.8830899" lon="9.0962721"><ele>1026.0</ele><time>2026-04-04T15:34:56.497Z</time></trkpt><trkpt lat="45.8830045" lon="9.0962169"><ele>1026.0</ele><time>2026-04-04T15:34:57.497Z</time></trkpt><trkpt lat="45.8829175" lon="9.0961663"><ele>1026.0</ele><time>2026-04-04T15:34:58.496Z</time></trkpt><trkpt lat="45.8828338" lon="9.0961164"><ele>1026.0</ele><time>2026-04-04T15:34:59.497Z</time></trkpt><trkpt lat="45.8827468" lon="9.0960729"><ele>1026.0</ele><time>2026-04-04T15:35:00.494Z</time></trkpt><trkpt lat="45.882656" lon="9.0960262"><ele>1026.0</ele><time>2026-04-04T15:35:01.492Z</time></trkpt><trkpt lat="45.8825722" lon="9.0959941"><ele>1029.3333333333333</ele><time>2026-04-04T15:35:02.496Z</time></trkpt><trkpt lat="45.8824907" lon="9.0959585"><ele>1032.6666666666667</ele><time>2026-04-04T15:35:03.497Z</time></trkpt><trkpt lat="45.8824106" lon="9.0959396"><ele>1036.0</ele><time>2026-04-04T15:35:04.496Z</time></trkpt><trkpt lat="45.8823327" lon="9.0959039"><ele>1039.3333333333335</ele><time>2026-04-04T15:35:05.496Z</time></trkpt><trkpt lat="45.8822621" lon="9.0958583"><ele>1042.6666666666667</ele><time>2026-04-04T15:35:06.494Z</time></trkpt><trkpt lat="45.8822043" lon="9.0958146"><ele>1046.0</ele><time>2026-04-04T15:35:07.495Z</time></trkpt><trkpt lat="45.882141" lon="9.0957488"><ele>1046.8333333333335</ele><time>2026-04-04T15:35:08.496Z</time></trkpt><trkpt lat="45.8820759" lon="9.0956623"><ele>1047.6666666666667</ele><time>2026-04-04T15:35:09.497Z</time></trkpt><trkpt lat="45.8820091" lon="9.0955917"><ele>1048.5</ele><time>2026-04-04T15:35:10.493Z</time></trkpt><trkpt lat="45.8819521" lon="9.0955263"><ele>1049.3333333333333</ele><time>2026-04-04T15:35:11.496Z</time></trkpt><trkpt lat="45.8819009" lon="9.0954577"><ele>1050.1666666666665</ele><time>2026-04-04T15:35:12.495Z</time></trkpt><trkpt lat="45.881843" lon="9.0953248"><ele>1051.0</ele><time>2026-04-04T15:35:14.497Z</time></trkpt><trkpt lat="45.8818959" lon="9.0952744"><ele>1051.0</ele><time>2026-04-04T15:35:15.494Z</time></trkpt><trkpt lat="45.8819843" lon="9.0951729"><ele>1051.0</ele><time>2026-04-04T15:35:17.493Z</time></trkpt><trkpt lat="45.8820524" lon="9.0951207"><ele>1051.0</ele><time>2026-04-04T15:35:18.496Z</time></trkpt><trkpt lat="45.8821179" lon="9.0950544"><ele>1051.0</ele><time>2026-04-04T15:35:19.497Z</time></trkpt><trkpt lat="45.8821849" lon="9.0949765"><ele>1051.0</ele><time>2026-04-04T15:35:20.493Z</time></trkpt><trkpt lat="45.8822542" lon="9.0948839"><ele>1050.3999999999999</ele><time>2026-04-04T15:35:21.497Z</time></trkpt><trkpt lat="45.8823285" lon="9.0947819"><ele>1049.8</ele><time>2026-04-04T15:35:22.497Z</time></trkpt><trkpt lat="45.8824044" lon="9.0946943"><ele>1049.1999999999998</ele><time>2026-04-04T15:35:23.493Z</time></trkpt><trkpt lat="45.8824814" lon="9.0946201"><ele>1048.6</ele><time>2026-04-04T15:35:24.495Z</time></trkpt><trkpt lat="45.8825528" lon="9.094539"><ele>1048.0</ele><time>2026-04-04T15:35:25.497Z</time></trkpt><trkpt lat="45.8826172" lon="9.0944637"><ele>1048.0</ele><time>2026-04-04T15:35:26.497Z</time></trkpt><trkpt lat="45.8826814" lon="9.094399"><ele>1048.0</ele><time>2026-04-04T15:35:27.495Z</time></trkpt><trkpt lat="45.8827383" lon="9.0943367"><ele>1048.0</ele><time>2026-04-04T15:35:28.495Z</time></trkpt><trkpt lat="45.8828004" lon="9.0942808"><ele>1048.0</ele><time>2026-04-04T15:35:29.496Z</time></trkpt><trkpt lat="45.8828687" lon="9.0942106"><ele>1048.0</ele><time>2026-04-04T15:35:30.496Z</time></trkpt><trkpt lat="45.8829415" lon="9.0941439"><ele>1048.0</ele><time>2026-04-04T15:35:31.496Z</time></trkpt><trkpt lat="45.8830144" lon="9.0940674"><ele>1050.0</ele><time>2026-04-04T15:35:32.496Z</time></trkpt><trkpt lat="45.883081" lon="9.0940006"><ele>1052.0</ele><time>2026-04-04T15:35:33.493Z</time></trkpt><trkpt lat="45.883136" lon="9.0939429"><ele>1054.0</ele><time>2026-04-04T15:35:34.497Z</time></trkpt><trkpt lat="45.8832074" lon="9.093828"><ele>1056.0</ele><time>2026-04-04T15:35:36.494Z</time></trkpt><trkpt lat="45.8832252" lon="9.0936813"><ele>1058.0</ele><time>2026-04-04T15:35:38.496Z</time></trkpt><trkpt lat="45.8832219" lon="9.0935889"><ele>1060.0</ele><time>2026-04-04T15:35:39.497Z</time></trkpt><trkpt lat="45.8832171" lon="9.0934892"><ele>1060.0</ele><time>2026-04-04T15:35:40.492Z</time></trkpt><trkpt lat="45.8832116" lon="9.093398"><ele>1060.0</ele><time>2026-04-04T15:35:41.497Z</time></trkpt><trkpt lat="45.8831923" lon="9.0933085"><ele>1060.0</ele><time>2026-04-04T15:35:42.495Z</time></trkpt><trkpt lat="45.8831654" lon="9.0932024"><ele>1060.0</ele><time>2026-04-04T15:35:43.494Z</time></trkpt><trkpt lat="45.8831275" lon="9.0930962"><ele>1060.0</ele><time>2026-04-04T15:35:44.495Z</time></trkpt><trkpt lat="45.8830824" lon="9.0929758"><ele>1060.0</ele><time>2026-04-04T15:35:45.496Z</time></trkpt><trkpt lat="45.8830168" lon="9.0928511"><ele>1057.5</ele><time>2026-04-04T15:35:46.497Z</time></trkpt><trkpt lat="45.882963" lon="9.0927197"><ele>1055.0</ele><time>2026-04-04T15:35:47.496Z</time></trkpt><trkpt lat="45.8829051" lon="9.0925831"><ele>1052.5</ele><time>2026-04-04T15:35:48.492Z</time></trkpt><trkpt lat="45.8828408" lon="9.0924336"><ele>1050.0</ele><time>2026-04-04T15:35:49.494Z</time></trkpt><trkpt lat="45.8827859" lon="9.0922916"><ele>1051.8</ele><time>2026-04-04T15:35:50.497Z</time></trkpt><trkpt lat="45.8827314" lon="9.0921602"><ele>1053.6</ele><time>2026-04-04T15:35:51.494Z</time></trkpt><trkpt lat="45.8826804" lon="9.0920201"><ele>1055.4</ele><time>2026-04-04T15:35:52.497Z</time></trkpt><trkpt lat="45.8826303" lon="9.0918731"><ele>1057.2</ele><time>2026-04-04T15:35:53.496Z</time></trkpt><trkpt lat="45.8825759" lon="9.0917282"><ele>1059.0</ele><time>2026-04-04T15:35:54.497Z</time></trkpt><trkpt lat="45.8825146" lon="9.0915652"><ele>1059.0</ele><time>2026-04-04T15:35:55.497Z</time></trkpt><trkpt lat="45.8824551" lon="9.0914172"><ele>1059.0</ele><time>2026-04-04T15:35:56.496Z</time></trkpt><trkpt lat="45.8823948" lon="9.0912711"><ele>1059.0</ele><time>2026-04-04T15:35:57.495Z</time></trkpt><trkpt lat="45.8823336" lon="9.0911231"><ele>1059.0</ele><time>2026-04-04T15:35:58.497Z</time></trkpt><trkpt lat="45.8822753" lon="9.0909748"><ele>1059.0</ele><time>2026-04-04T15:35:59.497Z</time></trkpt><trkpt lat="45.8822148" lon="9.0908318"><ele>1059.0</ele><time>2026-04-04T15:36:00.495Z</time></trkpt><trkpt lat="45.8821528" lon="9.0906926"><ele>1059.0</ele><time>2026-04-04T15:36:01.497Z</time></trkpt><trkpt lat="45.8820897" lon="9.0905572"><ele>1059.0</ele><time>2026-04-04T15:36:02.497Z</time></trkpt><trkpt lat="45.8820301" lon="9.0904165"><ele>1056.4</ele><time>2026-04-04T15:36:03.497Z</time></trkpt><trkpt lat="45.8819803" lon="9.0902636"><ele>1053.8000000000002</ele><time>2026-04-04T15:36:04.497Z</time></trkpt><trkpt lat="45.8819206" lon="9.0901188"><ele>1051.1999999999998</ele><time>2026-04-04T15:36:05.497Z</time></trkpt><trkpt lat="45.8818663" lon="9.0899813"><ele>1048.6</ele><time>2026-04-04T15:36:06.488Z</time></trkpt><trkpt lat="45.8818258" lon="9.0898843"><ele>1046.0</ele><time>2026-04-04T15:36:07.49Z</time></trkpt><trkpt lat="45.8817825" lon="9.0897857"><ele>1047.3999999999999</ele><time>2026-04-04T15:36:08.497Z</time></trkpt><trkpt lat="45.8817394" lon="9.0897178"><ele>1048.8</ele><time>2026-04-04T15:36:09.493Z</time></trkpt><trkpt lat="45.8816422" lon="9.0896144"><ele>1050.1999999999998</ele><time>2026-04-04T15:36:11.496Z</time></trkpt><trkpt lat="45.8815563" lon="9.0895895"><ele>1051.6</ele><time>2026-04-04T15:36:13.497Z</time></trkpt><trkpt lat="45.8814446" lon="9.0895894"><ele>1053.0</ele><time>2026-04-04T15:36:15.494Z</time></trkpt><trkpt lat="45.8813633" lon="9.0895804"><ele>1053.0</ele><time>2026-04-04T15:36:16.494Z</time></trkpt><trkpt lat="45.881293" lon="9.0895738"><ele>1053.0</ele><time>2026-04-04T15:36:17.497Z</time></trkpt><trkpt lat="45.8812048" lon="9.0895482"><ele>1053.0</ele><time>2026-04-04T15:36:18.495Z</time></trkpt><trkpt lat="45.8811293" lon="9.0895244"><ele>1053.0</ele><time>2026-04-04T15:36:19.497Z</time></trkpt><trkpt lat="45.8810502" lon="9.0894948"><ele>1053.0</ele><time>2026-04-04T15:36:20.497Z</time></trkpt><trkpt lat="45.880994" lon="9.0894404"><ele>1053.0</ele><time>2026-04-04T15:36:21.494Z</time></trkpt><trkpt lat="45.8809242" lon="9.0893666"><ele>1056.5</ele><time>2026-04-04T15:36:22.495Z</time></trkpt><trkpt lat="45.8808441" lon="9.0893061"><ele>1060.0</ele><time>2026-04-04T15:36:23.494Z</time></trkpt><trkpt lat="45.8807757" lon="9.0892456"><ele>1063.5</ele><time>2026-04-04T15:36:24.495Z</time></trkpt><trkpt lat="45.8807116" lon="9.0892011"><ele>1067.0</ele><time>2026-04-04T15:36:25.497Z</time></trkpt><trkpt lat="45.8806329" lon="9.0891701"><ele>1070.5</ele><time>2026-04-04T15:36:26.497Z</time></trkpt><trkpt lat="45.8805521" lon="9.0891677"><ele>1074.0</ele><time>2026-04-04T15:36:27.493Z</time></trkpt><trkpt lat="45.8804733" lon="9.0891698"><ele>1074.0</ele><time>2026-04-04T15:36:28.493Z</time></trkpt><trkpt lat="45.8804023" lon="9.0891968"><ele>1074.0</ele><time>2026-04-04T15:36:29.495Z</time></trkpt><trkpt lat="45.8803287" lon="9.0892201"><ele>1074.0</ele><time>2026-04-04T15:36:30.497Z</time></trkpt><trkpt lat="45.8802558" lon="9.089253"><ele>1074.0</ele><time>2026-04-04T15:36:31.497Z</time></trkpt><trkpt lat="45.8801834" lon="9.0892758"><ele>1074.0</ele><time>2026-04-04T15:36:32.497Z</time></trkpt><trkpt lat="45.8800919" lon="9.0892856"><ele>1074.0</ele><time>2026-04-04T15:36:33.493Z</time></trkpt><trkpt lat="45.8800278" lon="9.0892865"><ele>1074.8</ele><time>2026-04-04T15:36:34.492Z</time></trkpt><trkpt lat="45.8799564" lon="9.089273"><ele>1075.6000000000001</ele><time>2026-04-04T15:36:35.493Z</time></trkpt><trkpt lat="45.8798438" lon="9.0892241"><ele>1076.4</ele><time>2026-04-04T15:36:37.494Z</time></trkpt><trkpt lat="45.8797462" lon="9.0890982"><ele>1077.2</ele><time>2026-04-04T15:36:39.497Z</time></trkpt><trkpt lat="45.879693" lon="9.0889905"><ele>1078.0</ele><time>2026-04-04T15:36:40.493Z</time></trkpt><trkpt lat="45.8796347" lon="9.0888598"><ele>1072.8</ele><time>2026-04-04T15:36:41.495Z</time></trkpt><trkpt lat="45.8795845" lon="9.0887285"><ele>1067.6</ele><time>2026-04-04T15:36:42.497Z</time></trkpt><trkpt lat="45.8795376" lon="9.088592"><ele>1062.4</ele><time>2026-04-04T15:36:43.496Z</time></trkpt><trkpt lat="45.8794868" lon="9.0884556"><ele>1057.2</ele><time>2026-04-04T15:36:44.497Z</time></trkpt><trkpt lat="45.8794404" lon="9.0883297"><ele>1052.0</ele><time>2026-04-04T15:36:45.496Z</time></trkpt><trkpt lat="45.879399" lon="9.0882029"><ele>1050.4</ele><time>2026-04-04T15:36:46.491Z</time></trkpt><trkpt lat="45.8793715" lon="9.0880768"><ele>1048.8000000000002</ele><time>2026-04-04T15:36:47.495Z</time></trkpt><trkpt lat="45.8793575" lon="9.0879468"><ele>1047.2</ele><time>2026-04-04T15:36:48.497Z</time></trkpt><trkpt lat="45.8793591" lon="9.087813"><ele>1045.6000000000001</ele><time>2026-04-04T15:36:49.497Z</time></trkpt><trkpt lat="45.8793636" lon="9.0876789"><ele>1044.0</ele><time>2026-04-04T15:36:50.494Z</time></trkpt><trkpt lat="45.879374" lon="9.0875257"><ele>1046.8</ele><time>2026-04-04T15:36:51.496Z</time></trkpt><trkpt lat="45.8793877" lon="9.0873815"><ele>1049.6000000000001</ele><time>2026-04-04T15:36:52.496Z</time></trkpt><trkpt lat="45.8794157" lon="9.0872389"><ele>1052.4</ele><time>2026-04-04T15:36:53.497Z</time></trkpt><trkpt lat="45.8794489" lon="9.0871238"><ele>1055.2</ele><time>2026-04-04T15:36:54.497Z</time></trkpt><trkpt lat="45.8794615" lon="9.0870092"><ele>1058.0</ele><time>2026-04-04T15:36:55.496Z</time></trkpt><trkpt lat="45.879478" lon="9.0868959"><ele>1058.0</ele><time>2026-04-04T15:36:56.495Z</time></trkpt><trkpt lat="45.8794887" lon="9.0867743"><ele>1058.0</ele><time>2026-04-04T15:36:57.496Z</time></trkpt><trkpt lat="45.8795069" lon="9.0866546"><ele>1058.0</ele><time>2026-04-04T15:36:58.497Z</time></trkpt><trkpt lat="45.8795243" lon="9.0865381"><ele>1058.0</ele><time>2026-04-04T15:36:59.494Z</time></trkpt><trkpt lat="45.8795467" lon="9.0864208"><ele>1058.0</ele><time>2026-04-04T15:37:00.493Z</time></trkpt><trkpt lat="45.8795796" lon="9.0862946"><ele>1058.0</ele><time>2026-04-04T15:37:01.494Z</time></trkpt><trkpt lat="45.8796005" lon="9.0861735"><ele>1059.3333333333335</ele><time>2026-04-04T15:37:02.496Z</time></trkpt><trkpt lat="45.8796223" lon="9.0860605"><ele>1060.6666666666667</ele><time>2026-04-04T15:37:03.495Z</time></trkpt><trkpt lat="45.8796372" lon="9.0859002"><ele>1062.0</ele><time>2026-04-04T15:37:05.495Z</time></trkpt><trkpt lat="45.8796521" lon="9.0857621"><ele>1063.3333333333333</ele><time>2026-04-04T15:37:07.497Z</time></trkpt><trkpt lat="45.8796133" lon="9.0856645"><ele>1064.6666666666665</ele><time>2026-04-04T15:37:09.497Z</time></trkpt><trkpt lat="45.8795426" lon="9.0856486"><ele>1066.0</ele><time>2026-04-04T15:37:11.497Z</time></trkpt><trkpt lat="45.8794555" lon="9.0857167"><ele>1066.8333333333333</ele><time>2026-04-04T15:37:13.494Z</time></trkpt><trkpt lat="45.8793917" lon="9.0857699"><ele>1067.6666666666665</ele><time>2026-04-04T15:37:14.497Z</time></trkpt><trkpt lat="45.8793194" lon="9.0858009"><ele>1068.5</ele><time>2026-04-04T15:37:15.494Z</time></trkpt><trkpt lat="45.8792538" lon="9.0858324"><ele>1069.3333333333333</ele><time>2026-04-04T15:37:16.497Z</time></trkpt><trkpt lat="45.8791597" lon="9.0858558"><ele>1070.1666666666667</ele><time>2026-04-04T15:37:17.497Z</time></trkpt><trkpt lat="45.8790733" lon="9.085882"><ele>1071.0</ele><time>2026-04-04T15:37:18.497Z</time></trkpt><trkpt lat="45.8789712" lon="9.0859018"><ele>1073.8</ele><time>2026-04-04T15:37:19.494Z</time></trkpt><trkpt lat="45.8788763" lon="9.0859217"><ele>1076.6</ele><time>2026-04-04T15:37:20.493Z</time></trkpt><trkpt lat="45.8787748" lon="9.0859412"><ele>1079.4</ele><time>2026-04-04T15:37:21.494Z</time></trkpt><trkpt lat="45.8786769" lon="9.0859555"><ele>1082.2</ele><time>2026-04-04T15:37:22.497Z</time></trkpt><trkpt lat="45.8785798" lon="9.0859579"><ele>1085.0</ele><time>2026-04-04T15:37:23.495Z</time></trkpt><trkpt lat="45.8784762" lon="9.0859556"><ele>1085.4</ele><time>2026-04-04T15:37:24.492Z</time></trkpt><trkpt lat="45.878379" lon="9.0859585"><ele>1085.8</ele><time>2026-04-04T15:37:25.497Z</time></trkpt><trkpt lat="45.8782958" lon="9.0859655"><ele>1086.2</ele><time>2026-04-04T15:37:26.497Z</time></trkpt><trkpt lat="45.8782093" lon="9.0859715"><ele>1086.6</ele><time>2026-04-04T15:37:27.497Z</time></trkpt><trkpt lat="45.8781208" lon="9.0859814"><ele>1087.0</ele><time>2026-04-04T15:37:28.496Z</time></trkpt><trkpt lat="45.878022" lon="9.0859901"><ele>1087.0</ele><time>2026-04-04T15:37:29.493Z</time></trkpt><trkpt lat="45.877906" lon="9.085991"><ele>1087.0</ele><time>2026-04-04T15:37:30.492Z</time></trkpt><trkpt lat="45.8778023" lon="9.0859899"><ele>1087.0</ele><time>2026-04-04T15:37:31.494Z</time></trkpt><trkpt lat="45.8776818" lon="9.0859882"><ele>1087.0</ele><time>2026-04-04T15:37:32.492Z</time></trkpt><trkpt lat="45.8775605" lon="9.0859983"><ele>1086.4</ele><time>2026-04-04T15:37:33.494Z</time></trkpt><trkpt lat="45.8774506" lon="9.0860088"><ele>1085.8000000000002</ele><time>2026-04-04T15:37:34.495Z</time></trkpt><trkpt lat="45.8773548" lon="9.0860273"><ele>1085.2</ele><time>2026-04-04T15:37:35.495Z</time></trkpt><trkpt lat="45.8772558" lon="9.086048"><ele>1084.6000000000001</ele><time>2026-04-04T15:37:36.496Z</time></trkpt><trkpt lat="45.8771664" lon="9.0860671"><ele>1084.0</ele><time>2026-04-04T15:37:37.497Z</time></trkpt><trkpt lat="45.8770989" lon="9.0860993"><ele>1084.0</ele><time>2026-04-04T15:37:38.491Z</time></trkpt><trkpt lat="45.8769801" lon="9.0861561"><ele>1084.0</ele><time>2026-04-04T15:37:40.497Z</time></trkpt><trkpt lat="45.8769132" lon="9.0862123"><ele>1084.0</ele><time>2026-04-04T15:37:41.496Z</time></trkpt><trkpt lat="45.8768392" lon="9.0862823"><ele>1084.0</ele><time>2026-04-04T15:37:42.496Z</time></trkpt><trkpt lat="45.8767542" lon="9.086386"><ele>1084.0</ele><time>2026-04-04T15:37:43.497Z</time></trkpt><trkpt lat="45.8766798" lon="9.0864587"><ele>1082.5714285714284</ele><time>2026-04-04T15:37:44.496Z</time></trkpt><trkpt lat="45.8766159" lon="9.0865206"><ele>1081.142857142857</ele><time>2026-04-04T15:37:45.497Z</time></trkpt><trkpt lat="45.8765407" lon="9.086569"><ele>1079.7142857142858</ele><time>2026-04-04T15:37:46.496Z</time></trkpt><trkpt lat="45.8764777" lon="9.0865994"><ele>1078.2857142857142</ele><time>2026-04-04T15:37:47.496Z</time></trkpt><trkpt lat="45.8764126" lon="9.086631"><ele>1076.857142857143</ele><time>2026-04-04T15:37:48.497Z</time></trkpt><trkpt lat="45.8763468" lon="9.0866625"><ele>1075.4285714285713</ele><time>2026-04-04T15:37:49.494Z</time></trkpt><trkpt lat="45.8762791" lon="9.0866927"><ele>1074.0</ele><time>2026-04-04T15:37:50.493Z</time></trkpt><trkpt lat="45.8761953" lon="9.0867217"><ele>1078.8333333333333</ele><time>2026-04-04T15:37:51.495Z</time></trkpt><trkpt lat="45.8761145" lon="9.0867379"><ele>1083.6666666666667</ele><time>2026-04-04T15:37:52.494Z</time></trkpt><trkpt lat="45.8760272" lon="9.0867365"><ele>1088.5</ele><time>2026-04-04T15:37:53.492Z</time></trkpt><trkpt lat="45.8759424" lon="9.0867493"><ele>1093.3333333333335</ele><time>2026-04-04T15:37:54.495Z</time></trkpt><trkpt lat="45.8758783" lon="9.086771"><ele>1098.1666666666667</ele><time>2026-04-04T15:37:55.496Z</time></trkpt><trkpt lat="45.8758113" lon="9.0867896"><ele>1103.0</ele><time>2026-04-04T15:37:56.496Z</time></trkpt><trkpt lat="45.8757473" lon="9.086818"><ele>1103.0000000000002</ele><time>2026-04-04T15:37:57.491Z</time></trkpt><trkpt lat="45.8756719" lon="9.0867977"><ele>1103.0</ele><time>2026-04-04T15:37:58.497Z</time></trkpt><trkpt lat="45.8756096" lon="9.0868125"><ele>1103.0</ele><time>2026-04-04T15:37:59.496Z</time></trkpt><trkpt lat="45.8755295" lon="9.086817"><ele>1103.0</ele><time>2026-04-04T15:38:00.494Z</time></trkpt><trkpt lat="45.875455" lon="9.0868318"><ele>1103.0</ele><time>2026-04-04T15:38:01.497Z</time></trkpt><trkpt lat="45.8753861" lon="9.0868413"><ele>1103.0000000000002</ele><time>2026-04-04T15:38:02.496Z</time></trkpt><trkpt lat="45.8753179" lon="9.0868528"><ele>1103.0</ele><time>2026-04-04T15:38:03.497Z</time></trkpt><trkpt lat="45.8752454" lon="9.0868588"><ele>1103.0</ele><time>2026-04-04T15:38:04.495Z</time></trkpt><trkpt lat="45.8751813" lon="9.0868641"><ele>1103.0</ele><time>2026-04-04T15:38:05.497Z</time></trkpt><trkpt lat="45.8751079" lon="9.0868614"><ele>1103.0</ele><time>2026-04-04T15:38:06.493Z</time></trkpt><trkpt lat="45.8750453" lon="9.0868719"><ele>1103.0</ele><time>2026-04-04T15:38:08.496Z</time></trkpt><trkpt lat="45.8751" lon="9.0869167"><ele>1103.0</ele><time>2026-04-04T15:38:13.497Z</time></trkpt><trkpt lat="45.875213" lon="9.0869363"><ele>1103.0</ele><time>2026-04-04T15:38:15.497Z</time></trkpt><trkpt lat="45.8752915" lon="9.0869709"><ele>1103.0</ele><time>2026-04-04T15:38:16.497Z</time></trkpt><trkpt lat="45.8753755" lon="9.0869851"><ele>1103.0</ele><time>2026-04-04T15:38:17.492Z</time></trkpt><trkpt lat="45.8754637" lon="9.087"><ele>1103.0</ele><time>2026-04-04T15:38:18.491Z</time></trkpt><trkpt lat="45.8755686" lon="9.0870264"><ele>1103.0</ele><time>2026-04-04T15:38:19.491Z</time></trkpt><trkpt lat="45.875673" lon="9.0870438"><ele>1103.0</ele><time>2026-04-04T15:38:20.491Z</time></trkpt><trkpt lat="45.8757796" lon="9.0870633"><ele>1103.0</ele><time>2026-04-04T15:38:21.497Z</time></trkpt><trkpt lat="45.8759063" lon="9.0870849"><ele>1103.0</ele><time>2026-04-04T15:38:22.496Z</time></trkpt><trkpt lat="45.8760184" lon="9.087107"><ele>1103.0</ele><time>2026-04-04T15:38:23.494Z</time></trkpt><trkpt lat="45.8761294" lon="9.0871393"><ele>1103.0</ele><time>2026-04-04T15:38:24.495Z</time></trkpt><trkpt lat="45.8762274" lon="9.0871586"><ele>1103.0</ele><time>2026-04-04T15:38:25.496Z</time></trkpt><trkpt lat="45.8763189" lon="9.0871723"><ele>1103.0</ele><time>2026-04-04T15:38:26.497Z</time></trkpt><trkpt lat="45.8763972" lon="9.0871895"><ele>1103.0</ele><time>2026-04-04T15:38:27.497Z</time></trkpt><trkpt lat="45.8764859" lon="9.0871807"><ele>1103.0</ele><time>2026-04-04T15:38:28.496Z</time></trkpt><trkpt lat="45.8765818" lon="9.0871549"><ele>1103.0</ele><time>2026-04-04T15:38:29.491Z</time></trkpt><trkpt lat="45.876688" lon="9.0871256"><ele>1105.2</ele><time>2026-04-04T15:38:30.497Z</time></trkpt><trkpt lat="45.8767947" lon="9.0870721"><ele>1107.4</ele><time>2026-04-04T15:38:31.492Z</time></trkpt><trkpt lat="45.8769005" lon="9.0870108"><ele>1109.6000000000001</ele><time>2026-04-04T15:38:32.497Z</time></trkpt><trkpt lat="45.8770007" lon="9.0869436"><ele>1111.8</ele><time>2026-04-04T15:38:33.497Z</time></trkpt><trkpt lat="45.8771001" lon="9.0868969"><ele>1114.0</ele><time>2026-04-04T15:38:34.493Z</time></trkpt><trkpt lat="45.8771907" lon="9.0868543"><ele>1114.0</ele><time>2026-04-04T15:38:35.497Z</time></trkpt><trkpt lat="45.8772815" lon="9.0868159"><ele>1114.0</ele><time>2026-04-04T15:38:36.495Z</time></trkpt><trkpt lat="45.8773635" lon="9.0867909"><ele>1114.0</ele><time>2026-04-04T15:38:37.497Z</time></trkpt><trkpt lat="45.8774479" lon="9.0867843"><ele>1114.0</ele><time>2026-04-04T15:38:38.494Z</time></trkpt><trkpt lat="45.8775408" lon="9.0867985"><ele>1114.0</ele><time>2026-04-04T15:38:39.493Z</time></trkpt><trkpt lat="45.8776446" lon="9.086812"><ele>1114.4</ele><time>2026-04-04T15:38:40.493Z</time></trkpt><trkpt lat="45.87775" lon="9.0868237"><ele>1114.8000000000002</ele><time>2026-04-04T15:38:41.493Z</time></trkpt><trkpt lat="45.8778597" lon="9.0868353"><ele>1115.1999999999998</ele><time>2026-04-04T15:38:42.494Z</time></trkpt><trkpt lat="45.8779607" lon="9.0868533"><ele>1115.6</ele><time>2026-04-04T15:38:43.497Z</time></trkpt><trkpt lat="45.8780461" lon="9.0868771"><ele>1116.0</ele><time>2026-04-04T15:38:44.494Z</time></trkpt><trkpt lat="45.8781346" lon="9.0869074"><ele>1116.0</ele><time>2026-04-04T15:38:45.494Z</time></trkpt><trkpt lat="45.8782162" lon="9.0869401"><ele>1116.0</ele><time>2026-04-04T15:38:46.495Z</time></trkpt><trkpt lat="45.8782838" lon="9.0869625"><ele>1116.0</ele><time>2026-04-04T15:38:47.495Z</time></trkpt><trkpt lat="45.8783712" lon="9.0870325"><ele>1116.0</ele><time>2026-04-04T15:38:49.493Z</time></trkpt><trkpt lat="45.8784079" lon="9.0871864"><ele>1116.0</ele><time>2026-04-04T15:38:51.494Z</time></trkpt><trkpt lat="45.8784114" lon="9.0872876"><ele>1116.0</ele><time>2026-04-04T15:38:52.497Z</time></trkpt><trkpt lat="45.8783954" lon="9.0874035"><ele>1119.3999999999999</ele><time>2026-04-04T15:38:53.495Z</time></trkpt><trkpt lat="45.8783947" lon="9.087528"><ele>1122.8</ele><time>2026-04-04T15:38:54.493Z</time></trkpt><trkpt lat="45.878398" lon="9.0876644"><ele>1126.1999999999998</ele><time>2026-04-04T15:38:55.497Z</time></trkpt><trkpt lat="45.8784041" lon="9.0878123"><ele>1129.6</ele><time>2026-04-04T15:38:56.493Z</time></trkpt><trkpt lat="45.8784385" lon="9.0879551"><ele>1133.0</ele><time>2026-04-04T15:38:57.496Z</time></trkpt><trkpt lat="45.8784614" lon="9.0881008"><ele>1126.6</ele><time>2026-04-04T15:38:58.496Z</time></trkpt><trkpt lat="45.878488" lon="9.0882411"><ele>1120.1999999999998</ele><time>2026-04-04T15:38:59.495Z</time></trkpt><trkpt lat="45.8785285" lon="9.0883732"><ele>1113.8</ele><time>2026-04-04T15:39:00.493Z</time></trkpt><trkpt lat="45.8785683" lon="9.0885044"><ele>1107.3999999999999</ele><time>2026-04-04T15:39:01.493Z</time></trkpt><trkpt lat="45.8786192" lon="9.0886373"><ele>1101.0</ele><time>2026-04-04T15:39:02.496Z</time></trkpt><trkpt lat="45.8786674" lon="9.0887674"><ele>1101.0</ele><time>2026-04-04T15:39:03.495Z</time></trkpt><trkpt lat="45.8787308" lon="9.0889129"><ele>1101.0</ele><time>2026-04-04T15:39:04.497Z</time></trkpt><trkpt lat="45.8787779" lon="9.0890406"><ele>1101.0</ele><time>2026-04-04T15:39:05.491Z</time></trkpt><trkpt lat="45.8788264" lon="9.0891841"><ele>1101.0</ele><time>2026-04-04T15:39:06.496Z</time></trkpt><trkpt lat="45.87888" lon="9.0893211"><ele>1101.0</ele><time>2026-04-04T15:39:07.491Z</time></trkpt><trkpt lat="45.8789341" lon="9.0894667"><ele>1103.6</ele><time>2026-04-04T15:39:08.494Z</time></trkpt><trkpt lat="45.8789793" lon="9.0896067"><ele>1106.1999999999998</ele><time>2026-04-04T15:39:09.497Z</time></trkpt><trkpt lat="45.8790308" lon="9.0897528"><ele>1108.8000000000002</ele><time>2026-04-04T15:39:10.496Z</time></trkpt><trkpt lat="45.8790797" lon="9.089872"><ele>1111.4</ele><time>2026-04-04T15:39:11.495Z</time></trkpt><trkpt lat="45.8791405" lon="9.0900076"><ele>1114.0</ele><time>2026-04-04T15:39:12.493Z</time></trkpt><trkpt lat="45.8791949" lon="9.0901381"><ele>1113.6000000000001</ele><time>2026-04-04T15:39:13.497Z</time></trkpt><trkpt lat="45.87926" lon="9.0902615"><ele>1113.2</ele><time>2026-04-04T15:39:14.495Z</time></trkpt><trkpt lat="45.8793313" lon="9.0903747"><ele>1112.8000000000002</ele><time>2026-04-04T15:39:15.494Z</time></trkpt><trkpt lat="45.879407" lon="9.0904633"><ele>1112.4</ele><time>2026-04-04T15:39:16.495Z</time></trkpt><trkpt lat="45.879484" lon="9.0905514"><ele>1112.0</ele><time>2026-04-04T15:39:17.493Z</time></trkpt><trkpt lat="45.8795611" lon="9.0906319"><ele>1112.0</ele><time>2026-04-04T15:39:18.496Z</time></trkpt><trkpt lat="45.8796488" lon="9.0906994"><ele>1112.0</ele><time>2026-04-04T15:39:19.497Z</time></trkpt><trkpt lat="45.8797371" lon="9.0907601"><ele>1112.0</ele><time>2026-04-04T15:39:20.495Z</time></trkpt><trkpt lat="45.8798394" lon="9.0908115"><ele>1112.0</ele><time>2026-04-04T15:39:21.497Z</time></trkpt><trkpt lat="45.8799573" lon="9.0908726"><ele>1112.0</ele><time>2026-04-04T15:39:22.496Z</time></trkpt><trkpt lat="45.8800483" lon="9.0909092"><ele>1118.2</ele><time>2026-04-04T15:39:23.496Z</time></trkpt><trkpt lat="45.8801484" lon="9.0909519"><ele>1124.4</ele><time>2026-04-04T15:39:24.493Z</time></trkpt><trkpt lat="45.8802501" lon="9.0909831"><ele>1130.6</ele><time>2026-04-04T15:39:25.497Z</time></trkpt><trkpt lat="45.8803453" lon="9.0909649"><ele>1136.8</ele><time>2026-04-04T15:39:26.497Z</time></trkpt><trkpt lat="45.8804114" lon="9.0909676"><ele>1143.0</ele><time>2026-04-04T15:39:27.493Z</time></trkpt><trkpt lat="45.8805133" lon="9.0910299"><ele>1143.0</ele><time>2026-04-04T15:39:29.496Z</time></trkpt><trkpt lat="45.8805984" lon="9.091175"><ele>1143.0</ele><time>2026-04-04T15:39:31.497Z</time></trkpt><trkpt lat="45.880648" lon="9.0912841"><ele>1143.0</ele><time>2026-04-04T15:39:32.493Z</time></trkpt><trkpt lat="45.880706" lon="9.0914095"><ele>1143.0</ele><time>2026-04-04T15:39:33.495Z</time></trkpt><trkpt lat="45.8807578" lon="9.091536"><ele>1143.0</ele><time>2026-04-04T15:39:34.497Z</time></trkpt><trkpt lat="45.8808106" lon="9.0916582"><ele>1146.8</ele><time>2026-04-04T15:39:35.494Z</time></trkpt><trkpt lat="45.8808567" lon="9.0917876"><ele>1150.6</ele><time>2026-04-04T15:39:36.497Z</time></trkpt><trkpt lat="45.8809012" lon="9.0919267"><ele>1154.4</ele><time>2026-04-04T15:39:37.495Z</time></trkpt><trkpt lat="45.8809403" lon="9.0920815"><ele>1158.2</ele><time>2026-04-04T15:39:38.496Z</time></trkpt><trkpt lat="45.8809834" lon="9.092227"><ele>1162.0</ele><time>2026-04-04T15:39:39.494Z</time></trkpt><trkpt lat="45.8810157" lon="9.0923571"><ele>1156.6666666666665</ele><time>2026-04-04T15:39:40.497Z</time></trkpt><trkpt lat="45.881046" lon="9.0924809"><ele>1151.3333333333333</ele><time>2026-04-04T15:39:41.497Z</time></trkpt><trkpt lat="45.8810667" lon="9.0925796"><ele>1146.0</ele><time>2026-04-04T15:39:42.497Z</time></trkpt><trkpt lat="45.8810862" lon="9.0926896"><ele>1140.6666666666667</ele><time>2026-04-04T15:39:43.493Z</time></trkpt><trkpt lat="45.8811016" lon="9.0927984"><ele>1135.3333333333335</ele><time>2026-04-04T15:39:44.493Z</time></trkpt><trkpt lat="45.8810919" lon="9.0928936"><ele>1130.0</ele><time>2026-04-04T15:39:45.494Z</time></trkpt><trkpt lat="45.8810852" lon="9.0929917"><ele>1130.0</ele><time>2026-04-04T15:39:46.497Z</time></trkpt><trkpt lat="45.8810597" lon="9.0930847"><ele>1130.0</ele><time>2026-04-04T15:39:47.496Z</time></trkpt><trkpt lat="45.8810308" lon="9.0931667"><ele>1130.0</ele><time>2026-04-04T15:39:48.497Z</time></trkpt><trkpt lat="45.8809775" lon="9.093248"><ele>1130.0</ele><time>2026-04-04T15:39:49.494Z</time></trkpt><trkpt lat="45.8809066" lon="9.0933425"><ele>1130.0</ele><time>2026-04-04T15:39:50.497Z</time></trkpt><trkpt lat="45.8808103" lon="9.0934489"><ele>1130.0</ele><time>2026-04-04T15:39:51.497Z</time></trkpt><trkpt lat="45.8807244" lon="9.0935556"><ele>1137.2</ele><time>2026-04-04T15:39:52.496Z</time></trkpt><trkpt lat="45.8806401" lon="9.0936548"><ele>1144.4</ele><time>2026-04-04T15:39:53.494Z</time></trkpt><trkpt lat="45.8805564" lon="9.0937438"><ele>1151.6</ele><time>2026-04-04T15:39:54.493Z</time></trkpt><trkpt lat="45.8804805" lon="9.0938377"><ele>1158.8</ele><time>2026-04-04T15:39:55.497Z</time></trkpt><trkpt lat="45.8803948" lon="9.093933"><ele>1166.0</ele><time>2026-04-04T15:39:56.497Z</time></trkpt><trkpt lat="45.8803203" lon="9.0940359"><ele>1170.2</ele><time>2026-04-04T15:39:57.495Z</time></trkpt><trkpt lat="45.8802444" lon="9.0941377"><ele>1174.3999999999999</ele><time>2026-04-04T15:39:58.497Z</time></trkpt><trkpt lat="45.8801581" lon="9.0942263"><ele>1178.6</ele><time>2026-04-04T15:39:59.493Z</time></trkpt><trkpt lat="45.8800819" lon="9.0943371"><ele>1182.8</ele><time>2026-04-04T15:40:00.497Z</time></trkpt><trkpt lat="45.8800107" lon="9.094443"><ele>1187.0</ele><time>2026-04-04T15:40:01.49Z</time></trkpt><trkpt lat="45.8799308" lon="9.0945376"><ele>1187.0</ele><time>2026-04-04T15:40:02.496Z</time></trkpt><trkpt lat="45.8798473" lon="9.0946297"><ele>1187.0</ele><time>2026-04-04T15:40:03.493Z</time></trkpt><trkpt lat="45.8797958" lon="9.0947292"><ele>1187.0</ele><time>2026-04-04T15:40:04.495Z</time></trkpt><trkpt lat="45.8797309" lon="9.0948369"><ele>1187.0</ele><time>2026-04-04T15:40:05.494Z</time></trkpt><trkpt lat="45.8796805" lon="9.0949457"><ele>1187.0</ele><time>2026-04-04T15:40:06.496Z</time></trkpt><trkpt lat="45.8796347" lon="9.0950559"><ele>1184.1428571428573</ele><time>2026-04-04T15:40:07.495Z</time></trkpt><trkpt lat="45.8796192" lon="9.0951528"><ele>1181.2857142857142</ele><time>2026-04-04T15:40:08.496Z</time></trkpt><trkpt lat="45.8796381" lon="9.0952439"><ele>1178.4285714285716</ele><time>2026-04-04T15:40:09.493Z</time></trkpt><trkpt lat="45.8796451" lon="9.0953368"><ele>1175.5714285714287</ele><time>2026-04-04T15:40:10.497Z</time></trkpt><trkpt lat="45.8796624" lon="9.0954278"><ele>1172.7142857142858</ele><time>2026-04-04T15:40:11.496Z</time></trkpt><trkpt lat="45.8796811" lon="9.0955216"><ele>1169.857142857143</ele><time>2026-04-04T15:40:12.497Z</time></trkpt><trkpt lat="45.8797013" lon="9.0956188"><ele>1167.0</ele><time>2026-04-04T15:40:13.496Z</time></trkpt><trkpt lat="45.879725" lon="9.0957317"><ele>1167.6</ele><time>2026-04-04T15:40:14.497Z</time></trkpt><trkpt lat="45.8797579" lon="9.0958562"><ele>1168.2</ele><time>2026-04-04T15:40:15.496Z</time></trkpt><trkpt lat="45.8798051" lon="9.0959941"><ele>1168.8</ele><time>2026-04-04T15:40:16.497Z</time></trkpt><trkpt lat="45.879851" lon="9.0961211"><ele>1169.4</ele><time>2026-04-04T15:40:17.496Z</time></trkpt><trkpt lat="45.8799026" lon="9.096236"><ele>1170.0</ele><time>2026-04-04T15:40:18.496Z</time></trkpt><trkpt lat="45.8799608" lon="9.0963523"><ele>1170.0</ele><time>2026-04-04T15:40:19.494Z</time></trkpt><trkpt lat="45.8800257" lon="9.0964731"><ele>1170.0</ele><time>2026-04-04T15:40:20.493Z</time></trkpt><trkpt lat="45.8800926" lon="9.0965772"><ele>1170.0</ele><time>2026-04-04T15:40:21.497Z</time></trkpt><trkpt lat="45.8801615" lon="9.0966826"><ele>1170.0</ele><time>2026-04-04T15:40:22.494Z</time></trkpt><trkpt lat="45.8802374" lon="9.0967896"><ele>1170.0</ele><time>2026-04-04T15:40:23.497Z</time></trkpt><trkpt lat="45.8803175" lon="9.0969002"><ele>1165.2</ele><time>2026-04-04T15:40:24.496Z</time></trkpt><trkpt lat="45.8803915" lon="9.0970071"><ele>1160.4</ele><time>2026-04-04T15:40:25.497Z</time></trkpt><trkpt lat="45.8804622" lon="9.0970961"><ele>1155.6</ele><time>2026-04-04T15:40:26.497Z</time></trkpt><trkpt lat="45.8805328" lon="9.0971826"><ele>1150.8</ele><time>2026-04-04T15:40:27.493Z</time></trkpt><trkpt lat="45.8806074" lon="9.0972758"><ele>1146.0</ele><time>2026-04-04T15:40:28.496Z</time></trkpt><trkpt lat="45.8806759" lon="9.0973644"><ele>1145.3333333333333</ele><time>2026-04-04T15:40:29.496Z</time></trkpt><trkpt lat="45.8807385" lon="9.0974557"><ele>1144.6666666666667</ele><time>2026-04-04T15:40:30.496Z</time></trkpt><trkpt lat="45.8807965" lon="9.0975463"><ele>1144.0</ele><time>2026-04-04T15:40:31.496Z</time></trkpt><trkpt lat="45.8808517" lon="9.0976218"><ele>1143.3333333333335</ele><time>2026-04-04T15:40:32.493Z</time></trkpt><trkpt lat="45.8809067" lon="9.097672"><ele>1142.6666666666667</ele><time>2026-04-04T15:40:33.497Z</time></trkpt><trkpt lat="45.8809755" lon="9.0977261"><ele>1142.0</ele><time>2026-04-04T15:40:34.497Z</time></trkpt><trkpt lat="45.8810661" lon="9.0977818"><ele>1142.0</ele><time>2026-04-04T15:40:35.497Z</time></trkpt><trkpt lat="45.8811494" lon="9.0978399"><ele>1142.0</ele><time>2026-04-04T15:40:36.496Z</time></trkpt><trkpt lat="45.881233" lon="9.0978926"><ele>1142.0</ele><time>2026-04-04T15:40:37.496Z</time></trkpt><trkpt lat="45.8813208" lon="9.0979486"><ele>1142.0</ele><time>2026-04-04T15:40:38.493Z</time></trkpt><trkpt lat="45.8814031" lon="9.0980073"><ele>1142.0</ele><time>2026-04-04T15:40:39.494Z</time></trkpt><trkpt lat="45.8814824" lon="9.0980591"><ele>1142.0</ele><time>2026-04-04T15:40:40.495Z</time></trkpt><trkpt lat="45.8815573" lon="9.0981079"><ele>1142.0</ele><time>2026-04-04T15:40:41.496Z</time></trkpt><trkpt lat="45.8816244" lon="9.0981539"><ele>1142.0</ele><time>2026-04-04T15:40:42.497Z</time></trkpt><trkpt lat="45.8816878" lon="9.0981918"><ele>1142.0</ele><time>2026-04-04T15:40:43.497Z</time></trkpt><trkpt lat="45.8817572" lon="9.0982175"><ele>1142.0</ele><time>2026-04-04T15:40:44.494Z</time></trkpt><trkpt lat="45.8818858" lon="9.0983057"><ele>1142.0</ele><time>2026-04-04T15:40:46.495Z</time></trkpt><trkpt lat="45.881956" lon="9.0983583"><ele>1143.5</ele><time>2026-04-04T15:40:47.496Z</time></trkpt><trkpt lat="45.882035" lon="9.0984093"><ele>1145.0</ele><time>2026-04-04T15:40:48.496Z</time></trkpt><trkpt lat="45.8821094" lon="9.098464"><ele>1146.5</ele><time>2026-04-04T15:40:49.495Z</time></trkpt><trkpt lat="45.8821846" lon="9.0985096"><ele>1148.0</ele><time>2026-04-04T15:40:50.493Z</time></trkpt><trkpt lat="45.8822614" lon="9.0985509"><ele>1149.5</ele><time>2026-04-04T15:40:51.497Z</time></trkpt><trkpt lat="45.8823337" lon="9.098592"><ele>1151.0</ele><time>2026-04-04T15:40:52.493Z</time></trkpt><trkpt lat="45.8824079" lon="9.0986449"><ele>1151.0</ele><time>2026-04-04T15:40:53.494Z</time></trkpt><trkpt lat="45.8824852" lon="9.0986867"><ele>1151.0</ele><time>2026-04-04T15:40:54.497Z</time></trkpt><trkpt lat="45.8825577" lon="9.0987194"><ele>1151.0</ele><time>2026-04-04T15:40:55.496Z</time></trkpt><trkpt lat="45.8826327" lon="9.098768"><ele>1151.0</ele><time>2026-04-04T15:40:56.493Z</time></trkpt><trkpt lat="45.8827048" lon="9.0988262"><ele>1151.0</ele><time>2026-04-04T15:40:57.496Z</time></trkpt><trkpt lat="45.8827848" lon="9.0989127"><ele>1151.0</ele><time>2026-04-04T15:40:58.494Z</time></trkpt><trkpt lat="45.8828632" lon="9.099004"><ele>1151.2</ele><time>2026-04-04T15:40:59.494Z</time></trkpt><trkpt lat="45.8829384" lon="9.0991195"><ele>1151.3999999999999</ele><time>2026-04-04T15:41:00.494Z</time></trkpt><trkpt lat="45.88301" lon="9.0992265"><ele>1151.6</ele><time>2026-04-04T15:41:01.496Z</time></trkpt><trkpt lat="45.8830873" lon="9.0993477"><ele>1151.8</ele><time>2026-04-04T15:41:02.495Z</time></trkpt><trkpt lat="45.8831655" lon="9.0994491"><ele>1152.0</ele><time>2026-04-04T15:41:03.497Z</time></trkpt><trkpt lat="45.8832551" lon="9.099549"><ele>1152.0</ele><time>2026-04-04T15:41:04.494Z</time></trkpt><trkpt lat="45.8833354" lon="9.0996297"><ele>1152.0</ele><time>2026-04-04T15:41:05.497Z</time></trkpt><trkpt lat="45.8834201" lon="9.0997131"><ele>1152.0</ele><time>2026-04-04T15:41:06.496Z</time></trkpt><trkpt lat="45.8834795" lon="9.0997804"><ele>1152.0</ele><time>2026-04-04T15:41:07.495Z</time></trkpt><trkpt lat="45.8835384" lon="9.099862"><ele>1152.0</ele><time>2026-04-04T15:41:08.495Z</time></trkpt><trkpt lat="45.883611" lon="9.0999313"><ele>1152.0</ele><time>2026-04-04T15:41:09.493Z</time></trkpt><trkpt lat="45.8836876" lon="9.0999807"><ele>1152.6</ele><time>2026-04-04T15:41:10.495Z</time></trkpt><trkpt lat="45.8837584" lon="9.1000375"><ele>1153.2</ele><time>2026-04-04T15:41:11.493Z</time></trkpt><trkpt lat="45.8838311" lon="9.1001158"><ele>1153.8</ele><time>2026-04-04T15:41:12.493Z</time></trkpt><trkpt lat="45.883892" lon="9.1001775"><ele>1154.4</ele><time>2026-04-04T15:41:13.491Z</time></trkpt><trkpt lat="45.8839759" lon="9.1002611"><ele>1155.0</ele><time>2026-04-04T15:41:14.494Z</time></trkpt><trkpt lat="45.8840497" lon="9.1003605"><ele>1155.0</ele><time>2026-04-04T15:41:15.493Z</time></trkpt><trkpt lat="45.8841184" lon="9.1004407"><ele>1155.0</ele><time>2026-04-04T15:41:16.496Z</time></trkpt><trkpt lat="45.8841872" lon="9.100519"><ele>1155.0</ele><time>2026-04-04T15:41:17.497Z</time></trkpt><trkpt lat="45.8842576" lon="9.1005939"><ele>1155.0</ele><time>2026-04-04T15:41:18.496Z</time></trkpt><trkpt lat="45.8843188" lon="9.1006745"><ele>1155.0</ele><time>2026-04-04T15:41:19.496Z</time></trkpt><trkpt lat="45.8843934" lon="9.1007749"><ele>1155.0</ele><time>2026-04-04T15:41:20.497Z</time></trkpt><trkpt lat="45.8844656" lon="9.1008523"><ele>1155.1666666666667</ele><time>2026-04-04T15:41:21.494Z</time></trkpt><trkpt lat="45.8845428" lon="9.1009212"><ele>1155.3333333333333</ele><time>2026-04-04T15:41:22.497Z</time></trkpt><trkpt lat="45.8846268" lon="9.1009632"><ele>1155.5</ele><time>2026-04-04T15:41:23.496Z</time></trkpt><trkpt lat="45.8846998" lon="9.1010161"><ele>1155.6666666666665</ele><time>2026-04-04T15:41:24.497Z</time></trkpt><trkpt lat="45.8847724" lon="9.1010847"><ele>1155.8333333333333</ele><time>2026-04-04T15:41:25.49Z</time></trkpt><trkpt lat="45.8848494" lon="9.1011553"><ele>1156.0</ele><time>2026-04-04T15:41:26.492Z</time></trkpt><trkpt lat="45.8849305" lon="9.1012155"><ele>1156.0</ele><time>2026-04-04T15:41:27.495Z</time></trkpt><trkpt lat="45.8850255" lon="9.1012431"><ele>1156.0</ele><time>2026-04-04T15:41:28.495Z</time></trkpt><trkpt lat="45.8851088" lon="9.1012648"><ele>1156.0</ele><time>2026-04-04T15:41:29.492Z</time></trkpt><trkpt lat="45.8852115" lon="9.1012916"><ele>1156.0</ele><time>2026-04-04T15:41:30.494Z</time></trkpt><trkpt lat="45.8853132" lon="9.1013203"><ele>1156.0</ele><time>2026-04-04T15:41:31.495Z</time></trkpt><trkpt lat="45.885408" lon="9.1013395"><ele>1154.3999999999999</ele><time>2026-04-04T15:41:32.495Z</time></trkpt><trkpt lat="45.8855103" lon="9.1013491"><ele>1152.8</ele><time>2026-04-04T15:41:33.493Z</time></trkpt><trkpt lat="45.8856095" lon="9.1013663"><ele>1151.1999999999998</ele><time>2026-04-04T15:41:34.494Z</time></trkpt><trkpt lat="45.885717" lon="9.1013841"><ele>1149.6</ele><time>2026-04-04T15:41:35.495Z</time></trkpt><trkpt lat="45.8858054" lon="9.1013979"><ele>1148.0</ele><time>2026-04-04T15:41:36.497Z</time></trkpt><trkpt lat="45.8858741" lon="9.1014118"><ele>1149.5</ele><time>2026-04-04T15:41:37.497Z</time></trkpt><trkpt lat="45.8859691" lon="9.1014287"><ele>1151.0</ele><time>2026-04-04T15:41:39.494Z</time></trkpt><trkpt lat="45.8860435" lon="9.1014158"><ele>1152.5</ele><time>2026-04-04T15:41:41.492Z</time></trkpt><trkpt lat="45.886119" lon="9.1014152"><ele>1154.0</ele><time>2026-04-04T15:41:43.492Z</time></trkpt><trkpt lat="45.886241" lon="9.1014047"><ele>1155.5</ele><time>2026-04-04T15:41:45.497Z</time></trkpt><trkpt lat="45.8863208" lon="9.1013971"><ele>1157.0</ele><time>2026-04-04T15:41:46.497Z</time></trkpt><trkpt lat="45.8864066" lon="9.101385"><ele>1157.0</ele><time>2026-04-04T15:41:47.497Z</time></trkpt><trkpt lat="45.8865125" lon="9.1013314"><ele>1157.0</ele><time>2026-04-04T15:41:48.493Z</time></trkpt><trkpt lat="45.886617" lon="9.1012985"><ele>1157.0</ele><time>2026-04-04T15:41:49.492Z</time></trkpt><trkpt lat="45.8867082" lon="9.1012707"><ele>1157.0</ele><time>2026-04-04T15:41:50.496Z</time></trkpt><trkpt lat="45.8867894" lon="9.1012524"><ele>1157.0</ele><time>2026-04-04T15:41:51.497Z</time></trkpt><trkpt lat="45.8868537" lon="9.1012165"><ele>1155.0</ele><time>2026-04-04T15:41:52.494Z</time></trkpt><trkpt lat="45.8869195" lon="9.1012171"><ele>1153.0</ele><time>2026-04-04T15:41:53.494Z</time></trkpt><trkpt lat="45.8869863" lon="9.1012305"><ele>1151.0</ele><time>2026-04-04T15:41:54.492Z</time></trkpt><trkpt lat="45.8871188" lon="9.1012512"><ele>1149.0</ele><time>2026-04-04T15:41:56.492Z</time></trkpt><trkpt lat="45.8871854" lon="9.1013004"><ele>1147.0</ele><time>2026-04-04T15:41:57.495Z</time></trkpt><trkpt lat="45.8872545" lon="9.1013542"><ele>1145.0</ele><time>2026-04-04T15:41:58.496Z</time></trkpt><trkpt lat="45.8873182" lon="9.1014279"><ele>1145.0</ele><time>2026-04-04T15:41:59.496Z</time></trkpt><trkpt lat="45.8873835" lon="9.1015057"><ele>1145.0</ele><time>2026-04-04T15:42:00.496Z</time></trkpt><trkpt lat="45.8874444" lon="9.1016003"><ele>1145.0</ele><time>2026-04-04T15:42:01.497Z</time></trkpt><trkpt lat="45.887513" lon="9.1017016"><ele>1145.0</ele><time>2026-04-04T15:42:02.492Z</time></trkpt><trkpt lat="45.8875751" lon="9.1017888"><ele>1145.0</ele><time>2026-04-04T15:42:03.493Z</time></trkpt><trkpt lat="45.8876253" lon="9.1018752"><ele>1145.0</ele><time>2026-04-04T15:42:04.495Z</time></trkpt><trkpt lat="45.8876769" lon="9.1019629"><ele>1145.5</ele><time>2026-04-04T15:42:05.497Z</time></trkpt><trkpt lat="45.8877239" lon="9.1020575"><ele>1146.0</ele><time>2026-04-04T15:42:06.493Z</time></trkpt><trkpt lat="45.887756" lon="9.1021469"><ele>1146.5</ele><time>2026-04-04T15:42:07.493Z</time></trkpt><trkpt lat="45.8877978" lon="9.1022525"><ele>1147.0</ele><time>2026-04-04T15:42:08.496Z</time></trkpt><trkpt lat="45.8878379" lon="9.1023645"><ele>1147.5</ele><time>2026-04-04T15:42:09.497Z</time></trkpt><trkpt lat="45.8878816" lon="9.1024945"><ele>1148.0</ele><time>2026-04-04T15:42:10.492Z</time></trkpt><trkpt lat="45.8879243" lon="9.1026338"><ele>1148.0</ele><time>2026-04-04T15:42:11.495Z</time></trkpt><trkpt lat="45.8879705" lon="9.1027649"><ele>1148.0</ele><time>2026-04-04T15:42:12.497Z</time></trkpt><trkpt lat="45.8880193" lon="9.1028872"><ele>1148.0</ele><time>2026-04-04T15:42:13.494Z</time></trkpt><trkpt lat="45.8880798" lon="9.1030166"><ele>1148.0</ele><time>2026-04-04T15:42:14.494Z</time></trkpt><trkpt lat="45.8881488" lon="9.1031512"><ele>1148.0</ele><time>2026-04-04T15:42:15.497Z</time></trkpt><trkpt lat="45.8882158" lon="9.103282"><ele>1152.5</ele><time>2026-04-04T15:42:16.497Z</time></trkpt><trkpt lat="45.8882852" lon="9.1034116"><ele>1157.0</ele><time>2026-04-04T15:42:17.496Z</time></trkpt><trkpt lat="45.8883609" lon="9.1035455"><ele>1161.5</ele><time>2026-04-04T15:42:18.497Z</time></trkpt><trkpt lat="45.888437" lon="9.1036646"><ele>1166.0</ele><time>2026-04-04T15:42:19.495Z</time></trkpt><trkpt lat="45.8885119" lon="9.103791"><ele>1163.2</ele><time>2026-04-04T15:42:20.497Z</time></trkpt><trkpt lat="45.8885921" lon="9.1039072"><ele>1160.3999999999999</ele><time>2026-04-04T15:42:21.495Z</time></trkpt><trkpt lat="45.8886552" lon="9.1040169"><ele>1157.6</ele><time>2026-04-04T15:42:22.496Z</time></trkpt><trkpt lat="45.888721" lon="9.1041102"><ele>1154.8</ele><time>2026-04-04T15:42:23.494Z</time></trkpt><trkpt lat="45.888775" lon="9.1042112"><ele>1152.0</ele><time>2026-04-04T15:42:24.494Z</time></trkpt><trkpt lat="45.8888318" lon="9.104308"><ele>1152.0</ele><time>2026-04-04T15:42:25.495Z</time></trkpt><trkpt lat="45.8888808" lon="9.1043895"><ele>1152.0</ele><time>2026-04-04T15:42:26.493Z</time></trkpt><trkpt lat="45.8889307" lon="9.1044749"><ele>1152.0</ele><time>2026-04-04T15:42:27.494Z</time></trkpt><trkpt lat="45.8889811" lon="9.1045583"><ele>1152.0</ele><time>2026-04-04T15:42:28.492Z</time></trkpt><trkpt lat="45.8890236" lon="9.1046663"><ele>1152.0</ele><time>2026-04-04T15:42:29.494Z</time></trkpt><trkpt lat="45.8890794" lon="9.1047871"><ele>1152.0</ele><time>2026-04-04T15:42:30.497Z</time></trkpt><trkpt lat="45.8891273" lon="9.1049043"><ele>1148.0</ele><time>2026-04-04T15:42:31.494Z</time></trkpt><trkpt lat="45.8891958" lon="9.105053"><ele>1144.0</ele><time>2026-04-04T15:42:32.493Z</time></trkpt><trkpt lat="45.889254" lon="9.1051853"><ele>1140.0</ele><time>2026-04-04T15:42:33.496Z</time></trkpt><trkpt lat="45.8893212" lon="9.105335"><ele>1136.0</ele><time>2026-04-04T15:42:34.494Z</time></trkpt><trkpt lat="45.8893834" lon="9.1054744"><ele>1136.0</ele><time>2026-04-04T15:42:35.493Z</time></trkpt><trkpt lat="45.8894345" lon="9.1056075"><ele>1136.0</ele><time>2026-04-04T15:42:36.495Z</time></trkpt><trkpt lat="45.8894935" lon="9.1057527"><ele>1136.0</ele><time>2026-04-04T15:42:37.491Z</time></trkpt><trkpt lat="45.8895401" lon="9.105885"><ele>1136.0</ele><time>2026-04-04T15:42:38.493Z</time></trkpt><trkpt lat="45.8895999" lon="9.1060281"><ele>1136.0</ele><time>2026-04-04T15:42:39.497Z</time></trkpt><trkpt lat="45.8896578" lon="9.1061619"><ele>1140.3999999999999</ele><time>2026-04-04T15:42:40.491Z</time></trkpt><trkpt lat="45.8897157" lon="9.1062805"><ele>1144.8</ele><time>2026-04-04T15:42:41.493Z</time></trkpt><trkpt lat="45.8897778" lon="9.1064039"><ele>1149.1999999999998</ele><time>2026-04-04T15:42:42.491Z</time></trkpt><trkpt lat="45.8898391" lon="9.1065342"><ele>1153.6</ele><time>2026-04-04T15:42:43.495Z</time></trkpt><trkpt lat="45.8898991" lon="9.1066437"><ele>1158.0</ele><time>2026-04-04T15:42:44.492Z</time></trkpt><trkpt lat="45.889966" lon="9.1067765"><ele>1160.4</ele><time>2026-04-04T15:42:45.494Z</time></trkpt><trkpt lat="45.8900325" lon="9.1069077"><ele>1162.8</ele><time>2026-04-04T15:42:46.496Z</time></trkpt><trkpt lat="45.8900796" lon="9.1070327"><ele>1165.2</ele><time>2026-04-04T15:42:47.493Z</time></trkpt><trkpt lat="45.8901235" lon="9.1071302"><ele>1167.6</ele><time>2026-04-04T15:42:48.494Z</time></trkpt><trkpt lat="45.8901791" lon="9.107236"><ele>1170.0</ele><time>2026-04-04T15:42:49.491Z</time></trkpt><trkpt lat="45.8902407" lon="9.1073339"><ele>1174.4</ele><time>2026-04-04T15:42:50.496Z</time></trkpt><trkpt lat="45.890307" lon="9.107416"><ele>1178.8</ele><time>2026-04-04T15:42:51.491Z</time></trkpt><trkpt lat="45.8903841" lon="9.1074875"><ele>1183.2</ele><time>2026-04-04T15:42:52.493Z</time></trkpt><trkpt lat="45.8904625" lon="9.1075575"><ele>1187.6</ele><time>2026-04-04T15:42:53.494Z</time></trkpt><trkpt lat="45.890542" lon="9.10764"><ele>1192.0</ele><time>2026-04-04T15:42:54.497Z</time></trkpt><trkpt lat="45.8906214" lon="9.1077264"><ele>1192.0</ele><time>2026-04-04T15:42:55.497Z</time></trkpt><trkpt lat="45.8906998" lon="9.1078212"><ele>1192.0</ele><time>2026-04-04T15:42:56.492Z</time></trkpt><trkpt lat="45.8907718" lon="9.1079159"><ele>1192.0</ele><time>2026-04-04T15:42:57.494Z</time></trkpt><trkpt lat="45.8908354" lon="9.1079869"><ele>1192.0</ele><time>2026-04-04T15:42:58.497Z</time></trkpt><trkpt lat="45.8908999" lon="9.1080258"><ele>1192.0</ele><time>2026-04-04T15:42:59.491Z</time></trkpt><trkpt lat="45.8909627" lon="9.1080446"><ele>1192.0</ele><time>2026-04-04T15:43:00.497Z</time></trkpt><trkpt lat="45.8910396" lon="9.1080492"><ele>1194.6666666666665</ele><time>2026-04-04T15:43:01.497Z</time></trkpt><trkpt lat="45.8911232" lon="9.1080506"><ele>1197.3333333333333</ele><time>2026-04-04T15:43:02.492Z</time></trkpt><trkpt lat="45.891207" lon="9.1080374"><ele>1200.0</ele><time>2026-04-04T15:43:03.497Z</time></trkpt><trkpt lat="45.8912932" lon="9.1080154"><ele>1202.6666666666667</ele><time>2026-04-04T15:43:04.496Z</time></trkpt><trkpt lat="45.8913889" lon="9.1079613"><ele>1205.3333333333335</ele><time>2026-04-04T15:43:05.493Z</time></trkpt><trkpt lat="45.8914634" lon="9.1079035"><ele>1208.0</ele><time>2026-04-04T15:43:06.491Z</time></trkpt><trkpt lat="45.8915604" lon="9.1078529"><ele>1208.0</ele><time>2026-04-04T15:43:07.493Z</time></trkpt><trkpt lat="45.8916516" lon="9.1078105"><ele>1208.0</ele><time>2026-04-04T15:43:08.497Z</time></trkpt><trkpt lat="45.8917507" lon="9.1077536"><ele>1208.0</ele><time>2026-04-04T15:43:09.492Z</time></trkpt><trkpt lat="45.8918563" lon="9.1077151"><ele>1208.0</ele><time>2026-04-04T15:43:10.497Z</time></trkpt><trkpt lat="45.8919381" lon="9.1076767"><ele>1208.0</ele><time>2026-04-04T15:43:11.496Z</time></trkpt><trkpt lat="45.8920167" lon="9.1076556"><ele>1209.8333333333335</ele><time>2026-04-04T15:43:12.497Z</time></trkpt><trkpt lat="45.8920911" lon="9.1076582"><ele>1211.6666666666667</ele><time>2026-04-04T15:43:13.497Z</time></trkpt><trkpt lat="45.8921766" lon="9.1076631"><ele>1213.5</ele><time>2026-04-04T15:43:14.496Z</time></trkpt><trkpt lat="45.8922555" lon="9.1076829"><ele>1215.3333333333333</ele><time>2026-04-04T15:43:15.495Z</time></trkpt><trkpt lat="45.8923353" lon="9.107734"><ele>1217.1666666666665</ele><time>2026-04-04T15:43:16.494Z</time></trkpt><trkpt lat="45.8924303" lon="9.1077451"><ele>1219.0</ele><time>2026-04-04T15:43:17.497Z</time></trkpt><trkpt lat="45.8925211" lon="9.1077726"><ele>1219.6000000000001</ele><time>2026-04-04T15:43:18.489Z</time></trkpt><trkpt lat="45.8926228" lon="9.107793"><ele>1220.2</ele><time>2026-04-04T15:43:19.497Z</time></trkpt><trkpt lat="45.8927284" lon="9.1078137"><ele>1220.8000000000002</ele><time>2026-04-04T15:43:20.489Z</time></trkpt><trkpt lat="45.8928252" lon="9.1078376"><ele>1221.4</ele><time>2026-04-04T15:43:21.49Z</time></trkpt><trkpt lat="45.8929262" lon="9.1078538"><ele>1222.0</ele><time>2026-04-04T15:43:22.49Z</time></trkpt><trkpt lat="45.8930255" lon="9.107862"><ele>1222.0</ele><time>2026-04-04T15:43:23.49Z</time></trkpt><trkpt lat="45.8931274" lon="9.1078652"><ele>1222.0</ele><time>2026-04-04T15:43:24.489Z</time></trkpt><trkpt lat="45.8932324" lon="9.1078564"><ele>1222.0</ele><time>2026-04-04T15:43:25.491Z</time></trkpt><trkpt lat="45.8933362" lon="9.1078252"><ele>1222.0</ele><time>2026-04-04T15:43:26.491Z</time></trkpt><trkpt lat="45.8934314" lon="9.1077864"><ele>1222.0</ele><time>2026-04-04T15:43:27.489Z</time></trkpt><trkpt lat="45.8935323" lon="9.1077324"><ele>1222.2</ele><time>2026-04-04T15:43:28.489Z</time></trkpt><trkpt lat="45.8936161" lon="9.1076493"><ele>1222.4</ele><time>2026-04-04T15:43:29.495Z</time></trkpt><trkpt lat="45.8937162" lon="9.10754"><ele>1222.6</ele><time>2026-04-04T15:43:30.494Z</time></trkpt><trkpt lat="45.8937837" lon="9.1074392"><ele>1222.8</ele><time>2026-04-04T15:43:31.497Z</time></trkpt><trkpt lat="45.8938641" lon="9.1073345"><ele>1223.0</ele><time>2026-04-04T15:43:32.492Z</time></trkpt><trkpt lat="45.8939574" lon="9.1072291"><ele>1223.0</ele><time>2026-04-04T15:43:33.493Z</time></trkpt><trkpt lat="45.8940375" lon="9.1071282"><ele>1223.0</ele><time>2026-04-04T15:43:34.492Z</time></trkpt><trkpt lat="45.894119" lon="9.1070344"><ele>1223.0</ele><time>2026-04-04T15:43:35.491Z</time></trkpt><trkpt lat="45.8942027" lon="9.1069355"><ele>1223.0</ele><time>2026-04-04T15:43:36.491Z</time></trkpt><trkpt lat="45.8942974" lon="9.1068288"><ele>1223.0</ele><time>2026-04-04T15:43:37.49Z</time></trkpt><trkpt lat="45.89437" lon="9.1067257"><ele>1227.1666666666667</ele><time>2026-04-04T15:43:38.495Z</time></trkpt><trkpt lat="45.8944328" lon="9.1066369"><ele>1231.3333333333335</ele><time>2026-04-04T15:43:39.49Z</time></trkpt><trkpt lat="45.8944938" lon="9.1065382"><ele>1235.5</ele><time>2026-04-04T15:43:40.494Z</time></trkpt><trkpt lat="45.8945117" lon="9.1064313"><ele>1239.6666666666667</ele><time>2026-04-04T15:43:41.492Z</time></trkpt><trkpt lat="45.8945163" lon="9.1063161"><ele>1243.8333333333333</ele><time>2026-04-04T15:43:42.492Z</time></trkpt><trkpt lat="45.8945203" lon="9.1061958"><ele>1248.0</ele><time>2026-04-04T15:43:43.49Z</time></trkpt><trkpt lat="45.8945037" lon="9.1060575"><ele>1248.0</ele><time>2026-04-04T15:43:44.492Z</time></trkpt><trkpt lat="45.8945059" lon="9.1059542"><ele>1248.0</ele><time>2026-04-04T15:43:45.49Z</time></trkpt><trkpt lat="45.8945177" lon="9.105854"><ele>1248.0</ele><time>2026-04-04T15:43:46.495Z</time></trkpt><trkpt lat="45.8945674" lon="9.1057158"><ele>1248.0</ele><time>2026-04-04T15:43:48.491Z</time></trkpt><trkpt lat="45.8946092" lon="9.1056392"><ele>1248.0</ele><time>2026-04-04T15:43:50.497Z</time></trkpt><trkpt lat="45.8946467" lon="9.1055526"><ele>1248.0</ele><time>2026-04-04T15:43:52.497Z</time></trkpt><trkpt lat="45.89473" lon="9.1054117"><ele>1246.0</ele><time>2026-04-04T15:43:54.489Z</time></trkpt><trkpt lat="45.8947824" lon="9.1053328"><ele>1244.0</ele><time>2026-04-04T15:43:55.49Z</time></trkpt><trkpt lat="45.8948967" lon="9.1051909"><ele>1242.0</ele><time>2026-04-04T15:43:57.491Z</time></trkpt><trkpt lat="45.8949753" lon="9.105101"><ele>1240.0</ele><time>2026-04-04T15:43:58.493Z</time></trkpt><trkpt lat="45.8950611" lon="9.1049997"><ele>1238.0</ele><time>2026-04-04T15:43:59.49Z</time></trkpt><trkpt lat="45.8951574" lon="9.1048865"><ele>1244.25</ele><time>2026-04-04T15:44:00.49Z</time></trkpt><trkpt lat="45.8952564" lon="9.1047736"><ele>1250.5</ele><time>2026-04-04T15:44:01.489Z</time></trkpt><trkpt lat="45.8953561" lon="9.1046606"><ele>1256.75</ele><time>2026-04-04T15:44:02.49Z</time></trkpt><trkpt lat="45.8954579" lon="9.1045442"><ele>1263.0</ele><time>2026-04-04T15:44:03.49Z</time></trkpt><trkpt lat="45.8955535" lon="9.1044377"><ele>1263.0</ele><time>2026-04-04T15:44:04.495Z</time></trkpt><trkpt lat="45.89564" lon="9.1043388"><ele>1263.0</ele><time>2026-04-04T15:44:05.496Z</time></trkpt><trkpt lat="45.8957273" lon="9.1042298"><ele>1263.0</ele><time>2026-04-04T15:44:06.493Z</time></trkpt><trkpt lat="45.8958091" lon="9.1041167"><ele>1263.0</ele><time>2026-04-04T15:44:07.489Z</time></trkpt><trkpt lat="45.8958888" lon="9.1040041"><ele>1265.4</ele><time>2026-04-04T15:44:08.496Z</time></trkpt><trkpt lat="45.8959724" lon="9.1038962"><ele>1267.8</ele><time>2026-04-04T15:44:09.492Z</time></trkpt><trkpt lat="45.8960556" lon="9.1037992"><ele>1270.2</ele><time>2026-04-04T15:44:10.49Z</time></trkpt><trkpt lat="45.8961345" lon="9.1037111"><ele>1272.6</ele><time>2026-04-04T15:44:11.492Z</time></trkpt><trkpt lat="45.8962081" lon="9.1036231"><ele>1275.0</ele><time>2026-04-04T15:44:12.492Z</time></trkpt><trkpt lat="45.8962672" lon="9.1035437"><ele>1275.0</ele><time>2026-04-04T15:44:13.491Z</time></trkpt><trkpt lat="45.8963552" lon="9.1034383"><ele>1275.0</ele><time>2026-04-04T15:44:15.496Z</time></trkpt><trkpt lat="45.8964282" lon="9.1034042"><ele>1275.0</ele><time>2026-04-04T15:44:17.492Z</time></trkpt><trkpt lat="45.8965008" lon="9.1034544"><ele>1275.0</ele><time>2026-04-04T15:44:19.494Z</time></trkpt><trkpt lat="45.8965511" lon="9.1035936"><ele>1275.0</ele><time>2026-04-04T15:44:21.497Z</time></trkpt><trkpt lat="45.8965803" lon="9.1036835"><ele>1275.0</ele><time>2026-04-04T15:44:22.491Z</time></trkpt><trkpt lat="45.8966086" lon="9.1037669"><ele>1275.0</ele><time>2026-04-04T15:44:23.496Z</time></trkpt><trkpt lat="45.8966361" lon="9.1038591"><ele>1275.0</ele><time>2026-04-04T15:44:24.497Z</time></trkpt><trkpt lat="45.8966645" lon="9.1039563"><ele>1275.0</ele><time>2026-04-04T15:44:25.495Z</time></trkpt><trkpt lat="45.8966897" lon="9.1040553"><ele>1275.0</ele><time>2026-04-04T15:44:26.494Z</time></trkpt><trkpt lat="45.8967099" lon="9.1041566"><ele>1275.0</ele><time>2026-04-04T15:44:27.491Z</time></trkpt><trkpt lat="45.8967327" lon="9.1042517"><ele>1275.0</ele><time>2026-04-04T15:44:28.492Z</time></trkpt><trkpt lat="45.8967548" lon="9.1043469"><ele>1271.5</ele><time>2026-04-04T15:44:29.489Z</time></trkpt><trkpt lat="45.8967753" lon="9.1044506"><ele>1268.0</ele><time>2026-04-04T15:44:30.491Z</time></trkpt><trkpt lat="45.8967927" lon="9.1045406"><ele>1264.5</ele><time>2026-04-04T15:44:31.493Z</time></trkpt><trkpt lat="45.8968401" lon="9.1047068"><ele>1261.0</ele><time>2026-04-04T15:44:33.492Z</time></trkpt><trkpt lat="45.8968941" lon="9.1048084"><ele>1257.5</ele><time>2026-04-04T15:44:34.495Z</time></trkpt><trkpt lat="45.8969293" lon="9.1049116"><ele>1254.0</ele><time>2026-04-04T15:44:35.495Z</time></trkpt><trkpt lat="45.8969716" lon="9.1050043"><ele>1254.0</ele><time>2026-04-04T15:44:36.492Z</time></trkpt><trkpt lat="45.8970125" lon="9.105099"><ele>1254.0</ele><time>2026-04-04T15:44:37.491Z</time></trkpt><trkpt lat="45.8970687" lon="9.105171"><ele>1254.0</ele><time>2026-04-04T15:44:38.495Z</time></trkpt><trkpt lat="45.897122" lon="9.1052494"><ele>1254.0</ele><time>2026-04-04T15:44:39.493Z</time></trkpt><trkpt lat="45.897187" lon="9.105336"><ele>1254.0</ele><time>2026-04-04T15:44:40.492Z</time></trkpt><trkpt lat="45.8972524" lon="9.1054134"><ele>1254.0</ele><time>2026-04-04T15:44:41.494Z</time></trkpt><trkpt lat="45.8973367" lon="9.1054888"><ele>1254.0</ele><time>2026-04-04T15:44:42.495Z</time></trkpt><trkpt lat="45.8974058" lon="9.1055275"><ele>1254.0</ele><time>2026-04-04T15:44:43.496Z</time></trkpt><trkpt lat="45.8974833" lon="9.1055677"><ele>1254.0</ele><time>2026-04-04T15:44:44.491Z</time></trkpt><trkpt lat="45.8975674" lon="9.1055818"><ele>1254.0</ele><time>2026-04-04T15:44:45.49Z</time></trkpt><trkpt lat="45.8976531" lon="9.1056089"><ele>1254.0</ele><time>2026-04-04T15:44:46.492Z</time></trkpt><trkpt lat="45.897733" lon="9.1056509"><ele>1254.0</ele><time>2026-04-04T15:44:47.496Z</time></trkpt><trkpt lat="45.8978044" lon="9.1056785"><ele>1254.8333333333333</ele><time>2026-04-04T15:44:48.495Z</time></trkpt><trkpt lat="45.8978734" lon="9.1056891"><ele>1255.6666666666667</ele><time>2026-04-04T15:44:49.492Z</time></trkpt><trkpt lat="45.8979532" lon="9.1056991"><ele>1256.5</ele><time>2026-04-04T15:44:50.492Z</time></trkpt><trkpt lat="45.8980331" lon="9.1057294"><ele>1257.3333333333335</ele><time>2026-04-04T15:44:51.494Z</time></trkpt><trkpt lat="45.8981205" lon="9.1057507"><ele>1258.1666666666667</ele><time>2026-04-04T15:44:52.492Z</time></trkpt><trkpt lat="45.8982028" lon="9.1057735"><ele>1259.0</ele><time>2026-04-04T15:44:53.493Z</time></trkpt><trkpt lat="45.8982925" lon="9.1057924"><ele>1259.0</ele><time>2026-04-04T15:44:54.491Z</time></trkpt><trkpt lat="45.8983643" lon="9.1057836"><ele>1259.0</ele><time>2026-04-04T15:44:55.493Z</time></trkpt><trkpt lat="45.8984574" lon="9.1057865"><ele>1259.0</ele><time>2026-04-04T15:44:56.495Z</time></trkpt><trkpt lat="45.8985549" lon="9.1057904"><ele>1259.0</ele><time>2026-04-04T15:44:57.493Z</time></trkpt><trkpt lat="45.89865" lon="9.1057808"><ele>1259.0</ele><time>2026-04-04T15:44:58.496Z</time></trkpt><trkpt lat="45.8987419" lon="9.1057564"><ele>1250.8</ele><time>2026-04-04T15:44:59.497Z</time></trkpt><trkpt lat="45.898833" lon="9.1057348"><ele>1242.6000000000001</ele><time>2026-04-04T15:45:00.491Z</time></trkpt><trkpt lat="45.8989296" lon="9.1056966"><ele>1234.4</ele><time>2026-04-04T15:45:01.492Z</time></trkpt><trkpt lat="45.8990135" lon="9.105667"><ele>1226.2</ele><time>2026-04-04T15:45:02.491Z</time></trkpt><trkpt lat="45.8991035" lon="9.1056452"><ele>1218.0</ele><time>2026-04-04T15:45:03.494Z</time></trkpt><trkpt lat="45.899193" lon="9.1056115"><ele>1221.0</ele><time>2026-04-04T15:45:04.494Z</time></trkpt><trkpt lat="45.8992744" lon="9.1055775"><ele>1224.0</ele><time>2026-04-04T15:45:05.491Z</time></trkpt><trkpt lat="45.8993538" lon="9.1055408"><ele>1227.0</ele><time>2026-04-04T15:45:06.492Z</time></trkpt><trkpt lat="45.8994274" lon="9.1054755"><ele>1230.0</ele><time>2026-04-04T15:45:07.494Z</time></trkpt><trkpt lat="45.8995024" lon="9.10542"><ele>1233.0</ele><time>2026-04-04T15:45:08.493Z</time></trkpt><trkpt lat="45.8995774" lon="9.1053615"><ele>1236.0</ele><time>2026-04-04T15:45:09.497Z</time></trkpt><trkpt lat="45.8996436" lon="9.1052915"><ele>1236.0000000000002</ele><time>2026-04-04T15:45:10.494Z</time></trkpt><trkpt lat="45.8996923" lon="9.1052101"><ele>1236.0</ele><time>2026-04-04T15:45:11.497Z</time></trkpt><trkpt lat="45.8997389" lon="9.1051263"><ele>1236.0</ele><time>2026-04-04T15:45:12.494Z</time></trkpt><trkpt lat="45.899789" lon="9.1050522"><ele>1236.0</ele><time>2026-04-04T15:45:13.492Z</time></trkpt><trkpt lat="45.8998412" lon="9.1049789"><ele>1236.0</ele><time>2026-04-04T15:45:14.495Z</time></trkpt><trkpt lat="45.899898" lon="9.1049177"><ele>1236.0000000000002</ele><time>2026-04-04T15:45:15.497Z</time></trkpt><trkpt lat="45.8999585" lon="9.1048675"><ele>1236.0</ele><time>2026-04-04T15:45:16.496Z</time></trkpt><trkpt lat="45.9000174" lon="9.104823"><ele>1231.0</ele><time>2026-04-04T15:45:17.497Z</time></trkpt><trkpt lat="45.9000756" lon="9.1047878"><ele>1226.0</ele><time>2026-04-04T15:45:18.496Z</time></trkpt><trkpt lat="45.9001355" lon="9.1047559"><ele>1221.0</ele><time>2026-04-04T15:45:19.491Z</time></trkpt><trkpt lat="45.9002088" lon="9.1047407"><ele>1216.0</ele><time>2026-04-04T15:45:20.493Z</time></trkpt><trkpt lat="45.9003253" lon="9.1047007"><ele>1211.0</ele><time>2026-04-04T15:45:22.492Z</time></trkpt><trkpt lat="45.9004052" lon="9.1046368"><ele>1206.0</ele><time>2026-04-04T15:45:24.494Z</time></trkpt><trkpt lat="45.9004965" lon="9.104588"><ele>1206.0</ele><time>2026-04-04T15:45:26.495Z</time></trkpt><trkpt lat="45.9006318" lon="9.104581"><ele>1206.0</ele><time>2026-04-04T15:45:28.497Z</time></trkpt><trkpt lat="45.9007028" lon="9.1045732"><ele>1206.0</ele><time>2026-04-04T15:45:29.494Z</time></trkpt><trkpt lat="45.9007773" lon="9.1045524"><ele>1206.0</ele><time>2026-04-04T15:45:30.497Z</time></trkpt><trkpt lat="45.9008512" lon="9.1045317"><ele>1206.0</ele><time>2026-04-04T15:45:31.497Z</time></trkpt><trkpt lat="45.9009117" lon="9.1044812"><ele>1206.0</ele><time>2026-04-04T15:45:32.494Z</time></trkpt><trkpt lat="45.9009721" lon="9.1044343"><ele>1207.0</ele><time>2026-04-04T15:45:33.496Z</time></trkpt><trkpt lat="45.9010288" lon="9.104388"><ele>1208.0</ele><time>2026-04-04T15:45:34.493Z</time></trkpt><trkpt lat="45.9010646" lon="9.1042923"><ele>1209.0</ele><time>2026-04-04T15:45:35.492Z</time></trkpt><trkpt lat="45.9011071" lon="9.1041843"><ele>1210.0</ele><time>2026-04-04T15:45:36.495Z</time></trkpt><trkpt lat="45.901159" lon="9.1040968"><ele>1211.0</ele><time>2026-04-04T15:45:37.491Z</time></trkpt><trkpt lat="45.9012168" lon="9.1039951"><ele>1212.0</ele><time>2026-04-04T15:45:38.493Z</time></trkpt><trkpt lat="45.9012778" lon="9.1038953"><ele>1212.0</ele><time>2026-04-04T15:45:39.491Z</time></trkpt><trkpt lat="45.9013379" lon="9.1037919"><ele>1212.0</ele><time>2026-04-04T15:45:40.495Z</time></trkpt><trkpt lat="45.901388" lon="9.1036802"><ele>1212.0</ele><time>2026-04-04T15:45:41.49Z</time></trkpt><trkpt lat="45.9014373" lon="9.1035649"><ele>1212.0</ele><time>2026-04-04T15:45:42.494Z</time></trkpt><trkpt lat="45.901478" lon="9.1034619"><ele>1212.0</ele><time>2026-04-04T15:45:43.493Z</time></trkpt><trkpt lat="45.9015119" lon="9.1033695"><ele>1212.0</ele><time>2026-04-04T15:45:44.493Z</time></trkpt><trkpt lat="45.9015864" lon="9.103235"><ele>1209.6</ele><time>2026-04-04T15:45:46.495Z</time></trkpt><trkpt lat="45.9016853" lon="9.1031156"><ele>1207.2</ele><time>2026-04-04T15:45:48.493Z</time></trkpt><trkpt lat="45.9017624" lon="9.1030687"><ele>1204.8</ele><time>2026-04-04T15:45:49.497Z</time></trkpt><trkpt lat="45.90183" lon="9.1030073"><ele>1202.4</ele><time>2026-04-04T15:45:50.493Z</time></trkpt><trkpt lat="45.9019185" lon="9.1029899"><ele>1200.0</ele><time>2026-04-04T15:45:51.489Z</time></trkpt><trkpt lat="45.9019905" lon="9.1029317"><ele>1200.0</ele><time>2026-04-04T15:45:52.494Z</time></trkpt><trkpt lat="45.9020661" lon="9.1028509"><ele>1200.0</ele><time>2026-04-04T15:45:53.495Z</time></trkpt><trkpt lat="45.9021443" lon="9.1027694"><ele>1200.0</ele><time>2026-04-04T15:45:54.493Z</time></trkpt><trkpt lat="45.9022192" lon="9.1026739"><ele>1200.0</ele><time>2026-04-04T15:45:55.494Z</time></trkpt><trkpt lat="45.9022945" lon="9.1025776"><ele>1200.0</ele><time>2026-04-04T15:45:56.492Z</time></trkpt><trkpt lat="45.902361" lon="9.1024788"><ele>1196.8333333333333</ele><time>2026-04-04T15:45:57.497Z</time></trkpt><trkpt lat="45.9024162" lon="9.1023852"><ele>1193.6666666666667</ele><time>2026-04-04T15:45:58.49Z</time></trkpt><trkpt lat="45.9024731" lon="9.1023003"><ele>1190.5</ele><time>2026-04-04T15:45:59.489Z</time></trkpt><trkpt lat="45.902523" lon="9.102204"><ele>1187.3333333333335</ele><time>2026-04-04T15:46:00.492Z</time></trkpt><trkpt lat="45.9025699" lon="9.1021105"><ele>1184.1666666666667</ele><time>2026-04-04T15:46:01.497Z</time></trkpt><trkpt lat="45.9026495" lon="9.1019936"><ele>1181.0</ele><time>2026-04-04T15:46:03.49Z</time></trkpt><trkpt lat="45.9027314" lon="9.1019789"><ele>1181.857142857143</ele><time>2026-04-04T15:46:05.489Z</time></trkpt><trkpt lat="45.9028138" lon="9.1020434"><ele>1182.7142857142858</ele><time>2026-04-04T15:46:07.493Z</time></trkpt><trkpt lat="45.9028609" lon="9.1021092"><ele>1183.5714285714287</ele><time>2026-04-04T15:46:08.497Z</time></trkpt><trkpt lat="45.9029069" lon="9.1021768"><ele>1184.4285714285716</ele><time>2026-04-04T15:46:09.488Z</time></trkpt><trkpt lat="45.9029534" lon="9.1022428"><ele>1185.2857142857142</ele><time>2026-04-04T15:46:10.494Z</time></trkpt><trkpt lat="45.903" lon="9.1023084"><ele>1186.1428571428573</ele><time>2026-04-04T15:46:11.493Z</time></trkpt><trkpt lat="45.9030523" lon="9.1023753"><ele>1187.0</ele><time>2026-04-04T15:46:12.492Z</time></trkpt><trkpt lat="45.9030979" lon="9.1024452"><ele>1187.0000000000002</ele><time>2026-04-04T15:46:13.491Z</time></trkpt><trkpt lat="45.9031405" lon="9.1025223"><ele>1187.0</ele><time>2026-04-04T15:46:14.491Z</time></trkpt><trkpt lat="45.9031849" lon="9.1025996"><ele>1187.0</ele><time>2026-04-04T15:46:15.49Z</time></trkpt><trkpt lat="45.9032316" lon="9.1026837"><ele>1187.0</ele><time>2026-04-04T15:46:16.488Z</time></trkpt><trkpt lat="45.9032734" lon="9.1027753"><ele>1187.0</ele><time>2026-04-04T15:46:17.49Z</time></trkpt><trkpt lat="45.9033112" lon="9.1028693"><ele>1187.0000000000002</ele><time>2026-04-04T15:46:18.49Z</time></trkpt><trkpt lat="45.90335" lon="9.1029595"><ele>1187.0</ele><time>2026-04-04T15:46:19.49Z</time></trkpt><trkpt lat="45.9033969" lon="9.1030385"><ele>1186.1666666666667</ele><time>2026-04-04T15:46:20.489Z</time></trkpt><trkpt lat="45.9034573" lon="9.1031071"><ele>1185.3333333333335</ele><time>2026-04-04T15:46:21.49Z</time></trkpt><trkpt lat="45.9035274" lon="9.1031691"><ele>1184.5</ele><time>2026-04-04T15:46:22.492Z</time></trkpt><trkpt lat="45.9036039" lon="9.1032163"><ele>1183.6666666666667</ele><time>2026-04-04T15:46:23.497Z</time></trkpt><trkpt lat="45.9036886" lon="9.1032613"><ele>1182.8333333333333</ele><time>2026-04-04T15:46:24.49Z</time></trkpt><trkpt lat="45.9037688" lon="9.103269"><ele>1182.0</ele><time>2026-04-04T15:46:25.49Z</time></trkpt><trkpt lat="45.9038527" lon="9.1032785"><ele>1182.0</ele><time>2026-04-04T15:46:26.491Z</time></trkpt><trkpt lat="45.9039373" lon="9.1032787"><ele>1182.0</ele><time>2026-04-04T15:46:27.491Z</time></trkpt><trkpt lat="45.9040108" lon="9.1032792"><ele>1182.0</ele><time>2026-04-04T15:46:28.493Z</time></trkpt><trkpt lat="45.904082" lon="9.10327"><ele>1182.0</ele><time>2026-04-04T15:46:29.49Z</time></trkpt><trkpt lat="45.9041575" lon="9.1032589"><ele>1182.0</ele><time>2026-04-04T15:46:30.493Z</time></trkpt><trkpt lat="45.9042262" lon="9.1032527"><ele>1182.0</ele><time>2026-04-04T15:46:31.494Z</time></trkpt><trkpt lat="45.9042978" lon="9.1032421"><ele>1182.0</ele><time>2026-04-04T15:46:32.492Z</time></trkpt><trkpt lat="45.9043702" lon="9.1032144"><ele>1178.5</ele><time>2026-04-04T15:46:33.493Z</time></trkpt><trkpt lat="45.904442" lon="9.1031912"><ele>1175.0</ele><time>2026-04-04T15:46:34.492Z</time></trkpt><trkpt lat="45.9045176" lon="9.1031605"><ele>1171.5</ele><time>2026-04-04T15:46:35.494Z</time></trkpt><trkpt lat="45.9046032" lon="9.1031275"><ele>1168.0</ele><time>2026-04-04T15:46:36.489Z</time></trkpt><trkpt lat="45.9046835" lon="9.103095"><ele>1164.5</ele><time>2026-04-04T15:46:37.488Z</time></trkpt><trkpt lat="45.904759" lon="9.1030516"><ele>1161.0</ele><time>2026-04-04T15:46:38.491Z</time></trkpt><trkpt lat="45.904828" lon="9.1029779"><ele>1161.0</ele><time>2026-04-04T15:46:39.497Z</time></trkpt><trkpt lat="45.9049024" lon="9.1029005"><ele>1161.0</ele><time>2026-04-04T15:46:40.489Z</time></trkpt><trkpt lat="45.9049803" lon="9.1028094"><ele>1161.0</ele><time>2026-04-04T15:46:41.491Z</time></trkpt><trkpt lat="45.9050519" lon="9.1027133"><ele>1161.0</ele><time>2026-04-04T15:46:42.493Z</time></trkpt><trkpt lat="45.9051172" lon="9.1026095"><ele>1161.0</ele><time>2026-04-04T15:46:43.492Z</time></trkpt><trkpt lat="45.9051823" lon="9.1025055"><ele>1160.0</ele><time>2026-04-04T15:46:44.493Z</time></trkpt><trkpt lat="45.9052528" lon="9.1024047"><ele>1159.0</ele><time>2026-04-04T15:46:45.492Z</time></trkpt><trkpt lat="45.905328" lon="9.1023049"><ele>1158.0</ele><time>2026-04-04T15:46:46.495Z</time></trkpt><trkpt lat="45.9054017" lon="9.1022132"><ele>1157.0</ele><time>2026-04-04T15:46:47.49Z</time></trkpt><trkpt lat="45.9054681" lon="9.102133"><ele>1156.0</ele><time>2026-04-04T15:46:48.493Z</time></trkpt><trkpt lat="45.9055279" lon="9.102051"><ele>1156.0</ele><time>2026-04-04T15:46:49.494Z</time></trkpt><trkpt lat="45.9055836" lon="9.1019533"><ele>1156.0</ele><time>2026-04-04T15:46:50.497Z</time></trkpt><trkpt lat="45.9056365" lon="9.1018569"><ele>1156.0</ele><time>2026-04-04T15:46:51.493Z</time></trkpt><trkpt lat="45.9056971" lon="9.1017632"><ele>1156.0</ele><time>2026-04-04T15:46:52.495Z</time></trkpt><trkpt lat="45.9057653" lon="9.101677"><ele>1156.0</ele><time>2026-04-04T15:46:53.497Z</time></trkpt><trkpt lat="45.9058468" lon="9.101589"><ele>1156.6</ele><time>2026-04-04T15:46:54.496Z</time></trkpt><trkpt lat="45.9059419" lon="9.101509"><ele>1157.1999999999998</ele><time>2026-04-04T15:46:55.493Z</time></trkpt><trkpt lat="45.9060285" lon="9.1014316"><ele>1157.8000000000002</ele><time>2026-04-04T15:46:56.492Z</time></trkpt><trkpt lat="45.9061063" lon="9.1013449"><ele>1158.4</ele><time>2026-04-04T15:46:57.495Z</time></trkpt><trkpt lat="45.906175" lon="9.1012383"><ele>1159.0</ele><time>2026-04-04T15:46:58.494Z</time></trkpt><trkpt lat="45.9062414" lon="9.1011371"><ele>1159.0</ele><time>2026-04-04T15:46:59.493Z</time></trkpt><trkpt lat="45.9062879" lon="9.1010477"><ele>1159.0</ele><time>2026-04-04T15:47:00.496Z</time></trkpt><trkpt lat="45.9063281" lon="9.100957"><ele>1159.0</ele><time>2026-04-04T15:47:01.494Z</time></trkpt><trkpt lat="45.906367" lon="9.1008565"><ele>1159.0</ele><time>2026-04-04T15:47:02.497Z</time></trkpt><trkpt lat="45.906423" lon="9.1007581"><ele>1159.0</ele><time>2026-04-04T15:47:03.494Z</time></trkpt><trkpt lat="45.9064907" lon="9.1006533"><ele>1159.0</ele><time>2026-04-04T15:47:04.493Z</time></trkpt><trkpt lat="45.9065597" lon="9.1005408"><ele>1158.0</ele><time>2026-04-04T15:47:05.496Z</time></trkpt><trkpt lat="45.9066172" lon="9.1004146"><ele>1157.0</ele><time>2026-04-04T15:47:06.493Z</time></trkpt><trkpt lat="45.9066594" lon="9.1002787"><ele>1156.0</ele><time>2026-04-04T15:47:07.497Z</time></trkpt><trkpt lat="45.9066995" lon="9.1001332"><ele>1155.0</ele><time>2026-04-04T15:47:08.493Z</time></trkpt><trkpt lat="45.9067459" lon="9.0999918"><ele>1154.0</ele><time>2026-04-04T15:47:09.491Z</time></trkpt><trkpt lat="45.9067961" lon="9.0998531"><ele>1150.8</ele><time>2026-04-04T15:47:10.494Z</time></trkpt><trkpt lat="45.9068471" lon="9.0997134"><ele>1147.6000000000001</ele><time>2026-04-04T15:47:11.497Z</time></trkpt><trkpt lat="45.9068892" lon="9.0995841"><ele>1144.4</ele><time>2026-04-04T15:47:12.494Z</time></trkpt><trkpt lat="45.9069254" lon="9.0994628"><ele>1141.2</ele><time>2026-04-04T15:47:13.497Z</time></trkpt><trkpt lat="45.9069485" lon="9.099345"><ele>1138.0</ele><time>2026-04-04T15:47:14.495Z</time></trkpt><trkpt lat="45.90696" lon="9.0992235"><ele>1138.0</ele><time>2026-04-04T15:47:15.497Z</time></trkpt><trkpt lat="45.9069578" lon="9.0990928"><ele>1138.0</ele><time>2026-04-04T15:47:16.495Z</time></trkpt><trkpt lat="45.9069492" lon="9.0989651"><ele>1138.0</ele><time>2026-04-04T15:47:17.492Z</time></trkpt><trkpt lat="45.9069453" lon="9.0988403"><ele>1138.0</ele><time>2026-04-04T15:47:18.496Z</time></trkpt><trkpt lat="45.9069564" lon="9.0987175"><ele>1138.0</ele><time>2026-04-04T15:47:19.496Z</time></trkpt><trkpt lat="45.9069799" lon="9.0985828"><ele>1136.8333333333333</ele><time>2026-04-04T15:47:20.496Z</time></trkpt><trkpt lat="45.9069977" lon="9.0984765"><ele>1135.6666666666665</ele><time>2026-04-04T15:47:21.496Z</time></trkpt><trkpt lat="45.9070298" lon="9.0983404"><ele>1134.5</ele><time>2026-04-04T15:47:23.497Z</time></trkpt><trkpt lat="45.9070501" lon="9.0982535"><ele>1133.3333333333333</ele><time>2026-04-04T15:47:25.496Z</time></trkpt><trkpt lat="45.9070793" lon="9.0981293"><ele>1132.1666666666667</ele><time>2026-04-04T15:47:28.497Z</time></trkpt><trkpt lat="45.9070974" lon="9.098036"><ele>1131.0</ele><time>2026-04-04T15:47:30.495Z</time></trkpt><trkpt lat="45.9071071" lon="9.0979024"><ele>1130.0</ele><time>2026-04-04T15:47:32.497Z</time></trkpt><trkpt lat="45.9071244" lon="9.0977359"><ele>1129.0</ele><time>2026-04-04T15:47:34.496Z</time></trkpt><trkpt lat="45.9071765" lon="9.0976195"><ele>1128.0</ele><time>2026-04-04T15:47:36.497Z</time></trkpt><trkpt lat="45.9072561" lon="9.0975878"><ele>1127.0</ele><time>2026-04-04T15:47:38.496Z</time></trkpt><trkpt lat="45.9073531" lon="9.0975866"><ele>1126.0</ele><time>2026-04-04T15:47:40.497Z</time></trkpt><trkpt lat="45.9074397" lon="9.0975731"><ele>1126.0</ele><time>2026-04-04T15:47:42.495Z</time></trkpt><trkpt lat="45.9075185" lon="9.0976038"><ele>1126.0</ele><time>2026-04-04T15:47:44.496Z</time></trkpt><trkpt lat="45.9075914" lon="9.0976668"><ele>1126.0</ele><time>2026-04-04T15:47:46.495Z</time></trkpt><trkpt lat="45.9076656" lon="9.0977558"><ele>1126.0</ele><time>2026-04-04T15:47:48.494Z</time></trkpt><trkpt lat="45.9077463" lon="9.0978637"><ele>1126.0</ele><time>2026-04-04T15:47:50.492Z</time></trkpt><trkpt lat="45.9078281" lon="9.0979754"><ele>1119.6</ele><time>2026-04-04T15:47:52.493Z</time></trkpt><trkpt lat="45.9079204" lon="9.0980913"><ele>1113.1999999999998</ele><time>2026-04-04T15:47:54.492Z</time></trkpt><trkpt lat="45.9080035" lon="9.0981899"><ele>1106.8000000000002</ele><time>2026-04-04T15:47:56.493Z</time></trkpt><trkpt lat="45.9080594" lon="9.0982749"><ele>1100.4</ele><time>2026-04-04T15:48:06.494Z</time></trkpt><trkpt lat="45.9081153" lon="9.0983385"><ele>1094.0</ele><time>2026-04-04T15:48:08.497Z</time></trkpt><trkpt lat="45.9082063" lon="9.0984217"><ele>1094.0</ele><time>2026-04-04T15:48:10.491Z</time></trkpt><trkpt lat="45.9082841" lon="9.0985027"><ele>1094.0</ele><time>2026-04-04T15:48:12.493Z</time></trkpt><trkpt lat="45.9083749" lon="9.0986103"><ele>1094.0</ele><time>2026-04-04T15:48:14.494Z</time></trkpt><trkpt lat="45.9084248" lon="9.0986719"><ele>1094.0</ele><time>2026-04-04T15:48:15.497Z</time></trkpt><trkpt lat="45.9084779" lon="9.0987965"><ele>1094.0</ele><time>2026-04-04T15:48:17.493Z</time></trkpt><trkpt lat="45.908548" lon="9.0989486"><ele>1087.2</ele><time>2026-04-04T15:48:19.497Z</time></trkpt><trkpt lat="45.9085912" lon="9.0990344"><ele>1080.4</ele><time>2026-04-04T15:48:20.494Z</time></trkpt><trkpt lat="45.908596" lon="9.0991302"><ele>1073.6</ele><time>2026-04-04T15:48:21.492Z</time></trkpt><trkpt lat="45.9086442" lon="9.0992813"><ele>1066.8</ele><time>2026-04-04T15:48:23.491Z</time></trkpt><trkpt lat="45.9087587" lon="9.0993574"><ele>1060.0</ele><time>2026-04-04T15:48:25.497Z</time></trkpt><trkpt lat="45.9088726" lon="9.0994181"><ele>1060.0</ele><time>2026-04-04T15:48:27.493Z</time></trkpt><trkpt lat="45.9089829" lon="9.0994152"><ele>1060.0</ele><time>2026-04-04T15:48:29.493Z</time></trkpt><trkpt lat="45.9090907" lon="9.099456"><ele>1060.0</ele><time>2026-04-04T15:48:31.497Z</time></trkpt><trkpt lat="45.9091905" lon="9.0995439"><ele>1060.0</ele><time>2026-04-04T15:48:33.494Z</time></trkpt><trkpt lat="45.9093009" lon="9.0996433"><ele>1056.4285714285713</ele><time>2026-04-04T15:48:35.493Z</time></trkpt><trkpt lat="45.9093622" lon="9.0996772"><ele>1052.857142857143</ele><time>2026-04-04T15:48:36.493Z</time></trkpt><trkpt lat="45.9094366" lon="9.0997141"><ele>1049.2857142857142</ele><time>2026-04-04T15:48:37.491Z</time></trkpt><trkpt lat="45.9095074" lon="9.099747"><ele>1045.7142857142858</ele><time>2026-04-04T15:48:38.494Z</time></trkpt><trkpt lat="45.9095807" lon="9.0997887"><ele>1042.142857142857</ele><time>2026-04-04T15:48:39.495Z</time></trkpt><trkpt lat="45.9096499" lon="9.0998238"><ele>1038.5714285714284</ele><time>2026-04-04T15:48:40.497Z</time></trkpt><trkpt lat="45.9097194" lon="9.0998491"><ele>1035.0</ele><time>2026-04-04T15:48:41.497Z</time></trkpt><trkpt lat="45.9097903" lon="9.0998508"><ele>1035.0</ele><time>2026-04-04T15:48:42.492Z</time></trkpt><trkpt lat="45.9098533" lon="9.0998403"><ele>1035.0</ele><time>2026-04-04T15:48:43.494Z</time></trkpt><trkpt lat="45.9099678" lon="9.0998491"><ele>1035.0</ele><time>2026-04-04T15:48:45.496Z</time></trkpt><trkpt lat="45.9100295" lon="9.099876"><ele>1035.0</ele><time>2026-04-04T15:48:46.494Z</time></trkpt><trkpt lat="45.9100936" lon="9.0999098"><ele>1035.0</ele><time>2026-04-04T15:48:47.495Z</time></trkpt><trkpt lat="45.9101655" lon="9.0999272"><ele>1035.0</ele><time>2026-04-04T15:48:48.497Z</time></trkpt><trkpt lat="45.9102355" lon="9.0999395"><ele>1034.857142857143</ele><time>2026-04-04T15:48:49.497Z</time></trkpt><trkpt lat="45.9103047" lon="9.0999489"><ele>1034.7142857142858</ele><time>2026-04-04T15:48:50.494Z</time></trkpt><trkpt lat="45.9103758" lon="9.0999543"><ele>1034.5714285714287</ele><time>2026-04-04T15:48:51.497Z</time></trkpt><trkpt lat="45.9104435" lon="9.0999578"><ele>1034.4285714285716</ele><time>2026-04-04T15:48:52.497Z</time></trkpt><trkpt lat="45.9105259" lon="9.0999657"><ele>1034.2857142857144</ele><time>2026-04-04T15:48:53.492Z</time></trkpt><trkpt lat="45.9105959" lon="9.0999857"><ele>1034.142857142857</ele><time>2026-04-04T15:48:54.494Z</time></trkpt><trkpt lat="45.9106717" lon="9.1000017"><ele>1034.0</ele><time>2026-04-04T15:48:55.493Z</time></trkpt><trkpt lat="45.9107434" lon="9.1000246"><ele>1034.0</ele><time>2026-04-04T15:48:56.497Z</time></trkpt><trkpt lat="45.91081" lon="9.1000417"><ele>1034.0</ele><time>2026-04-04T15:48:57.489Z</time></trkpt><trkpt lat="45.9108778" lon="9.1000587"><ele>1034.0</ele><time>2026-04-04T15:48:58.497Z</time></trkpt><trkpt lat="45.910943" lon="9.1000732"><ele>1034.0</ele><time>2026-04-04T15:48:59.496Z</time></trkpt><trkpt lat="45.91101" lon="9.1000928"><ele>1034.0</ele><time>2026-04-04T15:49:00.494Z</time></trkpt><trkpt lat="45.9110739" lon="9.1000887"><ele>1034.0</ele><time>2026-04-04T15:49:01.491Z</time></trkpt><trkpt lat="45.9111448" lon="9.1000675"><ele>1034.0</ele><time>2026-04-04T15:49:02.492Z</time></trkpt><trkpt lat="45.9112179" lon="9.1000454"><ele>1029.6666666666667</ele><time>2026-04-04T15:49:03.496Z</time></trkpt><trkpt lat="45.9112943" lon="9.1000287"><ele>1025.3333333333335</ele><time>2026-04-04T15:49:04.495Z</time></trkpt><trkpt lat="45.9113613" lon="9.1000129"><ele>1021.0</ele><time>2026-04-04T15:49:05.493Z</time></trkpt><trkpt lat="45.9114418" lon="9.1000239"><ele>1016.6666666666667</ele><time>2026-04-04T15:49:06.497Z</time></trkpt><trkpt lat="45.9115328" lon="9.1000172"><ele>1012.3333333333334</ele><time>2026-04-04T15:49:08.493Z</time></trkpt><trkpt lat="45.9116534" lon="9.0999869"><ele>1008.0</ele><time>2026-04-04T15:49:10.496Z</time></trkpt><trkpt lat="45.9117619" lon="9.099999"><ele>1004.1428571428571</ele><time>2026-04-04T15:49:12.496Z</time></trkpt><trkpt lat="45.911867" lon="9.1000276"><ele>1000.2857142857142</ele><time>2026-04-04T15:49:14.496Z</time></trkpt><trkpt lat="45.9119307" lon="9.1000403"><ele>996.4285714285714</ele><time>2026-04-04T15:49:15.497Z</time></trkpt><trkpt lat="45.9119929" lon="9.1000608"><ele>992.5714285714286</ele><time>2026-04-04T15:49:16.491Z</time></trkpt><trkpt lat="45.9120593" lon="9.1000837"><ele>988.7142857142857</ele><time>2026-04-04T15:49:17.492Z</time></trkpt><trkpt lat="45.9121212" lon="9.1001264"><ele>984.8571428571429</ele><time>2026-04-04T15:49:18.496Z</time></trkpt><trkpt lat="45.9121828" lon="9.1001525"><ele>981.0</ele><time>2026-04-04T15:49:19.497Z</time></trkpt><trkpt lat="45.912239" lon="9.1001986"><ele>981.0</ele><time>2026-04-04T15:49:20.492Z</time></trkpt><trkpt lat="45.9123006" lon="9.1002272"><ele>980.9999999999999</ele><time>2026-04-04T15:49:21.495Z</time></trkpt><trkpt lat="45.9124066" lon="9.1002921"><ele>980.9999999999999</ele><time>2026-04-04T15:49:23.493Z</time></trkpt><trkpt lat="45.9124875" lon="9.1004022"><ele>981.0</ele><time>2026-04-04T15:49:25.495Z</time></trkpt><trkpt lat="45.9125522" lon="9.1005193"><ele>981.0</ele><time>2026-04-04T15:49:27.497Z</time></trkpt><trkpt lat="45.9126074" lon="9.1006453"><ele>979.1999999999999</ele><time>2026-04-04T15:49:29.497Z</time></trkpt><trkpt lat="45.9126993" lon="9.1007628"><ele>977.3999999999999</ele><time>2026-04-04T15:49:31.493Z</time></trkpt><trkpt lat="45.9127585" lon="9.1008724"><ele>975.6</ele><time>2026-04-04T15:49:33.494Z</time></trkpt><trkpt lat="45.9128193" lon="9.1009284"><ele>973.8</ele><time>2026-04-04T15:49:34.493Z</time></trkpt><trkpt lat="45.9128601" lon="9.1010372"><ele>972.0</ele><time>2026-04-04T15:49:36.496Z</time></trkpt><trkpt lat="45.912898" lon="9.1011797"><ele>972.0</ele><time>2026-04-04T15:49:38.497Z</time></trkpt><trkpt lat="45.9129072" lon="9.1012938"><ele>972.0</ele><time>2026-04-04T15:49:40.494Z</time></trkpt><trkpt lat="45.9128762" lon="9.1014476"><ele>972.0</ele><time>2026-04-04T15:49:42.497Z</time></trkpt><trkpt lat="45.9128384" lon="9.1015404"><ele>972.0</ele><time>2026-04-04T15:49:43.493Z</time></trkpt><trkpt lat="45.9128069" lon="9.1016314"><ele>972.0</ele><time>2026-04-04T15:49:44.491Z</time></trkpt><trkpt lat="45.9127735" lon="9.1017265"><ele>972.0</ele><time>2026-04-04T15:49:45.495Z</time></trkpt><trkpt lat="45.9127484" lon="9.1018234"><ele>969.5</ele><time>2026-04-04T15:49:46.491Z</time></trkpt><trkpt lat="45.9127303" lon="9.1019154"><ele>967.0</ele><time>2026-04-04T15:49:47.496Z</time></trkpt><trkpt lat="45.9127219" lon="9.1020053"><ele>964.5</ele><time>2026-04-04T15:49:48.492Z</time></trkpt><trkpt lat="45.9127242" lon="9.1020961"><ele>962.0</ele><time>2026-04-04T15:49:49.49Z</time></trkpt><trkpt lat="45.912731" lon="9.1022928"><ele>959.5</ele><time>2026-04-04T15:49:51.497Z</time></trkpt><trkpt lat="45.9127366" lon="9.1024056"><ele>957.0</ele><time>2026-04-04T15:49:52.492Z</time></trkpt><trkpt lat="45.9127237" lon="9.102525"><ele>954.5</ele><time>2026-04-04T15:49:53.497Z</time></trkpt><trkpt lat="45.912718" lon="9.102656"><ele>952.0</ele><time>2026-04-04T15:49:54.497Z</time></trkpt><trkpt lat="45.9127093" lon="9.1027842"><ele>949.5</ele><time>2026-04-04T15:49:55.497Z</time></trkpt><trkpt lat="45.9126986" lon="9.1029067"><ele>947.0</ele><time>2026-04-04T15:49:56.495Z</time></trkpt><trkpt lat="45.9126891" lon="9.1030159"><ele>944.5</ele><time>2026-04-04T15:49:57.495Z</time></trkpt><trkpt lat="45.9126825" lon="9.1031091"><ele>942.0</ele><time>2026-04-04T15:49:58.497Z</time></trkpt><trkpt lat="45.9127042" lon="9.1032821"><ele>940.7142857142858</ele><time>2026-04-04T15:50:00.497Z</time></trkpt><trkpt lat="45.9127296" lon="9.1033692"><ele>939.4285714285714</ele><time>2026-04-04T15:50:01.496Z</time></trkpt><trkpt lat="45.9127583" lon="9.1034509"><ele>938.1428571428571</ele><time>2026-04-04T15:50:02.497Z</time></trkpt><trkpt lat="45.9127898" lon="9.1035362"><ele>936.8571428571429</ele><time>2026-04-04T15:50:03.495Z</time></trkpt><trkpt lat="45.9128161" lon="9.1036231"><ele>935.5714285714284</ele><time>2026-04-04T15:50:04.497Z</time></trkpt><trkpt lat="45.9128418" lon="9.1037166"><ele>934.2857142857142</ele><time>2026-04-04T15:50:05.496Z</time></trkpt><trkpt lat="45.9128688" lon="9.1038074"><ele>933.0</ele><time>2026-04-04T15:50:06.497Z</time></trkpt><trkpt lat="45.9129239" lon="9.1039621"><ele>932.0</ele><time>2026-04-04T15:50:08.497Z</time></trkpt><trkpt lat="45.9129887" lon="9.1041019"><ele>931.0</ele><time>2026-04-04T15:50:10.497Z</time></trkpt><trkpt lat="45.913047" lon="9.1041437"><ele>930.0</ele><time>2026-04-04T15:50:11.496Z</time></trkpt><trkpt lat="45.9131372" lon="9.1042724"><ele>929.0</ele><time>2026-04-04T15:50:13.494Z</time></trkpt><trkpt lat="45.913179" lon="9.1043436"><ele>928.0</ele><time>2026-04-04T15:50:14.496Z</time></trkpt><trkpt lat="45.9132207" lon="9.1044182"><ele>927.0</ele><time>2026-04-04T15:50:15.496Z</time></trkpt><trkpt lat="45.9132691" lon="9.1045025"><ele>926.9999999999999</ele><time>2026-04-04T15:50:16.497Z</time></trkpt><trkpt lat="45.9133092" lon="9.1045892"><ele>927.0</ele><time>2026-04-04T15:50:17.497Z</time></trkpt><trkpt lat="45.9133562" lon="9.1046735"><ele>926.9999999999999</ele><time>2026-04-04T15:50:18.495Z</time></trkpt><trkpt lat="45.9134013" lon="9.1047628"><ele>926.9999999999999</ele><time>2026-04-04T15:50:19.495Z</time></trkpt><trkpt lat="45.9134516" lon="9.1048473"><ele>927.0</ele><time>2026-04-04T15:50:20.497Z</time></trkpt><trkpt lat="45.9134978" lon="9.1049293"><ele>926.9999999999999</ele><time>2026-04-04T15:50:21.494Z</time></trkpt><trkpt lat="45.9135426" lon="9.1050137"><ele>926.9999999999999</ele><time>2026-04-04T15:50:22.497Z</time></trkpt><trkpt lat="45.9135875" lon="9.1051004"><ele>922.1666666666666</ele><time>2026-04-04T15:50:23.494Z</time></trkpt><trkpt lat="45.9136293" lon="9.1051864"><ele>917.3333333333333</ele><time>2026-04-04T15:50:24.497Z</time></trkpt><trkpt lat="45.9136669" lon="9.105273"><ele>912.5</ele><time>2026-04-04T15:50:25.497Z</time></trkpt><trkpt lat="45.9137036" lon="9.1053646"><ele>907.6666666666666</ele><time>2026-04-04T15:50:26.497Z</time></trkpt><trkpt lat="45.9137445" lon="9.1054605"><ele>902.8333333333333</ele><time>2026-04-04T15:50:27.497Z</time></trkpt><trkpt lat="45.9137862" lon="9.1055587"><ele>898.0</ele><time>2026-04-04T15:50:28.497Z</time></trkpt><trkpt lat="45.9138267" lon="9.1056552"><ele>898.1666666666666</ele><time>2026-04-04T15:50:29.497Z</time></trkpt><trkpt lat="45.9138644" lon="9.1057459"><ele>898.3333333333333</ele><time>2026-04-04T15:50:30.496Z</time></trkpt><trkpt lat="45.913897" lon="9.1058374"><ele>898.5</ele><time>2026-04-04T15:50:31.494Z</time></trkpt><trkpt lat="45.9139268" lon="9.1059299"><ele>898.6666666666667</ele><time>2026-04-04T15:50:32.496Z</time></trkpt><trkpt lat="45.913956" lon="9.1060218"><ele>898.8333333333334</ele><time>2026-04-04T15:50:33.497Z</time></trkpt><trkpt lat="45.9140107" lon="9.1061555"><ele>899.0</ele><time>2026-04-04T15:50:35.497Z</time></trkpt><trkpt lat="45.9141009" lon="9.106148"><ele>899.0000000000001</ele><time>2026-04-04T15:50:38.496Z</time></trkpt><trkpt lat="45.9141673" lon="9.1060498"><ele>899.0</ele><time>2026-04-04T15:50:40.497Z</time></trkpt><trkpt lat="45.9142479" lon="9.1059476"><ele>899.0</ele><time>2026-04-04T15:50:42.496Z</time></trkpt><trkpt lat="45.9143061" lon="9.1059036"><ele>899.0</ele><time>2026-04-04T15:50:43.495Z</time></trkpt><trkpt lat="45.9143639" lon="9.1058589"><ele>899.0000000000001</ele><time>2026-04-04T15:50:44.493Z</time></trkpt><trkpt lat="45.9144241" lon="9.1058103"><ele>899.0</ele><time>2026-04-04T15:50:45.49Z</time></trkpt><trkpt lat="45.9144871" lon="9.1057564"><ele>893.6666666666667</ele><time>2026-04-04T15:50:46.493Z</time></trkpt><trkpt lat="45.9145569" lon="9.1057113"><ele>888.3333333333334</ele><time>2026-04-04T15:50:47.495Z</time></trkpt><trkpt lat="45.9146388" lon="9.1056757"><ele>883.0</ele><time>2026-04-04T15:50:48.495Z</time></trkpt><trkpt lat="45.914707" lon="9.1056303"><ele>877.6666666666667</ele><time>2026-04-04T15:50:49.497Z</time></trkpt><trkpt lat="45.9147886" lon="9.1055978"><ele>872.3333333333334</ele><time>2026-04-04T15:50:50.494Z</time></trkpt><trkpt lat="45.9148736" lon="9.1055696"><ele>867.0</ele><time>2026-04-04T15:50:51.493Z</time></trkpt><trkpt lat="45.9149561" lon="9.1055029"><ele>867.0</ele><time>2026-04-04T15:50:52.491Z</time></trkpt><trkpt lat="45.9150255" lon="9.1054581"><ele>867.0</ele><time>2026-04-04T15:50:53.494Z</time></trkpt><trkpt lat="45.9150972" lon="9.1054103"><ele>867.0</ele><time>2026-04-04T15:50:54.497Z</time></trkpt><trkpt lat="45.9151607" lon="9.105362"><ele>867.0</ele><time>2026-04-04T15:50:55.491Z</time></trkpt><trkpt lat="45.9152229" lon="9.1053255"><ele>867.0</ele><time>2026-04-04T15:50:56.492Z</time></trkpt><trkpt lat="45.9152875" lon="9.1053085"><ele>867.0</ele><time>2026-04-04T15:50:57.497Z</time></trkpt><trkpt lat="45.9153505" lon="9.1053075"><ele>867.0</ele><time>2026-04-04T15:50:58.496Z</time></trkpt><trkpt lat="45.9154143" lon="9.1053247"><ele>863.8571428571428</ele><time>2026-04-04T15:50:59.492Z</time></trkpt><trkpt lat="45.9154763" lon="9.1053555"><ele>860.7142857142858</ele><time>2026-04-04T15:51:00.496Z</time></trkpt><trkpt lat="45.9155327" lon="9.105397"><ele>857.5714285714286</ele><time>2026-04-04T15:51:01.491Z</time></trkpt><trkpt lat="45.9155885" lon="9.1054468"><ele>854.4285714285713</ele><time>2026-04-04T15:51:02.493Z</time></trkpt><trkpt lat="45.9156441" lon="9.1054985"><ele>851.2857142857142</ele><time>2026-04-04T15:51:03.494Z</time></trkpt><trkpt lat="45.9156994" lon="9.1055492"><ele>848.1428571428571</ele><time>2026-04-04T15:51:04.493Z</time></trkpt><trkpt lat="45.9157566" lon="9.1055968"><ele>845.0</ele><time>2026-04-04T15:51:05.494Z</time></trkpt><trkpt lat="45.9158171" lon="9.1056354"><ele>844.9999999999999</ele><time>2026-04-04T15:51:06.493Z</time></trkpt><trkpt lat="45.9158818" lon="9.1056503"><ele>845.0</ele><time>2026-04-04T15:51:07.497Z</time></trkpt><trkpt lat="45.9159468" lon="9.1056439"><ele>845.0</ele><time>2026-04-04T15:51:08.497Z</time></trkpt><trkpt lat="45.9160157" lon="9.1056398"><ele>845.0</ele><time>2026-04-04T15:51:09.494Z</time></trkpt><trkpt lat="45.9160846" lon="9.105645"><ele>845.0</ele><time>2026-04-04T15:51:10.496Z</time></trkpt><trkpt lat="45.9161494" lon="9.1056525"><ele>844.9999999999999</ele><time>2026-04-04T15:51:11.497Z</time></trkpt><trkpt lat="45.9162144" lon="9.1056592"><ele>845.0</ele><time>2026-04-04T15:51:12.496Z</time></trkpt><trkpt lat="45.9163381" lon="9.1056411"><ele>842.4</ele><time>2026-04-04T15:51:14.497Z</time></trkpt><trkpt lat="45.9164019" lon="9.105621"><ele>839.8</ele><time>2026-04-04T15:51:15.494Z</time></trkpt><trkpt lat="45.9165089" lon="9.1056302"><ele>837.2</ele><time>2026-04-04T15:51:17.495Z</time></trkpt><trkpt lat="45.9166137" lon="9.10564"><ele>834.6</ele><time>2026-04-04T15:51:19.497Z</time></trkpt><trkpt lat="45.9167229" lon="9.1056332"><ele>832.0</ele><time>2026-04-04T15:51:21.496Z</time></trkpt><trkpt lat="45.9168277" lon="9.1056012"><ele>831.0</ele><time>2026-04-04T15:51:23.495Z</time></trkpt><trkpt lat="45.9169377" lon="9.1055464"><ele>830.0</ele><time>2026-04-04T15:51:25.494Z</time></trkpt><trkpt lat="45.9170512" lon="9.1054908"><ele>829.0</ele><time>2026-04-04T15:51:27.496Z</time></trkpt><trkpt lat="45.9171678" lon="9.1054139"><ele>828.0</ele><time>2026-04-04T15:51:29.493Z</time></trkpt><trkpt lat="45.9172252" lon="9.1053735"><ele>827.0</ele><time>2026-04-04T15:51:30.496Z</time></trkpt><trkpt lat="45.9173357" lon="9.1052895"><ele>827.0</ele><time>2026-04-04T15:51:32.497Z</time></trkpt><trkpt lat="45.9173968" lon="9.1052431"><ele>827.0</ele><time>2026-04-04T15:51:33.496Z</time></trkpt><trkpt lat="45.9174618" lon="9.1051919"><ele>827.0</ele><time>2026-04-04T15:51:34.496Z</time></trkpt><trkpt lat="45.9175262" lon="9.1051398"><ele>827.0</ele><time>2026-04-04T15:51:35.493Z</time></trkpt><trkpt lat="45.9175887" lon="9.105087"><ele>827.0</ele><time>2026-04-04T15:51:36.497Z</time></trkpt><trkpt lat="45.9176488" lon="9.105031"><ele>827.0</ele><time>2026-04-04T15:51:37.497Z</time></trkpt><trkpt lat="45.9177073" lon="9.1049749"><ele>827.0</ele><time>2026-04-04T15:51:38.492Z</time></trkpt><trkpt lat="45.9177645" lon="9.1049144"><ele>824.0000000000001</ele><time>2026-04-04T15:51:39.495Z</time></trkpt><trkpt lat="45.9178212" lon="9.1048488"><ele>821.0</ele><time>2026-04-04T15:51:40.497Z</time></trkpt><trkpt lat="45.9178789" lon="9.1047787"><ele>818.0</ele><time>2026-04-04T15:51:41.492Z</time></trkpt><trkpt lat="45.9179417" lon="9.1047125"><ele>815.0</ele><time>2026-04-04T15:51:42.497Z</time></trkpt><trkpt lat="45.9180069" lon="9.1046464"><ele>812.0000000000001</ele><time>2026-04-04T15:51:43.497Z</time></trkpt><trkpt lat="45.9180751" lon="9.1045787"><ele>809.0</ele><time>2026-04-04T15:51:44.491Z</time></trkpt><trkpt lat="45.9181473" lon="9.1045055"><ele>809.0</ele><time>2026-04-04T15:51:45.493Z</time></trkpt><trkpt lat="45.9182217" lon="9.1044273"><ele>809.0</ele><time>2026-04-04T15:51:46.497Z</time></trkpt><trkpt lat="45.9182982" lon="9.1043484"><ele>809.0</ele><time>2026-04-04T15:51:47.496Z</time></trkpt><trkpt lat="45.9183772" lon="9.1042708"><ele>809.0</ele><time>2026-04-04T15:51:48.497Z</time></trkpt><trkpt lat="45.9184571" lon="9.1041906"><ele>809.0</ele><time>2026-04-04T15:51:49.495Z</time></trkpt><trkpt lat="45.9185364" lon="9.1041065"><ele>807.8000000000001</ele><time>2026-04-04T15:51:50.494Z</time></trkpt><trkpt lat="45.9186153" lon="9.1040174"><ele>806.6</ele><time>2026-04-04T15:51:51.495Z</time></trkpt><trkpt lat="45.9186936" lon="9.1039255"><ele>805.4</ele><time>2026-04-04T15:51:52.497Z</time></trkpt><trkpt lat="45.9187729" lon="9.1038338"><ele>804.2</ele><time>2026-04-04T15:51:53.492Z</time></trkpt><trkpt lat="45.9188494" lon="9.1037394"><ele>803.0</ele><time>2026-04-04T15:51:54.495Z</time></trkpt><trkpt lat="45.9189222" lon="9.1036417"><ele>803.0</ele><time>2026-04-04T15:51:55.49Z</time></trkpt><trkpt lat="45.9189959" lon="9.1035503"><ele>803.0</ele><time>2026-04-04T15:51:56.497Z</time></trkpt><trkpt lat="45.9190718" lon="9.1034699"><ele>803.0</ele><time>2026-04-04T15:51:57.497Z</time></trkpt><trkpt lat="45.9191429" lon="9.1033911"><ele>803.0</ele><time>2026-04-04T15:51:58.497Z</time></trkpt><trkpt lat="45.9192022" lon="9.1032972"><ele>803.0</ele><time>2026-04-04T15:51:59.497Z</time></trkpt><trkpt lat="45.9192482" lon="9.1031941"><ele>799.1666666666667</ele><time>2026-04-04T15:52:00.497Z</time></trkpt><trkpt lat="45.9192826" lon="9.1030994"><ele>795.3333333333334</ele><time>2026-04-04T15:52:01.496Z</time></trkpt><trkpt lat="45.9193248" lon="9.1030315"><ele>791.5</ele><time>2026-04-04T15:52:02.496Z</time></trkpt><trkpt lat="45.9194426" lon="9.103019"><ele>787.6666666666667</ele><time>2026-04-04T15:52:04.497Z</time></trkpt><trkpt lat="45.9195232" lon="9.1030353"><ele>783.8333333333334</ele><time>2026-04-04T15:52:05.493Z</time></trkpt><trkpt lat="45.9196153" lon="9.1030382"><ele>780.0</ele><time>2026-04-04T15:52:06.497Z</time></trkpt><trkpt lat="45.9197142" lon="9.1030226"><ele>780.0</ele><time>2026-04-04T15:52:07.497Z</time></trkpt><trkpt lat="45.9198185" lon="9.1029935"><ele>780.0</ele><time>2026-04-04T15:52:08.491Z</time></trkpt><trkpt lat="45.9199195" lon="9.1029624"><ele>780.0</ele><time>2026-04-04T15:52:09.494Z</time></trkpt><trkpt lat="45.9200142" lon="9.1029312"><ele>780.0</ele><time>2026-04-04T15:52:10.495Z</time></trkpt><trkpt lat="45.9201048" lon="9.1029074"><ele>780.0</ele><time>2026-04-04T15:52:11.496Z</time></trkpt><trkpt lat="45.9201848" lon="9.1029154"><ele>778.0</ele><time>2026-04-04T15:52:12.493Z</time></trkpt><trkpt lat="45.9202562" lon="9.10296"><ele>776.0</ele><time>2026-04-04T15:52:13.497Z</time></trkpt><trkpt lat="45.9203184" lon="9.1030166"><ele>774.0</ele><time>2026-04-04T15:52:14.495Z</time></trkpt><trkpt lat="45.9204261" lon="9.1030098"><ele>772.0</ele><time>2026-04-04T15:52:16.494Z</time></trkpt><trkpt lat="45.9204522" lon="9.1028689"><ele>770.0</ele><time>2026-04-04T15:52:18.493Z</time></trkpt><trkpt lat="45.9203622" lon="9.1027349"><ele>770.0</ele><time>2026-04-04T15:52:20.495Z</time></trkpt><trkpt lat="45.9202987" lon="9.1026651"><ele>770.0</ele><time>2026-04-04T15:52:21.496Z</time></trkpt><trkpt lat="45.9202234" lon="9.1025896"><ele>770.0</ele><time>2026-04-04T15:52:22.495Z</time></trkpt><trkpt lat="45.9201465" lon="9.1025119"><ele>770.0</ele><time>2026-04-04T15:52:23.496Z</time></trkpt><trkpt lat="45.9200663" lon="9.1024344"><ele>770.0</ele><time>2026-04-04T15:52:24.497Z</time></trkpt><trkpt lat="45.9199885" lon="9.1023609"><ele>768.6</ele><time>2026-04-04T15:52:25.494Z</time></trkpt><trkpt lat="45.9199138" lon="9.1022796"><ele>767.2</ele><time>2026-04-04T15:52:26.497Z</time></trkpt><trkpt lat="45.919844" lon="9.1021828"><ele>765.8</ele><time>2026-04-04T15:52:27.497Z</time></trkpt><trkpt lat="45.9197771" lon="9.1020831"><ele>764.4</ele><time>2026-04-04T15:52:28.494Z</time></trkpt><trkpt lat="45.9197055" lon="9.1019849"><ele>763.0</ele><time>2026-04-04T15:52:29.497Z</time></trkpt><trkpt lat="45.9196267" lon="9.101892"><ele>763.0</ele><time>2026-04-04T15:52:30.496Z</time></trkpt><trkpt lat="45.919539" lon="9.1018274"><ele>763.0</ele><time>2026-04-04T15:52:31.496Z</time></trkpt><trkpt lat="45.9194445" lon="9.1018015"><ele>763.0</ele><time>2026-04-04T15:52:32.496Z</time></trkpt><trkpt lat="45.9193488" lon="9.1017881"><ele>763.0</ele><time>2026-04-04T15:52:33.496Z</time></trkpt><trkpt lat="45.9192534" lon="9.1017961"><ele>763.0</ele><time>2026-04-04T15:52:34.493Z</time></trkpt><trkpt lat="45.9191565" lon="9.1018387"><ele>764.0</ele><time>2026-04-04T15:52:35.493Z</time></trkpt><trkpt lat="45.9190615" lon="9.1019093"><ele>765.0</ele><time>2026-04-04T15:52:36.494Z</time></trkpt><trkpt lat="45.9189633" lon="9.1019914"><ele>766.0</ele><time>2026-04-04T15:52:37.497Z</time></trkpt><trkpt lat="45.9188595" lon="9.1020723"><ele>767.0</ele><time>2026-04-04T15:52:38.494Z</time></trkpt><trkpt lat="45.9187545" lon="9.1021458"><ele>767.0</ele><time>2026-04-04T15:52:39.495Z</time></trkpt><trkpt lat="45.9186521" lon="9.1022135"><ele>767.0</ele><time>2026-04-04T15:52:40.497Z</time></trkpt><trkpt lat="45.9185508" lon="9.1022728"><ele>767.0</ele><time>2026-04-04T15:52:41.497Z</time></trkpt><trkpt lat="45.9184534" lon="9.1023301"><ele>767.0</ele><time>2026-04-04T15:52:42.495Z</time></trkpt><trkpt lat="45.9183572" lon="9.1023833"><ele>767.0</ele><time>2026-04-04T15:52:43.496Z</time></trkpt><trkpt lat="45.9182656" lon="9.1024219"><ele>768.2857142857143</ele><time>2026-04-04T15:52:44.494Z</time></trkpt><trkpt lat="45.9181872" lon="9.1024294"><ele>769.5714285714287</ele><time>2026-04-04T15:52:45.497Z</time></trkpt><trkpt lat="45.9181174" lon="9.1023906"><ele>770.8571428571429</ele><time>2026-04-04T15:52:46.495Z</time></trkpt><trkpt lat="45.9180705" lon="9.102312"><ele>772.1428571428571</ele><time>2026-04-04T15:52:47.492Z</time></trkpt><trkpt lat="45.9180487" lon="9.1022171"><ele>773.4285714285714</ele><time>2026-04-04T15:52:48.495Z</time></trkpt><trkpt lat="45.9180848" lon="9.1021336"><ele>774.7142857142857</ele><time>2026-04-04T15:52:49.493Z</time></trkpt><trkpt lat="45.9181244" lon="9.1020505"><ele>776.0</ele><time>2026-04-04T15:52:50.491Z</time></trkpt><trkpt lat="45.9181707" lon="9.1019522"><ele>776.0</ele><time>2026-04-04T15:52:51.497Z</time></trkpt><trkpt lat="45.9182151" lon="9.1018415"><ele>776.0</ele><time>2026-04-04T15:52:52.497Z</time></trkpt><trkpt lat="45.9182542" lon="9.1017193"><ele>776.0</ele><time>2026-04-04T15:52:53.497Z</time></trkpt><trkpt lat="45.9183" lon="9.1015902"><ele>776.0</ele><time>2026-04-04T15:52:54.491Z</time></trkpt><trkpt lat="45.9183668" lon="9.1014793"><ele>776.0</ele><time>2026-04-04T15:52:55.491Z</time></trkpt><trkpt lat="45.9184451" lon="9.1013656"><ele>770.25</ele><time>2026-04-04T15:52:56.489Z</time></trkpt><trkpt lat="45.9185433" lon="9.1012582"><ele>764.5</ele><time>2026-04-04T15:52:57.493Z</time></trkpt><trkpt lat="45.9186282" lon="9.101134"><ele>758.75</ele><time>2026-04-04T15:52:58.497Z</time></trkpt><trkpt lat="45.9187048" lon="9.1009895"><ele>753.0</ele><time>2026-04-04T15:52:59.495Z</time></trkpt><trkpt lat="45.9187863" lon="9.1008525"><ele>754.5</ele><time>2026-04-04T15:53:00.496Z</time></trkpt><trkpt lat="45.9188776" lon="9.1007267"><ele>756.0</ele><time>2026-04-04T15:53:01.493Z</time></trkpt><trkpt lat="45.9189703" lon="9.1006059"><ele>757.5</ele><time>2026-04-04T15:53:02.497Z</time></trkpt><trkpt lat="45.9190595" lon="9.1004778"><ele>759.0</ele><time>2026-04-04T15:53:03.494Z</time></trkpt><trkpt lat="45.9191473" lon="9.1003534"><ele>759.0</ele><time>2026-04-04T15:53:04.496Z</time></trkpt><trkpt lat="45.919224" lon="9.1001996"><ele>759.0</ele><time>2026-04-04T15:53:05.494Z</time></trkpt><trkpt lat="45.9193076" lon="9.1000477"><ele>759.0</ele><time>2026-04-04T15:53:06.497Z</time></trkpt><trkpt lat="45.9193868" lon="9.099895"><ele>759.0</ele><time>2026-04-04T15:53:07.495Z</time></trkpt><trkpt lat="45.9194652" lon="9.0997416"><ele>753.25</ele><time>2026-04-04T15:53:08.497Z</time></trkpt><trkpt lat="45.9195459" lon="9.099596"><ele>747.5</ele><time>2026-04-04T15:53:09.497Z</time></trkpt><trkpt lat="45.9196257" lon="9.0994531"><ele>741.75</ele><time>2026-04-04T15:53:10.497Z</time></trkpt><trkpt lat="45.9197095" lon="9.099317"><ele>736.0</ele><time>2026-04-04T15:53:11.497Z</time></trkpt><trkpt lat="45.9197977" lon="9.0991876"><ele>739.1999999999999</ele><time>2026-04-04T15:53:12.497Z</time></trkpt><trkpt lat="45.919896" lon="9.0990836"><ele>742.4</ele><time>2026-04-04T15:53:13.497Z</time></trkpt><trkpt lat="45.9199997" lon="9.0990058"><ele>745.6</ele><time>2026-04-04T15:53:14.497Z</time></trkpt><trkpt lat="45.9200779" lon="9.0989178"><ele>748.8</ele><time>2026-04-04T15:53:15.497Z</time></trkpt><trkpt lat="45.9201342" lon="9.098796"><ele>752.0</ele><time>2026-04-04T15:53:16.497Z</time></trkpt><trkpt lat="45.9201983" lon="9.0986936"><ele>746.0</ele><time>2026-04-04T15:53:17.497Z</time></trkpt><trkpt lat="45.9202784" lon="9.0986263"><ele>740.0</ele><time>2026-04-04T15:53:18.493Z</time></trkpt><trkpt lat="45.9203638" lon="9.0985812"><ele>734.0</ele><time>2026-04-04T15:53:19.496Z</time></trkpt><trkpt lat="45.920437" lon="9.0985269"><ele>728.0</ele><time>2026-04-04T15:53:20.495Z</time></trkpt><trkpt lat="45.9204956" lon="9.0984264"><ele>722.0</ele><time>2026-04-04T15:53:21.496Z</time></trkpt><trkpt lat="45.9205353" lon="9.0983093"><ele>716.0</ele><time>2026-04-04T15:53:22.494Z</time></trkpt><trkpt lat="45.9205599" lon="9.0981832"><ele>715.0</ele><time>2026-04-04T15:53:23.496Z</time></trkpt><trkpt lat="45.9205558" lon="9.0980378"><ele>714.0</ele><time>2026-04-04T15:53:24.494Z</time></trkpt><trkpt lat="45.9205453" lon="9.097891"><ele>713.0</ele><time>2026-04-04T15:53:25.496Z</time></trkpt><trkpt lat="45.9205333" lon="9.0977424"><ele>712.0</ele><time>2026-04-04T15:53:26.497Z</time></trkpt><trkpt lat="45.9205247" lon="9.0976016"><ele>711.0</ele><time>2026-04-04T15:53:27.497Z</time></trkpt><trkpt lat="45.920509" lon="9.0974646"><ele>709.8</ele><time>2026-04-04T15:53:28.496Z</time></trkpt><trkpt lat="45.9204983" lon="9.0973274"><ele>708.5999999999999</ele><time>2026-04-04T15:53:29.497Z</time></trkpt><trkpt lat="45.920479" lon="9.0971926"><ele>707.4</ele><time>2026-04-04T15:53:30.497Z</time></trkpt><trkpt lat="45.9204405" lon="9.0970693"><ele>706.2</ele><time>2026-04-04T15:53:31.495Z</time></trkpt><trkpt lat="45.9203824" lon="9.0969596"><ele>705.0</ele><time>2026-04-04T15:53:32.496Z</time></trkpt><trkpt lat="45.9203091" lon="9.0968565"><ele>705.0</ele><time>2026-04-04T15:53:33.496Z</time></trkpt><trkpt lat="45.9202307" lon="9.0967535"><ele>705.0</ele><time>2026-04-04T15:53:34.494Z</time></trkpt><trkpt lat="45.9201505" lon="9.0966559"><ele>705.0</ele><time>2026-04-04T15:53:35.497Z</time></trkpt><trkpt lat="45.9200753" lon="9.0965661"><ele>705.0</ele><time>2026-04-04T15:53:36.496Z</time></trkpt><trkpt lat="45.9200184" lon="9.0964706"><ele>705.0</ele><time>2026-04-04T15:53:37.497Z</time></trkpt><trkpt lat="45.9199843" lon="9.0963609"><ele>705.6666666666666</ele><time>2026-04-04T15:53:38.494Z</time></trkpt><trkpt lat="45.9199847" lon="9.0962681"><ele>706.3333333333334</ele><time>2026-04-04T15:53:39.495Z</time></trkpt><trkpt lat="45.9200139" lon="9.0961803"><ele>707.0</ele><time>2026-04-04T15:53:40.496Z</time></trkpt><trkpt lat="45.9200717" lon="9.096091"><ele>707.6666666666667</ele><time>2026-04-04T15:53:41.497Z</time></trkpt><trkpt lat="45.9201336" lon="9.0959879"><ele>708.3333333333334</ele><time>2026-04-04T15:53:42.493Z</time></trkpt><trkpt lat="45.9201991" lon="9.0958918"><ele>709.0</ele><time>2026-04-04T15:53:43.497Z</time></trkpt><trkpt lat="45.9202748" lon="9.0958359"><ele>709.0</ele><time>2026-04-04T15:53:44.497Z</time></trkpt><trkpt lat="45.9203631" lon="9.0958154"><ele>709.0</ele><time>2026-04-04T15:53:45.497Z</time></trkpt><trkpt lat="45.9204583" lon="9.0958161"><ele>709.0</ele><time>2026-04-04T15:53:46.497Z</time></trkpt><trkpt lat="45.9205561" lon="9.0958289"><ele>709.0</ele><time>2026-04-04T15:53:47.497Z</time></trkpt><trkpt lat="45.9206538" lon="9.0958274"><ele>709.0</ele><time>2026-04-04T15:53:48.496Z</time></trkpt><trkpt lat="45.9207451" lon="9.0958096"><ele>709.0</ele><time>2026-04-04T15:53:49.497Z</time></trkpt><trkpt lat="45.920823" lon="9.0957551"><ele>709.0</ele><time>2026-04-04T15:53:50.494Z</time></trkpt><trkpt lat="45.9208859" lon="9.095676"><ele>709.0</ele><time>2026-04-04T15:53:51.496Z</time></trkpt><trkpt lat="45.9209221" lon="9.095592"><ele>709.0</ele><time>2026-04-04T15:53:52.497Z</time></trkpt><trkpt lat="45.9209824" lon="9.0954585"><ele>709.0</ele><time>2026-04-04T15:53:54.496Z</time></trkpt><trkpt lat="45.92103" lon="9.095354"><ele>709.0</ele><time>2026-04-04T15:53:56.494Z</time></trkpt><trkpt lat="45.9210724" lon="9.0952704"><ele>707.6666666666667</ele><time>2026-04-04T15:53:58.497Z</time></trkpt><trkpt lat="45.921137" lon="9.0952025"><ele>706.3333333333334</ele><time>2026-04-04T15:54:00.494Z</time></trkpt><trkpt lat="45.9212036" lon="9.0951714"><ele>705.0</ele><time>2026-04-04T15:54:02.497Z</time></trkpt><trkpt lat="45.9213003" lon="9.0951094"><ele>703.6666666666666</ele><time>2026-04-04T15:54:04.497Z</time></trkpt><trkpt lat="45.9213606" lon="9.0950501"><ele>702.3333333333333</ele><time>2026-04-04T15:54:05.495Z</time></trkpt><trkpt lat="45.921419" lon="9.0949701"><ele>701.0</ele><time>2026-04-04T15:54:06.497Z</time></trkpt><trkpt lat="45.9214819" lon="9.0948828"><ele>702.1999999999999</ele><time>2026-04-04T15:54:07.497Z</time></trkpt><trkpt lat="45.9215567" lon="9.094807"><ele>703.4</ele><time>2026-04-04T15:54:08.497Z</time></trkpt><trkpt lat="45.921646" lon="9.0947502"><ele>704.6</ele><time>2026-04-04T15:54:09.497Z</time></trkpt><trkpt lat="45.9217447" lon="9.0946857"><ele>705.8</ele><time>2026-04-04T15:54:10.497Z</time></trkpt><trkpt lat="45.9218482" lon="9.094613"><ele>707.0</ele><time>2026-04-04T15:54:11.496Z</time></trkpt><trkpt lat="45.9219471" lon="9.0945488"><ele>707.0</ele><time>2026-04-04T15:54:12.497Z</time></trkpt><trkpt lat="45.922047" lon="9.0945038"><ele>707.0</ele><time>2026-04-04T15:54:13.497Z</time></trkpt><trkpt lat="45.9221515" lon="9.0944927"><ele>707.0</ele><time>2026-04-04T15:54:14.496Z</time></trkpt><trkpt lat="45.9222626" lon="9.0945077"><ele>707.0</ele><time>2026-04-04T15:54:15.497Z</time></trkpt><trkpt lat="45.9223809" lon="9.0945467"><ele>707.0</ele><time>2026-04-04T15:54:16.497Z</time></trkpt><trkpt lat="45.9225087" lon="9.0945789"><ele>706.25</ele><time>2026-04-04T15:54:17.496Z</time></trkpt><trkpt lat="45.9226329" lon="9.0946145"><ele>705.5</ele><time>2026-04-04T15:54:18.497Z</time></trkpt><trkpt lat="45.9227475" lon="9.0946469"><ele>704.75</ele><time>2026-04-04T15:54:19.497Z</time></trkpt><trkpt lat="45.9228605" lon="9.094678"><ele>704.0</ele><time>2026-04-04T15:54:20.496Z</time></trkpt><trkpt lat="45.922976" lon="9.0946962"><ele>704.0</ele><time>2026-04-04T15:54:21.492Z</time></trkpt><trkpt lat="45.9230922" lon="9.0946744"><ele>704.0</ele><time>2026-04-04T15:54:22.496Z</time></trkpt><trkpt lat="45.9232116" lon="9.0946338"><ele>704.0</ele><time>2026-04-04T15:54:23.496Z</time></trkpt><trkpt lat="45.9233174" lon="9.0945787"><ele>704.0</ele><time>2026-04-04T15:54:24.497Z</time></trkpt><trkpt lat="45.9234226" lon="9.0945246"><ele>702.4000000000001</ele><time>2026-04-04T15:54:25.496Z</time></trkpt><trkpt lat="45.9235298" lon="9.0944788"><ele>700.8</ele><time>2026-04-04T15:54:26.492Z</time></trkpt><trkpt lat="45.9236358" lon="9.0944347"><ele>699.2</ele><time>2026-04-04T15:54:27.496Z</time></trkpt><trkpt lat="45.9237398" lon="9.0943828"><ele>697.5999999999999</ele><time>2026-04-04T15:54:28.497Z</time></trkpt><trkpt lat="45.9238402" lon="9.0943299"><ele>696.0</ele><time>2026-04-04T15:54:29.496Z</time></trkpt><trkpt lat="45.9239377" lon="9.0942831"><ele>696.0</ele><time>2026-04-04T15:54:30.497Z</time></trkpt><trkpt lat="45.9240367" lon="9.094245"><ele>696.0</ele><time>2026-04-04T15:54:31.497Z</time></trkpt><trkpt lat="45.9241382" lon="9.0942092"><ele>696.0</ele><time>2026-04-04T15:54:32.493Z</time></trkpt><trkpt lat="45.9242457" lon="9.0941808"><ele>696.0</ele><time>2026-04-04T15:54:33.497Z</time></trkpt><trkpt lat="45.9243498" lon="9.094158"><ele>696.0</ele><time>2026-04-04T15:54:34.495Z</time></trkpt><trkpt lat="45.9244563" lon="9.0941526"><ele>694.1999999999999</ele><time>2026-04-04T15:54:35.496Z</time></trkpt><trkpt lat="45.9245662" lon="9.0941541"><ele>692.4</ele><time>2026-04-04T15:54:36.497Z</time></trkpt><trkpt lat="45.9246777" lon="9.0941561"><ele>690.6</ele><time>2026-04-04T15:54:37.497Z</time></trkpt><trkpt lat="45.9247911" lon="9.0941548"><ele>688.8</ele><time>2026-04-04T15:54:38.492Z</time></trkpt><trkpt lat="45.9249011" lon="9.0941514"><ele>687.0</ele><time>2026-04-04T15:54:39.496Z</time></trkpt><trkpt lat="45.925009" lon="9.0941462"><ele>688.4000000000001</ele><time>2026-04-04T15:54:40.496Z</time></trkpt><trkpt lat="45.9251162" lon="9.094141"><ele>689.8000000000001</ele><time>2026-04-04T15:54:41.497Z</time></trkpt><trkpt lat="45.9252227" lon="9.0941321"><ele>691.2</ele><time>2026-04-04T15:54:42.497Z</time></trkpt><trkpt lat="45.9253277" lon="9.0941066"><ele>692.6</ele><time>2026-04-04T15:54:43.495Z</time></trkpt><trkpt lat="45.9254301" lon="9.094062"><ele>694.0</ele><time>2026-04-04T15:54:44.497Z</time></trkpt><trkpt lat="45.9255294" lon="9.0940002"><ele>694.0</ele><time>2026-04-04T15:54:45.493Z</time></trkpt><trkpt lat="45.925625" lon="9.0939415"><ele>694.0</ele><time>2026-04-04T15:54:46.494Z</time></trkpt><trkpt lat="45.925711" lon="9.0938739"><ele>694.0</ele><time>2026-04-04T15:54:47.497Z</time></trkpt><trkpt lat="45.9257886" lon="9.0938045"><ele>694.0</ele><time>2026-04-04T15:54:48.497Z</time></trkpt><trkpt lat="45.9258491" lon="9.0937707"><ele>694.0</ele><time>2026-04-04T15:54:49.496Z</time></trkpt><trkpt lat="45.9259446" lon="9.0938196"><ele>694.0</ele><time>2026-04-04T15:54:51.497Z</time></trkpt><trkpt lat="45.9259223" lon="9.0939567"><ele>694.0</ele><time>2026-04-04T15:54:53.496Z</time></trkpt><trkpt lat="45.9258717" lon="9.0940297"><ele>694.0</ele><time>2026-04-04T15:54:54.494Z</time></trkpt><trkpt lat="45.9258045" lon="9.0941153"><ele>694.0</ele><time>2026-04-04T15:54:55.493Z</time></trkpt><trkpt lat="45.9257329" lon="9.0942079"><ele>694.0</ele><time>2026-04-04T15:54:56.494Z</time></trkpt><trkpt lat="45.9256607" lon="9.0942989"><ele>690.0</ele><time>2026-04-04T15:54:57.492Z</time></trkpt><trkpt lat="45.9255906" lon="9.0943896"><ele>686.0</ele><time>2026-04-04T15:54:58.494Z</time></trkpt><trkpt lat="45.9255198" lon="9.0944815"><ele>682.0</ele><time>2026-04-04T15:54:59.497Z</time></trkpt><trkpt lat="45.9254462" lon="9.0945709"><ele>678.0</ele><time>2026-04-04T15:55:00.497Z</time></trkpt><trkpt lat="45.9253706" lon="9.0946568"><ele>674.0</ele><time>2026-04-04T15:55:01.497Z</time></trkpt><trkpt lat="45.9252925" lon="9.094738"><ele>674.0</ele><time>2026-04-04T15:55:02.495Z</time></trkpt><trkpt lat="45.9252155" lon="9.0948231"><ele>674.0</ele><time>2026-04-04T15:55:03.492Z</time></trkpt><trkpt lat="45.9251377" lon="9.0949064"><ele>674.0</ele><time>2026-04-04T15:55:04.497Z</time></trkpt><trkpt lat="45.925064" lon="9.094988"><ele>674.0</ele><time>2026-04-04T15:55:05.497Z</time></trkpt><trkpt lat="45.9249959" lon="9.095074"><ele>674.0</ele><time>2026-04-04T15:55:06.497Z</time></trkpt><trkpt lat="45.9249484" lon="9.0951758"><ele>673.3333333333333</ele><time>2026-04-04T15:55:07.497Z</time></trkpt><trkpt lat="45.924925" lon="9.0952915"><ele>672.6666666666666</ele><time>2026-04-04T15:55:08.497Z</time></trkpt><trkpt lat="45.9249267" lon="9.0954133"><ele>672.0</ele><time>2026-04-04T15:55:09.495Z</time></trkpt><trkpt lat="45.924931" lon="9.0955333"><ele>671.3333333333334</ele><time>2026-04-04T15:55:10.496Z</time></trkpt><trkpt lat="45.9249066" lon="9.0956462"><ele>670.6666666666667</ele><time>2026-04-04T15:55:11.497Z</time></trkpt><trkpt lat="45.9248543" lon="9.0957454"><ele>670.0</ele><time>2026-04-04T15:55:12.497Z</time></trkpt><trkpt lat="45.924787" lon="9.0958429"><ele>668.0</ele><time>2026-04-04T15:55:13.496Z</time></trkpt><trkpt lat="45.9247169" lon="9.0959479"><ele>666.0</ele><time>2026-04-04T15:55:14.497Z</time></trkpt><trkpt lat="45.9246486" lon="9.0960446"><ele>664.0</ele><time>2026-04-04T15:55:15.497Z</time></trkpt><trkpt lat="45.92459" lon="9.0961347"><ele>662.0</ele><time>2026-04-04T15:55:16.494Z</time></trkpt><trkpt lat="45.9245442" lon="9.0962197"><ele>660.0</ele><time>2026-04-04T15:55:17.497Z</time></trkpt><trkpt lat="45.9245371" lon="9.0963139"><ele>658.0</ele><time>2026-04-04T15:55:18.495Z</time></trkpt><trkpt lat="45.9246166" lon="9.0964272"><ele>658.0</ele><time>2026-04-04T15:55:20.497Z</time></trkpt><trkpt lat="45.9247329" lon="9.0963438"><ele>658.0</ele><time>2026-04-04T15:55:22.496Z</time></trkpt><trkpt lat="45.9248122" lon="9.09627"><ele>658.0</ele><time>2026-04-04T15:55:23.497Z</time></trkpt><trkpt lat="45.9248989" lon="9.0962105"><ele>658.0</ele><time>2026-04-04T15:55:24.495Z</time></trkpt><trkpt lat="45.9249856" lon="9.0961446"><ele>658.0</ele><time>2026-04-04T15:55:25.495Z</time></trkpt><trkpt lat="45.9250695" lon="9.0960779"><ele>658.2</ele><time>2026-04-04T15:55:26.495Z</time></trkpt><trkpt lat="45.9251521" lon="9.0960102"><ele>658.4</ele><time>2026-04-04T15:55:27.496Z</time></trkpt><trkpt lat="45.9252337" lon="9.0959435"><ele>658.6</ele><time>2026-04-04T15:55:28.497Z</time></trkpt><trkpt lat="45.9253147" lon="9.0958747"><ele>658.8000000000001</ele><time>2026-04-04T15:55:29.495Z</time></trkpt><trkpt lat="45.9253972" lon="9.0958105"><ele>659.0</ele><time>2026-04-04T15:55:30.495Z</time></trkpt><trkpt lat="45.9254793" lon="9.0957522"><ele>659.0</ele><time>2026-04-04T15:55:31.497Z</time></trkpt><trkpt lat="45.92556" lon="9.0957059"><ele>659.0</ele><time>2026-04-04T15:55:32.497Z</time></trkpt><trkpt lat="45.9256354" lon="9.0956696"><ele>659.0</ele><time>2026-04-04T15:55:33.497Z</time></trkpt><trkpt lat="45.9257099" lon="9.0956366"><ele>659.0</ele><time>2026-04-04T15:55:34.492Z</time></trkpt><trkpt lat="45.9257834" lon="9.0956096"><ele>659.0</ele><time>2026-04-04T15:55:35.496Z</time></trkpt><trkpt lat="45.9258548" lon="9.0955803"><ele>659.0</ele><time>2026-04-04T15:55:36.497Z</time></trkpt><trkpt lat="45.9259247" lon="9.0955447"><ele>656.3333333333333</ele><time>2026-04-04T15:55:37.495Z</time></trkpt><trkpt lat="45.9259939" lon="9.0955001"><ele>653.6666666666666</ele><time>2026-04-04T15:55:38.497Z</time></trkpt><trkpt lat="45.9260617" lon="9.0954432"><ele>651.0</ele><time>2026-04-04T15:55:39.497Z</time></trkpt><trkpt lat="45.9261194" lon="9.095385"><ele>648.3333333333334</ele><time>2026-04-04T15:55:40.497Z</time></trkpt><trkpt lat="45.9262245" lon="9.0953634"><ele>645.6666666666667</ele><time>2026-04-04T15:55:42.493Z</time></trkpt><trkpt lat="45.9262589" lon="9.0954851"><ele>643.0</ele><time>2026-04-04T15:55:44.497Z</time></trkpt><trkpt lat="45.9261717" lon="9.0955733"><ele>643.0</ele><time>2026-04-04T15:55:46.497Z</time></trkpt><trkpt lat="45.9261071" lon="9.0956073"><ele>643.0</ele><time>2026-04-04T15:55:47.489Z</time></trkpt><trkpt lat="45.9260376" lon="9.0956498"><ele>643.0</ele><time>2026-04-04T15:55:48.492Z</time></trkpt><trkpt lat="45.9259764" lon="9.0957095"><ele>643.0</ele><time>2026-04-04T15:55:49.492Z</time></trkpt><trkpt lat="45.9259296" lon="9.0957898"><ele>643.0</ele><time>2026-04-04T15:55:50.492Z</time></trkpt><trkpt lat="45.9258937" lon="9.0958905"><ele>643.0</ele><time>2026-04-04T15:55:51.495Z</time></trkpt><trkpt lat="45.9258659" lon="9.0959996"><ele>643.2</ele><time>2026-04-04T15:55:52.495Z</time></trkpt><trkpt lat="45.9258416" lon="9.0961185"><ele>643.4</ele><time>2026-04-04T15:55:53.494Z</time></trkpt><trkpt lat="45.9258171" lon="9.0962438"><ele>643.6</ele><time>2026-04-04T15:55:54.491Z</time></trkpt><trkpt lat="45.9257922" lon="9.0963729"><ele>643.8000000000001</ele><time>2026-04-04T15:55:55.496Z</time></trkpt><trkpt lat="45.925765" lon="9.0965066"><ele>644.0</ele><time>2026-04-04T15:55:56.495Z</time></trkpt><trkpt lat="45.9257409" lon="9.0966352"><ele>642.0</ele><time>2026-04-04T15:55:57.497Z</time></trkpt><trkpt lat="45.9257177" lon="9.0967532"><ele>640.0</ele><time>2026-04-04T15:55:58.496Z</time></trkpt><trkpt lat="45.9256874" lon="9.0968624"><ele>638.0</ele><time>2026-04-04T15:55:59.493Z</time></trkpt><trkpt lat="45.9256412" lon="9.0969602"><ele>636.0</ele><time>2026-04-04T15:56:00.497Z</time></trkpt><trkpt lat="45.9255764" lon="9.0970454"><ele>634.0</ele><time>2026-04-04T15:56:01.497Z</time></trkpt><trkpt lat="45.9255036" lon="9.0971322"><ele>632.0</ele><time>2026-04-04T15:56:02.496Z</time></trkpt><trkpt lat="45.9254239" lon="9.09722"><ele>632.0</ele><time>2026-04-04T15:56:03.497Z</time></trkpt><trkpt lat="45.9253393" lon="9.0973094"><ele>632.0</ele><time>2026-04-04T15:56:04.495Z</time></trkpt><trkpt lat="45.9252578" lon="9.0973968"><ele>632.0</ele><time>2026-04-04T15:56:05.493Z</time></trkpt><trkpt lat="45.9251737" lon="9.0974866"><ele>632.0</ele><time>2026-04-04T15:56:06.493Z</time></trkpt><trkpt lat="45.9250898" lon="9.0975747"><ele>632.0</ele><time>2026-04-04T15:56:07.497Z</time></trkpt><trkpt lat="45.9250079" lon="9.0976596"><ele>632.6</ele><time>2026-04-04T15:56:08.492Z</time></trkpt><trkpt lat="45.9249246" lon="9.0977435"><ele>633.2</ele><time>2026-04-04T15:56:09.497Z</time></trkpt><trkpt lat="45.9248355" lon="9.0978069"><ele>633.8</ele><time>2026-04-04T15:56:10.494Z</time></trkpt><trkpt lat="45.9247383" lon="9.0978556"><ele>634.4</ele><time>2026-04-04T15:56:11.493Z</time></trkpt><trkpt lat="45.9246447" lon="9.0978996"><ele>635.0</ele><time>2026-04-04T15:56:12.492Z</time></trkpt><trkpt lat="45.9245558" lon="9.0979428"><ele>634.9999999999999</ele><time>2026-04-04T15:56:13.497Z</time></trkpt><trkpt lat="45.9244838" lon="9.0980019"><ele>635.0</ele><time>2026-04-04T15:56:14.492Z</time></trkpt><trkpt lat="45.9244365" lon="9.0980808"><ele>635.0</ele><time>2026-04-04T15:56:15.497Z</time></trkpt><trkpt lat="45.9244209" lon="9.0981734"><ele>635.0</ele><time>2026-04-04T15:56:16.497Z</time></trkpt><trkpt lat="45.9244363" lon="9.098267"><ele>635.0</ele><time>2026-04-04T15:56:17.494Z</time></trkpt><trkpt lat="45.9244702" lon="9.0983591"><ele>634.9999999999999</ele><time>2026-04-04T15:56:18.497Z</time></trkpt><trkpt lat="45.9245089" lon="9.0984526"><ele>635.0</ele><time>2026-04-04T15:56:19.497Z</time></trkpt><trkpt lat="45.9245486" lon="9.0985338"><ele>632.8571428571428</ele><time>2026-04-04T15:56:20.497Z</time></trkpt><trkpt lat="45.9245853" lon="9.0986137"><ele>630.7142857142857</ele><time>2026-04-04T15:56:21.494Z</time></trkpt><trkpt lat="45.9246257" lon="9.0986944"><ele>628.5714285714286</ele><time>2026-04-04T15:56:22.497Z</time></trkpt><trkpt lat="45.9246693" lon="9.0987818"><ele>626.4285714285713</ele><time>2026-04-04T15:56:23.497Z</time></trkpt><trkpt lat="45.9247217" lon="9.0988686"><ele>624.2857142857142</ele><time>2026-04-04T15:56:24.497Z</time></trkpt><trkpt lat="45.9247826" lon="9.0989276"><ele>622.1428571428571</ele><time>2026-04-04T15:56:25.495Z</time></trkpt><trkpt lat="45.9248514" lon="9.0989565"><ele>620.0</ele><time>2026-04-04T15:56:26.497Z</time></trkpt><trkpt lat="45.9249253" lon="9.0989497"><ele>620.0</ele><time>2026-04-04T15:56:27.497Z</time></trkpt><trkpt lat="45.9249966" lon="9.0989131"><ele>620.0</ele><time>2026-04-04T15:56:28.493Z</time></trkpt><trkpt lat="45.925067" lon="9.0988687"><ele>620.0</ele><time>2026-04-04T15:56:29.497Z</time></trkpt><trkpt lat="45.9251433" lon="9.098822"><ele>620.0</ele><time>2026-04-04T15:56:30.496Z</time></trkpt><trkpt lat="45.9252269" lon="9.0987953"><ele>620.0</ele><time>2026-04-04T15:56:31.497Z</time></trkpt><trkpt lat="45.9253114" lon="9.0987821"><ele>620.0</ele><time>2026-04-04T15:56:32.497Z</time></trkpt><trkpt lat="45.9254047" lon="9.0987846"><ele>617.0</ele><time>2026-04-04T15:56:33.497Z</time></trkpt><trkpt lat="45.9255056" lon="9.0987927"><ele>614.0</ele><time>2026-04-04T15:56:34.497Z</time></trkpt><trkpt lat="45.9256076" lon="9.0988"><ele>611.0</ele><time>2026-04-04T15:56:35.497Z</time></trkpt><trkpt lat="45.9257061" lon="9.0988071"><ele>608.0</ele><time>2026-04-04T15:56:36.497Z</time></trkpt><trkpt lat="45.9258013" lon="9.0988137"><ele>605.0</ele><time>2026-04-04T15:56:37.497Z</time></trkpt><trkpt lat="45.9258909" lon="9.0988314"><ele>602.6666666666666</ele><time>2026-04-04T15:56:38.496Z</time></trkpt><trkpt lat="45.9259787" lon="9.0988571"><ele>600.3333333333333</ele><time>2026-04-04T15:56:39.493Z</time></trkpt><trkpt lat="45.9260625" lon="9.098888"><ele>598.0</ele><time>2026-04-04T15:56:40.497Z</time></trkpt><trkpt lat="45.9261396" lon="9.0989239"><ele>595.6666666666666</ele><time>2026-04-04T15:56:41.496Z</time></trkpt><trkpt lat="45.9262019" lon="9.0989852"><ele>593.3333333333334</ele><time>2026-04-04T15:56:42.497Z</time></trkpt><trkpt lat="45.9262513" lon="9.0990737"><ele>591.0</ele><time>2026-04-04T15:56:43.491Z</time></trkpt><trkpt lat="45.9262936" lon="9.099183"><ele>591.0</ele><time>2026-04-04T15:56:44.495Z</time></trkpt><trkpt lat="45.9263297" lon="9.0993065"><ele>591.0</ele><time>2026-04-04T15:56:45.497Z</time></trkpt><trkpt lat="45.9263552" lon="9.0994393"><ele>591.0</ele><time>2026-04-04T15:56:46.497Z</time></trkpt><trkpt lat="45.9263762" lon="9.0995625"><ele>591.0</ele><time>2026-04-04T15:56:47.496Z</time></trkpt><trkpt lat="45.926401" lon="9.0996729"><ele>591.0</ele><time>2026-04-04T15:56:48.497Z</time></trkpt><trkpt lat="45.9264474" lon="9.0997546"><ele>591.0</ele><time>2026-04-04T15:56:49.496Z</time></trkpt><trkpt lat="45.9265061" lon="9.0998003"><ele>591.0</ele><time>2026-04-04T15:56:50.497Z</time></trkpt><trkpt lat="45.9265813" lon="9.0998296"><ele>591.0</ele><time>2026-04-04T15:56:52.496Z</time></trkpt><trkpt lat="45.9266772" lon="9.0998516"><ele>591.0</ele><time>2026-04-04T15:57:00.495Z</time></trkpt></trkseg></trk></gpx>